<?xml version="1.0" encoding="UTF-8" standalone="no" ?>
<gpx xmlns="http://www.topografix.com/GPX/1/1" xmlns:xsi="http://www.w3.org/2001/XMLSchema-instance" xsi:schemaLocation="http://www.topografix.com/GPX/1/1 http://www.topografix.com/GPX/1/1/gpx.xsd" version="1.1" creator="VisuGPX - https://www.visugpx.com">
  <metadata>
    <name>ainsa</name>
  </metadata>
  <trk>
    <name><![CDATA[Intégrale de Beroy et option]]></name>
    <extensions>
      <line xmlns="http://www.topografix.com/GPX/gpx_style/0/2">
        <color>FFFF00</color>
        <width>4</width>
      </line>
    </extensions>
    <trkseg>
      <trkpt lat="42.49928" lon="-0.11844">
        <ele>762.5</ele>
        <time>2017-08-13T07:36:13Z</time>
      </trkpt>
      <trkpt lat="42.49922" lon="-0.11836">
        <ele>762.6</ele>
        <time>2017-08-13T07:36:14Z</time>
      </trkpt>
      <trkpt lat="42.4992" lon="-0.11851">
        <ele>762.9</ele>
        <time>2017-08-13T07:36:15Z</time>
      </trkpt>
      <trkpt lat="42.49916" lon="-0.11851">
        <ele>763</ele>
        <time>2017-08-13T07:36:17Z</time>
      </trkpt>
      <trkpt lat="42.49914" lon="-0.11849">
        <ele>763.2</ele>
        <time>2017-08-13T07:36:18Z</time>
      </trkpt>
      <trkpt lat="42.49925" lon="-0.11863">
        <ele>763.6</ele>
        <time>2017-08-13T07:36:20Z</time>
      </trkpt>
      <trkpt lat="42.49921" lon="-0.1186">
        <ele>763.7</ele>
        <time>2017-08-13T07:36:25Z</time>
      </trkpt>
      <trkpt lat="42.49931" lon="-0.11862">
        <ele>763.9</ele>
        <time>2017-08-13T07:36:28Z</time>
      </trkpt>
      <trkpt lat="42.49921" lon="-0.11863">
        <ele>764.2</ele>
        <time>2017-08-13T07:40:53Z</time>
      </trkpt>
      <trkpt lat="42.49922" lon="-0.11871">
        <ele>764.3</ele>
        <time>2017-08-13T07:44:23Z</time>
      </trkpt>
      <trkpt lat="42.49922" lon="-0.11875">
        <ele>764.4</ele>
        <time>2017-08-13T07:44:25Z</time>
      </trkpt>
      <trkpt lat="42.49922" lon="-0.11879">
        <ele>764.5</ele>
        <time>2017-08-13T07:44:26Z</time>
      </trkpt>
      <trkpt lat="42.49921" lon="-0.11884">
        <ele>764.6</ele>
        <time>2017-08-13T07:44:30Z</time>
      </trkpt>
      <trkpt lat="42.49922" lon="-0.11889">
        <ele>764.8</ele>
        <time>2017-08-13T07:44:32Z</time>
      </trkpt>
      <trkpt lat="42.49921" lon="-0.11894">
        <ele>764.9</ele>
        <time>2017-08-13T07:44:34Z</time>
      </trkpt>
      <trkpt lat="42.49921" lon="-0.119">
        <ele>765.1</ele>
        <time>2017-08-13T07:44:35Z</time>
      </trkpt>
      <trkpt lat="42.49922" lon="-0.11907">
        <ele>765.3</ele>
        <time>2017-08-13T07:44:38Z</time>
      </trkpt>
      <trkpt lat="42.49923" lon="-0.11911">
        <ele>765.5</ele>
        <time>2017-08-13T07:44:39Z</time>
      </trkpt>
      <trkpt lat="42.49924" lon="-0.11919">
        <ele>765.7</ele>
        <time>2017-08-13T07:44:40Z</time>
      </trkpt>
      <trkpt lat="42.49925" lon="-0.11923">
        <ele>765.8</ele>
        <time>2017-08-13T07:44:41Z</time>
      </trkpt>
      <trkpt lat="42.49925" lon="-0.11927">
        <ele>766</ele>
        <time>2017-08-13T07:44:42Z</time>
      </trkpt>
      <trkpt lat="42.49925" lon="-0.11931">
        <ele>766.5</ele>
        <time>2017-08-13T07:44:44Z</time>
      </trkpt>
      <trkpt lat="42.49925" lon="-0.11935">
        <ele>766.9</ele>
        <time>2017-08-13T07:44:45Z</time>
      </trkpt>
      <trkpt lat="42.49925" lon="-0.11941">
        <ele>767.8</ele>
        <time>2017-08-13T07:44:47Z</time>
      </trkpt>
      <trkpt lat="42.49925" lon="-0.11948">
        <ele>768.6</ele>
        <time>2017-08-13T07:44:48Z</time>
      </trkpt>
      <trkpt lat="42.49926" lon="-0.11954">
        <ele>769.2</ele>
        <time>2017-08-13T07:44:50Z</time>
      </trkpt>
      <trkpt lat="42.49928" lon="-0.1196">
        <ele>769.7</ele>
        <time>2017-08-13T07:44:53Z</time>
      </trkpt>
      <trkpt lat="42.4993" lon="-0.11964">
        <ele>770</ele>
        <time>2017-08-13T07:44:54Z</time>
      </trkpt>
      <trkpt lat="42.49933" lon="-0.1197">
        <ele>770.6</ele>
        <time>2017-08-13T07:44:55Z</time>
      </trkpt>
      <trkpt lat="42.49936" lon="-0.11976">
        <ele>771.1</ele>
        <time>2017-08-13T07:44:57Z</time>
      </trkpt>
      <trkpt lat="42.49937" lon="-0.11979">
        <ele>771.4</ele>
        <time>2017-08-13T07:44:58Z</time>
      </trkpt>
      <trkpt lat="42.49939" lon="-0.11982">
        <ele>771.7</ele>
        <time>2017-08-13T07:45:00Z</time>
      </trkpt>
      <trkpt lat="42.49942" lon="-0.11987">
        <ele>772.6</ele>
        <time>2017-08-13T07:45:02Z</time>
      </trkpt>
      <trkpt lat="42.49946" lon="-0.11992">
        <ele>773.6</ele>
        <time>2017-08-13T07:45:04Z</time>
      </trkpt>
      <trkpt lat="42.49948" lon="-0.11994">
        <ele>774.2</ele>
        <time>2017-08-13T07:45:05Z</time>
      </trkpt>
      <trkpt lat="42.49952" lon="-0.11999">
        <ele>774.9</ele>
        <time>2017-08-13T07:45:07Z</time>
      </trkpt>
      <trkpt lat="42.49956" lon="-0.12003">
        <ele>775.5</ele>
        <time>2017-08-13T07:45:09Z</time>
      </trkpt>
      <trkpt lat="42.49961" lon="-0.12011">
        <ele>776.1</ele>
        <time>2017-08-13T07:45:11Z</time>
      </trkpt>
      <trkpt lat="42.49963" lon="-0.12013">
        <ele>776.3</ele>
        <time>2017-08-13T07:45:12Z</time>
      </trkpt>
      <trkpt lat="42.49966" lon="-0.12019">
        <ele>776.8</ele>
        <time>2017-08-13T07:45:14Z</time>
      </trkpt>
      <trkpt lat="42.49968" lon="-0.12026">
        <ele>777.4</ele>
        <time>2017-08-13T07:45:17Z</time>
      </trkpt>
      <trkpt lat="42.49969" lon="-0.12029">
        <ele>778</ele>
        <time>2017-08-13T07:45:18Z</time>
      </trkpt>
      <trkpt lat="42.49972" lon="-0.12037">
        <ele>778</ele>
        <time>2017-08-13T07:45:19Z</time>
      </trkpt>
      <trkpt lat="42.49974" lon="-0.12039">
        <ele>778</ele>
        <time>2017-08-13T07:45:20Z</time>
      </trkpt>
      <trkpt lat="42.49977" lon="-0.12042">
        <ele>778</ele>
        <time>2017-08-13T07:45:21Z</time>
      </trkpt>
      <trkpt lat="42.49979" lon="-0.12045">
        <ele>778</ele>
        <time>2017-08-13T07:45:23Z</time>
      </trkpt>
      <trkpt lat="42.49981" lon="-0.12047">
        <ele>778</ele>
        <time>2017-08-13T07:45:24Z</time>
      </trkpt>
      <trkpt lat="42.49984" lon="-0.1205">
        <ele>778</ele>
        <time>2017-08-13T07:45:25Z</time>
      </trkpt>
      <trkpt lat="42.49986" lon="-0.12053">
        <ele>778</ele>
        <time>2017-08-13T07:45:26Z</time>
      </trkpt>
      <trkpt lat="42.49988" lon="-0.12056">
        <ele>778</ele>
        <time>2017-08-13T07:45:27Z</time>
      </trkpt>
      <trkpt lat="42.49989" lon="-0.12059">
        <ele>778</ele>
        <time>2017-08-13T07:45:28Z</time>
      </trkpt>
      <trkpt lat="42.49989" lon="-0.12063">
        <ele>778</ele>
        <time>2017-08-13T07:45:29Z</time>
      </trkpt>
      <trkpt lat="42.49989" lon="-0.12071">
        <ele>778</ele>
        <time>2017-08-13T07:45:30Z</time>
      </trkpt>
      <trkpt lat="42.49987" lon="-0.12078">
        <ele>778</ele>
        <time>2017-08-13T07:45:33Z</time>
      </trkpt>
      <trkpt lat="42.49985" lon="-0.12081">
        <ele>778</ele>
        <time>2017-08-13T07:45:34Z</time>
      </trkpt>
      <trkpt lat="42.49983" lon="-0.12083">
        <ele>778.1</ele>
        <time>2017-08-13T07:45:35Z</time>
      </trkpt>
      <trkpt lat="42.49977" lon="-0.12087">
        <ele>778.4</ele>
        <time>2017-08-13T07:45:36Z</time>
      </trkpt>
      <trkpt lat="42.49975" lon="-0.12088">
        <ele>778.5</ele>
        <time>2017-08-13T07:45:37Z</time>
      </trkpt>
      <trkpt lat="42.4997" lon="-0.12091">
        <ele>778.7</ele>
        <time>2017-08-13T07:45:39Z</time>
      </trkpt>
      <trkpt lat="42.49967" lon="-0.12093">
        <ele>778.8</ele>
        <time>2017-08-13T07:45:41Z</time>
      </trkpt>
      <trkpt lat="42.49965" lon="-0.12095">
        <ele>779</ele>
        <time>2017-08-13T07:45:42Z</time>
      </trkpt>
      <trkpt lat="42.49963" lon="-0.12097">
        <ele>779.3</ele>
        <time>2017-08-13T07:45:43Z</time>
      </trkpt>
      <trkpt lat="42.4996" lon="-0.121">
        <ele>779.8</ele>
        <time>2017-08-13T07:45:44Z</time>
      </trkpt>
      <trkpt lat="42.49953" lon="-0.12104">
        <ele>780.9</ele>
        <time>2017-08-13T07:45:46Z</time>
      </trkpt>
      <trkpt lat="42.4995" lon="-0.12104">
        <ele>781.4</ele>
        <time>2017-08-13T07:45:48Z</time>
      </trkpt>
      <trkpt lat="42.49944" lon="-0.12106">
        <ele>782.7</ele>
        <time>2017-08-13T07:45:50Z</time>
      </trkpt>
      <trkpt lat="42.49942" lon="-0.12107">
        <ele>783</ele>
        <time>2017-08-13T07:45:51Z</time>
      </trkpt>
      <trkpt lat="42.49936" lon="-0.12108">
        <ele>783.9</ele>
        <time>2017-08-13T07:45:53Z</time>
      </trkpt>
      <trkpt lat="42.49933" lon="-0.12109">
        <ele>784.4</ele>
        <time>2017-08-13T07:45:55Z</time>
      </trkpt>
      <trkpt lat="42.4993" lon="-0.1211">
        <ele>785</ele>
        <time>2017-08-13T07:45:57Z</time>
      </trkpt>
      <trkpt lat="42.49924" lon="-0.12111">
        <ele>785.6</ele>
        <time>2017-08-13T07:45:59Z</time>
      </trkpt>
      <trkpt lat="42.49921" lon="-0.12111">
        <ele>785.9</ele>
        <time>2017-08-13T07:46:01Z</time>
      </trkpt>
      <trkpt lat="42.49917" lon="-0.12112">
        <ele>786.6</ele>
        <time>2017-08-13T07:46:03Z</time>
      </trkpt>
      <trkpt lat="42.49912" lon="-0.12112">
        <ele>787.2</ele>
        <time>2017-08-13T07:46:04Z</time>
      </trkpt>
      <trkpt lat="42.49907" lon="-0.12113">
        <ele>787.6</ele>
        <time>2017-08-13T07:46:07Z</time>
      </trkpt>
      <trkpt lat="42.499" lon="-0.12114">
        <ele>788.1</ele>
        <time>2017-08-13T07:46:09Z</time>
      </trkpt>
      <trkpt lat="42.49897" lon="-0.12114">
        <ele>788.3</ele>
        <time>2017-08-13T07:46:11Z</time>
      </trkpt>
      <trkpt lat="42.49892" lon="-0.12116">
        <ele>788.9</ele>
        <time>2017-08-13T07:46:13Z</time>
      </trkpt>
      <trkpt lat="42.49888" lon="-0.1212">
        <ele>789.3</ele>
        <time>2017-08-13T07:46:15Z</time>
      </trkpt>
      <trkpt lat="42.49883" lon="-0.12123">
        <ele>789.5</ele>
        <time>2017-08-13T07:46:17Z</time>
      </trkpt>
      <trkpt lat="42.49878" lon="-0.12127">
        <ele>789.7</ele>
        <time>2017-08-13T07:46:18Z</time>
      </trkpt>
      <trkpt lat="42.49875" lon="-0.1213">
        <ele>789.8</ele>
        <time>2017-08-13T07:46:20Z</time>
      </trkpt>
      <trkpt lat="42.49873" lon="-0.12132">
        <ele>789.9</ele>
        <time>2017-08-13T07:46:21Z</time>
      </trkpt>
      <trkpt lat="42.4987" lon="-0.12134">
        <ele>790</ele>
        <time>2017-08-13T07:46:22Z</time>
      </trkpt>
      <trkpt lat="42.49868" lon="-0.12136">
        <ele>790.1</ele>
        <time>2017-08-13T07:46:23Z</time>
      </trkpt>
      <trkpt lat="42.49865" lon="-0.12139">
        <ele>790.2</ele>
        <time>2017-08-13T07:46:24Z</time>
      </trkpt>
      <trkpt lat="42.49863" lon="-0.12141">
        <ele>790.3</ele>
        <time>2017-08-13T07:46:25Z</time>
      </trkpt>
      <trkpt lat="42.49861" lon="-0.12144">
        <ele>790.5</ele>
        <time>2017-08-13T07:46:26Z</time>
      </trkpt>
      <trkpt lat="42.49859" lon="-0.12146">
        <ele>790.8</ele>
        <time>2017-08-13T07:46:27Z</time>
      </trkpt>
      <trkpt lat="42.49856" lon="-0.12151">
        <ele>791.4</ele>
        <time>2017-08-13T07:46:29Z</time>
      </trkpt>
      <trkpt lat="42.49851" lon="-0.1216">
        <ele>792.1</ele>
        <time>2017-08-13T07:46:31Z</time>
      </trkpt>
      <trkpt lat="42.49849" lon="-0.12163">
        <ele>792.3</ele>
        <time>2017-08-13T07:46:32Z</time>
      </trkpt>
      <trkpt lat="42.49847" lon="-0.12169">
        <ele>792.6</ele>
        <time>2017-08-13T07:46:35Z</time>
      </trkpt>
      <trkpt lat="42.49843" lon="-0.12178">
        <ele>793.4</ele>
        <time>2017-08-13T07:46:37Z</time>
      </trkpt>
      <trkpt lat="42.49842" lon="-0.12181">
        <ele>793.8</ele>
        <time>2017-08-13T07:46:38Z</time>
      </trkpt>
      <trkpt lat="42.4984" lon="-0.12187">
        <ele>794.4</ele>
        <time>2017-08-13T07:46:40Z</time>
      </trkpt>
      <trkpt lat="42.49838" lon="-0.12194">
        <ele>794.9</ele>
        <time>2017-08-13T07:46:42Z</time>
      </trkpt>
      <trkpt lat="42.49836" lon="-0.12199">
        <ele>795.6</ele>
        <time>2017-08-13T07:46:45Z</time>
      </trkpt>
      <trkpt lat="42.49834" lon="-0.12208">
        <ele>796.5</ele>
        <time>2017-08-13T07:46:47Z</time>
      </trkpt>
      <trkpt lat="42.49834" lon="-0.12211">
        <ele>796.8</ele>
        <time>2017-08-13T07:46:48Z</time>
      </trkpt>
      <trkpt lat="42.49834" lon="-0.12217">
        <ele>797.2</ele>
        <time>2017-08-13T07:46:50Z</time>
      </trkpt>
      <trkpt lat="42.49834" lon="-0.12223">
        <ele>797.5</ele>
        <time>2017-08-13T07:46:53Z</time>
      </trkpt>
      <trkpt lat="42.49836" lon="-0.12228">
        <ele>797.9</ele>
        <time>2017-08-13T07:46:55Z</time>
      </trkpt>
      <trkpt lat="42.49838" lon="-0.12232">
        <ele>798.5</ele>
        <time>2017-08-13T07:46:56Z</time>
      </trkpt>
      <trkpt lat="42.49841" lon="-0.12237">
        <ele>798.9</ele>
        <time>2017-08-13T07:46:59Z</time>
      </trkpt>
      <trkpt lat="42.49846" lon="-0.12242">
        <ele>799.2</ele>
        <time>2017-08-13T07:47:01Z</time>
      </trkpt>
      <trkpt lat="42.49848" lon="-0.12244">
        <ele>799.4</ele>
        <time>2017-08-13T07:47:02Z</time>
      </trkpt>
      <trkpt lat="42.49852" lon="-0.12248">
        <ele>800.1</ele>
        <time>2017-08-13T07:47:04Z</time>
      </trkpt>
      <trkpt lat="42.49855" lon="-0.12251">
        <ele>800.8</ele>
        <time>2017-08-13T07:47:06Z</time>
      </trkpt>
      <trkpt lat="42.49859" lon="-0.12253">
        <ele>801.3</ele>
        <time>2017-08-13T07:47:08Z</time>
      </trkpt>
      <trkpt lat="42.49863" lon="-0.12256">
        <ele>801.6</ele>
        <time>2017-08-13T07:47:10Z</time>
      </trkpt>
      <trkpt lat="42.49867" lon="-0.12258">
        <ele>801.9</ele>
        <time>2017-08-13T07:47:12Z</time>
      </trkpt>
      <trkpt lat="42.49871" lon="-0.1226">
        <ele>802.3</ele>
        <time>2017-08-13T07:47:14Z</time>
      </trkpt>
      <trkpt lat="42.49876" lon="-0.12261">
        <ele>803.1</ele>
        <time>2017-08-13T07:47:16Z</time>
      </trkpt>
      <trkpt lat="42.4988" lon="-0.12262">
        <ele>803.7</ele>
        <time>2017-08-13T07:47:18Z</time>
      </trkpt>
      <trkpt lat="42.49883" lon="-0.12262">
        <ele>803.9</ele>
        <time>2017-08-13T07:47:20Z</time>
      </trkpt>
      <trkpt lat="42.49887" lon="-0.12262">
        <ele>804.2</ele>
        <time>2017-08-13T07:47:22Z</time>
      </trkpt>
      <trkpt lat="42.49891" lon="-0.12261">
        <ele>804.5</ele>
        <time>2017-08-13T07:47:24Z</time>
      </trkpt>
      <trkpt lat="42.49895" lon="-0.1226">
        <ele>805.1</ele>
        <time>2017-08-13T07:47:26Z</time>
      </trkpt>
      <trkpt lat="42.49898" lon="-0.12258">
        <ele>805.7</ele>
        <time>2017-08-13T07:47:28Z</time>
      </trkpt>
      <trkpt lat="42.49902" lon="-0.12255">
        <ele>806</ele>
        <time>2017-08-13T07:47:30Z</time>
      </trkpt>
      <trkpt lat="42.49905" lon="-0.12252">
        <ele>806.4</ele>
        <time>2017-08-13T07:47:32Z</time>
      </trkpt>
      <trkpt lat="42.49908" lon="-0.12249">
        <ele>806.8</ele>
        <time>2017-08-13T07:47:34Z</time>
      </trkpt>
      <trkpt lat="42.49911" lon="-0.12245">
        <ele>807.4</ele>
        <time>2017-08-13T07:47:36Z</time>
      </trkpt>
      <trkpt lat="42.49914" lon="-0.12241">
        <ele>808</ele>
        <time>2017-08-13T07:47:38Z</time>
      </trkpt>
      <trkpt lat="42.49917" lon="-0.12237">
        <ele>808.5</ele>
        <time>2017-08-13T07:47:40Z</time>
      </trkpt>
      <trkpt lat="42.4992" lon="-0.12232">
        <ele>808.7</ele>
        <time>2017-08-13T07:47:42Z</time>
      </trkpt>
      <trkpt lat="42.49924" lon="-0.12227">
        <ele>808.9</ele>
        <time>2017-08-13T07:47:44Z</time>
      </trkpt>
      <trkpt lat="42.49927" lon="-0.12223">
        <ele>809.1</ele>
        <time>2017-08-13T07:47:46Z</time>
      </trkpt>
      <trkpt lat="42.4993" lon="-0.12218">
        <ele>809.5</ele>
        <time>2017-08-13T07:47:48Z</time>
      </trkpt>
      <trkpt lat="42.49934" lon="-0.12214">
        <ele>810.1</ele>
        <time>2017-08-13T07:47:50Z</time>
      </trkpt>
      <trkpt lat="42.49938" lon="-0.12211">
        <ele>810.5</ele>
        <time>2017-08-13T07:47:52Z</time>
      </trkpt>
      <trkpt lat="42.49942" lon="-0.12208">
        <ele>810.8</ele>
        <time>2017-08-13T07:47:54Z</time>
      </trkpt>
      <trkpt lat="42.49946" lon="-0.12205">
        <ele>811</ele>
        <time>2017-08-13T07:47:56Z</time>
      </trkpt>
      <trkpt lat="42.4995" lon="-0.12201">
        <ele>811.2</ele>
        <time>2017-08-13T07:47:58Z</time>
      </trkpt>
      <trkpt lat="42.49954" lon="-0.12197">
        <ele>811.4</ele>
        <time>2017-08-13T07:48:00Z</time>
      </trkpt>
      <trkpt lat="42.49957" lon="-0.12193">
        <ele>811.6</ele>
        <time>2017-08-13T07:48:02Z</time>
      </trkpt>
      <trkpt lat="42.49961" lon="-0.12188">
        <ele>812.2</ele>
        <time>2017-08-13T07:48:04Z</time>
      </trkpt>
      <trkpt lat="42.49965" lon="-0.12185">
        <ele>812.8</ele>
        <time>2017-08-13T07:48:06Z</time>
      </trkpt>
      <trkpt lat="42.49967" lon="-0.12182">
        <ele>812.9</ele>
        <time>2017-08-13T07:48:07Z</time>
      </trkpt>
      <trkpt lat="42.4997" lon="-0.12179">
        <ele>813.1</ele>
        <time>2017-08-13T07:48:08Z</time>
      </trkpt>
      <trkpt lat="42.49972" lon="-0.12177">
        <ele>813.3</ele>
        <time>2017-08-13T07:48:09Z</time>
      </trkpt>
      <trkpt lat="42.49973" lon="-0.12174">
        <ele>813.5</ele>
        <time>2017-08-13T07:48:10Z</time>
      </trkpt>
      <trkpt lat="42.49975" lon="-0.12171">
        <ele>813.7</ele>
        <time>2017-08-13T07:48:11Z</time>
      </trkpt>
      <trkpt lat="42.49978" lon="-0.12165">
        <ele>814.4</ele>
        <time>2017-08-13T07:48:13Z</time>
      </trkpt>
      <trkpt lat="42.49982" lon="-0.1216">
        <ele>815</ele>
        <time>2017-08-13T07:48:15Z</time>
      </trkpt>
      <trkpt lat="42.49985" lon="-0.12155">
        <ele>815.3</ele>
        <time>2017-08-13T07:48:17Z</time>
      </trkpt>
      <trkpt lat="42.49989" lon="-0.1215">
        <ele>815.6</ele>
        <time>2017-08-13T07:48:19Z</time>
      </trkpt>
      <trkpt lat="42.49991" lon="-0.12147">
        <ele>815.7</ele>
        <time>2017-08-13T07:48:20Z</time>
      </trkpt>
      <trkpt lat="42.49993" lon="-0.12144">
        <ele>816</ele>
        <time>2017-08-13T07:48:21Z</time>
      </trkpt>
      <trkpt lat="42.49994" lon="-0.12142">
        <ele>816.2</ele>
        <time>2017-08-13T07:48:22Z</time>
      </trkpt>
      <trkpt lat="42.49998" lon="-0.12137">
        <ele>817</ele>
        <time>2017-08-13T07:48:24Z</time>
      </trkpt>
      <trkpt lat="42.50001" lon="-0.12132">
        <ele>817.9</ele>
        <time>2017-08-13T07:48:26Z</time>
      </trkpt>
      <trkpt lat="42.50005" lon="-0.12128">
        <ele>818.5</ele>
        <time>2017-08-13T07:48:28Z</time>
      </trkpt>
      <trkpt lat="42.50009" lon="-0.12125">
        <ele>819.4</ele>
        <time>2017-08-13T07:48:30Z</time>
      </trkpt>
      <trkpt lat="42.50014" lon="-0.12124">
        <ele>820</ele>
        <time>2017-08-13T07:48:32Z</time>
      </trkpt>
      <trkpt lat="42.50017" lon="-0.12125">
        <ele>820.3</ele>
        <time>2017-08-13T07:48:33Z</time>
      </trkpt>
      <trkpt lat="42.5002" lon="-0.12126">
        <ele>820.5</ele>
        <time>2017-08-13T07:48:34Z</time>
      </trkpt>
      <trkpt lat="42.50022" lon="-0.12128">
        <ele>820.7</ele>
        <time>2017-08-13T07:48:35Z</time>
      </trkpt>
      <trkpt lat="42.50024" lon="-0.1213">
        <ele>821.1</ele>
        <time>2017-08-13T07:48:36Z</time>
      </trkpt>
      <trkpt lat="42.50027" lon="-0.12132">
        <ele>821.5</ele>
        <time>2017-08-13T07:48:37Z</time>
      </trkpt>
      <trkpt lat="42.50029" lon="-0.12134">
        <ele>821.8</ele>
        <time>2017-08-13T07:48:38Z</time>
      </trkpt>
      <trkpt lat="42.50032" lon="-0.12137">
        <ele>822</ele>
        <time>2017-08-13T07:48:39Z</time>
      </trkpt>
      <trkpt lat="42.50034" lon="-0.12139">
        <ele>822.1</ele>
        <time>2017-08-13T07:48:40Z</time>
      </trkpt>
      <trkpt lat="42.50037" lon="-0.12142">
        <ele>822.2</ele>
        <time>2017-08-13T07:48:41Z</time>
      </trkpt>
      <trkpt lat="42.50039" lon="-0.12144">
        <ele>822.3</ele>
        <time>2017-08-13T07:48:42Z</time>
      </trkpt>
      <trkpt lat="42.50042" lon="-0.12146">
        <ele>822.5</ele>
        <time>2017-08-13T07:48:43Z</time>
      </trkpt>
      <trkpt lat="42.50046" lon="-0.12149">
        <ele>822.7</ele>
        <time>2017-08-13T07:48:45Z</time>
      </trkpt>
      <trkpt lat="42.5005" lon="-0.12152">
        <ele>823</ele>
        <time>2017-08-13T07:48:47Z</time>
      </trkpt>
      <trkpt lat="42.50055" lon="-0.12154">
        <ele>823.6</ele>
        <time>2017-08-13T07:48:49Z</time>
      </trkpt>
      <trkpt lat="42.50059" lon="-0.12154">
        <ele>823.9</ele>
        <time>2017-08-13T07:48:51Z</time>
      </trkpt>
      <trkpt lat="42.50062" lon="-0.12152">
        <ele>824</ele>
        <time>2017-08-13T07:48:59Z</time>
      </trkpt>
      <trkpt lat="42.50065" lon="-0.12152">
        <ele>824.1</ele>
        <time>2017-08-13T07:49:05Z</time>
      </trkpt>
      <trkpt lat="42.50063" lon="-0.12156">
        <ele>824.2</ele>
        <time>2017-08-13T07:50:09Z</time>
      </trkpt>
      <trkpt lat="42.50066" lon="-0.12156">
        <ele>824.3</ele>
        <time>2017-08-13T07:50:28Z</time>
      </trkpt>
      <trkpt lat="42.50069" lon="-0.12156">
        <ele>824.3</ele>
        <time>2017-08-13T07:50:30Z</time>
      </trkpt>
      <trkpt lat="42.50073" lon="-0.12158">
        <ele>824.4</ele>
        <time>2017-08-13T07:50:32Z</time>
      </trkpt>
      <trkpt lat="42.50076" lon="-0.1216">
        <ele>824.5</ele>
        <time>2017-08-13T07:50:33Z</time>
      </trkpt>
      <trkpt lat="42.50079" lon="-0.12161">
        <ele>824.5</ele>
        <time>2017-08-13T07:50:34Z</time>
      </trkpt>
      <trkpt lat="42.50082" lon="-0.12164">
        <ele>824.6</ele>
        <time>2017-08-13T07:50:35Z</time>
      </trkpt>
      <trkpt lat="42.50086" lon="-0.12166">
        <ele>824.6</ele>
        <time>2017-08-13T07:50:36Z</time>
      </trkpt>
      <trkpt lat="42.50089" lon="-0.12168">
        <ele>824.7</ele>
        <time>2017-08-13T07:50:37Z</time>
      </trkpt>
      <trkpt lat="42.50092" lon="-0.1217">
        <ele>824.8</ele>
        <time>2017-08-13T07:50:38Z</time>
      </trkpt>
      <trkpt lat="42.50096" lon="-0.12173">
        <ele>824.9</ele>
        <time>2017-08-13T07:50:39Z</time>
      </trkpt>
      <trkpt lat="42.50099" lon="-0.12176">
        <ele>825</ele>
        <time>2017-08-13T07:50:40Z</time>
      </trkpt>
      <trkpt lat="42.50102" lon="-0.12178">
        <ele>825</ele>
        <time>2017-08-13T07:50:41Z</time>
      </trkpt>
      <trkpt lat="42.50105" lon="-0.12181">
        <ele>825.2</ele>
        <time>2017-08-13T07:50:42Z</time>
      </trkpt>
      <trkpt lat="42.50108" lon="-0.12184">
        <ele>825.4</ele>
        <time>2017-08-13T07:50:43Z</time>
      </trkpt>
      <trkpt lat="42.5011" lon="-0.12187">
        <ele>825.7</ele>
        <time>2017-08-13T07:50:44Z</time>
      </trkpt>
      <trkpt lat="42.50112" lon="-0.12189">
        <ele>825.9</ele>
        <time>2017-08-13T07:50:45Z</time>
      </trkpt>
      <trkpt lat="42.50116" lon="-0.12194">
        <ele>826.2</ele>
        <time>2017-08-13T07:50:47Z</time>
      </trkpt>
      <trkpt lat="42.50119" lon="-0.12199">
        <ele>826.3</ele>
        <time>2017-08-13T07:50:49Z</time>
      </trkpt>
      <trkpt lat="42.50121" lon="-0.12202">
        <ele>826.4</ele>
        <time>2017-08-13T07:50:50Z</time>
      </trkpt>
      <trkpt lat="42.50123" lon="-0.12205">
        <ele>826.5</ele>
        <time>2017-08-13T07:50:51Z</time>
      </trkpt>
      <trkpt lat="42.50127" lon="-0.1221">
        <ele>826.6</ele>
        <time>2017-08-13T07:50:53Z</time>
      </trkpt>
      <trkpt lat="42.5013" lon="-0.12213">
        <ele>826.6</ele>
        <time>2017-08-13T07:50:54Z</time>
      </trkpt>
      <trkpt lat="42.50133" lon="-0.12217">
        <ele>826.7</ele>
        <time>2017-08-13T07:50:55Z</time>
      </trkpt>
      <trkpt lat="42.50136" lon="-0.1222">
        <ele>826.8</ele>
        <time>2017-08-13T07:50:56Z</time>
      </trkpt>
      <trkpt lat="42.50139" lon="-0.12223">
        <ele>826.8</ele>
        <time>2017-08-13T07:50:57Z</time>
      </trkpt>
      <trkpt lat="42.50143" lon="-0.12227">
        <ele>826.9</ele>
        <time>2017-08-13T07:50:58Z</time>
      </trkpt>
      <trkpt lat="42.50148" lon="-0.1223">
        <ele>827</ele>
        <time>2017-08-13T07:50:59Z</time>
      </trkpt>
      <trkpt lat="42.50152" lon="-0.12233">
        <ele>827.1</ele>
        <time>2017-08-13T07:51:00Z</time>
      </trkpt>
      <trkpt lat="42.50157" lon="-0.12236">
        <ele>827.1</ele>
        <time>2017-08-13T07:51:01Z</time>
      </trkpt>
      <trkpt lat="42.50161" lon="-0.1224">
        <ele>827.2</ele>
        <time>2017-08-13T07:51:02Z</time>
      </trkpt>
      <trkpt lat="42.50165" lon="-0.12244">
        <ele>827.3</ele>
        <time>2017-08-13T07:51:03Z</time>
      </trkpt>
      <trkpt lat="42.50169" lon="-0.12248">
        <ele>827.4</ele>
        <time>2017-08-13T07:51:04Z</time>
      </trkpt>
      <trkpt lat="42.50174" lon="-0.12251">
        <ele>827.8</ele>
        <time>2017-08-13T07:51:05Z</time>
      </trkpt>
      <trkpt lat="42.50178" lon="-0.12255">
        <ele>828.1</ele>
        <time>2017-08-13T07:51:06Z</time>
      </trkpt>
      <trkpt lat="42.50181" lon="-0.12257">
        <ele>828.4</ele>
        <time>2017-08-13T07:51:07Z</time>
      </trkpt>
      <trkpt lat="42.50185" lon="-0.1226">
        <ele>828.7</ele>
        <time>2017-08-13T07:51:08Z</time>
      </trkpt>
      <trkpt lat="42.50187" lon="-0.12262">
        <ele>828.8</ele>
        <time>2017-08-13T07:51:09Z</time>
      </trkpt>
      <trkpt lat="42.50191" lon="-0.12266">
        <ele>828.9</ele>
        <time>2017-08-13T07:51:11Z</time>
      </trkpt>
      <trkpt lat="42.50193" lon="-0.12268">
        <ele>828.9</ele>
        <time>2017-08-13T07:51:12Z</time>
      </trkpt>
      <trkpt lat="42.50196" lon="-0.12274">
        <ele>829</ele>
        <time>2017-08-13T07:51:14Z</time>
      </trkpt>
      <trkpt lat="42.50199" lon="-0.12279">
        <ele>829</ele>
        <time>2017-08-13T07:51:16Z</time>
      </trkpt>
      <trkpt lat="42.50201" lon="-0.12281">
        <ele>829.1</ele>
        <time>2017-08-13T07:51:17Z</time>
      </trkpt>
      <trkpt lat="42.50204" lon="-0.12284">
        <ele>829.1</ele>
        <time>2017-08-13T07:51:18Z</time>
      </trkpt>
      <trkpt lat="42.50206" lon="-0.12286">
        <ele>829.1</ele>
        <time>2017-08-13T07:51:19Z</time>
      </trkpt>
      <trkpt lat="42.50208" lon="-0.12289">
        <ele>829.1</ele>
        <time>2017-08-13T07:51:20Z</time>
      </trkpt>
      <trkpt lat="42.50211" lon="-0.12291">
        <ele>829.2</ele>
        <time>2017-08-13T07:51:21Z</time>
      </trkpt>
      <trkpt lat="42.50214" lon="-0.12297">
        <ele>829.2</ele>
        <time>2017-08-13T07:51:23Z</time>
      </trkpt>
      <trkpt lat="42.50217" lon="-0.123">
        <ele>829.2</ele>
        <time>2017-08-13T07:51:24Z</time>
      </trkpt>
      <trkpt lat="42.5022" lon="-0.12303">
        <ele>829.2</ele>
        <time>2017-08-13T07:51:25Z</time>
      </trkpt>
      <trkpt lat="42.50223" lon="-0.12306">
        <ele>829.2</ele>
        <time>2017-08-13T07:51:26Z</time>
      </trkpt>
      <trkpt lat="42.50227" lon="-0.12309">
        <ele>829.3</ele>
        <time>2017-08-13T07:51:27Z</time>
      </trkpt>
      <trkpt lat="42.5023" lon="-0.12312">
        <ele>829.3</ele>
        <time>2017-08-13T07:51:28Z</time>
      </trkpt>
      <trkpt lat="42.50234" lon="-0.12315">
        <ele>829.3</ele>
        <time>2017-08-13T07:51:29Z</time>
      </trkpt>
      <trkpt lat="42.50237" lon="-0.12318">
        <ele>829.3</ele>
        <time>2017-08-13T07:51:30Z</time>
      </trkpt>
      <trkpt lat="42.5024" lon="-0.12322">
        <ele>829.3</ele>
        <time>2017-08-13T07:51:31Z</time>
      </trkpt>
      <trkpt lat="42.50244" lon="-0.12326">
        <ele>829.3</ele>
        <time>2017-08-13T07:51:32Z</time>
      </trkpt>
      <trkpt lat="42.50246" lon="-0.12329">
        <ele>829.3</ele>
        <time>2017-08-13T07:51:33Z</time>
      </trkpt>
      <trkpt lat="42.50248" lon="-0.12333">
        <ele>829.3</ele>
        <time>2017-08-13T07:51:34Z</time>
      </trkpt>
      <trkpt lat="42.50251" lon="-0.12336">
        <ele>829.3</ele>
        <time>2017-08-13T07:51:35Z</time>
      </trkpt>
      <trkpt lat="42.50254" lon="-0.1234">
        <ele>829.3</ele>
        <time>2017-08-13T07:51:36Z</time>
      </trkpt>
      <trkpt lat="42.50256" lon="-0.12344">
        <ele>829.4</ele>
        <time>2017-08-13T07:51:37Z</time>
      </trkpt>
      <trkpt lat="42.50259" lon="-0.12348">
        <ele>829.4</ele>
        <time>2017-08-13T07:51:38Z</time>
      </trkpt>
      <trkpt lat="42.50262" lon="-0.12353">
        <ele>829.4</ele>
        <time>2017-08-13T07:51:39Z</time>
      </trkpt>
      <trkpt lat="42.50265" lon="-0.12357">
        <ele>829.4</ele>
        <time>2017-08-13T07:51:40Z</time>
      </trkpt>
      <trkpt lat="42.50267" lon="-0.12362">
        <ele>829.4</ele>
        <time>2017-08-13T07:51:41Z</time>
      </trkpt>
      <trkpt lat="42.5027" lon="-0.12366">
        <ele>829.4</ele>
        <time>2017-08-13T07:51:42Z</time>
      </trkpt>
      <trkpt lat="42.50273" lon="-0.1237">
        <ele>829.4</ele>
        <time>2017-08-13T07:51:43Z</time>
      </trkpt>
      <trkpt lat="42.50276" lon="-0.12375">
        <ele>829.5</ele>
        <time>2017-08-13T07:51:44Z</time>
      </trkpt>
      <trkpt lat="42.50279" lon="-0.12379">
        <ele>829.5</ele>
        <time>2017-08-13T07:51:45Z</time>
      </trkpt>
      <trkpt lat="42.50282" lon="-0.12384">
        <ele>829.5</ele>
        <time>2017-08-13T07:51:46Z</time>
      </trkpt>
      <trkpt lat="42.50285" lon="-0.12388">
        <ele>829.5</ele>
        <time>2017-08-13T07:51:47Z</time>
      </trkpt>
      <trkpt lat="42.50288" lon="-0.12393">
        <ele>829.5</ele>
        <time>2017-08-13T07:51:48Z</time>
      </trkpt>
      <trkpt lat="42.50291" lon="-0.12398">
        <ele>829.5</ele>
        <time>2017-08-13T07:51:49Z</time>
      </trkpt>
      <trkpt lat="42.50294" lon="-0.12403">
        <ele>829.6</ele>
        <time>2017-08-13T07:51:50Z</time>
      </trkpt>
      <trkpt lat="42.50297" lon="-0.12408">
        <ele>829.6</ele>
        <time>2017-08-13T07:51:51Z</time>
      </trkpt>
      <trkpt lat="42.503" lon="-0.12412">
        <ele>829.6</ele>
        <time>2017-08-13T07:51:52Z</time>
      </trkpt>
      <trkpt lat="42.50303" lon="-0.12417">
        <ele>829.7</ele>
        <time>2017-08-13T07:51:53Z</time>
      </trkpt>
      <trkpt lat="42.50306" lon="-0.12422">
        <ele>829.7</ele>
        <time>2017-08-13T07:51:54Z</time>
      </trkpt>
      <trkpt lat="42.50309" lon="-0.12426">
        <ele>829.7</ele>
        <time>2017-08-13T07:51:55Z</time>
      </trkpt>
      <trkpt lat="42.50312" lon="-0.12431">
        <ele>829.8</ele>
        <time>2017-08-13T07:51:56Z</time>
      </trkpt>
      <trkpt lat="42.50315" lon="-0.12435">
        <ele>829.9</ele>
        <time>2017-08-13T07:51:57Z</time>
      </trkpt>
      <trkpt lat="42.50318" lon="-0.12439">
        <ele>829.9</ele>
        <time>2017-08-13T07:51:58Z</time>
      </trkpt>
      <trkpt lat="42.50321" lon="-0.12443">
        <ele>830</ele>
        <time>2017-08-13T07:51:59Z</time>
      </trkpt>
      <trkpt lat="42.50324" lon="-0.12448">
        <ele>830</ele>
        <time>2017-08-13T07:52:00Z</time>
      </trkpt>
      <trkpt lat="42.50326" lon="-0.12452">
        <ele>830.1</ele>
        <time>2017-08-13T07:52:01Z</time>
      </trkpt>
      <trkpt lat="42.50329" lon="-0.12456">
        <ele>830.2</ele>
        <time>2017-08-13T07:52:02Z</time>
      </trkpt>
      <trkpt lat="42.50331" lon="-0.1246">
        <ele>830.4</ele>
        <time>2017-08-13T07:52:03Z</time>
      </trkpt>
      <trkpt lat="42.50334" lon="-0.12464">
        <ele>830.6</ele>
        <time>2017-08-13T07:52:04Z</time>
      </trkpt>
      <trkpt lat="42.50336" lon="-0.12468">
        <ele>831</ele>
        <time>2017-08-13T07:52:05Z</time>
      </trkpt>
      <trkpt lat="42.50339" lon="-0.12472">
        <ele>831.3</ele>
        <time>2017-08-13T07:52:06Z</time>
      </trkpt>
      <trkpt lat="42.50341" lon="-0.12476">
        <ele>831.5</ele>
        <time>2017-08-13T07:52:07Z</time>
      </trkpt>
      <trkpt lat="42.50343" lon="-0.1248">
        <ele>831.7</ele>
        <time>2017-08-13T07:52:08Z</time>
      </trkpt>
      <trkpt lat="42.50346" lon="-0.12484">
        <ele>831.8</ele>
        <time>2017-08-13T07:52:09Z</time>
      </trkpt>
      <trkpt lat="42.50348" lon="-0.12488">
        <ele>831.9</ele>
        <time>2017-08-13T07:52:10Z</time>
      </trkpt>
      <trkpt lat="42.5035" lon="-0.12492">
        <ele>832</ele>
        <time>2017-08-13T07:52:11Z</time>
      </trkpt>
      <trkpt lat="42.50352" lon="-0.12496">
        <ele>832.1</ele>
        <time>2017-08-13T07:52:12Z</time>
      </trkpt>
      <trkpt lat="42.50355" lon="-0.12499">
        <ele>832.1</ele>
        <time>2017-08-13T07:52:13Z</time>
      </trkpt>
      <trkpt lat="42.50357" lon="-0.12503">
        <ele>832.2</ele>
        <time>2017-08-13T07:52:14Z</time>
      </trkpt>
      <trkpt lat="42.50359" lon="-0.12506">
        <ele>832.3</ele>
        <time>2017-08-13T07:52:15Z</time>
      </trkpt>
      <trkpt lat="42.50362" lon="-0.1251">
        <ele>832.4</ele>
        <time>2017-08-13T07:52:16Z</time>
      </trkpt>
      <trkpt lat="42.50364" lon="-0.12514">
        <ele>832.5</ele>
        <time>2017-08-13T07:52:17Z</time>
      </trkpt>
      <trkpt lat="42.50366" lon="-0.12518">
        <ele>832.7</ele>
        <time>2017-08-13T07:52:18Z</time>
      </trkpt>
      <trkpt lat="42.50368" lon="-0.12521">
        <ele>833</ele>
        <time>2017-08-13T07:52:19Z</time>
      </trkpt>
      <trkpt lat="42.5037" lon="-0.12525">
        <ele>833.3</ele>
        <time>2017-08-13T07:52:20Z</time>
      </trkpt>
      <trkpt lat="42.50372" lon="-0.12529">
        <ele>833.6</ele>
        <time>2017-08-13T07:52:21Z</time>
      </trkpt>
      <trkpt lat="42.50374" lon="-0.12533">
        <ele>834</ele>
        <time>2017-08-13T07:52:22Z</time>
      </trkpt>
      <trkpt lat="42.50376" lon="-0.12537">
        <ele>834.2</ele>
        <time>2017-08-13T07:52:23Z</time>
      </trkpt>
      <trkpt lat="42.50378" lon="-0.12541">
        <ele>834.3</ele>
        <time>2017-08-13T07:52:24Z</time>
      </trkpt>
      <trkpt lat="42.5038" lon="-0.12545">
        <ele>834.4</ele>
        <time>2017-08-13T07:52:25Z</time>
      </trkpt>
      <trkpt lat="42.50382" lon="-0.1255">
        <ele>834.5</ele>
        <time>2017-08-13T07:52:26Z</time>
      </trkpt>
      <trkpt lat="42.50384" lon="-0.12554">
        <ele>834.6</ele>
        <time>2017-08-13T07:52:27Z</time>
      </trkpt>
      <trkpt lat="42.50385" lon="-0.12558">
        <ele>834.7</ele>
        <time>2017-08-13T07:52:28Z</time>
      </trkpt>
      <trkpt lat="42.50387" lon="-0.12562">
        <ele>834.9</ele>
        <time>2017-08-13T07:52:29Z</time>
      </trkpt>
      <trkpt lat="42.50388" lon="-0.12566">
        <ele>835</ele>
        <time>2017-08-13T07:52:30Z</time>
      </trkpt>
      <trkpt lat="42.5039" lon="-0.1257">
        <ele>835.2</ele>
        <time>2017-08-13T07:52:31Z</time>
      </trkpt>
      <trkpt lat="42.50391" lon="-0.12574">
        <ele>835.5</ele>
        <time>2017-08-13T07:52:32Z</time>
      </trkpt>
      <trkpt lat="42.50393" lon="-0.12579">
        <ele>835.8</ele>
        <time>2017-08-13T07:52:33Z</time>
      </trkpt>
      <trkpt lat="42.50395" lon="-0.12584">
        <ele>836.1</ele>
        <time>2017-08-13T07:52:34Z</time>
      </trkpt>
      <trkpt lat="42.50397" lon="-0.12588">
        <ele>836.3</ele>
        <time>2017-08-13T07:52:35Z</time>
      </trkpt>
      <trkpt lat="42.50399" lon="-0.12592">
        <ele>836.4</ele>
        <time>2017-08-13T07:52:36Z</time>
      </trkpt>
      <trkpt lat="42.50401" lon="-0.12595">
        <ele>836.4</ele>
        <time>2017-08-13T07:52:37Z</time>
      </trkpt>
      <trkpt lat="42.50402" lon="-0.12599">
        <ele>836.5</ele>
        <time>2017-08-13T07:52:38Z</time>
      </trkpt>
      <trkpt lat="42.50405" lon="-0.12604">
        <ele>836.7</ele>
        <time>2017-08-13T07:52:39Z</time>
      </trkpt>
      <trkpt lat="42.50407" lon="-0.12608">
        <ele>836.8</ele>
        <time>2017-08-13T07:52:40Z</time>
      </trkpt>
      <trkpt lat="42.5041" lon="-0.12613">
        <ele>836.9</ele>
        <time>2017-08-13T07:52:41Z</time>
      </trkpt>
      <trkpt lat="42.50413" lon="-0.12617">
        <ele>837.1</ele>
        <time>2017-08-13T07:52:42Z</time>
      </trkpt>
      <trkpt lat="42.50416" lon="-0.12621">
        <ele>837.3</ele>
        <time>2017-08-13T07:52:43Z</time>
      </trkpt>
      <trkpt lat="42.50418" lon="-0.12625">
        <ele>837.4</ele>
        <time>2017-08-13T07:52:44Z</time>
      </trkpt>
      <trkpt lat="42.50421" lon="-0.12628">
        <ele>837.6</ele>
        <time>2017-08-13T07:52:45Z</time>
      </trkpt>
      <trkpt lat="42.50423" lon="-0.12632">
        <ele>837.9</ele>
        <time>2017-08-13T07:52:46Z</time>
      </trkpt>
      <trkpt lat="42.50426" lon="-0.12635">
        <ele>838.2</ele>
        <time>2017-08-13T07:52:47Z</time>
      </trkpt>
      <trkpt lat="42.50428" lon="-0.12639">
        <ele>838.5</ele>
        <time>2017-08-13T07:52:48Z</time>
      </trkpt>
      <trkpt lat="42.50431" lon="-0.12644">
        <ele>838.6</ele>
        <time>2017-08-13T07:52:49Z</time>
      </trkpt>
      <trkpt lat="42.50433" lon="-0.12648">
        <ele>838.8</ele>
        <time>2017-08-13T07:52:50Z</time>
      </trkpt>
      <trkpt lat="42.50436" lon="-0.12652">
        <ele>838.9</ele>
        <time>2017-08-13T07:52:51Z</time>
      </trkpt>
      <trkpt lat="42.50438" lon="-0.12656">
        <ele>838.9</ele>
        <time>2017-08-13T07:52:52Z</time>
      </trkpt>
      <trkpt lat="42.50441" lon="-0.1266">
        <ele>839</ele>
        <time>2017-08-13T07:52:53Z</time>
      </trkpt>
      <trkpt lat="42.50444" lon="-0.12665">
        <ele>839.1</ele>
        <time>2017-08-13T07:52:54Z</time>
      </trkpt>
      <trkpt lat="42.50447" lon="-0.12668">
        <ele>839.2</ele>
        <time>2017-08-13T07:52:55Z</time>
      </trkpt>
      <trkpt lat="42.5045" lon="-0.12671">
        <ele>839.2</ele>
        <time>2017-08-13T07:52:56Z</time>
      </trkpt>
      <trkpt lat="42.50453" lon="-0.12675">
        <ele>839.3</ele>
        <time>2017-08-13T07:52:57Z</time>
      </trkpt>
      <trkpt lat="42.50456" lon="-0.12679">
        <ele>839.4</ele>
        <time>2017-08-13T07:52:58Z</time>
      </trkpt>
      <trkpt lat="42.50458" lon="-0.12682">
        <ele>839.5</ele>
        <time>2017-08-13T07:52:59Z</time>
      </trkpt>
      <trkpt lat="42.50461" lon="-0.12687">
        <ele>839.7</ele>
        <time>2017-08-13T07:53:00Z</time>
      </trkpt>
      <trkpt lat="42.50463" lon="-0.12691">
        <ele>839.8</ele>
        <time>2017-08-13T07:53:01Z</time>
      </trkpt>
      <trkpt lat="42.50466" lon="-0.12694">
        <ele>840.1</ele>
        <time>2017-08-13T07:53:02Z</time>
      </trkpt>
      <trkpt lat="42.50468" lon="-0.12698">
        <ele>840.3</ele>
        <time>2017-08-13T07:53:03Z</time>
      </trkpt>
      <trkpt lat="42.50471" lon="-0.12702">
        <ele>840.6</ele>
        <time>2017-08-13T07:53:04Z</time>
      </trkpt>
      <trkpt lat="42.50475" lon="-0.12706">
        <ele>840.9</ele>
        <time>2017-08-13T07:53:05Z</time>
      </trkpt>
      <trkpt lat="42.50478" lon="-0.12709">
        <ele>841.1</ele>
        <time>2017-08-13T07:53:06Z</time>
      </trkpt>
      <trkpt lat="42.50482" lon="-0.12712">
        <ele>841.2</ele>
        <time>2017-08-13T07:53:07Z</time>
      </trkpt>
      <trkpt lat="42.50486" lon="-0.12715">
        <ele>841.4</ele>
        <time>2017-08-13T07:53:08Z</time>
      </trkpt>
      <trkpt lat="42.50489" lon="-0.12718">
        <ele>841.5</ele>
        <time>2017-08-13T07:53:09Z</time>
      </trkpt>
      <trkpt lat="42.50493" lon="-0.12721">
        <ele>841.7</ele>
        <time>2017-08-13T07:53:10Z</time>
      </trkpt>
      <trkpt lat="42.50497" lon="-0.12724">
        <ele>841.9</ele>
        <time>2017-08-13T07:53:11Z</time>
      </trkpt>
      <trkpt lat="42.50501" lon="-0.12727">
        <ele>842.1</ele>
        <time>2017-08-13T07:53:12Z</time>
      </trkpt>
      <trkpt lat="42.50504" lon="-0.12731">
        <ele>842.3</ele>
        <time>2017-08-13T07:53:13Z</time>
      </trkpt>
      <trkpt lat="42.50507" lon="-0.12734">
        <ele>842.6</ele>
        <time>2017-08-13T07:53:14Z</time>
      </trkpt>
      <trkpt lat="42.5051" lon="-0.12738">
        <ele>842.9</ele>
        <time>2017-08-13T07:53:15Z</time>
      </trkpt>
      <trkpt lat="42.50513" lon="-0.12742">
        <ele>843.1</ele>
        <time>2017-08-13T07:53:16Z</time>
      </trkpt>
      <trkpt lat="42.50517" lon="-0.12745">
        <ele>843.1</ele>
        <time>2017-08-13T07:53:17Z</time>
      </trkpt>
      <trkpt lat="42.50521" lon="-0.12749">
        <ele>843.2</ele>
        <time>2017-08-13T07:53:18Z</time>
      </trkpt>
      <trkpt lat="42.50524" lon="-0.12751">
        <ele>843.3</ele>
        <time>2017-08-13T07:53:19Z</time>
      </trkpt>
      <trkpt lat="42.50528" lon="-0.12754">
        <ele>843.3</ele>
        <time>2017-08-13T07:53:20Z</time>
      </trkpt>
      <trkpt lat="42.50531" lon="-0.12756">
        <ele>843.4</ele>
        <time>2017-08-13T07:53:21Z</time>
      </trkpt>
      <trkpt lat="42.50534" lon="-0.12759">
        <ele>843.4</ele>
        <time>2017-08-13T07:53:22Z</time>
      </trkpt>
      <trkpt lat="42.50538" lon="-0.12761">
        <ele>843.5</ele>
        <time>2017-08-13T07:53:23Z</time>
      </trkpt>
      <trkpt lat="42.50542" lon="-0.12763">
        <ele>843.5</ele>
        <time>2017-08-13T07:53:24Z</time>
      </trkpt>
      <trkpt lat="42.50545" lon="-0.12765">
        <ele>843.5</ele>
        <time>2017-08-13T07:53:25Z</time>
      </trkpt>
      <trkpt lat="42.50549" lon="-0.12767">
        <ele>843.5</ele>
        <time>2017-08-13T07:53:26Z</time>
      </trkpt>
      <trkpt lat="42.50553" lon="-0.12769">
        <ele>843.6</ele>
        <time>2017-08-13T07:53:27Z</time>
      </trkpt>
      <trkpt lat="42.50557" lon="-0.12772">
        <ele>843.6</ele>
        <time>2017-08-13T07:53:28Z</time>
      </trkpt>
      <trkpt lat="42.5056" lon="-0.12774">
        <ele>843.6</ele>
        <time>2017-08-13T07:53:29Z</time>
      </trkpt>
      <trkpt lat="42.50563" lon="-0.12775">
        <ele>843.7</ele>
        <time>2017-08-13T07:53:30Z</time>
      </trkpt>
      <trkpt lat="42.50567" lon="-0.12778">
        <ele>843.7</ele>
        <time>2017-08-13T07:53:31Z</time>
      </trkpt>
      <trkpt lat="42.50571" lon="-0.1278">
        <ele>843.7</ele>
        <time>2017-08-13T07:53:32Z</time>
      </trkpt>
      <trkpt lat="42.50575" lon="-0.12782">
        <ele>843.7</ele>
        <time>2017-08-13T07:53:33Z</time>
      </trkpt>
      <trkpt lat="42.50579" lon="-0.12784">
        <ele>843.7</ele>
        <time>2017-08-13T07:53:34Z</time>
      </trkpt>
      <trkpt lat="42.50583" lon="-0.12786">
        <ele>843.7</ele>
        <time>2017-08-13T07:53:35Z</time>
      </trkpt>
      <trkpt lat="42.50587" lon="-0.12788">
        <ele>843.7</ele>
        <time>2017-08-13T07:53:36Z</time>
      </trkpt>
      <trkpt lat="42.50591" lon="-0.12791">
        <ele>843.8</ele>
        <time>2017-08-13T07:53:37Z</time>
      </trkpt>
      <trkpt lat="42.50595" lon="-0.12794">
        <ele>843.8</ele>
        <time>2017-08-13T07:53:38Z</time>
      </trkpt>
      <trkpt lat="42.50599" lon="-0.12798">
        <ele>843.8</ele>
        <time>2017-08-13T07:53:39Z</time>
      </trkpt>
      <trkpt lat="42.50602" lon="-0.12801">
        <ele>843.8</ele>
        <time>2017-08-13T07:53:40Z</time>
      </trkpt>
      <trkpt lat="42.50604" lon="-0.12806">
        <ele>843.8</ele>
        <time>2017-08-13T07:53:41Z</time>
      </trkpt>
      <trkpt lat="42.50606" lon="-0.12811">
        <ele>843.8</ele>
        <time>2017-08-13T07:53:42Z</time>
      </trkpt>
      <trkpt lat="42.50608" lon="-0.12816">
        <ele>843.9</ele>
        <time>2017-08-13T07:53:43Z</time>
      </trkpt>
      <trkpt lat="42.50609" lon="-0.12821">
        <ele>843.9</ele>
        <time>2017-08-13T07:53:44Z</time>
      </trkpt>
      <trkpt lat="42.50611" lon="-0.12825">
        <ele>843.9</ele>
        <time>2017-08-13T07:53:45Z</time>
      </trkpt>
      <trkpt lat="42.50612" lon="-0.1283">
        <ele>843.9</ele>
        <time>2017-08-13T07:53:46Z</time>
      </trkpt>
      <trkpt lat="42.50615" lon="-0.12835">
        <ele>844</ele>
        <time>2017-08-13T07:53:47Z</time>
      </trkpt>
      <trkpt lat="42.50618" lon="-0.12839">
        <ele>844</ele>
        <time>2017-08-13T07:53:48Z</time>
      </trkpt>
      <trkpt lat="42.50621" lon="-0.12841">
        <ele>844.1</ele>
        <time>2017-08-13T07:53:49Z</time>
      </trkpt>
      <trkpt lat="42.50624" lon="-0.12843">
        <ele>844.1</ele>
        <time>2017-08-13T07:53:50Z</time>
      </trkpt>
      <trkpt lat="42.50628" lon="-0.12846">
        <ele>844.2</ele>
        <time>2017-08-13T07:53:51Z</time>
      </trkpt>
      <trkpt lat="42.50631" lon="-0.12848">
        <ele>844.4</ele>
        <time>2017-08-13T07:53:52Z</time>
      </trkpt>
      <trkpt lat="42.50634" lon="-0.12851">
        <ele>844.5</ele>
        <time>2017-08-13T07:53:53Z</time>
      </trkpt>
      <trkpt lat="42.50637" lon="-0.12855">
        <ele>844.6</ele>
        <time>2017-08-13T07:53:54Z</time>
      </trkpt>
      <trkpt lat="42.5064" lon="-0.12859">
        <ele>844.8</ele>
        <time>2017-08-13T07:53:55Z</time>
      </trkpt>
      <trkpt lat="42.50643" lon="-0.12863">
        <ele>845.1</ele>
        <time>2017-08-13T07:53:56Z</time>
      </trkpt>
      <trkpt lat="42.50645" lon="-0.12867">
        <ele>845.5</ele>
        <time>2017-08-13T07:53:57Z</time>
      </trkpt>
      <trkpt lat="42.50648" lon="-0.12871">
        <ele>845.7</ele>
        <time>2017-08-13T07:53:58Z</time>
      </trkpt>
      <trkpt lat="42.5065" lon="-0.12876">
        <ele>845.9</ele>
        <time>2017-08-13T07:53:59Z</time>
      </trkpt>
      <trkpt lat="42.50652" lon="-0.12881">
        <ele>846</ele>
        <time>2017-08-13T07:54:00Z</time>
      </trkpt>
      <trkpt lat="42.50655" lon="-0.12885">
        <ele>846.1</ele>
        <time>2017-08-13T07:54:01Z</time>
      </trkpt>
      <trkpt lat="42.50657" lon="-0.12889">
        <ele>846.2</ele>
        <time>2017-08-13T07:54:02Z</time>
      </trkpt>
      <trkpt lat="42.50659" lon="-0.12893">
        <ele>846.3</ele>
        <time>2017-08-13T07:54:03Z</time>
      </trkpt>
      <trkpt lat="42.50662" lon="-0.12897">
        <ele>846.4</ele>
        <time>2017-08-13T07:54:04Z</time>
      </trkpt>
      <trkpt lat="42.50665" lon="-0.12901">
        <ele>846.5</ele>
        <time>2017-08-13T07:54:05Z</time>
      </trkpt>
      <trkpt lat="42.50667" lon="-0.12904">
        <ele>846.6</ele>
        <time>2017-08-13T07:54:06Z</time>
      </trkpt>
      <trkpt lat="42.5067" lon="-0.12908">
        <ele>846.7</ele>
        <time>2017-08-13T07:54:07Z</time>
      </trkpt>
      <trkpt lat="42.50671" lon="-0.12912">
        <ele>846.7</ele>
        <time>2017-08-13T07:54:08Z</time>
      </trkpt>
      <trkpt lat="42.50673" lon="-0.12916">
        <ele>846.8</ele>
        <time>2017-08-13T07:54:09Z</time>
      </trkpt>
      <trkpt lat="42.50675" lon="-0.1292">
        <ele>846.9</ele>
        <time>2017-08-13T07:54:10Z</time>
      </trkpt>
      <trkpt lat="42.50677" lon="-0.12924">
        <ele>847</ele>
        <time>2017-08-13T07:54:11Z</time>
      </trkpt>
      <trkpt lat="42.50679" lon="-0.12929">
        <ele>847.1</ele>
        <time>2017-08-13T07:54:12Z</time>
      </trkpt>
      <trkpt lat="42.50682" lon="-0.12933">
        <ele>847.3</ele>
        <time>2017-08-13T07:54:13Z</time>
      </trkpt>
      <trkpt lat="42.50684" lon="-0.12937">
        <ele>847.5</ele>
        <time>2017-08-13T07:54:14Z</time>
      </trkpt>
      <trkpt lat="42.50687" lon="-0.12941">
        <ele>847.8</ele>
        <time>2017-08-13T07:54:15Z</time>
      </trkpt>
      <trkpt lat="42.50689" lon="-0.12945">
        <ele>848.1</ele>
        <time>2017-08-13T07:54:16Z</time>
      </trkpt>
      <trkpt lat="42.50692" lon="-0.12949">
        <ele>848.3</ele>
        <time>2017-08-13T07:54:17Z</time>
      </trkpt>
      <trkpt lat="42.50694" lon="-0.12954">
        <ele>848.4</ele>
        <time>2017-08-13T07:54:18Z</time>
      </trkpt>
      <trkpt lat="42.50696" lon="-0.12958">
        <ele>848.5</ele>
        <time>2017-08-13T07:54:19Z</time>
      </trkpt>
      <trkpt lat="42.50698" lon="-0.12961">
        <ele>848.6</ele>
        <time>2017-08-13T07:54:20Z</time>
      </trkpt>
      <trkpt lat="42.50701" lon="-0.12964">
        <ele>848.7</ele>
        <time>2017-08-13T07:54:21Z</time>
      </trkpt>
      <trkpt lat="42.50704" lon="-0.12967">
        <ele>848.8</ele>
        <time>2017-08-13T07:54:22Z</time>
      </trkpt>
      <trkpt lat="42.50707" lon="-0.12969">
        <ele>848.9</ele>
        <time>2017-08-13T07:54:23Z</time>
      </trkpt>
      <trkpt lat="42.5071" lon="-0.12971">
        <ele>849</ele>
        <time>2017-08-13T07:54:24Z</time>
      </trkpt>
      <trkpt lat="42.50714" lon="-0.12973">
        <ele>849.1</ele>
        <time>2017-08-13T07:54:25Z</time>
      </trkpt>
      <trkpt lat="42.50718" lon="-0.12974">
        <ele>849.3</ele>
        <time>2017-08-13T07:54:26Z</time>
      </trkpt>
      <trkpt lat="42.50722" lon="-0.12976">
        <ele>849.5</ele>
        <time>2017-08-13T07:54:27Z</time>
      </trkpt>
      <trkpt lat="42.50726" lon="-0.12977">
        <ele>849.8</ele>
        <time>2017-08-13T07:54:28Z</time>
      </trkpt>
      <trkpt lat="42.50729" lon="-0.12978">
        <ele>850.1</ele>
        <time>2017-08-13T07:54:29Z</time>
      </trkpt>
      <trkpt lat="42.50733" lon="-0.1298">
        <ele>850.4</ele>
        <time>2017-08-13T07:54:30Z</time>
      </trkpt>
      <trkpt lat="42.50736" lon="-0.12981">
        <ele>850.7</ele>
        <time>2017-08-13T07:54:31Z</time>
      </trkpt>
      <trkpt lat="42.5074" lon="-0.12983">
        <ele>850.8</ele>
        <time>2017-08-13T07:54:32Z</time>
      </trkpt>
      <trkpt lat="42.50743" lon="-0.12985">
        <ele>850.9</ele>
        <time>2017-08-13T07:54:33Z</time>
      </trkpt>
      <trkpt lat="42.50746" lon="-0.12988">
        <ele>851</ele>
        <time>2017-08-13T07:54:34Z</time>
      </trkpt>
      <trkpt lat="42.50749" lon="-0.1299">
        <ele>851.1</ele>
        <time>2017-08-13T07:54:35Z</time>
      </trkpt>
      <trkpt lat="42.50753" lon="-0.12993">
        <ele>851.2</ele>
        <time>2017-08-13T07:54:36Z</time>
      </trkpt>
      <trkpt lat="42.50755" lon="-0.12996">
        <ele>851.3</ele>
        <time>2017-08-13T07:54:37Z</time>
      </trkpt>
      <trkpt lat="42.50758" lon="-0.12999">
        <ele>851.5</ele>
        <time>2017-08-13T07:54:38Z</time>
      </trkpt>
      <trkpt lat="42.5076" lon="-0.13003">
        <ele>851.6</ele>
        <time>2017-08-13T07:54:39Z</time>
      </trkpt>
      <trkpt lat="42.50762" lon="-0.13006">
        <ele>851.8</ele>
        <time>2017-08-13T07:54:40Z</time>
      </trkpt>
      <trkpt lat="42.50765" lon="-0.13009">
        <ele>852</ele>
        <time>2017-08-13T07:54:41Z</time>
      </trkpt>
      <trkpt lat="42.50767" lon="-0.13012">
        <ele>852.3</ele>
        <time>2017-08-13T07:54:42Z</time>
      </trkpt>
      <trkpt lat="42.50769" lon="-0.13015">
        <ele>852.7</ele>
        <time>2017-08-13T07:54:43Z</time>
      </trkpt>
      <trkpt lat="42.50772" lon="-0.13017">
        <ele>853.1</ele>
        <time>2017-08-13T07:54:44Z</time>
      </trkpt>
      <trkpt lat="42.50775" lon="-0.1302">
        <ele>853.3</ele>
        <time>2017-08-13T07:54:45Z</time>
      </trkpt>
      <trkpt lat="42.50777" lon="-0.13023">
        <ele>853.6</ele>
        <time>2017-08-13T07:54:46Z</time>
      </trkpt>
      <trkpt lat="42.5078" lon="-0.13026">
        <ele>853.8</ele>
        <time>2017-08-13T07:54:47Z</time>
      </trkpt>
      <trkpt lat="42.50782" lon="-0.13028">
        <ele>854</ele>
        <time>2017-08-13T07:54:48Z</time>
      </trkpt>
      <trkpt lat="42.50785" lon="-0.13031">
        <ele>854.4</ele>
        <time>2017-08-13T07:54:49Z</time>
      </trkpt>
      <trkpt lat="42.50787" lon="-0.13034">
        <ele>854.8</ele>
        <time>2017-08-13T07:54:50Z</time>
      </trkpt>
      <trkpt lat="42.5079" lon="-0.13037">
        <ele>855.1</ele>
        <time>2017-08-13T07:54:51Z</time>
      </trkpt>
      <trkpt lat="42.50793" lon="-0.13039">
        <ele>855.4</ele>
        <time>2017-08-13T07:54:52Z</time>
      </trkpt>
      <trkpt lat="42.50795" lon="-0.13042">
        <ele>855.5</ele>
        <time>2017-08-13T07:54:53Z</time>
      </trkpt>
      <trkpt lat="42.50798" lon="-0.13045">
        <ele>855.7</ele>
        <time>2017-08-13T07:54:54Z</time>
      </trkpt>
      <trkpt lat="42.508" lon="-0.13048">
        <ele>855.9</ele>
        <time>2017-08-13T07:54:55Z</time>
      </trkpt>
      <trkpt lat="42.50803" lon="-0.1305">
        <ele>856</ele>
        <time>2017-08-13T07:54:56Z</time>
      </trkpt>
      <trkpt lat="42.50805" lon="-0.13052">
        <ele>856.2</ele>
        <time>2017-08-13T07:54:57Z</time>
      </trkpt>
      <trkpt lat="42.50808" lon="-0.13054">
        <ele>856.4</ele>
        <time>2017-08-13T07:54:58Z</time>
      </trkpt>
      <trkpt lat="42.5081" lon="-0.13056">
        <ele>856.7</ele>
        <time>2017-08-13T07:54:59Z</time>
      </trkpt>
      <trkpt lat="42.50813" lon="-0.13059">
        <ele>857.1</ele>
        <time>2017-08-13T07:55:00Z</time>
      </trkpt>
      <trkpt lat="42.50816" lon="-0.13061">
        <ele>857.4</ele>
        <time>2017-08-13T07:55:01Z</time>
      </trkpt>
      <trkpt lat="42.5082" lon="-0.13065">
        <ele>858</ele>
        <time>2017-08-13T07:55:03Z</time>
      </trkpt>
      <trkpt lat="42.50823" lon="-0.13068">
        <ele>858.3</ele>
        <time>2017-08-13T07:55:04Z</time>
      </trkpt>
      <trkpt lat="42.50824" lon="-0.13071">
        <ele>858.5</ele>
        <time>2017-08-13T07:55:05Z</time>
      </trkpt>
      <trkpt lat="42.50828" lon="-0.13075">
        <ele>858.9</ele>
        <time>2017-08-13T07:55:07Z</time>
      </trkpt>
      <trkpt lat="42.5083" lon="-0.13078">
        <ele>859.3</ele>
        <time>2017-08-13T07:55:08Z</time>
      </trkpt>
      <trkpt lat="42.50833" lon="-0.1308">
        <ele>859.6</ele>
        <time>2017-08-13T07:55:09Z</time>
      </trkpt>
      <trkpt lat="42.50835" lon="-0.13083">
        <ele>860</ele>
        <time>2017-08-13T07:55:10Z</time>
      </trkpt>
      <trkpt lat="42.50837" lon="-0.13085">
        <ele>860.3</ele>
        <time>2017-08-13T07:55:11Z</time>
      </trkpt>
      <trkpt lat="42.50839" lon="-0.13087">
        <ele>860.4</ele>
        <time>2017-08-13T07:55:12Z</time>
      </trkpt>
      <trkpt lat="42.50844" lon="-0.13092">
        <ele>860.7</ele>
        <time>2017-08-13T07:55:14Z</time>
      </trkpt>
      <trkpt lat="42.50846" lon="-0.13094">
        <ele>860.9</ele>
        <time>2017-08-13T07:55:15Z</time>
      </trkpt>
      <trkpt lat="42.50848" lon="-0.13097">
        <ele>861.1</ele>
        <time>2017-08-13T07:55:16Z</time>
      </trkpt>
      <trkpt lat="42.5085" lon="-0.13101">
        <ele>861.5</ele>
        <time>2017-08-13T07:55:17Z</time>
      </trkpt>
      <trkpt lat="42.50851" lon="-0.13104">
        <ele>861.8</ele>
        <time>2017-08-13T07:55:18Z</time>
      </trkpt>
      <trkpt lat="42.50853" lon="-0.13107">
        <ele>862.1</ele>
        <time>2017-08-13T07:55:19Z</time>
      </trkpt>
      <trkpt lat="42.50854" lon="-0.13111">
        <ele>862.4</ele>
        <time>2017-08-13T07:55:20Z</time>
      </trkpt>
      <trkpt lat="42.50855" lon="-0.13115">
        <ele>862.7</ele>
        <time>2017-08-13T07:55:21Z</time>
      </trkpt>
      <trkpt lat="42.50856" lon="-0.13119">
        <ele>862.9</ele>
        <time>2017-08-13T07:55:22Z</time>
      </trkpt>
      <trkpt lat="42.50856" lon="-0.13123">
        <ele>863</ele>
        <time>2017-08-13T07:55:23Z</time>
      </trkpt>
      <trkpt lat="42.50857" lon="-0.13126">
        <ele>863.1</ele>
        <time>2017-08-13T07:55:24Z</time>
      </trkpt>
      <trkpt lat="42.50857" lon="-0.1313">
        <ele>863.3</ele>
        <time>2017-08-13T07:55:25Z</time>
      </trkpt>
      <trkpt lat="42.50858" lon="-0.13134">
        <ele>863.4</ele>
        <time>2017-08-13T07:55:26Z</time>
      </trkpt>
      <trkpt lat="42.50858" lon="-0.13138">
        <ele>863.7</ele>
        <time>2017-08-13T07:55:27Z</time>
      </trkpt>
      <trkpt lat="42.50859" lon="-0.13142">
        <ele>864</ele>
        <time>2017-08-13T07:55:28Z</time>
      </trkpt>
      <trkpt lat="42.50859" lon="-0.13145">
        <ele>864.4</ele>
        <time>2017-08-13T07:55:29Z</time>
      </trkpt>
      <trkpt lat="42.5086" lon="-0.13149">
        <ele>864.6</ele>
        <time>2017-08-13T07:55:30Z</time>
      </trkpt>
      <trkpt lat="42.50861" lon="-0.13153">
        <ele>864.8</ele>
        <time>2017-08-13T07:55:31Z</time>
      </trkpt>
      <trkpt lat="42.50861" lon="-0.13157">
        <ele>865</ele>
        <time>2017-08-13T07:55:32Z</time>
      </trkpt>
      <trkpt lat="42.50862" lon="-0.1316">
        <ele>865.1</ele>
        <time>2017-08-13T07:55:33Z</time>
      </trkpt>
      <trkpt lat="42.50862" lon="-0.13164">
        <ele>865.4</ele>
        <time>2017-08-13T07:55:34Z</time>
      </trkpt>
      <trkpt lat="42.50862" lon="-0.13168">
        <ele>865.7</ele>
        <time>2017-08-13T07:55:35Z</time>
      </trkpt>
      <trkpt lat="42.50862" lon="-0.13172">
        <ele>866.1</ele>
        <time>2017-08-13T07:55:36Z</time>
      </trkpt>
      <trkpt lat="42.50863" lon="-0.13177">
        <ele>866.5</ele>
        <time>2017-08-13T07:55:37Z</time>
      </trkpt>
      <trkpt lat="42.50864" lon="-0.13181">
        <ele>866.8</ele>
        <time>2017-08-13T07:55:38Z</time>
      </trkpt>
      <trkpt lat="42.50864" lon="-0.13185">
        <ele>866.9</ele>
        <time>2017-08-13T07:55:39Z</time>
      </trkpt>
      <trkpt lat="42.50865" lon="-0.13189">
        <ele>867</ele>
        <time>2017-08-13T07:55:40Z</time>
      </trkpt>
      <trkpt lat="42.50865" lon="-0.13193">
        <ele>867.1</ele>
        <time>2017-08-13T07:55:41Z</time>
      </trkpt>
      <trkpt lat="42.50866" lon="-0.13197">
        <ele>867.3</ele>
        <time>2017-08-13T07:55:42Z</time>
      </trkpt>
      <trkpt lat="42.50867" lon="-0.13201">
        <ele>867.4</ele>
        <time>2017-08-13T07:55:43Z</time>
      </trkpt>
      <trkpt lat="42.50868" lon="-0.13206">
        <ele>867.5</ele>
        <time>2017-08-13T07:55:44Z</time>
      </trkpt>
      <trkpt lat="42.50869" lon="-0.1321">
        <ele>867.7</ele>
        <time>2017-08-13T07:55:45Z</time>
      </trkpt>
      <trkpt lat="42.50869" lon="-0.13215">
        <ele>867.9</ele>
        <time>2017-08-13T07:55:46Z</time>
      </trkpt>
      <trkpt lat="42.5087" lon="-0.13219">
        <ele>868.2</ele>
        <time>2017-08-13T07:55:47Z</time>
      </trkpt>
      <trkpt lat="42.5087" lon="-0.13224">
        <ele>868.5</ele>
        <time>2017-08-13T07:55:48Z</time>
      </trkpt>
      <trkpt lat="42.5087" lon="-0.13229">
        <ele>868.8</ele>
        <time>2017-08-13T07:55:49Z</time>
      </trkpt>
      <trkpt lat="42.5087" lon="-0.13233">
        <ele>869</ele>
        <time>2017-08-13T07:55:50Z</time>
      </trkpt>
      <trkpt lat="42.5087" lon="-0.13238">
        <ele>869.1</ele>
        <time>2017-08-13T07:55:51Z</time>
      </trkpt>
      <trkpt lat="42.5087" lon="-0.13243">
        <ele>869.1</ele>
        <time>2017-08-13T07:55:52Z</time>
      </trkpt>
      <trkpt lat="42.5087" lon="-0.13247">
        <ele>869.2</ele>
        <time>2017-08-13T07:55:53Z</time>
      </trkpt>
      <trkpt lat="42.50871" lon="-0.13252">
        <ele>869.2</ele>
        <time>2017-08-13T07:55:54Z</time>
      </trkpt>
      <trkpt lat="42.50871" lon="-0.13256">
        <ele>869.3</ele>
        <time>2017-08-13T07:55:55Z</time>
      </trkpt>
      <trkpt lat="42.50872" lon="-0.1326">
        <ele>869.3</ele>
        <time>2017-08-13T07:55:56Z</time>
      </trkpt>
      <trkpt lat="42.50874" lon="-0.13265">
        <ele>869.4</ele>
        <time>2017-08-13T07:55:57Z</time>
      </trkpt>
      <trkpt lat="42.50876" lon="-0.13269">
        <ele>869.4</ele>
        <time>2017-08-13T07:55:58Z</time>
      </trkpt>
      <trkpt lat="42.50879" lon="-0.13272">
        <ele>869.5</ele>
        <time>2017-08-13T07:55:59Z</time>
      </trkpt>
      <trkpt lat="42.50883" lon="-0.13275">
        <ele>869.5</ele>
        <time>2017-08-13T07:56:00Z</time>
      </trkpt>
      <trkpt lat="42.50887" lon="-0.13275">
        <ele>869.6</ele>
        <time>2017-08-13T07:56:01Z</time>
      </trkpt>
      <trkpt lat="42.50892" lon="-0.13273">
        <ele>869.7</ele>
        <time>2017-08-13T07:56:02Z</time>
      </trkpt>
      <trkpt lat="42.50896" lon="-0.1327">
        <ele>869.8</ele>
        <time>2017-08-13T07:56:03Z</time>
      </trkpt>
      <trkpt lat="42.50899" lon="-0.13265">
        <ele>869.9</ele>
        <time>2017-08-13T07:56:04Z</time>
      </trkpt>
      <trkpt lat="42.50901" lon="-0.13261">
        <ele>870</ele>
        <time>2017-08-13T07:56:05Z</time>
      </trkpt>
      <trkpt lat="42.50904" lon="-0.13256">
        <ele>870.2</ele>
        <time>2017-08-13T07:56:06Z</time>
      </trkpt>
      <trkpt lat="42.50906" lon="-0.13252">
        <ele>870.5</ele>
        <time>2017-08-13T07:56:07Z</time>
      </trkpt>
      <trkpt lat="42.50908" lon="-0.13248">
        <ele>870.8</ele>
        <time>2017-08-13T07:56:08Z</time>
      </trkpt>
      <trkpt lat="42.5091" lon="-0.13244">
        <ele>871.1</ele>
        <time>2017-08-13T07:56:09Z</time>
      </trkpt>
      <trkpt lat="42.50913" lon="-0.1324">
        <ele>871.3</ele>
        <time>2017-08-13T07:56:10Z</time>
      </trkpt>
      <trkpt lat="42.50915" lon="-0.13237">
        <ele>871.5</ele>
        <time>2017-08-13T07:56:11Z</time>
      </trkpt>
      <trkpt lat="42.50917" lon="-0.13234">
        <ele>871.6</ele>
        <time>2017-08-13T07:56:12Z</time>
      </trkpt>
      <trkpt lat="42.5092" lon="-0.13231">
        <ele>871.6</ele>
        <time>2017-08-13T07:56:13Z</time>
      </trkpt>
      <trkpt lat="42.50922" lon="-0.13228">
        <ele>871.7</ele>
        <time>2017-08-13T07:56:14Z</time>
      </trkpt>
      <trkpt lat="42.50925" lon="-0.13226">
        <ele>871.8</ele>
        <time>2017-08-13T07:56:15Z</time>
      </trkpt>
      <trkpt lat="42.50928" lon="-0.13223">
        <ele>871.8</ele>
        <time>2017-08-13T07:56:16Z</time>
      </trkpt>
      <trkpt lat="42.50931" lon="-0.13221">
        <ele>871.9</ele>
        <time>2017-08-13T07:56:17Z</time>
      </trkpt>
      <trkpt lat="42.50935" lon="-0.13219">
        <ele>872</ele>
        <time>2017-08-13T07:56:18Z</time>
      </trkpt>
      <trkpt lat="42.50939" lon="-0.13216">
        <ele>872</ele>
        <time>2017-08-13T07:56:19Z</time>
      </trkpt>
      <trkpt lat="42.50942" lon="-0.13213">
        <ele>872</ele>
        <time>2017-08-13T07:56:20Z</time>
      </trkpt>
      <trkpt lat="42.50946" lon="-0.1321">
        <ele>872</ele>
        <time>2017-08-13T07:56:21Z</time>
      </trkpt>
      <trkpt lat="42.5095" lon="-0.13207">
        <ele>872</ele>
        <time>2017-08-13T07:56:22Z</time>
      </trkpt>
      <trkpt lat="42.50954" lon="-0.13204">
        <ele>872</ele>
        <time>2017-08-13T07:56:23Z</time>
      </trkpt>
      <trkpt lat="42.50957" lon="-0.13199">
        <ele>872</ele>
        <time>2017-08-13T07:56:24Z</time>
      </trkpt>
      <trkpt lat="42.50961" lon="-0.13195">
        <ele>872</ele>
        <time>2017-08-13T07:56:25Z</time>
      </trkpt>
      <trkpt lat="42.50964" lon="-0.1319">
        <ele>872</ele>
        <time>2017-08-13T07:56:26Z</time>
      </trkpt>
      <trkpt lat="42.50968" lon="-0.13185">
        <ele>872</ele>
        <time>2017-08-13T07:56:27Z</time>
      </trkpt>
      <trkpt lat="42.50972" lon="-0.1318">
        <ele>872</ele>
        <time>2017-08-13T07:56:28Z</time>
      </trkpt>
      <trkpt lat="42.50977" lon="-0.13177">
        <ele>872</ele>
        <time>2017-08-13T07:56:29Z</time>
      </trkpt>
      <trkpt lat="42.50983" lon="-0.13174">
        <ele>872</ele>
        <time>2017-08-13T07:56:30Z</time>
      </trkpt>
      <trkpt lat="42.50989" lon="-0.13172">
        <ele>872</ele>
        <time>2017-08-13T07:56:31Z</time>
      </trkpt>
      <trkpt lat="42.50995" lon="-0.13173">
        <ele>872</ele>
        <time>2017-08-13T07:56:32Z</time>
      </trkpt>
      <trkpt lat="42.51002" lon="-0.13174">
        <ele>872</ele>
        <time>2017-08-13T07:56:33Z</time>
      </trkpt>
      <trkpt lat="42.51009" lon="-0.13176">
        <ele>871.9</ele>
        <time>2017-08-13T07:56:34Z</time>
      </trkpt>
      <trkpt lat="42.51016" lon="-0.13179">
        <ele>871.9</ele>
        <time>2017-08-13T07:56:35Z</time>
      </trkpt>
      <trkpt lat="42.51025" lon="-0.13184">
        <ele>871.8</ele>
        <time>2017-08-13T07:56:36Z</time>
      </trkpt>
      <trkpt lat="42.51032" lon="-0.13185">
        <ele>871.6</ele>
        <time>2017-08-13T07:56:37Z</time>
      </trkpt>
      <trkpt lat="42.51039" lon="-0.13187">
        <ele>871.5</ele>
        <time>2017-08-13T07:56:38Z</time>
      </trkpt>
      <trkpt lat="42.51046" lon="-0.13187">
        <ele>871.2</ele>
        <time>2017-08-13T07:56:39Z</time>
      </trkpt>
      <trkpt lat="42.51054" lon="-0.13188">
        <ele>870.9</ele>
        <time>2017-08-13T07:56:40Z</time>
      </trkpt>
      <trkpt lat="42.51062" lon="-0.13188">
        <ele>870.6</ele>
        <time>2017-08-13T07:56:41Z</time>
      </trkpt>
      <trkpt lat="42.5107" lon="-0.13186">
        <ele>870.2</ele>
        <time>2017-08-13T07:56:42Z</time>
      </trkpt>
      <trkpt lat="42.51079" lon="-0.13185">
        <ele>869.8</ele>
        <time>2017-08-13T07:56:43Z</time>
      </trkpt>
      <trkpt lat="42.51088" lon="-0.13183">
        <ele>869.4</ele>
        <time>2017-08-13T07:56:44Z</time>
      </trkpt>
      <trkpt lat="42.51097" lon="-0.13182">
        <ele>869</ele>
        <time>2017-08-13T07:56:45Z</time>
      </trkpt>
      <trkpt lat="42.51106" lon="-0.13183">
        <ele>868.5</ele>
        <time>2017-08-13T07:56:46Z</time>
      </trkpt>
      <trkpt lat="42.51115" lon="-0.13184">
        <ele>868.1</ele>
        <time>2017-08-13T07:56:47Z</time>
      </trkpt>
      <trkpt lat="42.51124" lon="-0.13186">
        <ele>867.6</ele>
        <time>2017-08-13T07:56:48Z</time>
      </trkpt>
      <trkpt lat="42.51133" lon="-0.1319">
        <ele>867</ele>
        <time>2017-08-13T07:56:49Z</time>
      </trkpt>
      <trkpt lat="42.51143" lon="-0.13194">
        <ele>866.4</ele>
        <time>2017-08-13T07:56:50Z</time>
      </trkpt>
      <trkpt lat="42.51152" lon="-0.13198">
        <ele>865.7</ele>
        <time>2017-08-13T07:56:51Z</time>
      </trkpt>
      <trkpt lat="42.51161" lon="-0.13202">
        <ele>865</ele>
        <time>2017-08-13T07:56:52Z</time>
      </trkpt>
      <trkpt lat="42.5117" lon="-0.13205">
        <ele>864.1</ele>
        <time>2017-08-13T07:56:53Z</time>
      </trkpt>
      <trkpt lat="42.51181" lon="-0.13206">
        <ele>863.2</ele>
        <time>2017-08-13T07:56:54Z</time>
      </trkpt>
      <trkpt lat="42.51191" lon="-0.13207">
        <ele>862.4</ele>
        <time>2017-08-13T07:56:55Z</time>
      </trkpt>
      <trkpt lat="42.51201" lon="-0.13207">
        <ele>861.6</ele>
        <time>2017-08-13T07:56:56Z</time>
      </trkpt>
      <trkpt lat="42.51211" lon="-0.13205">
        <ele>860.9</ele>
        <time>2017-08-13T07:56:57Z</time>
      </trkpt>
      <trkpt lat="42.51221" lon="-0.13206">
        <ele>860.2</ele>
        <time>2017-08-13T07:56:58Z</time>
      </trkpt>
      <trkpt lat="42.51231" lon="-0.13206">
        <ele>859.6</ele>
        <time>2017-08-13T07:56:59Z</time>
      </trkpt>
      <trkpt lat="42.5124" lon="-0.13207">
        <ele>859</ele>
        <time>2017-08-13T07:57:00Z</time>
      </trkpt>
      <trkpt lat="42.5125" lon="-0.13208">
        <ele>858.5</ele>
        <time>2017-08-13T07:57:01Z</time>
      </trkpt>
      <trkpt lat="42.51259" lon="-0.13209">
        <ele>858</ele>
        <time>2017-08-13T07:57:02Z</time>
      </trkpt>
      <trkpt lat="42.51266" lon="-0.13211">
        <ele>857.7</ele>
        <time>2017-08-13T07:57:03Z</time>
      </trkpt>
      <trkpt lat="42.51274" lon="-0.13214">
        <ele>857.3</ele>
        <time>2017-08-13T07:57:04Z</time>
      </trkpt>
      <trkpt lat="42.51281" lon="-0.13217">
        <ele>857.1</ele>
        <time>2017-08-13T07:57:05Z</time>
      </trkpt>
      <trkpt lat="42.51286" lon="-0.1322">
        <ele>857</ele>
        <time>2017-08-13T07:57:06Z</time>
      </trkpt>
      <trkpt lat="42.51292" lon="-0.13224">
        <ele>856.9</ele>
        <time>2017-08-13T07:57:07Z</time>
      </trkpt>
      <trkpt lat="42.51296" lon="-0.13226">
        <ele>857</ele>
        <time>2017-08-13T07:57:08Z</time>
      </trkpt>
      <trkpt lat="42.51301" lon="-0.13231">
        <ele>857.1</ele>
        <time>2017-08-13T07:57:09Z</time>
      </trkpt>
      <trkpt lat="42.51304" lon="-0.13234">
        <ele>857.2</ele>
        <time>2017-08-13T07:57:10Z</time>
      </trkpt>
      <trkpt lat="42.51307" lon="-0.13237">
        <ele>857.3</ele>
        <time>2017-08-13T07:57:11Z</time>
      </trkpt>
      <trkpt lat="42.5131" lon="-0.13239">
        <ele>857.3</ele>
        <time>2017-08-13T07:57:12Z</time>
      </trkpt>
      <trkpt lat="42.51313" lon="-0.13242">
        <ele>857.5</ele>
        <time>2017-08-13T07:57:13Z</time>
      </trkpt>
      <trkpt lat="42.51317" lon="-0.13244">
        <ele>857.7</ele>
        <time>2017-08-13T07:57:14Z</time>
      </trkpt>
      <trkpt lat="42.51319" lon="-0.13246">
        <ele>858</ele>
        <time>2017-08-13T07:57:15Z</time>
      </trkpt>
      <trkpt lat="42.51322" lon="-0.13248">
        <ele>858.2</ele>
        <time>2017-08-13T07:57:16Z</time>
      </trkpt>
      <trkpt lat="42.51325" lon="-0.13251">
        <ele>858.6</ele>
        <time>2017-08-13T07:57:17Z</time>
      </trkpt>
      <trkpt lat="42.51329" lon="-0.13253">
        <ele>858.9</ele>
        <time>2017-08-13T07:57:18Z</time>
      </trkpt>
      <trkpt lat="42.51332" lon="-0.13255">
        <ele>859.1</ele>
        <time>2017-08-13T07:57:19Z</time>
      </trkpt>
      <trkpt lat="42.51334" lon="-0.13258">
        <ele>859.3</ele>
        <time>2017-08-13T07:57:20Z</time>
      </trkpt>
      <trkpt lat="42.51336" lon="-0.1326">
        <ele>859.5</ele>
        <time>2017-08-13T07:57:21Z</time>
      </trkpt>
      <trkpt lat="42.51339" lon="-0.13261">
        <ele>859.9</ele>
        <time>2017-08-13T07:57:22Z</time>
      </trkpt>
      <trkpt lat="42.51341" lon="-0.13263">
        <ele>860.2</ele>
        <time>2017-08-13T07:57:23Z</time>
      </trkpt>
      <trkpt lat="42.51344" lon="-0.13265">
        <ele>860.6</ele>
        <time>2017-08-13T07:57:24Z</time>
      </trkpt>
      <trkpt lat="42.51347" lon="-0.13267">
        <ele>860.9</ele>
        <time>2017-08-13T07:57:25Z</time>
      </trkpt>
      <trkpt lat="42.5135" lon="-0.13269">
        <ele>861</ele>
        <time>2017-08-13T07:57:26Z</time>
      </trkpt>
      <trkpt lat="42.51352" lon="-0.1327">
        <ele>861.2</ele>
        <time>2017-08-13T07:57:27Z</time>
      </trkpt>
      <trkpt lat="42.51355" lon="-0.13272">
        <ele>861.3</ele>
        <time>2017-08-13T07:57:28Z</time>
      </trkpt>
      <trkpt lat="42.51357" lon="-0.13274">
        <ele>861.4</ele>
        <time>2017-08-13T07:57:29Z</time>
      </trkpt>
      <trkpt lat="42.5136" lon="-0.13276">
        <ele>861.5</ele>
        <time>2017-08-13T07:57:30Z</time>
      </trkpt>
      <trkpt lat="42.51363" lon="-0.13278">
        <ele>861.6</ele>
        <time>2017-08-13T07:57:31Z</time>
      </trkpt>
      <trkpt lat="42.51366" lon="-0.13279">
        <ele>861.8</ele>
        <time>2017-08-13T07:57:32Z</time>
      </trkpt>
      <trkpt lat="42.51368" lon="-0.13281">
        <ele>862</ele>
        <time>2017-08-13T07:57:33Z</time>
      </trkpt>
      <trkpt lat="42.51371" lon="-0.13283">
        <ele>862.4</ele>
        <time>2017-08-13T07:57:34Z</time>
      </trkpt>
      <trkpt lat="42.51374" lon="-0.13285">
        <ele>862.8</ele>
        <time>2017-08-13T07:57:35Z</time>
      </trkpt>
      <trkpt lat="42.51376" lon="-0.13287">
        <ele>863.1</ele>
        <time>2017-08-13T07:57:36Z</time>
      </trkpt>
      <trkpt lat="42.51379" lon="-0.13289">
        <ele>863.3</ele>
        <time>2017-08-13T07:57:37Z</time>
      </trkpt>
      <trkpt lat="42.51382" lon="-0.1329">
        <ele>863.5</ele>
        <time>2017-08-13T07:57:38Z</time>
      </trkpt>
      <trkpt lat="42.51385" lon="-0.13292">
        <ele>863.7</ele>
        <time>2017-08-13T07:57:39Z</time>
      </trkpt>
      <trkpt lat="42.51389" lon="-0.13294">
        <ele>863.9</ele>
        <time>2017-08-13T07:57:40Z</time>
      </trkpt>
      <trkpt lat="42.51392" lon="-0.13296">
        <ele>864</ele>
        <time>2017-08-13T07:57:41Z</time>
      </trkpt>
      <trkpt lat="42.51395" lon="-0.13297">
        <ele>864.2</ele>
        <time>2017-08-13T07:57:42Z</time>
      </trkpt>
      <trkpt lat="42.51398" lon="-0.13299">
        <ele>864.4</ele>
        <time>2017-08-13T07:57:43Z</time>
      </trkpt>
      <trkpt lat="42.51401" lon="-0.133">
        <ele>864.7</ele>
        <time>2017-08-13T07:57:44Z</time>
      </trkpt>
      <trkpt lat="42.51405" lon="-0.13302">
        <ele>865</ele>
        <time>2017-08-13T07:57:45Z</time>
      </trkpt>
      <trkpt lat="42.51408" lon="-0.13303">
        <ele>865.2</ele>
        <time>2017-08-13T07:57:46Z</time>
      </trkpt>
      <trkpt lat="42.51411" lon="-0.13305">
        <ele>865.3</ele>
        <time>2017-08-13T07:57:47Z</time>
      </trkpt>
      <trkpt lat="42.51415" lon="-0.13306">
        <ele>865.4</ele>
        <time>2017-08-13T07:57:48Z</time>
      </trkpt>
      <trkpt lat="42.51418" lon="-0.13307">
        <ele>865.5</ele>
        <time>2017-08-13T07:57:49Z</time>
      </trkpt>
      <trkpt lat="42.51421" lon="-0.13308">
        <ele>865.6</ele>
        <time>2017-08-13T07:57:50Z</time>
      </trkpt>
      <trkpt lat="42.51425" lon="-0.13309">
        <ele>865.8</ele>
        <time>2017-08-13T07:57:51Z</time>
      </trkpt>
      <trkpt lat="42.51428" lon="-0.1331">
        <ele>865.9</ele>
        <time>2017-08-13T07:57:52Z</time>
      </trkpt>
      <trkpt lat="42.51431" lon="-0.13312">
        <ele>866</ele>
        <time>2017-08-13T07:57:53Z</time>
      </trkpt>
      <trkpt lat="42.51434" lon="-0.13313">
        <ele>866.2</ele>
        <time>2017-08-13T07:57:54Z</time>
      </trkpt>
      <trkpt lat="42.51437" lon="-0.13314">
        <ele>866.3</ele>
        <time>2017-08-13T07:57:55Z</time>
      </trkpt>
      <trkpt lat="42.5144" lon="-0.13315">
        <ele>866.6</ele>
        <time>2017-08-13T07:57:56Z</time>
      </trkpt>
      <trkpt lat="42.51443" lon="-0.13316">
        <ele>867</ele>
        <time>2017-08-13T07:57:57Z</time>
      </trkpt>
      <trkpt lat="42.51446" lon="-0.13318">
        <ele>867.3</ele>
        <time>2017-08-13T07:57:58Z</time>
      </trkpt>
      <trkpt lat="42.51449" lon="-0.13319">
        <ele>867.7</ele>
        <time>2017-08-13T07:57:59Z</time>
      </trkpt>
      <trkpt lat="42.51452" lon="-0.13321">
        <ele>867.9</ele>
        <time>2017-08-13T07:58:00Z</time>
      </trkpt>
      <trkpt lat="42.51455" lon="-0.13322">
        <ele>868</ele>
        <time>2017-08-13T07:58:01Z</time>
      </trkpt>
      <trkpt lat="42.51458" lon="-0.13323">
        <ele>868.2</ele>
        <time>2017-08-13T07:58:02Z</time>
      </trkpt>
      <trkpt lat="42.51461" lon="-0.13324">
        <ele>868.3</ele>
        <time>2017-08-13T07:58:03Z</time>
      </trkpt>
      <trkpt lat="42.51464" lon="-0.13325">
        <ele>868.5</ele>
        <time>2017-08-13T07:58:04Z</time>
      </trkpt>
      <trkpt lat="42.51467" lon="-0.13326">
        <ele>868.6</ele>
        <time>2017-08-13T07:58:05Z</time>
      </trkpt>
      <trkpt lat="42.5147" lon="-0.13327">
        <ele>869</ele>
        <time>2017-08-13T07:58:06Z</time>
      </trkpt>
      <trkpt lat="42.51473" lon="-0.13327">
        <ele>869.4</ele>
        <time>2017-08-13T07:58:07Z</time>
      </trkpt>
      <trkpt lat="42.51476" lon="-0.13329">
        <ele>869.7</ele>
        <time>2017-08-13T07:58:08Z</time>
      </trkpt>
      <trkpt lat="42.51479" lon="-0.1333">
        <ele>869.9</ele>
        <time>2017-08-13T07:58:09Z</time>
      </trkpt>
      <trkpt lat="42.51482" lon="-0.13331">
        <ele>870.1</ele>
        <time>2017-08-13T07:58:10Z</time>
      </trkpt>
      <trkpt lat="42.51485" lon="-0.13332">
        <ele>870.2</ele>
        <time>2017-08-13T07:58:11Z</time>
      </trkpt>
      <trkpt lat="42.51487" lon="-0.13333">
        <ele>870.4</ele>
        <time>2017-08-13T07:58:12Z</time>
      </trkpt>
      <trkpt lat="42.5149" lon="-0.13334">
        <ele>870.5</ele>
        <time>2017-08-13T07:58:13Z</time>
      </trkpt>
      <trkpt lat="42.51493" lon="-0.13335">
        <ele>870.7</ele>
        <time>2017-08-13T07:58:14Z</time>
      </trkpt>
      <trkpt lat="42.51496" lon="-0.13336">
        <ele>870.9</ele>
        <time>2017-08-13T07:58:15Z</time>
      </trkpt>
      <trkpt lat="42.51499" lon="-0.13338">
        <ele>871.2</ele>
        <time>2017-08-13T07:58:16Z</time>
      </trkpt>
      <trkpt lat="42.51502" lon="-0.13339">
        <ele>871.5</ele>
        <time>2017-08-13T07:58:17Z</time>
      </trkpt>
      <trkpt lat="42.51504" lon="-0.1334">
        <ele>871.8</ele>
        <time>2017-08-13T07:58:18Z</time>
      </trkpt>
      <trkpt lat="42.51507" lon="-0.13342">
        <ele>872</ele>
        <time>2017-08-13T07:58:19Z</time>
      </trkpt>
      <trkpt lat="42.5151" lon="-0.13343">
        <ele>872.1</ele>
        <time>2017-08-13T07:58:20Z</time>
      </trkpt>
      <trkpt lat="42.51513" lon="-0.13344">
        <ele>872.2</ele>
        <time>2017-08-13T07:58:21Z</time>
      </trkpt>
      <trkpt lat="42.51516" lon="-0.13345">
        <ele>872.3</ele>
        <time>2017-08-13T07:58:22Z</time>
      </trkpt>
      <trkpt lat="42.51518" lon="-0.13347">
        <ele>872.4</ele>
        <time>2017-08-13T07:58:23Z</time>
      </trkpt>
      <trkpt lat="42.51524" lon="-0.13349">
        <ele>872.8</ele>
        <time>2017-08-13T07:58:25Z</time>
      </trkpt>
      <trkpt lat="42.51527" lon="-0.13351">
        <ele>873.1</ele>
        <time>2017-08-13T07:58:26Z</time>
      </trkpt>
      <trkpt lat="42.5153" lon="-0.13353">
        <ele>873.5</ele>
        <time>2017-08-13T07:58:27Z</time>
      </trkpt>
      <trkpt lat="42.51533" lon="-0.13354">
        <ele>873.9</ele>
        <time>2017-08-13T07:58:28Z</time>
      </trkpt>
      <trkpt lat="42.51538" lon="-0.13356">
        <ele>874.1</ele>
        <time>2017-08-13T07:58:30Z</time>
      </trkpt>
      <trkpt lat="42.5154" lon="-0.13358">
        <ele>874.3</ele>
        <time>2017-08-13T07:58:31Z</time>
      </trkpt>
      <trkpt lat="42.51543" lon="-0.13359">
        <ele>874.5</ele>
        <time>2017-08-13T07:58:32Z</time>
      </trkpt>
      <trkpt lat="42.51548" lon="-0.13362">
        <ele>874.8</ele>
        <time>2017-08-13T07:58:34Z</time>
      </trkpt>
      <trkpt lat="42.5155" lon="-0.13363">
        <ele>875</ele>
        <time>2017-08-13T07:58:35Z</time>
      </trkpt>
      <trkpt lat="42.51555" lon="-0.13364">
        <ele>875.6</ele>
        <time>2017-08-13T07:58:37Z</time>
      </trkpt>
      <trkpt lat="42.51559" lon="-0.13365">
        <ele>876.2</ele>
        <time>2017-08-13T07:58:39Z</time>
      </trkpt>
      <trkpt lat="42.51564" lon="-0.13366">
        <ele>876.5</ele>
        <time>2017-08-13T07:58:41Z</time>
      </trkpt>
      <trkpt lat="42.51567" lon="-0.13367">
        <ele>876.7</ele>
        <time>2017-08-13T07:58:42Z</time>
      </trkpt>
      <trkpt lat="42.51571" lon="-0.13369">
        <ele>876.9</ele>
        <time>2017-08-13T07:58:44Z</time>
      </trkpt>
      <trkpt lat="42.51576" lon="-0.13371">
        <ele>877.3</ele>
        <time>2017-08-13T07:58:46Z</time>
      </trkpt>
      <trkpt lat="42.51581" lon="-0.13373">
        <ele>878</ele>
        <time>2017-08-13T07:58:48Z</time>
      </trkpt>
      <trkpt lat="42.51586" lon="-0.13376">
        <ele>878.6</ele>
        <time>2017-08-13T07:58:50Z</time>
      </trkpt>
      <trkpt lat="42.5159" lon="-0.13379">
        <ele>879.1</ele>
        <time>2017-08-13T07:58:52Z</time>
      </trkpt>
      <trkpt lat="42.51595" lon="-0.13382">
        <ele>879.7</ele>
        <time>2017-08-13T07:58:54Z</time>
      </trkpt>
      <trkpt lat="42.51598" lon="-0.13383">
        <ele>880.1</ele>
        <time>2017-08-13T07:58:55Z</time>
      </trkpt>
      <trkpt lat="42.516" lon="-0.13385">
        <ele>880.5</ele>
        <time>2017-08-13T07:58:56Z</time>
      </trkpt>
      <trkpt lat="42.51603" lon="-0.13386">
        <ele>880.7</ele>
        <time>2017-08-13T07:58:57Z</time>
      </trkpt>
      <trkpt lat="42.51607" lon="-0.13389">
        <ele>881</ele>
        <time>2017-08-13T07:58:59Z</time>
      </trkpt>
      <trkpt lat="42.51612" lon="-0.13391">
        <ele>881.3</ele>
        <time>2017-08-13T07:59:01Z</time>
      </trkpt>
      <trkpt lat="42.51617" lon="-0.13394">
        <ele>881.8</ele>
        <time>2017-08-13T07:59:03Z</time>
      </trkpt>
      <trkpt lat="42.51622" lon="-0.13397">
        <ele>882.5</ele>
        <time>2017-08-13T07:59:05Z</time>
      </trkpt>
      <trkpt lat="42.51626" lon="-0.134">
        <ele>883</ele>
        <time>2017-08-13T07:59:07Z</time>
      </trkpt>
      <trkpt lat="42.51631" lon="-0.13402">
        <ele>883.3</ele>
        <time>2017-08-13T07:59:09Z</time>
      </trkpt>
      <trkpt lat="42.51636" lon="-0.13404">
        <ele>883.9</ele>
        <time>2017-08-13T07:59:11Z</time>
      </trkpt>
      <trkpt lat="42.5164" lon="-0.13407">
        <ele>884.6</ele>
        <time>2017-08-13T07:59:13Z</time>
      </trkpt>
      <trkpt lat="42.51645" lon="-0.13409">
        <ele>885.1</ele>
        <time>2017-08-13T07:59:15Z</time>
      </trkpt>
      <trkpt lat="42.5165" lon="-0.13411">
        <ele>885.4</ele>
        <time>2017-08-13T07:59:17Z</time>
      </trkpt>
      <trkpt lat="42.51653" lon="-0.13412">
        <ele>885.6</ele>
        <time>2017-08-13T07:59:18Z</time>
      </trkpt>
      <trkpt lat="42.51655" lon="-0.13414">
        <ele>885.9</ele>
        <time>2017-08-13T07:59:19Z</time>
      </trkpt>
      <trkpt lat="42.51658" lon="-0.13415">
        <ele>886.2</ele>
        <time>2017-08-13T07:59:20Z</time>
      </trkpt>
      <trkpt lat="42.51661" lon="-0.13416">
        <ele>886.6</ele>
        <time>2017-08-13T07:59:21Z</time>
      </trkpt>
      <trkpt lat="42.51663" lon="-0.13417">
        <ele>886.9</ele>
        <time>2017-08-13T07:59:22Z</time>
      </trkpt>
      <trkpt lat="42.51668" lon="-0.1342">
        <ele>887.1</ele>
        <time>2017-08-13T07:59:24Z</time>
      </trkpt>
      <trkpt lat="42.51672" lon="-0.13423">
        <ele>887.4</ele>
        <time>2017-08-13T07:59:26Z</time>
      </trkpt>
      <trkpt lat="42.51677" lon="-0.13425">
        <ele>887.7</ele>
        <time>2017-08-13T07:59:28Z</time>
      </trkpt>
      <trkpt lat="42.51681" lon="-0.13428">
        <ele>888.2</ele>
        <time>2017-08-13T07:59:30Z</time>
      </trkpt>
      <trkpt lat="42.51685" lon="-0.13431">
        <ele>888.8</ele>
        <time>2017-08-13T07:59:32Z</time>
      </trkpt>
      <trkpt lat="42.51689" lon="-0.13435">
        <ele>889.4</ele>
        <time>2017-08-13T07:59:34Z</time>
      </trkpt>
      <trkpt lat="42.51693" lon="-0.13438">
        <ele>889.7</ele>
        <time>2017-08-13T07:59:36Z</time>
      </trkpt>
      <trkpt lat="42.51697" lon="-0.13441">
        <ele>890.1</ele>
        <time>2017-08-13T07:59:38Z</time>
      </trkpt>
      <trkpt lat="42.51701" lon="-0.13444">
        <ele>890.7</ele>
        <time>2017-08-13T07:59:40Z</time>
      </trkpt>
      <trkpt lat="42.51705" lon="-0.13448">
        <ele>891.4</ele>
        <time>2017-08-13T07:59:42Z</time>
      </trkpt>
      <trkpt lat="42.51709" lon="-0.13452">
        <ele>891.7</ele>
        <time>2017-08-13T07:59:44Z</time>
      </trkpt>
      <trkpt lat="42.51713" lon="-0.13456">
        <ele>892</ele>
        <time>2017-08-13T07:59:46Z</time>
      </trkpt>
      <trkpt lat="42.51717" lon="-0.13459">
        <ele>892.2</ele>
        <time>2017-08-13T07:59:48Z</time>
      </trkpt>
      <trkpt lat="42.51721" lon="-0.13463">
        <ele>892.9</ele>
        <time>2017-08-13T07:59:50Z</time>
      </trkpt>
      <trkpt lat="42.51726" lon="-0.13467">
        <ele>893.5</ele>
        <time>2017-08-13T07:59:52Z</time>
      </trkpt>
      <trkpt lat="42.5173" lon="-0.1347">
        <ele>893.8</ele>
        <time>2017-08-13T07:59:54Z</time>
      </trkpt>
      <trkpt lat="42.51735" lon="-0.13472">
        <ele>894.2</ele>
        <time>2017-08-13T07:59:56Z</time>
      </trkpt>
      <trkpt lat="42.5174" lon="-0.13473">
        <ele>894.7</ele>
        <time>2017-08-13T07:59:58Z</time>
      </trkpt>
      <trkpt lat="42.51746" lon="-0.13474">
        <ele>895.5</ele>
        <time>2017-08-13T08:00:00Z</time>
      </trkpt>
      <trkpt lat="42.51748" lon="-0.13474">
        <ele>895.9</ele>
        <time>2017-08-13T08:00:01Z</time>
      </trkpt>
      <trkpt lat="42.51751" lon="-0.13474">
        <ele>896.1</ele>
        <time>2017-08-13T08:00:02Z</time>
      </trkpt>
      <trkpt lat="42.51754" lon="-0.13475">
        <ele>896.3</ele>
        <time>2017-08-13T08:00:03Z</time>
      </trkpt>
      <trkpt lat="42.51757" lon="-0.13475">
        <ele>896.5</ele>
        <time>2017-08-13T08:00:04Z</time>
      </trkpt>
      <trkpt lat="42.5176" lon="-0.13476">
        <ele>896.9</ele>
        <time>2017-08-13T08:00:05Z</time>
      </trkpt>
      <trkpt lat="42.51763" lon="-0.13477">
        <ele>897.3</ele>
        <time>2017-08-13T08:00:06Z</time>
      </trkpt>
      <trkpt lat="42.51767" lon="-0.13478">
        <ele>897.7</ele>
        <time>2017-08-13T08:00:07Z</time>
      </trkpt>
      <trkpt lat="42.5177" lon="-0.13478">
        <ele>897.9</ele>
        <time>2017-08-13T08:00:08Z</time>
      </trkpt>
      <trkpt lat="42.51773" lon="-0.13479">
        <ele>898.1</ele>
        <time>2017-08-13T08:00:09Z</time>
      </trkpt>
      <trkpt lat="42.51776" lon="-0.13479">
        <ele>898.2</ele>
        <time>2017-08-13T08:00:10Z</time>
      </trkpt>
      <trkpt lat="42.5178" lon="-0.13479">
        <ele>898.3</ele>
        <time>2017-08-13T08:00:11Z</time>
      </trkpt>
      <trkpt lat="42.51783" lon="-0.1348">
        <ele>898.5</ele>
        <time>2017-08-13T08:00:12Z</time>
      </trkpt>
      <trkpt lat="42.51787" lon="-0.1348">
        <ele>898.7</ele>
        <time>2017-08-13T08:00:13Z</time>
      </trkpt>
      <trkpt lat="42.5179" lon="-0.1348">
        <ele>898.8</ele>
        <time>2017-08-13T08:00:14Z</time>
      </trkpt>
      <trkpt lat="42.51793" lon="-0.1348">
        <ele>899</ele>
        <time>2017-08-13T08:00:15Z</time>
      </trkpt>
      <trkpt lat="42.51796" lon="-0.1348">
        <ele>899.3</ele>
        <time>2017-08-13T08:00:16Z</time>
      </trkpt>
      <trkpt lat="42.51799" lon="-0.13479">
        <ele>899.6</ele>
        <time>2017-08-13T08:00:17Z</time>
      </trkpt>
      <trkpt lat="42.51803" lon="-0.13478">
        <ele>899.9</ele>
        <time>2017-08-13T08:00:18Z</time>
      </trkpt>
      <trkpt lat="42.51806" lon="-0.13477">
        <ele>900.1</ele>
        <time>2017-08-13T08:00:19Z</time>
      </trkpt>
      <trkpt lat="42.51809" lon="-0.13477">
        <ele>900.2</ele>
        <time>2017-08-13T08:00:20Z</time>
      </trkpt>
      <trkpt lat="42.51812" lon="-0.13476">
        <ele>900.3</ele>
        <time>2017-08-13T08:00:21Z</time>
      </trkpt>
      <trkpt lat="42.51815" lon="-0.13475">
        <ele>900.4</ele>
        <time>2017-08-13T08:00:22Z</time>
      </trkpt>
      <trkpt lat="42.51819" lon="-0.13475">
        <ele>900.5</ele>
        <time>2017-08-13T08:00:23Z</time>
      </trkpt>
      <trkpt lat="42.51822" lon="-0.13475">
        <ele>900.7</ele>
        <time>2017-08-13T08:00:24Z</time>
      </trkpt>
      <trkpt lat="42.51825" lon="-0.13474">
        <ele>900.8</ele>
        <time>2017-08-13T08:00:25Z</time>
      </trkpt>
      <trkpt lat="42.51829" lon="-0.13474">
        <ele>901</ele>
        <time>2017-08-13T08:00:26Z</time>
      </trkpt>
      <trkpt lat="42.51832" lon="-0.13474">
        <ele>901.1</ele>
        <time>2017-08-13T08:00:27Z</time>
      </trkpt>
      <trkpt lat="42.51835" lon="-0.13473">
        <ele>901.4</ele>
        <time>2017-08-13T08:00:28Z</time>
      </trkpt>
      <trkpt lat="42.51838" lon="-0.13473">
        <ele>901.7</ele>
        <time>2017-08-13T08:00:29Z</time>
      </trkpt>
      <trkpt lat="42.51841" lon="-0.13473">
        <ele>902</ele>
        <time>2017-08-13T08:00:30Z</time>
      </trkpt>
      <trkpt lat="42.51845" lon="-0.13473">
        <ele>902.3</ele>
        <time>2017-08-13T08:00:31Z</time>
      </trkpt>
      <trkpt lat="42.51848" lon="-0.13473">
        <ele>902.5</ele>
        <time>2017-08-13T08:00:32Z</time>
      </trkpt>
      <trkpt lat="42.51851" lon="-0.13473">
        <ele>902.6</ele>
        <time>2017-08-13T08:00:33Z</time>
      </trkpt>
      <trkpt lat="42.51854" lon="-0.13474">
        <ele>902.7</ele>
        <time>2017-08-13T08:00:34Z</time>
      </trkpt>
      <trkpt lat="42.51857" lon="-0.13474">
        <ele>902.7</ele>
        <time>2017-08-13T08:00:35Z</time>
      </trkpt>
      <trkpt lat="42.5186" lon="-0.13475">
        <ele>902.8</ele>
        <time>2017-08-13T08:00:36Z</time>
      </trkpt>
      <trkpt lat="42.51864" lon="-0.13475">
        <ele>902.9</ele>
        <time>2017-08-13T08:00:37Z</time>
      </trkpt>
      <trkpt lat="42.51867" lon="-0.13476">
        <ele>903</ele>
        <time>2017-08-13T08:00:38Z</time>
      </trkpt>
      <trkpt lat="42.5187" lon="-0.13476">
        <ele>903.1</ele>
        <time>2017-08-13T08:00:39Z</time>
      </trkpt>
      <trkpt lat="42.51872" lon="-0.13476">
        <ele>903.2</ele>
        <time>2017-08-13T08:00:40Z</time>
      </trkpt>
      <trkpt lat="42.51875" lon="-0.13476">
        <ele>903.3</ele>
        <time>2017-08-13T08:00:41Z</time>
      </trkpt>
      <trkpt lat="42.51881" lon="-0.13476">
        <ele>903.7</ele>
        <time>2017-08-13T08:00:43Z</time>
      </trkpt>
      <trkpt lat="42.51883" lon="-0.13476">
        <ele>904</ele>
        <time>2017-08-13T08:00:44Z</time>
      </trkpt>
      <trkpt lat="42.51886" lon="-0.13477">
        <ele>904.3</ele>
        <time>2017-08-13T08:00:45Z</time>
      </trkpt>
      <trkpt lat="42.51889" lon="-0.13477">
        <ele>904.6</ele>
        <time>2017-08-13T08:00:46Z</time>
      </trkpt>
      <trkpt lat="42.51892" lon="-0.13478">
        <ele>904.9</ele>
        <time>2017-08-13T08:00:47Z</time>
      </trkpt>
      <trkpt lat="42.51895" lon="-0.13478">
        <ele>905</ele>
        <time>2017-08-13T08:00:48Z</time>
      </trkpt>
      <trkpt lat="42.51898" lon="-0.13479">
        <ele>905.1</ele>
        <time>2017-08-13T08:00:49Z</time>
      </trkpt>
      <trkpt lat="42.51903" lon="-0.1348">
        <ele>905.3</ele>
        <time>2017-08-13T08:00:51Z</time>
      </trkpt>
      <trkpt lat="42.51908" lon="-0.13482">
        <ele>905.5</ele>
        <time>2017-08-13T08:00:53Z</time>
      </trkpt>
      <trkpt lat="42.51912" lon="-0.13485">
        <ele>905.9</ele>
        <time>2017-08-13T08:00:55Z</time>
      </trkpt>
      <trkpt lat="42.51916" lon="-0.13488">
        <ele>906.5</ele>
        <time>2017-08-13T08:00:57Z</time>
      </trkpt>
      <trkpt lat="42.51921" lon="-0.13491">
        <ele>906.9</ele>
        <time>2017-08-13T08:00:59Z</time>
      </trkpt>
      <trkpt lat="42.51925" lon="-0.13493">
        <ele>907.2</ele>
        <time>2017-08-13T08:01:01Z</time>
      </trkpt>
      <trkpt lat="42.51928" lon="-0.13494">
        <ele>907.4</ele>
        <time>2017-08-13T08:01:02Z</time>
      </trkpt>
      <trkpt lat="42.51933" lon="-0.13496">
        <ele>907.8</ele>
        <time>2017-08-13T08:01:04Z</time>
      </trkpt>
      <trkpt lat="42.51936" lon="-0.13496">
        <ele>908.2</ele>
        <time>2017-08-13T08:01:05Z</time>
      </trkpt>
      <trkpt lat="42.51939" lon="-0.13497">
        <ele>908.5</ele>
        <time>2017-08-13T08:01:06Z</time>
      </trkpt>
      <trkpt lat="42.51941" lon="-0.13497">
        <ele>909</ele>
        <time>2017-08-13T08:01:07Z</time>
      </trkpt>
      <trkpt lat="42.51944" lon="-0.13497">
        <ele>909.3</ele>
        <time>2017-08-13T08:01:08Z</time>
      </trkpt>
      <trkpt lat="42.51949" lon="-0.13496">
        <ele>909.6</ele>
        <time>2017-08-13T08:01:10Z</time>
      </trkpt>
      <trkpt lat="42.51952" lon="-0.13496">
        <ele>909.8</ele>
        <time>2017-08-13T08:01:11Z</time>
      </trkpt>
      <trkpt lat="42.51955" lon="-0.13495">
        <ele>910.2</ele>
        <time>2017-08-13T08:01:12Z</time>
      </trkpt>
      <trkpt lat="42.51958" lon="-0.13494">
        <ele>910.6</ele>
        <time>2017-08-13T08:01:13Z</time>
      </trkpt>
      <trkpt lat="42.5196" lon="-0.13493">
        <ele>911.1</ele>
        <time>2017-08-13T08:01:14Z</time>
      </trkpt>
      <trkpt lat="42.51963" lon="-0.13491">
        <ele>911.4</ele>
        <time>2017-08-13T08:01:15Z</time>
      </trkpt>
      <trkpt lat="42.51966" lon="-0.13491">
        <ele>911.6</ele>
        <time>2017-08-13T08:01:16Z</time>
      </trkpt>
      <trkpt lat="42.51969" lon="-0.1349">
        <ele>911.8</ele>
        <time>2017-08-13T08:01:17Z</time>
      </trkpt>
      <trkpt lat="42.51971" lon="-0.13489">
        <ele>911.9</ele>
        <time>2017-08-13T08:01:18Z</time>
      </trkpt>
      <trkpt lat="42.51974" lon="-0.13489">
        <ele>912.1</ele>
        <time>2017-08-13T08:01:19Z</time>
      </trkpt>
      <trkpt lat="42.51977" lon="-0.13488">
        <ele>912.3</ele>
        <time>2017-08-13T08:01:20Z</time>
      </trkpt>
      <trkpt lat="42.5198" lon="-0.13488">
        <ele>912.6</ele>
        <time>2017-08-13T08:01:21Z</time>
      </trkpt>
      <trkpt lat="42.51984" lon="-0.13486">
        <ele>913.1</ele>
        <time>2017-08-13T08:01:23Z</time>
      </trkpt>
      <trkpt lat="42.51989" lon="-0.13485">
        <ele>913.4</ele>
        <time>2017-08-13T08:01:25Z</time>
      </trkpt>
      <trkpt lat="42.51994" lon="-0.13487">
        <ele>913.6</ele>
        <time>2017-08-13T08:01:27Z</time>
      </trkpt>
      <trkpt lat="42.51996" lon="-0.13489">
        <ele>913.7</ele>
        <time>2017-08-13T08:01:28Z</time>
      </trkpt>
      <trkpt lat="42.51999" lon="-0.13491">
        <ele>913.8</ele>
        <time>2017-08-13T08:01:29Z</time>
      </trkpt>
      <trkpt lat="42.52003" lon="-0.13495">
        <ele>914.2</ele>
        <time>2017-08-13T08:01:31Z</time>
      </trkpt>
      <trkpt lat="42.52005" lon="-0.13497">
        <ele>914.5</ele>
        <time>2017-08-13T08:01:32Z</time>
      </trkpt>
      <trkpt lat="42.52007" lon="-0.135">
        <ele>914.8</ele>
        <time>2017-08-13T08:01:33Z</time>
      </trkpt>
      <trkpt lat="42.52009" lon="-0.13502">
        <ele>915.2</ele>
        <time>2017-08-13T08:01:34Z</time>
      </trkpt>
      <trkpt lat="42.52011" lon="-0.13505">
        <ele>915.6</ele>
        <time>2017-08-13T08:01:35Z</time>
      </trkpt>
      <trkpt lat="42.52013" lon="-0.13508">
        <ele>915.8</ele>
        <time>2017-08-13T08:01:36Z</time>
      </trkpt>
      <trkpt lat="42.52017" lon="-0.13513">
        <ele>916.1</ele>
        <time>2017-08-13T08:01:38Z</time>
      </trkpt>
      <trkpt lat="42.52019" lon="-0.13515">
        <ele>916.2</ele>
        <time>2017-08-13T08:01:39Z</time>
      </trkpt>
      <trkpt lat="42.52023" lon="-0.1352">
        <ele>916.6</ele>
        <time>2017-08-13T08:01:41Z</time>
      </trkpt>
      <trkpt lat="42.52027" lon="-0.13523">
        <ele>917.2</ele>
        <time>2017-08-13T08:01:43Z</time>
      </trkpt>
      <trkpt lat="42.52029" lon="-0.13526">
        <ele>917.6</ele>
        <time>2017-08-13T08:01:44Z</time>
      </trkpt>
      <trkpt lat="42.52031" lon="-0.13528">
        <ele>917.9</ele>
        <time>2017-08-13T08:01:45Z</time>
      </trkpt>
      <trkpt lat="42.52034" lon="-0.1353">
        <ele>918.1</ele>
        <time>2017-08-13T08:01:46Z</time>
      </trkpt>
      <trkpt lat="42.52037" lon="-0.13532">
        <ele>918.3</ele>
        <time>2017-08-13T08:01:47Z</time>
      </trkpt>
      <trkpt lat="42.52039" lon="-0.13534">
        <ele>918.5</ele>
        <time>2017-08-13T08:01:48Z</time>
      </trkpt>
      <trkpt lat="42.52042" lon="-0.13536">
        <ele>918.7</ele>
        <time>2017-08-13T08:01:49Z</time>
      </trkpt>
      <trkpt lat="42.52045" lon="-0.13539">
        <ele>919.1</ele>
        <time>2017-08-13T08:01:50Z</time>
      </trkpt>
      <trkpt lat="42.52048" lon="-0.13542">
        <ele>919.6</ele>
        <time>2017-08-13T08:01:51Z</time>
      </trkpt>
      <trkpt lat="42.52051" lon="-0.13544">
        <ele>919.8</ele>
        <time>2017-08-13T08:01:52Z</time>
      </trkpt>
      <trkpt lat="42.52053" lon="-0.13546">
        <ele>919.9</ele>
        <time>2017-08-13T08:01:53Z</time>
      </trkpt>
      <trkpt lat="42.52056" lon="-0.13548">
        <ele>920.1</ele>
        <time>2017-08-13T08:01:54Z</time>
      </trkpt>
      <trkpt lat="42.52059" lon="-0.1355">
        <ele>920.2</ele>
        <time>2017-08-13T08:01:55Z</time>
      </trkpt>
      <trkpt lat="42.52062" lon="-0.13552">
        <ele>920.4</ele>
        <time>2017-08-13T08:01:56Z</time>
      </trkpt>
      <trkpt lat="42.52064" lon="-0.13554">
        <ele>920.5</ele>
        <time>2017-08-13T08:01:57Z</time>
      </trkpt>
      <trkpt lat="42.52067" lon="-0.13556">
        <ele>920.6</ele>
        <time>2017-08-13T08:01:58Z</time>
      </trkpt>
      <trkpt lat="42.5207" lon="-0.13558">
        <ele>920.7</ele>
        <time>2017-08-13T08:01:59Z</time>
      </trkpt>
      <trkpt lat="42.52072" lon="-0.13559">
        <ele>920.8</ele>
        <time>2017-08-13T08:02:00Z</time>
      </trkpt>
      <trkpt lat="42.52075" lon="-0.13561">
        <ele>920.9</ele>
        <time>2017-08-13T08:02:01Z</time>
      </trkpt>
      <trkpt lat="42.52078" lon="-0.13564">
        <ele>921.2</ele>
        <time>2017-08-13T08:02:02Z</time>
      </trkpt>
      <trkpt lat="42.52081" lon="-0.13567">
        <ele>921.5</ele>
        <time>2017-08-13T08:02:03Z</time>
      </trkpt>
      <trkpt lat="42.52084" lon="-0.13569">
        <ele>921.8</ele>
        <time>2017-08-13T08:02:04Z</time>
      </trkpt>
      <trkpt lat="42.52087" lon="-0.13573">
        <ele>922</ele>
        <time>2017-08-13T08:02:05Z</time>
      </trkpt>
      <trkpt lat="42.5209" lon="-0.13575">
        <ele>922.1</ele>
        <time>2017-08-13T08:02:06Z</time>
      </trkpt>
      <trkpt lat="42.52092" lon="-0.13577">
        <ele>922.2</ele>
        <time>2017-08-13T08:02:07Z</time>
      </trkpt>
      <trkpt lat="42.52095" lon="-0.1358">
        <ele>922.3</ele>
        <time>2017-08-13T08:02:08Z</time>
      </trkpt>
      <trkpt lat="42.52098" lon="-0.13582">
        <ele>922.4</ele>
        <time>2017-08-13T08:02:09Z</time>
      </trkpt>
      <trkpt lat="42.52101" lon="-0.13584">
        <ele>922.5</ele>
        <time>2017-08-13T08:02:10Z</time>
      </trkpt>
      <trkpt lat="42.52104" lon="-0.13587">
        <ele>922.6</ele>
        <time>2017-08-13T08:02:11Z</time>
      </trkpt>
      <trkpt lat="42.52107" lon="-0.13589">
        <ele>922.6</ele>
        <time>2017-08-13T08:02:12Z</time>
      </trkpt>
      <trkpt lat="42.5211" lon="-0.13592">
        <ele>922.7</ele>
        <time>2017-08-13T08:02:13Z</time>
      </trkpt>
      <trkpt lat="42.52113" lon="-0.13594">
        <ele>922.8</ele>
        <time>2017-08-13T08:02:14Z</time>
      </trkpt>
      <trkpt lat="42.52116" lon="-0.13596">
        <ele>923</ele>
        <time>2017-08-13T08:02:15Z</time>
      </trkpt>
      <trkpt lat="42.52119" lon="-0.13598">
        <ele>923.1</ele>
        <time>2017-08-13T08:02:16Z</time>
      </trkpt>
      <trkpt lat="42.52122" lon="-0.13601">
        <ele>923.3</ele>
        <time>2017-08-13T08:02:17Z</time>
      </trkpt>
      <trkpt lat="42.52125" lon="-0.13602">
        <ele>923.6</ele>
        <time>2017-08-13T08:02:18Z</time>
      </trkpt>
      <trkpt lat="42.52128" lon="-0.13604">
        <ele>923.9</ele>
        <time>2017-08-13T08:02:19Z</time>
      </trkpt>
      <trkpt lat="42.52131" lon="-0.13607">
        <ele>924.2</ele>
        <time>2017-08-13T08:02:20Z</time>
      </trkpt>
      <trkpt lat="42.52134" lon="-0.13609">
        <ele>924.2</ele>
        <time>2017-08-13T08:02:21Z</time>
      </trkpt>
      <trkpt lat="42.52137" lon="-0.13611">
        <ele>924.3</ele>
        <time>2017-08-13T08:02:22Z</time>
      </trkpt>
      <trkpt lat="42.5214" lon="-0.13612">
        <ele>924.4</ele>
        <time>2017-08-13T08:02:23Z</time>
      </trkpt>
      <trkpt lat="42.52143" lon="-0.13614">
        <ele>924.5</ele>
        <time>2017-08-13T08:02:24Z</time>
      </trkpt>
      <trkpt lat="42.52146" lon="-0.13617">
        <ele>924.5</ele>
        <time>2017-08-13T08:02:25Z</time>
      </trkpt>
      <trkpt lat="42.52149" lon="-0.1362">
        <ele>924.6</ele>
        <time>2017-08-13T08:02:26Z</time>
      </trkpt>
      <trkpt lat="42.52151" lon="-0.13623">
        <ele>924.7</ele>
        <time>2017-08-13T08:02:27Z</time>
      </trkpt>
      <trkpt lat="42.52153" lon="-0.13626">
        <ele>924.8</ele>
        <time>2017-08-13T08:02:28Z</time>
      </trkpt>
      <trkpt lat="42.52155" lon="-0.13629">
        <ele>924.9</ele>
        <time>2017-08-13T08:02:29Z</time>
      </trkpt>
      <trkpt lat="42.52157" lon="-0.13633">
        <ele>925</ele>
        <time>2017-08-13T08:02:30Z</time>
      </trkpt>
      <trkpt lat="42.5216" lon="-0.13637">
        <ele>925</ele>
        <time>2017-08-13T08:02:31Z</time>
      </trkpt>
      <trkpt lat="42.52161" lon="-0.1364">
        <ele>925.1</ele>
        <time>2017-08-13T08:02:32Z</time>
      </trkpt>
      <trkpt lat="42.52163" lon="-0.13644">
        <ele>925.3</ele>
        <time>2017-08-13T08:02:33Z</time>
      </trkpt>
      <trkpt lat="42.52165" lon="-0.13648">
        <ele>925.4</ele>
        <time>2017-08-13T08:02:34Z</time>
      </trkpt>
      <trkpt lat="42.52167" lon="-0.13652">
        <ele>925.7</ele>
        <time>2017-08-13T08:02:35Z</time>
      </trkpt>
      <trkpt lat="42.52168" lon="-0.13656">
        <ele>926</ele>
        <time>2017-08-13T08:02:36Z</time>
      </trkpt>
      <trkpt lat="42.52169" lon="-0.1366">
        <ele>926.3</ele>
        <time>2017-08-13T08:02:37Z</time>
      </trkpt>
      <trkpt lat="42.5217" lon="-0.13664">
        <ele>926.6</ele>
        <time>2017-08-13T08:02:38Z</time>
      </trkpt>
      <trkpt lat="42.5217" lon="-0.13668">
        <ele>926.7</ele>
        <time>2017-08-13T08:02:39Z</time>
      </trkpt>
      <trkpt lat="42.52171" lon="-0.13672">
        <ele>926.8</ele>
        <time>2017-08-13T08:02:40Z</time>
      </trkpt>
      <trkpt lat="42.52171" lon="-0.13676">
        <ele>927</ele>
        <time>2017-08-13T08:02:41Z</time>
      </trkpt>
      <trkpt lat="42.52173" lon="-0.1368">
        <ele>927.1</ele>
        <time>2017-08-13T08:02:42Z</time>
      </trkpt>
      <trkpt lat="42.52175" lon="-0.13683">
        <ele>927.3</ele>
        <time>2017-08-13T08:02:43Z</time>
      </trkpt>
      <trkpt lat="42.52177" lon="-0.13686">
        <ele>927.5</ele>
        <time>2017-08-13T08:02:44Z</time>
      </trkpt>
      <trkpt lat="42.52181" lon="-0.13687">
        <ele>928</ele>
        <time>2017-08-13T08:02:45Z</time>
      </trkpt>
      <trkpt lat="42.52184" lon="-0.13687">
        <ele>928.4</ele>
        <time>2017-08-13T08:02:46Z</time>
      </trkpt>
      <trkpt lat="42.52188" lon="-0.13685">
        <ele>928.5</ele>
        <time>2017-08-13T08:02:47Z</time>
      </trkpt>
      <trkpt lat="42.52192" lon="-0.13683">
        <ele>928.7</ele>
        <time>2017-08-13T08:02:48Z</time>
      </trkpt>
      <trkpt lat="42.52195" lon="-0.13681">
        <ele>928.8</ele>
        <time>2017-08-13T08:02:49Z</time>
      </trkpt>
      <trkpt lat="42.52199" lon="-0.1368">
        <ele>928.8</ele>
        <time>2017-08-13T08:02:50Z</time>
      </trkpt>
      <trkpt lat="42.52203" lon="-0.1368">
        <ele>928.8</ele>
        <time>2017-08-13T08:02:51Z</time>
      </trkpt>
      <trkpt lat="42.52208" lon="-0.1368">
        <ele>928.9</ele>
        <time>2017-08-13T08:02:52Z</time>
      </trkpt>
      <trkpt lat="42.52213" lon="-0.13684">
        <ele>928.9</ele>
        <time>2017-08-13T08:02:53Z</time>
      </trkpt>
      <trkpt lat="42.52217" lon="-0.13686">
        <ele>928.9</ele>
        <time>2017-08-13T08:02:54Z</time>
      </trkpt>
      <trkpt lat="42.52222" lon="-0.13689">
        <ele>928.9</ele>
        <time>2017-08-13T08:02:55Z</time>
      </trkpt>
      <trkpt lat="42.52227" lon="-0.13691">
        <ele>928.9</ele>
        <time>2017-08-13T08:02:56Z</time>
      </trkpt>
      <trkpt lat="42.52232" lon="-0.13694">
        <ele>929</ele>
        <time>2017-08-13T08:02:57Z</time>
      </trkpt>
      <trkpt lat="42.52237" lon="-0.13697">
        <ele>929</ele>
        <time>2017-08-13T08:02:58Z</time>
      </trkpt>
      <trkpt lat="42.52241" lon="-0.137">
        <ele>929</ele>
        <time>2017-08-13T08:02:59Z</time>
      </trkpt>
      <trkpt lat="42.52245" lon="-0.13705">
        <ele>929</ele>
        <time>2017-08-13T08:03:00Z</time>
      </trkpt>
      <trkpt lat="42.5225" lon="-0.1371">
        <ele>929</ele>
        <time>2017-08-13T08:03:01Z</time>
      </trkpt>
      <trkpt lat="42.52256" lon="-0.13713">
        <ele>928.9</ele>
        <time>2017-08-13T08:03:02Z</time>
      </trkpt>
      <trkpt lat="42.52262" lon="-0.13717">
        <ele>928.9</ele>
        <time>2017-08-13T08:03:03Z</time>
      </trkpt>
      <trkpt lat="42.52265" lon="-0.13724">
        <ele>928.9</ele>
        <time>2017-08-13T08:03:04Z</time>
      </trkpt>
      <trkpt lat="42.52269" lon="-0.13731">
        <ele>928.9</ele>
        <time>2017-08-13T08:03:05Z</time>
      </trkpt>
      <trkpt lat="42.52273" lon="-0.13737">
        <ele>928.9</ele>
        <time>2017-08-13T08:03:06Z</time>
      </trkpt>
      <trkpt lat="42.52274" lon="-0.13743">
        <ele>928.8</ele>
        <time>2017-08-13T08:03:07Z</time>
      </trkpt>
      <trkpt lat="42.52276" lon="-0.1375">
        <ele>928.8</ele>
        <time>2017-08-13T08:03:08Z</time>
      </trkpt>
      <trkpt lat="42.52279" lon="-0.13758">
        <ele>928.7</ele>
        <time>2017-08-13T08:03:09Z</time>
      </trkpt>
      <trkpt lat="42.52281" lon="-0.13765">
        <ele>928.6</ele>
        <time>2017-08-13T08:03:10Z</time>
      </trkpt>
      <trkpt lat="42.52283" lon="-0.13774">
        <ele>928.5</ele>
        <time>2017-08-13T08:03:11Z</time>
      </trkpt>
      <trkpt lat="42.52285" lon="-0.13782">
        <ele>928.4</ele>
        <time>2017-08-13T08:03:12Z</time>
      </trkpt>
      <trkpt lat="42.52286" lon="-0.13791">
        <ele>928.3</ele>
        <time>2017-08-13T08:03:13Z</time>
      </trkpt>
      <trkpt lat="42.52289" lon="-0.13798">
        <ele>928.1</ele>
        <time>2017-08-13T08:03:14Z</time>
      </trkpt>
      <trkpt lat="42.52291" lon="-0.13805">
        <ele>927.8</ele>
        <time>2017-08-13T08:03:15Z</time>
      </trkpt>
      <trkpt lat="42.52296" lon="-0.1381">
        <ele>927.5</ele>
        <time>2017-08-13T08:03:16Z</time>
      </trkpt>
      <trkpt lat="42.52301" lon="-0.13814">
        <ele>927.2</ele>
        <time>2017-08-13T08:03:17Z</time>
      </trkpt>
      <trkpt lat="42.52308" lon="-0.13814">
        <ele>926.9</ele>
        <time>2017-08-13T08:03:18Z</time>
      </trkpt>
      <trkpt lat="42.52314" lon="-0.13812">
        <ele>926.6</ele>
        <time>2017-08-13T08:03:19Z</time>
      </trkpt>
      <trkpt lat="42.52322" lon="-0.13809">
        <ele>926.2</ele>
        <time>2017-08-13T08:03:20Z</time>
      </trkpt>
      <trkpt lat="42.5233" lon="-0.13806">
        <ele>925.8</ele>
        <time>2017-08-13T08:03:21Z</time>
      </trkpt>
      <trkpt lat="42.52338" lon="-0.13803">
        <ele>925.3</ele>
        <time>2017-08-13T08:03:22Z</time>
      </trkpt>
      <trkpt lat="42.52343" lon="-0.138">
        <ele>925.2</ele>
        <time>2017-08-13T08:03:23Z</time>
      </trkpt>
      <trkpt lat="42.52349" lon="-0.13797">
        <ele>925.1</ele>
        <time>2017-08-13T08:03:24Z</time>
      </trkpt>
      <trkpt lat="42.52356" lon="-0.13796">
        <ele>924.9</ele>
        <time>2017-08-13T08:03:25Z</time>
      </trkpt>
      <trkpt lat="42.52364" lon="-0.13796">
        <ele>924.7</ele>
        <time>2017-08-13T08:03:26Z</time>
      </trkpt>
      <trkpt lat="42.5237" lon="-0.13796">
        <ele>924.6</ele>
        <time>2017-08-13T08:03:27Z</time>
      </trkpt>
      <trkpt lat="42.52377" lon="-0.13798">
        <ele>924.4</ele>
        <time>2017-08-13T08:03:28Z</time>
      </trkpt>
      <trkpt lat="42.52383" lon="-0.13803">
        <ele>924.1</ele>
        <time>2017-08-13T08:03:29Z</time>
      </trkpt>
      <trkpt lat="42.52386" lon="-0.1381">
        <ele>923.9</ele>
        <time>2017-08-13T08:03:30Z</time>
      </trkpt>
      <trkpt lat="42.52388" lon="-0.13816">
        <ele>923.8</ele>
        <time>2017-08-13T08:03:31Z</time>
      </trkpt>
      <trkpt lat="42.5239" lon="-0.13822">
        <ele>923.7</ele>
        <time>2017-08-13T08:03:32Z</time>
      </trkpt>
      <trkpt lat="42.52391" lon="-0.13827">
        <ele>923.5</ele>
        <time>2017-08-13T08:03:33Z</time>
      </trkpt>
      <trkpt lat="42.52393" lon="-0.13833">
        <ele>923.4</ele>
        <time>2017-08-13T08:03:34Z</time>
      </trkpt>
      <trkpt lat="42.52395" lon="-0.13837">
        <ele>923.3</ele>
        <time>2017-08-13T08:03:35Z</time>
      </trkpt>
      <trkpt lat="42.52396" lon="-0.13842">
        <ele>923.4</ele>
        <time>2017-08-13T08:03:36Z</time>
      </trkpt>
      <trkpt lat="42.52399" lon="-0.13846">
        <ele>923.4</ele>
        <time>2017-08-13T08:03:37Z</time>
      </trkpt>
      <trkpt lat="42.52401" lon="-0.1385">
        <ele>923.5</ele>
        <time>2017-08-13T08:03:38Z</time>
      </trkpt>
      <trkpt lat="42.52403" lon="-0.13853">
        <ele>923.5</ele>
        <time>2017-08-13T08:03:39Z</time>
      </trkpt>
      <trkpt lat="42.52405" lon="-0.13857">
        <ele>923.6</ele>
        <time>2017-08-13T08:03:40Z</time>
      </trkpt>
      <trkpt lat="42.52409" lon="-0.13862">
        <ele>923.7</ele>
        <time>2017-08-13T08:03:42Z</time>
      </trkpt>
      <trkpt lat="42.52412" lon="-0.13867">
        <ele>924</ele>
        <time>2017-08-13T08:03:44Z</time>
      </trkpt>
      <trkpt lat="42.52414" lon="-0.1387">
        <ele>924.3</ele>
        <time>2017-08-13T08:03:45Z</time>
      </trkpt>
      <trkpt lat="42.52419" lon="-0.13874">
        <ele>925</ele>
        <time>2017-08-13T08:03:47Z</time>
      </trkpt>
      <trkpt lat="42.52421" lon="-0.13877">
        <ele>925.2</ele>
        <time>2017-08-13T08:03:48Z</time>
      </trkpt>
      <trkpt lat="42.52424" lon="-0.13879">
        <ele>925.4</ele>
        <time>2017-08-13T08:03:49Z</time>
      </trkpt>
      <trkpt lat="42.52426" lon="-0.13881">
        <ele>925.6</ele>
        <time>2017-08-13T08:03:50Z</time>
      </trkpt>
      <trkpt lat="42.52429" lon="-0.13883">
        <ele>925.7</ele>
        <time>2017-08-13T08:03:51Z</time>
      </trkpt>
      <trkpt lat="42.52432" lon="-0.13884">
        <ele>926.1</ele>
        <time>2017-08-13T08:03:52Z</time>
      </trkpt>
      <trkpt lat="42.52434" lon="-0.13885">
        <ele>926.4</ele>
        <time>2017-08-13T08:03:53Z</time>
      </trkpt>
      <trkpt lat="42.52437" lon="-0.13885">
        <ele>926.8</ele>
        <time>2017-08-13T08:03:54Z</time>
      </trkpt>
      <trkpt lat="42.5244" lon="-0.13884">
        <ele>927.2</ele>
        <time>2017-08-13T08:03:55Z</time>
      </trkpt>
      <trkpt lat="42.52443" lon="-0.13883">
        <ele>927.5</ele>
        <time>2017-08-13T08:03:56Z</time>
      </trkpt>
      <trkpt lat="42.52446" lon="-0.13881">
        <ele>927.7</ele>
        <time>2017-08-13T08:03:57Z</time>
      </trkpt>
      <trkpt lat="42.52448" lon="-0.1388">
        <ele>927.8</ele>
        <time>2017-08-13T08:03:58Z</time>
      </trkpt>
      <trkpt lat="42.52451" lon="-0.13878">
        <ele>928</ele>
        <time>2017-08-13T08:03:59Z</time>
      </trkpt>
      <trkpt lat="42.52454" lon="-0.13876">
        <ele>928.1</ele>
        <time>2017-08-13T08:04:00Z</time>
      </trkpt>
      <trkpt lat="42.52456" lon="-0.13875">
        <ele>928.2</ele>
        <time>2017-08-13T08:04:01Z</time>
      </trkpt>
      <trkpt lat="42.52459" lon="-0.13874">
        <ele>928.4</ele>
        <time>2017-08-13T08:04:02Z</time>
      </trkpt>
      <trkpt lat="42.52462" lon="-0.13874">
        <ele>928.7</ele>
        <time>2017-08-13T08:04:03Z</time>
      </trkpt>
      <trkpt lat="42.52465" lon="-0.13874">
        <ele>929</ele>
        <time>2017-08-13T08:04:04Z</time>
      </trkpt>
      <trkpt lat="42.52468" lon="-0.13876">
        <ele>929.3</ele>
        <time>2017-08-13T08:04:05Z</time>
      </trkpt>
      <trkpt lat="42.52471" lon="-0.13878">
        <ele>929.6</ele>
        <time>2017-08-13T08:04:06Z</time>
      </trkpt>
      <trkpt lat="42.52473" lon="-0.1388">
        <ele>929.7</ele>
        <time>2017-08-13T08:04:07Z</time>
      </trkpt>
      <trkpt lat="42.52476" lon="-0.13882">
        <ele>929.9</ele>
        <time>2017-08-13T08:04:08Z</time>
      </trkpt>
      <trkpt lat="42.52478" lon="-0.13884">
        <ele>930</ele>
        <time>2017-08-13T08:04:09Z</time>
      </trkpt>
      <trkpt lat="42.52481" lon="-0.13885">
        <ele>930.1</ele>
        <time>2017-08-13T08:04:10Z</time>
      </trkpt>
      <trkpt lat="42.52483" lon="-0.13887">
        <ele>930.2</ele>
        <time>2017-08-13T08:04:11Z</time>
      </trkpt>
      <trkpt lat="42.52486" lon="-0.13889">
        <ele>930.3</ele>
        <time>2017-08-13T08:04:12Z</time>
      </trkpt>
      <trkpt lat="42.52488" lon="-0.13891">
        <ele>930.5</ele>
        <time>2017-08-13T08:04:13Z</time>
      </trkpt>
      <trkpt lat="42.5249" lon="-0.13893">
        <ele>930.8</ele>
        <time>2017-08-13T08:04:14Z</time>
      </trkpt>
      <trkpt lat="42.52493" lon="-0.13895">
        <ele>931.1</ele>
        <time>2017-08-13T08:04:15Z</time>
      </trkpt>
      <trkpt lat="42.52495" lon="-0.13897">
        <ele>931.5</ele>
        <time>2017-08-13T08:04:16Z</time>
      </trkpt>
      <trkpt lat="42.52498" lon="-0.13899">
        <ele>931.9</ele>
        <time>2017-08-13T08:04:17Z</time>
      </trkpt>
      <trkpt lat="42.525" lon="-0.13901">
        <ele>932.1</ele>
        <time>2017-08-13T08:04:18Z</time>
      </trkpt>
      <trkpt lat="42.52503" lon="-0.13902">
        <ele>932.3</ele>
        <time>2017-08-13T08:04:19Z</time>
      </trkpt>
      <trkpt lat="42.52506" lon="-0.13903">
        <ele>932.5</ele>
        <time>2017-08-13T08:04:20Z</time>
      </trkpt>
      <trkpt lat="42.52508" lon="-0.13903">
        <ele>932.7</ele>
        <time>2017-08-13T08:04:21Z</time>
      </trkpt>
      <trkpt lat="42.52513" lon="-0.13904">
        <ele>933.1</ele>
        <time>2017-08-13T08:04:23Z</time>
      </trkpt>
      <trkpt lat="42.52516" lon="-0.13905">
        <ele>933.5</ele>
        <time>2017-08-13T08:04:24Z</time>
      </trkpt>
      <trkpt lat="42.52521" lon="-0.13907">
        <ele>934.1</ele>
        <time>2017-08-13T08:04:26Z</time>
      </trkpt>
      <trkpt lat="42.52526" lon="-0.1391">
        <ele>934.4</ele>
        <time>2017-08-13T08:04:28Z</time>
      </trkpt>
      <trkpt lat="42.52529" lon="-0.13915">
        <ele>934.6</ele>
        <time>2017-08-13T08:04:30Z</time>
      </trkpt>
      <trkpt lat="42.52532" lon="-0.13921">
        <ele>935</ele>
        <time>2017-08-13T08:04:32Z</time>
      </trkpt>
      <trkpt lat="42.52535" lon="-0.13927">
        <ele>935.7</ele>
        <time>2017-08-13T08:04:34Z</time>
      </trkpt>
      <trkpt lat="42.52538" lon="-0.13932">
        <ele>936.3</ele>
        <time>2017-08-13T08:04:36Z</time>
      </trkpt>
      <trkpt lat="42.52541" lon="-0.13937">
        <ele>936.8</ele>
        <time>2017-08-13T08:04:38Z</time>
      </trkpt>
      <trkpt lat="42.52543" lon="-0.13942">
        <ele>937.1</ele>
        <time>2017-08-13T08:04:40Z</time>
      </trkpt>
      <trkpt lat="42.52546" lon="-0.13947">
        <ele>937.4</ele>
        <time>2017-08-13T08:04:42Z</time>
      </trkpt>
      <trkpt lat="42.52549" lon="-0.13952">
        <ele>937.6</ele>
        <time>2017-08-13T08:04:44Z</time>
      </trkpt>
      <trkpt lat="42.52552" lon="-0.13957">
        <ele>938.2</ele>
        <time>2017-08-13T08:04:46Z</time>
      </trkpt>
      <trkpt lat="42.52555" lon="-0.13961">
        <ele>938.7</ele>
        <time>2017-08-13T08:04:48Z</time>
      </trkpt>
      <trkpt lat="42.52558" lon="-0.13965">
        <ele>939</ele>
        <time>2017-08-13T08:04:50Z</time>
      </trkpt>
      <trkpt lat="42.52561" lon="-0.13969">
        <ele>939.3</ele>
        <time>2017-08-13T08:04:52Z</time>
      </trkpt>
      <trkpt lat="42.52564" lon="-0.13973">
        <ele>939.8</ele>
        <time>2017-08-13T08:04:54Z</time>
      </trkpt>
      <trkpt lat="42.52566" lon="-0.13977">
        <ele>940.5</ele>
        <time>2017-08-13T08:04:56Z</time>
      </trkpt>
      <trkpt lat="42.52569" lon="-0.13981">
        <ele>941.1</ele>
        <time>2017-08-13T08:04:58Z</time>
      </trkpt>
      <trkpt lat="42.52572" lon="-0.13985">
        <ele>941.4</ele>
        <time>2017-08-13T08:05:00Z</time>
      </trkpt>
      <trkpt lat="42.52575" lon="-0.13989">
        <ele>941.8</ele>
        <time>2017-08-13T08:05:02Z</time>
      </trkpt>
      <trkpt lat="42.52578" lon="-0.13993">
        <ele>942.3</ele>
        <time>2017-08-13T08:05:04Z</time>
      </trkpt>
      <trkpt lat="42.52581" lon="-0.13998">
        <ele>942.9</ele>
        <time>2017-08-13T08:05:06Z</time>
      </trkpt>
      <trkpt lat="42.52583" lon="-0.14002">
        <ele>943.4</ele>
        <time>2017-08-13T08:05:08Z</time>
      </trkpt>
      <trkpt lat="42.52585" lon="-0.14006">
        <ele>943.9</ele>
        <time>2017-08-13T08:05:10Z</time>
      </trkpt>
      <trkpt lat="42.52589" lon="-0.14009">
        <ele>944.3</ele>
        <time>2017-08-13T08:05:12Z</time>
      </trkpt>
      <trkpt lat="42.52593" lon="-0.14012">
        <ele>945</ele>
        <time>2017-08-13T08:05:14Z</time>
      </trkpt>
      <trkpt lat="42.52597" lon="-0.14015">
        <ele>945.7</ele>
        <time>2017-08-13T08:05:16Z</time>
      </trkpt>
      <trkpt lat="42.52601" lon="-0.14017">
        <ele>946</ele>
        <time>2017-08-13T08:05:18Z</time>
      </trkpt>
      <trkpt lat="42.52605" lon="-0.14017">
        <ele>946.4</ele>
        <time>2017-08-13T08:05:20Z</time>
      </trkpt>
      <trkpt lat="42.52609" lon="-0.14016">
        <ele>947</ele>
        <time>2017-08-13T08:05:22Z</time>
      </trkpt>
      <trkpt lat="42.52614" lon="-0.14015">
        <ele>947.6</ele>
        <time>2017-08-13T08:05:24Z</time>
      </trkpt>
      <trkpt lat="42.52619" lon="-0.14012">
        <ele>948</ele>
        <time>2017-08-13T08:05:26Z</time>
      </trkpt>
      <trkpt lat="42.52622" lon="-0.1401">
        <ele>948.2</ele>
        <time>2017-08-13T08:05:27Z</time>
      </trkpt>
      <trkpt lat="42.52624" lon="-0.14008">
        <ele>948.4</ele>
        <time>2017-08-13T08:05:28Z</time>
      </trkpt>
      <trkpt lat="42.52628" lon="-0.14004">
        <ele>948.8</ele>
        <time>2017-08-13T08:05:30Z</time>
      </trkpt>
      <trkpt lat="42.52633" lon="-0.14001">
        <ele>949.4</ele>
        <time>2017-08-13T08:05:32Z</time>
      </trkpt>
      <trkpt lat="42.52638" lon="-0.13999">
        <ele>949.8</ele>
        <time>2017-08-13T08:05:34Z</time>
      </trkpt>
      <trkpt lat="42.5264" lon="-0.13998">
        <ele>949.9</ele>
        <time>2017-08-13T08:05:35Z</time>
      </trkpt>
      <trkpt lat="42.52643" lon="-0.13997">
        <ele>950.1</ele>
        <time>2017-08-13T08:05:36Z</time>
      </trkpt>
      <trkpt lat="42.52646" lon="-0.13997">
        <ele>950.2</ele>
        <time>2017-08-13T08:05:37Z</time>
      </trkpt>
      <trkpt lat="42.52651" lon="-0.13996">
        <ele>950.4</ele>
        <time>2017-08-13T08:05:39Z</time>
      </trkpt>
      <trkpt lat="42.52657" lon="-0.13995">
        <ele>950.6</ele>
        <time>2017-08-13T08:05:41Z</time>
      </trkpt>
      <trkpt lat="42.52662" lon="-0.13994">
        <ele>950.8</ele>
        <time>2017-08-13T08:05:43Z</time>
      </trkpt>
      <trkpt lat="42.52667" lon="-0.13995">
        <ele>951.2</ele>
        <time>2017-08-13T08:05:45Z</time>
      </trkpt>
      <trkpt lat="42.52672" lon="-0.13996">
        <ele>951.7</ele>
        <time>2017-08-13T08:05:47Z</time>
      </trkpt>
      <trkpt lat="42.52676" lon="-0.13998">
        <ele>952.2</ele>
        <time>2017-08-13T08:05:49Z</time>
      </trkpt>
      <trkpt lat="42.5268" lon="-0.14001">
        <ele>952.4</ele>
        <time>2017-08-13T08:05:51Z</time>
      </trkpt>
      <trkpt lat="42.52684" lon="-0.14004">
        <ele>952.6</ele>
        <time>2017-08-13T08:05:53Z</time>
      </trkpt>
      <trkpt lat="42.52688" lon="-0.14008">
        <ele>952.8</ele>
        <time>2017-08-13T08:05:55Z</time>
      </trkpt>
      <trkpt lat="42.52692" lon="-0.14011">
        <ele>953.1</ele>
        <time>2017-08-13T08:05:57Z</time>
      </trkpt>
      <trkpt lat="42.52696" lon="-0.14014">
        <ele>953.6</ele>
        <time>2017-08-13T08:05:59Z</time>
      </trkpt>
      <trkpt lat="42.52698" lon="-0.14016">
        <ele>953.9</ele>
        <time>2017-08-13T08:06:00Z</time>
      </trkpt>
      <trkpt lat="42.52703" lon="-0.1402">
        <ele>954.2</ele>
        <time>2017-08-13T08:06:02Z</time>
      </trkpt>
      <trkpt lat="42.52707" lon="-0.14024">
        <ele>954.5</ele>
        <time>2017-08-13T08:06:04Z</time>
      </trkpt>
      <trkpt lat="42.52711" lon="-0.14028">
        <ele>955.1</ele>
        <time>2017-08-13T08:06:06Z</time>
      </trkpt>
      <trkpt lat="42.52716" lon="-0.14032">
        <ele>956</ele>
        <time>2017-08-13T08:06:08Z</time>
      </trkpt>
      <trkpt lat="42.5272" lon="-0.14036">
        <ele>956.7</ele>
        <time>2017-08-13T08:06:10Z</time>
      </trkpt>
      <trkpt lat="42.52725" lon="-0.14039">
        <ele>957.1</ele>
        <time>2017-08-13T08:06:12Z</time>
      </trkpt>
      <trkpt lat="42.52728" lon="-0.14041">
        <ele>957.3</ele>
        <time>2017-08-13T08:06:13Z</time>
      </trkpt>
      <trkpt lat="42.52732" lon="-0.14042">
        <ele>958.1</ele>
        <time>2017-08-13T08:06:15Z</time>
      </trkpt>
      <trkpt lat="42.52737" lon="-0.14043">
        <ele>958.8</ele>
        <time>2017-08-13T08:06:17Z</time>
      </trkpt>
      <trkpt lat="42.52741" lon="-0.14044">
        <ele>959.2</ele>
        <time>2017-08-13T08:06:19Z</time>
      </trkpt>
      <trkpt lat="42.52746" lon="-0.14043">
        <ele>959.5</ele>
        <time>2017-08-13T08:06:21Z</time>
      </trkpt>
      <trkpt lat="42.5275" lon="-0.14043">
        <ele>960.2</ele>
        <time>2017-08-13T08:06:23Z</time>
      </trkpt>
      <trkpt lat="42.52755" lon="-0.14042">
        <ele>960.8</ele>
        <time>2017-08-13T08:06:25Z</time>
      </trkpt>
      <trkpt lat="42.52759" lon="-0.14042">
        <ele>961.2</ele>
        <time>2017-08-13T08:06:27Z</time>
      </trkpt>
      <trkpt lat="42.52763" lon="-0.14042">
        <ele>961.6</ele>
        <time>2017-08-13T08:06:29Z</time>
      </trkpt>
      <trkpt lat="42.52768" lon="-0.14043">
        <ele>962</ele>
        <time>2017-08-13T08:06:31Z</time>
      </trkpt>
      <trkpt lat="42.52772" lon="-0.14044">
        <ele>962.7</ele>
        <time>2017-08-13T08:06:33Z</time>
      </trkpt>
      <trkpt lat="42.52777" lon="-0.14045">
        <ele>963.1</ele>
        <time>2017-08-13T08:06:35Z</time>
      </trkpt>
      <trkpt lat="42.52781" lon="-0.14047">
        <ele>963.4</ele>
        <time>2017-08-13T08:06:37Z</time>
      </trkpt>
      <trkpt lat="42.52785" lon="-0.14049">
        <ele>963.8</ele>
        <time>2017-08-13T08:06:39Z</time>
      </trkpt>
      <trkpt lat="42.5279" lon="-0.14051">
        <ele>964.4</ele>
        <time>2017-08-13T08:06:41Z</time>
      </trkpt>
      <trkpt lat="42.52795" lon="-0.14054">
        <ele>965</ele>
        <time>2017-08-13T08:06:43Z</time>
      </trkpt>
      <trkpt lat="42.52797" lon="-0.14056">
        <ele>965.1</ele>
        <time>2017-08-13T08:06:44Z</time>
      </trkpt>
      <trkpt lat="42.528" lon="-0.14058">
        <ele>965.1</ele>
        <time>2017-08-13T08:06:45Z</time>
      </trkpt>
      <trkpt lat="42.52804" lon="-0.14062">
        <ele>965.2</ele>
        <time>2017-08-13T08:06:47Z</time>
      </trkpt>
      <trkpt lat="42.52806" lon="-0.14065">
        <ele>965.2</ele>
        <time>2017-08-13T08:06:48Z</time>
      </trkpt>
      <trkpt lat="42.52808" lon="-0.14067">
        <ele>965.3</ele>
        <time>2017-08-13T08:06:49Z</time>
      </trkpt>
      <trkpt lat="42.52811" lon="-0.1407">
        <ele>965.3</ele>
        <time>2017-08-13T08:06:50Z</time>
      </trkpt>
      <trkpt lat="42.52813" lon="-0.14073">
        <ele>965.3</ele>
        <time>2017-08-13T08:06:51Z</time>
      </trkpt>
      <trkpt lat="42.52816" lon="-0.14077">
        <ele>965.4</ele>
        <time>2017-08-13T08:06:52Z</time>
      </trkpt>
      <trkpt lat="42.52818" lon="-0.14081">
        <ele>965.4</ele>
        <time>2017-08-13T08:06:53Z</time>
      </trkpt>
      <trkpt lat="42.5282" lon="-0.14085">
        <ele>965.4</ele>
        <time>2017-08-13T08:06:54Z</time>
      </trkpt>
      <trkpt lat="42.52822" lon="-0.14088">
        <ele>965.4</ele>
        <time>2017-08-13T08:06:55Z</time>
      </trkpt>
      <trkpt lat="42.52824" lon="-0.14093">
        <ele>965.4</ele>
        <time>2017-08-13T08:06:56Z</time>
      </trkpt>
      <trkpt lat="42.52826" lon="-0.14098">
        <ele>965.5</ele>
        <time>2017-08-13T08:06:57Z</time>
      </trkpt>
      <trkpt lat="42.52828" lon="-0.14103">
        <ele>965.5</ele>
        <time>2017-08-13T08:06:58Z</time>
      </trkpt>
      <trkpt lat="42.5283" lon="-0.14108">
        <ele>965.5</ele>
        <time>2017-08-13T08:06:59Z</time>
      </trkpt>
      <trkpt lat="42.52831" lon="-0.14114">
        <ele>965.5</ele>
        <time>2017-08-13T08:07:00Z</time>
      </trkpt>
      <trkpt lat="42.52832" lon="-0.1412">
        <ele>965.5</ele>
        <time>2017-08-13T08:07:01Z</time>
      </trkpt>
      <trkpt lat="42.52833" lon="-0.14126">
        <ele>965.5</ele>
        <time>2017-08-13T08:07:02Z</time>
      </trkpt>
      <trkpt lat="42.52834" lon="-0.14133">
        <ele>965.5</ele>
        <time>2017-08-13T08:07:03Z</time>
      </trkpt>
      <trkpt lat="42.52835" lon="-0.1414">
        <ele>965.5</ele>
        <time>2017-08-13T08:07:04Z</time>
      </trkpt>
      <trkpt lat="42.52836" lon="-0.14147">
        <ele>965.5</ele>
        <time>2017-08-13T08:07:05Z</time>
      </trkpt>
      <trkpt lat="42.52837" lon="-0.14154">
        <ele>965.5</ele>
        <time>2017-08-13T08:07:06Z</time>
      </trkpt>
      <trkpt lat="42.5284" lon="-0.1416">
        <ele>965.5</ele>
        <time>2017-08-13T08:07:07Z</time>
      </trkpt>
      <trkpt lat="42.52843" lon="-0.14165">
        <ele>965.6</ele>
        <time>2017-08-13T08:07:08Z</time>
      </trkpt>
      <trkpt lat="42.52847" lon="-0.14169">
        <ele>965.6</ele>
        <time>2017-08-13T08:07:09Z</time>
      </trkpt>
      <trkpt lat="42.52852" lon="-0.14172">
        <ele>965.6</ele>
        <time>2017-08-13T08:07:10Z</time>
      </trkpt>
      <trkpt lat="42.52857" lon="-0.14174">
        <ele>965.7</ele>
        <time>2017-08-13T08:07:11Z</time>
      </trkpt>
      <trkpt lat="42.52862" lon="-0.14175">
        <ele>965.8</ele>
        <time>2017-08-13T08:07:12Z</time>
      </trkpt>
      <trkpt lat="42.52867" lon="-0.14177">
        <ele>965.9</ele>
        <time>2017-08-13T08:07:13Z</time>
      </trkpt>
      <trkpt lat="42.52872" lon="-0.14179">
        <ele>966.1</ele>
        <time>2017-08-13T08:07:14Z</time>
      </trkpt>
      <trkpt lat="42.52877" lon="-0.14181">
        <ele>966.2</ele>
        <time>2017-08-13T08:07:15Z</time>
      </trkpt>
      <trkpt lat="42.52881" lon="-0.14183">
        <ele>966.3</ele>
        <time>2017-08-13T08:07:16Z</time>
      </trkpt>
      <trkpt lat="42.52884" lon="-0.14185">
        <ele>966.5</ele>
        <time>2017-08-13T08:07:17Z</time>
      </trkpt>
      <trkpt lat="42.52888" lon="-0.14187">
        <ele>966.8</ele>
        <time>2017-08-13T08:07:18Z</time>
      </trkpt>
      <trkpt lat="42.52891" lon="-0.14189">
        <ele>967</ele>
        <time>2017-08-13T08:07:19Z</time>
      </trkpt>
      <trkpt lat="42.52894" lon="-0.1419">
        <ele>967.3</ele>
        <time>2017-08-13T08:07:20Z</time>
      </trkpt>
      <trkpt lat="42.52897" lon="-0.14192">
        <ele>967.5</ele>
        <time>2017-08-13T08:07:21Z</time>
      </trkpt>
      <trkpt lat="42.529" lon="-0.14195">
        <ele>967.6</ele>
        <time>2017-08-13T08:07:22Z</time>
      </trkpt>
      <trkpt lat="42.52903" lon="-0.14199">
        <ele>967.7</ele>
        <time>2017-08-13T08:07:23Z</time>
      </trkpt>
      <trkpt lat="42.52905" lon="-0.14204">
        <ele>967.8</ele>
        <time>2017-08-13T08:07:24Z</time>
      </trkpt>
      <trkpt lat="42.52907" lon="-0.14208">
        <ele>967.8</ele>
        <time>2017-08-13T08:07:25Z</time>
      </trkpt>
      <trkpt lat="42.52909" lon="-0.14214">
        <ele>967.9</ele>
        <time>2017-08-13T08:07:26Z</time>
      </trkpt>
      <trkpt lat="42.52911" lon="-0.14219">
        <ele>967.9</ele>
        <time>2017-08-13T08:07:27Z</time>
      </trkpt>
      <trkpt lat="42.52913" lon="-0.14225">
        <ele>968</ele>
        <time>2017-08-13T08:07:28Z</time>
      </trkpt>
      <trkpt lat="42.52915" lon="-0.1423">
        <ele>968</ele>
        <time>2017-08-13T08:07:29Z</time>
      </trkpt>
      <trkpt lat="42.52917" lon="-0.14236">
        <ele>968.1</ele>
        <time>2017-08-13T08:07:30Z</time>
      </trkpt>
      <trkpt lat="42.52919" lon="-0.14242">
        <ele>968.1</ele>
        <time>2017-08-13T08:07:31Z</time>
      </trkpt>
      <trkpt lat="42.52922" lon="-0.14247">
        <ele>968.2</ele>
        <time>2017-08-13T08:07:32Z</time>
      </trkpt>
      <trkpt lat="42.52924" lon="-0.14253">
        <ele>968.2</ele>
        <time>2017-08-13T08:07:33Z</time>
      </trkpt>
      <trkpt lat="42.52927" lon="-0.14258">
        <ele>968.3</ele>
        <time>2017-08-13T08:07:34Z</time>
      </trkpt>
      <trkpt lat="42.5293" lon="-0.14263">
        <ele>968.4</ele>
        <time>2017-08-13T08:07:35Z</time>
      </trkpt>
      <trkpt lat="42.52933" lon="-0.14269">
        <ele>968.5</ele>
        <time>2017-08-13T08:07:36Z</time>
      </trkpt>
      <trkpt lat="42.52935" lon="-0.14274">
        <ele>968.6</ele>
        <time>2017-08-13T08:07:37Z</time>
      </trkpt>
      <trkpt lat="42.52938" lon="-0.14279">
        <ele>968.8</ele>
        <time>2017-08-13T08:07:38Z</time>
      </trkpt>
      <trkpt lat="42.5294" lon="-0.14284">
        <ele>969.1</ele>
        <time>2017-08-13T08:07:39Z</time>
      </trkpt>
      <trkpt lat="42.52942" lon="-0.1429">
        <ele>969.3</ele>
        <time>2017-08-13T08:07:40Z</time>
      </trkpt>
      <trkpt lat="42.52944" lon="-0.14295">
        <ele>969.6</ele>
        <time>2017-08-13T08:07:41Z</time>
      </trkpt>
      <trkpt lat="42.52946" lon="-0.14301">
        <ele>969.6</ele>
        <time>2017-08-13T08:07:42Z</time>
      </trkpt>
      <trkpt lat="42.52948" lon="-0.14306">
        <ele>969.7</ele>
        <time>2017-08-13T08:07:43Z</time>
      </trkpt>
      <trkpt lat="42.5295" lon="-0.14312">
        <ele>969.8</ele>
        <time>2017-08-13T08:07:44Z</time>
      </trkpt>
      <trkpt lat="42.52953" lon="-0.14317">
        <ele>969.8</ele>
        <time>2017-08-13T08:07:45Z</time>
      </trkpt>
      <trkpt lat="42.52956" lon="-0.14322">
        <ele>969.9</ele>
        <time>2017-08-13T08:07:46Z</time>
      </trkpt>
      <trkpt lat="42.52959" lon="-0.14327">
        <ele>969.9</ele>
        <time>2017-08-13T08:07:47Z</time>
      </trkpt>
      <trkpt lat="42.52963" lon="-0.14331">
        <ele>970</ele>
        <time>2017-08-13T08:07:48Z</time>
      </trkpt>
      <trkpt lat="42.52967" lon="-0.14335">
        <ele>970</ele>
        <time>2017-08-13T08:07:49Z</time>
      </trkpt>
      <trkpt lat="42.5297" lon="-0.14339">
        <ele>970.1</ele>
        <time>2017-08-13T08:07:50Z</time>
      </trkpt>
      <trkpt lat="42.52974" lon="-0.14343">
        <ele>970.1</ele>
        <time>2017-08-13T08:07:51Z</time>
      </trkpt>
      <trkpt lat="42.52978" lon="-0.14347">
        <ele>970.1</ele>
        <time>2017-08-13T08:07:52Z</time>
      </trkpt>
      <trkpt lat="42.52982" lon="-0.14352">
        <ele>970.1</ele>
        <time>2017-08-13T08:07:53Z</time>
      </trkpt>
      <trkpt lat="42.52985" lon="-0.14358">
        <ele>970.1</ele>
        <time>2017-08-13T08:07:54Z</time>
      </trkpt>
      <trkpt lat="42.52988" lon="-0.14364">
        <ele>970.1</ele>
        <time>2017-08-13T08:07:55Z</time>
      </trkpt>
      <trkpt lat="42.52991" lon="-0.14371">
        <ele>970.1</ele>
        <time>2017-08-13T08:07:56Z</time>
      </trkpt>
      <trkpt lat="42.52993" lon="-0.14379">
        <ele>970.1</ele>
        <time>2017-08-13T08:07:57Z</time>
      </trkpt>
      <trkpt lat="42.52996" lon="-0.14387">
        <ele>970</ele>
        <time>2017-08-13T08:07:58Z</time>
      </trkpt>
      <trkpt lat="42.52998" lon="-0.14395">
        <ele>970</ele>
        <time>2017-08-13T08:07:59Z</time>
      </trkpt>
      <trkpt lat="42.53001" lon="-0.14403">
        <ele>970</ele>
        <time>2017-08-13T08:08:00Z</time>
      </trkpt>
      <trkpt lat="42.53005" lon="-0.14411">
        <ele>970</ele>
        <time>2017-08-13T08:08:01Z</time>
      </trkpt>
      <trkpt lat="42.53009" lon="-0.14418">
        <ele>969.9</ele>
        <time>2017-08-13T08:08:02Z</time>
      </trkpt>
      <trkpt lat="42.53014" lon="-0.14425">
        <ele>969.9</ele>
        <time>2017-08-13T08:08:03Z</time>
      </trkpt>
      <trkpt lat="42.53019" lon="-0.14431">
        <ele>969.8</ele>
        <time>2017-08-13T08:08:04Z</time>
      </trkpt>
      <trkpt lat="42.53024" lon="-0.14438">
        <ele>969.8</ele>
        <time>2017-08-13T08:08:05Z</time>
      </trkpt>
      <trkpt lat="42.53029" lon="-0.14444">
        <ele>969.7</ele>
        <time>2017-08-13T08:08:06Z</time>
      </trkpt>
      <trkpt lat="42.53034" lon="-0.14449">
        <ele>969.6</ele>
        <time>2017-08-13T08:08:07Z</time>
      </trkpt>
      <trkpt lat="42.53038" lon="-0.14454">
        <ele>969.4</ele>
        <time>2017-08-13T08:08:08Z</time>
      </trkpt>
      <trkpt lat="42.53044" lon="-0.14458">
        <ele>969.1</ele>
        <time>2017-08-13T08:08:09Z</time>
      </trkpt>
      <trkpt lat="42.5305" lon="-0.14462">
        <ele>968.8</ele>
        <time>2017-08-13T08:08:10Z</time>
      </trkpt>
      <trkpt lat="42.53055" lon="-0.14467">
        <ele>968.6</ele>
        <time>2017-08-13T08:08:11Z</time>
      </trkpt>
      <trkpt lat="42.53057" lon="-0.14473">
        <ele>968.4</ele>
        <time>2017-08-13T08:08:12Z</time>
      </trkpt>
      <trkpt lat="42.5306" lon="-0.14478">
        <ele>968.3</ele>
        <time>2017-08-13T08:08:13Z</time>
      </trkpt>
      <trkpt lat="42.53063" lon="-0.14484">
        <ele>968.2</ele>
        <time>2017-08-13T08:08:14Z</time>
      </trkpt>
      <trkpt lat="42.53065" lon="-0.1449">
        <ele>968.2</ele>
        <time>2017-08-13T08:08:15Z</time>
      </trkpt>
      <trkpt lat="42.53069" lon="-0.14495">
        <ele>968.2</ele>
        <time>2017-08-13T08:08:16Z</time>
      </trkpt>
      <trkpt lat="42.53071" lon="-0.145">
        <ele>968.2</ele>
        <time>2017-08-13T08:08:17Z</time>
      </trkpt>
      <trkpt lat="42.53074" lon="-0.14504">
        <ele>968.1</ele>
        <time>2017-08-13T08:08:18Z</time>
      </trkpt>
      <trkpt lat="42.53076" lon="-0.1451">
        <ele>968.1</ele>
        <time>2017-08-13T08:08:19Z</time>
      </trkpt>
      <trkpt lat="42.53079" lon="-0.14515">
        <ele>968.2</ele>
        <time>2017-08-13T08:08:20Z</time>
      </trkpt>
      <trkpt lat="42.53081" lon="-0.14519">
        <ele>968.2</ele>
        <time>2017-08-13T08:08:21Z</time>
      </trkpt>
      <trkpt lat="42.53082" lon="-0.14524">
        <ele>968.3</ele>
        <time>2017-08-13T08:08:22Z</time>
      </trkpt>
      <trkpt lat="42.53083" lon="-0.14528">
        <ele>968.3</ele>
        <time>2017-08-13T08:08:23Z</time>
      </trkpt>
      <trkpt lat="42.53085" lon="-0.14533">
        <ele>968.4</ele>
        <time>2017-08-13T08:08:24Z</time>
      </trkpt>
      <trkpt lat="42.53086" lon="-0.14537">
        <ele>968.4</ele>
        <time>2017-08-13T08:08:25Z</time>
      </trkpt>
      <trkpt lat="42.53088" lon="-0.14541">
        <ele>968.5</ele>
        <time>2017-08-13T08:08:26Z</time>
      </trkpt>
      <trkpt lat="42.5309" lon="-0.14545">
        <ele>968.6</ele>
        <time>2017-08-13T08:08:27Z</time>
      </trkpt>
      <trkpt lat="42.53092" lon="-0.14548">
        <ele>968.7</ele>
        <time>2017-08-13T08:08:28Z</time>
      </trkpt>
      <trkpt lat="42.53094" lon="-0.14551">
        <ele>968.8</ele>
        <time>2017-08-13T08:08:29Z</time>
      </trkpt>
      <trkpt lat="42.53098" lon="-0.14556">
        <ele>969.4</ele>
        <time>2017-08-13T08:08:31Z</time>
      </trkpt>
      <trkpt lat="42.53102" lon="-0.14559">
        <ele>970.1</ele>
        <time>2017-08-13T08:08:33Z</time>
      </trkpt>
      <trkpt lat="42.53106" lon="-0.14562">
        <ele>970.8</ele>
        <time>2017-08-13T08:08:35Z</time>
      </trkpt>
      <trkpt lat="42.53111" lon="-0.14563">
        <ele>971.6</ele>
        <time>2017-08-13T08:08:37Z</time>
      </trkpt>
      <trkpt lat="42.53116" lon="-0.14565">
        <ele>972.5</ele>
        <time>2017-08-13T08:08:39Z</time>
      </trkpt>
      <trkpt lat="42.53119" lon="-0.14565">
        <ele>972.8</ele>
        <time>2017-08-13T08:08:40Z</time>
      </trkpt>
      <trkpt lat="42.53122" lon="-0.14567">
        <ele>973</ele>
        <time>2017-08-13T08:08:41Z</time>
      </trkpt>
      <trkpt lat="42.53124" lon="-0.14569">
        <ele>973.3</ele>
        <time>2017-08-13T08:08:42Z</time>
      </trkpt>
      <trkpt lat="42.53128" lon="-0.14571">
        <ele>973.9</ele>
        <time>2017-08-13T08:08:44Z</time>
      </trkpt>
      <trkpt lat="42.53132" lon="-0.14574">
        <ele>974.5</ele>
        <time>2017-08-13T08:08:46Z</time>
      </trkpt>
      <trkpt lat="42.53135" lon="-0.14578">
        <ele>974.9</ele>
        <time>2017-08-13T08:08:48Z</time>
      </trkpt>
      <trkpt lat="42.53137" lon="-0.14582">
        <ele>975.3</ele>
        <time>2017-08-13T08:08:50Z</time>
      </trkpt>
      <trkpt lat="42.5314" lon="-0.14586">
        <ele>975.9</ele>
        <time>2017-08-13T08:08:52Z</time>
      </trkpt>
      <trkpt lat="42.53143" lon="-0.1459">
        <ele>976.6</ele>
        <time>2017-08-13T08:08:54Z</time>
      </trkpt>
      <trkpt lat="42.53147" lon="-0.14594">
        <ele>977</ele>
        <time>2017-08-13T08:08:56Z</time>
      </trkpt>
      <trkpt lat="42.5315" lon="-0.14597">
        <ele>977.3</ele>
        <time>2017-08-13T08:08:58Z</time>
      </trkpt>
      <trkpt lat="42.53154" lon="-0.14601">
        <ele>977.6</ele>
        <time>2017-08-13T08:09:00Z</time>
      </trkpt>
      <trkpt lat="42.53157" lon="-0.14605">
        <ele>978.3</ele>
        <time>2017-08-13T08:09:02Z</time>
      </trkpt>
      <trkpt lat="42.53161" lon="-0.14607">
        <ele>978.9</ele>
        <time>2017-08-13T08:09:04Z</time>
      </trkpt>
      <trkpt lat="42.53164" lon="-0.1461">
        <ele>979.2</ele>
        <time>2017-08-13T08:09:06Z</time>
      </trkpt>
      <trkpt lat="42.53167" lon="-0.14613">
        <ele>979.5</ele>
        <time>2017-08-13T08:09:08Z</time>
      </trkpt>
      <trkpt lat="42.5317" lon="-0.14615">
        <ele>979.9</ele>
        <time>2017-08-13T08:09:10Z</time>
      </trkpt>
      <trkpt lat="42.53174" lon="-0.14617">
        <ele>980.6</ele>
        <time>2017-08-13T08:09:12Z</time>
      </trkpt>
      <trkpt lat="42.53178" lon="-0.14618">
        <ele>981.3</ele>
        <time>2017-08-13T08:09:14Z</time>
      </trkpt>
      <trkpt lat="42.53181" lon="-0.14619">
        <ele>981.9</ele>
        <time>2017-08-13T08:09:16Z</time>
      </trkpt>
      <trkpt lat="42.53186" lon="-0.1462">
        <ele>982.4</ele>
        <time>2017-08-13T08:09:18Z</time>
      </trkpt>
      <trkpt lat="42.53189" lon="-0.14621">
        <ele>983.2</ele>
        <time>2017-08-13T08:09:20Z</time>
      </trkpt>
      <trkpt lat="42.53194" lon="-0.14623">
        <ele>983.9</ele>
        <time>2017-08-13T08:09:22Z</time>
      </trkpt>
      <trkpt lat="42.53198" lon="-0.14625">
        <ele>984.3</ele>
        <time>2017-08-13T08:09:24Z</time>
      </trkpt>
      <trkpt lat="42.53201" lon="-0.14626">
        <ele>984.7</ele>
        <time>2017-08-13T08:09:26Z</time>
      </trkpt>
      <trkpt lat="42.53205" lon="-0.14627">
        <ele>985.4</ele>
        <time>2017-08-13T08:09:28Z</time>
      </trkpt>
      <trkpt lat="42.53208" lon="-0.14628">
        <ele>986</ele>
        <time>2017-08-13T08:09:30Z</time>
      </trkpt>
      <trkpt lat="42.53211" lon="-0.1463">
        <ele>986.5</ele>
        <time>2017-08-13T08:09:32Z</time>
      </trkpt>
      <trkpt lat="42.53215" lon="-0.14631">
        <ele>986.9</ele>
        <time>2017-08-13T08:09:34Z</time>
      </trkpt>
      <trkpt lat="42.53218" lon="-0.14633">
        <ele>987.4</ele>
        <time>2017-08-13T08:09:36Z</time>
      </trkpt>
      <trkpt lat="42.53222" lon="-0.14635">
        <ele>988.1</ele>
        <time>2017-08-13T08:09:38Z</time>
      </trkpt>
      <trkpt lat="42.53225" lon="-0.14636">
        <ele>988.5</ele>
        <time>2017-08-13T08:09:40Z</time>
      </trkpt>
      <trkpt lat="42.53229" lon="-0.14637">
        <ele>988.7</ele>
        <time>2017-08-13T08:09:42Z</time>
      </trkpt>
      <trkpt lat="42.53232" lon="-0.14639">
        <ele>989</ele>
        <time>2017-08-13T08:09:44Z</time>
      </trkpt>
      <trkpt lat="42.53235" lon="-0.1464">
        <ele>989.5</ele>
        <time>2017-08-13T08:09:46Z</time>
      </trkpt>
      <trkpt lat="42.53238" lon="-0.14643">
        <ele>990</ele>
        <time>2017-08-13T08:09:48Z</time>
      </trkpt>
      <trkpt lat="42.53241" lon="-0.14646">
        <ele>990.5</ele>
        <time>2017-08-13T08:09:50Z</time>
      </trkpt>
      <trkpt lat="42.53244" lon="-0.14649">
        <ele>990.7</ele>
        <time>2017-08-13T08:09:52Z</time>
      </trkpt>
      <trkpt lat="42.53247" lon="-0.14652">
        <ele>990.9</ele>
        <time>2017-08-13T08:09:54Z</time>
      </trkpt>
      <trkpt lat="42.53249" lon="-0.14655">
        <ele>991.1</ele>
        <time>2017-08-13T08:09:56Z</time>
      </trkpt>
      <trkpt lat="42.53251" lon="-0.14659">
        <ele>991.5</ele>
        <time>2017-08-13T08:09:58Z</time>
      </trkpt>
      <trkpt lat="42.53254" lon="-0.14663">
        <ele>992.1</ele>
        <time>2017-08-13T08:10:00Z</time>
      </trkpt>
      <trkpt lat="42.53256" lon="-0.14667">
        <ele>992.6</ele>
        <time>2017-08-13T08:10:02Z</time>
      </trkpt>
      <trkpt lat="42.53258" lon="-0.1467">
        <ele>992.9</ele>
        <time>2017-08-13T08:10:04Z</time>
      </trkpt>
      <trkpt lat="42.53261" lon="-0.14674">
        <ele>993.2</ele>
        <time>2017-08-13T08:10:06Z</time>
      </trkpt>
      <trkpt lat="42.53264" lon="-0.14677">
        <ele>993.5</ele>
        <time>2017-08-13T08:10:08Z</time>
      </trkpt>
      <trkpt lat="42.53266" lon="-0.14681">
        <ele>994</ele>
        <time>2017-08-13T08:10:10Z</time>
      </trkpt>
      <trkpt lat="42.53269" lon="-0.14685">
        <ele>994.5</ele>
        <time>2017-08-13T08:10:12Z</time>
      </trkpt>
      <trkpt lat="42.53272" lon="-0.14688">
        <ele>994.9</ele>
        <time>2017-08-13T08:10:14Z</time>
      </trkpt>
      <trkpt lat="42.53275" lon="-0.14691">
        <ele>995.2</ele>
        <time>2017-08-13T08:10:16Z</time>
      </trkpt>
      <trkpt lat="42.53277" lon="-0.14694">
        <ele>995.4</ele>
        <time>2017-08-13T08:10:18Z</time>
      </trkpt>
      <trkpt lat="42.5328" lon="-0.14698">
        <ele>996</ele>
        <time>2017-08-13T08:10:20Z</time>
      </trkpt>
      <trkpt lat="42.53283" lon="-0.14701">
        <ele>996.6</ele>
        <time>2017-08-13T08:10:22Z</time>
      </trkpt>
      <trkpt lat="42.53285" lon="-0.14703">
        <ele>997.1</ele>
        <time>2017-08-13T08:10:24Z</time>
      </trkpt>
      <trkpt lat="42.53289" lon="-0.14706">
        <ele>997.5</ele>
        <time>2017-08-13T08:10:26Z</time>
      </trkpt>
      <trkpt lat="42.53292" lon="-0.14709">
        <ele>998</ele>
        <time>2017-08-13T08:10:28Z</time>
      </trkpt>
      <trkpt lat="42.53295" lon="-0.14713">
        <ele>998.7</ele>
        <time>2017-08-13T08:10:30Z</time>
      </trkpt>
      <trkpt lat="42.53298" lon="-0.14715">
        <ele>999.2</ele>
        <time>2017-08-13T08:10:32Z</time>
      </trkpt>
      <trkpt lat="42.533" lon="-0.14717">
        <ele>999.5</ele>
        <time>2017-08-13T08:10:34Z</time>
      </trkpt>
      <trkpt lat="42.53304" lon="-0.14719">
        <ele>999.8</ele>
        <time>2017-08-13T08:10:36Z</time>
      </trkpt>
      <trkpt lat="42.53306" lon="-0.14721">
        <ele>1000.1</ele>
        <time>2017-08-13T08:10:38Z</time>
      </trkpt>
      <trkpt lat="42.53309" lon="-0.14724">
        <ele>1000.5</ele>
        <time>2017-08-13T08:10:40Z</time>
      </trkpt>
      <trkpt lat="42.53312" lon="-0.14726">
        <ele>1001.1</ele>
        <time>2017-08-13T08:10:42Z</time>
      </trkpt>
      <trkpt lat="42.53315" lon="-0.14728">
        <ele>1001.6</ele>
        <time>2017-08-13T08:10:44Z</time>
      </trkpt>
      <trkpt lat="42.53318" lon="-0.14731">
        <ele>1001.9</ele>
        <time>2017-08-13T08:10:46Z</time>
      </trkpt>
      <trkpt lat="42.5332" lon="-0.14734">
        <ele>1002.3</ele>
        <time>2017-08-13T08:10:48Z</time>
      </trkpt>
      <trkpt lat="42.53323" lon="-0.14737">
        <ele>1002.9</ele>
        <time>2017-08-13T08:10:50Z</time>
      </trkpt>
      <trkpt lat="42.53327" lon="-0.1474">
        <ele>1003.3</ele>
        <time>2017-08-13T08:10:52Z</time>
      </trkpt>
      <trkpt lat="42.53329" lon="-0.14744">
        <ele>1003.6</ele>
        <time>2017-08-13T08:10:54Z</time>
      </trkpt>
      <trkpt lat="42.53332" lon="-0.14747">
        <ele>1003.8</ele>
        <time>2017-08-13T08:10:56Z</time>
      </trkpt>
      <trkpt lat="42.53334" lon="-0.14751">
        <ele>1004</ele>
        <time>2017-08-13T08:10:58Z</time>
      </trkpt>
      <trkpt lat="42.53337" lon="-0.14755">
        <ele>1004.3</ele>
        <time>2017-08-13T08:11:00Z</time>
      </trkpt>
      <trkpt lat="42.53339" lon="-0.14759">
        <ele>1004.9</ele>
        <time>2017-08-13T08:11:02Z</time>
      </trkpt>
      <trkpt lat="42.53342" lon="-0.14762">
        <ele>1005.5</ele>
        <time>2017-08-13T08:11:04Z</time>
      </trkpt>
      <trkpt lat="42.53345" lon="-0.14766">
        <ele>1005.9</ele>
        <time>2017-08-13T08:11:06Z</time>
      </trkpt>
      <trkpt lat="42.53347" lon="-0.1477">
        <ele>1006.2</ele>
        <time>2017-08-13T08:11:08Z</time>
      </trkpt>
      <trkpt lat="42.53349" lon="-0.14773">
        <ele>1006.5</ele>
        <time>2017-08-13T08:11:10Z</time>
      </trkpt>
      <trkpt lat="42.53352" lon="-0.14777">
        <ele>1007</ele>
        <time>2017-08-13T08:11:12Z</time>
      </trkpt>
      <trkpt lat="42.53355" lon="-0.14781">
        <ele>1007.6</ele>
        <time>2017-08-13T08:11:14Z</time>
      </trkpt>
      <trkpt lat="42.53357" lon="-0.14786">
        <ele>1008</ele>
        <time>2017-08-13T08:11:16Z</time>
      </trkpt>
      <trkpt lat="42.53359" lon="-0.1479">
        <ele>1008.4</ele>
        <time>2017-08-13T08:11:18Z</time>
      </trkpt>
      <trkpt lat="42.53361" lon="-0.14795">
        <ele>1008.7</ele>
        <time>2017-08-13T08:11:20Z</time>
      </trkpt>
      <trkpt lat="42.53364" lon="-0.14799">
        <ele>1009.1</ele>
        <time>2017-08-13T08:11:22Z</time>
      </trkpt>
      <trkpt lat="42.53366" lon="-0.14804">
        <ele>1009.8</ele>
        <time>2017-08-13T08:11:24Z</time>
      </trkpt>
      <trkpt lat="42.53368" lon="-0.14809">
        <ele>1010.3</ele>
        <time>2017-08-13T08:11:26Z</time>
      </trkpt>
      <trkpt lat="42.53371" lon="-0.14815">
        <ele>1010.6</ele>
        <time>2017-08-13T08:11:28Z</time>
      </trkpt>
      <trkpt lat="42.53373" lon="-0.14821">
        <ele>1011</ele>
        <time>2017-08-13T08:11:30Z</time>
      </trkpt>
      <trkpt lat="42.53376" lon="-0.14826">
        <ele>1011.7</ele>
        <time>2017-08-13T08:11:32Z</time>
      </trkpt>
      <trkpt lat="42.53379" lon="-0.14831">
        <ele>1012.4</ele>
        <time>2017-08-13T08:11:34Z</time>
      </trkpt>
      <trkpt lat="42.53382" lon="-0.14835">
        <ele>1012.8</ele>
        <time>2017-08-13T08:11:36Z</time>
      </trkpt>
      <trkpt lat="42.53385" lon="-0.14839">
        <ele>1013.2</ele>
        <time>2017-08-13T08:11:38Z</time>
      </trkpt>
      <trkpt lat="42.53388" lon="-0.14844">
        <ele>1013.7</ele>
        <time>2017-08-13T08:11:40Z</time>
      </trkpt>
      <trkpt lat="42.5339" lon="-0.14849">
        <ele>1014.4</ele>
        <time>2017-08-13T08:11:42Z</time>
      </trkpt>
      <trkpt lat="42.53392" lon="-0.14854">
        <ele>1014.8</ele>
        <time>2017-08-13T08:11:44Z</time>
      </trkpt>
      <trkpt lat="42.53393" lon="-0.14858">
        <ele>1015.1</ele>
        <time>2017-08-13T08:11:46Z</time>
      </trkpt>
      <trkpt lat="42.53395" lon="-0.14862">
        <ele>1015.4</ele>
        <time>2017-08-13T08:11:48Z</time>
      </trkpt>
      <trkpt lat="42.53396" lon="-0.14866">
        <ele>1015.8</ele>
        <time>2017-08-13T08:11:50Z</time>
      </trkpt>
      <trkpt lat="42.53397" lon="-0.14871">
        <ele>1016.5</ele>
        <time>2017-08-13T08:11:52Z</time>
      </trkpt>
      <trkpt lat="42.53398" lon="-0.14875">
        <ele>1017</ele>
        <time>2017-08-13T08:11:54Z</time>
      </trkpt>
      <trkpt lat="42.534" lon="-0.1488">
        <ele>1017.3</ele>
        <time>2017-08-13T08:11:56Z</time>
      </trkpt>
      <trkpt lat="42.53402" lon="-0.14884">
        <ele>1017.5</ele>
        <time>2017-08-13T08:11:58Z</time>
      </trkpt>
      <trkpt lat="42.53404" lon="-0.14889">
        <ele>1018.1</ele>
        <time>2017-08-13T08:12:00Z</time>
      </trkpt>
      <trkpt lat="42.53405" lon="-0.14893">
        <ele>1018.7</ele>
        <time>2017-08-13T08:12:02Z</time>
      </trkpt>
      <trkpt lat="42.53406" lon="-0.14897">
        <ele>1019</ele>
        <time>2017-08-13T08:12:04Z</time>
      </trkpt>
      <trkpt lat="42.53407" lon="-0.14901">
        <ele>1019.2</ele>
        <time>2017-08-13T08:12:06Z</time>
      </trkpt>
      <trkpt lat="42.53409" lon="-0.14905">
        <ele>1019.5</ele>
        <time>2017-08-13T08:12:08Z</time>
      </trkpt>
      <trkpt lat="42.53409" lon="-0.1491">
        <ele>1019.8</ele>
        <time>2017-08-13T08:12:10Z</time>
      </trkpt>
      <trkpt lat="42.5341" lon="-0.14915">
        <ele>1020</ele>
        <time>2017-08-13T08:12:12Z</time>
      </trkpt>
      <trkpt lat="42.53412" lon="-0.1492">
        <ele>1020.7</ele>
        <time>2017-08-13T08:12:14Z</time>
      </trkpt>
      <trkpt lat="42.53413" lon="-0.14924">
        <ele>1021.3</ele>
        <time>2017-08-13T08:12:16Z</time>
      </trkpt>
      <trkpt lat="42.53415" lon="-0.14929">
        <ele>1021.5</ele>
        <time>2017-08-13T08:12:18Z</time>
      </trkpt>
      <trkpt lat="42.53416" lon="-0.14933">
        <ele>1021.8</ele>
        <time>2017-08-13T08:12:20Z</time>
      </trkpt>
      <trkpt lat="42.53417" lon="-0.14938">
        <ele>1022</ele>
        <time>2017-08-13T08:12:22Z</time>
      </trkpt>
      <trkpt lat="42.53419" lon="-0.14943">
        <ele>1022.3</ele>
        <time>2017-08-13T08:12:24Z</time>
      </trkpt>
      <trkpt lat="42.5342" lon="-0.14947">
        <ele>1023</ele>
        <time>2017-08-13T08:12:26Z</time>
      </trkpt>
      <trkpt lat="42.53422" lon="-0.14952">
        <ele>1023.5</ele>
        <time>2017-08-13T08:12:28Z</time>
      </trkpt>
      <trkpt lat="42.53423" lon="-0.14957">
        <ele>1023.8</ele>
        <time>2017-08-13T08:12:30Z</time>
      </trkpt>
      <trkpt lat="42.53424" lon="-0.14962">
        <ele>1024.2</ele>
        <time>2017-08-13T08:12:32Z</time>
      </trkpt>
      <trkpt lat="42.53425" lon="-0.14967">
        <ele>1024.6</ele>
        <time>2017-08-13T08:12:34Z</time>
      </trkpt>
      <trkpt lat="42.53426" lon="-0.14972">
        <ele>1025.3</ele>
        <time>2017-08-13T08:12:36Z</time>
      </trkpt>
      <trkpt lat="42.53427" lon="-0.14977">
        <ele>1025.8</ele>
        <time>2017-08-13T08:12:38Z</time>
      </trkpt>
      <trkpt lat="42.53428" lon="-0.14982">
        <ele>1026.1</ele>
        <time>2017-08-13T08:12:40Z</time>
      </trkpt>
      <trkpt lat="42.53428" lon="-0.14987">
        <ele>1026.3</ele>
        <time>2017-08-13T08:12:42Z</time>
      </trkpt>
      <trkpt lat="42.53428" lon="-0.14992">
        <ele>1026.7</ele>
        <time>2017-08-13T08:12:44Z</time>
      </trkpt>
      <trkpt lat="42.53428" lon="-0.14998">
        <ele>1027.4</ele>
        <time>2017-08-13T08:12:46Z</time>
      </trkpt>
      <trkpt lat="42.53427" lon="-0.15004">
        <ele>1027.8</ele>
        <time>2017-08-13T08:12:48Z</time>
      </trkpt>
      <trkpt lat="42.53427" lon="-0.1501">
        <ele>1028.1</ele>
        <time>2017-08-13T08:12:50Z</time>
      </trkpt>
      <trkpt lat="42.53427" lon="-0.15016">
        <ele>1028.7</ele>
        <time>2017-08-13T08:12:52Z</time>
      </trkpt>
      <trkpt lat="42.53427" lon="-0.15022">
        <ele>1029.4</ele>
        <time>2017-08-13T08:12:54Z</time>
      </trkpt>
      <trkpt lat="42.53426" lon="-0.15028">
        <ele>1030.1</ele>
        <time>2017-08-13T08:12:56Z</time>
      </trkpt>
      <trkpt lat="42.53426" lon="-0.15035">
        <ele>1030.4</ele>
        <time>2017-08-13T08:12:58Z</time>
      </trkpt>
      <trkpt lat="42.53425" lon="-0.15041">
        <ele>1030.6</ele>
        <time>2017-08-13T08:13:00Z</time>
      </trkpt>
      <trkpt lat="42.53425" lon="-0.15047">
        <ele>1031</ele>
        <time>2017-08-13T08:13:02Z</time>
      </trkpt>
      <trkpt lat="42.53425" lon="-0.15053">
        <ele>1031.7</ele>
        <time>2017-08-13T08:13:04Z</time>
      </trkpt>
      <trkpt lat="42.53424" lon="-0.1506">
        <ele>1032.2</ele>
        <time>2017-08-13T08:13:06Z</time>
      </trkpt>
      <trkpt lat="42.53424" lon="-0.15066">
        <ele>1032.6</ele>
        <time>2017-08-13T08:13:08Z</time>
      </trkpt>
      <trkpt lat="42.53424" lon="-0.15072">
        <ele>1032.9</ele>
        <time>2017-08-13T08:13:10Z</time>
      </trkpt>
      <trkpt lat="42.53423" lon="-0.15078">
        <ele>1033.1</ele>
        <time>2017-08-13T08:13:12Z</time>
      </trkpt>
      <trkpt lat="42.53422" lon="-0.15085">
        <ele>1033.7</ele>
        <time>2017-08-13T08:13:14Z</time>
      </trkpt>
      <trkpt lat="42.53421" lon="-0.15091">
        <ele>1034.3</ele>
        <time>2017-08-13T08:13:16Z</time>
      </trkpt>
      <trkpt lat="42.53421" lon="-0.15097">
        <ele>1034.6</ele>
        <time>2017-08-13T08:13:18Z</time>
      </trkpt>
      <trkpt lat="42.53419" lon="-0.15103">
        <ele>1034.8</ele>
        <time>2017-08-13T08:13:20Z</time>
      </trkpt>
      <trkpt lat="42.53418" lon="-0.15109">
        <ele>1035.1</ele>
        <time>2017-08-13T08:13:22Z</time>
      </trkpt>
      <trkpt lat="42.53416" lon="-0.15115">
        <ele>1035.4</ele>
        <time>2017-08-13T08:13:24Z</time>
      </trkpt>
      <trkpt lat="42.53416" lon="-0.15121">
        <ele>1035.9</ele>
        <time>2017-08-13T08:13:26Z</time>
      </trkpt>
      <trkpt lat="42.53415" lon="-0.15128">
        <ele>1036.5</ele>
        <time>2017-08-13T08:13:28Z</time>
      </trkpt>
      <trkpt lat="42.53414" lon="-0.15134">
        <ele>1036.8</ele>
        <time>2017-08-13T08:13:30Z</time>
      </trkpt>
      <trkpt lat="42.53413" lon="-0.15141">
        <ele>1037.1</ele>
        <time>2017-08-13T08:13:32Z</time>
      </trkpt>
      <trkpt lat="42.53412" lon="-0.15148">
        <ele>1037.4</ele>
        <time>2017-08-13T08:13:34Z</time>
      </trkpt>
      <trkpt lat="42.53411" lon="-0.15155">
        <ele>1037.9</ele>
        <time>2017-08-13T08:13:36Z</time>
      </trkpt>
      <trkpt lat="42.53411" lon="-0.15161">
        <ele>1038.6</ele>
        <time>2017-08-13T08:13:38Z</time>
      </trkpt>
      <trkpt lat="42.53412" lon="-0.15168">
        <ele>1038.9</ele>
        <time>2017-08-13T08:13:40Z</time>
      </trkpt>
      <trkpt lat="42.53412" lon="-0.15174">
        <ele>1039.1</ele>
        <time>2017-08-13T08:13:42Z</time>
      </trkpt>
      <trkpt lat="42.53414" lon="-0.15181">
        <ele>1039.4</ele>
        <time>2017-08-13T08:13:44Z</time>
      </trkpt>
      <trkpt lat="42.53415" lon="-0.15187">
        <ele>1039.9</ele>
        <time>2017-08-13T08:13:46Z</time>
      </trkpt>
      <trkpt lat="42.53416" lon="-0.15194">
        <ele>1040.5</ele>
        <time>2017-08-13T08:13:48Z</time>
      </trkpt>
      <trkpt lat="42.53417" lon="-0.15201">
        <ele>1041</ele>
        <time>2017-08-13T08:13:50Z</time>
      </trkpt>
      <trkpt lat="42.53417" lon="-0.15207">
        <ele>1041.3</ele>
        <time>2017-08-13T08:13:52Z</time>
      </trkpt>
      <trkpt lat="42.53418" lon="-0.15214">
        <ele>1041.5</ele>
        <time>2017-08-13T08:13:54Z</time>
      </trkpt>
      <trkpt lat="42.53419" lon="-0.1522">
        <ele>1041.7</ele>
        <time>2017-08-13T08:13:56Z</time>
      </trkpt>
      <trkpt lat="42.53418" lon="-0.15227">
        <ele>1041.9</ele>
        <time>2017-08-13T08:13:58Z</time>
      </trkpt>
      <trkpt lat="42.53416" lon="-0.15234">
        <ele>1042.5</ele>
        <time>2017-08-13T08:14:00Z</time>
      </trkpt>
      <trkpt lat="42.53413" lon="-0.15239">
        <ele>1043.1</ele>
        <time>2017-08-13T08:14:02Z</time>
      </trkpt>
      <trkpt lat="42.5341" lon="-0.15245">
        <ele>1043.3</ele>
        <time>2017-08-13T08:14:04Z</time>
      </trkpt>
      <trkpt lat="42.53407" lon="-0.15249">
        <ele>1043.6</ele>
        <time>2017-08-13T08:14:06Z</time>
      </trkpt>
      <trkpt lat="42.53405" lon="-0.15254">
        <ele>1043.8</ele>
        <time>2017-08-13T08:14:08Z</time>
      </trkpt>
      <trkpt lat="42.53402" lon="-0.15259">
        <ele>1044</ele>
        <time>2017-08-13T08:14:10Z</time>
      </trkpt>
      <trkpt lat="42.53399" lon="-0.15263">
        <ele>1044.2</ele>
        <time>2017-08-13T08:14:12Z</time>
      </trkpt>
      <trkpt lat="42.53396" lon="-0.15267">
        <ele>1044.8</ele>
        <time>2017-08-13T08:14:14Z</time>
      </trkpt>
      <trkpt lat="42.53392" lon="-0.15271">
        <ele>1045.3</ele>
        <time>2017-08-13T08:14:16Z</time>
      </trkpt>
      <trkpt lat="42.53389" lon="-0.15275">
        <ele>1045.6</ele>
        <time>2017-08-13T08:14:18Z</time>
      </trkpt>
      <trkpt lat="42.53386" lon="-0.15278">
        <ele>1045.9</ele>
        <time>2017-08-13T08:14:20Z</time>
      </trkpt>
      <trkpt lat="42.53383" lon="-0.1528">
        <ele>1046</ele>
        <time>2017-08-13T08:14:21Z</time>
      </trkpt>
      <trkpt lat="42.5338" lon="-0.15281">
        <ele>1046.4</ele>
        <time>2017-08-13T08:14:22Z</time>
      </trkpt>
      <trkpt lat="42.53377" lon="-0.15283">
        <ele>1046.8</ele>
        <time>2017-08-13T08:14:23Z</time>
      </trkpt>
      <trkpt lat="42.53375" lon="-0.15284">
        <ele>1047.2</ele>
        <time>2017-08-13T08:14:24Z</time>
      </trkpt>
      <trkpt lat="42.53371" lon="-0.15288">
        <ele>1047.8</ele>
        <time>2017-08-13T08:14:26Z</time>
      </trkpt>
      <trkpt lat="42.53366" lon="-0.15292">
        <ele>1048.3</ele>
        <time>2017-08-13T08:14:28Z</time>
      </trkpt>
      <trkpt lat="42.53361" lon="-0.15296">
        <ele>1048.9</ele>
        <time>2017-08-13T08:14:30Z</time>
      </trkpt>
      <trkpt lat="42.53359" lon="-0.15297">
        <ele>1049.4</ele>
        <time>2017-08-13T08:14:31Z</time>
      </trkpt>
      <trkpt lat="42.53356" lon="-0.15299">
        <ele>1049.8</ele>
        <time>2017-08-13T08:14:32Z</time>
      </trkpt>
      <trkpt lat="42.53352" lon="-0.15302">
        <ele>1050.2</ele>
        <time>2017-08-13T08:14:34Z</time>
      </trkpt>
      <trkpt lat="42.53347" lon="-0.15305">
        <ele>1050.5</ele>
        <time>2017-08-13T08:14:36Z</time>
      </trkpt>
      <trkpt lat="42.53345" lon="-0.15307">
        <ele>1050.7</ele>
        <time>2017-08-13T08:14:37Z</time>
      </trkpt>
      <trkpt lat="42.53342" lon="-0.15309">
        <ele>1051.1</ele>
        <time>2017-08-13T08:14:38Z</time>
      </trkpt>
      <trkpt lat="42.5334" lon="-0.15311">
        <ele>1051.4</ele>
        <time>2017-08-13T08:14:39Z</time>
      </trkpt>
      <trkpt lat="42.53337" lon="-0.15313">
        <ele>1051.7</ele>
        <time>2017-08-13T08:14:40Z</time>
      </trkpt>
      <trkpt lat="42.53335" lon="-0.15314">
        <ele>1052</ele>
        <time>2017-08-13T08:14:41Z</time>
      </trkpt>
      <trkpt lat="42.53331" lon="-0.15318">
        <ele>1052.2</ele>
        <time>2017-08-13T08:14:43Z</time>
      </trkpt>
      <trkpt lat="42.53326" lon="-0.15322">
        <ele>1052.3</ele>
        <time>2017-08-13T08:14:45Z</time>
      </trkpt>
      <trkpt lat="42.53323" lon="-0.15325">
        <ele>1052.4</ele>
        <time>2017-08-13T08:14:46Z</time>
      </trkpt>
      <trkpt lat="42.53321" lon="-0.15328">
        <ele>1052.5</ele>
        <time>2017-08-13T08:14:47Z</time>
      </trkpt>
      <trkpt lat="42.5332" lon="-0.15331">
        <ele>1052.6</ele>
        <time>2017-08-13T08:14:48Z</time>
      </trkpt>
      <trkpt lat="42.53319" lon="-0.15335">
        <ele>1052.7</ele>
        <time>2017-08-13T08:14:49Z</time>
      </trkpt>
      <trkpt lat="42.53318" lon="-0.15338">
        <ele>1052.8</ele>
        <time>2017-08-13T08:14:50Z</time>
      </trkpt>
      <trkpt lat="42.53319" lon="-0.15342">
        <ele>1053</ele>
        <time>2017-08-13T08:14:51Z</time>
      </trkpt>
      <trkpt lat="42.53322" lon="-0.15348">
        <ele>1053.4</ele>
        <time>2017-08-13T08:14:53Z</time>
      </trkpt>
      <trkpt lat="42.53324" lon="-0.15351">
        <ele>1053.6</ele>
        <time>2017-08-13T08:14:54Z</time>
      </trkpt>
      <trkpt lat="42.53327" lon="-0.15353">
        <ele>1053.9</ele>
        <time>2017-08-13T08:14:55Z</time>
      </trkpt>
      <trkpt lat="42.53329" lon="-0.15355">
        <ele>1054</ele>
        <time>2017-08-13T08:14:56Z</time>
      </trkpt>
      <trkpt lat="42.53332" lon="-0.15357">
        <ele>1054.2</ele>
        <time>2017-08-13T08:14:57Z</time>
      </trkpt>
      <trkpt lat="42.53335" lon="-0.15359">
        <ele>1054.3</ele>
        <time>2017-08-13T08:14:58Z</time>
      </trkpt>
      <trkpt lat="42.53338" lon="-0.15361">
        <ele>1054.5</ele>
        <time>2017-08-13T08:14:59Z</time>
      </trkpt>
      <trkpt lat="42.53342" lon="-0.15363">
        <ele>1054.6</ele>
        <time>2017-08-13T08:15:00Z</time>
      </trkpt>
      <trkpt lat="42.53345" lon="-0.15365">
        <ele>1054.7</ele>
        <time>2017-08-13T08:15:01Z</time>
      </trkpt>
      <trkpt lat="42.53349" lon="-0.15368">
        <ele>1054.8</ele>
        <time>2017-08-13T08:15:03Z</time>
      </trkpt>
      <trkpt lat="42.53351" lon="-0.1537">
        <ele>1054.9</ele>
        <time>2017-08-13T08:15:04Z</time>
      </trkpt>
      <trkpt lat="42.53354" lon="-0.15373">
        <ele>1055.1</ele>
        <time>2017-08-13T08:15:05Z</time>
      </trkpt>
      <trkpt lat="42.53357" lon="-0.15376">
        <ele>1055.3</ele>
        <time>2017-08-13T08:15:06Z</time>
      </trkpt>
      <trkpt lat="42.5336" lon="-0.1538">
        <ele>1055.6</ele>
        <time>2017-08-13T08:15:07Z</time>
      </trkpt>
      <trkpt lat="42.53362" lon="-0.15384">
        <ele>1055.9</ele>
        <time>2017-08-13T08:15:08Z</time>
      </trkpt>
      <trkpt lat="42.53364" lon="-0.15389">
        <ele>1056.2</ele>
        <time>2017-08-13T08:15:09Z</time>
      </trkpt>
      <trkpt lat="42.53365" lon="-0.15394">
        <ele>1056.3</ele>
        <time>2017-08-13T08:15:10Z</time>
      </trkpt>
      <trkpt lat="42.53366" lon="-0.154">
        <ele>1056.4</ele>
        <time>2017-08-13T08:15:11Z</time>
      </trkpt>
      <trkpt lat="42.53366" lon="-0.15406">
        <ele>1056.5</ele>
        <time>2017-08-13T08:15:12Z</time>
      </trkpt>
      <trkpt lat="42.53366" lon="-0.15413">
        <ele>1056.6</ele>
        <time>2017-08-13T08:15:13Z</time>
      </trkpt>
      <trkpt lat="42.53365" lon="-0.1542">
        <ele>1056.6</ele>
        <time>2017-08-13T08:15:14Z</time>
      </trkpt>
      <trkpt lat="42.53363" lon="-0.15428">
        <ele>1056.7</ele>
        <time>2017-08-13T08:15:15Z</time>
      </trkpt>
      <trkpt lat="42.53363" lon="-0.15434">
        <ele>1056.7</ele>
        <time>2017-08-13T08:15:16Z</time>
      </trkpt>
      <trkpt lat="42.53362" lon="-0.1544">
        <ele>1056.7</ele>
        <time>2017-08-13T08:15:17Z</time>
      </trkpt>
      <trkpt lat="42.53363" lon="-0.15446">
        <ele>1056.7</ele>
        <time>2017-08-13T08:15:18Z</time>
      </trkpt>
      <trkpt lat="42.53364" lon="-0.15452">
        <ele>1056.8</ele>
        <time>2017-08-13T08:15:19Z</time>
      </trkpt>
      <trkpt lat="42.53365" lon="-0.15457">
        <ele>1056.8</ele>
        <time>2017-08-13T08:15:20Z</time>
      </trkpt>
      <trkpt lat="42.53366" lon="-0.15463">
        <ele>1056.8</ele>
        <time>2017-08-13T08:15:21Z</time>
      </trkpt>
      <trkpt lat="42.53367" lon="-0.1547">
        <ele>1056.8</ele>
        <time>2017-08-13T08:15:22Z</time>
      </trkpt>
      <trkpt lat="42.53368" lon="-0.15476">
        <ele>1056.8</ele>
        <time>2017-08-13T08:15:23Z</time>
      </trkpt>
      <trkpt lat="42.53369" lon="-0.15482">
        <ele>1056.8</ele>
        <time>2017-08-13T08:15:24Z</time>
      </trkpt>
      <trkpt lat="42.5337" lon="-0.15489">
        <ele>1056.8</ele>
        <time>2017-08-13T08:15:25Z</time>
      </trkpt>
      <trkpt lat="42.53372" lon="-0.15495">
        <ele>1056.8</ele>
        <time>2017-08-13T08:15:26Z</time>
      </trkpt>
      <trkpt lat="42.53373" lon="-0.15501">
        <ele>1056.8</ele>
        <time>2017-08-13T08:15:27Z</time>
      </trkpt>
      <trkpt lat="42.53375" lon="-0.15507">
        <ele>1056.8</ele>
        <time>2017-08-13T08:15:28Z</time>
      </trkpt>
      <trkpt lat="42.53377" lon="-0.15513">
        <ele>1056.9</ele>
        <time>2017-08-13T08:15:29Z</time>
      </trkpt>
      <trkpt lat="42.53379" lon="-0.15519">
        <ele>1056.9</ele>
        <time>2017-08-13T08:15:30Z</time>
      </trkpt>
      <trkpt lat="42.53381" lon="-0.15525">
        <ele>1056.9</ele>
        <time>2017-08-13T08:15:31Z</time>
      </trkpt>
      <trkpt lat="42.53382" lon="-0.15531">
        <ele>1056.9</ele>
        <time>2017-08-13T08:15:32Z</time>
      </trkpt>
      <trkpt lat="42.53384" lon="-0.15537">
        <ele>1057</ele>
        <time>2017-08-13T08:15:33Z</time>
      </trkpt>
      <trkpt lat="42.53385" lon="-0.15542">
        <ele>1057</ele>
        <time>2017-08-13T08:15:34Z</time>
      </trkpt>
      <trkpt lat="42.53386" lon="-0.15549">
        <ele>1057.1</ele>
        <time>2017-08-13T08:15:35Z</time>
      </trkpt>
      <trkpt lat="42.53387" lon="-0.15555">
        <ele>1057.2</ele>
        <time>2017-08-13T08:15:36Z</time>
      </trkpt>
      <trkpt lat="42.53388" lon="-0.15562">
        <ele>1057.3</ele>
        <time>2017-08-13T08:15:37Z</time>
      </trkpt>
      <trkpt lat="42.53388" lon="-0.15569">
        <ele>1057.5</ele>
        <time>2017-08-13T08:15:38Z</time>
      </trkpt>
      <trkpt lat="42.53389" lon="-0.15576">
        <ele>1057.7</ele>
        <time>2017-08-13T08:15:39Z</time>
      </trkpt>
      <trkpt lat="42.53389" lon="-0.15583">
        <ele>1058</ele>
        <time>2017-08-13T08:15:40Z</time>
      </trkpt>
      <trkpt lat="42.53388" lon="-0.15591">
        <ele>1058.3</ele>
        <time>2017-08-13T08:15:41Z</time>
      </trkpt>
      <trkpt lat="42.53388" lon="-0.15598">
        <ele>1058.5</ele>
        <time>2017-08-13T08:15:42Z</time>
      </trkpt>
      <trkpt lat="42.53389" lon="-0.15606">
        <ele>1058.6</ele>
        <time>2017-08-13T08:15:43Z</time>
      </trkpt>
      <trkpt lat="42.5339" lon="-0.15613">
        <ele>1058.7</ele>
        <time>2017-08-13T08:15:44Z</time>
      </trkpt>
      <trkpt lat="42.53391" lon="-0.15621">
        <ele>1058.8</ele>
        <time>2017-08-13T08:15:45Z</time>
      </trkpt>
      <trkpt lat="42.53393" lon="-0.15628">
        <ele>1058.8</ele>
        <time>2017-08-13T08:15:46Z</time>
      </trkpt>
      <trkpt lat="42.53394" lon="-0.15636">
        <ele>1058.9</ele>
        <time>2017-08-13T08:15:47Z</time>
      </trkpt>
      <trkpt lat="42.53396" lon="-0.15643">
        <ele>1058.9</ele>
        <time>2017-08-13T08:15:48Z</time>
      </trkpt>
      <trkpt lat="42.53398" lon="-0.1565">
        <ele>1058.9</ele>
        <time>2017-08-13T08:15:49Z</time>
      </trkpt>
      <trkpt lat="42.534" lon="-0.15657">
        <ele>1059</ele>
        <time>2017-08-13T08:15:50Z</time>
      </trkpt>
      <trkpt lat="42.53402" lon="-0.15665">
        <ele>1059</ele>
        <time>2017-08-13T08:15:51Z</time>
      </trkpt>
      <trkpt lat="42.53403" lon="-0.15672">
        <ele>1059</ele>
        <time>2017-08-13T08:15:52Z</time>
      </trkpt>
      <trkpt lat="42.53404" lon="-0.15679">
        <ele>1059</ele>
        <time>2017-08-13T08:15:53Z</time>
      </trkpt>
      <trkpt lat="42.53405" lon="-0.15686">
        <ele>1059</ele>
        <time>2017-08-13T08:15:54Z</time>
      </trkpt>
      <trkpt lat="42.53404" lon="-0.15693">
        <ele>1059.1</ele>
        <time>2017-08-13T08:15:55Z</time>
      </trkpt>
      <trkpt lat="42.53404" lon="-0.15701">
        <ele>1059.1</ele>
        <time>2017-08-13T08:15:56Z</time>
      </trkpt>
      <trkpt lat="42.53404" lon="-0.15708">
        <ele>1059.1</ele>
        <time>2017-08-13T08:15:57Z</time>
      </trkpt>
      <trkpt lat="42.53401" lon="-0.15716">
        <ele>1059.1</ele>
        <time>2017-08-13T08:15:58Z</time>
      </trkpt>
      <trkpt lat="42.534" lon="-0.15723">
        <ele>1059.1</ele>
        <time>2017-08-13T08:15:59Z</time>
      </trkpt>
      <trkpt lat="42.53398" lon="-0.15729">
        <ele>1059.1</ele>
        <time>2017-08-13T08:16:00Z</time>
      </trkpt>
      <trkpt lat="42.53396" lon="-0.15736">
        <ele>1059.1</ele>
        <time>2017-08-13T08:16:01Z</time>
      </trkpt>
      <trkpt lat="42.53393" lon="-0.15743">
        <ele>1059.2</ele>
        <time>2017-08-13T08:16:02Z</time>
      </trkpt>
      <trkpt lat="42.53391" lon="-0.15749">
        <ele>1059.2</ele>
        <time>2017-08-13T08:16:03Z</time>
      </trkpt>
      <trkpt lat="42.53389" lon="-0.15755">
        <ele>1059.3</ele>
        <time>2017-08-13T08:16:04Z</time>
      </trkpt>
      <trkpt lat="42.53388" lon="-0.15761">
        <ele>1059.4</ele>
        <time>2017-08-13T08:16:05Z</time>
      </trkpt>
      <trkpt lat="42.53387" lon="-0.15767">
        <ele>1059.5</ele>
        <time>2017-08-13T08:16:06Z</time>
      </trkpt>
      <trkpt lat="42.53385" lon="-0.15772">
        <ele>1059.6</ele>
        <time>2017-08-13T08:16:07Z</time>
      </trkpt>
      <trkpt lat="42.53386" lon="-0.15776">
        <ele>1059.7</ele>
        <time>2017-08-13T08:16:08Z</time>
      </trkpt>
      <trkpt lat="42.53386" lon="-0.1578">
        <ele>1059.9</ele>
        <time>2017-08-13T08:16:09Z</time>
      </trkpt>
      <trkpt lat="42.53387" lon="-0.15787">
        <ele>1060.1</ele>
        <time>2017-08-13T08:16:11Z</time>
      </trkpt>
      <trkpt lat="42.53388" lon="-0.15794">
        <ele>1061.1</ele>
        <time>2017-08-13T08:16:13Z</time>
      </trkpt>
      <trkpt lat="42.53388" lon="-0.15801">
        <ele>1062.1</ele>
        <time>2017-08-13T08:16:15Z</time>
      </trkpt>
      <trkpt lat="42.53389" lon="-0.15808">
        <ele>1063.1</ele>
        <time>2017-08-13T08:16:17Z</time>
      </trkpt>
      <trkpt lat="42.53389" lon="-0.15815">
        <ele>1063.7</ele>
        <time>2017-08-13T08:16:19Z</time>
      </trkpt>
      <trkpt lat="42.53388" lon="-0.15822">
        <ele>1064.2</ele>
        <time>2017-08-13T08:16:21Z</time>
      </trkpt>
      <trkpt lat="42.53388" lon="-0.15828">
        <ele>1064.7</ele>
        <time>2017-08-13T08:16:23Z</time>
      </trkpt>
      <trkpt lat="42.53387" lon="-0.15835">
        <ele>1065.4</ele>
        <time>2017-08-13T08:16:25Z</time>
      </trkpt>
      <trkpt lat="42.53385" lon="-0.15842">
        <ele>1065.9</ele>
        <time>2017-08-13T08:16:27Z</time>
      </trkpt>
      <trkpt lat="42.53385" lon="-0.15846">
        <ele>1066.1</ele>
        <time>2017-08-13T08:16:28Z</time>
      </trkpt>
      <trkpt lat="42.53384" lon="-0.15849">
        <ele>1066.2</ele>
        <time>2017-08-13T08:16:29Z</time>
      </trkpt>
      <trkpt lat="42.53383" lon="-0.15853">
        <ele>1066.3</ele>
        <time>2017-08-13T08:16:30Z</time>
      </trkpt>
      <trkpt lat="42.53382" lon="-0.15857">
        <ele>1066.4</ele>
        <time>2017-08-13T08:16:31Z</time>
      </trkpt>
      <trkpt lat="42.53381" lon="-0.15861">
        <ele>1066.5</ele>
        <time>2017-08-13T08:16:32Z</time>
      </trkpt>
      <trkpt lat="42.53379" lon="-0.15864">
        <ele>1066.6</ele>
        <time>2017-08-13T08:16:33Z</time>
      </trkpt>
      <trkpt lat="42.53378" lon="-0.15868">
        <ele>1066.7</ele>
        <time>2017-08-13T08:16:34Z</time>
      </trkpt>
      <trkpt lat="42.53377" lon="-0.15872">
        <ele>1067</ele>
        <time>2017-08-13T08:16:35Z</time>
      </trkpt>
      <trkpt lat="42.53375" lon="-0.15875">
        <ele>1067.3</ele>
        <time>2017-08-13T08:16:36Z</time>
      </trkpt>
      <trkpt lat="42.53374" lon="-0.15879">
        <ele>1067.5</ele>
        <time>2017-08-13T08:16:37Z</time>
      </trkpt>
      <trkpt lat="42.53373" lon="-0.15883">
        <ele>1067.8</ele>
        <time>2017-08-13T08:16:38Z</time>
      </trkpt>
      <trkpt lat="42.53372" lon="-0.15887">
        <ele>1067.9</ele>
        <time>2017-08-13T08:16:39Z</time>
      </trkpt>
      <trkpt lat="42.53371" lon="-0.15891">
        <ele>1068</ele>
        <time>2017-08-13T08:16:40Z</time>
      </trkpt>
      <trkpt lat="42.5337" lon="-0.15895">
        <ele>1068.1</ele>
        <time>2017-08-13T08:16:41Z</time>
      </trkpt>
      <trkpt lat="42.53369" lon="-0.15898">
        <ele>1068.2</ele>
        <time>2017-08-13T08:16:42Z</time>
      </trkpt>
      <trkpt lat="42.53368" lon="-0.15903">
        <ele>1068.3</ele>
        <time>2017-08-13T08:16:43Z</time>
      </trkpt>
      <trkpt lat="42.53367" lon="-0.15907">
        <ele>1068.4</ele>
        <time>2017-08-13T08:16:44Z</time>
      </trkpt>
      <trkpt lat="42.53367" lon="-0.15913">
        <ele>1068.5</ele>
        <time>2017-08-13T08:16:45Z</time>
      </trkpt>
      <trkpt lat="42.53366" lon="-0.15919">
        <ele>1068.6</ele>
        <time>2017-08-13T08:16:46Z</time>
      </trkpt>
      <trkpt lat="42.53366" lon="-0.15924">
        <ele>1068.7</ele>
        <time>2017-08-13T08:16:47Z</time>
      </trkpt>
      <trkpt lat="42.53366" lon="-0.1593">
        <ele>1068.9</ele>
        <time>2017-08-13T08:16:48Z</time>
      </trkpt>
      <trkpt lat="42.53366" lon="-0.15935">
        <ele>1069.1</ele>
        <time>2017-08-13T08:16:49Z</time>
      </trkpt>
      <trkpt lat="42.53366" lon="-0.15941">
        <ele>1069.6</ele>
        <time>2017-08-13T08:16:50Z</time>
      </trkpt>
      <trkpt lat="42.53366" lon="-0.15946">
        <ele>1070.1</ele>
        <time>2017-08-13T08:16:51Z</time>
      </trkpt>
      <trkpt lat="42.53366" lon="-0.15951">
        <ele>1070.5</ele>
        <time>2017-08-13T08:16:52Z</time>
      </trkpt>
      <trkpt lat="42.53366" lon="-0.15956">
        <ele>1070.8</ele>
        <time>2017-08-13T08:16:53Z</time>
      </trkpt>
      <trkpt lat="42.53366" lon="-0.15962">
        <ele>1071</ele>
        <time>2017-08-13T08:16:54Z</time>
      </trkpt>
      <trkpt lat="42.53366" lon="-0.15967">
        <ele>1071.5</ele>
        <time>2017-08-13T08:16:55Z</time>
      </trkpt>
      <trkpt lat="42.53366" lon="-0.15971">
        <ele>1071.8</ele>
        <time>2017-08-13T08:16:56Z</time>
      </trkpt>
      <trkpt lat="42.53366" lon="-0.15976">
        <ele>1072.1</ele>
        <time>2017-08-13T08:16:57Z</time>
      </trkpt>
      <trkpt lat="42.53366" lon="-0.15981">
        <ele>1072.3</ele>
        <time>2017-08-13T08:16:58Z</time>
      </trkpt>
      <trkpt lat="42.53366" lon="-0.15986">
        <ele>1072.4</ele>
        <time>2017-08-13T08:16:59Z</time>
      </trkpt>
      <trkpt lat="42.53366" lon="-0.15991">
        <ele>1072.5</ele>
        <time>2017-08-13T08:17:00Z</time>
      </trkpt>
      <trkpt lat="42.53366" lon="-0.15996">
        <ele>1072.6</ele>
        <time>2017-08-13T08:17:01Z</time>
      </trkpt>
      <trkpt lat="42.53365" lon="-0.16001">
        <ele>1072.7</ele>
        <time>2017-08-13T08:17:02Z</time>
      </trkpt>
      <trkpt lat="42.53365" lon="-0.16006">
        <ele>1072.8</ele>
        <time>2017-08-13T08:17:03Z</time>
      </trkpt>
      <trkpt lat="42.53364" lon="-0.16011">
        <ele>1072.9</ele>
        <time>2017-08-13T08:17:04Z</time>
      </trkpt>
      <trkpt lat="42.53364" lon="-0.16016">
        <ele>1073</ele>
        <time>2017-08-13T08:17:05Z</time>
      </trkpt>
      <trkpt lat="42.53364" lon="-0.16021">
        <ele>1073</ele>
        <time>2017-08-13T08:17:06Z</time>
      </trkpt>
      <trkpt lat="42.53363" lon="-0.16026">
        <ele>1073.1</ele>
        <time>2017-08-13T08:17:07Z</time>
      </trkpt>
      <trkpt lat="42.53363" lon="-0.16031">
        <ele>1073.3</ele>
        <time>2017-08-13T08:17:08Z</time>
      </trkpt>
      <trkpt lat="42.53363" lon="-0.16036">
        <ele>1073.4</ele>
        <time>2017-08-13T08:17:09Z</time>
      </trkpt>
      <trkpt lat="42.53363" lon="-0.16041">
        <ele>1073.7</ele>
        <time>2017-08-13T08:17:10Z</time>
      </trkpt>
      <trkpt lat="42.53362" lon="-0.16046">
        <ele>1073.9</ele>
        <time>2017-08-13T08:17:11Z</time>
      </trkpt>
      <trkpt lat="42.53362" lon="-0.16052">
        <ele>1074.2</ele>
        <time>2017-08-13T08:17:12Z</time>
      </trkpt>
      <trkpt lat="42.53363" lon="-0.16057">
        <ele>1074.3</ele>
        <time>2017-08-13T08:17:13Z</time>
      </trkpt>
      <trkpt lat="42.53363" lon="-0.16062">
        <ele>1074.4</ele>
        <time>2017-08-13T08:17:14Z</time>
      </trkpt>
      <trkpt lat="42.53364" lon="-0.16067">
        <ele>1074.5</ele>
        <time>2017-08-13T08:17:15Z</time>
      </trkpt>
      <trkpt lat="42.53364" lon="-0.16072">
        <ele>1074.5</ele>
        <time>2017-08-13T08:17:16Z</time>
      </trkpt>
      <trkpt lat="42.53365" lon="-0.16077">
        <ele>1074.6</ele>
        <time>2017-08-13T08:17:17Z</time>
      </trkpt>
      <trkpt lat="42.53366" lon="-0.16082">
        <ele>1074.6</ele>
        <time>2017-08-13T08:17:18Z</time>
      </trkpt>
      <trkpt lat="42.53367" lon="-0.16087">
        <ele>1074.7</ele>
        <time>2017-08-13T08:17:19Z</time>
      </trkpt>
      <trkpt lat="42.53368" lon="-0.16092">
        <ele>1074.7</ele>
        <time>2017-08-13T08:17:20Z</time>
      </trkpt>
      <trkpt lat="42.53369" lon="-0.16097">
        <ele>1074.8</ele>
        <time>2017-08-13T08:17:21Z</time>
      </trkpt>
      <trkpt lat="42.5337" lon="-0.16102">
        <ele>1074.8</ele>
        <time>2017-08-13T08:17:22Z</time>
      </trkpt>
      <trkpt lat="42.5337" lon="-0.16107">
        <ele>1074.9</ele>
        <time>2017-08-13T08:17:23Z</time>
      </trkpt>
      <trkpt lat="42.53371" lon="-0.16112">
        <ele>1074.9</ele>
        <time>2017-08-13T08:17:24Z</time>
      </trkpt>
      <trkpt lat="42.53373" lon="-0.16117">
        <ele>1074.9</ele>
        <time>2017-08-13T08:17:25Z</time>
      </trkpt>
      <trkpt lat="42.53374" lon="-0.16122">
        <ele>1074.9</ele>
        <time>2017-08-13T08:17:26Z</time>
      </trkpt>
      <trkpt lat="42.53376" lon="-0.16126">
        <ele>1074.9</ele>
        <time>2017-08-13T08:17:27Z</time>
      </trkpt>
      <trkpt lat="42.53377" lon="-0.1613">
        <ele>1074.9</ele>
        <time>2017-08-13T08:17:28Z</time>
      </trkpt>
      <trkpt lat="42.53379" lon="-0.16133">
        <ele>1074.9</ele>
        <time>2017-08-13T08:17:29Z</time>
      </trkpt>
      <trkpt lat="42.53382" lon="-0.16139">
        <ele>1074.9</ele>
        <time>2017-08-13T08:17:31Z</time>
      </trkpt>
      <trkpt lat="42.53383" lon="-0.16143">
        <ele>1074.9</ele>
        <time>2017-08-13T08:17:32Z</time>
      </trkpt>
      <trkpt lat="42.53384" lon="-0.16146">
        <ele>1074.9</ele>
        <time>2017-08-13T08:17:33Z</time>
      </trkpt>
      <trkpt lat="42.53386" lon="-0.16151">
        <ele>1074.9</ele>
        <time>2017-08-13T08:17:34Z</time>
      </trkpt>
      <trkpt lat="42.53387" lon="-0.16155">
        <ele>1074.9</ele>
        <time>2017-08-13T08:17:35Z</time>
      </trkpt>
      <trkpt lat="42.53388" lon="-0.1616">
        <ele>1074.9</ele>
        <time>2017-08-13T08:17:36Z</time>
      </trkpt>
      <trkpt lat="42.5339" lon="-0.16164">
        <ele>1075</ele>
        <time>2017-08-13T08:17:37Z</time>
      </trkpt>
      <trkpt lat="42.53391" lon="-0.16169">
        <ele>1075</ele>
        <time>2017-08-13T08:17:38Z</time>
      </trkpt>
      <trkpt lat="42.53392" lon="-0.16174">
        <ele>1075</ele>
        <time>2017-08-13T08:17:39Z</time>
      </trkpt>
      <trkpt lat="42.53392" lon="-0.16179">
        <ele>1075</ele>
        <time>2017-08-13T08:17:40Z</time>
      </trkpt>
      <trkpt lat="42.53393" lon="-0.16184">
        <ele>1075</ele>
        <time>2017-08-13T08:17:41Z</time>
      </trkpt>
      <trkpt lat="42.53393" lon="-0.1619">
        <ele>1075</ele>
        <time>2017-08-13T08:17:42Z</time>
      </trkpt>
      <trkpt lat="42.53394" lon="-0.16195">
        <ele>1075</ele>
        <time>2017-08-13T08:17:43Z</time>
      </trkpt>
      <trkpt lat="42.53394" lon="-0.16201">
        <ele>1075</ele>
        <time>2017-08-13T08:17:44Z</time>
      </trkpt>
      <trkpt lat="42.53394" lon="-0.16208">
        <ele>1075</ele>
        <time>2017-08-13T08:17:45Z</time>
      </trkpt>
      <trkpt lat="42.53394" lon="-0.16215">
        <ele>1075</ele>
        <time>2017-08-13T08:17:46Z</time>
      </trkpt>
      <trkpt lat="42.53394" lon="-0.16221">
        <ele>1075</ele>
        <time>2017-08-13T08:17:47Z</time>
      </trkpt>
      <trkpt lat="42.53393" lon="-0.16228">
        <ele>1075</ele>
        <time>2017-08-13T08:17:48Z</time>
      </trkpt>
      <trkpt lat="42.53393" lon="-0.16236">
        <ele>1075</ele>
        <time>2017-08-13T08:17:49Z</time>
      </trkpt>
      <trkpt lat="42.53393" lon="-0.16243">
        <ele>1075</ele>
        <time>2017-08-13T08:17:50Z</time>
      </trkpt>
      <trkpt lat="42.53392" lon="-0.1625">
        <ele>1075</ele>
        <time>2017-08-13T08:17:51Z</time>
      </trkpt>
      <trkpt lat="42.53392" lon="-0.16257">
        <ele>1075</ele>
        <time>2017-08-13T08:17:52Z</time>
      </trkpt>
      <trkpt lat="42.53391" lon="-0.16264">
        <ele>1075</ele>
        <time>2017-08-13T08:17:53Z</time>
      </trkpt>
      <trkpt lat="42.5339" lon="-0.16271">
        <ele>1075</ele>
        <time>2017-08-13T08:17:54Z</time>
      </trkpt>
      <trkpt lat="42.5339" lon="-0.16279">
        <ele>1075</ele>
        <time>2017-08-13T08:17:55Z</time>
      </trkpt>
      <trkpt lat="42.53389" lon="-0.16287">
        <ele>1075</ele>
        <time>2017-08-13T08:17:56Z</time>
      </trkpt>
      <trkpt lat="42.53388" lon="-0.16295">
        <ele>1075.1</ele>
        <time>2017-08-13T08:17:57Z</time>
      </trkpt>
      <trkpt lat="42.53387" lon="-0.16303">
        <ele>1075.1</ele>
        <time>2017-08-13T08:17:58Z</time>
      </trkpt>
      <trkpt lat="42.53386" lon="-0.16311">
        <ele>1075.1</ele>
        <time>2017-08-13T08:17:59Z</time>
      </trkpt>
      <trkpt lat="42.53385" lon="-0.16318">
        <ele>1075.1</ele>
        <time>2017-08-13T08:18:00Z</time>
      </trkpt>
      <trkpt lat="42.53384" lon="-0.16325">
        <ele>1075.1</ele>
        <time>2017-08-13T08:18:01Z</time>
      </trkpt>
      <trkpt lat="42.53383" lon="-0.16333">
        <ele>1075.1</ele>
        <time>2017-08-13T08:18:02Z</time>
      </trkpt>
      <trkpt lat="42.53382" lon="-0.1634">
        <ele>1075.1</ele>
        <time>2017-08-13T08:18:03Z</time>
      </trkpt>
      <trkpt lat="42.53381" lon="-0.16348">
        <ele>1075.1</ele>
        <time>2017-08-13T08:18:04Z</time>
      </trkpt>
      <trkpt lat="42.53381" lon="-0.16356">
        <ele>1075.1</ele>
        <time>2017-08-13T08:18:05Z</time>
      </trkpt>
      <trkpt lat="42.53382" lon="-0.16363">
        <ele>1075.1</ele>
        <time>2017-08-13T08:18:06Z</time>
      </trkpt>
      <trkpt lat="42.53383" lon="-0.16371">
        <ele>1075.1</ele>
        <time>2017-08-13T08:18:07Z</time>
      </trkpt>
      <trkpt lat="42.53385" lon="-0.16378">
        <ele>1075.1</ele>
        <time>2017-08-13T08:18:08Z</time>
      </trkpt>
      <trkpt lat="42.53386" lon="-0.16385">
        <ele>1075.1</ele>
        <time>2017-08-13T08:18:09Z</time>
      </trkpt>
      <trkpt lat="42.53387" lon="-0.16392">
        <ele>1075.1</ele>
        <time>2017-08-13T08:18:10Z</time>
      </trkpt>
      <trkpt lat="42.53389" lon="-0.164">
        <ele>1075.1</ele>
        <time>2017-08-13T08:18:11Z</time>
      </trkpt>
      <trkpt lat="42.5339" lon="-0.16407">
        <ele>1075.2</ele>
        <time>2017-08-13T08:18:12Z</time>
      </trkpt>
      <trkpt lat="42.53391" lon="-0.16414">
        <ele>1075.2</ele>
        <time>2017-08-13T08:18:13Z</time>
      </trkpt>
      <trkpt lat="42.53391" lon="-0.16421">
        <ele>1075.2</ele>
        <time>2017-08-13T08:18:14Z</time>
      </trkpt>
      <trkpt lat="42.53392" lon="-0.16427">
        <ele>1075.2</ele>
        <time>2017-08-13T08:18:15Z</time>
      </trkpt>
      <trkpt lat="42.53393" lon="-0.16434">
        <ele>1075.2</ele>
        <time>2017-08-13T08:18:16Z</time>
      </trkpt>
      <trkpt lat="42.53393" lon="-0.1644">
        <ele>1075.2</ele>
        <time>2017-08-13T08:18:17Z</time>
      </trkpt>
      <trkpt lat="42.53393" lon="-0.16446">
        <ele>1075.2</ele>
        <time>2017-08-13T08:18:18Z</time>
      </trkpt>
      <trkpt lat="42.53394" lon="-0.16452">
        <ele>1075.3</ele>
        <time>2017-08-13T08:18:19Z</time>
      </trkpt>
      <trkpt lat="42.53394" lon="-0.16458">
        <ele>1075.3</ele>
        <time>2017-08-13T08:18:20Z</time>
      </trkpt>
      <trkpt lat="42.53394" lon="-0.16463">
        <ele>1075.3</ele>
        <time>2017-08-13T08:18:21Z</time>
      </trkpt>
      <trkpt lat="42.53393" lon="-0.16468">
        <ele>1075.3</ele>
        <time>2017-08-13T08:18:22Z</time>
      </trkpt>
      <trkpt lat="42.53393" lon="-0.16473">
        <ele>1075.4</ele>
        <time>2017-08-13T08:18:23Z</time>
      </trkpt>
      <trkpt lat="42.53393" lon="-0.16478">
        <ele>1075.4</ele>
        <time>2017-08-13T08:18:24Z</time>
      </trkpt>
      <trkpt lat="42.53392" lon="-0.16483">
        <ele>1075.4</ele>
        <time>2017-08-13T08:18:25Z</time>
      </trkpt>
      <trkpt lat="42.53392" lon="-0.16489">
        <ele>1075.5</ele>
        <time>2017-08-13T08:18:26Z</time>
      </trkpt>
      <trkpt lat="42.53392" lon="-0.16494">
        <ele>1075.5</ele>
        <time>2017-08-13T08:18:27Z</time>
      </trkpt>
      <trkpt lat="42.53392" lon="-0.16499">
        <ele>1075.6</ele>
        <time>2017-08-13T08:18:28Z</time>
      </trkpt>
      <trkpt lat="42.53393" lon="-0.16504">
        <ele>1075.6</ele>
        <time>2017-08-13T08:18:29Z</time>
      </trkpt>
      <trkpt lat="42.53394" lon="-0.16509">
        <ele>1075.7</ele>
        <time>2017-08-13T08:18:30Z</time>
      </trkpt>
      <trkpt lat="42.53394" lon="-0.16514">
        <ele>1075.8</ele>
        <time>2017-08-13T08:18:31Z</time>
      </trkpt>
      <trkpt lat="42.53395" lon="-0.16519">
        <ele>1075.9</ele>
        <time>2017-08-13T08:18:32Z</time>
      </trkpt>
      <trkpt lat="42.53396" lon="-0.16524">
        <ele>1075.9</ele>
        <time>2017-08-13T08:18:33Z</time>
      </trkpt>
      <trkpt lat="42.53397" lon="-0.16528">
        <ele>1076.1</ele>
        <time>2017-08-13T08:18:34Z</time>
      </trkpt>
      <trkpt lat="42.53399" lon="-0.16533">
        <ele>1076.3</ele>
        <time>2017-08-13T08:18:35Z</time>
      </trkpt>
      <trkpt lat="42.534" lon="-0.16537">
        <ele>1076.6</ele>
        <time>2017-08-13T08:18:36Z</time>
      </trkpt>
      <trkpt lat="42.53401" lon="-0.16542">
        <ele>1076.8</ele>
        <time>2017-08-13T08:18:37Z</time>
      </trkpt>
      <trkpt lat="42.53402" lon="-0.16547">
        <ele>1076.9</ele>
        <time>2017-08-13T08:18:38Z</time>
      </trkpt>
      <trkpt lat="42.53403" lon="-0.16551">
        <ele>1076.9</ele>
        <time>2017-08-13T08:18:39Z</time>
      </trkpt>
      <trkpt lat="42.53404" lon="-0.16556">
        <ele>1077</ele>
        <time>2017-08-13T08:18:40Z</time>
      </trkpt>
      <trkpt lat="42.53405" lon="-0.16561">
        <ele>1077.1</ele>
        <time>2017-08-13T08:18:41Z</time>
      </trkpt>
      <trkpt lat="42.53405" lon="-0.16566">
        <ele>1077.1</ele>
        <time>2017-08-13T08:18:42Z</time>
      </trkpt>
      <trkpt lat="42.53406" lon="-0.16572">
        <ele>1077.2</ele>
        <time>2017-08-13T08:18:43Z</time>
      </trkpt>
      <trkpt lat="42.53405" lon="-0.16577">
        <ele>1077.2</ele>
        <time>2017-08-13T08:18:44Z</time>
      </trkpt>
      <trkpt lat="42.53405" lon="-0.16583">
        <ele>1077.3</ele>
        <time>2017-08-13T08:18:45Z</time>
      </trkpt>
      <trkpt lat="42.53404" lon="-0.16589">
        <ele>1077.3</ele>
        <time>2017-08-13T08:18:46Z</time>
      </trkpt>
      <trkpt lat="42.53403" lon="-0.16596">
        <ele>1077.4</ele>
        <time>2017-08-13T08:18:47Z</time>
      </trkpt>
      <trkpt lat="42.53402" lon="-0.16602">
        <ele>1077.4</ele>
        <time>2017-08-13T08:18:48Z</time>
      </trkpt>
      <trkpt lat="42.534" lon="-0.16607">
        <ele>1077.5</ele>
        <time>2017-08-13T08:18:49Z</time>
      </trkpt>
      <trkpt lat="42.53398" lon="-0.16613">
        <ele>1077.5</ele>
        <time>2017-08-13T08:18:50Z</time>
      </trkpt>
      <trkpt lat="42.53396" lon="-0.16618">
        <ele>1077.6</ele>
        <time>2017-08-13T08:18:51Z</time>
      </trkpt>
      <trkpt lat="42.53394" lon="-0.16623">
        <ele>1077.7</ele>
        <time>2017-08-13T08:18:52Z</time>
      </trkpt>
      <trkpt lat="42.53392" lon="-0.16627">
        <ele>1077.8</ele>
        <time>2017-08-13T08:18:53Z</time>
      </trkpt>
      <trkpt lat="42.5339" lon="-0.16632">
        <ele>1077.9</ele>
        <time>2017-08-13T08:18:54Z</time>
      </trkpt>
      <trkpt lat="42.53388" lon="-0.16637">
        <ele>1078</ele>
        <time>2017-08-13T08:18:55Z</time>
      </trkpt>
      <trkpt lat="42.53386" lon="-0.16641">
        <ele>1078</ele>
        <time>2017-08-13T08:18:56Z</time>
      </trkpt>
      <trkpt lat="42.53383" lon="-0.16646">
        <ele>1078</ele>
        <time>2017-08-13T08:18:57Z</time>
      </trkpt>
      <trkpt lat="42.53381" lon="-0.16651">
        <ele>1078</ele>
        <time>2017-08-13T08:18:58Z</time>
      </trkpt>
      <trkpt lat="42.53379" lon="-0.16655">
        <ele>1078</ele>
        <time>2017-08-13T08:18:59Z</time>
      </trkpt>
      <trkpt lat="42.53377" lon="-0.1666">
        <ele>1078</ele>
        <time>2017-08-13T08:19:00Z</time>
      </trkpt>
      <trkpt lat="42.53376" lon="-0.16665">
        <ele>1078</ele>
        <time>2017-08-13T08:19:01Z</time>
      </trkpt>
      <trkpt lat="42.53376" lon="-0.16671">
        <ele>1078</ele>
        <time>2017-08-13T08:19:02Z</time>
      </trkpt>
      <trkpt lat="42.53376" lon="-0.16677">
        <ele>1078</ele>
        <time>2017-08-13T08:19:03Z</time>
      </trkpt>
      <trkpt lat="42.53376" lon="-0.16682">
        <ele>1078</ele>
        <time>2017-08-13T08:19:04Z</time>
      </trkpt>
      <trkpt lat="42.53377" lon="-0.16688">
        <ele>1078</ele>
        <time>2017-08-13T08:19:05Z</time>
      </trkpt>
      <trkpt lat="42.53378" lon="-0.16693">
        <ele>1078</ele>
        <time>2017-08-13T08:19:06Z</time>
      </trkpt>
      <trkpt lat="42.53379" lon="-0.16698">
        <ele>1078</ele>
        <time>2017-08-13T08:19:07Z</time>
      </trkpt>
      <trkpt lat="42.5338" lon="-0.16702">
        <ele>1078</ele>
        <time>2017-08-13T08:19:08Z</time>
      </trkpt>
      <trkpt lat="42.53381" lon="-0.16707">
        <ele>1078</ele>
        <time>2017-08-13T08:19:10Z</time>
      </trkpt>
      <trkpt lat="42.53382" lon="-0.16711">
        <ele>1078</ele>
        <time>2017-08-13T08:19:12Z</time>
      </trkpt>
      <trkpt lat="42.53384" lon="-0.16715">
        <ele>1078</ele>
        <time>2017-08-13T08:19:15Z</time>
      </trkpt>
      <trkpt lat="42.53386" lon="-0.16718">
        <ele>1078</ele>
        <time>2017-08-13T08:19:18Z</time>
      </trkpt>
      <trkpt lat="42.53381" lon="-0.16716">
        <ele>1078</ele>
        <time>2017-08-13T08:19:21Z</time>
      </trkpt>
      <trkpt lat="42.5338" lon="-0.16711">
        <ele>1078</ele>
        <time>2017-08-13T08:19:22Z</time>
      </trkpt>
      <trkpt lat="42.5338" lon="-0.16706">
        <ele>1078</ele>
        <time>2017-08-13T08:19:23Z</time>
      </trkpt>
      <trkpt lat="42.5338" lon="-0.16699">
        <ele>1078</ele>
        <time>2017-08-13T08:19:24Z</time>
      </trkpt>
      <trkpt lat="42.5338" lon="-0.16693">
        <ele>1078</ele>
        <time>2017-08-13T08:19:25Z</time>
      </trkpt>
      <trkpt lat="42.53379" lon="-0.16688">
        <ele>1078</ele>
        <time>2017-08-13T08:19:26Z</time>
      </trkpt>
      <trkpt lat="42.53377" lon="-0.16682">
        <ele>1078</ele>
        <time>2017-08-13T08:19:27Z</time>
      </trkpt>
      <trkpt lat="42.53374" lon="-0.16677">
        <ele>1079.5</ele>
        <time>2017-08-13T08:19:28Z</time>
      </trkpt>
      <trkpt lat="42.53371" lon="-0.16671">
        <ele>1080.6</ele>
        <time>2017-08-13T08:19:29Z</time>
      </trkpt>
      <trkpt lat="42.53368" lon="-0.16668">
        <ele>1081.7</ele>
        <time>2017-08-13T08:19:30Z</time>
      </trkpt>
      <trkpt lat="42.53364" lon="-0.16665">
        <ele>1082.7</ele>
        <time>2017-08-13T08:19:32Z</time>
      </trkpt>
      <trkpt lat="42.53362" lon="-0.16661">
        <ele>1083.2</ele>
        <time>2017-08-13T08:19:34Z</time>
      </trkpt>
      <trkpt lat="42.53361" lon="-0.16657">
        <ele>1083.6</ele>
        <time>2017-08-13T08:19:36Z</time>
      </trkpt>
      <trkpt lat="42.53361" lon="-0.16652">
        <ele>1084.5</ele>
        <time>2017-08-13T08:19:38Z</time>
      </trkpt>
      <trkpt lat="42.53362" lon="-0.16647">
        <ele>1085.2</ele>
        <time>2017-08-13T08:19:40Z</time>
      </trkpt>
      <trkpt lat="42.53362" lon="-0.16642">
        <ele>1085.5</ele>
        <time>2017-08-13T08:19:42Z</time>
      </trkpt>
      <trkpt lat="42.53362" lon="-0.16637">
        <ele>1085.8</ele>
        <time>2017-08-13T08:19:44Z</time>
      </trkpt>
      <trkpt lat="42.5336" lon="-0.16631">
        <ele>1086</ele>
        <time>2017-08-13T08:19:46Z</time>
      </trkpt>
      <trkpt lat="42.53358" lon="-0.16626">
        <ele>1086.1</ele>
        <time>2017-08-13T08:19:48Z</time>
      </trkpt>
      <trkpt lat="42.53357" lon="-0.16621">
        <ele>1086.1</ele>
        <time>2017-08-13T08:19:50Z</time>
      </trkpt>
      <trkpt lat="42.53355" lon="-0.16616">
        <ele>1086.2</ele>
        <time>2017-08-13T08:19:52Z</time>
      </trkpt>
      <trkpt lat="42.53354" lon="-0.1661">
        <ele>1086.2</ele>
        <time>2017-08-13T08:19:54Z</time>
      </trkpt>
      <trkpt lat="42.53353" lon="-0.16605">
        <ele>1086.1</ele>
        <time>2017-08-13T08:19:56Z</time>
      </trkpt>
      <trkpt lat="42.53352" lon="-0.16599">
        <ele>1085.9</ele>
        <time>2017-08-13T08:19:58Z</time>
      </trkpt>
      <trkpt lat="42.53351" lon="-0.16594">
        <ele>1085.7</ele>
        <time>2017-08-13T08:20:00Z</time>
      </trkpt>
      <trkpt lat="42.53351" lon="-0.16588">
        <ele>1085.5</ele>
        <time>2017-08-13T08:20:02Z</time>
      </trkpt>
      <trkpt lat="42.53351" lon="-0.16583">
        <ele>1085.3</ele>
        <time>2017-08-13T08:20:04Z</time>
      </trkpt>
      <trkpt lat="42.5335" lon="-0.16578">
        <ele>1085.1</ele>
        <time>2017-08-13T08:20:06Z</time>
      </trkpt>
      <trkpt lat="42.53349" lon="-0.16572">
        <ele>1085</ele>
        <time>2017-08-13T08:20:08Z</time>
      </trkpt>
      <trkpt lat="42.53348" lon="-0.16568">
        <ele>1085.1</ele>
        <time>2017-08-13T08:20:10Z</time>
      </trkpt>
      <trkpt lat="42.53348" lon="-0.16564">
        <ele>1085.2</ele>
        <time>2017-08-13T08:20:12Z</time>
      </trkpt>
      <trkpt lat="42.53347" lon="-0.16559">
        <ele>1085.2</ele>
        <time>2017-08-13T08:20:14Z</time>
      </trkpt>
      <trkpt lat="42.53345" lon="-0.16555">
        <ele>1085.5</ele>
        <time>2017-08-13T08:20:16Z</time>
      </trkpt>
      <trkpt lat="42.53343" lon="-0.16551">
        <ele>1085.9</ele>
        <time>2017-08-13T08:20:18Z</time>
      </trkpt>
      <trkpt lat="42.53342" lon="-0.16547">
        <ele>1086.3</ele>
        <time>2017-08-13T08:20:20Z</time>
      </trkpt>
      <trkpt lat="42.53341" lon="-0.16542">
        <ele>1086.7</ele>
        <time>2017-08-13T08:20:22Z</time>
      </trkpt>
      <trkpt lat="42.53339" lon="-0.16537">
        <ele>1087.1</ele>
        <time>2017-08-13T08:20:24Z</time>
      </trkpt>
      <trkpt lat="42.53336" lon="-0.16534">
        <ele>1087.7</ele>
        <time>2017-08-13T08:20:26Z</time>
      </trkpt>
      <trkpt lat="42.53335" lon="-0.1653">
        <ele>1088.4</ele>
        <time>2017-08-13T08:20:28Z</time>
      </trkpt>
      <trkpt lat="42.53334" lon="-0.16526">
        <ele>1089.1</ele>
        <time>2017-08-13T08:20:30Z</time>
      </trkpt>
      <trkpt lat="42.53335" lon="-0.16521">
        <ele>1089.6</ele>
        <time>2017-08-13T08:20:32Z</time>
      </trkpt>
      <trkpt lat="42.53335" lon="-0.16516">
        <ele>1089.9</ele>
        <time>2017-08-13T08:20:34Z</time>
      </trkpt>
      <trkpt lat="42.53335" lon="-0.16511">
        <ele>1090.2</ele>
        <time>2017-08-13T08:20:36Z</time>
      </trkpt>
      <trkpt lat="42.53335" lon="-0.16506">
        <ele>1090.6</ele>
        <time>2017-08-13T08:20:38Z</time>
      </trkpt>
      <trkpt lat="42.53333" lon="-0.16501">
        <ele>1091.5</ele>
        <time>2017-08-13T08:20:40Z</time>
      </trkpt>
      <trkpt lat="42.5333" lon="-0.16496">
        <ele>1091.9</ele>
        <time>2017-08-13T08:20:42Z</time>
      </trkpt>
      <trkpt lat="42.53328" lon="-0.16492">
        <ele>1092.2</ele>
        <time>2017-08-13T08:20:44Z</time>
      </trkpt>
      <trkpt lat="42.53328" lon="-0.16487">
        <ele>1092.3</ele>
        <time>2017-08-13T08:20:46Z</time>
      </trkpt>
      <trkpt lat="42.53328" lon="-0.16483">
        <ele>1092.5</ele>
        <time>2017-08-13T08:20:48Z</time>
      </trkpt>
      <trkpt lat="42.53328" lon="-0.16478">
        <ele>1092.6</ele>
        <time>2017-08-13T08:20:50Z</time>
      </trkpt>
      <trkpt lat="42.53328" lon="-0.16474">
        <ele>1092.8</ele>
        <time>2017-08-13T08:20:52Z</time>
      </trkpt>
      <trkpt lat="42.53327" lon="-0.1647">
        <ele>1092.9</ele>
        <time>2017-08-13T08:20:54Z</time>
      </trkpt>
      <trkpt lat="42.53326" lon="-0.16465">
        <ele>1092.9</ele>
        <time>2017-08-13T08:20:56Z</time>
      </trkpt>
      <trkpt lat="42.53325" lon="-0.1646">
        <ele>1092.9</ele>
        <time>2017-08-13T08:20:58Z</time>
      </trkpt>
      <trkpt lat="42.53322" lon="-0.16456">
        <ele>1093</ele>
        <time>2017-08-13T08:21:00Z</time>
      </trkpt>
      <trkpt lat="42.53318" lon="-0.16452">
        <ele>1093.1</ele>
        <time>2017-08-13T08:21:02Z</time>
      </trkpt>
      <trkpt lat="42.53315" lon="-0.16448">
        <ele>1093.8</ele>
        <time>2017-08-13T08:21:04Z</time>
      </trkpt>
      <trkpt lat="42.53313" lon="-0.16443">
        <ele>1094.3</ele>
        <time>2017-08-13T08:21:06Z</time>
      </trkpt>
      <trkpt lat="42.53312" lon="-0.16437">
        <ele>1094.9</ele>
        <time>2017-08-13T08:21:08Z</time>
      </trkpt>
      <trkpt lat="42.53313" lon="-0.16432">
        <ele>1095.6</ele>
        <time>2017-08-13T08:21:10Z</time>
      </trkpt>
      <trkpt lat="42.53313" lon="-0.16427">
        <ele>1096.8</ele>
        <time>2017-08-13T08:21:12Z</time>
      </trkpt>
      <trkpt lat="42.53313" lon="-0.16421">
        <ele>1097.3</ele>
        <time>2017-08-13T08:21:14Z</time>
      </trkpt>
      <trkpt lat="42.53313" lon="-0.16417">
        <ele>1097.6</ele>
        <time>2017-08-13T08:21:16Z</time>
      </trkpt>
      <trkpt lat="42.53312" lon="-0.16413">
        <ele>1097.9</ele>
        <time>2017-08-13T08:21:18Z</time>
      </trkpt>
      <trkpt lat="42.53311" lon="-0.16408">
        <ele>1098.7</ele>
        <time>2017-08-13T08:21:20Z</time>
      </trkpt>
      <trkpt lat="42.5331" lon="-0.16404">
        <ele>1099.5</ele>
        <time>2017-08-13T08:21:22Z</time>
      </trkpt>
      <trkpt lat="42.5331" lon="-0.16399">
        <ele>1099.9</ele>
        <time>2017-08-13T08:21:25Z</time>
      </trkpt>
      <trkpt lat="42.5331" lon="-0.16394">
        <ele>1100.3</ele>
        <time>2017-08-13T08:21:27Z</time>
      </trkpt>
      <trkpt lat="42.53309" lon="-0.1639">
        <ele>1100.7</ele>
        <time>2017-08-13T08:21:29Z</time>
      </trkpt>
      <trkpt lat="42.53307" lon="-0.16386">
        <ele>1101.1</ele>
        <time>2017-08-13T08:21:31Z</time>
      </trkpt>
      <trkpt lat="42.53305" lon="-0.16382">
        <ele>1101.7</ele>
        <time>2017-08-13T08:21:33Z</time>
      </trkpt>
      <trkpt lat="42.53303" lon="-0.16377">
        <ele>1102.6</ele>
        <time>2017-08-13T08:21:35Z</time>
      </trkpt>
      <trkpt lat="42.53302" lon="-0.16372">
        <ele>1103</ele>
        <time>2017-08-13T08:21:37Z</time>
      </trkpt>
      <trkpt lat="42.53301" lon="-0.16368">
        <ele>1103.2</ele>
        <time>2017-08-13T08:21:39Z</time>
      </trkpt>
      <trkpt lat="42.533" lon="-0.16363">
        <ele>1103.5</ele>
        <time>2017-08-13T08:21:41Z</time>
      </trkpt>
      <trkpt lat="42.53298" lon="-0.16358">
        <ele>1103.7</ele>
        <time>2017-08-13T08:21:43Z</time>
      </trkpt>
      <trkpt lat="42.53296" lon="-0.16352">
        <ele>1103.7</ele>
        <time>2017-08-13T08:21:45Z</time>
      </trkpt>
      <trkpt lat="42.53295" lon="-0.16346">
        <ele>1103.5</ele>
        <time>2017-08-13T08:21:47Z</time>
      </trkpt>
      <trkpt lat="42.53296" lon="-0.16341">
        <ele>1103.1</ele>
        <time>2017-08-13T08:21:49Z</time>
      </trkpt>
      <trkpt lat="42.53295" lon="-0.16335">
        <ele>1102.5</ele>
        <time>2017-08-13T08:21:51Z</time>
      </trkpt>
      <trkpt lat="42.53294" lon="-0.16329">
        <ele>1101.7</ele>
        <time>2017-08-13T08:21:53Z</time>
      </trkpt>
      <trkpt lat="42.53294" lon="-0.16323">
        <ele>1101.1</ele>
        <time>2017-08-13T08:21:55Z</time>
      </trkpt>
      <trkpt lat="42.53294" lon="-0.16318">
        <ele>1100.8</ele>
        <time>2017-08-13T08:21:56Z</time>
      </trkpt>
      <trkpt lat="42.53295" lon="-0.16314">
        <ele>1100.6</ele>
        <time>2017-08-13T08:21:57Z</time>
      </trkpt>
      <trkpt lat="42.53296" lon="-0.16309">
        <ele>1100.3</ele>
        <time>2017-08-13T08:21:58Z</time>
      </trkpt>
      <trkpt lat="42.53297" lon="-0.16304">
        <ele>1100</ele>
        <time>2017-08-13T08:21:59Z</time>
      </trkpt>
      <trkpt lat="42.53298" lon="-0.163">
        <ele>1099.8</ele>
        <time>2017-08-13T08:22:00Z</time>
      </trkpt>
      <trkpt lat="42.533" lon="-0.16295">
        <ele>1099.6</ele>
        <time>2017-08-13T08:22:01Z</time>
      </trkpt>
      <trkpt lat="42.53301" lon="-0.16292">
        <ele>1099.5</ele>
        <time>2017-08-13T08:22:02Z</time>
      </trkpt>
      <trkpt lat="42.53302" lon="-0.16288">
        <ele>1099.4</ele>
        <time>2017-08-13T08:22:03Z</time>
      </trkpt>
      <trkpt lat="42.53302" lon="-0.16281">
        <ele>1099.2</ele>
        <time>2017-08-13T08:22:05Z</time>
      </trkpt>
      <trkpt lat="42.53302" lon="-0.16275">
        <ele>1099.1</ele>
        <time>2017-08-13T08:22:07Z</time>
      </trkpt>
      <trkpt lat="42.53299" lon="-0.16271">
        <ele>1099.1</ele>
        <time>2017-08-13T08:22:09Z</time>
      </trkpt>
      <trkpt lat="42.53297" lon="-0.16267">
        <ele>1099.2</ele>
        <time>2017-08-13T08:22:11Z</time>
      </trkpt>
      <trkpt lat="42.53295" lon="-0.16263">
        <ele>1099.6</ele>
        <time>2017-08-13T08:22:13Z</time>
      </trkpt>
      <trkpt lat="42.53292" lon="-0.16258">
        <ele>1100.3</ele>
        <time>2017-08-13T08:22:15Z</time>
      </trkpt>
      <trkpt lat="42.5329" lon="-0.16252">
        <ele>1101</ele>
        <time>2017-08-13T08:22:17Z</time>
      </trkpt>
      <trkpt lat="42.53289" lon="-0.16246">
        <ele>1101.5</ele>
        <time>2017-08-13T08:22:19Z</time>
      </trkpt>
      <trkpt lat="42.53288" lon="-0.16241">
        <ele>1101.9</ele>
        <time>2017-08-13T08:22:21Z</time>
      </trkpt>
      <trkpt lat="42.53286" lon="-0.16237">
        <ele>1102.3</ele>
        <time>2017-08-13T08:22:23Z</time>
      </trkpt>
      <trkpt lat="42.53283" lon="-0.16233">
        <ele>1102.8</ele>
        <time>2017-08-13T08:22:25Z</time>
      </trkpt>
      <trkpt lat="42.53282" lon="-0.16229">
        <ele>1103.3</ele>
        <time>2017-08-13T08:22:27Z</time>
      </trkpt>
      <trkpt lat="42.53282" lon="-0.16225">
        <ele>1103.9</ele>
        <time>2017-08-13T08:22:29Z</time>
      </trkpt>
      <trkpt lat="42.53281" lon="-0.1622">
        <ele>1104.9</ele>
        <time>2017-08-13T08:22:31Z</time>
      </trkpt>
      <trkpt lat="42.53279" lon="-0.16217">
        <ele>1105.7</ele>
        <time>2017-08-13T08:22:32Z</time>
      </trkpt>
      <trkpt lat="42.53276" lon="-0.16212">
        <ele>1106.5</ele>
        <time>2017-08-13T08:22:34Z</time>
      </trkpt>
      <trkpt lat="42.53273" lon="-0.16207">
        <ele>1107</ele>
        <time>2017-08-13T08:22:36Z</time>
      </trkpt>
      <trkpt lat="42.53271" lon="-0.16202">
        <ele>1107.5</ele>
        <time>2017-08-13T08:22:38Z</time>
      </trkpt>
      <trkpt lat="42.5327" lon="-0.16199">
        <ele>1107.8</ele>
        <time>2017-08-13T08:22:39Z</time>
      </trkpt>
      <trkpt lat="42.53269" lon="-0.16193">
        <ele>1108.3</ele>
        <time>2017-08-13T08:22:41Z</time>
      </trkpt>
      <trkpt lat="42.53269" lon="-0.16186">
        <ele>1109</ele>
        <time>2017-08-13T08:22:43Z</time>
      </trkpt>
      <trkpt lat="42.53267" lon="-0.1618">
        <ele>1109.7</ele>
        <time>2017-08-13T08:22:45Z</time>
      </trkpt>
      <trkpt lat="42.53266" lon="-0.16176">
        <ele>1110.4</ele>
        <time>2017-08-13T08:22:47Z</time>
      </trkpt>
      <trkpt lat="42.53265" lon="-0.16172">
        <ele>1110.6</ele>
        <time>2017-08-13T08:22:49Z</time>
      </trkpt>
      <trkpt lat="42.53263" lon="-0.16167">
        <ele>1110.9</ele>
        <time>2017-08-13T08:22:51Z</time>
      </trkpt>
      <trkpt lat="42.53264" lon="-0.16163">
        <ele>1111.5</ele>
        <time>2017-08-13T08:22:53Z</time>
      </trkpt>
      <trkpt lat="42.53265" lon="-0.16157">
        <ele>1112.2</ele>
        <time>2017-08-13T08:22:56Z</time>
      </trkpt>
      <trkpt lat="42.53264" lon="-0.16152">
        <ele>1112.6</ele>
        <time>2017-08-13T08:22:58Z</time>
      </trkpt>
      <trkpt lat="42.53262" lon="-0.16147">
        <ele>1113.1</ele>
        <time>2017-08-13T08:23:00Z</time>
      </trkpt>
      <trkpt lat="42.53259" lon="-0.16143">
        <ele>1113.7</ele>
        <time>2017-08-13T08:23:02Z</time>
      </trkpt>
      <trkpt lat="42.53255" lon="-0.16139">
        <ele>1114.7</ele>
        <time>2017-08-13T08:23:04Z</time>
      </trkpt>
      <trkpt lat="42.53252" lon="-0.16136">
        <ele>1115.2</ele>
        <time>2017-08-13T08:23:06Z</time>
      </trkpt>
      <trkpt lat="42.53251" lon="-0.16131">
        <ele>1115.6</ele>
        <time>2017-08-13T08:23:09Z</time>
      </trkpt>
      <trkpt lat="42.53249" lon="-0.16126">
        <ele>1116.3</ele>
        <time>2017-08-13T08:23:11Z</time>
      </trkpt>
      <trkpt lat="42.53247" lon="-0.16123">
        <ele>1117</ele>
        <time>2017-08-13T08:23:13Z</time>
      </trkpt>
      <trkpt lat="42.53244" lon="-0.1612">
        <ele>1117.6</ele>
        <time>2017-08-13T08:23:15Z</time>
      </trkpt>
      <trkpt lat="42.53242" lon="-0.16115">
        <ele>1118</ele>
        <time>2017-08-13T08:23:17Z</time>
      </trkpt>
      <trkpt lat="42.53239" lon="-0.16111">
        <ele>1118.4</ele>
        <time>2017-08-13T08:23:19Z</time>
      </trkpt>
      <trkpt lat="42.53236" lon="-0.16108">
        <ele>1118.7</ele>
        <time>2017-08-13T08:23:21Z</time>
      </trkpt>
      <trkpt lat="42.53234" lon="-0.16103">
        <ele>1119.1</ele>
        <time>2017-08-13T08:23:23Z</time>
      </trkpt>
      <trkpt lat="42.53232" lon="-0.16098">
        <ele>1119.6</ele>
        <time>2017-08-13T08:23:25Z</time>
      </trkpt>
      <trkpt lat="42.53231" lon="-0.16092">
        <ele>1119.6</ele>
        <time>2017-08-13T08:23:27Z</time>
      </trkpt>
      <trkpt lat="42.53231" lon="-0.16087">
        <ele>1119.6</ele>
        <time>2017-08-13T08:23:29Z</time>
      </trkpt>
      <trkpt lat="42.53232" lon="-0.16081">
        <ele>1119.5</ele>
        <time>2017-08-13T08:23:31Z</time>
      </trkpt>
      <trkpt lat="42.53232" lon="-0.16076">
        <ele>1119.4</ele>
        <time>2017-08-13T08:23:33Z</time>
      </trkpt>
      <trkpt lat="42.53234" lon="-0.16073">
        <ele>1119.3</ele>
        <time>2017-08-13T08:23:35Z</time>
      </trkpt>
      <trkpt lat="42.53236" lon="-0.16068">
        <ele>1119.4</ele>
        <time>2017-08-13T08:23:37Z</time>
      </trkpt>
      <trkpt lat="42.53235" lon="-0.16063">
        <ele>1119.6</ele>
        <time>2017-08-13T08:23:39Z</time>
      </trkpt>
      <trkpt lat="42.53233" lon="-0.16058">
        <ele>1119.8</ele>
        <time>2017-08-13T08:23:41Z</time>
      </trkpt>
      <trkpt lat="42.5323" lon="-0.16053">
        <ele>1120</ele>
        <time>2017-08-13T08:23:43Z</time>
      </trkpt>
      <trkpt lat="42.53226" lon="-0.16047">
        <ele>1120.4</ele>
        <time>2017-08-13T08:23:45Z</time>
      </trkpt>
      <trkpt lat="42.53224" lon="-0.16042">
        <ele>1120.8</ele>
        <time>2017-08-13T08:23:47Z</time>
      </trkpt>
      <trkpt lat="42.53224" lon="-0.16037">
        <ele>1121</ele>
        <time>2017-08-13T08:23:49Z</time>
      </trkpt>
      <trkpt lat="42.53224" lon="-0.16031">
        <ele>1121.1</ele>
        <time>2017-08-13T08:23:51Z</time>
      </trkpt>
      <trkpt lat="42.53223" lon="-0.16027">
        <ele>1121.2</ele>
        <time>2017-08-13T08:23:53Z</time>
      </trkpt>
      <trkpt lat="42.53223" lon="-0.16022">
        <ele>1121.3</ele>
        <time>2017-08-13T08:23:55Z</time>
      </trkpt>
      <trkpt lat="42.53224" lon="-0.16017">
        <ele>1121.7</ele>
        <time>2017-08-13T08:23:57Z</time>
      </trkpt>
      <trkpt lat="42.53224" lon="-0.16012">
        <ele>1122.1</ele>
        <time>2017-08-13T08:23:59Z</time>
      </trkpt>
      <trkpt lat="42.53225" lon="-0.16007">
        <ele>1122.3</ele>
        <time>2017-08-13T08:24:01Z</time>
      </trkpt>
      <trkpt lat="42.53225" lon="-0.16">
        <ele>1122.7</ele>
        <time>2017-08-13T08:24:03Z</time>
      </trkpt>
      <trkpt lat="42.53225" lon="-0.15994">
        <ele>1123</ele>
        <time>2017-08-13T08:24:05Z</time>
      </trkpt>
      <trkpt lat="42.53226" lon="-0.15988">
        <ele>1123.4</ele>
        <time>2017-08-13T08:24:07Z</time>
      </trkpt>
      <trkpt lat="42.53226" lon="-0.15982">
        <ele>1123.7</ele>
        <time>2017-08-13T08:24:09Z</time>
      </trkpt>
      <trkpt lat="42.53226" lon="-0.15975">
        <ele>1124.3</ele>
        <time>2017-08-13T08:24:11Z</time>
      </trkpt>
      <trkpt lat="42.53224" lon="-0.15969">
        <ele>1125.3</ele>
        <time>2017-08-13T08:24:13Z</time>
      </trkpt>
      <trkpt lat="42.53221" lon="-0.15964">
        <ele>1126</ele>
        <time>2017-08-13T08:24:15Z</time>
      </trkpt>
      <trkpt lat="42.53219" lon="-0.15961">
        <ele>1126.3</ele>
        <time>2017-08-13T08:24:16Z</time>
      </trkpt>
      <trkpt lat="42.53217" lon="-0.15957">
        <ele>1126.5</ele>
        <time>2017-08-13T08:24:17Z</time>
      </trkpt>
      <trkpt lat="42.53216" lon="-0.15952">
        <ele>1126.9</ele>
        <time>2017-08-13T08:24:18Z</time>
      </trkpt>
      <trkpt lat="42.53214" lon="-0.15946">
        <ele>1127.2</ele>
        <time>2017-08-13T08:24:19Z</time>
      </trkpt>
      <trkpt lat="42.53213" lon="-0.1594">
        <ele>1127.8</ele>
        <time>2017-08-13T08:24:20Z</time>
      </trkpt>
      <trkpt lat="42.53211" lon="-0.15932">
        <ele>1128.4</ele>
        <time>2017-08-13T08:24:21Z</time>
      </trkpt>
      <trkpt lat="42.5321" lon="-0.15925">
        <ele>1129</ele>
        <time>2017-08-13T08:24:22Z</time>
      </trkpt>
      <trkpt lat="42.53209" lon="-0.15918">
        <ele>1129.6</ele>
        <time>2017-08-13T08:24:23Z</time>
      </trkpt>
      <trkpt lat="42.53209" lon="-0.1591">
        <ele>1130.1</ele>
        <time>2017-08-13T08:24:24Z</time>
      </trkpt>
      <trkpt lat="42.53209" lon="-0.15904">
        <ele>1130.5</ele>
        <time>2017-08-13T08:24:25Z</time>
      </trkpt>
      <trkpt lat="42.53208" lon="-0.15898">
        <ele>1131</ele>
        <time>2017-08-13T08:24:26Z</time>
      </trkpt>
      <trkpt lat="42.53207" lon="-0.15893">
        <ele>1131.4</ele>
        <time>2017-08-13T08:24:27Z</time>
      </trkpt>
      <trkpt lat="42.53207" lon="-0.15887">
        <ele>1131.8</ele>
        <time>2017-08-13T08:24:28Z</time>
      </trkpt>
      <trkpt lat="42.53205" lon="-0.15881">
        <ele>1132.2</ele>
        <time>2017-08-13T08:24:29Z</time>
      </trkpt>
      <trkpt lat="42.53204" lon="-0.15876">
        <ele>1132.8</ele>
        <time>2017-08-13T08:24:30Z</time>
      </trkpt>
      <trkpt lat="42.53202" lon="-0.15871">
        <ele>1133.4</ele>
        <time>2017-08-13T08:24:31Z</time>
      </trkpt>
      <trkpt lat="42.53201" lon="-0.15866">
        <ele>1134</ele>
        <time>2017-08-13T08:24:32Z</time>
      </trkpt>
      <trkpt lat="42.53199" lon="-0.1586">
        <ele>1134.7</ele>
        <time>2017-08-13T08:24:33Z</time>
      </trkpt>
      <trkpt lat="42.53198" lon="-0.15855">
        <ele>1135.3</ele>
        <time>2017-08-13T08:24:34Z</time>
      </trkpt>
      <trkpt lat="42.53198" lon="-0.15849">
        <ele>1136</ele>
        <time>2017-08-13T08:24:35Z</time>
      </trkpt>
      <trkpt lat="42.53197" lon="-0.15845">
        <ele>1136.6</ele>
        <time>2017-08-13T08:24:36Z</time>
      </trkpt>
      <trkpt lat="42.53197" lon="-0.1584">
        <ele>1137.1</ele>
        <time>2017-08-13T08:24:37Z</time>
      </trkpt>
      <trkpt lat="42.53197" lon="-0.15836">
        <ele>1137.5</ele>
        <time>2017-08-13T08:24:38Z</time>
      </trkpt>
      <trkpt lat="42.53196" lon="-0.15832">
        <ele>1138</ele>
        <time>2017-08-13T08:24:39Z</time>
      </trkpt>
      <trkpt lat="42.53195" lon="-0.15826">
        <ele>1138.7</ele>
        <time>2017-08-13T08:24:41Z</time>
      </trkpt>
      <trkpt lat="42.53194" lon="-0.1582">
        <ele>1139.5</ele>
        <time>2017-08-13T08:24:43Z</time>
      </trkpt>
      <trkpt lat="42.53193" lon="-0.15814">
        <ele>1140.7</ele>
        <time>2017-08-13T08:24:45Z</time>
      </trkpt>
      <trkpt lat="42.53192" lon="-0.15809">
        <ele>1141.8</ele>
        <time>2017-08-13T08:24:47Z</time>
      </trkpt>
      <trkpt lat="42.53191" lon="-0.15805">
        <ele>1142.1</ele>
        <time>2017-08-13T08:24:49Z</time>
      </trkpt>
      <trkpt lat="42.53191" lon="-0.15801">
        <ele>1142.4</ele>
        <time>2017-08-13T08:24:51Z</time>
      </trkpt>
      <trkpt lat="42.53189" lon="-0.15796">
        <ele>1142.8</ele>
        <time>2017-08-13T08:24:53Z</time>
      </trkpt>
      <trkpt lat="42.53188" lon="-0.15791">
        <ele>1143.5</ele>
        <time>2017-08-13T08:24:55Z</time>
      </trkpt>
      <trkpt lat="42.53185" lon="-0.15787">
        <ele>1144.3</ele>
        <time>2017-08-13T08:24:57Z</time>
      </trkpt>
      <trkpt lat="42.53183" lon="-0.15784">
        <ele>1144.7</ele>
        <time>2017-08-13T08:24:59Z</time>
      </trkpt>
      <trkpt lat="42.5318" lon="-0.1578">
        <ele>1144.9</ele>
        <time>2017-08-13T08:25:01Z</time>
      </trkpt>
      <trkpt lat="42.53177" lon="-0.15776">
        <ele>1144.9</ele>
        <time>2017-08-13T08:25:03Z</time>
      </trkpt>
      <trkpt lat="42.53174" lon="-0.15773">
        <ele>1144.9</ele>
        <time>2017-08-13T08:25:05Z</time>
      </trkpt>
      <trkpt lat="42.53172" lon="-0.15768">
        <ele>1144.8</ele>
        <time>2017-08-13T08:25:07Z</time>
      </trkpt>
      <trkpt lat="42.53169" lon="-0.15762">
        <ele>1144.6</ele>
        <time>2017-08-13T08:25:09Z</time>
      </trkpt>
      <trkpt lat="42.53169" lon="-0.15756">
        <ele>1144.2</ele>
        <time>2017-08-13T08:25:11Z</time>
      </trkpt>
      <trkpt lat="42.53168" lon="-0.1575">
        <ele>1143.4</ele>
        <time>2017-08-13T08:25:13Z</time>
      </trkpt>
      <trkpt lat="42.53169" lon="-0.15744">
        <ele>1142.7</ele>
        <time>2017-08-13T08:25:15Z</time>
      </trkpt>
      <trkpt lat="42.5317" lon="-0.15739">
        <ele>1142.3</ele>
        <time>2017-08-13T08:25:17Z</time>
      </trkpt>
      <trkpt lat="42.53171" lon="-0.15734">
        <ele>1141.7</ele>
        <time>2017-08-13T08:25:19Z</time>
      </trkpt>
      <trkpt lat="42.53173" lon="-0.1573">
        <ele>1140.9</ele>
        <time>2017-08-13T08:25:21Z</time>
      </trkpt>
      <trkpt lat="42.53174" lon="-0.15725">
        <ele>1140.4</ele>
        <time>2017-08-13T08:25:23Z</time>
      </trkpt>
      <trkpt lat="42.53175" lon="-0.15721">
        <ele>1140.1</ele>
        <time>2017-08-13T08:25:25Z</time>
      </trkpt>
      <trkpt lat="42.53175" lon="-0.15717">
        <ele>1139.8</ele>
        <time>2017-08-13T08:25:27Z</time>
      </trkpt>
      <trkpt lat="42.53175" lon="-0.15712">
        <ele>1139.6</ele>
        <time>2017-08-13T08:25:29Z</time>
      </trkpt>
      <trkpt lat="42.53174" lon="-0.15707">
        <ele>1139.4</ele>
        <time>2017-08-13T08:25:31Z</time>
      </trkpt>
      <trkpt lat="42.53173" lon="-0.15702">
        <ele>1139.3</ele>
        <time>2017-08-13T08:25:33Z</time>
      </trkpt>
      <trkpt lat="42.53171" lon="-0.15696">
        <ele>1138.9</ele>
        <time>2017-08-13T08:25:35Z</time>
      </trkpt>
      <trkpt lat="42.53169" lon="-0.15691">
        <ele>1138.7</ele>
        <time>2017-08-13T08:25:37Z</time>
      </trkpt>
      <trkpt lat="42.53168" lon="-0.15686">
        <ele>1138.7</ele>
        <time>2017-08-13T08:25:39Z</time>
      </trkpt>
      <trkpt lat="42.53165" lon="-0.15682">
        <ele>1138.7</ele>
        <time>2017-08-13T08:25:41Z</time>
      </trkpt>
      <trkpt lat="42.53164" lon="-0.15677">
        <ele>1138.7</ele>
        <time>2017-08-13T08:25:43Z</time>
      </trkpt>
      <trkpt lat="42.53163" lon="-0.1567">
        <ele>1138.7</ele>
        <time>2017-08-13T08:25:45Z</time>
      </trkpt>
      <trkpt lat="42.53161" lon="-0.15665">
        <ele>1138.9</ele>
        <time>2017-08-13T08:25:47Z</time>
      </trkpt>
      <trkpt lat="42.5316" lon="-0.15659">
        <ele>1139.3</ele>
        <time>2017-08-13T08:25:49Z</time>
      </trkpt>
      <trkpt lat="42.53158" lon="-0.15653">
        <ele>1139.7</ele>
        <time>2017-08-13T08:25:51Z</time>
      </trkpt>
      <trkpt lat="42.53156" lon="-0.15648">
        <ele>1140.1</ele>
        <time>2017-08-13T08:25:53Z</time>
      </trkpt>
      <trkpt lat="42.53155" lon="-0.15642">
        <ele>1140.4</ele>
        <time>2017-08-13T08:25:55Z</time>
      </trkpt>
      <trkpt lat="42.53154" lon="-0.15637">
        <ele>1140.7</ele>
        <time>2017-08-13T08:25:57Z</time>
      </trkpt>
      <trkpt lat="42.53153" lon="-0.15631">
        <ele>1141.5</ele>
        <time>2017-08-13T08:25:59Z</time>
      </trkpt>
      <trkpt lat="42.53153" lon="-0.15626">
        <ele>1142.2</ele>
        <time>2017-08-13T08:26:01Z</time>
      </trkpt>
      <trkpt lat="42.53152" lon="-0.15619">
        <ele>1142.8</ele>
        <time>2017-08-13T08:26:03Z</time>
      </trkpt>
      <trkpt lat="42.53151" lon="-0.15613">
        <ele>1143</ele>
        <time>2017-08-13T08:26:05Z</time>
      </trkpt>
      <trkpt lat="42.5315" lon="-0.15606">
        <ele>1143.3</ele>
        <time>2017-08-13T08:26:07Z</time>
      </trkpt>
      <trkpt lat="42.53149" lon="-0.15602">
        <ele>1143.4</ele>
        <time>2017-08-13T08:26:08Z</time>
      </trkpt>
      <trkpt lat="42.53148" lon="-0.15595">
        <ele>1143.6</ele>
        <time>2017-08-13T08:26:10Z</time>
      </trkpt>
      <trkpt lat="42.53147" lon="-0.15591">
        <ele>1143.6</ele>
        <time>2017-08-13T08:26:11Z</time>
      </trkpt>
      <trkpt lat="42.53146" lon="-0.15588">
        <ele>1143.7</ele>
        <time>2017-08-13T08:26:12Z</time>
      </trkpt>
      <trkpt lat="42.53146" lon="-0.15583">
        <ele>1143.8</ele>
        <time>2017-08-13T08:26:13Z</time>
      </trkpt>
      <trkpt lat="42.53146" lon="-0.15579">
        <ele>1143.9</ele>
        <time>2017-08-13T08:26:14Z</time>
      </trkpt>
      <trkpt lat="42.53145" lon="-0.15574">
        <ele>1144</ele>
        <time>2017-08-13T08:26:15Z</time>
      </trkpt>
      <trkpt lat="42.53145" lon="-0.1557">
        <ele>1144</ele>
        <time>2017-08-13T08:26:16Z</time>
      </trkpt>
      <trkpt lat="42.53146" lon="-0.15566">
        <ele>1144</ele>
        <time>2017-08-13T08:26:17Z</time>
      </trkpt>
      <trkpt lat="42.53146" lon="-0.15562">
        <ele>1144.1</ele>
        <time>2017-08-13T08:26:18Z</time>
      </trkpt>
      <trkpt lat="42.53146" lon="-0.15558">
        <ele>1144.1</ele>
        <time>2017-08-13T08:26:19Z</time>
      </trkpt>
      <trkpt lat="42.53146" lon="-0.15554">
        <ele>1144.1</ele>
        <time>2017-08-13T08:26:20Z</time>
      </trkpt>
      <trkpt lat="42.53147" lon="-0.1555">
        <ele>1143.9</ele>
        <time>2017-08-13T08:26:21Z</time>
      </trkpt>
      <trkpt lat="42.53147" lon="-0.15546">
        <ele>1143.7</ele>
        <time>2017-08-13T08:26:22Z</time>
      </trkpt>
      <trkpt lat="42.53147" lon="-0.15539">
        <ele>1143.4</ele>
        <time>2017-08-13T08:26:24Z</time>
      </trkpt>
      <trkpt lat="42.53148" lon="-0.15532">
        <ele>1143.3</ele>
        <time>2017-08-13T08:26:26Z</time>
      </trkpt>
      <trkpt lat="42.53149" lon="-0.15525">
        <ele>1143</ele>
        <time>2017-08-13T08:26:28Z</time>
      </trkpt>
      <trkpt lat="42.5315" lon="-0.15521">
        <ele>1142.9</ele>
        <time>2017-08-13T08:26:29Z</time>
      </trkpt>
      <trkpt lat="42.5315" lon="-0.15518">
        <ele>1142.8</ele>
        <time>2017-08-13T08:26:30Z</time>
      </trkpt>
      <trkpt lat="42.53151" lon="-0.15514">
        <ele>1142.8</ele>
        <time>2017-08-13T08:26:31Z</time>
      </trkpt>
      <trkpt lat="42.53151" lon="-0.1551">
        <ele>1142.9</ele>
        <time>2017-08-13T08:26:32Z</time>
      </trkpt>
      <trkpt lat="42.53152" lon="-0.15506">
        <ele>1143.1</ele>
        <time>2017-08-13T08:26:33Z</time>
      </trkpt>
      <trkpt lat="42.53151" lon="-0.15502">
        <ele>1143.3</ele>
        <time>2017-08-13T08:26:34Z</time>
      </trkpt>
      <trkpt lat="42.53151" lon="-0.15498">
        <ele>1143.5</ele>
        <time>2017-08-13T08:26:35Z</time>
      </trkpt>
      <trkpt lat="42.5315" lon="-0.15494">
        <ele>1143.7</ele>
        <time>2017-08-13T08:26:36Z</time>
      </trkpt>
      <trkpt lat="42.5315" lon="-0.15489">
        <ele>1143.8</ele>
        <time>2017-08-13T08:26:37Z</time>
      </trkpt>
      <trkpt lat="42.53149" lon="-0.15485">
        <ele>1144</ele>
        <time>2017-08-13T08:26:38Z</time>
      </trkpt>
      <trkpt lat="42.53147" lon="-0.15482">
        <ele>1144.2</ele>
        <time>2017-08-13T08:26:39Z</time>
      </trkpt>
      <trkpt lat="42.53146" lon="-0.15479">
        <ele>1144.3</ele>
        <time>2017-08-13T08:26:40Z</time>
      </trkpt>
      <trkpt lat="42.53144" lon="-0.15475">
        <ele>1144.5</ele>
        <time>2017-08-13T08:26:41Z</time>
      </trkpt>
      <trkpt lat="42.53142" lon="-0.15472">
        <ele>1144.7</ele>
        <time>2017-08-13T08:26:42Z</time>
      </trkpt>
      <trkpt lat="42.5314" lon="-0.15469">
        <ele>1144.8</ele>
        <time>2017-08-13T08:26:43Z</time>
      </trkpt>
      <trkpt lat="42.53138" lon="-0.15466">
        <ele>1145</ele>
        <time>2017-08-13T08:26:44Z</time>
      </trkpt>
      <trkpt lat="42.53136" lon="-0.15463">
        <ele>1145.2</ele>
        <time>2017-08-13T08:26:45Z</time>
      </trkpt>
      <trkpt lat="42.53134" lon="-0.1546">
        <ele>1145.4</ele>
        <time>2017-08-13T08:26:46Z</time>
      </trkpt>
      <trkpt lat="42.53132" lon="-0.15457">
        <ele>1145.6</ele>
        <time>2017-08-13T08:26:47Z</time>
      </trkpt>
      <trkpt lat="42.5313" lon="-0.15454">
        <ele>1145.7</ele>
        <time>2017-08-13T08:26:48Z</time>
      </trkpt>
      <trkpt lat="42.53128" lon="-0.1545">
        <ele>1145.9</ele>
        <time>2017-08-13T08:26:49Z</time>
      </trkpt>
      <trkpt lat="42.53126" lon="-0.15447">
        <ele>1146.2</ele>
        <time>2017-08-13T08:26:50Z</time>
      </trkpt>
      <trkpt lat="42.53124" lon="-0.15444">
        <ele>1146.5</ele>
        <time>2017-08-13T08:26:51Z</time>
      </trkpt>
      <trkpt lat="42.53122" lon="-0.15441">
        <ele>1146.8</ele>
        <time>2017-08-13T08:26:52Z</time>
      </trkpt>
      <trkpt lat="42.53119" lon="-0.15436">
        <ele>1147.8</ele>
        <time>2017-08-13T08:26:54Z</time>
      </trkpt>
      <trkpt lat="42.53116" lon="-0.15429">
        <ele>1149.5</ele>
        <time>2017-08-13T08:26:56Z</time>
      </trkpt>
      <trkpt lat="42.53115" lon="-0.15426">
        <ele>1150.1</ele>
        <time>2017-08-13T08:26:57Z</time>
      </trkpt>
      <trkpt lat="42.53111" lon="-0.15421">
        <ele>1151.1</ele>
        <time>2017-08-13T08:26:59Z</time>
      </trkpt>
      <trkpt lat="42.53109" lon="-0.15418">
        <ele>1151.7</ele>
        <time>2017-08-13T08:27:00Z</time>
      </trkpt>
      <trkpt lat="42.53106" lon="-0.15417">
        <ele>1152.5</ele>
        <time>2017-08-13T08:27:02Z</time>
      </trkpt>
      <trkpt lat="42.53102" lon="-0.15416">
        <ele>1153.3</ele>
        <time>2017-08-13T08:27:05Z</time>
      </trkpt>
      <trkpt lat="42.53097" lon="-0.15416">
        <ele>1154.4</ele>
        <time>2017-08-13T08:27:07Z</time>
      </trkpt>
      <trkpt lat="42.53092" lon="-0.15416">
        <ele>1155.4</ele>
        <time>2017-08-13T08:27:08Z</time>
      </trkpt>
      <trkpt lat="42.53085" lon="-0.15414">
        <ele>1157.2</ele>
        <time>2017-08-13T08:27:09Z</time>
      </trkpt>
      <trkpt lat="42.53079" lon="-0.15412">
        <ele>1158.7</ele>
        <time>2017-08-13T08:27:10Z</time>
      </trkpt>
      <trkpt lat="42.53076" lon="-0.15412">
        <ele>1160</ele>
        <time>2017-08-13T08:27:11Z</time>
      </trkpt>
      <trkpt lat="42.53072" lon="-0.15412">
        <ele>1162</ele>
        <time>2017-08-13T08:27:12Z</time>
      </trkpt>
      <trkpt lat="42.53069" lon="-0.15412">
        <ele>1163.7</ele>
        <time>2017-08-13T08:27:13Z</time>
      </trkpt>
      <trkpt lat="42.53066" lon="-0.15413">
        <ele>1164.9</ele>
        <time>2017-08-13T08:27:15Z</time>
      </trkpt>
      <trkpt lat="42.53063" lon="-0.15414">
        <ele>1165.7</ele>
        <time>2017-08-13T08:27:17Z</time>
      </trkpt>
      <trkpt lat="42.53058" lon="-0.15416">
        <ele>1166.6</ele>
        <time>2017-08-13T08:27:20Z</time>
      </trkpt>
      <trkpt lat="42.53054" lon="-0.15414">
        <ele>1167.5</ele>
        <time>2017-08-13T08:27:22Z</time>
      </trkpt>
      <trkpt lat="42.5305" lon="-0.15412">
        <ele>1169.5</ele>
        <time>2017-08-13T08:27:24Z</time>
      </trkpt>
      <trkpt lat="42.53045" lon="-0.15409">
        <ele>1171.1</ele>
        <time>2017-08-13T08:27:26Z</time>
      </trkpt>
      <trkpt lat="42.53041" lon="-0.15407">
        <ele>1172.4</ele>
        <time>2017-08-13T08:27:28Z</time>
      </trkpt>
      <trkpt lat="42.53038" lon="-0.15404">
        <ele>1173.1</ele>
        <time>2017-08-13T08:27:30Z</time>
      </trkpt>
      <trkpt lat="42.53034" lon="-0.15401">
        <ele>1173.7</ele>
        <time>2017-08-13T08:27:32Z</time>
      </trkpt>
      <trkpt lat="42.5303" lon="-0.15397">
        <ele>1174.4</ele>
        <time>2017-08-13T08:27:34Z</time>
      </trkpt>
      <trkpt lat="42.53027" lon="-0.15395">
        <ele>1175.2</ele>
        <time>2017-08-13T08:27:36Z</time>
      </trkpt>
      <trkpt lat="42.53024" lon="-0.15391">
        <ele>1176.2</ele>
        <time>2017-08-13T08:27:38Z</time>
      </trkpt>
      <trkpt lat="42.53021" lon="-0.15385">
        <ele>1177</ele>
        <time>2017-08-13T08:27:40Z</time>
      </trkpt>
      <trkpt lat="42.53019" lon="-0.15382">
        <ele>1177.1</ele>
        <time>2017-08-13T08:27:41Z</time>
      </trkpt>
      <trkpt lat="42.53018" lon="-0.15378">
        <ele>1177</ele>
        <time>2017-08-13T08:27:42Z</time>
      </trkpt>
      <trkpt lat="42.53019" lon="-0.15373">
        <ele>1177</ele>
        <time>2017-08-13T08:27:43Z</time>
      </trkpt>
      <trkpt lat="42.5302" lon="-0.15368">
        <ele>1176.7</ele>
        <time>2017-08-13T08:27:44Z</time>
      </trkpt>
      <trkpt lat="42.53022" lon="-0.15364">
        <ele>1176.4</ele>
        <time>2017-08-13T08:27:45Z</time>
      </trkpt>
      <trkpt lat="42.53025" lon="-0.1536">
        <ele>1175.8</ele>
        <time>2017-08-13T08:27:46Z</time>
      </trkpt>
      <trkpt lat="42.53028" lon="-0.15357">
        <ele>1174.9</ele>
        <time>2017-08-13T08:27:47Z</time>
      </trkpt>
      <trkpt lat="42.53031" lon="-0.15354">
        <ele>1174</ele>
        <time>2017-08-13T08:27:48Z</time>
      </trkpt>
      <trkpt lat="42.53034" lon="-0.15351">
        <ele>1173.2</ele>
        <time>2017-08-13T08:27:49Z</time>
      </trkpt>
      <trkpt lat="42.53038" lon="-0.15349">
        <ele>1172.3</ele>
        <time>2017-08-13T08:27:50Z</time>
      </trkpt>
      <trkpt lat="42.53042" lon="-0.15346">
        <ele>1170.8</ele>
        <time>2017-08-13T08:27:51Z</time>
      </trkpt>
      <trkpt lat="42.53046" lon="-0.15344">
        <ele>1169.5</ele>
        <time>2017-08-13T08:27:52Z</time>
      </trkpt>
      <trkpt lat="42.5305" lon="-0.15342">
        <ele>1168.6</ele>
        <time>2017-08-13T08:27:53Z</time>
      </trkpt>
      <trkpt lat="42.53054" lon="-0.1534">
        <ele>1167.7</ele>
        <time>2017-08-13T08:27:54Z</time>
      </trkpt>
      <trkpt lat="42.53058" lon="-0.15337">
        <ele>1166.8</ele>
        <time>2017-08-13T08:27:55Z</time>
      </trkpt>
      <trkpt lat="42.53061" lon="-0.15334">
        <ele>1165.8</ele>
        <time>2017-08-13T08:27:56Z</time>
      </trkpt>
      <trkpt lat="42.53064" lon="-0.15329">
        <ele>1164.8</ele>
        <time>2017-08-13T08:27:57Z</time>
      </trkpt>
      <trkpt lat="42.53067" lon="-0.15325">
        <ele>1163.9</ele>
        <time>2017-08-13T08:27:58Z</time>
      </trkpt>
      <trkpt lat="42.53069" lon="-0.15321">
        <ele>1163.1</ele>
        <time>2017-08-13T08:27:59Z</time>
      </trkpt>
      <trkpt lat="42.53071" lon="-0.15317">
        <ele>1162.2</ele>
        <time>2017-08-13T08:28:00Z</time>
      </trkpt>
      <trkpt lat="42.53073" lon="-0.15313">
        <ele>1161.4</ele>
        <time>2017-08-13T08:28:01Z</time>
      </trkpt>
      <trkpt lat="42.53075" lon="-0.15308">
        <ele>1160.6</ele>
        <time>2017-08-13T08:28:02Z</time>
      </trkpt>
      <trkpt lat="42.53077" lon="-0.15304">
        <ele>1159.8</ele>
        <time>2017-08-13T08:28:03Z</time>
      </trkpt>
      <trkpt lat="42.53079" lon="-0.15299">
        <ele>1159</ele>
        <time>2017-08-13T08:28:04Z</time>
      </trkpt>
      <trkpt lat="42.53081" lon="-0.15293">
        <ele>1158.4</ele>
        <time>2017-08-13T08:28:05Z</time>
      </trkpt>
      <trkpt lat="42.53083" lon="-0.15288">
        <ele>1157.9</ele>
        <time>2017-08-13T08:28:06Z</time>
      </trkpt>
      <trkpt lat="42.53085" lon="-0.15283">
        <ele>1157.4</ele>
        <time>2017-08-13T08:28:07Z</time>
      </trkpt>
      <trkpt lat="42.53086" lon="-0.15277">
        <ele>1156.8</ele>
        <time>2017-08-13T08:28:08Z</time>
      </trkpt>
      <trkpt lat="42.53088" lon="-0.15271">
        <ele>1156.4</ele>
        <time>2017-08-13T08:28:09Z</time>
      </trkpt>
      <trkpt lat="42.53089" lon="-0.15265">
        <ele>1155.9</ele>
        <time>2017-08-13T08:28:10Z</time>
      </trkpt>
      <trkpt lat="42.53091" lon="-0.15259">
        <ele>1155.5</ele>
        <time>2017-08-13T08:28:11Z</time>
      </trkpt>
      <trkpt lat="42.53092" lon="-0.15254">
        <ele>1155.3</ele>
        <time>2017-08-13T08:28:12Z</time>
      </trkpt>
      <trkpt lat="42.53093" lon="-0.15249">
        <ele>1155.1</ele>
        <time>2017-08-13T08:28:13Z</time>
      </trkpt>
      <trkpt lat="42.53094" lon="-0.15244">
        <ele>1154.9</ele>
        <time>2017-08-13T08:28:14Z</time>
      </trkpt>
      <trkpt lat="42.53095" lon="-0.1524">
        <ele>1154.8</ele>
        <time>2017-08-13T08:28:15Z</time>
      </trkpt>
      <trkpt lat="42.53095" lon="-0.15236">
        <ele>1154.6</ele>
        <time>2017-08-13T08:28:16Z</time>
      </trkpt>
      <trkpt lat="42.53096" lon="-0.15232">
        <ele>1154.5</ele>
        <time>2017-08-13T08:28:17Z</time>
      </trkpt>
      <trkpt lat="42.53096" lon="-0.15229">
        <ele>1154.2</ele>
        <time>2017-08-13T08:28:18Z</time>
      </trkpt>
      <trkpt lat="42.53097" lon="-0.15225">
        <ele>1154</ele>
        <time>2017-08-13T08:28:19Z</time>
      </trkpt>
      <trkpt lat="42.53097" lon="-0.15221">
        <ele>1153.9</ele>
        <time>2017-08-13T08:28:20Z</time>
      </trkpt>
      <trkpt lat="42.53098" lon="-0.15217">
        <ele>1153.9</ele>
        <time>2017-08-13T08:28:21Z</time>
      </trkpt>
      <trkpt lat="42.53098" lon="-0.15213">
        <ele>1153.9</ele>
        <time>2017-08-13T08:28:22Z</time>
      </trkpt>
      <trkpt lat="42.53098" lon="-0.1521">
        <ele>1154</ele>
        <time>2017-08-13T08:28:23Z</time>
      </trkpt>
      <trkpt lat="42.53098" lon="-0.15206">
        <ele>1154.1</ele>
        <time>2017-08-13T08:28:24Z</time>
      </trkpt>
      <trkpt lat="42.53098" lon="-0.15199">
        <ele>1154.4</ele>
        <time>2017-08-13T08:28:26Z</time>
      </trkpt>
      <trkpt lat="42.53096" lon="-0.15193">
        <ele>1155</ele>
        <time>2017-08-13T08:28:28Z</time>
      </trkpt>
      <trkpt lat="42.53094" lon="-0.15187">
        <ele>1155.8</ele>
        <time>2017-08-13T08:28:30Z</time>
      </trkpt>
      <trkpt lat="42.53091" lon="-0.15182">
        <ele>1156.6</ele>
        <time>2017-08-13T08:28:32Z</time>
      </trkpt>
      <trkpt lat="42.53089" lon="-0.15177">
        <ele>1157.2</ele>
        <time>2017-08-13T08:28:34Z</time>
      </trkpt>
      <trkpt lat="42.53087" lon="-0.15172">
        <ele>1157.9</ele>
        <time>2017-08-13T08:28:36Z</time>
      </trkpt>
      <trkpt lat="42.53083" lon="-0.15169">
        <ele>1158.5</ele>
        <time>2017-08-13T08:28:38Z</time>
      </trkpt>
      <trkpt lat="42.5308" lon="-0.15166">
        <ele>1159.4</ele>
        <time>2017-08-13T08:28:40Z</time>
      </trkpt>
      <trkpt lat="42.53079" lon="-0.15162">
        <ele>1160.6</ele>
        <time>2017-08-13T08:28:42Z</time>
      </trkpt>
      <trkpt lat="42.53077" lon="-0.15157">
        <ele>1162.1</ele>
        <time>2017-08-13T08:28:44Z</time>
      </trkpt>
      <trkpt lat="42.53076" lon="-0.15154">
        <ele>1162.7</ele>
        <time>2017-08-13T08:28:46Z</time>
      </trkpt>
      <trkpt lat="42.53074" lon="-0.15151">
        <ele>1163.3</ele>
        <time>2017-08-13T08:28:48Z</time>
      </trkpt>
      <trkpt lat="42.53072" lon="-0.15147">
        <ele>1164.2</ele>
        <time>2017-08-13T08:28:50Z</time>
      </trkpt>
      <trkpt lat="42.53069" lon="-0.15144">
        <ele>1165.1</ele>
        <time>2017-08-13T08:28:52Z</time>
      </trkpt>
      <trkpt lat="42.53066" lon="-0.15141">
        <ele>1166.7</ele>
        <time>2017-08-13T08:28:54Z</time>
      </trkpt>
      <trkpt lat="42.53062" lon="-0.15138">
        <ele>1168.6</ele>
        <time>2017-08-13T08:28:56Z</time>
      </trkpt>
      <trkpt lat="42.53059" lon="-0.15134">
        <ele>1169.5</ele>
        <time>2017-08-13T08:28:58Z</time>
      </trkpt>
      <trkpt lat="42.53056" lon="-0.15131">
        <ele>1170.2</ele>
        <time>2017-08-13T08:29:00Z</time>
      </trkpt>
      <trkpt lat="42.53055" lon="-0.15127">
        <ele>1171.2</ele>
        <time>2017-08-13T08:29:02Z</time>
      </trkpt>
      <trkpt lat="42.53053" lon="-0.15123">
        <ele>1172.5</ele>
        <time>2017-08-13T08:29:04Z</time>
      </trkpt>
      <trkpt lat="42.53052" lon="-0.15118">
        <ele>1173.7</ele>
        <time>2017-08-13T08:29:07Z</time>
      </trkpt>
      <trkpt lat="42.5305" lon="-0.15114">
        <ele>1174.5</ele>
        <time>2017-08-13T08:29:09Z</time>
      </trkpt>
      <trkpt lat="42.53049" lon="-0.15111">
        <ele>1175.1</ele>
        <time>2017-08-13T08:29:11Z</time>
      </trkpt>
      <trkpt lat="42.53046" lon="-0.15109">
        <ele>1175.9</ele>
        <time>2017-08-13T08:29:13Z</time>
      </trkpt>
      <trkpt lat="42.53044" lon="-0.15106">
        <ele>1176.5</ele>
        <time>2017-08-13T08:29:15Z</time>
      </trkpt>
      <trkpt lat="42.53042" lon="-0.15103">
        <ele>1177.2</ele>
        <time>2017-08-13T08:29:17Z</time>
      </trkpt>
      <trkpt lat="42.53039" lon="-0.15099">
        <ele>1177.7</ele>
        <time>2017-08-13T08:29:19Z</time>
      </trkpt>
      <trkpt lat="42.53036" lon="-0.15096">
        <ele>1178.1</ele>
        <time>2017-08-13T08:29:21Z</time>
      </trkpt>
      <trkpt lat="42.53034" lon="-0.15093">
        <ele>1178.6</ele>
        <time>2017-08-13T08:29:23Z</time>
      </trkpt>
      <trkpt lat="42.53032" lon="-0.1509">
        <ele>1179.4</ele>
        <time>2017-08-13T08:29:25Z</time>
      </trkpt>
      <trkpt lat="42.53031" lon="-0.15087">
        <ele>1180</ele>
        <time>2017-08-13T08:29:27Z</time>
      </trkpt>
      <trkpt lat="42.53028" lon="-0.15083">
        <ele>1180.5</ele>
        <time>2017-08-13T08:29:29Z</time>
      </trkpt>
      <trkpt lat="42.53026" lon="-0.1508">
        <ele>1180.8</ele>
        <time>2017-08-13T08:29:31Z</time>
      </trkpt>
      <trkpt lat="42.53024" lon="-0.15075">
        <ele>1181.2</ele>
        <time>2017-08-13T08:29:33Z</time>
      </trkpt>
      <trkpt lat="42.53022" lon="-0.1507">
        <ele>1181.6</ele>
        <time>2017-08-13T08:29:35Z</time>
      </trkpt>
      <trkpt lat="42.53021" lon="-0.15065">
        <ele>1182.3</ele>
        <time>2017-08-13T08:29:37Z</time>
      </trkpt>
      <trkpt lat="42.53021" lon="-0.1506">
        <ele>1183.1</ele>
        <time>2017-08-13T08:29:39Z</time>
      </trkpt>
      <trkpt lat="42.53019" lon="-0.15055">
        <ele>1183.7</ele>
        <time>2017-08-13T08:29:41Z</time>
      </trkpt>
      <trkpt lat="42.53017" lon="-0.15048">
        <ele>1184</ele>
        <time>2017-08-13T08:29:43Z</time>
      </trkpt>
      <trkpt lat="42.53015" lon="-0.15045">
        <ele>1184.1</ele>
        <time>2017-08-13T08:29:44Z</time>
      </trkpt>
      <trkpt lat="42.53014" lon="-0.15041">
        <ele>1184.3</ele>
        <time>2017-08-13T08:29:45Z</time>
      </trkpt>
      <trkpt lat="42.53013" lon="-0.15038">
        <ele>1184.4</ele>
        <time>2017-08-13T08:29:46Z</time>
      </trkpt>
      <trkpt lat="42.53012" lon="-0.15035">
        <ele>1184.5</ele>
        <time>2017-08-13T08:29:47Z</time>
      </trkpt>
      <trkpt lat="42.5301" lon="-0.15031">
        <ele>1184.6</ele>
        <time>2017-08-13T08:29:48Z</time>
      </trkpt>
      <trkpt lat="42.53008" lon="-0.15028">
        <ele>1184.6</ele>
        <time>2017-08-13T08:29:49Z</time>
      </trkpt>
      <trkpt lat="42.53006" lon="-0.15025">
        <ele>1184.7</ele>
        <time>2017-08-13T08:29:50Z</time>
      </trkpt>
      <trkpt lat="42.53004" lon="-0.15022">
        <ele>1184.7</ele>
        <time>2017-08-13T08:29:51Z</time>
      </trkpt>
      <trkpt lat="42.53002" lon="-0.15016">
        <ele>1184.8</ele>
        <time>2017-08-13T08:29:53Z</time>
      </trkpt>
      <trkpt lat="42.53001" lon="-0.15008">
        <ele>1184.9</ele>
        <time>2017-08-13T08:29:55Z</time>
      </trkpt>
      <trkpt lat="42.52999" lon="-0.15002">
        <ele>1185</ele>
        <time>2017-08-13T08:29:57Z</time>
      </trkpt>
      <trkpt lat="42.52997" lon="-0.14997">
        <ele>1184.9</ele>
        <time>2017-08-13T08:29:59Z</time>
      </trkpt>
      <trkpt lat="42.52994" lon="-0.14992">
        <ele>1184.9</ele>
        <time>2017-08-13T08:30:01Z</time>
      </trkpt>
      <trkpt lat="42.52991" lon="-0.14988">
        <ele>1184.9</ele>
        <time>2017-08-13T08:30:03Z</time>
      </trkpt>
      <trkpt lat="42.52988" lon="-0.14984">
        <ele>1185</ele>
        <time>2017-08-13T08:30:05Z</time>
      </trkpt>
      <trkpt lat="42.52985" lon="-0.14981">
        <ele>1185.1</ele>
        <time>2017-08-13T08:30:07Z</time>
      </trkpt>
      <trkpt lat="42.52983" lon="-0.14977">
        <ele>1185.4</ele>
        <time>2017-08-13T08:30:09Z</time>
      </trkpt>
      <trkpt lat="42.52981" lon="-0.14974">
        <ele>1185.7</ele>
        <time>2017-08-13T08:30:11Z</time>
      </trkpt>
      <trkpt lat="42.52979" lon="-0.1497">
        <ele>1185.9</ele>
        <time>2017-08-13T08:30:13Z</time>
      </trkpt>
      <trkpt lat="42.52977" lon="-0.14967">
        <ele>1186.1</ele>
        <time>2017-08-13T08:30:15Z</time>
      </trkpt>
      <trkpt lat="42.52975" lon="-0.14963">
        <ele>1186.4</ele>
        <time>2017-08-13T08:30:17Z</time>
      </trkpt>
      <trkpt lat="42.52972" lon="-0.1496">
        <ele>1186.8</ele>
        <time>2017-08-13T08:30:19Z</time>
      </trkpt>
      <trkpt lat="42.52969" lon="-0.14957">
        <ele>1187.4</ele>
        <time>2017-08-13T08:30:21Z</time>
      </trkpt>
      <trkpt lat="42.52966" lon="-0.14953">
        <ele>1188.1</ele>
        <time>2017-08-13T08:30:23Z</time>
      </trkpt>
      <trkpt lat="42.52963" lon="-0.14949">
        <ele>1188.7</ele>
        <time>2017-08-13T08:30:25Z</time>
      </trkpt>
      <trkpt lat="42.52959" lon="-0.14945">
        <ele>1189.2</ele>
        <time>2017-08-13T08:30:27Z</time>
      </trkpt>
      <trkpt lat="42.52956" lon="-0.14942">
        <ele>1189.4</ele>
        <time>2017-08-13T08:30:28Z</time>
      </trkpt>
      <trkpt lat="42.52954" lon="-0.1494">
        <ele>1189.7</ele>
        <time>2017-08-13T08:30:29Z</time>
      </trkpt>
      <trkpt lat="42.52951" lon="-0.14938">
        <ele>1190.3</ele>
        <time>2017-08-13T08:30:30Z</time>
      </trkpt>
      <trkpt lat="42.52948" lon="-0.14935">
        <ele>1190.9</ele>
        <time>2017-08-13T08:30:31Z</time>
      </trkpt>
      <trkpt lat="42.52946" lon="-0.14933">
        <ele>1191.2</ele>
        <time>2017-08-13T08:30:32Z</time>
      </trkpt>
      <trkpt lat="42.52942" lon="-0.14931">
        <ele>1191.5</ele>
        <time>2017-08-13T08:30:34Z</time>
      </trkpt>
      <trkpt lat="42.52938" lon="-0.14929">
        <ele>1191.8</ele>
        <time>2017-08-13T08:30:36Z</time>
      </trkpt>
      <trkpt lat="42.52935" lon="-0.14928">
        <ele>1192.1</ele>
        <time>2017-08-13T08:30:38Z</time>
      </trkpt>
      <trkpt lat="42.52932" lon="-0.14927">
        <ele>1192.5</ele>
        <time>2017-08-13T08:30:41Z</time>
      </trkpt>
      <trkpt lat="42.52928" lon="-0.14925">
        <ele>1193.2</ele>
        <time>2017-08-13T08:30:43Z</time>
      </trkpt>
      <trkpt lat="42.52924" lon="-0.14923">
        <ele>1193.6</ele>
        <time>2017-08-13T08:30:45Z</time>
      </trkpt>
      <trkpt lat="42.52921" lon="-0.1492">
        <ele>1194</ele>
        <time>2017-08-13T08:30:47Z</time>
      </trkpt>
      <trkpt lat="42.52918" lon="-0.14918">
        <ele>1194.2</ele>
        <time>2017-08-13T08:30:49Z</time>
      </trkpt>
      <trkpt lat="42.52915" lon="-0.14916">
        <ele>1194.5</ele>
        <time>2017-08-13T08:30:51Z</time>
      </trkpt>
      <trkpt lat="42.52912" lon="-0.14914">
        <ele>1194.7</ele>
        <time>2017-08-13T08:30:53Z</time>
      </trkpt>
      <trkpt lat="42.52909" lon="-0.14912">
        <ele>1195.1</ele>
        <time>2017-08-13T08:30:55Z</time>
      </trkpt>
      <trkpt lat="42.52905" lon="-0.14909">
        <ele>1195.5</ele>
        <time>2017-08-13T08:30:57Z</time>
      </trkpt>
      <trkpt lat="42.52901" lon="-0.14907">
        <ele>1196</ele>
        <time>2017-08-13T08:30:59Z</time>
      </trkpt>
      <trkpt lat="42.52899" lon="-0.14906">
        <ele>1196.5</ele>
        <time>2017-08-13T08:31:00Z</time>
      </trkpt>
      <trkpt lat="42.52896" lon="-0.14904">
        <ele>1197.1</ele>
        <time>2017-08-13T08:31:01Z</time>
      </trkpt>
      <trkpt lat="42.52893" lon="-0.14903">
        <ele>1197.8</ele>
        <time>2017-08-13T08:31:03Z</time>
      </trkpt>
      <trkpt lat="42.52888" lon="-0.14902">
        <ele>1198.2</ele>
        <time>2017-08-13T08:31:06Z</time>
      </trkpt>
      <trkpt lat="42.52884" lon="-0.149">
        <ele>1198.6</ele>
        <time>2017-08-13T08:31:08Z</time>
      </trkpt>
      <trkpt lat="42.5288" lon="-0.14897">
        <ele>1199</ele>
        <time>2017-08-13T08:31:10Z</time>
      </trkpt>
      <trkpt lat="42.52875" lon="-0.14894">
        <ele>1199.4</ele>
        <time>2017-08-13T08:31:12Z</time>
      </trkpt>
      <trkpt lat="42.52871" lon="-0.14892">
        <ele>1199.9</ele>
        <time>2017-08-13T08:31:14Z</time>
      </trkpt>
      <trkpt lat="42.52868" lon="-0.1489">
        <ele>1200.3</ele>
        <time>2017-08-13T08:31:15Z</time>
      </trkpt>
      <trkpt lat="42.52865" lon="-0.14888">
        <ele>1201</ele>
        <time>2017-08-13T08:31:16Z</time>
      </trkpt>
      <trkpt lat="42.52863" lon="-0.14886">
        <ele>1201.5</ele>
        <time>2017-08-13T08:31:17Z</time>
      </trkpt>
      <trkpt lat="42.5286" lon="-0.14884">
        <ele>1201.9</ele>
        <time>2017-08-13T08:31:18Z</time>
      </trkpt>
      <trkpt lat="42.52857" lon="-0.14882">
        <ele>1202.2</ele>
        <time>2017-08-13T08:31:19Z</time>
      </trkpt>
      <trkpt lat="42.52854" lon="-0.1488">
        <ele>1202.4</ele>
        <time>2017-08-13T08:31:20Z</time>
      </trkpt>
      <trkpt lat="42.5285" lon="-0.14877">
        <ele>1202.8</ele>
        <time>2017-08-13T08:31:22Z</time>
      </trkpt>
      <trkpt lat="42.52846" lon="-0.14873">
        <ele>1203.2</ele>
        <time>2017-08-13T08:31:24Z</time>
      </trkpt>
      <trkpt lat="42.52843" lon="-0.14872">
        <ele>1203.6</ele>
        <time>2017-08-13T08:31:25Z</time>
      </trkpt>
      <trkpt lat="42.52839" lon="-0.14868">
        <ele>1204.7</ele>
        <time>2017-08-13T08:31:27Z</time>
      </trkpt>
      <trkpt lat="42.52835" lon="-0.14863">
        <ele>1206</ele>
        <time>2017-08-13T08:31:29Z</time>
      </trkpt>
      <trkpt lat="42.52831" lon="-0.14861">
        <ele>1206.6</ele>
        <time>2017-08-13T08:31:31Z</time>
      </trkpt>
      <trkpt lat="42.52829" lon="-0.14858">
        <ele>1207</ele>
        <time>2017-08-13T08:31:33Z</time>
      </trkpt>
      <trkpt lat="42.52826" lon="-0.14854">
        <ele>1207.5</ele>
        <time>2017-08-13T08:31:35Z</time>
      </trkpt>
      <trkpt lat="42.52824" lon="-0.1485">
        <ele>1208</ele>
        <time>2017-08-13T08:31:37Z</time>
      </trkpt>
      <trkpt lat="42.52821" lon="-0.14846">
        <ele>1208.6</ele>
        <time>2017-08-13T08:31:39Z</time>
      </trkpt>
      <trkpt lat="42.52817" lon="-0.14842">
        <ele>1209.4</ele>
        <time>2017-08-13T08:31:41Z</time>
      </trkpt>
      <trkpt lat="42.52814" lon="-0.14839">
        <ele>1210.2</ele>
        <time>2017-08-13T08:31:42Z</time>
      </trkpt>
      <trkpt lat="42.52812" lon="-0.14837">
        <ele>1211</ele>
        <time>2017-08-13T08:31:44Z</time>
      </trkpt>
      <trkpt lat="42.5281" lon="-0.14835">
        <ele>1211.4</ele>
        <time>2017-08-13T08:31:46Z</time>
      </trkpt>
      <trkpt lat="42.52806" lon="-0.14831">
        <ele>1211.8</ele>
        <time>2017-08-13T08:31:48Z</time>
      </trkpt>
      <trkpt lat="42.52802" lon="-0.14828">
        <ele>1212.2</ele>
        <time>2017-08-13T08:31:50Z</time>
      </trkpt>
      <trkpt lat="42.52798" lon="-0.14825">
        <ele>1213.1</ele>
        <time>2017-08-13T08:31:52Z</time>
      </trkpt>
      <trkpt lat="42.52795" lon="-0.14821">
        <ele>1213.6</ele>
        <time>2017-08-13T08:31:54Z</time>
      </trkpt>
      <trkpt lat="42.52792" lon="-0.14817">
        <ele>1213.8</ele>
        <time>2017-08-13T08:31:56Z</time>
      </trkpt>
      <trkpt lat="42.5279" lon="-0.14813">
        <ele>1214.1</ele>
        <time>2017-08-13T08:31:58Z</time>
      </trkpt>
      <trkpt lat="42.52787" lon="-0.14809">
        <ele>1214.4</ele>
        <time>2017-08-13T08:32:00Z</time>
      </trkpt>
      <trkpt lat="42.52784" lon="-0.14806">
        <ele>1214.9</ele>
        <time>2017-08-13T08:32:02Z</time>
      </trkpt>
      <trkpt lat="42.52781" lon="-0.14802">
        <ele>1215.2</ele>
        <time>2017-08-13T08:32:04Z</time>
      </trkpt>
      <trkpt lat="42.52779" lon="-0.14798">
        <ele>1215.4</ele>
        <time>2017-08-13T08:32:06Z</time>
      </trkpt>
      <trkpt lat="42.52776" lon="-0.14796">
        <ele>1215.6</ele>
        <time>2017-08-13T08:32:08Z</time>
      </trkpt>
      <trkpt lat="42.52773" lon="-0.14793">
        <ele>1215.9</ele>
        <time>2017-08-13T08:32:10Z</time>
      </trkpt>
      <trkpt lat="42.52771" lon="-0.14789">
        <ele>1216.2</ele>
        <time>2017-08-13T08:32:12Z</time>
      </trkpt>
      <trkpt lat="42.52769" lon="-0.14784">
        <ele>1216.4</ele>
        <time>2017-08-13T08:32:14Z</time>
      </trkpt>
      <trkpt lat="42.52768" lon="-0.14779">
        <ele>1216.5</ele>
        <time>2017-08-13T08:32:16Z</time>
      </trkpt>
      <trkpt lat="42.52766" lon="-0.14776">
        <ele>1216.6</ele>
        <time>2017-08-13T08:32:18Z</time>
      </trkpt>
      <trkpt lat="42.52764" lon="-0.14772">
        <ele>1216.6</ele>
        <time>2017-08-13T08:32:20Z</time>
      </trkpt>
      <trkpt lat="42.52762" lon="-0.14768">
        <ele>1216.8</ele>
        <time>2017-08-13T08:32:22Z</time>
      </trkpt>
      <trkpt lat="42.52761" lon="-0.14764">
        <ele>1217</ele>
        <time>2017-08-13T08:32:24Z</time>
      </trkpt>
      <trkpt lat="42.5276" lon="-0.1476">
        <ele>1217</ele>
        <time>2017-08-13T08:32:26Z</time>
      </trkpt>
      <trkpt lat="42.52758" lon="-0.14756">
        <ele>1216.9</ele>
        <time>2017-08-13T08:32:28Z</time>
      </trkpt>
      <trkpt lat="42.52757" lon="-0.14752">
        <ele>1216.9</ele>
        <time>2017-08-13T08:32:30Z</time>
      </trkpt>
      <trkpt lat="42.52756" lon="-0.14749">
        <ele>1216.9</ele>
        <time>2017-08-13T08:32:32Z</time>
      </trkpt>
      <trkpt lat="42.52754" lon="-0.14746">
        <ele>1216.8</ele>
        <time>2017-08-13T08:32:34Z</time>
      </trkpt>
      <trkpt lat="42.52754" lon="-0.1474">
        <ele>1216.8</ele>
        <time>2017-08-13T08:32:37Z</time>
      </trkpt>
      <trkpt lat="42.52754" lon="-0.14736">
        <ele>1216.8</ele>
        <time>2017-08-13T08:32:39Z</time>
      </trkpt>
      <trkpt lat="42.52754" lon="-0.14732">
        <ele>1216.8</ele>
        <time>2017-08-13T08:32:41Z</time>
      </trkpt>
      <trkpt lat="42.52751" lon="-0.14727">
        <ele>1216.9</ele>
        <time>2017-08-13T08:32:44Z</time>
      </trkpt>
      <trkpt lat="42.52749" lon="-0.14724">
        <ele>1217.3</ele>
        <time>2017-08-13T08:32:46Z</time>
      </trkpt>
      <trkpt lat="42.52747" lon="-0.14722">
        <ele>1217.5</ele>
        <time>2017-08-13T08:32:48Z</time>
      </trkpt>
      <trkpt lat="42.52745" lon="-0.14718">
        <ele>1217.8</ele>
        <time>2017-08-13T08:32:50Z</time>
      </trkpt>
      <trkpt lat="42.52743" lon="-0.14715">
        <ele>1218</ele>
        <time>2017-08-13T08:32:52Z</time>
      </trkpt>
      <trkpt lat="42.52742" lon="-0.1471">
        <ele>1218.6</ele>
        <time>2017-08-13T08:32:55Z</time>
      </trkpt>
      <trkpt lat="42.52742" lon="-0.14705">
        <ele>1218.9</ele>
        <time>2017-08-13T08:32:58Z</time>
      </trkpt>
      <trkpt lat="42.5274" lon="-0.14702">
        <ele>1219</ele>
        <time>2017-08-13T08:33:00Z</time>
      </trkpt>
      <trkpt lat="42.52736" lon="-0.147">
        <ele>1219.2</ele>
        <time>2017-08-13T08:33:03Z</time>
      </trkpt>
      <trkpt lat="42.52733" lon="-0.14697">
        <ele>1219.4</ele>
        <time>2017-08-13T08:33:06Z</time>
      </trkpt>
      <trkpt lat="42.52731" lon="-0.14693">
        <ele>1219.5</ele>
        <time>2017-08-13T08:33:08Z</time>
      </trkpt>
      <trkpt lat="42.5273" lon="-0.14689">
        <ele>1219.5</ele>
        <time>2017-08-13T08:33:10Z</time>
      </trkpt>
      <trkpt lat="42.52729" lon="-0.14685">
        <ele>1219.6</ele>
        <time>2017-08-13T08:33:12Z</time>
      </trkpt>
      <trkpt lat="42.52728" lon="-0.14681">
        <ele>1219.7</ele>
        <time>2017-08-13T08:33:14Z</time>
      </trkpt>
      <trkpt lat="42.52727" lon="-0.14677">
        <ele>1220.1</ele>
        <time>2017-08-13T08:33:16Z</time>
      </trkpt>
      <trkpt lat="42.52727" lon="-0.14673">
        <ele>1220.4</ele>
        <time>2017-08-13T08:33:18Z</time>
      </trkpt>
      <trkpt lat="42.52725" lon="-0.14669">
        <ele>1220.7</ele>
        <time>2017-08-13T08:33:21Z</time>
      </trkpt>
      <trkpt lat="42.52724" lon="-0.14664">
        <ele>1221</ele>
        <time>2017-08-13T08:33:24Z</time>
      </trkpt>
      <trkpt lat="42.52719" lon="-0.14662">
        <ele>1221.8</ele>
        <time>2017-08-13T08:33:26Z</time>
      </trkpt>
      <trkpt lat="42.52716" lon="-0.14661">
        <ele>1222.5</ele>
        <time>2017-08-13T08:33:28Z</time>
      </trkpt>
      <trkpt lat="42.52714" lon="-0.14657">
        <ele>1222.8</ele>
        <time>2017-08-13T08:33:30Z</time>
      </trkpt>
      <trkpt lat="42.52712" lon="-0.14653">
        <ele>1223</ele>
        <time>2017-08-13T08:33:32Z</time>
      </trkpt>
      <trkpt lat="42.52709" lon="-0.1465">
        <ele>1223.2</ele>
        <time>2017-08-13T08:33:34Z</time>
      </trkpt>
      <trkpt lat="42.52708" lon="-0.14646">
        <ele>1223.4</ele>
        <time>2017-08-13T08:33:36Z</time>
      </trkpt>
      <trkpt lat="42.52707" lon="-0.14643">
        <ele>1223.6</ele>
        <time>2017-08-13T08:33:38Z</time>
      </trkpt>
      <trkpt lat="42.52706" lon="-0.14638">
        <ele>1223.7</ele>
        <time>2017-08-13T08:33:40Z</time>
      </trkpt>
      <trkpt lat="42.52706" lon="-0.14633">
        <ele>1223.6</ele>
        <time>2017-08-13T08:33:42Z</time>
      </trkpt>
      <trkpt lat="42.52705" lon="-0.14629">
        <ele>1223.4</ele>
        <time>2017-08-13T08:33:44Z</time>
      </trkpt>
      <trkpt lat="42.52704" lon="-0.14625">
        <ele>1223.3</ele>
        <time>2017-08-13T08:33:46Z</time>
      </trkpt>
      <trkpt lat="42.52702" lon="-0.14621">
        <ele>1223</ele>
        <time>2017-08-13T08:33:48Z</time>
      </trkpt>
      <trkpt lat="42.527" lon="-0.14616">
        <ele>1222.7</ele>
        <time>2017-08-13T08:33:51Z</time>
      </trkpt>
      <trkpt lat="42.52699" lon="-0.14613">
        <ele>1222.6</ele>
        <time>2017-08-13T08:33:53Z</time>
      </trkpt>
      <trkpt lat="42.52697" lon="-0.14609">
        <ele>1222.6</ele>
        <time>2017-08-13T08:33:55Z</time>
      </trkpt>
      <trkpt lat="42.52696" lon="-0.14605">
        <ele>1222.6</ele>
        <time>2017-08-13T08:33:57Z</time>
      </trkpt>
      <trkpt lat="42.52694" lon="-0.14602">
        <ele>1222.6</ele>
        <time>2017-08-13T08:33:59Z</time>
      </trkpt>
      <trkpt lat="42.52692" lon="-0.146">
        <ele>1222.8</ele>
        <time>2017-08-13T08:34:01Z</time>
      </trkpt>
      <trkpt lat="42.52689" lon="-0.14599">
        <ele>1223.5</ele>
        <time>2017-08-13T08:34:04Z</time>
      </trkpt>
      <trkpt lat="42.52685" lon="-0.14596">
        <ele>1224.3</ele>
        <time>2017-08-13T08:34:07Z</time>
      </trkpt>
      <trkpt lat="42.52682" lon="-0.14595">
        <ele>1225</ele>
        <time>2017-08-13T08:34:10Z</time>
      </trkpt>
      <trkpt lat="42.52678" lon="-0.14596">
        <ele>1225.8</ele>
        <time>2017-08-13T08:34:13Z</time>
      </trkpt>
      <trkpt lat="42.52674" lon="-0.14597">
        <ele>1226.8</ele>
        <time>2017-08-13T08:34:16Z</time>
      </trkpt>
      <trkpt lat="42.52671" lon="-0.14599">
        <ele>1228.7</ele>
        <time>2017-08-13T08:34:19Z</time>
      </trkpt>
      <trkpt lat="42.52669" lon="-0.14602">
        <ele>1229.7</ele>
        <time>2017-08-13T08:34:22Z</time>
      </trkpt>
      <trkpt lat="42.52667" lon="-0.14605">
        <ele>1230.6</ele>
        <time>2017-08-13T08:34:25Z</time>
      </trkpt>
      <trkpt lat="42.52664" lon="-0.14607">
        <ele>1231.7</ele>
        <time>2017-08-13T08:34:28Z</time>
      </trkpt>
      <trkpt lat="42.52663" lon="-0.14611">
        <ele>1233.2</ele>
        <time>2017-08-13T08:34:31Z</time>
      </trkpt>
      <trkpt lat="42.52662" lon="-0.14617">
        <ele>1234.7</ele>
        <time>2017-08-13T08:34:34Z</time>
      </trkpt>
      <trkpt lat="42.52662" lon="-0.14621">
        <ele>1235.7</ele>
        <time>2017-08-13T08:34:37Z</time>
      </trkpt>
      <trkpt lat="42.52663" lon="-0.14625">
        <ele>1237.1</ele>
        <time>2017-08-13T08:34:40Z</time>
      </trkpt>
      <trkpt lat="42.52665" lon="-0.14629">
        <ele>1238</ele>
        <time>2017-08-13T08:34:43Z</time>
      </trkpt>
      <trkpt lat="42.52667" lon="-0.14632">
        <ele>1238.6</ele>
        <time>2017-08-13T08:34:46Z</time>
      </trkpt>
      <trkpt lat="42.5267" lon="-0.14636">
        <ele>1239.3</ele>
        <time>2017-08-13T08:34:49Z</time>
      </trkpt>
      <trkpt lat="42.52672" lon="-0.14639">
        <ele>1240</ele>
        <time>2017-08-13T08:34:51Z</time>
      </trkpt>
      <trkpt lat="42.52674" lon="-0.14643">
        <ele>1240.4</ele>
        <time>2017-08-13T08:34:54Z</time>
      </trkpt>
      <trkpt lat="42.52676" lon="-0.14647">
        <ele>1240.3</ele>
        <time>2017-08-13T08:34:57Z</time>
      </trkpt>
      <trkpt lat="42.52678" lon="-0.14651">
        <ele>1240.3</ele>
        <time>2017-08-13T08:35:00Z</time>
      </trkpt>
      <trkpt lat="42.5268" lon="-0.14653">
        <ele>1240.3</ele>
        <time>2017-08-13T08:35:02Z</time>
      </trkpt>
      <trkpt lat="42.52682" lon="-0.14656">
        <ele>1240.3</ele>
        <time>2017-08-13T08:35:04Z</time>
      </trkpt>
      <trkpt lat="42.52682" lon="-0.1466">
        <ele>1240.4</ele>
        <time>2017-08-13T08:35:06Z</time>
      </trkpt>
      <trkpt lat="42.52683" lon="-0.14664">
        <ele>1240.8</ele>
        <time>2017-08-13T08:35:08Z</time>
      </trkpt>
      <trkpt lat="42.52684" lon="-0.14668">
        <ele>1241</ele>
        <time>2017-08-13T08:35:10Z</time>
      </trkpt>
      <trkpt lat="42.52685" lon="-0.14671">
        <ele>1241.1</ele>
        <time>2017-08-13T08:35:12Z</time>
      </trkpt>
      <trkpt lat="42.52685" lon="-0.14677">
        <ele>1241.4</ele>
        <time>2017-08-13T08:35:15Z</time>
      </trkpt>
      <trkpt lat="42.52687" lon="-0.14682">
        <ele>1242</ele>
        <time>2017-08-13T08:35:18Z</time>
      </trkpt>
      <trkpt lat="42.52688" lon="-0.14685">
        <ele>1242.3</ele>
        <time>2017-08-13T08:35:20Z</time>
      </trkpt>
      <trkpt lat="42.52689" lon="-0.14689">
        <ele>1242.4</ele>
        <time>2017-08-13T08:35:22Z</time>
      </trkpt>
      <trkpt lat="42.5269" lon="-0.14692">
        <ele>1242.5</ele>
        <time>2017-08-13T08:35:24Z</time>
      </trkpt>
      <trkpt lat="42.52691" lon="-0.14696">
        <ele>1242.5</ele>
        <time>2017-08-13T08:35:26Z</time>
      </trkpt>
      <trkpt lat="42.52693" lon="-0.147">
        <ele>1242.6</ele>
        <time>2017-08-13T08:35:29Z</time>
      </trkpt>
      <trkpt lat="42.52694" lon="-0.14705">
        <ele>1242.7</ele>
        <time>2017-08-13T08:35:32Z</time>
      </trkpt>
      <trkpt lat="42.52695" lon="-0.1471">
        <ele>1242.9</ele>
        <time>2017-08-13T08:35:35Z</time>
      </trkpt>
      <trkpt lat="42.52696" lon="-0.14715">
        <ele>1243.3</ele>
        <time>2017-08-13T08:35:38Z</time>
      </trkpt>
      <trkpt lat="42.52696" lon="-0.14719">
        <ele>1243.6</ele>
        <time>2017-08-13T08:35:40Z</time>
      </trkpt>
      <trkpt lat="42.52696" lon="-0.14724">
        <ele>1243.8</ele>
        <time>2017-08-13T08:35:43Z</time>
      </trkpt>
      <trkpt lat="42.52696" lon="-0.14729">
        <ele>1244.1</ele>
        <time>2017-08-13T08:35:46Z</time>
      </trkpt>
      <trkpt lat="42.52696" lon="-0.14735">
        <ele>1244.7</ele>
        <time>2017-08-13T08:35:49Z</time>
      </trkpt>
      <trkpt lat="42.52696" lon="-0.1474">
        <ele>1245.4</ele>
        <time>2017-08-13T08:35:52Z</time>
      </trkpt>
      <trkpt lat="42.52695" lon="-0.14745">
        <ele>1245.9</ele>
        <time>2017-08-13T08:35:55Z</time>
      </trkpt>
      <trkpt lat="42.52694" lon="-0.1475">
        <ele>1246.5</ele>
        <time>2017-08-13T08:35:58Z</time>
      </trkpt>
      <trkpt lat="42.52693" lon="-0.14755">
        <ele>1247.3</ele>
        <time>2017-08-13T08:36:01Z</time>
      </trkpt>
      <trkpt lat="42.52692" lon="-0.1476">
        <ele>1248.2</ele>
        <time>2017-08-13T08:36:04Z</time>
      </trkpt>
      <trkpt lat="42.52691" lon="-0.14765">
        <ele>1248.5</ele>
        <time>2017-08-13T08:36:07Z</time>
      </trkpt>
      <trkpt lat="42.52691" lon="-0.14769">
        <ele>1248.9</ele>
        <time>2017-08-13T08:36:09Z</time>
      </trkpt>
      <trkpt lat="42.52691" lon="-0.14773">
        <ele>1249.5</ele>
        <time>2017-08-13T08:36:11Z</time>
      </trkpt>
      <trkpt lat="42.52691" lon="-0.14778">
        <ele>1250.2</ele>
        <time>2017-08-13T08:36:14Z</time>
      </trkpt>
      <trkpt lat="42.52691" lon="-0.14782">
        <ele>1250.5</ele>
        <time>2017-08-13T08:36:16Z</time>
      </trkpt>
      <trkpt lat="42.52691" lon="-0.14786">
        <ele>1250.9</ele>
        <time>2017-08-13T08:36:18Z</time>
      </trkpt>
      <trkpt lat="42.52692" lon="-0.1479">
        <ele>1251.6</ele>
        <time>2017-08-13T08:36:20Z</time>
      </trkpt>
      <trkpt lat="42.52692" lon="-0.14793">
        <ele>1252.3</ele>
        <time>2017-08-13T08:36:22Z</time>
      </trkpt>
      <trkpt lat="42.52692" lon="-0.14797">
        <ele>1252.9</ele>
        <time>2017-08-13T08:36:24Z</time>
      </trkpt>
      <trkpt lat="42.52691" lon="-0.14801">
        <ele>1253.2</ele>
        <time>2017-08-13T08:36:26Z</time>
      </trkpt>
      <trkpt lat="42.5269" lon="-0.14805">
        <ele>1253.7</ele>
        <time>2017-08-13T08:36:28Z</time>
      </trkpt>
      <trkpt lat="42.52689" lon="-0.1481">
        <ele>1254.5</ele>
        <time>2017-08-13T08:36:31Z</time>
      </trkpt>
      <trkpt lat="42.52689" lon="-0.14815">
        <ele>1255.5</ele>
        <time>2017-08-13T08:36:34Z</time>
      </trkpt>
      <trkpt lat="42.52688" lon="-0.1482">
        <ele>1256</ele>
        <time>2017-08-13T08:36:37Z</time>
      </trkpt>
      <trkpt lat="42.52688" lon="-0.14825">
        <ele>1256.5</ele>
        <time>2017-08-13T08:36:40Z</time>
      </trkpt>
      <trkpt lat="42.52688" lon="-0.1483">
        <ele>1256.9</ele>
        <time>2017-08-13T08:36:43Z</time>
      </trkpt>
      <trkpt lat="42.52687" lon="-0.14833">
        <ele>1257.6</ele>
        <time>2017-08-13T08:36:45Z</time>
      </trkpt>
      <trkpt lat="42.52687" lon="-0.14837">
        <ele>1258.4</ele>
        <time>2017-08-13T08:36:47Z</time>
      </trkpt>
      <trkpt lat="42.52686" lon="-0.14842">
        <ele>1259.2</ele>
        <time>2017-08-13T08:36:50Z</time>
      </trkpt>
      <trkpt lat="42.52685" lon="-0.14847">
        <ele>1259.9</ele>
        <time>2017-08-13T08:36:53Z</time>
      </trkpt>
      <trkpt lat="42.52684" lon="-0.14851">
        <ele>1260.3</ele>
        <time>2017-08-13T08:36:55Z</time>
      </trkpt>
      <trkpt lat="42.52683" lon="-0.14856">
        <ele>1261</ele>
        <time>2017-08-13T08:36:58Z</time>
      </trkpt>
      <trkpt lat="42.52683" lon="-0.14861">
        <ele>1261.7</ele>
        <time>2017-08-13T08:37:01Z</time>
      </trkpt>
      <trkpt lat="42.52681" lon="-0.14866">
        <ele>1262.8</ele>
        <time>2017-08-13T08:37:04Z</time>
      </trkpt>
      <trkpt lat="42.52681" lon="-0.14871">
        <ele>1263</ele>
        <time>2017-08-13T08:37:07Z</time>
      </trkpt>
      <trkpt lat="42.52682" lon="-0.14875">
        <ele>1263.2</ele>
        <time>2017-08-13T08:37:10Z</time>
      </trkpt>
      <trkpt lat="42.52682" lon="-0.1488">
        <ele>1263.4</ele>
        <time>2017-08-13T08:37:13Z</time>
      </trkpt>
      <trkpt lat="42.52681" lon="-0.14885">
        <ele>1263.7</ele>
        <time>2017-08-13T08:37:16Z</time>
      </trkpt>
      <trkpt lat="42.5268" lon="-0.1489">
        <ele>1263.9</ele>
        <time>2017-08-13T08:37:19Z</time>
      </trkpt>
      <trkpt lat="42.5268" lon="-0.14895">
        <ele>1264.1</ele>
        <time>2017-08-13T08:37:22Z</time>
      </trkpt>
      <trkpt lat="42.5268" lon="-0.149">
        <ele>1264.4</ele>
        <time>2017-08-13T08:37:25Z</time>
      </trkpt>
      <trkpt lat="42.5268" lon="-0.14905">
        <ele>1264.8</ele>
        <time>2017-08-13T08:37:28Z</time>
      </trkpt>
      <trkpt lat="42.52681" lon="-0.14909">
        <ele>1265.1</ele>
        <time>2017-08-13T08:37:31Z</time>
      </trkpt>
      <trkpt lat="42.5268" lon="-0.14914">
        <ele>1265.4</ele>
        <time>2017-08-13T08:37:34Z</time>
      </trkpt>
      <trkpt lat="42.52681" lon="-0.14918">
        <ele>1265.6</ele>
        <time>2017-08-13T08:37:36Z</time>
      </trkpt>
      <trkpt lat="42.52681" lon="-0.14922">
        <ele>1265.7</ele>
        <time>2017-08-13T08:37:38Z</time>
      </trkpt>
      <trkpt lat="42.52681" lon="-0.14926">
        <ele>1266</ele>
        <time>2017-08-13T08:37:40Z</time>
      </trkpt>
      <trkpt lat="42.52681" lon="-0.14931">
        <ele>1266.1</ele>
        <time>2017-08-13T08:37:43Z</time>
      </trkpt>
      <trkpt lat="42.5268" lon="-0.14937">
        <ele>1266.2</ele>
        <time>2017-08-13T08:37:46Z</time>
      </trkpt>
      <trkpt lat="42.5268" lon="-0.1494">
        <ele>1266.3</ele>
        <time>2017-08-13T08:37:48Z</time>
      </trkpt>
      <trkpt lat="42.52679" lon="-0.14945">
        <ele>1266.9</ele>
        <time>2017-08-13T08:37:51Z</time>
      </trkpt>
      <trkpt lat="42.52679" lon="-0.14949">
        <ele>1267.2</ele>
        <time>2017-08-13T08:37:53Z</time>
      </trkpt>
      <trkpt lat="42.52679" lon="-0.14953">
        <ele>1267.8</ele>
        <time>2017-08-13T08:37:55Z</time>
      </trkpt>
      <trkpt lat="42.52679" lon="-0.14957">
        <ele>1268.4</ele>
        <time>2017-08-13T08:37:57Z</time>
      </trkpt>
      <trkpt lat="42.5268" lon="-0.14961">
        <ele>1269.2</ele>
        <time>2017-08-13T08:37:59Z</time>
      </trkpt>
      <trkpt lat="42.5268" lon="-0.14966">
        <ele>1270.6</ele>
        <time>2017-08-13T08:38:02Z</time>
      </trkpt>
      <trkpt lat="42.52681" lon="-0.14971">
        <ele>1271.8</ele>
        <time>2017-08-13T08:38:05Z</time>
      </trkpt>
      <trkpt lat="42.52682" lon="-0.14976">
        <ele>1272.8</ele>
        <time>2017-08-13T08:38:08Z</time>
      </trkpt>
      <trkpt lat="42.52683" lon="-0.1498">
        <ele>1273.5</ele>
        <time>2017-08-13T08:38:10Z</time>
      </trkpt>
      <trkpt lat="42.52685" lon="-0.14984">
        <ele>1274.1</ele>
        <time>2017-08-13T08:38:13Z</time>
      </trkpt>
      <trkpt lat="42.52687" lon="-0.14988">
        <ele>1274.6</ele>
        <time>2017-08-13T08:38:16Z</time>
      </trkpt>
      <trkpt lat="42.52687" lon="-0.14992">
        <ele>1275.2</ele>
        <time>2017-08-13T08:38:19Z</time>
      </trkpt>
      <trkpt lat="42.52689" lon="-0.14997">
        <ele>1275.9</ele>
        <time>2017-08-13T08:38:22Z</time>
      </trkpt>
      <trkpt lat="42.52689" lon="-0.15002">
        <ele>1276.5</ele>
        <time>2017-08-13T08:38:25Z</time>
      </trkpt>
      <trkpt lat="42.52689" lon="-0.15007">
        <ele>1276.9</ele>
        <time>2017-08-13T08:38:28Z</time>
      </trkpt>
      <trkpt lat="42.52688" lon="-0.15013">
        <ele>1277.5</ele>
        <time>2017-08-13T08:38:31Z</time>
      </trkpt>
      <trkpt lat="42.52688" lon="-0.15016">
        <ele>1278.1</ele>
        <time>2017-08-13T08:38:33Z</time>
      </trkpt>
      <trkpt lat="42.52689" lon="-0.15021">
        <ele>1278.9</ele>
        <time>2017-08-13T08:38:36Z</time>
      </trkpt>
      <trkpt lat="42.5269" lon="-0.15025">
        <ele>1279.4</ele>
        <time>2017-08-13T08:38:39Z</time>
      </trkpt>
      <trkpt lat="42.52689" lon="-0.1503">
        <ele>1280</ele>
        <time>2017-08-13T08:38:42Z</time>
      </trkpt>
      <trkpt lat="42.52689" lon="-0.15034">
        <ele>1280.6</ele>
        <time>2017-08-13T08:38:45Z</time>
      </trkpt>
      <trkpt lat="42.5269" lon="-0.15038">
        <ele>1281.1</ele>
        <time>2017-08-13T08:38:48Z</time>
      </trkpt>
      <trkpt lat="42.52691" lon="-0.15042">
        <ele>1281.6</ele>
        <time>2017-08-13T08:38:51Z</time>
      </trkpt>
      <trkpt lat="42.52691" lon="-0.15047">
        <ele>1282.1</ele>
        <time>2017-08-13T08:38:54Z</time>
      </trkpt>
      <trkpt lat="42.5269" lon="-0.15052">
        <ele>1282.6</ele>
        <time>2017-08-13T08:38:57Z</time>
      </trkpt>
      <trkpt lat="42.52689" lon="-0.15057">
        <ele>1283.2</ele>
        <time>2017-08-13T08:39:00Z</time>
      </trkpt>
      <trkpt lat="42.52688" lon="-0.15061">
        <ele>1283.9</ele>
        <time>2017-08-13T08:39:02Z</time>
      </trkpt>
      <trkpt lat="42.52686" lon="-0.15066">
        <ele>1284.9</ele>
        <time>2017-08-13T08:39:05Z</time>
      </trkpt>
      <trkpt lat="42.52685" lon="-0.1507">
        <ele>1285.8</ele>
        <time>2017-08-13T08:39:08Z</time>
      </trkpt>
      <trkpt lat="42.52684" lon="-0.15074">
        <ele>1286.4</ele>
        <time>2017-08-13T08:39:11Z</time>
      </trkpt>
      <trkpt lat="42.52683" lon="-0.15079">
        <ele>1287.2</ele>
        <time>2017-08-13T08:39:14Z</time>
      </trkpt>
      <trkpt lat="42.52682" lon="-0.15083">
        <ele>1288.4</ele>
        <time>2017-08-13T08:39:17Z</time>
      </trkpt>
      <trkpt lat="42.5268" lon="-0.15087">
        <ele>1289.8</ele>
        <time>2017-08-13T08:39:20Z</time>
      </trkpt>
      <trkpt lat="42.52679" lon="-0.15092">
        <ele>1291.1</ele>
        <time>2017-08-13T08:39:23Z</time>
      </trkpt>
      <trkpt lat="42.52677" lon="-0.15096">
        <ele>1292.3</ele>
        <time>2017-08-13T08:39:26Z</time>
      </trkpt>
      <trkpt lat="42.52675" lon="-0.151">
        <ele>1293.4</ele>
        <time>2017-08-13T08:39:29Z</time>
      </trkpt>
      <trkpt lat="42.52674" lon="-0.15104">
        <ele>1294.6</ele>
        <time>2017-08-13T08:39:32Z</time>
      </trkpt>
      <trkpt lat="42.52672" lon="-0.15108">
        <ele>1295.7</ele>
        <time>2017-08-13T08:39:35Z</time>
      </trkpt>
      <trkpt lat="42.5267" lon="-0.15112">
        <ele>1296.6</ele>
        <time>2017-08-13T08:39:38Z</time>
      </trkpt>
      <trkpt lat="42.52668" lon="-0.15117">
        <ele>1297.2</ele>
        <time>2017-08-13T08:39:41Z</time>
      </trkpt>
      <trkpt lat="42.52667" lon="-0.15121">
        <ele>1297.7</ele>
        <time>2017-08-13T08:39:44Z</time>
      </trkpt>
      <trkpt lat="42.52666" lon="-0.15126">
        <ele>1298.7</ele>
        <time>2017-08-13T08:39:47Z</time>
      </trkpt>
      <trkpt lat="42.52665" lon="-0.1513">
        <ele>1299.9</ele>
        <time>2017-08-13T08:39:50Z</time>
      </trkpt>
      <trkpt lat="42.52663" lon="-0.15135">
        <ele>1301</ele>
        <time>2017-08-13T08:39:53Z</time>
      </trkpt>
      <trkpt lat="42.52661" lon="-0.1514">
        <ele>1302.1</ele>
        <time>2017-08-13T08:39:56Z</time>
      </trkpt>
      <trkpt lat="42.5266" lon="-0.15143">
        <ele>1302.8</ele>
        <time>2017-08-13T08:39:58Z</time>
      </trkpt>
      <trkpt lat="42.52658" lon="-0.15146">
        <ele>1303.2</ele>
        <time>2017-08-13T08:40:00Z</time>
      </trkpt>
      <trkpt lat="42.52657" lon="-0.15149">
        <ele>1303.6</ele>
        <time>2017-08-13T08:40:02Z</time>
      </trkpt>
      <trkpt lat="42.52655" lon="-0.15152">
        <ele>1304</ele>
        <time>2017-08-13T08:40:04Z</time>
      </trkpt>
      <trkpt lat="42.52653" lon="-0.15157">
        <ele>1304.2</ele>
        <time>2017-08-13T08:40:07Z</time>
      </trkpt>
      <trkpt lat="42.5265" lon="-0.1516">
        <ele>1304.4</ele>
        <time>2017-08-13T08:40:10Z</time>
      </trkpt>
      <trkpt lat="42.52647" lon="-0.15163">
        <ele>1304.5</ele>
        <time>2017-08-13T08:40:12Z</time>
      </trkpt>
      <trkpt lat="42.52644" lon="-0.15165">
        <ele>1304.5</ele>
        <time>2017-08-13T08:40:14Z</time>
      </trkpt>
      <trkpt lat="42.52642" lon="-0.15168">
        <ele>1304.6</ele>
        <time>2017-08-13T08:40:16Z</time>
      </trkpt>
      <trkpt lat="42.52639" lon="-0.1517">
        <ele>1304.9</ele>
        <time>2017-08-13T08:40:18Z</time>
      </trkpt>
      <trkpt lat="42.52637" lon="-0.15173">
        <ele>1305.5</ele>
        <time>2017-08-13T08:40:20Z</time>
      </trkpt>
      <trkpt lat="42.52634" lon="-0.15175">
        <ele>1306</ele>
        <time>2017-08-13T08:40:22Z</time>
      </trkpt>
      <trkpt lat="42.52631" lon="-0.15177">
        <ele>1306.7</ele>
        <time>2017-08-13T08:40:24Z</time>
      </trkpt>
      <trkpt lat="42.52629" lon="-0.1518">
        <ele>1307.4</ele>
        <time>2017-08-13T08:40:26Z</time>
      </trkpt>
      <trkpt lat="42.52626" lon="-0.15183">
        <ele>1308.2</ele>
        <time>2017-08-13T08:40:28Z</time>
      </trkpt>
      <trkpt lat="42.52623" lon="-0.15186">
        <ele>1309.1</ele>
        <time>2017-08-13T08:40:30Z</time>
      </trkpt>
      <trkpt lat="42.52621" lon="-0.15189">
        <ele>1309.7</ele>
        <time>2017-08-13T08:40:32Z</time>
      </trkpt>
      <trkpt lat="42.5262" lon="-0.15193">
        <ele>1310.3</ele>
        <time>2017-08-13T08:40:34Z</time>
      </trkpt>
      <trkpt lat="42.52618" lon="-0.15196">
        <ele>1310.8</ele>
        <time>2017-08-13T08:40:36Z</time>
      </trkpt>
      <trkpt lat="42.52616" lon="-0.15199">
        <ele>1311.3</ele>
        <time>2017-08-13T08:40:38Z</time>
      </trkpt>
      <trkpt lat="42.52615" lon="-0.15202">
        <ele>1311.7</ele>
        <time>2017-08-13T08:40:40Z</time>
      </trkpt>
      <trkpt lat="42.52612" lon="-0.15206">
        <ele>1312</ele>
        <time>2017-08-13T08:40:43Z</time>
      </trkpt>
      <trkpt lat="42.5261" lon="-0.1521">
        <ele>1312.4</ele>
        <time>2017-08-13T08:40:46Z</time>
      </trkpt>
      <trkpt lat="42.52608" lon="-0.15213">
        <ele>1313.2</ele>
        <time>2017-08-13T08:40:48Z</time>
      </trkpt>
      <trkpt lat="42.52606" lon="-0.15215">
        <ele>1313.9</ele>
        <time>2017-08-13T08:40:50Z</time>
      </trkpt>
      <trkpt lat="42.52603" lon="-0.15217">
        <ele>1314.5</ele>
        <time>2017-08-13T08:40:52Z</time>
      </trkpt>
      <trkpt lat="42.526" lon="-0.15219">
        <ele>1314.9</ele>
        <time>2017-08-13T08:40:54Z</time>
      </trkpt>
      <trkpt lat="42.52598" lon="-0.15223">
        <ele>1315.4</ele>
        <time>2017-08-13T08:40:57Z</time>
      </trkpt>
      <trkpt lat="42.52597" lon="-0.15228">
        <ele>1316.1</ele>
        <time>2017-08-13T08:41:00Z</time>
      </trkpt>
      <trkpt lat="42.52596" lon="-0.15233">
        <ele>1316.7</ele>
        <time>2017-08-13T08:41:03Z</time>
      </trkpt>
      <trkpt lat="42.52594" lon="-0.15238">
        <ele>1316.7</ele>
        <time>2017-08-13T08:41:06Z</time>
      </trkpt>
      <trkpt lat="42.52592" lon="-0.15242">
        <ele>1316.7</ele>
        <time>2017-08-13T08:41:09Z</time>
      </trkpt>
      <trkpt lat="42.52588" lon="-0.15245">
        <ele>1316.7</ele>
        <time>2017-08-13T08:41:12Z</time>
      </trkpt>
      <trkpt lat="42.52586" lon="-0.15248">
        <ele>1316.8</ele>
        <time>2017-08-13T08:41:15Z</time>
      </trkpt>
      <trkpt lat="42.52584" lon="-0.15252">
        <ele>1316.5</ele>
        <time>2017-08-13T08:41:18Z</time>
      </trkpt>
      <trkpt lat="42.52581" lon="-0.15256">
        <ele>1316.3</ele>
        <time>2017-08-13T08:41:21Z</time>
      </trkpt>
      <trkpt lat="42.52579" lon="-0.1526">
        <ele>1316.1</ele>
        <time>2017-08-13T08:41:24Z</time>
      </trkpt>
      <trkpt lat="42.52577" lon="-0.15264">
        <ele>1316</ele>
        <time>2017-08-13T08:41:27Z</time>
      </trkpt>
      <trkpt lat="42.52575" lon="-0.15268">
        <ele>1316.5</ele>
        <time>2017-08-13T08:41:30Z</time>
      </trkpt>
      <trkpt lat="42.52573" lon="-0.15271">
        <ele>1316.9</ele>
        <time>2017-08-13T08:41:32Z</time>
      </trkpt>
      <trkpt lat="42.52571" lon="-0.15275">
        <ele>1316.7</ele>
        <time>2017-08-13T08:41:35Z</time>
      </trkpt>
      <trkpt lat="42.5257" lon="-0.15279">
        <ele>1316.6</ele>
        <time>2017-08-13T08:41:37Z</time>
      </trkpt>
      <trkpt lat="42.52567" lon="-0.15281">
        <ele>1316.8</ele>
        <time>2017-08-13T08:41:39Z</time>
      </trkpt>
      <trkpt lat="42.52564" lon="-0.15284">
        <ele>1317</ele>
        <time>2017-08-13T08:41:41Z</time>
      </trkpt>
      <trkpt lat="42.52562" lon="-0.15286">
        <ele>1317.3</ele>
        <time>2017-08-13T08:41:43Z</time>
      </trkpt>
      <trkpt lat="42.5256" lon="-0.15289">
        <ele>1317.7</ele>
        <time>2017-08-13T08:41:45Z</time>
      </trkpt>
      <trkpt lat="42.52558" lon="-0.15292">
        <ele>1318</ele>
        <time>2017-08-13T08:41:47Z</time>
      </trkpt>
      <trkpt lat="42.52556" lon="-0.15295">
        <ele>1318.3</ele>
        <time>2017-08-13T08:41:49Z</time>
      </trkpt>
      <trkpt lat="42.52554" lon="-0.153">
        <ele>1318.7</ele>
        <time>2017-08-13T08:41:52Z</time>
      </trkpt>
      <trkpt lat="42.52551" lon="-0.15304">
        <ele>1319.4</ele>
        <time>2017-08-13T08:41:55Z</time>
      </trkpt>
      <trkpt lat="42.52548" lon="-0.15307">
        <ele>1320.2</ele>
        <time>2017-08-13T08:41:57Z</time>
      </trkpt>
      <trkpt lat="42.52546" lon="-0.15312">
        <ele>1320.9</ele>
        <time>2017-08-13T08:41:59Z</time>
      </trkpt>
      <trkpt lat="42.52545" lon="-0.15316">
        <ele>1321.5</ele>
        <time>2017-08-13T08:42:01Z</time>
      </trkpt>
      <trkpt lat="42.52544" lon="-0.15319">
        <ele>1322</ele>
        <time>2017-08-13T08:42:03Z</time>
      </trkpt>
      <trkpt lat="42.52542" lon="-0.15324">
        <ele>1322.5</ele>
        <time>2017-08-13T08:42:06Z</time>
      </trkpt>
      <trkpt lat="42.52539" lon="-0.15327">
        <ele>1322.9</ele>
        <time>2017-08-13T08:42:09Z</time>
      </trkpt>
      <trkpt lat="42.52537" lon="-0.15329">
        <ele>1323</ele>
        <time>2017-08-13T08:42:11Z</time>
      </trkpt>
      <trkpt lat="42.52534" lon="-0.1533">
        <ele>1323.1</ele>
        <time>2017-08-13T08:42:13Z</time>
      </trkpt>
      <trkpt lat="42.52531" lon="-0.1533">
        <ele>1322.9</ele>
        <time>2017-08-13T08:42:15Z</time>
      </trkpt>
      <trkpt lat="42.52527" lon="-0.15332">
        <ele>1322.5</ele>
        <time>2017-08-13T08:42:18Z</time>
      </trkpt>
      <trkpt lat="42.52524" lon="-0.15332">
        <ele>1322.3</ele>
        <time>2017-08-13T08:42:21Z</time>
      </trkpt>
      <trkpt lat="42.52521" lon="-0.15331">
        <ele>1322.2</ele>
        <time>2017-08-13T08:42:23Z</time>
      </trkpt>
      <trkpt lat="42.52518" lon="-0.15331">
        <ele>1322.2</ele>
        <time>2017-08-13T08:42:26Z</time>
      </trkpt>
      <trkpt lat="42.52515" lon="-0.15332">
        <ele>1322</ele>
        <time>2017-08-13T08:42:28Z</time>
      </trkpt>
      <trkpt lat="42.52512" lon="-0.15332">
        <ele>1321.9</ele>
        <time>2017-08-13T08:42:30Z</time>
      </trkpt>
      <trkpt lat="42.52509" lon="-0.15332">
        <ele>1321.7</ele>
        <time>2017-08-13T08:42:32Z</time>
      </trkpt>
      <trkpt lat="42.52506" lon="-0.15333">
        <ele>1322.1</ele>
        <time>2017-08-13T08:42:34Z</time>
      </trkpt>
      <trkpt lat="42.52501" lon="-0.15333">
        <ele>1322.9</ele>
        <time>2017-08-13T08:42:36Z</time>
      </trkpt>
      <trkpt lat="42.52497" lon="-0.15334">
        <ele>1323.5</ele>
        <time>2017-08-13T08:42:38Z</time>
      </trkpt>
      <trkpt lat="42.52493" lon="-0.15334">
        <ele>1324.2</ele>
        <time>2017-08-13T08:42:40Z</time>
      </trkpt>
      <trkpt lat="42.52489" lon="-0.15335">
        <ele>1325</ele>
        <time>2017-08-13T08:42:42Z</time>
      </trkpt>
      <trkpt lat="42.52484" lon="-0.15335">
        <ele>1325.5</ele>
        <time>2017-08-13T08:42:44Z</time>
      </trkpt>
      <trkpt lat="42.5248" lon="-0.15336">
        <ele>1325.8</ele>
        <time>2017-08-13T08:42:46Z</time>
      </trkpt>
      <trkpt lat="42.52476" lon="-0.15337">
        <ele>1326.1</ele>
        <time>2017-08-13T08:42:48Z</time>
      </trkpt>
      <trkpt lat="42.52472" lon="-0.15338">
        <ele>1326.4</ele>
        <time>2017-08-13T08:42:50Z</time>
      </trkpt>
      <trkpt lat="42.52467" lon="-0.15337">
        <ele>1326.7</ele>
        <time>2017-08-13T08:42:52Z</time>
      </trkpt>
      <trkpt lat="42.52462" lon="-0.15336">
        <ele>1327.3</ele>
        <time>2017-08-13T08:42:54Z</time>
      </trkpt>
      <trkpt lat="42.52459" lon="-0.15336">
        <ele>1327.6</ele>
        <time>2017-08-13T08:42:55Z</time>
      </trkpt>
      <trkpt lat="42.52457" lon="-0.15336">
        <ele>1327.9</ele>
        <time>2017-08-13T08:42:56Z</time>
      </trkpt>
      <trkpt lat="42.52451" lon="-0.15336">
        <ele>1328.4</ele>
        <time>2017-08-13T08:42:58Z</time>
      </trkpt>
      <trkpt lat="42.52448" lon="-0.15337">
        <ele>1328.6</ele>
        <time>2017-08-13T08:42:59Z</time>
      </trkpt>
      <trkpt lat="42.52445" lon="-0.15338">
        <ele>1329</ele>
        <time>2017-08-13T08:43:00Z</time>
      </trkpt>
      <trkpt lat="42.52442" lon="-0.1534">
        <ele>1329.5</ele>
        <time>2017-08-13T08:43:01Z</time>
      </trkpt>
      <trkpt lat="42.52439" lon="-0.15342">
        <ele>1329.7</ele>
        <time>2017-08-13T08:43:02Z</time>
      </trkpt>
      <trkpt lat="42.52437" lon="-0.15345">
        <ele>1329.8</ele>
        <time>2017-08-13T08:43:03Z</time>
      </trkpt>
      <trkpt lat="42.52435" lon="-0.15349">
        <ele>1330.1</ele>
        <time>2017-08-13T08:43:04Z</time>
      </trkpt>
      <trkpt lat="42.52433" lon="-0.15353">
        <ele>1330.8</ele>
        <time>2017-08-13T08:43:05Z</time>
      </trkpt>
      <trkpt lat="42.52432" lon="-0.15358">
        <ele>1331.6</ele>
        <time>2017-08-13T08:43:06Z</time>
      </trkpt>
      <trkpt lat="42.52431" lon="-0.15363">
        <ele>1332.9</ele>
        <time>2017-08-13T08:43:07Z</time>
      </trkpt>
      <trkpt lat="42.52431" lon="-0.15367">
        <ele>1334.1</ele>
        <time>2017-08-13T08:43:08Z</time>
      </trkpt>
      <trkpt lat="42.52431" lon="-0.15371">
        <ele>1334.3</ele>
        <time>2017-08-13T08:43:09Z</time>
      </trkpt>
      <trkpt lat="42.52433" lon="-0.15376">
        <ele>1334.6</ele>
        <time>2017-08-13T08:43:11Z</time>
      </trkpt>
      <trkpt lat="42.52436" lon="-0.15381">
        <ele>1334.8</ele>
        <time>2017-08-13T08:43:13Z</time>
      </trkpt>
      <trkpt lat="42.52438" lon="-0.15384">
        <ele>1335</ele>
        <time>2017-08-13T08:43:15Z</time>
      </trkpt>
      <trkpt lat="42.52441" lon="-0.15387">
        <ele>1334.5</ele>
        <time>2017-08-13T08:43:17Z</time>
      </trkpt>
      <trkpt lat="42.52444" lon="-0.15391">
        <ele>1333.7</ele>
        <time>2017-08-13T08:43:19Z</time>
      </trkpt>
      <trkpt lat="42.52447" lon="-0.15395">
        <ele>1334</ele>
        <time>2017-08-13T08:43:21Z</time>
      </trkpt>
      <trkpt lat="42.52449" lon="-0.15399">
        <ele>1334.2</ele>
        <time>2017-08-13T08:43:23Z</time>
      </trkpt>
      <trkpt lat="42.52451" lon="-0.15402">
        <ele>1334</ele>
        <time>2017-08-13T08:43:25Z</time>
      </trkpt>
      <trkpt lat="42.52453" lon="-0.15406">
        <ele>1333.8</ele>
        <time>2017-08-13T08:43:27Z</time>
      </trkpt>
      <trkpt lat="42.52455" lon="-0.15409">
        <ele>1333.7</ele>
        <time>2017-08-13T08:43:29Z</time>
      </trkpt>
      <trkpt lat="42.52457" lon="-0.15411">
        <ele>1333.8</ele>
        <time>2017-08-13T08:43:31Z</time>
      </trkpt>
      <trkpt lat="42.5246" lon="-0.15415">
        <ele>1333.7</ele>
        <time>2017-08-13T08:43:33Z</time>
      </trkpt>
      <trkpt lat="42.52462" lon="-0.15418">
        <ele>1333.6</ele>
        <time>2017-08-13T08:43:35Z</time>
      </trkpt>
      <trkpt lat="42.52464" lon="-0.15422">
        <ele>1334.5</ele>
        <time>2017-08-13T08:43:37Z</time>
      </trkpt>
      <trkpt lat="42.52466" lon="-0.15425">
        <ele>1335.5</ele>
        <time>2017-08-13T08:43:39Z</time>
      </trkpt>
      <trkpt lat="42.52468" lon="-0.15429">
        <ele>1336.2</ele>
        <time>2017-08-13T08:43:41Z</time>
      </trkpt>
      <trkpt lat="42.5247" lon="-0.15431">
        <ele>1336.7</ele>
        <time>2017-08-13T08:43:43Z</time>
      </trkpt>
      <trkpt lat="42.52473" lon="-0.15434">
        <ele>1337.3</ele>
        <time>2017-08-13T08:43:46Z</time>
      </trkpt>
      <trkpt lat="42.52476" lon="-0.15438">
        <ele>1338.2</ele>
        <time>2017-08-13T08:43:49Z</time>
      </trkpt>
      <trkpt lat="42.52478" lon="-0.15441">
        <ele>1339</ele>
        <time>2017-08-13T08:43:51Z</time>
      </trkpt>
      <trkpt lat="42.52479" lon="-0.15445">
        <ele>1339.8</ele>
        <time>2017-08-13T08:43:53Z</time>
      </trkpt>
      <trkpt lat="42.52482" lon="-0.1545">
        <ele>1340.8</ele>
        <time>2017-08-13T08:43:56Z</time>
      </trkpt>
      <trkpt lat="42.52484" lon="-0.15453">
        <ele>1341.5</ele>
        <time>2017-08-13T08:43:58Z</time>
      </trkpt>
      <trkpt lat="42.52485" lon="-0.15458">
        <ele>1342</ele>
        <time>2017-08-13T08:44:01Z</time>
      </trkpt>
      <trkpt lat="42.52484" lon="-0.15463">
        <ele>1342.4</ele>
        <time>2017-08-13T08:44:03Z</time>
      </trkpt>
      <trkpt lat="42.52483" lon="-0.15468">
        <ele>1342.8</ele>
        <time>2017-08-13T08:44:05Z</time>
      </trkpt>
      <trkpt lat="42.52482" lon="-0.15473">
        <ele>1343.2</ele>
        <time>2017-08-13T08:44:07Z</time>
      </trkpt>
      <trkpt lat="42.52481" lon="-0.15477">
        <ele>1343.6</ele>
        <time>2017-08-13T08:44:09Z</time>
      </trkpt>
      <trkpt lat="42.5248" lon="-0.1548">
        <ele>1343.8</ele>
        <time>2017-08-13T08:44:11Z</time>
      </trkpt>
      <trkpt lat="42.52478" lon="-0.15484">
        <ele>1343.9</ele>
        <time>2017-08-13T08:44:13Z</time>
      </trkpt>
      <trkpt lat="42.52477" lon="-0.15488">
        <ele>1344.3</ele>
        <time>2017-08-13T08:44:15Z</time>
      </trkpt>
      <trkpt lat="42.52476" lon="-0.15492">
        <ele>1344.8</ele>
        <time>2017-08-13T08:44:17Z</time>
      </trkpt>
      <trkpt lat="42.52474" lon="-0.15495">
        <ele>1345.3</ele>
        <time>2017-08-13T08:44:19Z</time>
      </trkpt>
      <trkpt lat="42.52473" lon="-0.15498">
        <ele>1345.6</ele>
        <time>2017-08-13T08:44:21Z</time>
      </trkpt>
      <trkpt lat="42.52472" lon="-0.15503">
        <ele>1345.9</ele>
        <time>2017-08-13T08:44:24Z</time>
      </trkpt>
      <trkpt lat="42.5247" lon="-0.15506">
        <ele>1346.1</ele>
        <time>2017-08-13T08:44:26Z</time>
      </trkpt>
      <trkpt lat="42.52469" lon="-0.15509">
        <ele>1346.5</ele>
        <time>2017-08-13T08:44:28Z</time>
      </trkpt>
      <trkpt lat="42.52467" lon="-0.15513">
        <ele>1347</ele>
        <time>2017-08-13T08:44:30Z</time>
      </trkpt>
      <trkpt lat="42.52465" lon="-0.15518">
        <ele>1347.6</ele>
        <time>2017-08-13T08:44:33Z</time>
      </trkpt>
      <trkpt lat="42.52464" lon="-0.15522">
        <ele>1348</ele>
        <time>2017-08-13T08:44:36Z</time>
      </trkpt>
      <trkpt lat="42.52463" lon="-0.15527">
        <ele>1348.3</ele>
        <time>2017-08-13T08:44:39Z</time>
      </trkpt>
      <trkpt lat="42.52461" lon="-0.15531">
        <ele>1348.7</ele>
        <time>2017-08-13T08:44:42Z</time>
      </trkpt>
      <trkpt lat="42.52459" lon="-0.15534">
        <ele>1349</ele>
        <time>2017-08-13T08:44:44Z</time>
      </trkpt>
      <trkpt lat="42.52457" lon="-0.15537">
        <ele>1349.4</ele>
        <time>2017-08-13T08:44:46Z</time>
      </trkpt>
      <trkpt lat="42.52456" lon="-0.15541">
        <ele>1349.8</ele>
        <time>2017-08-13T08:44:48Z</time>
      </trkpt>
      <trkpt lat="42.52454" lon="-0.15544">
        <ele>1350.2</ele>
        <time>2017-08-13T08:44:50Z</time>
      </trkpt>
      <trkpt lat="42.52452" lon="-0.15547">
        <ele>1350.5</ele>
        <time>2017-08-13T08:44:52Z</time>
      </trkpt>
      <trkpt lat="42.5245" lon="-0.1555">
        <ele>1350.7</ele>
        <time>2017-08-13T08:44:54Z</time>
      </trkpt>
      <trkpt lat="42.52449" lon="-0.15554">
        <ele>1351</ele>
        <time>2017-08-13T08:44:56Z</time>
      </trkpt>
      <trkpt lat="42.52447" lon="-0.15558">
        <ele>1351.2</ele>
        <time>2017-08-13T08:44:58Z</time>
      </trkpt>
      <trkpt lat="42.52445" lon="-0.15561">
        <ele>1351.3</ele>
        <time>2017-08-13T08:45:00Z</time>
      </trkpt>
      <trkpt lat="42.52443" lon="-0.15564">
        <ele>1351.5</ele>
        <time>2017-08-13T08:45:02Z</time>
      </trkpt>
      <trkpt lat="42.52441" lon="-0.15567">
        <ele>1351.7</ele>
        <time>2017-08-13T08:45:04Z</time>
      </trkpt>
      <trkpt lat="42.52439" lon="-0.15571">
        <ele>1351.9</ele>
        <time>2017-08-13T08:45:06Z</time>
      </trkpt>
      <trkpt lat="42.52437" lon="-0.15575">
        <ele>1352</ele>
        <time>2017-08-13T08:45:08Z</time>
      </trkpt>
      <trkpt lat="42.52435" lon="-0.15579">
        <ele>1352.4</ele>
        <time>2017-08-13T08:45:10Z</time>
      </trkpt>
      <trkpt lat="42.52434" lon="-0.15583">
        <ele>1352.8</ele>
        <time>2017-08-13T08:45:12Z</time>
      </trkpt>
      <trkpt lat="42.52432" lon="-0.15587">
        <ele>1353.3</ele>
        <time>2017-08-13T08:45:14Z</time>
      </trkpt>
      <trkpt lat="42.5243" lon="-0.15591">
        <ele>1353.9</ele>
        <time>2017-08-13T08:45:16Z</time>
      </trkpt>
      <trkpt lat="42.52428" lon="-0.15594">
        <ele>1354.4</ele>
        <time>2017-08-13T08:45:18Z</time>
      </trkpt>
      <trkpt lat="42.52427" lon="-0.15598">
        <ele>1354.9</ele>
        <time>2017-08-13T08:45:20Z</time>
      </trkpt>
      <trkpt lat="42.52425" lon="-0.15602">
        <ele>1355.3</ele>
        <time>2017-08-13T08:45:22Z</time>
      </trkpt>
      <trkpt lat="42.52423" lon="-0.15606">
        <ele>1355.8</ele>
        <time>2017-08-13T08:45:24Z</time>
      </trkpt>
      <trkpt lat="42.5242" lon="-0.15609">
        <ele>1356.1</ele>
        <time>2017-08-13T08:45:26Z</time>
      </trkpt>
      <trkpt lat="42.52416" lon="-0.15612">
        <ele>1356.3</ele>
        <time>2017-08-13T08:45:28Z</time>
      </trkpt>
      <trkpt lat="42.52412" lon="-0.15614">
        <ele>1356.8</ele>
        <time>2017-08-13T08:45:30Z</time>
      </trkpt>
      <trkpt lat="42.52408" lon="-0.15616">
        <ele>1357.4</ele>
        <time>2017-08-13T08:45:32Z</time>
      </trkpt>
      <trkpt lat="42.52405" lon="-0.15619">
        <ele>1357.6</ele>
        <time>2017-08-13T08:45:34Z</time>
      </trkpt>
      <trkpt lat="42.52401" lon="-0.15622">
        <ele>1357.9</ele>
        <time>2017-08-13T08:45:36Z</time>
      </trkpt>
      <trkpt lat="42.52398" lon="-0.15626">
        <ele>1358.1</ele>
        <time>2017-08-13T08:45:38Z</time>
      </trkpt>
      <trkpt lat="42.52394" lon="-0.15631">
        <ele>1358.2</ele>
        <time>2017-08-13T08:45:40Z</time>
      </trkpt>
      <trkpt lat="42.52391" lon="-0.15637">
        <ele>1357.7</ele>
        <time>2017-08-13T08:45:42Z</time>
      </trkpt>
      <trkpt lat="42.5239" lon="-0.15641">
        <ele>1357.1</ele>
        <time>2017-08-13T08:45:43Z</time>
      </trkpt>
      <trkpt lat="42.52389" lon="-0.15644">
        <ele>1356.5</ele>
        <time>2017-08-13T08:45:44Z</time>
      </trkpt>
      <trkpt lat="42.52388" lon="-0.15648">
        <ele>1355.9</ele>
        <time>2017-08-13T08:45:45Z</time>
      </trkpt>
      <trkpt lat="42.52387" lon="-0.15651">
        <ele>1355.1</ele>
        <time>2017-08-13T08:45:46Z</time>
      </trkpt>
      <trkpt lat="42.52386" lon="-0.15655">
        <ele>1354.5</ele>
        <time>2017-08-13T08:45:47Z</time>
      </trkpt>
      <trkpt lat="42.52385" lon="-0.15663">
        <ele>1354.1</ele>
        <time>2017-08-13T08:45:49Z</time>
      </trkpt>
      <trkpt lat="42.52385" lon="-0.15667">
        <ele>1353.9</ele>
        <time>2017-08-13T08:45:50Z</time>
      </trkpt>
      <trkpt lat="42.52385" lon="-0.15671">
        <ele>1353.7</ele>
        <time>2017-08-13T08:45:51Z</time>
      </trkpt>
      <trkpt lat="42.52385" lon="-0.15676">
        <ele>1354.6</ele>
        <time>2017-08-13T08:45:52Z</time>
      </trkpt>
      <trkpt lat="42.52386" lon="-0.1568">
        <ele>1355.8</ele>
        <time>2017-08-13T08:45:53Z</time>
      </trkpt>
      <trkpt lat="42.52386" lon="-0.15684">
        <ele>1356.5</ele>
        <time>2017-08-13T08:45:54Z</time>
      </trkpt>
      <trkpt lat="42.52387" lon="-0.15688">
        <ele>1356.7</ele>
        <time>2017-08-13T08:45:55Z</time>
      </trkpt>
      <trkpt lat="42.52388" lon="-0.15694">
        <ele>1357.2</ele>
        <time>2017-08-13T08:45:57Z</time>
      </trkpt>
      <trkpt lat="42.52388" lon="-0.15699">
        <ele>1357.7</ele>
        <time>2017-08-13T08:45:59Z</time>
      </trkpt>
      <trkpt lat="42.52386" lon="-0.15703">
        <ele>1358.2</ele>
        <time>2017-08-13T08:46:01Z</time>
      </trkpt>
      <trkpt lat="42.52383" lon="-0.15705">
        <ele>1359.1</ele>
        <time>2017-08-13T08:46:03Z</time>
      </trkpt>
      <trkpt lat="42.5238" lon="-0.15704">
        <ele>1360</ele>
        <time>2017-08-13T08:46:05Z</time>
      </trkpt>
      <trkpt lat="42.52376" lon="-0.15701">
        <ele>1361</ele>
        <time>2017-08-13T08:46:07Z</time>
      </trkpt>
      <trkpt lat="42.52374" lon="-0.15698">
        <ele>1361.6</ele>
        <time>2017-08-13T08:46:09Z</time>
      </trkpt>
      <trkpt lat="42.52372" lon="-0.15694">
        <ele>1362.1</ele>
        <time>2017-08-13T08:46:11Z</time>
      </trkpt>
      <trkpt lat="42.52369" lon="-0.1569">
        <ele>1362.7</ele>
        <time>2017-08-13T08:46:13Z</time>
      </trkpt>
      <trkpt lat="42.52366" lon="-0.15687">
        <ele>1363.1</ele>
        <time>2017-08-13T08:46:15Z</time>
      </trkpt>
      <trkpt lat="42.52364" lon="-0.15684">
        <ele>1363.8</ele>
        <time>2017-08-13T08:46:17Z</time>
      </trkpt>
      <trkpt lat="42.52361" lon="-0.15682">
        <ele>1364.5</ele>
        <time>2017-08-13T08:46:19Z</time>
      </trkpt>
      <trkpt lat="42.52358" lon="-0.15678">
        <ele>1364.9</ele>
        <time>2017-08-13T08:46:21Z</time>
      </trkpt>
      <trkpt lat="42.52355" lon="-0.15675">
        <ele>1365.1</ele>
        <time>2017-08-13T08:46:23Z</time>
      </trkpt>
      <trkpt lat="42.52353" lon="-0.15672">
        <ele>1365.3</ele>
        <time>2017-08-13T08:46:25Z</time>
      </trkpt>
      <trkpt lat="42.52351" lon="-0.15669">
        <ele>1365.9</ele>
        <time>2017-08-13T08:46:27Z</time>
      </trkpt>
      <trkpt lat="42.52349" lon="-0.15667">
        <ele>1366.4</ele>
        <time>2017-08-13T08:46:29Z</time>
      </trkpt>
      <trkpt lat="42.52347" lon="-0.15663">
        <ele>1366.8</ele>
        <time>2017-08-13T08:46:31Z</time>
      </trkpt>
      <trkpt lat="42.52345" lon="-0.15659">
        <ele>1366.9</ele>
        <time>2017-08-13T08:46:33Z</time>
      </trkpt>
      <trkpt lat="42.52344" lon="-0.15654">
        <ele>1366.9</ele>
        <time>2017-08-13T08:46:35Z</time>
      </trkpt>
      <trkpt lat="42.52342" lon="-0.15649">
        <ele>1367.6</ele>
        <time>2017-08-13T08:46:37Z</time>
      </trkpt>
      <trkpt lat="42.5234" lon="-0.15645">
        <ele>1368.2</ele>
        <time>2017-08-13T08:46:39Z</time>
      </trkpt>
      <trkpt lat="42.52338" lon="-0.1564">
        <ele>1368.6</ele>
        <time>2017-08-13T08:46:41Z</time>
      </trkpt>
      <trkpt lat="42.52336" lon="-0.15636">
        <ele>1368.8</ele>
        <time>2017-08-13T08:46:43Z</time>
      </trkpt>
      <trkpt lat="42.52334" lon="-0.15631">
        <ele>1368.7</ele>
        <time>2017-08-13T08:46:45Z</time>
      </trkpt>
      <trkpt lat="42.52333" lon="-0.15627">
        <ele>1368.2</ele>
        <time>2017-08-13T08:46:47Z</time>
      </trkpt>
      <trkpt lat="42.5233" lon="-0.15624">
        <ele>1367.9</ele>
        <time>2017-08-13T08:46:49Z</time>
      </trkpt>
      <trkpt lat="42.52327" lon="-0.15621">
        <ele>1368.1</ele>
        <time>2017-08-13T08:46:51Z</time>
      </trkpt>
      <trkpt lat="42.52325" lon="-0.15616">
        <ele>1368.3</ele>
        <time>2017-08-13T08:46:53Z</time>
      </trkpt>
      <trkpt lat="42.52322" lon="-0.15613">
        <ele>1368.3</ele>
        <time>2017-08-13T08:46:55Z</time>
      </trkpt>
      <trkpt lat="42.5232" lon="-0.15609">
        <ele>1368.3</ele>
        <time>2017-08-13T08:46:57Z</time>
      </trkpt>
      <trkpt lat="42.52318" lon="-0.15606">
        <ele>1368.8</ele>
        <time>2017-08-13T08:46:59Z</time>
      </trkpt>
      <trkpt lat="42.52315" lon="-0.15604">
        <ele>1369.3</ele>
        <time>2017-08-13T08:47:01Z</time>
      </trkpt>
      <trkpt lat="42.52312" lon="-0.15601">
        <ele>1369.6</ele>
        <time>2017-08-13T08:47:03Z</time>
      </trkpt>
      <trkpt lat="42.52309" lon="-0.15599">
        <ele>1369.5</ele>
        <time>2017-08-13T08:47:05Z</time>
      </trkpt>
      <trkpt lat="42.52307" lon="-0.15596">
        <ele>1369.5</ele>
        <time>2017-08-13T08:47:07Z</time>
      </trkpt>
      <trkpt lat="42.52305" lon="-0.15593">
        <ele>1369.5</ele>
        <time>2017-08-13T08:47:09Z</time>
      </trkpt>
      <trkpt lat="42.52303" lon="-0.1559">
        <ele>1369.4</ele>
        <time>2017-08-13T08:47:11Z</time>
      </trkpt>
      <trkpt lat="42.52302" lon="-0.15585">
        <ele>1369.4</ele>
        <time>2017-08-13T08:47:13Z</time>
      </trkpt>
      <trkpt lat="42.523" lon="-0.15581">
        <ele>1369.2</ele>
        <time>2017-08-13T08:47:15Z</time>
      </trkpt>
      <trkpt lat="42.52298" lon="-0.15578">
        <ele>1369.1</ele>
        <time>2017-08-13T08:47:17Z</time>
      </trkpt>
      <trkpt lat="42.52295" lon="-0.15575">
        <ele>1369.2</ele>
        <time>2017-08-13T08:47:19Z</time>
      </trkpt>
      <trkpt lat="42.52293" lon="-0.15571">
        <ele>1369.3</ele>
        <time>2017-08-13T08:47:21Z</time>
      </trkpt>
      <trkpt lat="42.52292" lon="-0.15566">
        <ele>1369.9</ele>
        <time>2017-08-13T08:47:23Z</time>
      </trkpt>
      <trkpt lat="42.52291" lon="-0.1556">
        <ele>1370.9</ele>
        <time>2017-08-13T08:47:25Z</time>
      </trkpt>
      <trkpt lat="42.52289" lon="-0.15556">
        <ele>1371</ele>
        <time>2017-08-13T08:47:27Z</time>
      </trkpt>
      <trkpt lat="42.52288" lon="-0.15551">
        <ele>1371</ele>
        <time>2017-08-13T08:47:29Z</time>
      </trkpt>
      <trkpt lat="42.52287" lon="-0.15545">
        <ele>1371.2</ele>
        <time>2017-08-13T08:47:31Z</time>
      </trkpt>
      <trkpt lat="42.52286" lon="-0.15538">
        <ele>1371.5</ele>
        <time>2017-08-13T08:47:33Z</time>
      </trkpt>
      <trkpt lat="42.52284" lon="-0.15533">
        <ele>1371.7</ele>
        <time>2017-08-13T08:47:35Z</time>
      </trkpt>
      <trkpt lat="42.52283" lon="-0.15528">
        <ele>1371.9</ele>
        <time>2017-08-13T08:47:37Z</time>
      </trkpt>
      <trkpt lat="42.52282" lon="-0.15523">
        <ele>1372.5</ele>
        <time>2017-08-13T08:47:39Z</time>
      </trkpt>
      <trkpt lat="42.52281" lon="-0.15519">
        <ele>1373.1</ele>
        <time>2017-08-13T08:47:41Z</time>
      </trkpt>
      <trkpt lat="42.52279" lon="-0.15516">
        <ele>1373.2</ele>
        <time>2017-08-13T08:47:43Z</time>
      </trkpt>
      <trkpt lat="42.52276" lon="-0.15513">
        <ele>1373.1</ele>
        <time>2017-08-13T08:47:45Z</time>
      </trkpt>
      <trkpt lat="42.52274" lon="-0.1551">
        <ele>1373.1</ele>
        <time>2017-08-13T08:47:47Z</time>
      </trkpt>
      <trkpt lat="42.52272" lon="-0.15504">
        <ele>1373.3</ele>
        <time>2017-08-13T08:47:49Z</time>
      </trkpt>
      <trkpt lat="42.5227" lon="-0.15499">
        <ele>1373.5</ele>
        <time>2017-08-13T08:47:51Z</time>
      </trkpt>
      <trkpt lat="42.52268" lon="-0.15495">
        <ele>1373.3</ele>
        <time>2017-08-13T08:47:53Z</time>
      </trkpt>
      <trkpt lat="42.52264" lon="-0.15491">
        <ele>1373.2</ele>
        <time>2017-08-13T08:47:55Z</time>
      </trkpt>
      <trkpt lat="42.52261" lon="-0.15488">
        <ele>1373.4</ele>
        <time>2017-08-13T08:47:57Z</time>
      </trkpt>
      <trkpt lat="42.52258" lon="-0.15485">
        <ele>1373.8</ele>
        <time>2017-08-13T08:47:59Z</time>
      </trkpt>
      <trkpt lat="42.52255" lon="-0.1548">
        <ele>1374.7</ele>
        <time>2017-08-13T08:48:01Z</time>
      </trkpt>
      <trkpt lat="42.52251" lon="-0.15476">
        <ele>1375.5</ele>
        <time>2017-08-13T08:48:03Z</time>
      </trkpt>
      <trkpt lat="42.52247" lon="-0.15473">
        <ele>1375.7</ele>
        <time>2017-08-13T08:48:05Z</time>
      </trkpt>
      <trkpt lat="42.52244" lon="-0.1547">
        <ele>1375.9</ele>
        <time>2017-08-13T08:48:07Z</time>
      </trkpt>
      <trkpt lat="42.52241" lon="-0.15466">
        <ele>1376.4</ele>
        <time>2017-08-13T08:48:09Z</time>
      </trkpt>
      <trkpt lat="42.52238" lon="-0.15462">
        <ele>1377.2</ele>
        <time>2017-08-13T08:48:11Z</time>
      </trkpt>
      <trkpt lat="42.52233" lon="-0.15458">
        <ele>1379.2</ele>
        <time>2017-08-13T08:48:13Z</time>
      </trkpt>
      <trkpt lat="42.52229" lon="-0.15455">
        <ele>1380.6</ele>
        <time>2017-08-13T08:48:15Z</time>
      </trkpt>
      <trkpt lat="42.52224" lon="-0.15452">
        <ele>1381.6</ele>
        <time>2017-08-13T08:48:17Z</time>
      </trkpt>
      <trkpt lat="42.5222" lon="-0.15448">
        <ele>1382.5</ele>
        <time>2017-08-13T08:48:19Z</time>
      </trkpt>
      <trkpt lat="42.52215" lon="-0.15446">
        <ele>1383.7</ele>
        <time>2017-08-13T08:48:21Z</time>
      </trkpt>
      <trkpt lat="42.52211" lon="-0.15445">
        <ele>1384.3</ele>
        <time>2017-08-13T08:48:23Z</time>
      </trkpt>
      <trkpt lat="42.52207" lon="-0.15444">
        <ele>1384.5</ele>
        <time>2017-08-13T08:48:25Z</time>
      </trkpt>
      <trkpt lat="42.52203" lon="-0.15443">
        <ele>1384.8</ele>
        <time>2017-08-13T08:48:27Z</time>
      </trkpt>
      <trkpt lat="42.52198" lon="-0.15442">
        <ele>1385.2</ele>
        <time>2017-08-13T08:48:29Z</time>
      </trkpt>
      <trkpt lat="42.52194" lon="-0.15439">
        <ele>1385.6</ele>
        <time>2017-08-13T08:48:31Z</time>
      </trkpt>
      <trkpt lat="42.5219" lon="-0.15435">
        <ele>1385.4</ele>
        <time>2017-08-13T08:48:33Z</time>
      </trkpt>
      <trkpt lat="42.52186" lon="-0.15432">
        <ele>1385.5</ele>
        <time>2017-08-13T08:48:35Z</time>
      </trkpt>
      <trkpt lat="42.52183" lon="-0.15429">
        <ele>1386.2</ele>
        <time>2017-08-13T08:48:37Z</time>
      </trkpt>
      <trkpt lat="42.52179" lon="-0.15425">
        <ele>1386.4</ele>
        <time>2017-08-13T08:48:39Z</time>
      </trkpt>
      <trkpt lat="42.52175" lon="-0.1542">
        <ele>1386.1</ele>
        <time>2017-08-13T08:48:41Z</time>
      </trkpt>
      <trkpt lat="42.52172" lon="-0.15415">
        <ele>1386.4</ele>
        <time>2017-08-13T08:48:43Z</time>
      </trkpt>
      <trkpt lat="42.52171" lon="-0.15409">
        <ele>1386.7</ele>
        <time>2017-08-13T08:48:45Z</time>
      </trkpt>
      <trkpt lat="42.52171" lon="-0.15405">
        <ele>1386.7</ele>
        <time>2017-08-13T08:48:46Z</time>
      </trkpt>
      <trkpt lat="42.52171" lon="-0.15401">
        <ele>1386.6</ele>
        <time>2017-08-13T08:48:47Z</time>
      </trkpt>
      <trkpt lat="42.52171" lon="-0.15395">
        <ele>1386.5</ele>
        <time>2017-08-13T08:48:49Z</time>
      </trkpt>
      <trkpt lat="42.52172" lon="-0.15389">
        <ele>1386.1</ele>
        <time>2017-08-13T08:48:51Z</time>
      </trkpt>
      <trkpt lat="42.52172" lon="-0.15384">
        <ele>1385.5</ele>
        <time>2017-08-13T08:48:53Z</time>
      </trkpt>
      <trkpt lat="42.52172" lon="-0.15378">
        <ele>1385.5</ele>
        <time>2017-08-13T08:48:55Z</time>
      </trkpt>
      <trkpt lat="42.52173" lon="-0.15371">
        <ele>1385.4</ele>
        <time>2017-08-13T08:48:57Z</time>
      </trkpt>
      <trkpt lat="42.52175" lon="-0.15366">
        <ele>1385.1</ele>
        <time>2017-08-13T08:48:59Z</time>
      </trkpt>
      <trkpt lat="42.52178" lon="-0.1536">
        <ele>1384.5</ele>
        <time>2017-08-13T08:49:01Z</time>
      </trkpt>
      <trkpt lat="42.52182" lon="-0.15356">
        <ele>1384.3</ele>
        <time>2017-08-13T08:49:03Z</time>
      </trkpt>
      <trkpt lat="42.52187" lon="-0.15354">
        <ele>1384.1</ele>
        <time>2017-08-13T08:49:05Z</time>
      </trkpt>
      <trkpt lat="42.52192" lon="-0.15354">
        <ele>1383.9</ele>
        <time>2017-08-13T08:49:07Z</time>
      </trkpt>
      <trkpt lat="42.52196" lon="-0.15353">
        <ele>1383.9</ele>
        <time>2017-08-13T08:49:09Z</time>
      </trkpt>
      <trkpt lat="42.52201" lon="-0.15351">
        <ele>1384.5</ele>
        <time>2017-08-13T08:49:11Z</time>
      </trkpt>
      <trkpt lat="42.52205" lon="-0.15349">
        <ele>1384.9</ele>
        <time>2017-08-13T08:49:13Z</time>
      </trkpt>
      <trkpt lat="42.52208" lon="-0.15347">
        <ele>1385.1</ele>
        <time>2017-08-13T08:49:15Z</time>
      </trkpt>
      <trkpt lat="42.5221" lon="-0.15343">
        <ele>1385.4</ele>
        <time>2017-08-13T08:49:17Z</time>
      </trkpt>
      <trkpt lat="42.52212" lon="-0.15338">
        <ele>1385.7</ele>
        <time>2017-08-13T08:49:20Z</time>
      </trkpt>
      <trkpt lat="42.52211" lon="-0.15334">
        <ele>1386.1</ele>
        <time>2017-08-13T08:49:25Z</time>
      </trkpt>
      <trkpt lat="42.5221" lon="-0.1533">
        <ele>1386.5</ele>
        <time>2017-08-13T08:49:28Z</time>
      </trkpt>
      <trkpt lat="42.52211" lon="-0.15327">
        <ele>1386.8</ele>
        <time>2017-08-13T08:49:30Z</time>
      </trkpt>
      <trkpt lat="42.5221" lon="-0.15321">
        <ele>1387.2</ele>
        <time>2017-08-13T08:49:33Z</time>
      </trkpt>
      <trkpt lat="42.52209" lon="-0.15317">
        <ele>1387.5</ele>
        <time>2017-08-13T08:49:35Z</time>
      </trkpt>
      <trkpt lat="42.52209" lon="-0.15312">
        <ele>1387.9</ele>
        <time>2017-08-13T08:49:37Z</time>
      </trkpt>
      <trkpt lat="42.5221" lon="-0.15308">
        <ele>1388.3</ele>
        <time>2017-08-13T08:49:39Z</time>
      </trkpt>
      <trkpt lat="42.52209" lon="-0.15304">
        <ele>1389.2</ele>
        <time>2017-08-13T08:49:43Z</time>
      </trkpt>
      <trkpt lat="42.52208" lon="-0.153">
        <ele>1390</ele>
        <time>2017-08-13T08:49:46Z</time>
      </trkpt>
      <trkpt lat="42.52209" lon="-0.15296">
        <ele>1390.8</ele>
        <time>2017-08-13T08:49:48Z</time>
      </trkpt>
      <trkpt lat="42.52208" lon="-0.15291">
        <ele>1391.7</ele>
        <time>2017-08-13T08:49:51Z</time>
      </trkpt>
      <trkpt lat="42.52207" lon="-0.15285">
        <ele>1392.5</ele>
        <time>2017-08-13T08:49:54Z</time>
      </trkpt>
      <trkpt lat="42.52207" lon="-0.15281">
        <ele>1392.9</ele>
        <time>2017-08-13T08:49:56Z</time>
      </trkpt>
      <trkpt lat="42.52207" lon="-0.15277">
        <ele>1393.3</ele>
        <time>2017-08-13T08:49:58Z</time>
      </trkpt>
      <trkpt lat="42.52207" lon="-0.15274">
        <ele>1393.7</ele>
        <time>2017-08-13T08:50:00Z</time>
      </trkpt>
      <trkpt lat="42.52205" lon="-0.15269">
        <ele>1394.2</ele>
        <time>2017-08-13T08:50:03Z</time>
      </trkpt>
      <trkpt lat="42.52205" lon="-0.15265">
        <ele>1394.7</ele>
        <time>2017-08-13T08:50:05Z</time>
      </trkpt>
      <trkpt lat="42.52204" lon="-0.1526">
        <ele>1395.5</ele>
        <time>2017-08-13T08:50:08Z</time>
      </trkpt>
      <trkpt lat="42.52202" lon="-0.15255">
        <ele>1396</ele>
        <time>2017-08-13T08:50:11Z</time>
      </trkpt>
      <trkpt lat="42.52201" lon="-0.15252">
        <ele>1396.4</ele>
        <time>2017-08-13T08:50:13Z</time>
      </trkpt>
      <trkpt lat="42.522" lon="-0.15248">
        <ele>1397</ele>
        <time>2017-08-13T08:50:15Z</time>
      </trkpt>
      <trkpt lat="42.52199" lon="-0.15244">
        <ele>1397.8</ele>
        <time>2017-08-13T08:50:17Z</time>
      </trkpt>
      <trkpt lat="42.52197" lon="-0.1524">
        <ele>1398.6</ele>
        <time>2017-08-13T08:50:19Z</time>
      </trkpt>
      <trkpt lat="42.52196" lon="-0.15236">
        <ele>1399</ele>
        <time>2017-08-13T08:50:21Z</time>
      </trkpt>
      <trkpt lat="42.52194" lon="-0.15233">
        <ele>1399.5</ele>
        <time>2017-08-13T08:50:23Z</time>
      </trkpt>
      <trkpt lat="42.52191" lon="-0.15231">
        <ele>1399.8</ele>
        <time>2017-08-13T08:50:25Z</time>
      </trkpt>
      <trkpt lat="42.52189" lon="-0.15228">
        <ele>1400.1</ele>
        <time>2017-08-13T08:50:27Z</time>
      </trkpt>
      <trkpt lat="42.52187" lon="-0.15224">
        <ele>1400.4</ele>
        <time>2017-08-13T08:50:29Z</time>
      </trkpt>
      <trkpt lat="42.52185" lon="-0.15221">
        <ele>1400.4</ele>
        <time>2017-08-13T08:50:31Z</time>
      </trkpt>
      <trkpt lat="42.52183" lon="-0.15217">
        <ele>1400.4</ele>
        <time>2017-08-13T08:50:33Z</time>
      </trkpt>
      <trkpt lat="42.52182" lon="-0.15214">
        <ele>1400.4</ele>
        <time>2017-08-13T08:50:35Z</time>
      </trkpt>
      <trkpt lat="42.5218" lon="-0.1521">
        <ele>1400.5</ele>
        <time>2017-08-13T08:50:38Z</time>
      </trkpt>
      <trkpt lat="42.52179" lon="-0.15206">
        <ele>1400.6</ele>
        <time>2017-08-13T08:50:40Z</time>
      </trkpt>
      <trkpt lat="42.52178" lon="-0.15202">
        <ele>1400.7</ele>
        <time>2017-08-13T08:50:42Z</time>
      </trkpt>
      <trkpt lat="42.52176" lon="-0.15199">
        <ele>1400.8</ele>
        <time>2017-08-13T08:50:44Z</time>
      </trkpt>
      <trkpt lat="42.52173" lon="-0.15196">
        <ele>1400.8</ele>
        <time>2017-08-13T08:50:46Z</time>
      </trkpt>
      <trkpt lat="42.52171" lon="-0.15193">
        <ele>1400.9</ele>
        <time>2017-08-13T08:50:48Z</time>
      </trkpt>
      <trkpt lat="42.52169" lon="-0.15189">
        <ele>1400.9</ele>
        <time>2017-08-13T08:50:50Z</time>
      </trkpt>
      <trkpt lat="42.52166" lon="-0.15186">
        <ele>1400.9</ele>
        <time>2017-08-13T08:50:52Z</time>
      </trkpt>
      <trkpt lat="42.52163" lon="-0.15182">
        <ele>1400.9</ele>
        <time>2017-08-13T08:50:54Z</time>
      </trkpt>
      <trkpt lat="42.52161" lon="-0.15179">
        <ele>1401.2</ele>
        <time>2017-08-13T08:50:56Z</time>
      </trkpt>
      <trkpt lat="42.52158" lon="-0.15176">
        <ele>1401.5</ele>
        <time>2017-08-13T08:50:58Z</time>
      </trkpt>
      <trkpt lat="42.52156" lon="-0.15173">
        <ele>1401.7</ele>
        <time>2017-08-13T08:51:00Z</time>
      </trkpt>
      <trkpt lat="42.52153" lon="-0.1517">
        <ele>1401.9</ele>
        <time>2017-08-13T08:51:02Z</time>
      </trkpt>
      <trkpt lat="42.52149" lon="-0.15168">
        <ele>1402.2</ele>
        <time>2017-08-13T08:51:05Z</time>
      </trkpt>
      <trkpt lat="42.52146" lon="-0.15167">
        <ele>1402.5</ele>
        <time>2017-08-13T08:51:07Z</time>
      </trkpt>
      <trkpt lat="42.52143" lon="-0.15166">
        <ele>1402.9</ele>
        <time>2017-08-13T08:51:09Z</time>
      </trkpt>
      <trkpt lat="42.52139" lon="-0.15165">
        <ele>1403.4</ele>
        <time>2017-08-13T08:51:11Z</time>
      </trkpt>
      <trkpt lat="42.52135" lon="-0.15163">
        <ele>1403.9</ele>
        <time>2017-08-13T08:51:13Z</time>
      </trkpt>
      <trkpt lat="42.52131" lon="-0.15161">
        <ele>1404.2</ele>
        <time>2017-08-13T08:51:15Z</time>
      </trkpt>
      <trkpt lat="42.52127" lon="-0.15159">
        <ele>1404.5</ele>
        <time>2017-08-13T08:51:17Z</time>
      </trkpt>
      <trkpt lat="42.52123" lon="-0.15157">
        <ele>1404.9</ele>
        <time>2017-08-13T08:51:19Z</time>
      </trkpt>
      <trkpt lat="42.52119" lon="-0.15156">
        <ele>1405.3</ele>
        <time>2017-08-13T08:51:21Z</time>
      </trkpt>
      <trkpt lat="42.52115" lon="-0.15154">
        <ele>1405.4</ele>
        <time>2017-08-13T08:51:23Z</time>
      </trkpt>
      <trkpt lat="42.52111" lon="-0.15153">
        <ele>1405.5</ele>
        <time>2017-08-13T08:51:25Z</time>
      </trkpt>
      <trkpt lat="42.52107" lon="-0.15152">
        <ele>1405.3</ele>
        <time>2017-08-13T08:51:27Z</time>
      </trkpt>
      <trkpt lat="42.52102" lon="-0.15153">
        <ele>1405.3</ele>
        <time>2017-08-13T08:51:29Z</time>
      </trkpt>
      <trkpt lat="42.52099" lon="-0.15153">
        <ele>1405.3</ele>
        <time>2017-08-13T08:51:31Z</time>
      </trkpt>
      <trkpt lat="42.52095" lon="-0.15153">
        <ele>1405.3</ele>
        <time>2017-08-13T08:51:33Z</time>
      </trkpt>
      <trkpt lat="42.52092" lon="-0.15154">
        <ele>1405.5</ele>
        <time>2017-08-13T08:51:35Z</time>
      </trkpt>
      <trkpt lat="42.52088" lon="-0.15154">
        <ele>1405.8</ele>
        <time>2017-08-13T08:51:37Z</time>
      </trkpt>
      <trkpt lat="42.52083" lon="-0.15154">
        <ele>1406.2</ele>
        <time>2017-08-13T08:51:39Z</time>
      </trkpt>
      <trkpt lat="42.52079" lon="-0.15155">
        <ele>1406.9</ele>
        <time>2017-08-13T08:51:41Z</time>
      </trkpt>
      <trkpt lat="42.52076" lon="-0.15155">
        <ele>1407.6</ele>
        <time>2017-08-13T08:51:43Z</time>
      </trkpt>
      <trkpt lat="42.52073" lon="-0.15156">
        <ele>1408.2</ele>
        <time>2017-08-13T08:51:45Z</time>
      </trkpt>
      <trkpt lat="42.52069" lon="-0.15157">
        <ele>1409.1</ele>
        <time>2017-08-13T08:51:47Z</time>
      </trkpt>
      <trkpt lat="42.52065" lon="-0.15156">
        <ele>1410.1</ele>
        <time>2017-08-13T08:51:49Z</time>
      </trkpt>
      <trkpt lat="42.5206" lon="-0.15154">
        <ele>1411.1</ele>
        <time>2017-08-13T08:51:51Z</time>
      </trkpt>
      <trkpt lat="42.52057" lon="-0.15153">
        <ele>1411.8</ele>
        <time>2017-08-13T08:51:53Z</time>
      </trkpt>
      <trkpt lat="42.52053" lon="-0.15151">
        <ele>1412.5</ele>
        <time>2017-08-13T08:51:55Z</time>
      </trkpt>
      <trkpt lat="42.52049" lon="-0.15149">
        <ele>1413.5</ele>
        <time>2017-08-13T08:51:57Z</time>
      </trkpt>
      <trkpt lat="42.52046" lon="-0.15147">
        <ele>1414.3</ele>
        <time>2017-08-13T08:51:59Z</time>
      </trkpt>
      <trkpt lat="42.52043" lon="-0.15145">
        <ele>1414.9</ele>
        <time>2017-08-13T08:52:01Z</time>
      </trkpt>
      <trkpt lat="42.52039" lon="-0.15143">
        <ele>1415.5</ele>
        <time>2017-08-13T08:52:03Z</time>
      </trkpt>
      <trkpt lat="42.52036" lon="-0.15141">
        <ele>1416.2</ele>
        <time>2017-08-13T08:52:05Z</time>
      </trkpt>
      <trkpt lat="42.52032" lon="-0.1514">
        <ele>1417.2</ele>
        <time>2017-08-13T08:52:07Z</time>
      </trkpt>
      <trkpt lat="42.52028" lon="-0.15138">
        <ele>1418</ele>
        <time>2017-08-13T08:52:09Z</time>
      </trkpt>
      <trkpt lat="42.52024" lon="-0.15135">
        <ele>1418.6</ele>
        <time>2017-08-13T08:52:11Z</time>
      </trkpt>
      <trkpt lat="42.52021" lon="-0.15133">
        <ele>1419.5</ele>
        <time>2017-08-13T08:52:13Z</time>
      </trkpt>
      <trkpt lat="42.52018" lon="-0.15131">
        <ele>1420</ele>
        <time>2017-08-13T08:52:15Z</time>
      </trkpt>
      <trkpt lat="42.52015" lon="-0.15131">
        <ele>1420.5</ele>
        <time>2017-08-13T08:52:17Z</time>
      </trkpt>
      <trkpt lat="42.52012" lon="-0.15133">
        <ele>1421.1</ele>
        <time>2017-08-13T08:52:19Z</time>
      </trkpt>
      <trkpt lat="42.5201" lon="-0.15136">
        <ele>1421.2</ele>
        <time>2017-08-13T08:52:21Z</time>
      </trkpt>
      <trkpt lat="42.52008" lon="-0.1514">
        <ele>1421.1</ele>
        <time>2017-08-13T08:52:23Z</time>
      </trkpt>
      <trkpt lat="42.52007" lon="-0.15146">
        <ele>1421</ele>
        <time>2017-08-13T08:52:25Z</time>
      </trkpt>
      <trkpt lat="42.52007" lon="-0.15152">
        <ele>1420.8</ele>
        <time>2017-08-13T08:52:27Z</time>
      </trkpt>
      <trkpt lat="42.52008" lon="-0.15158">
        <ele>1420.5</ele>
        <time>2017-08-13T08:52:29Z</time>
      </trkpt>
      <trkpt lat="42.5201" lon="-0.15162">
        <ele>1420.1</ele>
        <time>2017-08-13T08:52:31Z</time>
      </trkpt>
      <trkpt lat="42.5201" lon="-0.15167">
        <ele>1420.1</ele>
        <time>2017-08-13T08:52:33Z</time>
      </trkpt>
      <trkpt lat="42.52011" lon="-0.15173">
        <ele>1420.1</ele>
        <time>2017-08-13T08:52:35Z</time>
      </trkpt>
      <trkpt lat="42.52012" lon="-0.15178">
        <ele>1420.3</ele>
        <time>2017-08-13T08:52:37Z</time>
      </trkpt>
      <trkpt lat="42.52012" lon="-0.15182">
        <ele>1420.4</ele>
        <time>2017-08-13T08:52:39Z</time>
      </trkpt>
      <trkpt lat="42.52012" lon="-0.15187">
        <ele>1420.8</ele>
        <time>2017-08-13T08:52:41Z</time>
      </trkpt>
      <trkpt lat="42.52011" lon="-0.15191">
        <ele>1421.2</ele>
        <time>2017-08-13T08:52:43Z</time>
      </trkpt>
      <trkpt lat="42.5201" lon="-0.15195">
        <ele>1421.6</ele>
        <time>2017-08-13T08:52:45Z</time>
      </trkpt>
      <trkpt lat="42.52009" lon="-0.152">
        <ele>1422.4</ele>
        <time>2017-08-13T08:52:47Z</time>
      </trkpt>
      <trkpt lat="42.52007" lon="-0.15204">
        <ele>1423.3</ele>
        <time>2017-08-13T08:52:49Z</time>
      </trkpt>
      <trkpt lat="42.52006" lon="-0.15209">
        <ele>1424.4</ele>
        <time>2017-08-13T08:52:51Z</time>
      </trkpt>
      <trkpt lat="42.52005" lon="-0.15213">
        <ele>1425.5</ele>
        <time>2017-08-13T08:52:53Z</time>
      </trkpt>
      <trkpt lat="42.52003" lon="-0.15217">
        <ele>1426.6</ele>
        <time>2017-08-13T08:52:55Z</time>
      </trkpt>
      <trkpt lat="42.52002" lon="-0.15221">
        <ele>1428.1</ele>
        <time>2017-08-13T08:52:57Z</time>
      </trkpt>
      <trkpt lat="42.52" lon="-0.15226">
        <ele>1429.1</ele>
        <time>2017-08-13T08:52:59Z</time>
      </trkpt>
      <trkpt lat="42.51999" lon="-0.1523">
        <ele>1429.8</ele>
        <time>2017-08-13T08:53:01Z</time>
      </trkpt>
      <trkpt lat="42.51999" lon="-0.15235">
        <ele>1430.6</ele>
        <time>2017-08-13T08:53:03Z</time>
      </trkpt>
      <trkpt lat="42.51999" lon="-0.1524">
        <ele>1431.3</ele>
        <time>2017-08-13T08:53:05Z</time>
      </trkpt>
      <trkpt lat="42.51998" lon="-0.15244">
        <ele>1432</ele>
        <time>2017-08-13T08:53:07Z</time>
      </trkpt>
      <trkpt lat="42.51997" lon="-0.15249">
        <ele>1432.8</ele>
        <time>2017-08-13T08:53:10Z</time>
      </trkpt>
      <trkpt lat="42.51997" lon="-0.15254">
        <ele>1433.5</ele>
        <time>2017-08-13T08:53:13Z</time>
      </trkpt>
      <trkpt lat="42.51997" lon="-0.15259">
        <ele>1434.1</ele>
        <time>2017-08-13T08:53:16Z</time>
      </trkpt>
      <trkpt lat="42.51998" lon="-0.15264">
        <ele>1434.1</ele>
        <time>2017-08-13T08:53:18Z</time>
      </trkpt>
      <trkpt lat="42.51998" lon="-0.15268">
        <ele>1434</ele>
        <time>2017-08-13T08:53:20Z</time>
      </trkpt>
      <trkpt lat="42.51999" lon="-0.15272">
        <ele>1433.6</ele>
        <time>2017-08-13T08:53:22Z</time>
      </trkpt>
      <trkpt lat="42.51999" lon="-0.15276">
        <ele>1433</ele>
        <time>2017-08-13T08:53:24Z</time>
      </trkpt>
      <trkpt lat="42.52" lon="-0.15281">
        <ele>1432.5</ele>
        <time>2017-08-13T08:53:27Z</time>
      </trkpt>
      <trkpt lat="42.52001" lon="-0.15286">
        <ele>1433.1</ele>
        <time>2017-08-13T08:53:30Z</time>
      </trkpt>
      <trkpt lat="42.52002" lon="-0.15291">
        <ele>1433.6</ele>
        <time>2017-08-13T08:53:33Z</time>
      </trkpt>
      <trkpt lat="42.52003" lon="-0.15295">
        <ele>1433.6</ele>
        <time>2017-08-13T08:53:35Z</time>
      </trkpt>
      <trkpt lat="42.52004" lon="-0.15299">
        <ele>1433.7</ele>
        <time>2017-08-13T08:53:37Z</time>
      </trkpt>
      <trkpt lat="42.52005" lon="-0.15304">
        <ele>1434.1</ele>
        <time>2017-08-13T08:53:39Z</time>
      </trkpt>
      <trkpt lat="42.52005" lon="-0.15308">
        <ele>1434.8</ele>
        <time>2017-08-13T08:53:41Z</time>
      </trkpt>
      <trkpt lat="42.52005" lon="-0.15312">
        <ele>1435.4</ele>
        <time>2017-08-13T08:53:43Z</time>
      </trkpt>
      <trkpt lat="42.52005" lon="-0.15316">
        <ele>1435.4</ele>
        <time>2017-08-13T08:53:45Z</time>
      </trkpt>
      <trkpt lat="42.52005" lon="-0.1532">
        <ele>1435.2</ele>
        <time>2017-08-13T08:53:47Z</time>
      </trkpt>
      <trkpt lat="42.52005" lon="-0.15324">
        <ele>1435</ele>
        <time>2017-08-13T08:53:49Z</time>
      </trkpt>
      <trkpt lat="42.52006" lon="-0.15328">
        <ele>1435.5</ele>
        <time>2017-08-13T08:53:51Z</time>
      </trkpt>
      <trkpt lat="42.52007" lon="-0.15332">
        <ele>1435.9</ele>
        <time>2017-08-13T08:53:53Z</time>
      </trkpt>
      <trkpt lat="42.52007" lon="-0.15336">
        <ele>1436.1</ele>
        <time>2017-08-13T08:53:55Z</time>
      </trkpt>
      <trkpt lat="42.52007" lon="-0.1534">
        <ele>1436.1</ele>
        <time>2017-08-13T08:53:57Z</time>
      </trkpt>
      <trkpt lat="42.52007" lon="-0.15344">
        <ele>1436</ele>
        <time>2017-08-13T08:53:59Z</time>
      </trkpt>
      <trkpt lat="42.52007" lon="-0.15349">
        <ele>1436.7</ele>
        <time>2017-08-13T08:54:01Z</time>
      </trkpt>
      <trkpt lat="42.52007" lon="-0.15353">
        <ele>1437.5</ele>
        <time>2017-08-13T08:54:03Z</time>
      </trkpt>
      <trkpt lat="42.52007" lon="-0.15358">
        <ele>1438.2</ele>
        <time>2017-08-13T08:54:05Z</time>
      </trkpt>
      <trkpt lat="42.52006" lon="-0.15362">
        <ele>1438.6</ele>
        <time>2017-08-13T08:54:07Z</time>
      </trkpt>
      <trkpt lat="42.52005" lon="-0.15367">
        <ele>1438.9</ele>
        <time>2017-08-13T08:54:09Z</time>
      </trkpt>
      <trkpt lat="42.52004" lon="-0.15372">
        <ele>1439.6</ele>
        <time>2017-08-13T08:54:11Z</time>
      </trkpt>
      <trkpt lat="42.52002" lon="-0.15376">
        <ele>1440.4</ele>
        <time>2017-08-13T08:54:13Z</time>
      </trkpt>
      <trkpt lat="42.52" lon="-0.15382">
        <ele>1440.9</ele>
        <time>2017-08-13T08:54:15Z</time>
      </trkpt>
      <trkpt lat="42.51999" lon="-0.15388">
        <ele>1440.9</ele>
        <time>2017-08-13T08:54:17Z</time>
      </trkpt>
      <trkpt lat="42.51998" lon="-0.15394">
        <ele>1441.8</ele>
        <time>2017-08-13T08:54:19Z</time>
      </trkpt>
      <trkpt lat="42.51997" lon="-0.154">
        <ele>1443.1</ele>
        <time>2017-08-13T08:54:21Z</time>
      </trkpt>
      <trkpt lat="42.51995" lon="-0.15406">
        <ele>1443.5</ele>
        <time>2017-08-13T08:54:23Z</time>
      </trkpt>
      <trkpt lat="42.51993" lon="-0.15412">
        <ele>1444</ele>
        <time>2017-08-13T08:54:25Z</time>
      </trkpt>
      <trkpt lat="42.5199" lon="-0.15417">
        <ele>1444.9</ele>
        <time>2017-08-13T08:54:27Z</time>
      </trkpt>
      <trkpt lat="42.51987" lon="-0.15422">
        <ele>1445.3</ele>
        <time>2017-08-13T08:54:29Z</time>
      </trkpt>
      <trkpt lat="42.51983" lon="-0.15425">
        <ele>1445.4</ele>
        <time>2017-08-13T08:54:31Z</time>
      </trkpt>
      <trkpt lat="42.51978" lon="-0.15429">
        <ele>1446.7</ele>
        <time>2017-08-13T08:54:33Z</time>
      </trkpt>
      <trkpt lat="42.51973" lon="-0.15433">
        <ele>1447.6</ele>
        <time>2017-08-13T08:54:35Z</time>
      </trkpt>
      <trkpt lat="42.51968" lon="-0.15434">
        <ele>1448.2</ele>
        <time>2017-08-13T08:54:37Z</time>
      </trkpt>
      <trkpt lat="42.51966" lon="-0.15435">
        <ele>1448.6</ele>
        <time>2017-08-13T08:54:38Z</time>
      </trkpt>
      <trkpt lat="42.51963" lon="-0.15435">
        <ele>1449.3</ele>
        <time>2017-08-13T08:54:39Z</time>
      </trkpt>
      <trkpt lat="42.5196" lon="-0.15436">
        <ele>1450.1</ele>
        <time>2017-08-13T08:54:40Z</time>
      </trkpt>
      <trkpt lat="42.51955" lon="-0.15437">
        <ele>1451</ele>
        <time>2017-08-13T08:54:42Z</time>
      </trkpt>
      <trkpt lat="42.51952" lon="-0.15438">
        <ele>1451.4</ele>
        <time>2017-08-13T08:54:43Z</time>
      </trkpt>
      <trkpt lat="42.51949" lon="-0.15439">
        <ele>1451.7</ele>
        <time>2017-08-13T08:54:44Z</time>
      </trkpt>
      <trkpt lat="42.51946" lon="-0.1544">
        <ele>1451.8</ele>
        <time>2017-08-13T08:54:45Z</time>
      </trkpt>
      <trkpt lat="42.51944" lon="-0.15442">
        <ele>1451.9</ele>
        <time>2017-08-13T08:54:46Z</time>
      </trkpt>
      <trkpt lat="42.51941" lon="-0.15443">
        <ele>1452.1</ele>
        <time>2017-08-13T08:54:47Z</time>
      </trkpt>
      <trkpt lat="42.51938" lon="-0.15444">
        <ele>1452.3</ele>
        <time>2017-08-13T08:54:48Z</time>
      </trkpt>
      <trkpt lat="42.51936" lon="-0.15446">
        <ele>1452.5</ele>
        <time>2017-08-13T08:54:49Z</time>
      </trkpt>
      <trkpt lat="42.51934" lon="-0.15448">
        <ele>1452.8</ele>
        <time>2017-08-13T08:54:50Z</time>
      </trkpt>
      <trkpt lat="42.51931" lon="-0.1545">
        <ele>1453.2</ele>
        <time>2017-08-13T08:54:51Z</time>
      </trkpt>
      <trkpt lat="42.51929" lon="-0.15453">
        <ele>1453.5</ele>
        <time>2017-08-13T08:54:52Z</time>
      </trkpt>
      <trkpt lat="42.51925" lon="-0.15457">
        <ele>1454.3</ele>
        <time>2017-08-13T08:54:54Z</time>
      </trkpt>
      <trkpt lat="42.51922" lon="-0.15463">
        <ele>1454.7</ele>
        <time>2017-08-13T08:54:56Z</time>
      </trkpt>
      <trkpt lat="42.51919" lon="-0.15467">
        <ele>1454.9</ele>
        <time>2017-08-13T08:54:58Z</time>
      </trkpt>
      <trkpt lat="42.51915" lon="-0.15473">
        <ele>1455.4</ele>
        <time>2017-08-13T08:55:00Z</time>
      </trkpt>
      <trkpt lat="42.51912" lon="-0.15478">
        <ele>1455.8</ele>
        <time>2017-08-13T08:55:02Z</time>
      </trkpt>
      <trkpt lat="42.51909" lon="-0.15483">
        <ele>1456.1</ele>
        <time>2017-08-13T08:55:04Z</time>
      </trkpt>
      <trkpt lat="42.51906" lon="-0.15488">
        <ele>1456.6</ele>
        <time>2017-08-13T08:55:06Z</time>
      </trkpt>
      <trkpt lat="42.51903" lon="-0.15492">
        <ele>1457.2</ele>
        <time>2017-08-13T08:55:08Z</time>
      </trkpt>
      <trkpt lat="42.51901" lon="-0.15497">
        <ele>1457.4</ele>
        <time>2017-08-13T08:55:10Z</time>
      </trkpt>
      <trkpt lat="42.51898" lon="-0.15502">
        <ele>1457.7</ele>
        <time>2017-08-13T08:55:12Z</time>
      </trkpt>
      <trkpt lat="42.51896" lon="-0.15507">
        <ele>1458</ele>
        <time>2017-08-13T08:55:14Z</time>
      </trkpt>
      <trkpt lat="42.51895" lon="-0.15513">
        <ele>1458.4</ele>
        <time>2017-08-13T08:55:16Z</time>
      </trkpt>
      <trkpt lat="42.51895" lon="-0.15519">
        <ele>1458.8</ele>
        <time>2017-08-13T08:55:18Z</time>
      </trkpt>
      <trkpt lat="42.51896" lon="-0.15524">
        <ele>1459.4</ele>
        <time>2017-08-13T08:55:20Z</time>
      </trkpt>
      <trkpt lat="42.51899" lon="-0.15531">
        <ele>1459.6</ele>
        <time>2017-08-13T08:55:22Z</time>
      </trkpt>
      <trkpt lat="42.519" lon="-0.15537">
        <ele>1459.7</ele>
        <time>2017-08-13T08:55:24Z</time>
      </trkpt>
      <trkpt lat="42.51901" lon="-0.15542">
        <ele>1459.8</ele>
        <time>2017-08-13T08:55:26Z</time>
      </trkpt>
      <trkpt lat="42.51902" lon="-0.15546">
        <ele>1459.9</ele>
        <time>2017-08-13T08:55:28Z</time>
      </trkpt>
      <trkpt lat="42.51902" lon="-0.15551">
        <ele>1460</ele>
        <time>2017-08-13T08:55:30Z</time>
      </trkpt>
      <trkpt lat="42.51903" lon="-0.15556">
        <ele>1460</ele>
        <time>2017-08-13T08:55:32Z</time>
      </trkpt>
      <trkpt lat="42.51904" lon="-0.15561">
        <ele>1459.9</ele>
        <time>2017-08-13T08:55:34Z</time>
      </trkpt>
      <trkpt lat="42.51904" lon="-0.15566">
        <ele>1459.8</ele>
        <time>2017-08-13T08:55:36Z</time>
      </trkpt>
      <trkpt lat="42.51903" lon="-0.15571">
        <ele>1459.7</ele>
        <time>2017-08-13T08:55:38Z</time>
      </trkpt>
      <trkpt lat="42.51902" lon="-0.15576">
        <ele>1459.9</ele>
        <time>2017-08-13T08:55:40Z</time>
      </trkpt>
      <trkpt lat="42.51901" lon="-0.15581">
        <ele>1460.1</ele>
        <time>2017-08-13T08:55:42Z</time>
      </trkpt>
      <trkpt lat="42.51901" lon="-0.15587">
        <ele>1460.3</ele>
        <time>2017-08-13T08:55:44Z</time>
      </trkpt>
      <trkpt lat="42.51901" lon="-0.15593">
        <ele>1460.6</ele>
        <time>2017-08-13T08:55:46Z</time>
      </trkpt>
      <trkpt lat="42.51901" lon="-0.15599">
        <ele>1460.8</ele>
        <time>2017-08-13T08:55:48Z</time>
      </trkpt>
      <trkpt lat="42.51901" lon="-0.15604">
        <ele>1461.5</ele>
        <time>2017-08-13T08:55:50Z</time>
      </trkpt>
      <trkpt lat="42.519" lon="-0.1561">
        <ele>1462.2</ele>
        <time>2017-08-13T08:55:52Z</time>
      </trkpt>
      <trkpt lat="42.51899" lon="-0.15615">
        <ele>1462.6</ele>
        <time>2017-08-13T08:55:54Z</time>
      </trkpt>
      <trkpt lat="42.51897" lon="-0.1562">
        <ele>1463.1</ele>
        <time>2017-08-13T08:55:56Z</time>
      </trkpt>
      <trkpt lat="42.51895" lon="-0.15625">
        <ele>1463.8</ele>
        <time>2017-08-13T08:55:58Z</time>
      </trkpt>
      <trkpt lat="42.51894" lon="-0.1563">
        <ele>1464.5</ele>
        <time>2017-08-13T08:56:00Z</time>
      </trkpt>
      <trkpt lat="42.51893" lon="-0.15634">
        <ele>1465.3</ele>
        <time>2017-08-13T08:56:02Z</time>
      </trkpt>
      <trkpt lat="42.51891" lon="-0.1564">
        <ele>1466.2</ele>
        <time>2017-08-13T08:56:04Z</time>
      </trkpt>
      <trkpt lat="42.51889" lon="-0.15645">
        <ele>1467.3</ele>
        <time>2017-08-13T08:56:06Z</time>
      </trkpt>
      <trkpt lat="42.51887" lon="-0.15651">
        <ele>1468.8</ele>
        <time>2017-08-13T08:56:08Z</time>
      </trkpt>
      <trkpt lat="42.51885" lon="-0.15656">
        <ele>1470.4</ele>
        <time>2017-08-13T08:56:10Z</time>
      </trkpt>
      <trkpt lat="42.51883" lon="-0.1566">
        <ele>1471.5</ele>
        <time>2017-08-13T08:56:12Z</time>
      </trkpt>
      <trkpt lat="42.5188" lon="-0.15665">
        <ele>1472.6</ele>
        <time>2017-08-13T08:56:14Z</time>
      </trkpt>
      <trkpt lat="42.51878" lon="-0.15668">
        <ele>1473.6</ele>
        <time>2017-08-13T08:56:16Z</time>
      </trkpt>
      <trkpt lat="42.51874" lon="-0.15671">
        <ele>1474.8</ele>
        <time>2017-08-13T08:56:18Z</time>
      </trkpt>
      <trkpt lat="42.5187" lon="-0.15673">
        <ele>1476</ele>
        <time>2017-08-13T08:56:20Z</time>
      </trkpt>
      <trkpt lat="42.51867" lon="-0.15675">
        <ele>1476.4</ele>
        <time>2017-08-13T08:56:22Z</time>
      </trkpt>
      <trkpt lat="42.51863" lon="-0.15676">
        <ele>1476.2</ele>
        <time>2017-08-13T08:56:25Z</time>
      </trkpt>
      <trkpt lat="42.51859" lon="-0.15676">
        <ele>1475.9</ele>
        <time>2017-08-13T08:56:27Z</time>
      </trkpt>
      <trkpt lat="42.51856" lon="-0.15676">
        <ele>1475.4</ele>
        <time>2017-08-13T08:56:29Z</time>
      </trkpt>
      <trkpt lat="42.51852" lon="-0.15674">
        <ele>1474.9</ele>
        <time>2017-08-13T08:56:31Z</time>
      </trkpt>
      <trkpt lat="42.5185" lon="-0.15672">
        <ele>1474.5</ele>
        <time>2017-08-13T08:56:33Z</time>
      </trkpt>
      <trkpt lat="42.51848" lon="-0.15668">
        <ele>1474.2</ele>
        <time>2017-08-13T08:56:35Z</time>
      </trkpt>
      <trkpt lat="42.51847" lon="-0.15664">
        <ele>1473.8</ele>
        <time>2017-08-13T08:56:37Z</time>
      </trkpt>
      <trkpt lat="42.51844" lon="-0.1566">
        <ele>1473.6</ele>
        <time>2017-08-13T08:56:40Z</time>
      </trkpt>
      <trkpt lat="42.51842" lon="-0.15658">
        <ele>1473.4</ele>
        <time>2017-08-13T08:56:42Z</time>
      </trkpt>
      <trkpt lat="42.5184" lon="-0.15656">
        <ele>1473.4</ele>
        <time>2017-08-13T08:56:44Z</time>
      </trkpt>
      <trkpt lat="42.51837" lon="-0.15652">
        <ele>1473.5</ele>
        <time>2017-08-13T08:56:47Z</time>
      </trkpt>
      <trkpt lat="42.51835" lon="-0.15648">
        <ele>1473.6</ele>
        <time>2017-08-13T08:56:49Z</time>
      </trkpt>
      <trkpt lat="42.51833" lon="-0.15644">
        <ele>1473.5</ele>
        <time>2017-08-13T08:56:51Z</time>
      </trkpt>
      <trkpt lat="42.51832" lon="-0.15639">
        <ele>1473.5</ele>
        <time>2017-08-13T08:56:53Z</time>
      </trkpt>
      <trkpt lat="42.5183" lon="-0.15636">
        <ele>1473.5</ele>
        <time>2017-08-13T08:56:55Z</time>
      </trkpt>
      <trkpt lat="42.51828" lon="-0.15633">
        <ele>1473.5</ele>
        <time>2017-08-13T08:56:57Z</time>
      </trkpt>
      <trkpt lat="42.51826" lon="-0.1563">
        <ele>1473.7</ele>
        <time>2017-08-13T08:56:59Z</time>
      </trkpt>
      <trkpt lat="42.51824" lon="-0.15627">
        <ele>1473.8</ele>
        <time>2017-08-13T08:57:01Z</time>
      </trkpt>
      <trkpt lat="42.51822" lon="-0.15624">
        <ele>1473.9</ele>
        <time>2017-08-13T08:57:03Z</time>
      </trkpt>
      <trkpt lat="42.5182" lon="-0.15622">
        <ele>1473.9</ele>
        <time>2017-08-13T08:57:05Z</time>
      </trkpt>
      <trkpt lat="42.51817" lon="-0.15618">
        <ele>1474.1</ele>
        <time>2017-08-13T08:57:08Z</time>
      </trkpt>
      <trkpt lat="42.51815" lon="-0.15614">
        <ele>1474.3</ele>
        <time>2017-08-13T08:57:10Z</time>
      </trkpt>
      <trkpt lat="42.51814" lon="-0.15611">
        <ele>1474.6</ele>
        <time>2017-08-13T08:57:12Z</time>
      </trkpt>
      <trkpt lat="42.51812" lon="-0.15608">
        <ele>1474.9</ele>
        <time>2017-08-13T08:57:14Z</time>
      </trkpt>
      <trkpt lat="42.51811" lon="-0.15605">
        <ele>1475.3</ele>
        <time>2017-08-13T08:57:16Z</time>
      </trkpt>
      <trkpt lat="42.51808" lon="-0.15602">
        <ele>1475.9</ele>
        <time>2017-08-13T08:57:18Z</time>
      </trkpt>
      <trkpt lat="42.51806" lon="-0.15598">
        <ele>1476.4</ele>
        <time>2017-08-13T08:57:20Z</time>
      </trkpt>
      <trkpt lat="42.51804" lon="-0.15596">
        <ele>1477</ele>
        <time>2017-08-13T08:57:22Z</time>
      </trkpt>
      <trkpt lat="42.51803" lon="-0.15592">
        <ele>1477.5</ele>
        <time>2017-08-13T08:57:24Z</time>
      </trkpt>
      <trkpt lat="42.51801" lon="-0.15589">
        <ele>1478.1</ele>
        <time>2017-08-13T08:57:26Z</time>
      </trkpt>
      <trkpt lat="42.518" lon="-0.15585">
        <ele>1478.6</ele>
        <time>2017-08-13T08:57:28Z</time>
      </trkpt>
      <trkpt lat="42.51798" lon="-0.15581">
        <ele>1479</ele>
        <time>2017-08-13T08:57:31Z</time>
      </trkpt>
      <trkpt lat="42.51797" lon="-0.15577">
        <ele>1479.3</ele>
        <time>2017-08-13T08:57:33Z</time>
      </trkpt>
      <trkpt lat="42.51795" lon="-0.15573">
        <ele>1479.9</ele>
        <time>2017-08-13T08:57:36Z</time>
      </trkpt>
      <trkpt lat="42.51794" lon="-0.15569">
        <ele>1480.4</ele>
        <time>2017-08-13T08:57:39Z</time>
      </trkpt>
      <trkpt lat="42.51792" lon="-0.15564">
        <ele>1481</ele>
        <time>2017-08-13T08:57:42Z</time>
      </trkpt>
      <trkpt lat="42.51792" lon="-0.15558">
        <ele>1481.4</ele>
        <time>2017-08-13T08:57:45Z</time>
      </trkpt>
      <trkpt lat="42.51791" lon="-0.15555">
        <ele>1481.7</ele>
        <time>2017-08-13T08:57:47Z</time>
      </trkpt>
      <trkpt lat="42.5179" lon="-0.1555">
        <ele>1482.1</ele>
        <time>2017-08-13T08:57:50Z</time>
      </trkpt>
      <trkpt lat="42.51789" lon="-0.15546">
        <ele>1482.4</ele>
        <time>2017-08-13T08:57:52Z</time>
      </trkpt>
      <trkpt lat="42.51788" lon="-0.15542">
        <ele>1482.7</ele>
        <time>2017-08-13T08:57:54Z</time>
      </trkpt>
      <trkpt lat="42.51787" lon="-0.15539">
        <ele>1483.2</ele>
        <time>2017-08-13T08:57:56Z</time>
      </trkpt>
      <trkpt lat="42.51785" lon="-0.15534">
        <ele>1484</ele>
        <time>2017-08-13T08:57:59Z</time>
      </trkpt>
      <trkpt lat="42.51783" lon="-0.15531">
        <ele>1484.8</ele>
        <time>2017-08-13T08:58:02Z</time>
      </trkpt>
      <trkpt lat="42.5178" lon="-0.15528">
        <ele>1484.8</ele>
        <time>2017-08-13T08:58:05Z</time>
      </trkpt>
      <trkpt lat="42.51777" lon="-0.15527">
        <ele>1485.2</ele>
        <time>2017-08-13T08:58:08Z</time>
      </trkpt>
      <trkpt lat="42.51774" lon="-0.15528">
        <ele>1485.5</ele>
        <time>2017-08-13T08:58:11Z</time>
      </trkpt>
      <trkpt lat="42.51771" lon="-0.1553">
        <ele>1485.8</ele>
        <time>2017-08-13T08:58:15Z</time>
      </trkpt>
      <trkpt lat="42.5177" lon="-0.15533">
        <ele>1486.1</ele>
        <time>2017-08-13T08:58:18Z</time>
      </trkpt>
      <trkpt lat="42.51769" lon="-0.15537">
        <ele>1486.3</ele>
        <time>2017-08-13T08:58:20Z</time>
      </trkpt>
      <trkpt lat="42.51768" lon="-0.15542">
        <ele>1486.3</ele>
        <time>2017-08-13T08:58:22Z</time>
      </trkpt>
      <trkpt lat="42.51767" lon="-0.15546">
        <ele>1486.2</ele>
        <time>2017-08-13T08:58:24Z</time>
      </trkpt>
      <trkpt lat="42.51767" lon="-0.15551">
        <ele>1486.1</ele>
        <time>2017-08-13T08:58:26Z</time>
      </trkpt>
      <trkpt lat="42.51768" lon="-0.15555">
        <ele>1485.9</ele>
        <time>2017-08-13T08:58:28Z</time>
      </trkpt>
      <trkpt lat="42.51767" lon="-0.1556">
        <ele>1485.6</ele>
        <time>2017-08-13T08:58:30Z</time>
      </trkpt>
      <trkpt lat="42.51767" lon="-0.15566">
        <ele>1485.3</ele>
        <time>2017-08-13T08:58:32Z</time>
      </trkpt>
      <trkpt lat="42.51767" lon="-0.15571">
        <ele>1485</ele>
        <time>2017-08-13T08:58:34Z</time>
      </trkpt>
      <trkpt lat="42.51767" lon="-0.15576">
        <ele>1484.8</ele>
        <time>2017-08-13T08:58:36Z</time>
      </trkpt>
      <trkpt lat="42.51766" lon="-0.15582">
        <ele>1484.7</ele>
        <time>2017-08-13T08:58:38Z</time>
      </trkpt>
      <trkpt lat="42.51765" lon="-0.15587">
        <ele>1484.7</ele>
        <time>2017-08-13T08:58:40Z</time>
      </trkpt>
      <trkpt lat="42.51766" lon="-0.15592">
        <ele>1484.8</ele>
        <time>2017-08-13T08:58:42Z</time>
      </trkpt>
      <trkpt lat="42.51766" lon="-0.15598">
        <ele>1485</ele>
        <time>2017-08-13T08:58:44Z</time>
      </trkpt>
      <trkpt lat="42.51767" lon="-0.15603">
        <ele>1485.4</ele>
        <time>2017-08-13T08:58:46Z</time>
      </trkpt>
      <trkpt lat="42.51767" lon="-0.15609">
        <ele>1485.8</ele>
        <time>2017-08-13T08:58:48Z</time>
      </trkpt>
      <trkpt lat="42.51767" lon="-0.15614">
        <ele>1486.3</ele>
        <time>2017-08-13T08:58:50Z</time>
      </trkpt>
      <trkpt lat="42.51767" lon="-0.1562">
        <ele>1486.8</ele>
        <time>2017-08-13T08:58:52Z</time>
      </trkpt>
      <trkpt lat="42.51766" lon="-0.15626">
        <ele>1487.4</ele>
        <time>2017-08-13T08:58:54Z</time>
      </trkpt>
      <trkpt lat="42.51764" lon="-0.15631">
        <ele>1487.9</ele>
        <time>2017-08-13T08:58:56Z</time>
      </trkpt>
      <trkpt lat="42.51763" lon="-0.15637">
        <ele>1488.2</ele>
        <time>2017-08-13T08:58:58Z</time>
      </trkpt>
      <trkpt lat="42.51761" lon="-0.15642">
        <ele>1488.9</ele>
        <time>2017-08-13T08:59:00Z</time>
      </trkpt>
      <trkpt lat="42.51759" lon="-0.15646">
        <ele>1489.9</ele>
        <time>2017-08-13T08:59:02Z</time>
      </trkpt>
      <trkpt lat="42.51758" lon="-0.15651">
        <ele>1490.6</ele>
        <time>2017-08-13T08:59:04Z</time>
      </trkpt>
      <trkpt lat="42.51757" lon="-0.15656">
        <ele>1491.4</ele>
        <time>2017-08-13T08:59:06Z</time>
      </trkpt>
      <trkpt lat="42.51756" lon="-0.15662">
        <ele>1491.9</ele>
        <time>2017-08-13T08:59:08Z</time>
      </trkpt>
      <trkpt lat="42.51757" lon="-0.15667">
        <ele>1492</ele>
        <time>2017-08-13T08:59:10Z</time>
      </trkpt>
      <trkpt lat="42.51756" lon="-0.15672">
        <ele>1492</ele>
        <time>2017-08-13T08:59:12Z</time>
      </trkpt>
      <trkpt lat="42.51756" lon="-0.15678">
        <ele>1491.8</ele>
        <time>2017-08-13T08:59:14Z</time>
      </trkpt>
      <trkpt lat="42.51755" lon="-0.15683">
        <ele>1491.6</ele>
        <time>2017-08-13T08:59:16Z</time>
      </trkpt>
      <trkpt lat="42.51754" lon="-0.15689">
        <ele>1491.3</ele>
        <time>2017-08-13T08:59:18Z</time>
      </trkpt>
      <trkpt lat="42.51753" lon="-0.15694">
        <ele>1491</ele>
        <time>2017-08-13T08:59:20Z</time>
      </trkpt>
      <trkpt lat="42.51751" lon="-0.15701">
        <ele>1490.7</ele>
        <time>2017-08-13T08:59:22Z</time>
      </trkpt>
      <trkpt lat="42.5175" lon="-0.15708">
        <ele>1490.9</ele>
        <time>2017-08-13T08:59:24Z</time>
      </trkpt>
      <trkpt lat="42.51749" lon="-0.15713">
        <ele>1491.3</ele>
        <time>2017-08-13T08:59:26Z</time>
      </trkpt>
      <trkpt lat="42.51748" lon="-0.15717">
        <ele>1491.6</ele>
        <time>2017-08-13T08:59:28Z</time>
      </trkpt>
      <trkpt lat="42.51749" lon="-0.15722">
        <ele>1491.8</ele>
        <time>2017-08-13T08:59:30Z</time>
      </trkpt>
      <trkpt lat="42.51749" lon="-0.15728">
        <ele>1492.1</ele>
        <time>2017-08-13T08:59:32Z</time>
      </trkpt>
      <trkpt lat="42.51749" lon="-0.15734">
        <ele>1492</ele>
        <time>2017-08-13T08:59:34Z</time>
      </trkpt>
      <trkpt lat="42.51749" lon="-0.1574">
        <ele>1492</ele>
        <time>2017-08-13T08:59:36Z</time>
      </trkpt>
      <trkpt lat="42.51749" lon="-0.15745">
        <ele>1492</ele>
        <time>2017-08-13T08:59:38Z</time>
      </trkpt>
      <trkpt lat="42.51749" lon="-0.15751">
        <ele>1492.1</ele>
        <time>2017-08-13T08:59:40Z</time>
      </trkpt>
      <trkpt lat="42.51748" lon="-0.15755">
        <ele>1492.3</ele>
        <time>2017-08-13T08:59:42Z</time>
      </trkpt>
      <trkpt lat="42.51744" lon="-0.15758">
        <ele>1492.8</ele>
        <time>2017-08-13T08:59:44Z</time>
      </trkpt>
      <trkpt lat="42.5174" lon="-0.15757">
        <ele>1493.9</ele>
        <time>2017-08-13T08:59:46Z</time>
      </trkpt>
      <trkpt lat="42.51737" lon="-0.15753">
        <ele>1495.1</ele>
        <time>2017-08-13T08:59:48Z</time>
      </trkpt>
      <trkpt lat="42.51734" lon="-0.15748">
        <ele>1495.4</ele>
        <time>2017-08-13T08:59:50Z</time>
      </trkpt>
      <trkpt lat="42.51732" lon="-0.15742">
        <ele>1494.7</ele>
        <time>2017-08-13T08:59:52Z</time>
      </trkpt>
      <trkpt lat="42.51731" lon="-0.15738">
        <ele>1494.6</ele>
        <time>2017-08-13T08:59:53Z</time>
      </trkpt>
      <trkpt lat="42.5173" lon="-0.15735">
        <ele>1494.5</ele>
        <time>2017-08-13T08:59:54Z</time>
      </trkpt>
      <trkpt lat="42.51729" lon="-0.15731">
        <ele>1494.1</ele>
        <time>2017-08-13T08:59:55Z</time>
      </trkpt>
      <trkpt lat="42.51728" lon="-0.15728">
        <ele>1493.7</ele>
        <time>2017-08-13T08:59:56Z</time>
      </trkpt>
      <trkpt lat="42.51727" lon="-0.15724">
        <ele>1493.5</ele>
        <time>2017-08-13T08:59:57Z</time>
      </trkpt>
      <trkpt lat="42.51726" lon="-0.15719">
        <ele>1493.3</ele>
        <time>2017-08-13T08:59:59Z</time>
      </trkpt>
      <trkpt lat="42.51724" lon="-0.15717">
        <ele>1493.2</ele>
        <time>2017-08-13T09:00:06Z</time>
      </trkpt>
      <trkpt lat="42.51722" lon="-0.15719">
        <ele>1493.3</ele>
        <time>2017-08-13T09:00:11Z</time>
      </trkpt>
      <trkpt lat="42.51722" lon="-0.15723">
        <ele>1493.4</ele>
        <time>2017-08-13T09:00:17Z</time>
      </trkpt>
      <trkpt lat="42.51721" lon="-0.15727">
        <ele>1493.5</ele>
        <time>2017-08-13T09:00:19Z</time>
      </trkpt>
      <trkpt lat="42.5172" lon="-0.15731">
        <ele>1493.7</ele>
        <time>2017-08-13T09:00:21Z</time>
      </trkpt>
      <trkpt lat="42.51719" lon="-0.15734">
        <ele>1494</ele>
        <time>2017-08-13T09:00:23Z</time>
      </trkpt>
      <trkpt lat="42.51717" lon="-0.15738">
        <ele>1494.2</ele>
        <time>2017-08-13T09:00:25Z</time>
      </trkpt>
      <trkpt lat="42.51715" lon="-0.15741">
        <ele>1494.5</ele>
        <time>2017-08-13T09:00:27Z</time>
      </trkpt>
      <trkpt lat="42.51715" lon="-0.15745">
        <ele>1494.6</ele>
        <time>2017-08-13T09:00:29Z</time>
      </trkpt>
      <trkpt lat="42.51714" lon="-0.15749">
        <ele>1494.6</ele>
        <time>2017-08-13T09:00:31Z</time>
      </trkpt>
      <trkpt lat="42.51715" lon="-0.15754">
        <ele>1494.7</ele>
        <time>2017-08-13T09:00:33Z</time>
      </trkpt>
      <trkpt lat="42.51715" lon="-0.15759">
        <ele>1495.4</ele>
        <time>2017-08-13T09:00:35Z</time>
      </trkpt>
      <trkpt lat="42.51716" lon="-0.15763">
        <ele>1494.8</ele>
        <time>2017-08-13T09:00:37Z</time>
      </trkpt>
      <trkpt lat="42.51717" lon="-0.15768">
        <ele>1495</ele>
        <time>2017-08-13T09:00:39Z</time>
      </trkpt>
      <trkpt lat="42.51716" lon="-0.15773">
        <ele>1495.1</ele>
        <time>2017-08-13T09:00:41Z</time>
      </trkpt>
      <trkpt lat="42.51716" lon="-0.15778">
        <ele>1495.2</ele>
        <time>2017-08-13T09:00:43Z</time>
      </trkpt>
      <trkpt lat="42.51718" lon="-0.15782">
        <ele>1495.3</ele>
        <time>2017-08-13T09:00:45Z</time>
      </trkpt>
      <trkpt lat="42.51719" lon="-0.15787">
        <ele>1494.8</ele>
        <time>2017-08-13T09:00:47Z</time>
      </trkpt>
      <trkpt lat="42.5172" lon="-0.15791">
        <ele>1495</ele>
        <time>2017-08-13T09:00:49Z</time>
      </trkpt>
      <trkpt lat="42.51721" lon="-0.15796">
        <ele>1495.1</ele>
        <time>2017-08-13T09:00:51Z</time>
      </trkpt>
      <trkpt lat="42.51722" lon="-0.15803">
        <ele>1495.6</ele>
        <time>2017-08-13T09:00:53Z</time>
      </trkpt>
      <trkpt lat="42.51722" lon="-0.15806">
        <ele>1495</ele>
        <time>2017-08-13T09:00:54Z</time>
      </trkpt>
      <trkpt lat="42.51723" lon="-0.1581">
        <ele>1495.3</ele>
        <time>2017-08-13T09:00:55Z</time>
      </trkpt>
      <trkpt lat="42.51723" lon="-0.15814">
        <ele>1495.3</ele>
        <time>2017-08-13T09:00:56Z</time>
      </trkpt>
      <trkpt lat="42.51723" lon="-0.15818">
        <ele>1495.7</ele>
        <time>2017-08-13T09:00:57Z</time>
      </trkpt>
      <trkpt lat="42.51723" lon="-0.15822">
        <ele>1496.1</ele>
        <time>2017-08-13T09:00:58Z</time>
      </trkpt>
      <trkpt lat="42.51723" lon="-0.15826">
        <ele>1496.5</ele>
        <time>2017-08-13T09:00:59Z</time>
      </trkpt>
      <trkpt lat="42.51723" lon="-0.1583">
        <ele>1496.7</ele>
        <time>2017-08-13T09:01:00Z</time>
      </trkpt>
      <trkpt lat="42.51724" lon="-0.15834">
        <ele>1496.9</ele>
        <time>2017-08-13T09:01:01Z</time>
      </trkpt>
      <trkpt lat="42.51724" lon="-0.15838">
        <ele>1497</ele>
        <time>2017-08-13T09:01:02Z</time>
      </trkpt>
      <trkpt lat="42.51724" lon="-0.15842">
        <ele>1497</ele>
        <time>2017-08-13T09:01:03Z</time>
      </trkpt>
      <trkpt lat="42.51725" lon="-0.15849">
        <ele>1496.9</ele>
        <time>2017-08-13T09:01:05Z</time>
      </trkpt>
      <trkpt lat="42.51725" lon="-0.15856">
        <ele>1495.9</ele>
        <time>2017-08-13T09:01:07Z</time>
      </trkpt>
      <trkpt lat="42.51725" lon="-0.1586">
        <ele>1495.9</ele>
        <time>2017-08-13T09:01:08Z</time>
      </trkpt>
      <trkpt lat="42.51725" lon="-0.15864">
        <ele>1496.9</ele>
        <time>2017-08-13T09:01:09Z</time>
      </trkpt>
      <trkpt lat="42.51725" lon="-0.15868">
        <ele>1497.1</ele>
        <time>2017-08-13T09:01:10Z</time>
      </trkpt>
      <trkpt lat="42.51724" lon="-0.15872">
        <ele>1497.3</ele>
        <time>2017-08-13T09:01:11Z</time>
      </trkpt>
      <trkpt lat="42.51724" lon="-0.15876">
        <ele>1497.5</ele>
        <time>2017-08-13T09:01:12Z</time>
      </trkpt>
      <trkpt lat="42.51724" lon="-0.1588">
        <ele>1497.7</ele>
        <time>2017-08-13T09:01:13Z</time>
      </trkpt>
      <trkpt lat="42.51724" lon="-0.15886">
        <ele>1497.8</ele>
        <time>2017-08-13T09:01:15Z</time>
      </trkpt>
      <trkpt lat="42.51725" lon="-0.15891">
        <ele>1497.9</ele>
        <time>2017-08-13T09:01:17Z</time>
      </trkpt>
      <trkpt lat="42.51726" lon="-0.15897">
        <ele>1496.9</ele>
        <time>2017-08-13T09:01:19Z</time>
      </trkpt>
      <trkpt lat="42.51726" lon="-0.15903">
        <ele>1496.7</ele>
        <time>2017-08-13T09:01:21Z</time>
      </trkpt>
      <trkpt lat="42.51726" lon="-0.15907">
        <ele>1496.4</ele>
        <time>2017-08-13T09:01:22Z</time>
      </trkpt>
      <trkpt lat="42.51726" lon="-0.15914">
        <ele>1495.9</ele>
        <time>2017-08-13T09:01:24Z</time>
      </trkpt>
      <trkpt lat="42.51726" lon="-0.15921">
        <ele>1495.7</ele>
        <time>2017-08-13T09:01:26Z</time>
      </trkpt>
      <trkpt lat="42.51724" lon="-0.15928">
        <ele>1496.5</ele>
        <time>2017-08-13T09:01:28Z</time>
      </trkpt>
      <trkpt lat="42.51723" lon="-0.15935">
        <ele>1496.5</ele>
        <time>2017-08-13T09:01:30Z</time>
      </trkpt>
      <trkpt lat="42.51723" lon="-0.15942">
        <ele>1496.6</ele>
        <time>2017-08-13T09:01:32Z</time>
      </trkpt>
      <trkpt lat="42.51723" lon="-0.15949">
        <ele>1496.9</ele>
        <time>2017-08-13T09:01:34Z</time>
      </trkpt>
      <trkpt lat="42.51723" lon="-0.15955">
        <ele>1497.2</ele>
        <time>2017-08-13T09:01:36Z</time>
      </trkpt>
      <trkpt lat="42.51723" lon="-0.1596">
        <ele>1497.9</ele>
        <time>2017-08-13T09:01:38Z</time>
      </trkpt>
      <trkpt lat="42.51722" lon="-0.15966">
        <ele>1499.4</ele>
        <time>2017-08-13T09:01:40Z</time>
      </trkpt>
      <trkpt lat="42.51721" lon="-0.15972">
        <ele>1499.8</ele>
        <time>2017-08-13T09:01:42Z</time>
      </trkpt>
      <trkpt lat="42.51721" lon="-0.15977">
        <ele>1500.5</ele>
        <time>2017-08-13T09:01:44Z</time>
      </trkpt>
      <trkpt lat="42.51723" lon="-0.15982">
        <ele>1499.7</ele>
        <time>2017-08-13T09:01:46Z</time>
      </trkpt>
      <trkpt lat="42.51723" lon="-0.15988">
        <ele>1500.1</ele>
        <time>2017-08-13T09:01:48Z</time>
      </trkpt>
      <trkpt lat="42.51723" lon="-0.15993">
        <ele>1500.4</ele>
        <time>2017-08-13T09:01:50Z</time>
      </trkpt>
      <trkpt lat="42.51722" lon="-0.15999">
        <ele>1501.9</ele>
        <time>2017-08-13T09:01:52Z</time>
      </trkpt>
      <trkpt lat="42.51721" lon="-0.16005">
        <ele>1502.1</ele>
        <time>2017-08-13T09:01:54Z</time>
      </trkpt>
      <trkpt lat="42.51719" lon="-0.16012">
        <ele>1502.3</ele>
        <time>2017-08-13T09:01:56Z</time>
      </trkpt>
      <trkpt lat="42.51718" lon="-0.16017">
        <ele>1504.1</ele>
        <time>2017-08-13T09:01:58Z</time>
      </trkpt>
      <trkpt lat="42.51716" lon="-0.16024">
        <ele>1504.3</ele>
        <time>2017-08-13T09:02:00Z</time>
      </trkpt>
      <trkpt lat="42.51715" lon="-0.1603">
        <ele>1506.2</ele>
        <time>2017-08-13T09:02:02Z</time>
      </trkpt>
      <trkpt lat="42.51714" lon="-0.16037">
        <ele>1506.4</ele>
        <time>2017-08-13T09:02:04Z</time>
      </trkpt>
      <trkpt lat="42.51714" lon="-0.16043">
        <ele>1506.9</ele>
        <time>2017-08-13T09:02:06Z</time>
      </trkpt>
      <trkpt lat="42.51713" lon="-0.16049">
        <ele>1507.3</ele>
        <time>2017-08-13T09:02:08Z</time>
      </trkpt>
      <trkpt lat="42.51713" lon="-0.16055">
        <ele>1507.8</ele>
        <time>2017-08-13T09:02:10Z</time>
      </trkpt>
      <trkpt lat="42.51713" lon="-0.16061">
        <ele>1509.1</ele>
        <time>2017-08-13T09:02:12Z</time>
      </trkpt>
      <trkpt lat="42.51714" lon="-0.16067">
        <ele>1510</ele>
        <time>2017-08-13T09:02:14Z</time>
      </trkpt>
      <trkpt lat="42.51714" lon="-0.16072">
        <ele>1511.9</ele>
        <time>2017-08-13T09:02:16Z</time>
      </trkpt>
      <trkpt lat="42.51715" lon="-0.16077">
        <ele>1512.8</ele>
        <time>2017-08-13T09:02:18Z</time>
      </trkpt>
      <trkpt lat="42.51715" lon="-0.16083">
        <ele>1513.6</ele>
        <time>2017-08-13T09:02:20Z</time>
      </trkpt>
      <trkpt lat="42.51715" lon="-0.16088">
        <ele>1514.2</ele>
        <time>2017-08-13T09:02:22Z</time>
      </trkpt>
      <trkpt lat="42.51713" lon="-0.16094">
        <ele>1515.1</ele>
        <time>2017-08-13T09:02:24Z</time>
      </trkpt>
      <trkpt lat="42.51712" lon="-0.16098">
        <ele>1517.1</ele>
        <time>2017-08-13T09:02:26Z</time>
      </trkpt>
      <trkpt lat="42.51711" lon="-0.16103">
        <ele>1517.5</ele>
        <time>2017-08-13T09:02:28Z</time>
      </trkpt>
      <trkpt lat="42.51711" lon="-0.16107">
        <ele>1517.7</ele>
        <time>2017-08-13T09:02:30Z</time>
      </trkpt>
      <trkpt lat="42.51711" lon="-0.16112">
        <ele>1518</ele>
        <time>2017-08-13T09:02:32Z</time>
      </trkpt>
      <trkpt lat="42.51712" lon="-0.16116">
        <ele>1518.3</ele>
        <time>2017-08-13T09:02:34Z</time>
      </trkpt>
      <trkpt lat="42.51713" lon="-0.16119">
        <ele>1518.6</ele>
        <time>2017-08-13T09:02:36Z</time>
      </trkpt>
      <trkpt lat="42.51713" lon="-0.16123">
        <ele>1516.9</ele>
        <time>2017-08-13T09:02:38Z</time>
      </trkpt>
      <trkpt lat="42.51713" lon="-0.16128">
        <ele>1517.6</ele>
        <time>2017-08-13T09:02:41Z</time>
      </trkpt>
      <trkpt lat="42.51712" lon="-0.16133">
        <ele>1519.3</ele>
        <time>2017-08-13T09:02:44Z</time>
      </trkpt>
      <trkpt lat="42.51712" lon="-0.16137">
        <ele>1519.3</ele>
        <time>2017-08-13T09:02:47Z</time>
      </trkpt>
      <trkpt lat="42.51713" lon="-0.16142">
        <ele>1517.9</ele>
        <time>2017-08-13T09:02:50Z</time>
      </trkpt>
      <trkpt lat="42.51713" lon="-0.16146">
        <ele>1517.9</ele>
        <time>2017-08-13T09:02:53Z</time>
      </trkpt>
      <trkpt lat="42.51714" lon="-0.16151">
        <ele>1517.8</ele>
        <time>2017-08-13T09:02:57Z</time>
      </trkpt>
      <trkpt lat="42.51715" lon="-0.16156">
        <ele>1517.8</ele>
        <time>2017-08-13T09:03:00Z</time>
      </trkpt>
      <trkpt lat="42.51714" lon="-0.1616">
        <ele>1517.6</ele>
        <time>2017-08-13T09:03:03Z</time>
      </trkpt>
      <trkpt lat="42.51714" lon="-0.16165">
        <ele>1517.5</ele>
        <time>2017-08-13T09:03:06Z</time>
      </trkpt>
      <trkpt lat="42.51713" lon="-0.16168">
        <ele>1517.3</ele>
        <time>2017-08-13T09:03:09Z</time>
      </trkpt>
      <trkpt lat="42.51712" lon="-0.16172">
        <ele>1518.9</ele>
        <time>2017-08-13T09:03:11Z</time>
      </trkpt>
      <trkpt lat="42.51712" lon="-0.16177">
        <ele>1518.9</ele>
        <time>2017-08-13T09:03:14Z</time>
      </trkpt>
      <trkpt lat="42.51712" lon="-0.16183">
        <ele>1519</ele>
        <time>2017-08-13T09:03:17Z</time>
      </trkpt>
      <trkpt lat="42.5171" lon="-0.16188">
        <ele>1519.1</ele>
        <time>2017-08-13T09:03:20Z</time>
      </trkpt>
      <trkpt lat="42.5171" lon="-0.16191">
        <ele>1519.4</ele>
        <time>2017-08-13T09:03:22Z</time>
      </trkpt>
      <trkpt lat="42.51709" lon="-0.16195">
        <ele>1521.6</ele>
        <time>2017-08-13T09:03:24Z</time>
      </trkpt>
      <trkpt lat="42.51709" lon="-0.16199">
        <ele>1522.1</ele>
        <time>2017-08-13T09:03:28Z</time>
      </trkpt>
      <trkpt lat="42.51709" lon="-0.16203">
        <ele>1522.8</ele>
        <time>2017-08-13T09:03:31Z</time>
      </trkpt>
      <trkpt lat="42.5171" lon="-0.16207">
        <ele>1521.6</ele>
        <time>2017-08-13T09:03:34Z</time>
      </trkpt>
      <trkpt lat="42.51711" lon="-0.16211">
        <ele>1522.4</ele>
        <time>2017-08-13T09:03:36Z</time>
      </trkpt>
      <trkpt lat="42.51712" lon="-0.16215">
        <ele>1523.1</ele>
        <time>2017-08-13T09:03:38Z</time>
      </trkpt>
      <trkpt lat="42.51713" lon="-0.1622">
        <ele>1523.7</ele>
        <time>2017-08-13T09:03:40Z</time>
      </trkpt>
      <trkpt lat="42.51712" lon="-0.16224">
        <ele>1524.3</ele>
        <time>2017-08-13T09:03:44Z</time>
      </trkpt>
      <trkpt lat="42.51712" lon="-0.16229">
        <ele>1524.8</ele>
        <time>2017-08-13T09:03:47Z</time>
      </trkpt>
      <trkpt lat="42.51711" lon="-0.16233">
        <ele>1525.1</ele>
        <time>2017-08-13T09:03:49Z</time>
      </trkpt>
      <trkpt lat="42.51711" lon="-0.16237">
        <ele>1525.4</ele>
        <time>2017-08-13T09:03:51Z</time>
      </trkpt>
      <trkpt lat="42.5171" lon="-0.16241">
        <ele>1525.5</ele>
        <time>2017-08-13T09:03:53Z</time>
      </trkpt>
      <trkpt lat="42.5171" lon="-0.16245">
        <ele>1525.7</ele>
        <time>2017-08-13T09:03:55Z</time>
      </trkpt>
      <trkpt lat="42.51709" lon="-0.1625">
        <ele>1527.5</ele>
        <time>2017-08-13T09:03:57Z</time>
      </trkpt>
      <trkpt lat="42.51708" lon="-0.16253">
        <ele>1527.6</ele>
        <time>2017-08-13T09:03:59Z</time>
      </trkpt>
      <trkpt lat="42.51708" lon="-0.16259">
        <ele>1527.7</ele>
        <time>2017-08-13T09:04:02Z</time>
      </trkpt>
      <trkpt lat="42.51708" lon="-0.16263">
        <ele>1527.7</ele>
        <time>2017-08-13T09:04:04Z</time>
      </trkpt>
      <trkpt lat="42.51708" lon="-0.16267">
        <ele>1527.8</ele>
        <time>2017-08-13T09:04:06Z</time>
      </trkpt>
      <trkpt lat="42.51708" lon="-0.16271">
        <ele>1527.8</ele>
        <time>2017-08-13T09:04:09Z</time>
      </trkpt>
      <trkpt lat="42.51708" lon="-0.16276">
        <ele>1527.8</ele>
        <time>2017-08-13T09:04:11Z</time>
      </trkpt>
      <trkpt lat="42.51708" lon="-0.16281">
        <ele>1527.7</ele>
        <time>2017-08-13T09:04:13Z</time>
      </trkpt>
      <trkpt lat="42.51707" lon="-0.16286">
        <ele>1527.4</ele>
        <time>2017-08-13T09:04:15Z</time>
      </trkpt>
      <trkpt lat="42.51706" lon="-0.16291">
        <ele>1529.4</ele>
        <time>2017-08-13T09:04:17Z</time>
      </trkpt>
      <trkpt lat="42.51705" lon="-0.16296">
        <ele>1529.3</ele>
        <time>2017-08-13T09:04:19Z</time>
      </trkpt>
      <trkpt lat="42.51705" lon="-0.16301">
        <ele>1529.3</ele>
        <time>2017-08-13T09:04:21Z</time>
      </trkpt>
      <trkpt lat="42.51704" lon="-0.16307">
        <ele>1529.3</ele>
        <time>2017-08-13T09:04:23Z</time>
      </trkpt>
      <trkpt lat="42.51704" lon="-0.16313">
        <ele>1529.5</ele>
        <time>2017-08-13T09:04:25Z</time>
      </trkpt>
      <trkpt lat="42.51703" lon="-0.16318">
        <ele>1531.5</ele>
        <time>2017-08-13T09:04:27Z</time>
      </trkpt>
      <trkpt lat="42.51702" lon="-0.16323">
        <ele>1531.5</ele>
        <time>2017-08-13T09:04:29Z</time>
      </trkpt>
      <trkpt lat="42.51701" lon="-0.16327">
        <ele>1531.4</ele>
        <time>2017-08-13T09:04:31Z</time>
      </trkpt>
      <trkpt lat="42.51699" lon="-0.16332">
        <ele>1532.8</ele>
        <time>2017-08-13T09:04:33Z</time>
      </trkpt>
      <trkpt lat="42.51698" lon="-0.16337">
        <ele>1532.4</ele>
        <time>2017-08-13T09:04:35Z</time>
      </trkpt>
      <trkpt lat="42.51696" lon="-0.16342">
        <ele>1532.5</ele>
        <time>2017-08-13T09:04:37Z</time>
      </trkpt>
      <trkpt lat="42.51694" lon="-0.16348">
        <ele>1531.7</ele>
        <time>2017-08-13T09:04:39Z</time>
      </trkpt>
      <trkpt lat="42.51693" lon="-0.16352">
        <ele>1532.1</ele>
        <time>2017-08-13T09:04:41Z</time>
      </trkpt>
      <trkpt lat="42.51692" lon="-0.16358">
        <ele>1531.5</ele>
        <time>2017-08-13T09:04:43Z</time>
      </trkpt>
      <trkpt lat="42.51692" lon="-0.16362">
        <ele>1531</ele>
        <time>2017-08-13T09:04:45Z</time>
      </trkpt>
      <trkpt lat="42.51693" lon="-0.16366">
        <ele>1530.6</ele>
        <time>2017-08-13T09:04:47Z</time>
      </trkpt>
      <trkpt lat="42.51694" lon="-0.16371">
        <ele>1529.4</ele>
        <time>2017-08-13T09:04:49Z</time>
      </trkpt>
      <trkpt lat="42.51695" lon="-0.16376">
        <ele>1529.2</ele>
        <time>2017-08-13T09:04:51Z</time>
      </trkpt>
      <trkpt lat="42.51694" lon="-0.16381">
        <ele>1529.1</ele>
        <time>2017-08-13T09:04:53Z</time>
      </trkpt>
      <trkpt lat="42.51693" lon="-0.16386">
        <ele>1529.9</ele>
        <time>2017-08-13T09:04:55Z</time>
      </trkpt>
      <trkpt lat="42.51692" lon="-0.16391">
        <ele>1529.8</ele>
        <time>2017-08-13T09:04:57Z</time>
      </trkpt>
      <trkpt lat="42.5169" lon="-0.16395">
        <ele>1530.5</ele>
        <time>2017-08-13T09:04:59Z</time>
      </trkpt>
      <trkpt lat="42.51687" lon="-0.16399">
        <ele>1530.3</ele>
        <time>2017-08-13T09:05:01Z</time>
      </trkpt>
      <trkpt lat="42.51685" lon="-0.16404">
        <ele>1530.8</ele>
        <time>2017-08-13T09:05:03Z</time>
      </trkpt>
      <trkpt lat="42.51681" lon="-0.16409">
        <ele>1531.3</ele>
        <time>2017-08-13T09:05:05Z</time>
      </trkpt>
      <trkpt lat="42.51678" lon="-0.16413">
        <ele>1532.6</ele>
        <time>2017-08-13T09:05:07Z</time>
      </trkpt>
      <trkpt lat="42.51675" lon="-0.16417">
        <ele>1532.4</ele>
        <time>2017-08-13T09:05:09Z</time>
      </trkpt>
      <trkpt lat="42.51672" lon="-0.16421">
        <ele>1532.9</ele>
        <time>2017-08-13T09:05:11Z</time>
      </trkpt>
      <trkpt lat="42.5167" lon="-0.16427">
        <ele>1533.3</ele>
        <time>2017-08-13T09:05:13Z</time>
      </trkpt>
      <trkpt lat="42.51669" lon="-0.16433">
        <ele>1533</ele>
        <time>2017-08-13T09:05:15Z</time>
      </trkpt>
      <trkpt lat="42.51667" lon="-0.16439">
        <ele>1533.3</ele>
        <time>2017-08-13T09:05:17Z</time>
      </trkpt>
      <trkpt lat="42.51664" lon="-0.16444">
        <ele>1533.8</ele>
        <time>2017-08-13T09:05:19Z</time>
      </trkpt>
      <trkpt lat="42.5166" lon="-0.16449">
        <ele>1534.4</ele>
        <time>2017-08-13T09:05:21Z</time>
      </trkpt>
      <trkpt lat="42.51656" lon="-0.16453">
        <ele>1535</ele>
        <time>2017-08-13T09:05:23Z</time>
      </trkpt>
      <trkpt lat="42.51652" lon="-0.16458">
        <ele>1536.4</ele>
        <time>2017-08-13T09:05:25Z</time>
      </trkpt>
      <trkpt lat="42.51649" lon="-0.16463">
        <ele>1537.1</ele>
        <time>2017-08-13T09:05:27Z</time>
      </trkpt>
      <trkpt lat="42.51646" lon="-0.16467">
        <ele>1537</ele>
        <time>2017-08-13T09:05:29Z</time>
      </trkpt>
      <trkpt lat="42.51645" lon="-0.16472">
        <ele>1537.7</ele>
        <time>2017-08-13T09:05:31Z</time>
      </trkpt>
      <trkpt lat="42.51643" lon="-0.16477">
        <ele>1537.6</ele>
        <time>2017-08-13T09:05:33Z</time>
      </trkpt>
      <trkpt lat="42.51642" lon="-0.16481">
        <ele>1538.3</ele>
        <time>2017-08-13T09:05:35Z</time>
      </trkpt>
      <trkpt lat="42.51642" lon="-0.16486">
        <ele>1538.2</ele>
        <time>2017-08-13T09:05:37Z</time>
      </trkpt>
      <trkpt lat="42.5164" lon="-0.16491">
        <ele>1538</ele>
        <time>2017-08-13T09:05:39Z</time>
      </trkpt>
      <trkpt lat="42.51638" lon="-0.16497">
        <ele>1538.5</ele>
        <time>2017-08-13T09:05:41Z</time>
      </trkpt>
      <trkpt lat="42.51637" lon="-0.16502">
        <ele>1539.2</ele>
        <time>2017-08-13T09:05:43Z</time>
      </trkpt>
      <trkpt lat="42.51636" lon="-0.16506">
        <ele>1538.9</ele>
        <time>2017-08-13T09:05:44Z</time>
      </trkpt>
      <trkpt lat="42.51635" lon="-0.1651">
        <ele>1538.6</ele>
        <time>2017-08-13T09:05:45Z</time>
      </trkpt>
      <trkpt lat="42.51634" lon="-0.16514">
        <ele>1538.3</ele>
        <time>2017-08-13T09:05:46Z</time>
      </trkpt>
      <trkpt lat="42.51632" lon="-0.16519">
        <ele>1539.2</ele>
        <time>2017-08-13T09:05:47Z</time>
      </trkpt>
      <trkpt lat="42.51631" lon="-0.16523">
        <ele>1539</ele>
        <time>2017-08-13T09:05:48Z</time>
      </trkpt>
      <trkpt lat="42.5163" lon="-0.16528">
        <ele>1540.3</ele>
        <time>2017-08-13T09:05:49Z</time>
      </trkpt>
      <trkpt lat="42.51628" lon="-0.16532">
        <ele>1540.2</ele>
        <time>2017-08-13T09:05:50Z</time>
      </trkpt>
      <trkpt lat="42.51627" lon="-0.16535">
        <ele>1541.7</ele>
        <time>2017-08-13T09:05:51Z</time>
      </trkpt>
      <trkpt lat="42.51626" lon="-0.16539">
        <ele>1541.7</ele>
        <time>2017-08-13T09:05:52Z</time>
      </trkpt>
      <trkpt lat="42.51625" lon="-0.16543">
        <ele>1541.6</ele>
        <time>2017-08-13T09:05:53Z</time>
      </trkpt>
      <trkpt lat="42.51625" lon="-0.16547">
        <ele>1541.5</ele>
        <time>2017-08-13T09:05:54Z</time>
      </trkpt>
      <trkpt lat="42.51623" lon="-0.16551">
        <ele>1542.7</ele>
        <time>2017-08-13T09:05:55Z</time>
      </trkpt>
      <trkpt lat="42.51621" lon="-0.16554">
        <ele>1542.4</ele>
        <time>2017-08-13T09:05:56Z</time>
      </trkpt>
      <trkpt lat="42.51619" lon="-0.16558">
        <ele>1543.3</ele>
        <time>2017-08-13T09:05:57Z</time>
      </trkpt>
      <trkpt lat="42.51617" lon="-0.16562">
        <ele>1543.8</ele>
        <time>2017-08-13T09:05:58Z</time>
      </trkpt>
      <trkpt lat="42.51616" lon="-0.16566">
        <ele>1543.3</ele>
        <time>2017-08-13T09:05:59Z</time>
      </trkpt>
      <trkpt lat="42.51614" lon="-0.16569">
        <ele>1544.1</ele>
        <time>2017-08-13T09:06:00Z</time>
      </trkpt>
      <trkpt lat="42.51612" lon="-0.16575">
        <ele>1542.8</ele>
        <time>2017-08-13T09:06:02Z</time>
      </trkpt>
      <trkpt lat="42.5161" lon="-0.16578">
        <ele>1543.5</ele>
        <time>2017-08-13T09:06:03Z</time>
      </trkpt>
      <trkpt lat="42.51608" lon="-0.16581">
        <ele>1543.4</ele>
        <time>2017-08-13T09:06:04Z</time>
      </trkpt>
      <trkpt lat="42.51605" lon="-0.16583">
        <ele>1542.8</ele>
        <time>2017-08-13T09:06:05Z</time>
      </trkpt>
      <trkpt lat="42.51603" lon="-0.16586">
        <ele>1543.3</ele>
        <time>2017-08-13T09:06:06Z</time>
      </trkpt>
      <trkpt lat="42.516" lon="-0.16591">
        <ele>1543.2</ele>
        <time>2017-08-13T09:06:08Z</time>
      </trkpt>
      <trkpt lat="42.51598" lon="-0.16593">
        <ele>1542.8</ele>
        <time>2017-08-13T09:06:09Z</time>
      </trkpt>
      <trkpt lat="42.51595" lon="-0.16595">
        <ele>1543.1</ele>
        <time>2017-08-13T09:06:10Z</time>
      </trkpt>
      <trkpt lat="42.51592" lon="-0.16596">
        <ele>1542.5</ele>
        <time>2017-08-13T09:06:11Z</time>
      </trkpt>
      <trkpt lat="42.51589" lon="-0.16598">
        <ele>1542.5</ele>
        <time>2017-08-13T09:06:12Z</time>
      </trkpt>
      <trkpt lat="42.51586" lon="-0.166">
        <ele>1541.7</ele>
        <time>2017-08-13T09:06:13Z</time>
      </trkpt>
      <trkpt lat="42.51582" lon="-0.16602">
        <ele>1541.7</ele>
        <time>2017-08-13T09:06:14Z</time>
      </trkpt>
      <trkpt lat="42.51579" lon="-0.16603">
        <ele>1541.6</ele>
        <time>2017-08-13T09:06:15Z</time>
      </trkpt>
      <trkpt lat="42.51576" lon="-0.16603">
        <ele>1541.4</ele>
        <time>2017-08-13T09:06:16Z</time>
      </trkpt>
      <trkpt lat="42.51572" lon="-0.16603">
        <ele>1541.2</ele>
        <time>2017-08-13T09:06:17Z</time>
      </trkpt>
      <trkpt lat="42.51569" lon="-0.16602">
        <ele>1541</ele>
        <time>2017-08-13T09:06:18Z</time>
      </trkpt>
      <trkpt lat="42.51567" lon="-0.166">
        <ele>1540.6</ele>
        <time>2017-08-13T09:06:19Z</time>
      </trkpt>
      <trkpt lat="42.51564" lon="-0.16598">
        <ele>1541.6</ele>
        <time>2017-08-13T09:06:20Z</time>
      </trkpt>
      <trkpt lat="42.51562" lon="-0.16596">
        <ele>1541.2</ele>
        <time>2017-08-13T09:06:21Z</time>
      </trkpt>
      <trkpt lat="42.5156" lon="-0.16593">
        <ele>1541.7</ele>
        <time>2017-08-13T09:06:22Z</time>
      </trkpt>
      <trkpt lat="42.51558" lon="-0.1659">
        <ele>1542.7</ele>
        <time>2017-08-13T09:06:23Z</time>
      </trkpt>
      <trkpt lat="42.51557" lon="-0.16587">
        <ele>1543.1</ele>
        <time>2017-08-13T09:06:24Z</time>
      </trkpt>
      <trkpt lat="42.51556" lon="-0.16583">
        <ele>1543.1</ele>
        <time>2017-08-13T09:06:25Z</time>
      </trkpt>
      <trkpt lat="42.51556" lon="-0.16579">
        <ele>1543.9</ele>
        <time>2017-08-13T09:06:26Z</time>
      </trkpt>
      <trkpt lat="42.51553" lon="-0.16573">
        <ele>1544.8</ele>
        <time>2017-08-13T09:06:28Z</time>
      </trkpt>
      <trkpt lat="42.51551" lon="-0.16567">
        <ele>1544.9</ele>
        <time>2017-08-13T09:06:30Z</time>
      </trkpt>
      <trkpt lat="42.51549" lon="-0.16563">
        <ele>1545.6</ele>
        <time>2017-08-13T09:06:31Z</time>
      </trkpt>
      <trkpt lat="42.51548" lon="-0.1656">
        <ele>1545.5</ele>
        <time>2017-08-13T09:06:32Z</time>
      </trkpt>
      <trkpt lat="42.51546" lon="-0.16557">
        <ele>1545.5</ele>
        <time>2017-08-13T09:06:33Z</time>
      </trkpt>
      <trkpt lat="42.51544" lon="-0.16554">
        <ele>1545.2</ele>
        <time>2017-08-13T09:06:34Z</time>
      </trkpt>
      <trkpt lat="42.51542" lon="-0.16551">
        <ele>1545.9</ele>
        <time>2017-08-13T09:06:35Z</time>
      </trkpt>
      <trkpt lat="42.5154" lon="-0.16548">
        <ele>1545.1</ele>
        <time>2017-08-13T09:06:36Z</time>
      </trkpt>
      <trkpt lat="42.51538" lon="-0.16545">
        <ele>1545.1</ele>
        <time>2017-08-13T09:06:37Z</time>
      </trkpt>
      <trkpt lat="42.51536" lon="-0.16542">
        <ele>1545.9</ele>
        <time>2017-08-13T09:06:38Z</time>
      </trkpt>
      <trkpt lat="42.51534" lon="-0.16539">
        <ele>1546</ele>
        <time>2017-08-13T09:06:39Z</time>
      </trkpt>
      <trkpt lat="42.51532" lon="-0.16537">
        <ele>1545.2</ele>
        <time>2017-08-13T09:06:40Z</time>
      </trkpt>
      <trkpt lat="42.51529" lon="-0.16534">
        <ele>1546</ele>
        <time>2017-08-13T09:06:41Z</time>
      </trkpt>
      <trkpt lat="42.51527" lon="-0.16531">
        <ele>1545.3</ele>
        <time>2017-08-13T09:06:42Z</time>
      </trkpt>
      <trkpt lat="42.51525" lon="-0.16529">
        <ele>1545.4</ele>
        <time>2017-08-13T09:06:43Z</time>
      </trkpt>
      <trkpt lat="42.51522" lon="-0.16527">
        <ele>1544.8</ele>
        <time>2017-08-13T09:06:44Z</time>
      </trkpt>
      <trkpt lat="42.5152" lon="-0.16526">
        <ele>1545</ele>
        <time>2017-08-13T09:06:45Z</time>
      </trkpt>
      <trkpt lat="42.51517" lon="-0.16525">
        <ele>1545</ele>
        <time>2017-08-13T09:06:46Z</time>
      </trkpt>
      <trkpt lat="42.51514" lon="-0.16525">
        <ele>1544.6</ele>
        <time>2017-08-13T09:06:47Z</time>
      </trkpt>
      <trkpt lat="42.5151" lon="-0.16525">
        <ele>1544</ele>
        <time>2017-08-13T09:06:48Z</time>
      </trkpt>
      <trkpt lat="42.51506" lon="-0.16526">
        <ele>1543.9</ele>
        <time>2017-08-13T09:06:49Z</time>
      </trkpt>
      <trkpt lat="42.51502" lon="-0.16527">
        <ele>1543</ele>
        <time>2017-08-13T09:06:50Z</time>
      </trkpt>
      <trkpt lat="42.51499" lon="-0.16528">
        <ele>1543.1</ele>
        <time>2017-08-13T09:06:51Z</time>
      </trkpt>
      <trkpt lat="42.51495" lon="-0.16529">
        <ele>1543.2</ele>
        <time>2017-08-13T09:06:52Z</time>
      </trkpt>
      <trkpt lat="42.51492" lon="-0.1653">
        <ele>1543.4</ele>
        <time>2017-08-13T09:06:53Z</time>
      </trkpt>
      <trkpt lat="42.51489" lon="-0.16531">
        <ele>1543</ele>
        <time>2017-08-13T09:06:54Z</time>
      </trkpt>
      <trkpt lat="42.51486" lon="-0.16533">
        <ele>1543.4</ele>
        <time>2017-08-13T09:06:55Z</time>
      </trkpt>
      <trkpt lat="42.51483" lon="-0.16534">
        <ele>1543.8</ele>
        <time>2017-08-13T09:06:56Z</time>
      </trkpt>
      <trkpt lat="42.51479" lon="-0.16537">
        <ele>1543.6</ele>
        <time>2017-08-13T09:06:57Z</time>
      </trkpt>
      <trkpt lat="42.51476" lon="-0.16539">
        <ele>1544.1</ele>
        <time>2017-08-13T09:06:58Z</time>
      </trkpt>
      <trkpt lat="42.51473" lon="-0.16541">
        <ele>1543.8</ele>
        <time>2017-08-13T09:06:59Z</time>
      </trkpt>
      <trkpt lat="42.5147" lon="-0.16544">
        <ele>1544.3</ele>
        <time>2017-08-13T09:07:00Z</time>
      </trkpt>
      <trkpt lat="42.51466" lon="-0.16546">
        <ele>1544.5</ele>
        <time>2017-08-13T09:07:01Z</time>
      </trkpt>
      <trkpt lat="42.51462" lon="-0.16549">
        <ele>1544.2</ele>
        <time>2017-08-13T09:07:02Z</time>
      </trkpt>
      <trkpt lat="42.51458" lon="-0.16551">
        <ele>1544.8</ele>
        <time>2017-08-13T09:07:03Z</time>
      </trkpt>
      <trkpt lat="42.51454" lon="-0.16553">
        <ele>1544.6</ele>
        <time>2017-08-13T09:07:04Z</time>
      </trkpt>
      <trkpt lat="42.5145" lon="-0.16554">
        <ele>1545.7</ele>
        <time>2017-08-13T09:07:05Z</time>
      </trkpt>
      <trkpt lat="42.51446" lon="-0.16556">
        <ele>1546.3</ele>
        <time>2017-08-13T09:07:06Z</time>
      </trkpt>
      <trkpt lat="42.51442" lon="-0.16557">
        <ele>1546</ele>
        <time>2017-08-13T09:07:07Z</time>
      </trkpt>
      <trkpt lat="42.51439" lon="-0.16558">
        <ele>1546.5</ele>
        <time>2017-08-13T09:07:08Z</time>
      </trkpt>
      <trkpt lat="42.51435" lon="-0.16559">
        <ele>1547.1</ele>
        <time>2017-08-13T09:07:09Z</time>
      </trkpt>
      <trkpt lat="42.51432" lon="-0.1656">
        <ele>1547.6</ele>
        <time>2017-08-13T09:07:10Z</time>
      </trkpt>
      <trkpt lat="42.51428" lon="-0.16561">
        <ele>1548.5</ele>
        <time>2017-08-13T09:07:11Z</time>
      </trkpt>
      <trkpt lat="42.51424" lon="-0.16562">
        <ele>1547.9</ele>
        <time>2017-08-13T09:07:12Z</time>
      </trkpt>
      <trkpt lat="42.51421" lon="-0.16563">
        <ele>1548.3</ele>
        <time>2017-08-13T09:07:13Z</time>
      </trkpt>
      <trkpt lat="42.51418" lon="-0.16564">
        <ele>1548.6</ele>
        <time>2017-08-13T09:07:14Z</time>
      </trkpt>
      <trkpt lat="42.51416" lon="-0.16565">
        <ele>1548.6</ele>
        <time>2017-08-13T09:07:15Z</time>
      </trkpt>
      <trkpt lat="42.51413" lon="-0.16566">
        <ele>1547.9</ele>
        <time>2017-08-13T09:07:16Z</time>
      </trkpt>
      <trkpt lat="42.5141" lon="-0.16567">
        <ele>1548.2</ele>
        <time>2017-08-13T09:07:17Z</time>
      </trkpt>
      <trkpt lat="42.51407" lon="-0.16568">
        <ele>1548.5</ele>
        <time>2017-08-13T09:07:18Z</time>
      </trkpt>
      <trkpt lat="42.51405" lon="-0.16569">
        <ele>1548.9</ele>
        <time>2017-08-13T09:07:19Z</time>
      </trkpt>
      <trkpt lat="42.51402" lon="-0.16571">
        <ele>1548.1</ele>
        <time>2017-08-13T09:07:20Z</time>
      </trkpt>
      <trkpt lat="42.51399" lon="-0.16572">
        <ele>1548.4</ele>
        <time>2017-08-13T09:07:21Z</time>
      </trkpt>
      <trkpt lat="42.51396" lon="-0.16574">
        <ele>1548.6</ele>
        <time>2017-08-13T09:07:22Z</time>
      </trkpt>
      <trkpt lat="42.51394" lon="-0.16576">
        <ele>1547.5</ele>
        <time>2017-08-13T09:07:23Z</time>
      </trkpt>
      <trkpt lat="42.51391" lon="-0.16577">
        <ele>1547.7</ele>
        <time>2017-08-13T09:07:24Z</time>
      </trkpt>
      <trkpt lat="42.51389" lon="-0.16579">
        <ele>1546.9</ele>
        <time>2017-08-13T09:07:25Z</time>
      </trkpt>
      <trkpt lat="42.51386" lon="-0.16582">
        <ele>1547</ele>
        <time>2017-08-13T09:07:26Z</time>
      </trkpt>
      <trkpt lat="42.51383" lon="-0.16584">
        <ele>1546.2</ele>
        <time>2017-08-13T09:07:27Z</time>
      </trkpt>
      <trkpt lat="42.5138" lon="-0.16586">
        <ele>1546.3</ele>
        <time>2017-08-13T09:07:28Z</time>
      </trkpt>
      <trkpt lat="42.51377" lon="-0.16588">
        <ele>1545.6</ele>
        <time>2017-08-13T09:07:29Z</time>
      </trkpt>
      <trkpt lat="42.51373" lon="-0.1659">
        <ele>1545.6</ele>
        <time>2017-08-13T09:07:30Z</time>
      </trkpt>
      <trkpt lat="42.51369" lon="-0.16592">
        <ele>1544.9</ele>
        <time>2017-08-13T09:07:31Z</time>
      </trkpt>
      <trkpt lat="42.51365" lon="-0.16594">
        <ele>1544.9</ele>
        <time>2017-08-13T09:07:32Z</time>
      </trkpt>
      <trkpt lat="42.5136" lon="-0.16595">
        <ele>1544.7</ele>
        <time>2017-08-13T09:07:33Z</time>
      </trkpt>
      <trkpt lat="42.51356" lon="-0.16595">
        <ele>1544.6</ele>
        <time>2017-08-13T09:07:34Z</time>
      </trkpt>
      <trkpt lat="42.51351" lon="-0.16595">
        <ele>1544.2</ele>
        <time>2017-08-13T09:07:35Z</time>
      </trkpt>
      <trkpt lat="42.51348" lon="-0.16595">
        <ele>1543.1</ele>
        <time>2017-08-13T09:07:36Z</time>
      </trkpt>
      <trkpt lat="42.51344" lon="-0.16596">
        <ele>1542.8</ele>
        <time>2017-08-13T09:07:37Z</time>
      </trkpt>
      <trkpt lat="42.5134" lon="-0.16597">
        <ele>1542.4</ele>
        <time>2017-08-13T09:07:38Z</time>
      </trkpt>
      <trkpt lat="42.51336" lon="-0.16598">
        <ele>1542.1</ele>
        <time>2017-08-13T09:07:39Z</time>
      </trkpt>
      <trkpt lat="42.51332" lon="-0.16598">
        <ele>1541.6</ele>
        <time>2017-08-13T09:07:40Z</time>
      </trkpt>
      <trkpt lat="42.51328" lon="-0.16599">
        <ele>1541.3</ele>
        <time>2017-08-13T09:07:41Z</time>
      </trkpt>
      <trkpt lat="42.51324" lon="-0.166">
        <ele>1540</ele>
        <time>2017-08-13T09:07:42Z</time>
      </trkpt>
      <trkpt lat="42.5132" lon="-0.166">
        <ele>1539.8</ele>
        <time>2017-08-13T09:07:43Z</time>
      </trkpt>
      <trkpt lat="42.51317" lon="-0.16599">
        <ele>1540.7</ele>
        <time>2017-08-13T09:07:44Z</time>
      </trkpt>
      <trkpt lat="42.51314" lon="-0.16598">
        <ele>1540.7</ele>
        <time>2017-08-13T09:07:45Z</time>
      </trkpt>
      <trkpt lat="42.51312" lon="-0.16595">
        <ele>1540.6</ele>
        <time>2017-08-13T09:07:46Z</time>
      </trkpt>
      <trkpt lat="42.51308" lon="-0.16591">
        <ele>1541.5</ele>
        <time>2017-08-13T09:07:48Z</time>
      </trkpt>
      <trkpt lat="42.51304" lon="-0.16588">
        <ele>1542.1</ele>
        <time>2017-08-13T09:07:50Z</time>
      </trkpt>
      <trkpt lat="42.51299" lon="-0.16587">
        <ele>1542</ele>
        <time>2017-08-13T09:07:52Z</time>
      </trkpt>
      <trkpt lat="42.51296" lon="-0.16586">
        <ele>1542.6</ele>
        <time>2017-08-13T09:07:53Z</time>
      </trkpt>
      <trkpt lat="42.51293" lon="-0.16585">
        <ele>1542.5</ele>
        <time>2017-08-13T09:07:54Z</time>
      </trkpt>
      <trkpt lat="42.51289" lon="-0.16584">
        <ele>1542.4</ele>
        <time>2017-08-13T09:07:55Z</time>
      </trkpt>
      <trkpt lat="42.51286" lon="-0.16583">
        <ele>1542.3</ele>
        <time>2017-08-13T09:07:56Z</time>
      </trkpt>
      <trkpt lat="42.51283" lon="-0.16582">
        <ele>1542.9</ele>
        <time>2017-08-13T09:07:57Z</time>
      </trkpt>
      <trkpt lat="42.5128" lon="-0.16581">
        <ele>1542.8</ele>
        <time>2017-08-13T09:07:58Z</time>
      </trkpt>
      <trkpt lat="42.51277" lon="-0.16581">
        <ele>1542.7</ele>
        <time>2017-08-13T09:07:59Z</time>
      </trkpt>
      <trkpt lat="42.51274" lon="-0.1658">
        <ele>1542.6</ele>
        <time>2017-08-13T09:08:00Z</time>
      </trkpt>
      <trkpt lat="42.51269" lon="-0.16579">
        <ele>1542.3</ele>
        <time>2017-08-13T09:08:02Z</time>
      </trkpt>
      <trkpt lat="42.51264" lon="-0.16578">
        <ele>1543.1</ele>
        <time>2017-08-13T09:08:04Z</time>
      </trkpt>
      <trkpt lat="42.51259" lon="-0.16578">
        <ele>1541.9</ele>
        <time>2017-08-13T09:08:06Z</time>
      </trkpt>
      <trkpt lat="42.51254" lon="-0.1658">
        <ele>1541.8</ele>
        <time>2017-08-13T09:08:08Z</time>
      </trkpt>
      <trkpt lat="42.51251" lon="-0.16581">
        <ele>1541.8</ele>
        <time>2017-08-13T09:08:09Z</time>
      </trkpt>
      <trkpt lat="42.51248" lon="-0.16581">
        <ele>1541.8</ele>
        <time>2017-08-13T09:08:10Z</time>
      </trkpt>
      <trkpt lat="42.51245" lon="-0.16582">
        <ele>1541.8</ele>
        <time>2017-08-13T09:08:11Z</time>
      </trkpt>
      <trkpt lat="42.51242" lon="-0.16583">
        <ele>1541.1</ele>
        <time>2017-08-13T09:08:12Z</time>
      </trkpt>
      <trkpt lat="42.51238" lon="-0.16584">
        <ele>1541.4</ele>
        <time>2017-08-13T09:08:13Z</time>
      </trkpt>
      <trkpt lat="42.51234" lon="-0.16586">
        <ele>1541.6</ele>
        <time>2017-08-13T09:08:14Z</time>
      </trkpt>
      <trkpt lat="42.5123" lon="-0.16587">
        <ele>1541.1</ele>
        <time>2017-08-13T09:08:15Z</time>
      </trkpt>
      <trkpt lat="42.51226" lon="-0.16589">
        <ele>1541.3</ele>
        <time>2017-08-13T09:08:16Z</time>
      </trkpt>
      <trkpt lat="42.51222" lon="-0.1659">
        <ele>1541.6</ele>
        <time>2017-08-13T09:08:17Z</time>
      </trkpt>
      <trkpt lat="42.51218" lon="-0.16592">
        <ele>1541.1</ele>
        <time>2017-08-13T09:08:18Z</time>
      </trkpt>
      <trkpt lat="42.51214" lon="-0.16594">
        <ele>1541.3</ele>
        <time>2017-08-13T09:08:19Z</time>
      </trkpt>
      <trkpt lat="42.51211" lon="-0.16597">
        <ele>1540.8</ele>
        <time>2017-08-13T09:08:20Z</time>
      </trkpt>
      <trkpt lat="42.51208" lon="-0.16599">
        <ele>1541</ele>
        <time>2017-08-13T09:08:21Z</time>
      </trkpt>
      <trkpt lat="42.51205" lon="-0.16602">
        <ele>1540.6</ele>
        <time>2017-08-13T09:08:22Z</time>
      </trkpt>
      <trkpt lat="42.51202" lon="-0.16606">
        <ele>1540.3</ele>
        <time>2017-08-13T09:08:23Z</time>
      </trkpt>
      <trkpt lat="42.512" lon="-0.1661">
        <ele>1540.1</ele>
        <time>2017-08-13T09:08:24Z</time>
      </trkpt>
      <trkpt lat="42.51197" lon="-0.16614">
        <ele>1539.7</ele>
        <time>2017-08-13T09:08:25Z</time>
      </trkpt>
      <trkpt lat="42.51195" lon="-0.16619">
        <ele>1539.5</ele>
        <time>2017-08-13T09:08:26Z</time>
      </trkpt>
      <trkpt lat="42.51192" lon="-0.16623">
        <ele>1539.3</ele>
        <time>2017-08-13T09:08:27Z</time>
      </trkpt>
      <trkpt lat="42.51189" lon="-0.16627">
        <ele>1539</ele>
        <time>2017-08-13T09:08:28Z</time>
      </trkpt>
      <trkpt lat="42.51187" lon="-0.16631">
        <ele>1538.7</ele>
        <time>2017-08-13T09:08:29Z</time>
      </trkpt>
      <trkpt lat="42.51184" lon="-0.16635">
        <ele>1538.5</ele>
        <time>2017-08-13T09:08:30Z</time>
      </trkpt>
      <trkpt lat="42.51181" lon="-0.16639">
        <ele>1538.2</ele>
        <time>2017-08-13T09:08:31Z</time>
      </trkpt>
      <trkpt lat="42.51177" lon="-0.16643">
        <ele>1537.8</ele>
        <time>2017-08-13T09:08:32Z</time>
      </trkpt>
      <trkpt lat="42.51174" lon="-0.16646">
        <ele>1538.2</ele>
        <time>2017-08-13T09:08:33Z</time>
      </trkpt>
      <trkpt lat="42.51171" lon="-0.16649">
        <ele>1537.7</ele>
        <time>2017-08-13T09:08:34Z</time>
      </trkpt>
      <trkpt lat="42.51169" lon="-0.16652">
        <ele>1536.5</ele>
        <time>2017-08-13T09:08:35Z</time>
      </trkpt>
      <trkpt lat="42.51166" lon="-0.16656">
        <ele>1535.7</ele>
        <time>2017-08-13T09:08:36Z</time>
      </trkpt>
      <trkpt lat="42.51164" lon="-0.1666">
        <ele>1534.7</ele>
        <time>2017-08-13T09:08:37Z</time>
      </trkpt>
      <trkpt lat="42.51161" lon="-0.16664">
        <ele>1535.1</ele>
        <time>2017-08-13T09:08:38Z</time>
      </trkpt>
      <trkpt lat="42.51158" lon="-0.16667">
        <ele>1534.2</ele>
        <time>2017-08-13T09:08:39Z</time>
      </trkpt>
      <trkpt lat="42.51155" lon="-0.16671">
        <ele>1533.4</ele>
        <time>2017-08-13T09:08:40Z</time>
      </trkpt>
      <trkpt lat="42.51152" lon="-0.16675">
        <ele>1532.5</ele>
        <time>2017-08-13T09:08:41Z</time>
      </trkpt>
      <trkpt lat="42.5115" lon="-0.16679">
        <ele>1531.5</ele>
        <time>2017-08-13T09:08:42Z</time>
      </trkpt>
      <trkpt lat="42.51147" lon="-0.16683">
        <ele>1530.8</ele>
        <time>2017-08-13T09:08:43Z</time>
      </trkpt>
      <trkpt lat="42.51143" lon="-0.16687">
        <ele>1530.2</ele>
        <time>2017-08-13T09:08:44Z</time>
      </trkpt>
      <trkpt lat="42.5114" lon="-0.16691">
        <ele>1529.6</ele>
        <time>2017-08-13T09:08:45Z</time>
      </trkpt>
      <trkpt lat="42.51137" lon="-0.16695">
        <ele>1528.9</ele>
        <time>2017-08-13T09:08:46Z</time>
      </trkpt>
      <trkpt lat="42.51135" lon="-0.16698">
        <ele>1529</ele>
        <time>2017-08-13T09:08:47Z</time>
      </trkpt>
      <trkpt lat="42.51131" lon="-0.16702">
        <ele>1528.3</ele>
        <time>2017-08-13T09:08:49Z</time>
      </trkpt>
      <trkpt lat="42.51128" lon="-0.16706">
        <ele>1527.8</ele>
        <time>2017-08-13T09:08:51Z</time>
      </trkpt>
      <trkpt lat="42.51125" lon="-0.16711">
        <ele>1527.4</ele>
        <time>2017-08-13T09:08:53Z</time>
      </trkpt>
      <trkpt lat="42.51121" lon="-0.16715">
        <ele>1527.5</ele>
        <time>2017-08-13T09:08:55Z</time>
      </trkpt>
      <trkpt lat="42.51118" lon="-0.16719">
        <ele>1528.4</ele>
        <time>2017-08-13T09:08:57Z</time>
      </trkpt>
      <trkpt lat="42.51114" lon="-0.16723">
        <ele>1528.9</ele>
        <time>2017-08-13T09:08:59Z</time>
      </trkpt>
      <trkpt lat="42.5111" lon="-0.16727">
        <ele>1529.4</ele>
        <time>2017-08-13T09:09:01Z</time>
      </trkpt>
      <trkpt lat="42.51107" lon="-0.1673">
        <ele>1529.9</ele>
        <time>2017-08-13T09:09:03Z</time>
      </trkpt>
      <trkpt lat="42.51105" lon="-0.16733">
        <ele>1529.9</ele>
        <time>2017-08-13T09:09:05Z</time>
      </trkpt>
      <trkpt lat="42.51103" lon="-0.16736">
        <ele>1530.4</ele>
        <time>2017-08-13T09:09:08Z</time>
      </trkpt>
      <trkpt lat="42.51101" lon="-0.16739">
        <ele>1531</ele>
        <time>2017-08-13T09:09:10Z</time>
      </trkpt>
      <trkpt lat="42.51099" lon="-0.16742">
        <ele>1531.7</ele>
        <time>2017-08-13T09:09:12Z</time>
      </trkpt>
      <trkpt lat="42.51097" lon="-0.16745">
        <ele>1531.7</ele>
        <time>2017-08-13T09:09:14Z</time>
      </trkpt>
      <trkpt lat="42.51094" lon="-0.16747">
        <ele>1532.6</ele>
        <time>2017-08-13T09:09:16Z</time>
      </trkpt>
      <trkpt lat="42.51092" lon="-0.16749">
        <ele>1533.1</ele>
        <time>2017-08-13T09:09:18Z</time>
      </trkpt>
      <trkpt lat="42.51089" lon="-0.16748">
        <ele>1533.6</ele>
        <time>2017-08-13T09:09:24Z</time>
      </trkpt>
      <trkpt lat="42.51087" lon="-0.16745">
        <ele>1533.3</ele>
        <time>2017-08-13T09:09:27Z</time>
      </trkpt>
      <trkpt lat="42.51086" lon="-0.16741">
        <ele>1533.5</ele>
        <time>2017-08-13T09:09:30Z</time>
      </trkpt>
      <trkpt lat="42.51087" lon="-0.16737">
        <ele>1533</ele>
        <time>2017-08-13T09:09:34Z</time>
      </trkpt>
      <trkpt lat="42.5109" lon="-0.16735">
        <ele>1532.3</ele>
        <time>2017-08-13T09:09:39Z</time>
      </trkpt>
      <trkpt lat="42.51092" lon="-0.16731">
        <ele>1532.2</ele>
        <time>2017-08-13T09:09:42Z</time>
      </trkpt>
      <trkpt lat="42.51094" lon="-0.16727">
        <ele>1531.7</ele>
        <time>2017-08-13T09:09:45Z</time>
      </trkpt>
      <trkpt lat="42.51094" lon="-0.16723">
        <ele>1531.7</ele>
        <time>2017-08-13T09:09:47Z</time>
      </trkpt>
      <trkpt lat="42.51095" lon="-0.16719">
        <ele>1531.8</ele>
        <time>2017-08-13T09:09:49Z</time>
      </trkpt>
      <trkpt lat="42.51096" lon="-0.16716">
        <ele>1531.3</ele>
        <time>2017-08-13T09:09:51Z</time>
      </trkpt>
      <trkpt lat="42.51097" lon="-0.16712">
        <ele>1531.5</ele>
        <time>2017-08-13T09:09:53Z</time>
      </trkpt>
      <trkpt lat="42.51099" lon="-0.16708">
        <ele>1531.8</ele>
        <time>2017-08-13T09:09:55Z</time>
      </trkpt>
      <trkpt lat="42.511" lon="-0.16705">
        <ele>1531.7</ele>
        <time>2017-08-13T09:09:57Z</time>
      </trkpt>
      <trkpt lat="42.51102" lon="-0.16701">
        <ele>1532.1</ele>
        <time>2017-08-13T09:09:59Z</time>
      </trkpt>
      <trkpt lat="42.51103" lon="-0.16697">
        <ele>1532.1</ele>
        <time>2017-08-13T09:10:02Z</time>
      </trkpt>
      <trkpt lat="42.51103" lon="-0.16692">
        <ele>1532.7</ele>
        <time>2017-08-13T09:10:04Z</time>
      </trkpt>
      <trkpt lat="42.51102" lon="-0.16688">
        <ele>1533.8</ele>
        <time>2017-08-13T09:10:06Z</time>
      </trkpt>
      <trkpt lat="42.511" lon="-0.16684">
        <ele>1534.4</ele>
        <time>2017-08-13T09:10:08Z</time>
      </trkpt>
      <trkpt lat="42.51099" lon="-0.16681">
        <ele>1535.2</ele>
        <time>2017-08-13T09:10:10Z</time>
      </trkpt>
      <trkpt lat="42.51096" lon="-0.16678">
        <ele>1535.2</ele>
        <time>2017-08-13T09:10:13Z</time>
      </trkpt>
      <trkpt lat="42.51094" lon="-0.16674">
        <ele>1535.6</ele>
        <time>2017-08-13T09:10:16Z</time>
      </trkpt>
      <trkpt lat="42.51093" lon="-0.16669">
        <ele>1535.8</ele>
        <time>2017-08-13T09:10:19Z</time>
      </trkpt>
      <trkpt lat="42.51091" lon="-0.16665">
        <ele>1535.7</ele>
        <time>2017-08-13T09:10:22Z</time>
      </trkpt>
      <trkpt lat="42.51091" lon="-0.16661">
        <ele>1535.9</ele>
        <time>2017-08-13T09:13:03Z</time>
      </trkpt>
      <trkpt lat="42.5109" lon="-0.16664">
        <ele>1535.7</ele>
        <time>2017-08-13T09:13:18Z</time>
      </trkpt>
      <trkpt lat="42.51094" lon="-0.16654">
        <ele>1536.5</ele>
        <time>2017-08-13T09:14:38Z</time>
      </trkpt>
      <trkpt lat="42.51096" lon="-0.16651">
        <ele>1537.1</ele>
        <time>2017-08-13T09:14:45Z</time>
      </trkpt>
      <trkpt lat="42.51095" lon="-0.16656">
        <ele>1536.4</ele>
        <time>2017-08-13T09:15:30Z</time>
      </trkpt>
      <trkpt lat="42.51094" lon="-0.16659">
        <ele>1536.4</ele>
        <time>2017-08-13T09:15:33Z</time>
      </trkpt>
      <trkpt lat="42.51091" lon="-0.16664">
        <ele>1535.9</ele>
        <time>2017-08-13T09:15:44Z</time>
      </trkpt>
      <trkpt lat="42.51094" lon="-0.16663">
        <ele>1536.3</ele>
        <time>2017-08-13T09:15:52Z</time>
      </trkpt>
      <trkpt lat="42.51094" lon="-0.16659">
        <ele>1536.4</ele>
        <time>2017-08-13T09:15:59Z</time>
      </trkpt>
      <trkpt lat="42.51096" lon="-0.16653">
        <ele>1536.5</ele>
        <time>2017-08-13T09:17:34Z</time>
      </trkpt>
      <trkpt lat="42.51095" lon="-0.16664">
        <ele>1536.3</ele>
        <time>2017-08-13T09:21:28Z</time>
      </trkpt>
      <trkpt lat="42.51098" lon="-0.16666">
        <ele>1536.4</ele>
        <time>2017-08-13T09:21:33Z</time>
      </trkpt>
      <trkpt lat="42.51092" lon="-0.16663">
        <ele>1535.9</ele>
        <time>2017-08-13T09:24:14Z</time>
      </trkpt>
      <trkpt lat="42.51094" lon="-0.16658">
        <ele>1536.4</ele>
        <time>2017-08-13T09:24:18Z</time>
      </trkpt>
      <trkpt lat="42.51096" lon="-0.16655">
        <ele>1537.1</ele>
        <time>2017-08-13T09:24:21Z</time>
      </trkpt>
      <trkpt lat="42.51099" lon="-0.16655">
        <ele>1537.7</ele>
        <time>2017-08-13T09:24:24Z</time>
      </trkpt>
      <trkpt lat="42.51101" lon="-0.16658">
        <ele>1537.5</ele>
        <time>2017-08-13T09:24:26Z</time>
      </trkpt>
      <trkpt lat="42.511" lon="-0.16662">
        <ele>1537.1</ele>
        <time>2017-08-13T09:24:28Z</time>
      </trkpt>
      <trkpt lat="42.51098" lon="-0.16665">
        <ele>1536.4</ele>
        <time>2017-08-13T09:24:30Z</time>
      </trkpt>
      <trkpt lat="42.51094" lon="-0.16665">
        <ele>1536.1</ele>
        <time>2017-08-13T09:24:33Z</time>
      </trkpt>
      <trkpt lat="42.51092" lon="-0.16664">
        <ele>1535.7</ele>
        <time>2017-08-13T09:24:36Z</time>
      </trkpt>
      <trkpt lat="42.51091" lon="-0.1666">
        <ele>1535.9</ele>
        <time>2017-08-13T09:24:39Z</time>
      </trkpt>
      <trkpt lat="42.5109" lon="-0.16655">
        <ele>1535.9</ele>
        <time>2017-08-13T09:24:41Z</time>
      </trkpt>
      <trkpt lat="42.5109" lon="-0.1665">
        <ele>1535.8</ele>
        <time>2017-08-13T09:24:43Z</time>
      </trkpt>
      <trkpt lat="42.51091" lon="-0.16644">
        <ele>1535.6</ele>
        <time>2017-08-13T09:24:45Z</time>
      </trkpt>
      <trkpt lat="42.51092" lon="-0.16639">
        <ele>1535.3</ele>
        <time>2017-08-13T09:24:46Z</time>
      </trkpt>
      <trkpt lat="42.51093" lon="-0.16635">
        <ele>1535.8</ele>
        <time>2017-08-13T09:24:47Z</time>
      </trkpt>
      <trkpt lat="42.51094" lon="-0.1663">
        <ele>1535.4</ele>
        <time>2017-08-13T09:24:48Z</time>
      </trkpt>
      <trkpt lat="42.51096" lon="-0.16625">
        <ele>1535.5</ele>
        <time>2017-08-13T09:24:49Z</time>
      </trkpt>
      <trkpt lat="42.51098" lon="-0.16619">
        <ele>1535.1</ele>
        <time>2017-08-13T09:24:50Z</time>
      </trkpt>
      <trkpt lat="42.511" lon="-0.16614">
        <ele>1536.1</ele>
        <time>2017-08-13T09:24:51Z</time>
      </trkpt>
      <trkpt lat="42.51102" lon="-0.1661">
        <ele>1537.2</ele>
        <time>2017-08-13T09:24:52Z</time>
      </trkpt>
      <trkpt lat="42.51101" lon="-0.16606">
        <ele>1535.5</ele>
        <time>2017-08-13T09:24:55Z</time>
      </trkpt>
      <trkpt lat="42.51096" lon="-0.16608">
        <ele>1533.9</ele>
        <time>2017-08-13T09:24:57Z</time>
      </trkpt>
      <trkpt lat="42.51094" lon="-0.1661">
        <ele>1532.7</ele>
        <time>2017-08-13T09:24:58Z</time>
      </trkpt>
      <trkpt lat="42.51092" lon="-0.16613">
        <ele>1531.8</ele>
        <time>2017-08-13T09:24:59Z</time>
      </trkpt>
      <trkpt lat="42.51089" lon="-0.16617">
        <ele>1530.5</ele>
        <time>2017-08-13T09:25:00Z</time>
      </trkpt>
      <trkpt lat="42.51086" lon="-0.16619">
        <ele>1531.2</ele>
        <time>2017-08-13T09:25:01Z</time>
      </trkpt>
      <trkpt lat="42.51084" lon="-0.16621">
        <ele>1531</ele>
        <time>2017-08-13T09:25:02Z</time>
      </trkpt>
      <trkpt lat="42.51081" lon="-0.16623">
        <ele>1530</ele>
        <time>2017-08-13T09:25:03Z</time>
      </trkpt>
      <trkpt lat="42.51076" lon="-0.16624">
        <ele>1527.8</ele>
        <time>2017-08-13T09:25:05Z</time>
      </trkpt>
      <trkpt lat="42.51071" lon="-0.16625">
        <ele>1526.6</ele>
        <time>2017-08-13T09:25:07Z</time>
      </trkpt>
      <trkpt lat="42.51066" lon="-0.16623">
        <ele>1524</ele>
        <time>2017-08-13T09:25:09Z</time>
      </trkpt>
      <trkpt lat="42.51062" lon="-0.16621">
        <ele>1522.7</ele>
        <time>2017-08-13T09:25:11Z</time>
      </trkpt>
      <trkpt lat="42.51059" lon="-0.16625">
        <ele>1521.4</ele>
        <time>2017-08-13T09:25:14Z</time>
      </trkpt>
      <trkpt lat="42.51058" lon="-0.1663">
        <ele>1523.2</ele>
        <time>2017-08-13T09:25:16Z</time>
      </trkpt>
      <trkpt lat="42.51057" lon="-0.16635">
        <ele>1522.9</ele>
        <time>2017-08-13T09:25:18Z</time>
      </trkpt>
      <trkpt lat="42.51056" lon="-0.16641">
        <ele>1523.8</ele>
        <time>2017-08-13T09:25:20Z</time>
      </trkpt>
      <trkpt lat="42.51054" lon="-0.16646">
        <ele>1523.8</ele>
        <time>2017-08-13T09:25:22Z</time>
      </trkpt>
      <trkpt lat="42.51052" lon="-0.16649">
        <ele>1525.1</ele>
        <time>2017-08-13T09:25:24Z</time>
      </trkpt>
      <trkpt lat="42.5105" lon="-0.16652">
        <ele>1525.3</ele>
        <time>2017-08-13T09:25:26Z</time>
      </trkpt>
      <trkpt lat="42.51046" lon="-0.16655">
        <ele>1523.8</ele>
        <time>2017-08-13T09:25:28Z</time>
      </trkpt>
      <trkpt lat="42.51042" lon="-0.16656">
        <ele>1523.6</ele>
        <time>2017-08-13T09:25:30Z</time>
      </trkpt>
      <trkpt lat="42.51039" lon="-0.16657">
        <ele>1521.8</ele>
        <time>2017-08-13T09:25:32Z</time>
      </trkpt>
      <trkpt lat="42.51036" lon="-0.16659">
        <ele>1519.8</ele>
        <time>2017-08-13T09:25:34Z</time>
      </trkpt>
      <trkpt lat="42.51034" lon="-0.1666">
        <ele>1519.3</ele>
        <time>2017-08-13T09:25:36Z</time>
      </trkpt>
      <trkpt lat="42.51031" lon="-0.16661">
        <ele>1517.4</ele>
        <time>2017-08-13T09:25:38Z</time>
      </trkpt>
      <trkpt lat="42.51027" lon="-0.16663">
        <ele>1515.5</ele>
        <time>2017-08-13T09:25:40Z</time>
      </trkpt>
      <trkpt lat="42.51023" lon="-0.16664">
        <ele>1513.7</ele>
        <time>2017-08-13T09:25:42Z</time>
      </trkpt>
      <trkpt lat="42.51019" lon="-0.16665">
        <ele>1511.3</ele>
        <time>2017-08-13T09:25:44Z</time>
      </trkpt>
      <trkpt lat="42.51015" lon="-0.16666">
        <ele>1509.2</ele>
        <time>2017-08-13T09:25:46Z</time>
      </trkpt>
      <trkpt lat="42.51009" lon="-0.16668">
        <ele>1506.6</ele>
        <time>2017-08-13T09:25:48Z</time>
      </trkpt>
      <trkpt lat="42.51007" lon="-0.16671">
        <ele>1504.7</ele>
        <time>2017-08-13T09:25:49Z</time>
      </trkpt>
      <trkpt lat="42.51004" lon="-0.16673">
        <ele>1506.4</ele>
        <time>2017-08-13T09:25:50Z</time>
      </trkpt>
      <trkpt lat="42.51002" lon="-0.16676">
        <ele>1504.5</ele>
        <time>2017-08-13T09:25:51Z</time>
      </trkpt>
      <trkpt lat="42.50999" lon="-0.16679">
        <ele>1504.6</ele>
        <time>2017-08-13T09:25:52Z</time>
      </trkpt>
      <trkpt lat="42.50998" lon="-0.16683">
        <ele>1504.8</ele>
        <time>2017-08-13T09:25:53Z</time>
      </trkpt>
      <trkpt lat="42.50996" lon="-0.16686">
        <ele>1506.7</ele>
        <time>2017-08-13T09:25:54Z</time>
      </trkpt>
      <trkpt lat="42.50993" lon="-0.16689">
        <ele>1505.1</ele>
        <time>2017-08-13T09:25:55Z</time>
      </trkpt>
      <trkpt lat="42.5099" lon="-0.16692">
        <ele>1505.1</ele>
        <time>2017-08-13T09:25:56Z</time>
      </trkpt>
      <trkpt lat="42.50987" lon="-0.16695">
        <ele>1504.9</ele>
        <time>2017-08-13T09:25:57Z</time>
      </trkpt>
      <trkpt lat="42.50983" lon="-0.16698">
        <ele>1503.6</ele>
        <time>2017-08-13T09:25:58Z</time>
      </trkpt>
      <trkpt lat="42.5098" lon="-0.16701">
        <ele>1503.5</ele>
        <time>2017-08-13T09:25:59Z</time>
      </trkpt>
      <trkpt lat="42.50977" lon="-0.16703">
        <ele>1503.5</ele>
        <time>2017-08-13T09:26:00Z</time>
      </trkpt>
      <trkpt lat="42.50975" lon="-0.16705">
        <ele>1502.5</ele>
        <time>2017-08-13T09:26:01Z</time>
      </trkpt>
      <trkpt lat="42.5097" lon="-0.16707">
        <ele>1501.6</ele>
        <time>2017-08-13T09:26:03Z</time>
      </trkpt>
      <trkpt lat="42.50966" lon="-0.16709">
        <ele>1502.1</ele>
        <time>2017-08-13T09:26:05Z</time>
      </trkpt>
      <trkpt lat="42.50962" lon="-0.1671">
        <ele>1500.5</ele>
        <time>2017-08-13T09:26:07Z</time>
      </trkpt>
      <trkpt lat="42.50958" lon="-0.16711">
        <ele>1499.8</ele>
        <time>2017-08-13T09:26:09Z</time>
      </trkpt>
      <trkpt lat="42.50955" lon="-0.16713">
        <ele>1501.1</ele>
        <time>2017-08-13T09:26:11Z</time>
      </trkpt>
      <trkpt lat="42.50951" lon="-0.16717">
        <ele>1502.8</ele>
        <time>2017-08-13T09:26:13Z</time>
      </trkpt>
      <trkpt lat="42.50948" lon="-0.1672">
        <ele>1504.5</ele>
        <time>2017-08-13T09:26:15Z</time>
      </trkpt>
      <trkpt lat="42.50945" lon="-0.16723">
        <ele>1504.2</ele>
        <time>2017-08-13T09:26:17Z</time>
      </trkpt>
      <trkpt lat="42.50941" lon="-0.16724">
        <ele>1505.9</ele>
        <time>2017-08-13T09:26:19Z</time>
      </trkpt>
      <trkpt lat="42.50937" lon="-0.16724">
        <ele>1504.5</ele>
        <time>2017-08-13T09:26:21Z</time>
      </trkpt>
      <trkpt lat="42.50933" lon="-0.16725">
        <ele>1503.5</ele>
        <time>2017-08-13T09:26:23Z</time>
      </trkpt>
      <trkpt lat="42.5093" lon="-0.16726">
        <ele>1502.4</ele>
        <time>2017-08-13T09:26:25Z</time>
      </trkpt>
      <trkpt lat="42.50927" lon="-0.16727">
        <ele>1501.2</ele>
        <time>2017-08-13T09:26:27Z</time>
      </trkpt>
      <trkpt lat="42.50924" lon="-0.16728">
        <ele>1500.1</ele>
        <time>2017-08-13T09:26:29Z</time>
      </trkpt>
      <trkpt lat="42.5092" lon="-0.16729">
        <ele>1501.1</ele>
        <time>2017-08-13T09:26:31Z</time>
      </trkpt>
      <trkpt lat="42.50916" lon="-0.16731">
        <ele>1500.1</ele>
        <time>2017-08-13T09:26:33Z</time>
      </trkpt>
      <trkpt lat="42.50913" lon="-0.16732">
        <ele>1499</ele>
        <time>2017-08-13T09:26:35Z</time>
      </trkpt>
      <trkpt lat="42.50909" lon="-0.16734">
        <ele>1500.1</ele>
        <time>2017-08-13T09:26:37Z</time>
      </trkpt>
      <trkpt lat="42.50907" lon="-0.16736">
        <ele>1498.8</ele>
        <time>2017-08-13T09:26:38Z</time>
      </trkpt>
      <trkpt lat="42.50903" lon="-0.16738">
        <ele>1499.2</ele>
        <time>2017-08-13T09:26:39Z</time>
      </trkpt>
      <trkpt lat="42.50899" lon="-0.1674">
        <ele>1496.1</ele>
        <time>2017-08-13T09:26:40Z</time>
      </trkpt>
      <trkpt lat="42.50895" lon="-0.16741">
        <ele>1494.6</ele>
        <time>2017-08-13T09:26:41Z</time>
      </trkpt>
      <trkpt lat="42.50892" lon="-0.16742">
        <ele>1494.3</ele>
        <time>2017-08-13T09:26:42Z</time>
      </trkpt>
      <trkpt lat="42.50888" lon="-0.16743">
        <ele>1493</ele>
        <time>2017-08-13T09:26:44Z</time>
      </trkpt>
      <trkpt lat="42.50885" lon="-0.16743">
        <ele>1491.7</ele>
        <time>2017-08-13T09:26:46Z</time>
      </trkpt>
      <trkpt lat="42.50882" lon="-0.16743">
        <ele>1490.3</ele>
        <time>2017-08-13T09:26:48Z</time>
      </trkpt>
      <trkpt lat="42.50877" lon="-0.16741">
        <ele>1487.4</ele>
        <time>2017-08-13T09:26:50Z</time>
      </trkpt>
      <trkpt lat="42.50873" lon="-0.16742">
        <ele>1485.9</ele>
        <time>2017-08-13T09:26:52Z</time>
      </trkpt>
      <trkpt lat="42.50868" lon="-0.16746">
        <ele>1484.8</ele>
        <time>2017-08-13T09:26:54Z</time>
      </trkpt>
      <trkpt lat="42.50867" lon="-0.16749">
        <ele>1483.3</ele>
        <time>2017-08-13T09:26:55Z</time>
      </trkpt>
      <trkpt lat="42.50866" lon="-0.16754">
        <ele>1483.5</ele>
        <time>2017-08-13T09:26:57Z</time>
      </trkpt>
      <trkpt lat="42.50862" lon="-0.16749">
        <ele>1482</ele>
        <time>2017-08-13T09:27:01Z</time>
      </trkpt>
      <trkpt lat="42.5086" lon="-0.16745">
        <ele>1480.6</ele>
        <time>2017-08-13T09:27:02Z</time>
      </trkpt>
      <trkpt lat="42.50858" lon="-0.16741">
        <ele>1479</ele>
        <time>2017-08-13T09:27:03Z</time>
      </trkpt>
      <trkpt lat="42.50856" lon="-0.16736">
        <ele>1478.6</ele>
        <time>2017-08-13T09:27:04Z</time>
      </trkpt>
      <trkpt lat="42.50855" lon="-0.16733">
        <ele>1478.1</ele>
        <time>2017-08-13T09:27:05Z</time>
      </trkpt>
      <trkpt lat="42.50854" lon="-0.16727">
        <ele>1476.4</ele>
        <time>2017-08-13T09:27:07Z</time>
      </trkpt>
      <trkpt lat="42.50852" lon="-0.16723">
        <ele>1476</ele>
        <time>2017-08-13T09:27:09Z</time>
      </trkpt>
      <trkpt lat="42.50854" lon="-0.16719">
        <ele>1475.5</ele>
        <time>2017-08-13T09:27:12Z</time>
      </trkpt>
      <trkpt lat="42.50857" lon="-0.16718">
        <ele>1476.4</ele>
        <time>2017-08-13T09:27:13Z</time>
      </trkpt>
      <trkpt lat="42.50862" lon="-0.16717">
        <ele>1477.9</ele>
        <time>2017-08-13T09:27:15Z</time>
      </trkpt>
      <trkpt lat="42.50865" lon="-0.16718">
        <ele>1478.7</ele>
        <time>2017-08-13T09:27:17Z</time>
      </trkpt>
      <trkpt lat="42.50869" lon="-0.16716">
        <ele>1479.7</ele>
        <time>2017-08-13T09:27:20Z</time>
      </trkpt>
      <trkpt lat="42.50871" lon="-0.16713">
        <ele>1479.4</ele>
        <time>2017-08-13T09:27:22Z</time>
      </trkpt>
      <trkpt lat="42.50874" lon="-0.16709">
        <ele>1477.9</ele>
        <time>2017-08-13T09:27:24Z</time>
      </trkpt>
      <trkpt lat="42.50877" lon="-0.16705">
        <ele>1477.2</ele>
        <time>2017-08-13T09:27:26Z</time>
      </trkpt>
      <trkpt lat="42.50881" lon="-0.16703">
        <ele>1479</ele>
        <time>2017-08-13T09:27:28Z</time>
      </trkpt>
      <trkpt lat="42.50883" lon="-0.167">
        <ele>1477.4</ele>
        <time>2017-08-13T09:27:30Z</time>
      </trkpt>
      <trkpt lat="42.50885" lon="-0.16694">
        <ele>1476.8</ele>
        <time>2017-08-13T09:27:32Z</time>
      </trkpt>
      <trkpt lat="42.50887" lon="-0.16689">
        <ele>1475.2</ele>
        <time>2017-08-13T09:27:34Z</time>
      </trkpt>
      <trkpt lat="42.5089" lon="-0.16685">
        <ele>1474.7</ele>
        <time>2017-08-13T09:27:36Z</time>
      </trkpt>
      <trkpt lat="42.50893" lon="-0.16681">
        <ele>1475.6</ele>
        <time>2017-08-13T09:27:38Z</time>
      </trkpt>
      <trkpt lat="42.50896" lon="-0.16678">
        <ele>1474.9</ele>
        <time>2017-08-13T09:27:40Z</time>
      </trkpt>
      <trkpt lat="42.509" lon="-0.16674">
        <ele>1474.1</ele>
        <time>2017-08-13T09:27:42Z</time>
      </trkpt>
      <trkpt lat="42.50902" lon="-0.16671">
        <ele>1472.6</ele>
        <time>2017-08-13T09:27:44Z</time>
      </trkpt>
      <trkpt lat="42.50903" lon="-0.16668">
        <ele>1471.8</ele>
        <time>2017-08-13T09:28:06Z</time>
      </trkpt>
      <trkpt lat="42.50906" lon="-0.16665">
        <ele>1471.8</ele>
        <time>2017-08-13T09:28:10Z</time>
      </trkpt>
      <trkpt lat="42.50907" lon="-0.16661">
        <ele>1470.9</ele>
        <time>2017-08-13T09:28:19Z</time>
      </trkpt>
      <trkpt lat="42.5091" lon="-0.16658">
        <ele>1469.8</ele>
        <time>2017-08-13T09:28:21Z</time>
      </trkpt>
      <trkpt lat="42.50914" lon="-0.16655">
        <ele>1468.6</ele>
        <time>2017-08-13T09:28:23Z</time>
      </trkpt>
      <trkpt lat="42.50917" lon="-0.16652">
        <ele>1469.2</ele>
        <time>2017-08-13T09:28:25Z</time>
      </trkpt>
      <trkpt lat="42.5092" lon="-0.1665">
        <ele>1467.9</ele>
        <time>2017-08-13T09:28:27Z</time>
      </trkpt>
      <trkpt lat="42.50922" lon="-0.16646">
        <ele>1466.7</ele>
        <time>2017-08-13T09:28:29Z</time>
      </trkpt>
      <trkpt lat="42.50925" lon="-0.16641">
        <ele>1465</ele>
        <time>2017-08-13T09:28:31Z</time>
      </trkpt>
      <trkpt lat="42.50928" lon="-0.16635">
        <ele>1463.9</ele>
        <time>2017-08-13T09:28:33Z</time>
      </trkpt>
      <trkpt lat="42.5093" lon="-0.16632">
        <ele>1462.4</ele>
        <time>2017-08-13T09:28:34Z</time>
      </trkpt>
      <trkpt lat="42.50931" lon="-0.16629">
        <ele>1460</ele>
        <time>2017-08-13T09:28:35Z</time>
      </trkpt>
      <trkpt lat="42.50934" lon="-0.16623">
        <ele>1458.1</ele>
        <time>2017-08-13T09:28:37Z</time>
      </trkpt>
      <trkpt lat="42.50938" lon="-0.16619">
        <ele>1457</ele>
        <time>2017-08-13T09:28:39Z</time>
      </trkpt>
      <trkpt lat="42.50941" lon="-0.16615">
        <ele>1455.4</ele>
        <time>2017-08-13T09:28:41Z</time>
      </trkpt>
      <trkpt lat="42.50944" lon="-0.16612">
        <ele>1453.5</ele>
        <time>2017-08-13T09:28:42Z</time>
      </trkpt>
      <trkpt lat="42.50947" lon="-0.16607">
        <ele>1453</ele>
        <time>2017-08-13T09:28:44Z</time>
      </trkpt>
      <trkpt lat="42.50951" lon="-0.16602">
        <ele>1452</ele>
        <time>2017-08-13T09:28:46Z</time>
      </trkpt>
      <trkpt lat="42.50953" lon="-0.16596">
        <ele>1450.1</ele>
        <time>2017-08-13T09:28:48Z</time>
      </trkpt>
      <trkpt lat="42.50956" lon="-0.1659">
        <ele>1447.8</ele>
        <time>2017-08-13T09:28:50Z</time>
      </trkpt>
      <trkpt lat="42.50959" lon="-0.16585">
        <ele>1447.7</ele>
        <time>2017-08-13T09:28:52Z</time>
      </trkpt>
      <trkpt lat="42.50962" lon="-0.16581">
        <ele>1447.8</ele>
        <time>2017-08-13T09:28:53Z</time>
      </trkpt>
      <trkpt lat="42.50964" lon="-0.16578">
        <ele>1449.2</ele>
        <time>2017-08-13T09:28:54Z</time>
      </trkpt>
      <trkpt lat="42.50967" lon="-0.16573">
        <ele>1447.7</ele>
        <time>2017-08-13T09:28:56Z</time>
      </trkpt>
      <trkpt lat="42.50968" lon="-0.16569">
        <ele>1446.3</ele>
        <time>2017-08-13T09:28:58Z</time>
      </trkpt>
      <trkpt lat="42.50969" lon="-0.16563">
        <ele>1446.4</ele>
        <time>2017-08-13T09:29:00Z</time>
      </trkpt>
      <trkpt lat="42.5097" lon="-0.16559">
        <ele>1445.3</ele>
        <time>2017-08-13T09:29:01Z</time>
      </trkpt>
      <trkpt lat="42.50971" lon="-0.16554">
        <ele>1444.4</ele>
        <time>2017-08-13T09:29:02Z</time>
      </trkpt>
      <trkpt lat="42.50972" lon="-0.16549">
        <ele>1443.5</ele>
        <time>2017-08-13T09:29:03Z</time>
      </trkpt>
      <trkpt lat="42.50973" lon="-0.16545">
        <ele>1444</ele>
        <time>2017-08-13T09:29:04Z</time>
      </trkpt>
      <trkpt lat="42.50974" lon="-0.1654">
        <ele>1443.1</ele>
        <time>2017-08-13T09:29:05Z</time>
      </trkpt>
      <trkpt lat="42.50975" lon="-0.16536">
        <ele>1442.3</ele>
        <time>2017-08-13T09:29:06Z</time>
      </trkpt>
      <trkpt lat="42.50976" lon="-0.16532">
        <ele>1443.5</ele>
        <time>2017-08-13T09:29:07Z</time>
      </trkpt>
      <trkpt lat="42.50978" lon="-0.16528">
        <ele>1443.1</ele>
        <time>2017-08-13T09:29:08Z</time>
      </trkpt>
      <trkpt lat="42.50979" lon="-0.16524">
        <ele>1444.9</ele>
        <time>2017-08-13T09:29:09Z</time>
      </trkpt>
      <trkpt lat="42.5098" lon="-0.1652">
        <ele>1444.7</ele>
        <time>2017-08-13T09:29:10Z</time>
      </trkpt>
      <trkpt lat="42.50981" lon="-0.16514">
        <ele>1444</ele>
        <time>2017-08-13T09:29:12Z</time>
      </trkpt>
      <trkpt lat="42.50981" lon="-0.16507">
        <ele>1443.6</ele>
        <time>2017-08-13T09:29:14Z</time>
      </trkpt>
      <trkpt lat="42.50981" lon="-0.16503">
        <ele>1443.2</ele>
        <time>2017-08-13T09:29:15Z</time>
      </trkpt>
      <trkpt lat="42.50981" lon="-0.16499">
        <ele>1442.8</ele>
        <time>2017-08-13T09:29:16Z</time>
      </trkpt>
      <trkpt lat="42.50981" lon="-0.16494">
        <ele>1442.3</ele>
        <time>2017-08-13T09:29:17Z</time>
      </trkpt>
      <trkpt lat="42.50981" lon="-0.16488">
        <ele>1441.6</ele>
        <time>2017-08-13T09:29:18Z</time>
      </trkpt>
      <trkpt lat="42.5098" lon="-0.16483">
        <ele>1440</ele>
        <time>2017-08-13T09:29:19Z</time>
      </trkpt>
      <trkpt lat="42.50979" lon="-0.16478">
        <ele>1439.3</ele>
        <time>2017-08-13T09:29:20Z</time>
      </trkpt>
      <trkpt lat="42.50978" lon="-0.16473">
        <ele>1436</ele>
        <time>2017-08-13T09:29:21Z</time>
      </trkpt>
      <trkpt lat="42.50977" lon="-0.16468">
        <ele>1435.4</ele>
        <time>2017-08-13T09:29:22Z</time>
      </trkpt>
      <trkpt lat="42.50976" lon="-0.16464">
        <ele>1434.8</ele>
        <time>2017-08-13T09:29:23Z</time>
      </trkpt>
      <trkpt lat="42.50976" lon="-0.1646">
        <ele>1434.3</ele>
        <time>2017-08-13T09:29:24Z</time>
      </trkpt>
      <trkpt lat="42.50976" lon="-0.16454">
        <ele>1433.9</ele>
        <time>2017-08-13T09:29:26Z</time>
      </trkpt>
      <trkpt lat="42.50976" lon="-0.16449">
        <ele>1433.2</ele>
        <time>2017-08-13T09:29:28Z</time>
      </trkpt>
      <trkpt lat="42.50975" lon="-0.16445">
        <ele>1430.4</ele>
        <time>2017-08-13T09:29:29Z</time>
      </trkpt>
      <trkpt lat="42.50975" lon="-0.16441">
        <ele>1430.1</ele>
        <time>2017-08-13T09:29:30Z</time>
      </trkpt>
      <trkpt lat="42.50974" lon="-0.16436">
        <ele>1429.7</ele>
        <time>2017-08-13T09:29:31Z</time>
      </trkpt>
      <trkpt lat="42.50974" lon="-0.16431">
        <ele>1429.3</ele>
        <time>2017-08-13T09:29:32Z</time>
      </trkpt>
      <trkpt lat="42.50973" lon="-0.16426">
        <ele>1428.9</ele>
        <time>2017-08-13T09:29:33Z</time>
      </trkpt>
      <trkpt lat="42.50972" lon="-0.16421">
        <ele>1426.2</ele>
        <time>2017-08-13T09:29:34Z</time>
      </trkpt>
      <trkpt lat="42.50972" lon="-0.16417">
        <ele>1426.1</ele>
        <time>2017-08-13T09:29:35Z</time>
      </trkpt>
      <trkpt lat="42.50971" lon="-0.16413">
        <ele>1426.1</ele>
        <time>2017-08-13T09:29:36Z</time>
      </trkpt>
      <trkpt lat="42.5097" lon="-0.16407">
        <ele>1426.1</ele>
        <time>2017-08-13T09:29:38Z</time>
      </trkpt>
      <trkpt lat="42.50971" lon="-0.16401">
        <ele>1425.7</ele>
        <time>2017-08-13T09:29:40Z</time>
      </trkpt>
      <trkpt lat="42.50972" lon="-0.16396">
        <ele>1425.3</ele>
        <time>2017-08-13T09:29:41Z</time>
      </trkpt>
      <trkpt lat="42.50973" lon="-0.16391">
        <ele>1426.7</ele>
        <time>2017-08-13T09:29:42Z</time>
      </trkpt>
      <trkpt lat="42.50974" lon="-0.16387">
        <ele>1425.9</ele>
        <time>2017-08-13T09:29:43Z</time>
      </trkpt>
      <trkpt lat="42.50977" lon="-0.16381">
        <ele>1426.8</ele>
        <time>2017-08-13T09:29:45Z</time>
      </trkpt>
      <trkpt lat="42.50979" lon="-0.16378">
        <ele>1427.5</ele>
        <time>2017-08-13T09:29:46Z</time>
      </trkpt>
      <trkpt lat="42.5098" lon="-0.16374">
        <ele>1425.9</ele>
        <time>2017-08-13T09:29:47Z</time>
      </trkpt>
      <trkpt lat="42.50981" lon="-0.16371">
        <ele>1424.2</ele>
        <time>2017-08-13T09:29:48Z</time>
      </trkpt>
      <trkpt lat="42.50983" lon="-0.16365">
        <ele>1424.6</ele>
        <time>2017-08-13T09:29:50Z</time>
      </trkpt>
      <trkpt lat="42.50985" lon="-0.16359">
        <ele>1423.5</ele>
        <time>2017-08-13T09:29:52Z</time>
      </trkpt>
      <trkpt lat="42.50987" lon="-0.16354">
        <ele>1422</ele>
        <time>2017-08-13T09:29:54Z</time>
      </trkpt>
      <trkpt lat="42.50988" lon="-0.16348">
        <ele>1420.6</ele>
        <time>2017-08-13T09:29:56Z</time>
      </trkpt>
      <trkpt lat="42.50988" lon="-0.16343">
        <ele>1419.6</ele>
        <time>2017-08-13T09:29:58Z</time>
      </trkpt>
      <trkpt lat="42.50988" lon="-0.16339">
        <ele>1418.8</ele>
        <time>2017-08-13T09:30:00Z</time>
      </trkpt>
      <trkpt lat="42.50988" lon="-0.16335">
        <ele>1418.5</ele>
        <time>2017-08-13T09:30:02Z</time>
      </trkpt>
      <trkpt lat="42.50988" lon="-0.16328">
        <ele>1420.7</ele>
        <time>2017-08-13T09:30:04Z</time>
      </trkpt>
      <trkpt lat="42.50989" lon="-0.16324">
        <ele>1421.1</ele>
        <time>2017-08-13T09:30:05Z</time>
      </trkpt>
      <trkpt lat="42.50989" lon="-0.16321">
        <ele>1421.8</ele>
        <time>2017-08-13T09:30:06Z</time>
      </trkpt>
      <trkpt lat="42.50989" lon="-0.16317">
        <ele>1421.8</ele>
        <time>2017-08-13T09:30:07Z</time>
      </trkpt>
      <trkpt lat="42.50988" lon="-0.16313">
        <ele>1420.3</ele>
        <time>2017-08-13T09:30:08Z</time>
      </trkpt>
      <trkpt lat="42.50985" lon="-0.16308">
        <ele>1422</ele>
        <time>2017-08-13T09:30:10Z</time>
      </trkpt>
      <trkpt lat="42.50982" lon="-0.16301">
        <ele>1418.1</ele>
        <time>2017-08-13T09:30:12Z</time>
      </trkpt>
      <trkpt lat="42.5098" lon="-0.16298">
        <ele>1418.8</ele>
        <time>2017-08-13T09:30:13Z</time>
      </trkpt>
      <trkpt lat="42.50976" lon="-0.16293">
        <ele>1417.1</ele>
        <time>2017-08-13T09:30:15Z</time>
      </trkpt>
      <trkpt lat="42.50974" lon="-0.1629">
        <ele>1415.4</ele>
        <time>2017-08-13T09:30:16Z</time>
      </trkpt>
      <trkpt lat="42.50971" lon="-0.16288">
        <ele>1413.5</ele>
        <time>2017-08-13T09:30:17Z</time>
      </trkpt>
      <trkpt lat="42.50969" lon="-0.16285">
        <ele>1411.8</ele>
        <time>2017-08-13T09:30:18Z</time>
      </trkpt>
      <trkpt lat="42.50967" lon="-0.16283">
        <ele>1411.8</ele>
        <time>2017-08-13T09:30:19Z</time>
      </trkpt>
      <trkpt lat="42.50964" lon="-0.16279">
        <ele>1410</ele>
        <time>2017-08-13T09:30:21Z</time>
      </trkpt>
      <trkpt lat="42.50962" lon="-0.16275">
        <ele>1408</ele>
        <time>2017-08-13T09:30:23Z</time>
      </trkpt>
      <trkpt lat="42.50959" lon="-0.16271">
        <ele>1406.2</ele>
        <time>2017-08-13T09:30:25Z</time>
      </trkpt>
      <trkpt lat="42.50956" lon="-0.16266">
        <ele>1404.5</ele>
        <time>2017-08-13T09:30:27Z</time>
      </trkpt>
      <trkpt lat="42.50951" lon="-0.16262">
        <ele>1403.1</ele>
        <time>2017-08-13T09:31:34Z</time>
      </trkpt>
      <trkpt lat="42.50948" lon="-0.16259">
        <ele>1402.2</ele>
        <time>2017-08-13T09:31:36Z</time>
      </trkpt>
      <trkpt lat="42.50945" lon="-0.16254">
        <ele>1401.4</ele>
        <time>2017-08-13T09:31:38Z</time>
      </trkpt>
      <trkpt lat="42.50942" lon="-0.1625">
        <ele>1401</ele>
        <time>2017-08-13T09:31:40Z</time>
      </trkpt>
      <trkpt lat="42.50938" lon="-0.16246">
        <ele>1400.6</ele>
        <time>2017-08-13T09:31:42Z</time>
      </trkpt>
      <trkpt lat="42.50936" lon="-0.16242">
        <ele>1400.3</ele>
        <time>2017-08-13T09:31:44Z</time>
      </trkpt>
      <trkpt lat="42.50934" lon="-0.16238">
        <ele>1400.1</ele>
        <time>2017-08-13T09:31:46Z</time>
      </trkpt>
      <trkpt lat="42.50931" lon="-0.16233">
        <ele>1399.9</ele>
        <time>2017-08-13T09:31:48Z</time>
      </trkpt>
      <trkpt lat="42.50928" lon="-0.1623">
        <ele>1401.6</ele>
        <time>2017-08-13T09:31:49Z</time>
      </trkpt>
      <trkpt lat="42.50926" lon="-0.16227">
        <ele>1399.8</ele>
        <time>2017-08-13T09:31:50Z</time>
      </trkpt>
      <trkpt lat="42.50924" lon="-0.16223">
        <ele>1399.5</ele>
        <time>2017-08-13T09:31:51Z</time>
      </trkpt>
      <trkpt lat="42.50921" lon="-0.16219">
        <ele>1399.4</ele>
        <time>2017-08-13T09:31:52Z</time>
      </trkpt>
      <trkpt lat="42.50919" lon="-0.16216">
        <ele>1400.8</ele>
        <time>2017-08-13T09:31:53Z</time>
      </trkpt>
      <trkpt lat="42.50917" lon="-0.16211">
        <ele>1401</ele>
        <time>2017-08-13T09:31:55Z</time>
      </trkpt>
      <trkpt lat="42.50915" lon="-0.16208">
        <ele>1401.4</ele>
        <time>2017-08-13T09:31:58Z</time>
      </trkpt>
      <trkpt lat="42.50913" lon="-0.16206">
        <ele>1401.4</ele>
        <time>2017-08-13T09:32:00Z</time>
      </trkpt>
      <trkpt lat="42.50911" lon="-0.16204">
        <ele>1401.3</ele>
        <time>2017-08-13T09:32:01Z</time>
      </trkpt>
      <trkpt lat="42.50908" lon="-0.16201">
        <ele>1400</ele>
        <time>2017-08-13T09:32:02Z</time>
      </trkpt>
      <trkpt lat="42.50906" lon="-0.16198">
        <ele>1400.9</ele>
        <time>2017-08-13T09:32:03Z</time>
      </trkpt>
      <trkpt lat="42.50904" lon="-0.16196">
        <ele>1399.9</ele>
        <time>2017-08-13T09:32:04Z</time>
      </trkpt>
      <trkpt lat="42.509" lon="-0.16192">
        <ele>1398.5</ele>
        <time>2017-08-13T09:32:06Z</time>
      </trkpt>
      <trkpt lat="42.50895" lon="-0.16187">
        <ele>1395.5</ele>
        <time>2017-08-13T09:32:08Z</time>
      </trkpt>
      <trkpt lat="42.50893" lon="-0.16185">
        <ele>1394</ele>
        <time>2017-08-13T09:32:09Z</time>
      </trkpt>
      <trkpt lat="42.5089" lon="-0.16181">
        <ele>1393.2</ele>
        <time>2017-08-13T09:32:11Z</time>
      </trkpt>
      <trkpt lat="42.50887" lon="-0.16178">
        <ele>1393.9</ele>
        <time>2017-08-13T09:32:13Z</time>
      </trkpt>
      <trkpt lat="42.50884" lon="-0.16176">
        <ele>1392.5</ele>
        <time>2017-08-13T09:32:15Z</time>
      </trkpt>
      <trkpt lat="42.5088" lon="-0.16172">
        <ele>1389.7</ele>
        <time>2017-08-13T09:32:17Z</time>
      </trkpt>
      <trkpt lat="42.50878" lon="-0.1617">
        <ele>1390.4</ele>
        <time>2017-08-13T09:32:18Z</time>
      </trkpt>
      <trkpt lat="42.50876" lon="-0.16168">
        <ele>1388.4</ele>
        <time>2017-08-13T09:32:19Z</time>
      </trkpt>
      <trkpt lat="42.50873" lon="-0.16165">
        <ele>1386.6</ele>
        <time>2017-08-13T09:32:20Z</time>
      </trkpt>
      <trkpt lat="42.50871" lon="-0.16161">
        <ele>1387.2</ele>
        <time>2017-08-13T09:32:21Z</time>
      </trkpt>
      <trkpt lat="42.50869" lon="-0.16158">
        <ele>1384.9</ele>
        <time>2017-08-13T09:32:22Z</time>
      </trkpt>
      <trkpt lat="42.50868" lon="-0.16154">
        <ele>1385.5</ele>
        <time>2017-08-13T09:32:23Z</time>
      </trkpt>
      <trkpt lat="42.50867" lon="-0.16149">
        <ele>1384.7</ele>
        <time>2017-08-13T09:32:25Z</time>
      </trkpt>
      <trkpt lat="42.50864" lon="-0.16143">
        <ele>1383.5</ele>
        <time>2017-08-13T09:32:27Z</time>
      </trkpt>
      <trkpt lat="42.50861" lon="-0.16139">
        <ele>1382.9</ele>
        <time>2017-08-13T09:32:28Z</time>
      </trkpt>
      <trkpt lat="42.50859" lon="-0.16136">
        <ele>1384.5</ele>
        <time>2017-08-13T09:32:29Z</time>
      </trkpt>
      <trkpt lat="42.50856" lon="-0.16132">
        <ele>1384.4</ele>
        <time>2017-08-13T09:32:30Z</time>
      </trkpt>
      <trkpt lat="42.50855" lon="-0.16128">
        <ele>1382.2</ele>
        <time>2017-08-13T09:32:31Z</time>
      </trkpt>
      <trkpt lat="42.50853" lon="-0.16125">
        <ele>1384.2</ele>
        <time>2017-08-13T09:32:32Z</time>
      </trkpt>
      <trkpt lat="42.50852" lon="-0.16121">
        <ele>1383.8</ele>
        <time>2017-08-13T09:32:33Z</time>
      </trkpt>
      <trkpt lat="42.50851" lon="-0.16116">
        <ele>1385.4</ele>
        <time>2017-08-13T09:32:34Z</time>
      </trkpt>
      <trkpt lat="42.5085" lon="-0.16111">
        <ele>1386.7</ele>
        <time>2017-08-13T09:32:35Z</time>
      </trkpt>
      <trkpt lat="42.5085" lon="-0.16107">
        <ele>1387.6</ele>
        <time>2017-08-13T09:32:36Z</time>
      </trkpt>
      <trkpt lat="42.50849" lon="-0.16102">
        <ele>1388</ele>
        <time>2017-08-13T09:32:37Z</time>
      </trkpt>
      <trkpt lat="42.5085" lon="-0.16097">
        <ele>1387.2</ele>
        <time>2017-08-13T09:32:38Z</time>
      </trkpt>
      <trkpt lat="42.5085" lon="-0.16092">
        <ele>1386.3</ele>
        <time>2017-08-13T09:32:39Z</time>
      </trkpt>
      <trkpt lat="42.50851" lon="-0.16088">
        <ele>1385</ele>
        <time>2017-08-13T09:32:40Z</time>
      </trkpt>
      <trkpt lat="42.50853" lon="-0.16084">
        <ele>1385.6</ele>
        <time>2017-08-13T09:32:41Z</time>
      </trkpt>
      <trkpt lat="42.50855" lon="-0.1608">
        <ele>1385.6</ele>
        <time>2017-08-13T09:32:42Z</time>
      </trkpt>
      <trkpt lat="42.50858" lon="-0.16077">
        <ele>1385.7</ele>
        <time>2017-08-13T09:32:43Z</time>
      </trkpt>
      <trkpt lat="42.50861" lon="-0.16074">
        <ele>1385.3</ele>
        <time>2017-08-13T09:32:45Z</time>
      </trkpt>
      <trkpt lat="42.50864" lon="-0.16071">
        <ele>1384.5</ele>
        <time>2017-08-13T09:32:48Z</time>
      </trkpt>
      <trkpt lat="42.50868" lon="-0.16066">
        <ele>1383.6</ele>
        <time>2017-08-13T09:32:50Z</time>
      </trkpt>
      <trkpt lat="42.5087" lon="-0.16063">
        <ele>1382.5</ele>
        <time>2017-08-13T09:32:51Z</time>
      </trkpt>
      <trkpt lat="42.50873" lon="-0.1606">
        <ele>1384</ele>
        <time>2017-08-13T09:32:52Z</time>
      </trkpt>
      <trkpt lat="42.50876" lon="-0.16055">
        <ele>1383</ele>
        <time>2017-08-13T09:32:53Z</time>
      </trkpt>
      <trkpt lat="42.50879" lon="-0.16051">
        <ele>1381.9</ele>
        <time>2017-08-13T09:32:54Z</time>
      </trkpt>
      <trkpt lat="42.50882" lon="-0.16046">
        <ele>1380.6</ele>
        <time>2017-08-13T09:32:55Z</time>
      </trkpt>
      <trkpt lat="42.50884" lon="-0.16043">
        <ele>1379.2</ele>
        <time>2017-08-13T09:32:56Z</time>
      </trkpt>
      <trkpt lat="42.50886" lon="-0.16039">
        <ele>1376.8</ele>
        <time>2017-08-13T09:32:57Z</time>
      </trkpt>
      <trkpt lat="42.50888" lon="-0.16036">
        <ele>1375.6</ele>
        <time>2017-08-13T09:32:58Z</time>
      </trkpt>
      <trkpt lat="42.50891" lon="-0.16033">
        <ele>1374.3</ele>
        <time>2017-08-13T09:32:59Z</time>
      </trkpt>
      <trkpt lat="42.50894" lon="-0.1603">
        <ele>1375.1</ele>
        <time>2017-08-13T09:33:00Z</time>
      </trkpt>
      <trkpt lat="42.50897" lon="-0.16026">
        <ele>1374.3</ele>
        <time>2017-08-13T09:33:01Z</time>
      </trkpt>
      <trkpt lat="42.50899" lon="-0.16023">
        <ele>1372.7</ele>
        <time>2017-08-13T09:33:02Z</time>
      </trkpt>
      <trkpt lat="42.50901" lon="-0.1602">
        <ele>1372</ele>
        <time>2017-08-13T09:33:03Z</time>
      </trkpt>
      <trkpt lat="42.50903" lon="-0.16016">
        <ele>1371.8</ele>
        <time>2017-08-13T09:33:04Z</time>
      </trkpt>
      <trkpt lat="42.50904" lon="-0.16012">
        <ele>1371.8</ele>
        <time>2017-08-13T09:33:05Z</time>
      </trkpt>
      <trkpt lat="42.50905" lon="-0.16008">
        <ele>1370.6</ele>
        <time>2017-08-13T09:33:06Z</time>
      </trkpt>
      <trkpt lat="42.50907" lon="-0.16004">
        <ele>1371</ele>
        <time>2017-08-13T09:33:07Z</time>
      </trkpt>
      <trkpt lat="42.50909" lon="-0.15999">
        <ele>1371.8</ele>
        <time>2017-08-13T09:33:09Z</time>
      </trkpt>
      <trkpt lat="42.50911" lon="-0.15996">
        <ele>1371</ele>
        <time>2017-08-13T09:33:10Z</time>
      </trkpt>
      <trkpt lat="42.50913" lon="-0.15993">
        <ele>1371.2</ele>
        <time>2017-08-13T09:33:11Z</time>
      </trkpt>
      <trkpt lat="42.50915" lon="-0.1599">
        <ele>1369.5</ele>
        <time>2017-08-13T09:33:12Z</time>
      </trkpt>
      <trkpt lat="42.50917" lon="-0.15987">
        <ele>1371.2</ele>
        <time>2017-08-13T09:33:13Z</time>
      </trkpt>
      <trkpt lat="42.50919" lon="-0.15984">
        <ele>1370.8</ele>
        <time>2017-08-13T09:33:14Z</time>
      </trkpt>
      <trkpt lat="42.50922" lon="-0.15981">
        <ele>1370.6</ele>
        <time>2017-08-13T09:33:15Z</time>
      </trkpt>
      <trkpt lat="42.50925" lon="-0.15979">
        <ele>1370.6</ele>
        <time>2017-08-13T09:33:17Z</time>
      </trkpt>
      <trkpt lat="42.50927" lon="-0.1598">
        <ele>1372.6</ele>
        <time>2017-08-13T09:33:25Z</time>
      </trkpt>
      <trkpt lat="42.5093" lon="-0.15978">
        <ele>1374.7</ele>
        <time>2017-08-13T09:33:51Z</time>
      </trkpt>
      <trkpt lat="42.50934" lon="-0.15975">
        <ele>1374.9</ele>
        <time>2017-08-13T09:33:53Z</time>
      </trkpt>
      <trkpt lat="42.50937" lon="-0.15971">
        <ele>1375.2</ele>
        <time>2017-08-13T09:33:55Z</time>
      </trkpt>
      <trkpt lat="42.5094" lon="-0.15967">
        <ele>1375.3</ele>
        <time>2017-08-13T09:33:57Z</time>
      </trkpt>
      <trkpt lat="42.50942" lon="-0.15962">
        <ele>1375.1</ele>
        <time>2017-08-13T09:33:59Z</time>
      </trkpt>
      <trkpt lat="42.50944" lon="-0.15956">
        <ele>1371.1</ele>
        <time>2017-08-13T09:34:01Z</time>
      </trkpt>
      <trkpt lat="42.50945" lon="-0.15952">
        <ele>1372.8</ele>
        <time>2017-08-13T09:34:02Z</time>
      </trkpt>
      <trkpt lat="42.50946" lon="-0.15947">
        <ele>1369.7</ele>
        <time>2017-08-13T09:34:04Z</time>
      </trkpt>
      <trkpt lat="42.50946" lon="-0.15942">
        <ele>1368.6</ele>
        <time>2017-08-13T09:34:06Z</time>
      </trkpt>
      <trkpt lat="42.50944" lon="-0.15938">
        <ele>1365.9</ele>
        <time>2017-08-13T09:34:08Z</time>
      </trkpt>
      <trkpt lat="42.50941" lon="-0.15936">
        <ele>1365.9</ele>
        <time>2017-08-13T09:34:12Z</time>
      </trkpt>
      <trkpt lat="42.50939" lon="-0.15933">
        <ele>1363.2</ele>
        <time>2017-08-13T09:34:17Z</time>
      </trkpt>
      <trkpt lat="42.50937" lon="-0.15929">
        <ele>1360.4</ele>
        <time>2017-08-13T09:34:19Z</time>
      </trkpt>
      <trkpt lat="42.50936" lon="-0.15925">
        <ele>1359.8</ele>
        <time>2017-08-13T09:34:20Z</time>
      </trkpt>
      <trkpt lat="42.50935" lon="-0.15921">
        <ele>1359.3</ele>
        <time>2017-08-13T09:34:21Z</time>
      </trkpt>
      <trkpt lat="42.50934" lon="-0.15917">
        <ele>1356.5</ele>
        <time>2017-08-13T09:34:22Z</time>
      </trkpt>
      <trkpt lat="42.50933" lon="-0.15914">
        <ele>1356.5</ele>
        <time>2017-08-13T09:34:23Z</time>
      </trkpt>
      <trkpt lat="42.50931" lon="-0.15908">
        <ele>1353</ele>
        <time>2017-08-13T09:34:25Z</time>
      </trkpt>
      <trkpt lat="42.50928" lon="-0.15902">
        <ele>1352.5</ele>
        <time>2017-08-13T09:34:27Z</time>
      </trkpt>
      <trkpt lat="42.50927" lon="-0.15896">
        <ele>1349.8</ele>
        <time>2017-08-13T09:34:29Z</time>
      </trkpt>
      <trkpt lat="42.50926" lon="-0.15891">
        <ele>1349.8</ele>
        <time>2017-08-13T09:34:31Z</time>
      </trkpt>
      <trkpt lat="42.50925" lon="-0.15886">
        <ele>1350.1</ele>
        <time>2017-08-13T09:34:33Z</time>
      </trkpt>
      <trkpt lat="42.50925" lon="-0.15882">
        <ele>1347.8</ele>
        <time>2017-08-13T09:34:34Z</time>
      </trkpt>
      <trkpt lat="42.50924" lon="-0.15876">
        <ele>1348</ele>
        <time>2017-08-13T09:34:36Z</time>
      </trkpt>
      <trkpt lat="42.50922" lon="-0.15869">
        <ele>1348.6</ele>
        <time>2017-08-13T09:34:38Z</time>
      </trkpt>
      <trkpt lat="42.50921" lon="-0.15863">
        <ele>1346.3</ele>
        <time>2017-08-13T09:34:40Z</time>
      </trkpt>
      <trkpt lat="42.5092" lon="-0.1586">
        <ele>1346.8</ele>
        <time>2017-08-13T09:34:41Z</time>
      </trkpt>
      <trkpt lat="42.50919" lon="-0.15856">
        <ele>1347.4</ele>
        <time>2017-08-13T09:34:42Z</time>
      </trkpt>
      <trkpt lat="42.50918" lon="-0.15852">
        <ele>1345.6</ele>
        <time>2017-08-13T09:34:43Z</time>
      </trkpt>
      <trkpt lat="42.50917" lon="-0.15849">
        <ele>1346</ele>
        <time>2017-08-13T09:34:44Z</time>
      </trkpt>
      <trkpt lat="42.50916" lon="-0.15845">
        <ele>1346</ele>
        <time>2017-08-13T09:34:45Z</time>
      </trkpt>
      <trkpt lat="42.50915" lon="-0.15842">
        <ele>1344.4</ele>
        <time>2017-08-13T09:34:46Z</time>
      </trkpt>
      <trkpt lat="42.50914" lon="-0.15836">
        <ele>1344.6</ele>
        <time>2017-08-13T09:34:48Z</time>
      </trkpt>
      <trkpt lat="42.50915" lon="-0.15829">
        <ele>1344.1</ele>
        <time>2017-08-13T09:34:50Z</time>
      </trkpt>
      <trkpt lat="42.50916" lon="-0.15825">
        <ele>1344.8</ele>
        <time>2017-08-13T09:34:51Z</time>
      </trkpt>
      <trkpt lat="42.50918" lon="-0.15822">
        <ele>1343.6</ele>
        <time>2017-08-13T09:34:52Z</time>
      </trkpt>
      <trkpt lat="42.5092" lon="-0.15818">
        <ele>1343.5</ele>
        <time>2017-08-13T09:34:53Z</time>
      </trkpt>
      <trkpt lat="42.50923" lon="-0.15814">
        <ele>1343.5</ele>
        <time>2017-08-13T09:34:54Z</time>
      </trkpt>
      <trkpt lat="42.50926" lon="-0.1581">
        <ele>1343.8</ele>
        <time>2017-08-13T09:34:55Z</time>
      </trkpt>
      <trkpt lat="42.50929" lon="-0.15806">
        <ele>1345.5</ele>
        <time>2017-08-13T09:34:56Z</time>
      </trkpt>
      <trkpt lat="42.50932" lon="-0.15802">
        <ele>1345.8</ele>
        <time>2017-08-13T09:34:57Z</time>
      </trkpt>
      <trkpt lat="42.50935" lon="-0.15798">
        <ele>1345.7</ele>
        <time>2017-08-13T09:34:58Z</time>
      </trkpt>
      <trkpt lat="42.50938" lon="-0.15794">
        <ele>1345</ele>
        <time>2017-08-13T09:34:59Z</time>
      </trkpt>
      <trkpt lat="42.5094" lon="-0.1579">
        <ele>1342.9</ele>
        <time>2017-08-13T09:35:00Z</time>
      </trkpt>
      <trkpt lat="42.50942" lon="-0.15787">
        <ele>1341.5</ele>
        <time>2017-08-13T09:35:01Z</time>
      </trkpt>
      <trkpt lat="42.50944" lon="-0.15783">
        <ele>1340.1</ele>
        <time>2017-08-13T09:35:02Z</time>
      </trkpt>
      <trkpt lat="42.50947" lon="-0.15781">
        <ele>1340.1</ele>
        <time>2017-08-13T09:35:03Z</time>
      </trkpt>
      <trkpt lat="42.5095" lon="-0.15777">
        <ele>1339.2</ele>
        <time>2017-08-13T09:35:05Z</time>
      </trkpt>
      <trkpt lat="42.50953" lon="-0.15772">
        <ele>1338.9</ele>
        <time>2017-08-13T09:35:07Z</time>
      </trkpt>
      <trkpt lat="42.50956" lon="-0.15766">
        <ele>1338.2</ele>
        <time>2017-08-13T09:35:09Z</time>
      </trkpt>
      <trkpt lat="42.50958" lon="-0.15764">
        <ele>1340.1</ele>
        <time>2017-08-13T09:35:10Z</time>
      </trkpt>
      <trkpt lat="42.5096" lon="-0.1576">
        <ele>1339.2</ele>
        <time>2017-08-13T09:35:11Z</time>
      </trkpt>
      <trkpt lat="42.50961" lon="-0.15757">
        <ele>1340.4</ele>
        <time>2017-08-13T09:35:12Z</time>
      </trkpt>
      <trkpt lat="42.50964" lon="-0.15751">
        <ele>1341.6</ele>
        <time>2017-08-13T09:35:14Z</time>
      </trkpt>
      <trkpt lat="42.50965" lon="-0.15745">
        <ele>1339.8</ele>
        <time>2017-08-13T09:35:16Z</time>
      </trkpt>
      <trkpt lat="42.50966" lon="-0.15741">
        <ele>1340.4</ele>
        <time>2017-08-13T09:35:17Z</time>
      </trkpt>
      <trkpt lat="42.50967" lon="-0.15737">
        <ele>1340.4</ele>
        <time>2017-08-13T09:35:18Z</time>
      </trkpt>
      <trkpt lat="42.50968" lon="-0.15733">
        <ele>1339.3</ele>
        <time>2017-08-13T09:35:19Z</time>
      </trkpt>
      <trkpt lat="42.50968" lon="-0.15729">
        <ele>1338.3</ele>
        <time>2017-08-13T09:35:20Z</time>
      </trkpt>
      <trkpt lat="42.5097" lon="-0.15725">
        <ele>1338.9</ele>
        <time>2017-08-13T09:35:21Z</time>
      </trkpt>
      <trkpt lat="42.50971" lon="-0.15721">
        <ele>1338.4</ele>
        <time>2017-08-13T09:35:22Z</time>
      </trkpt>
      <trkpt lat="42.50974" lon="-0.15718">
        <ele>1339.4</ele>
        <time>2017-08-13T09:35:23Z</time>
      </trkpt>
      <trkpt lat="42.50976" lon="-0.15715">
        <ele>1340.9</ele>
        <time>2017-08-13T09:35:24Z</time>
      </trkpt>
      <trkpt lat="42.50979" lon="-0.1571">
        <ele>1343</ele>
        <time>2017-08-13T09:35:26Z</time>
      </trkpt>
      <trkpt lat="42.50979" lon="-0.15705">
        <ele>1343.7</ele>
        <time>2017-08-13T09:35:28Z</time>
      </trkpt>
      <trkpt lat="42.50976" lon="-0.15701">
        <ele>1342.6</ele>
        <time>2017-08-13T09:35:30Z</time>
      </trkpt>
      <trkpt lat="42.50973" lon="-0.15698">
        <ele>1341.6</ele>
        <time>2017-08-13T09:35:32Z</time>
      </trkpt>
      <trkpt lat="42.50971" lon="-0.15695">
        <ele>1339.9</ele>
        <time>2017-08-13T09:35:35Z</time>
      </trkpt>
      <trkpt lat="42.50966" lon="-0.15693">
        <ele>1338.7</ele>
        <time>2017-08-13T09:35:49Z</time>
      </trkpt>
      <trkpt lat="42.50964" lon="-0.15691">
        <ele>1336.7</ele>
        <time>2017-08-13T09:35:50Z</time>
      </trkpt>
      <trkpt lat="42.50961" lon="-0.15689">
        <ele>1335.3</ele>
        <time>2017-08-13T09:35:51Z</time>
      </trkpt>
      <trkpt lat="42.50958" lon="-0.15686">
        <ele>1333.1</ele>
        <time>2017-08-13T09:35:52Z</time>
      </trkpt>
      <trkpt lat="42.50954" lon="-0.15683">
        <ele>1331.7</ele>
        <time>2017-08-13T09:35:53Z</time>
      </trkpt>
      <trkpt lat="42.50952" lon="-0.15679">
        <ele>1330.5</ele>
        <time>2017-08-13T09:35:54Z</time>
      </trkpt>
      <trkpt lat="42.50949" lon="-0.15676">
        <ele>1329.5</ele>
        <time>2017-08-13T09:35:55Z</time>
      </trkpt>
      <trkpt lat="42.50947" lon="-0.15672">
        <ele>1328.6</ele>
        <time>2017-08-13T09:35:56Z</time>
      </trkpt>
      <trkpt lat="42.50944" lon="-0.15667">
        <ele>1329.7</ele>
        <time>2017-08-13T09:35:57Z</time>
      </trkpt>
      <trkpt lat="42.50942" lon="-0.15663">
        <ele>1328.8</ele>
        <time>2017-08-13T09:35:58Z</time>
      </trkpt>
      <trkpt lat="42.5094" lon="-0.1566">
        <ele>1327.9</ele>
        <time>2017-08-13T09:35:59Z</time>
      </trkpt>
      <trkpt lat="42.50939" lon="-0.15656">
        <ele>1327.9</ele>
        <time>2017-08-13T09:36:00Z</time>
      </trkpt>
      <trkpt lat="42.50938" lon="-0.15653">
        <ele>1329.3</ele>
        <time>2017-08-13T09:36:01Z</time>
      </trkpt>
      <trkpt lat="42.50936" lon="-0.15649">
        <ele>1328.4</ele>
        <time>2017-08-13T09:36:02Z</time>
      </trkpt>
      <trkpt lat="42.50934" lon="-0.15645">
        <ele>1327.4</ele>
        <time>2017-08-13T09:36:03Z</time>
      </trkpt>
      <trkpt lat="42.50931" lon="-0.15641">
        <ele>1326.4</ele>
        <time>2017-08-13T09:36:04Z</time>
      </trkpt>
      <trkpt lat="42.50927" lon="-0.15638">
        <ele>1325.5</ele>
        <time>2017-08-13T09:36:05Z</time>
      </trkpt>
      <trkpt lat="42.50923" lon="-0.15635">
        <ele>1323</ele>
        <time>2017-08-13T09:36:06Z</time>
      </trkpt>
      <trkpt lat="42.5092" lon="-0.15633">
        <ele>1322.8</ele>
        <time>2017-08-13T09:36:07Z</time>
      </trkpt>
      <trkpt lat="42.50917" lon="-0.15631">
        <ele>1320.9</ele>
        <time>2017-08-13T09:36:08Z</time>
      </trkpt>
      <trkpt lat="42.50915" lon="-0.15629">
        <ele>1321.4</ele>
        <time>2017-08-13T09:36:09Z</time>
      </trkpt>
      <trkpt lat="42.50912" lon="-0.15627">
        <ele>1319.5</ele>
        <time>2017-08-13T09:36:10Z</time>
      </trkpt>
      <trkpt lat="42.50909" lon="-0.15625">
        <ele>1320.2</ele>
        <time>2017-08-13T09:36:11Z</time>
      </trkpt>
      <trkpt lat="42.50906" lon="-0.15623">
        <ele>1318.4</ele>
        <time>2017-08-13T09:36:12Z</time>
      </trkpt>
      <trkpt lat="42.50903" lon="-0.15622">
        <ele>1318.4</ele>
        <time>2017-08-13T09:36:13Z</time>
      </trkpt>
      <trkpt lat="42.509" lon="-0.15621">
        <ele>1319.2</ele>
        <time>2017-08-13T09:36:14Z</time>
      </trkpt>
      <trkpt lat="42.50895" lon="-0.15619">
        <ele>1316.5</ele>
        <time>2017-08-13T09:36:16Z</time>
      </trkpt>
      <trkpt lat="42.50892" lon="-0.15617">
        <ele>1315.7</ele>
        <time>2017-08-13T09:36:17Z</time>
      </trkpt>
      <trkpt lat="42.50889" lon="-0.15616">
        <ele>1317.1</ele>
        <time>2017-08-13T09:36:18Z</time>
      </trkpt>
      <trkpt lat="42.50886" lon="-0.15613">
        <ele>1316.6</ele>
        <time>2017-08-13T09:36:19Z</time>
      </trkpt>
      <trkpt lat="42.50883" lon="-0.1561">
        <ele>1318.1</ele>
        <time>2017-08-13T09:36:20Z</time>
      </trkpt>
      <trkpt lat="42.50881" lon="-0.15607">
        <ele>1320.4</ele>
        <time>2017-08-13T09:36:21Z</time>
      </trkpt>
      <trkpt lat="42.50879" lon="-0.15605">
        <ele>1319.8</ele>
        <time>2017-08-13T09:36:22Z</time>
      </trkpt>
      <trkpt lat="42.50875" lon="-0.156">
        <ele>1321.8</ele>
        <time>2017-08-13T09:36:24Z</time>
      </trkpt>
      <trkpt lat="42.50872" lon="-0.15597">
        <ele>1323.9</ele>
        <time>2017-08-13T09:36:25Z</time>
      </trkpt>
      <trkpt lat="42.50869" lon="-0.15595">
        <ele>1325.9</ele>
        <time>2017-08-13T09:36:26Z</time>
      </trkpt>
      <trkpt lat="42.50866" lon="-0.15593">
        <ele>1325.3</ele>
        <time>2017-08-13T09:36:27Z</time>
      </trkpt>
      <trkpt lat="42.50862" lon="-0.1559">
        <ele>1326.9</ele>
        <time>2017-08-13T09:36:28Z</time>
      </trkpt>
      <trkpt lat="42.50859" lon="-0.15588">
        <ele>1326.3</ele>
        <time>2017-08-13T09:36:29Z</time>
      </trkpt>
      <trkpt lat="42.50856" lon="-0.15586">
        <ele>1327.3</ele>
        <time>2017-08-13T09:36:30Z</time>
      </trkpt>
      <trkpt lat="42.50853" lon="-0.15584">
        <ele>1326.2</ele>
        <time>2017-08-13T09:36:31Z</time>
      </trkpt>
      <trkpt lat="42.50851" lon="-0.15582">
        <ele>1326.5</ele>
        <time>2017-08-13T09:36:32Z</time>
      </trkpt>
      <trkpt lat="42.50848" lon="-0.1558">
        <ele>1325</ele>
        <time>2017-08-13T09:36:33Z</time>
      </trkpt>
      <trkpt lat="42.50846" lon="-0.15577">
        <ele>1325.1</ele>
        <time>2017-08-13T09:36:34Z</time>
      </trkpt>
      <trkpt lat="42.50844" lon="-0.15574">
        <ele>1326.8</ele>
        <time>2017-08-13T09:36:35Z</time>
      </trkpt>
      <trkpt lat="42.5084" lon="-0.15569">
        <ele>1326.9</ele>
        <time>2017-08-13T09:36:37Z</time>
      </trkpt>
      <trkpt lat="42.50835" lon="-0.15566">
        <ele>1324</ele>
        <time>2017-08-13T09:36:39Z</time>
      </trkpt>
      <trkpt lat="42.50832" lon="-0.15565">
        <ele>1324.2</ele>
        <time>2017-08-13T09:36:40Z</time>
      </trkpt>
      <trkpt lat="42.50829" lon="-0.15564">
        <ele>1322.9</ele>
        <time>2017-08-13T09:36:41Z</time>
      </trkpt>
      <trkpt lat="42.50826" lon="-0.15563">
        <ele>1321.6</ele>
        <time>2017-08-13T09:36:42Z</time>
      </trkpt>
      <trkpt lat="42.50822" lon="-0.15561">
        <ele>1321.5</ele>
        <time>2017-08-13T09:36:43Z</time>
      </trkpt>
      <trkpt lat="42.50818" lon="-0.15559">
        <ele>1320.1</ele>
        <time>2017-08-13T09:36:44Z</time>
      </trkpt>
      <trkpt lat="42.50815" lon="-0.15557">
        <ele>1320</ele>
        <time>2017-08-13T09:36:45Z</time>
      </trkpt>
      <trkpt lat="42.50812" lon="-0.15555">
        <ele>1318.8</ele>
        <time>2017-08-13T09:36:46Z</time>
      </trkpt>
      <trkpt lat="42.50808" lon="-0.15553">
        <ele>1317.6</ele>
        <time>2017-08-13T09:36:47Z</time>
      </trkpt>
      <trkpt lat="42.50805" lon="-0.15551">
        <ele>1317.8</ele>
        <time>2017-08-13T09:36:48Z</time>
      </trkpt>
      <trkpt lat="42.50802" lon="-0.15549">
        <ele>1316.8</ele>
        <time>2017-08-13T09:36:49Z</time>
      </trkpt>
      <trkpt lat="42.508" lon="-0.15547">
        <ele>1317.1</ele>
        <time>2017-08-13T09:36:50Z</time>
      </trkpt>
      <trkpt lat="42.50797" lon="-0.15545">
        <ele>1315.8</ele>
        <time>2017-08-13T09:36:51Z</time>
      </trkpt>
      <trkpt lat="42.50795" lon="-0.15543">
        <ele>1316</ele>
        <time>2017-08-13T09:36:52Z</time>
      </trkpt>
      <trkpt lat="42.50792" lon="-0.1554">
        <ele>1316</ele>
        <time>2017-08-13T09:36:53Z</time>
      </trkpt>
      <trkpt lat="42.50789" lon="-0.15537">
        <ele>1316.1</ele>
        <time>2017-08-13T09:36:54Z</time>
      </trkpt>
      <trkpt lat="42.50787" lon="-0.15534">
        <ele>1316.2</ele>
        <time>2017-08-13T09:36:55Z</time>
      </trkpt>
      <trkpt lat="42.50783" lon="-0.15531">
        <ele>1314.8</ele>
        <time>2017-08-13T09:36:56Z</time>
      </trkpt>
      <trkpt lat="42.5078" lon="-0.15529">
        <ele>1314.8</ele>
        <time>2017-08-13T09:36:57Z</time>
      </trkpt>
      <trkpt lat="42.50776" lon="-0.15525">
        <ele>1313.6</ele>
        <time>2017-08-13T09:36:58Z</time>
      </trkpt>
      <trkpt lat="42.50773" lon="-0.15522">
        <ele>1313.5</ele>
        <time>2017-08-13T09:36:59Z</time>
      </trkpt>
      <trkpt lat="42.5077" lon="-0.15519">
        <ele>1312.2</ele>
        <time>2017-08-13T09:37:00Z</time>
      </trkpt>
      <trkpt lat="42.50767" lon="-0.15516">
        <ele>1311.9</ele>
        <time>2017-08-13T09:37:01Z</time>
      </trkpt>
      <trkpt lat="42.50764" lon="-0.15512">
        <ele>1312.7</ele>
        <time>2017-08-13T09:37:02Z</time>
      </trkpt>
      <trkpt lat="42.50761" lon="-0.15508">
        <ele>1312.2</ele>
        <time>2017-08-13T09:37:03Z</time>
      </trkpt>
      <trkpt lat="42.50759" lon="-0.15504">
        <ele>1311.5</ele>
        <time>2017-08-13T09:37:04Z</time>
      </trkpt>
      <trkpt lat="42.50757" lon="-0.155">
        <ele>1312</ele>
        <time>2017-08-13T09:37:05Z</time>
      </trkpt>
      <trkpt lat="42.50756" lon="-0.15495">
        <ele>1311.1</ele>
        <time>2017-08-13T09:37:06Z</time>
      </trkpt>
      <trkpt lat="42.50756" lon="-0.15491">
        <ele>1311.4</ele>
        <time>2017-08-13T09:37:07Z</time>
      </trkpt>
      <trkpt lat="42.50756" lon="-0.15487">
        <ele>1311.7</ele>
        <time>2017-08-13T09:37:08Z</time>
      </trkpt>
      <trkpt lat="42.50757" lon="-0.15482">
        <ele>1311.7</ele>
        <time>2017-08-13T09:37:09Z</time>
      </trkpt>
      <trkpt lat="42.50758" lon="-0.15478">
        <ele>1313.4</ele>
        <time>2017-08-13T09:37:10Z</time>
      </trkpt>
      <trkpt lat="42.50759" lon="-0.15474">
        <ele>1313.1</ele>
        <time>2017-08-13T09:37:11Z</time>
      </trkpt>
      <trkpt lat="42.5076" lon="-0.1547">
        <ele>1312.7</ele>
        <time>2017-08-13T09:37:12Z</time>
      </trkpt>
      <trkpt lat="42.50761" lon="-0.15467">
        <ele>1314.7</ele>
        <time>2017-08-13T09:37:14Z</time>
      </trkpt>
      <trkpt lat="42.50763" lon="-0.15464">
        <ele>1314.1</ele>
        <time>2017-08-13T09:37:17Z</time>
      </trkpt>
      <trkpt lat="42.50765" lon="-0.1546">
        <ele>1315.2</ele>
        <time>2017-08-13T09:37:19Z</time>
      </trkpt>
      <trkpt lat="42.50767" lon="-0.15454">
        <ele>1315.7</ele>
        <time>2017-08-13T09:37:21Z</time>
      </trkpt>
      <trkpt lat="42.50768" lon="-0.15448">
        <ele>1312.5</ele>
        <time>2017-08-13T09:37:23Z</time>
      </trkpt>
      <trkpt lat="42.5077" lon="-0.15442">
        <ele>1312.2</ele>
        <time>2017-08-13T09:37:25Z</time>
      </trkpt>
      <trkpt lat="42.50772" lon="-0.15435">
        <ele>1308.2</ele>
        <time>2017-08-13T09:37:27Z</time>
      </trkpt>
      <trkpt lat="42.50774" lon="-0.15431">
        <ele>1307.6</ele>
        <time>2017-08-13T09:37:28Z</time>
      </trkpt>
      <trkpt lat="42.50776" lon="-0.15428">
        <ele>1305.8</ele>
        <time>2017-08-13T09:37:29Z</time>
      </trkpt>
      <trkpt lat="42.50778" lon="-0.15423">
        <ele>1305.4</ele>
        <time>2017-08-13T09:37:31Z</time>
      </trkpt>
      <trkpt lat="42.5078" lon="-0.15418">
        <ele>1305.3</ele>
        <time>2017-08-13T09:37:34Z</time>
      </trkpt>
      <trkpt lat="42.50781" lon="-0.15412">
        <ele>1304.3</ele>
        <time>2017-08-13T09:37:36Z</time>
      </trkpt>
      <trkpt lat="42.50782" lon="-0.15407">
        <ele>1303.6</ele>
        <time>2017-08-13T09:37:37Z</time>
      </trkpt>
      <trkpt lat="42.50783" lon="-0.15403">
        <ele>1304.6</ele>
        <time>2017-08-13T09:37:38Z</time>
      </trkpt>
      <trkpt lat="42.50784" lon="-0.154">
        <ele>1304.4</ele>
        <time>2017-08-13T09:37:39Z</time>
      </trkpt>
      <trkpt lat="42.50787" lon="-0.15394">
        <ele>1306.2</ele>
        <time>2017-08-13T09:37:41Z</time>
      </trkpt>
      <trkpt lat="42.50789" lon="-0.15391">
        <ele>1306.5</ele>
        <time>2017-08-13T09:37:42Z</time>
      </trkpt>
      <trkpt lat="42.5079" lon="-0.15385">
        <ele>1309</ele>
        <time>2017-08-13T09:37:44Z</time>
      </trkpt>
      <trkpt lat="42.5079" lon="-0.15378">
        <ele>1309.2</ele>
        <time>2017-08-13T09:37:46Z</time>
      </trkpt>
      <trkpt lat="42.5079" lon="-0.15371">
        <ele>1309.4</ele>
        <time>2017-08-13T09:37:48Z</time>
      </trkpt>
      <trkpt lat="42.5079" lon="-0.15367">
        <ele>1309.3</ele>
        <time>2017-08-13T09:37:49Z</time>
      </trkpt>
      <trkpt lat="42.5079" lon="-0.15363">
        <ele>1309.1</ele>
        <time>2017-08-13T09:37:50Z</time>
      </trkpt>
      <trkpt lat="42.5079" lon="-0.15359">
        <ele>1308.8</ele>
        <time>2017-08-13T09:37:51Z</time>
      </trkpt>
      <trkpt lat="42.50789" lon="-0.15353">
        <ele>1308.4</ele>
        <time>2017-08-13T09:37:53Z</time>
      </trkpt>
      <trkpt lat="42.50786" lon="-0.15351">
        <ele>1307</ele>
        <time>2017-08-13T09:38:00Z</time>
      </trkpt>
      <trkpt lat="42.50785" lon="-0.15347">
        <ele>1305.3</ele>
        <time>2017-08-13T09:38:03Z</time>
      </trkpt>
      <trkpt lat="42.50782" lon="-0.15344">
        <ele>1303.7</ele>
        <time>2017-08-13T09:38:07Z</time>
      </trkpt>
      <trkpt lat="42.50779" lon="-0.15343">
        <ele>1302.7</ele>
        <time>2017-08-13T09:38:10Z</time>
      </trkpt>
      <trkpt lat="42.50776" lon="-0.15341">
        <ele>1302.4</ele>
        <time>2017-08-13T09:38:12Z</time>
      </trkpt>
      <trkpt lat="42.50775" lon="-0.15337">
        <ele>1301.1</ele>
        <time>2017-08-13T09:38:13Z</time>
      </trkpt>
      <trkpt lat="42.50773" lon="-0.15334">
        <ele>1301.1</ele>
        <time>2017-08-13T09:38:14Z</time>
      </trkpt>
      <trkpt lat="42.50772" lon="-0.1533">
        <ele>1299.9</ele>
        <time>2017-08-13T09:38:15Z</time>
      </trkpt>
      <trkpt lat="42.5077" lon="-0.15325">
        <ele>1299.4</ele>
        <time>2017-08-13T09:38:17Z</time>
      </trkpt>
      <trkpt lat="42.50768" lon="-0.15322">
        <ele>1299.4</ele>
        <time>2017-08-13T09:38:19Z</time>
      </trkpt>
      <trkpt lat="42.50765" lon="-0.1532">
        <ele>1299.1</ele>
        <time>2017-08-13T09:38:21Z</time>
      </trkpt>
      <trkpt lat="42.50762" lon="-0.15317">
        <ele>1298.1</ele>
        <time>2017-08-13T09:38:23Z</time>
      </trkpt>
      <trkpt lat="42.50758" lon="-0.15315">
        <ele>1298.1</ele>
        <time>2017-08-13T09:38:25Z</time>
      </trkpt>
      <trkpt lat="42.50754" lon="-0.15312">
        <ele>1297.2</ele>
        <time>2017-08-13T09:38:27Z</time>
      </trkpt>
      <trkpt lat="42.5075" lon="-0.15309">
        <ele>1296.7</ele>
        <time>2017-08-13T09:38:29Z</time>
      </trkpt>
      <trkpt lat="42.50746" lon="-0.15306">
        <ele>1296.8</ele>
        <time>2017-08-13T09:38:31Z</time>
      </trkpt>
      <trkpt lat="42.50742" lon="-0.15303">
        <ele>1296.9</ele>
        <time>2017-08-13T09:38:33Z</time>
      </trkpt>
      <trkpt lat="42.50739" lon="-0.153">
        <ele>1295.5</ele>
        <time>2017-08-13T09:38:35Z</time>
      </trkpt>
      <trkpt lat="42.50735" lon="-0.15296">
        <ele>1294.1</ele>
        <time>2017-08-13T09:38:37Z</time>
      </trkpt>
      <trkpt lat="42.50732" lon="-0.15294">
        <ele>1296</ele>
        <time>2017-08-13T09:38:38Z</time>
      </trkpt>
      <trkpt lat="42.50728" lon="-0.15292">
        <ele>1292.9</ele>
        <time>2017-08-13T09:38:40Z</time>
      </trkpt>
      <trkpt lat="42.50724" lon="-0.1529">
        <ele>1293.5</ele>
        <time>2017-08-13T09:38:42Z</time>
      </trkpt>
      <trkpt lat="42.50721" lon="-0.15288">
        <ele>1292</ele>
        <time>2017-08-13T09:38:44Z</time>
      </trkpt>
      <trkpt lat="42.50718" lon="-0.15282">
        <ele>1294.3</ele>
        <time>2017-08-13T09:39:47Z</time>
      </trkpt>
      <trkpt lat="42.50715" lon="-0.1528">
        <ele>1292.2</ele>
        <time>2017-08-13T09:39:49Z</time>
      </trkpt>
      <trkpt lat="42.50711" lon="-0.15276">
        <ele>1291.8</ele>
        <time>2017-08-13T09:39:51Z</time>
      </trkpt>
      <trkpt lat="42.50707" lon="-0.15272">
        <ele>1291.7</ele>
        <time>2017-08-13T09:39:53Z</time>
      </trkpt>
      <trkpt lat="42.50703" lon="-0.15268">
        <ele>1289.8</ele>
        <time>2017-08-13T09:39:55Z</time>
      </trkpt>
      <trkpt lat="42.507" lon="-0.15264">
        <ele>1290.6</ele>
        <time>2017-08-13T09:39:57Z</time>
      </trkpt>
      <trkpt lat="42.50697" lon="-0.15258">
        <ele>1291.6</ele>
        <time>2017-08-13T09:39:59Z</time>
      </trkpt>
      <trkpt lat="42.50692" lon="-0.15254">
        <ele>1292.5</ele>
        <time>2017-08-13T09:40:01Z</time>
      </trkpt>
      <trkpt lat="42.5069" lon="-0.15253">
        <ele>1290.7</ele>
        <time>2017-08-13T09:40:02Z</time>
      </trkpt>
      <trkpt lat="42.50686" lon="-0.15249">
        <ele>1291.1</ele>
        <time>2017-08-13T09:40:04Z</time>
      </trkpt>
      <trkpt lat="42.50683" lon="-0.15245">
        <ele>1291.3</ele>
        <time>2017-08-13T09:40:06Z</time>
      </trkpt>
      <trkpt lat="42.50679" lon="-0.15241">
        <ele>1291.8</ele>
        <time>2017-08-13T09:40:08Z</time>
      </trkpt>
      <trkpt lat="42.50677" lon="-0.15239">
        <ele>1292.7</ele>
        <time>2017-08-13T09:40:09Z</time>
      </trkpt>
      <trkpt lat="42.50674" lon="-0.15236">
        <ele>1290.9</ele>
        <time>2017-08-13T09:40:10Z</time>
      </trkpt>
      <trkpt lat="42.50671" lon="-0.15234">
        <ele>1292.4</ele>
        <time>2017-08-13T09:40:11Z</time>
      </trkpt>
      <trkpt lat="42.50668" lon="-0.15231">
        <ele>1291</ele>
        <time>2017-08-13T09:40:12Z</time>
      </trkpt>
      <trkpt lat="42.50666" lon="-0.15229">
        <ele>1294</ele>
        <time>2017-08-13T09:40:13Z</time>
      </trkpt>
      <trkpt lat="42.50663" lon="-0.15226">
        <ele>1295.5</ele>
        <time>2017-08-13T09:40:14Z</time>
      </trkpt>
      <trkpt lat="42.50661" lon="-0.15224">
        <ele>1294</ele>
        <time>2017-08-13T09:40:15Z</time>
      </trkpt>
      <trkpt lat="42.50658" lon="-0.15222">
        <ele>1292.6</ele>
        <time>2017-08-13T09:40:16Z</time>
      </trkpt>
      <trkpt lat="42.50656" lon="-0.15221">
        <ele>1293.6</ele>
        <time>2017-08-13T09:40:17Z</time>
      </trkpt>
      <trkpt lat="42.50653" lon="-0.15218">
        <ele>1293.6</ele>
        <time>2017-08-13T09:40:18Z</time>
      </trkpt>
      <trkpt lat="42.50651" lon="-0.15216">
        <ele>1294.8</ele>
        <time>2017-08-13T09:40:19Z</time>
      </trkpt>
      <trkpt lat="42.50648" lon="-0.15214">
        <ele>1293.3</ele>
        <time>2017-08-13T09:40:20Z</time>
      </trkpt>
      <trkpt lat="42.50645" lon="-0.15212">
        <ele>1294.8</ele>
        <time>2017-08-13T09:40:21Z</time>
      </trkpt>
      <trkpt lat="42.50642" lon="-0.1521">
        <ele>1293.7</ele>
        <time>2017-08-13T09:40:22Z</time>
      </trkpt>
      <trkpt lat="42.5064" lon="-0.15208">
        <ele>1295.5</ele>
        <time>2017-08-13T09:40:23Z</time>
      </trkpt>
      <trkpt lat="42.50637" lon="-0.15206">
        <ele>1295.5</ele>
        <time>2017-08-13T09:40:24Z</time>
      </trkpt>
      <trkpt lat="42.50635" lon="-0.15204">
        <ele>1297.3</ele>
        <time>2017-08-13T09:40:25Z</time>
      </trkpt>
      <trkpt lat="42.50633" lon="-0.15202">
        <ele>1296.3</ele>
        <time>2017-08-13T09:40:26Z</time>
      </trkpt>
      <trkpt lat="42.5063" lon="-0.152">
        <ele>1297.5</ele>
        <time>2017-08-13T09:40:27Z</time>
      </trkpt>
      <trkpt lat="42.50628" lon="-0.15198">
        <ele>1297.5</ele>
        <time>2017-08-13T09:40:28Z</time>
      </trkpt>
      <trkpt lat="42.50625" lon="-0.15196">
        <ele>1298.3</ele>
        <time>2017-08-13T09:40:29Z</time>
      </trkpt>
      <trkpt lat="42.50621" lon="-0.15193">
        <ele>1295.9</ele>
        <time>2017-08-13T09:40:31Z</time>
      </trkpt>
      <trkpt lat="42.50617" lon="-0.15189">
        <ele>1296.6</ele>
        <time>2017-08-13T09:40:33Z</time>
      </trkpt>
      <trkpt lat="42.50614" lon="-0.15187">
        <ele>1297.6</ele>
        <time>2017-08-13T09:40:35Z</time>
      </trkpt>
      <trkpt lat="42.50612" lon="-0.15185">
        <ele>1297.6</ele>
        <time>2017-08-13T09:40:37Z</time>
      </trkpt>
      <trkpt lat="42.5061" lon="-0.15182">
        <ele>1298.7</ele>
        <time>2017-08-13T09:40:40Z</time>
      </trkpt>
      <trkpt lat="42.50608" lon="-0.15179">
        <ele>1299.7</ele>
        <time>2017-08-13T09:40:43Z</time>
      </trkpt>
      <trkpt lat="42.50604" lon="-0.15176">
        <ele>1298.3</ele>
        <time>2017-08-13T09:40:45Z</time>
      </trkpt>
      <trkpt lat="42.50601" lon="-0.15172">
        <ele>1298.8</ele>
        <time>2017-08-13T09:40:47Z</time>
      </trkpt>
      <trkpt lat="42.50598" lon="-0.15169">
        <ele>1299</ele>
        <time>2017-08-13T09:40:49Z</time>
      </trkpt>
      <trkpt lat="42.50595" lon="-0.15167">
        <ele>1297.2</ele>
        <time>2017-08-13T09:40:51Z</time>
      </trkpt>
      <trkpt lat="42.50593" lon="-0.15164">
        <ele>1297.2</ele>
        <time>2017-08-13T09:40:53Z</time>
      </trkpt>
      <trkpt lat="42.5059" lon="-0.1516">
        <ele>1299.2</ele>
        <time>2017-08-13T09:40:55Z</time>
      </trkpt>
      <trkpt lat="42.50586" lon="-0.15156">
        <ele>1299.7</ele>
        <time>2017-08-13T09:40:57Z</time>
      </trkpt>
      <trkpt lat="42.50583" lon="-0.15151">
        <ele>1300.3</ele>
        <time>2017-08-13T09:40:59Z</time>
      </trkpt>
      <trkpt lat="42.50581" lon="-0.15146">
        <ele>1300.8</ele>
        <time>2017-08-13T09:41:01Z</time>
      </trkpt>
      <trkpt lat="42.50578" lon="-0.15141">
        <ele>1300.9</ele>
        <time>2017-08-13T09:41:03Z</time>
      </trkpt>
      <trkpt lat="42.50577" lon="-0.15136">
        <ele>1301.9</ele>
        <time>2017-08-13T09:41:05Z</time>
      </trkpt>
      <trkpt lat="42.50575" lon="-0.15129">
        <ele>1303.3</ele>
        <time>2017-08-13T09:41:07Z</time>
      </trkpt>
      <trkpt lat="42.50574" lon="-0.15125">
        <ele>1304.5</ele>
        <time>2017-08-13T09:41:08Z</time>
      </trkpt>
      <trkpt lat="42.50572" lon="-0.15119">
        <ele>1304.3</ele>
        <time>2017-08-13T09:41:10Z</time>
      </trkpt>
      <trkpt lat="42.50571" lon="-0.15115">
        <ele>1305.1</ele>
        <time>2017-08-13T09:41:11Z</time>
      </trkpt>
      <trkpt lat="42.5057" lon="-0.15111">
        <ele>1302.7</ele>
        <time>2017-08-13T09:41:12Z</time>
      </trkpt>
      <trkpt lat="42.5057" lon="-0.15106">
        <ele>1303.3</ele>
        <time>2017-08-13T09:41:13Z</time>
      </trkpt>
      <trkpt lat="42.5057" lon="-0.15102">
        <ele>1303.9</ele>
        <time>2017-08-13T09:41:14Z</time>
      </trkpt>
      <trkpt lat="42.5057" lon="-0.15098">
        <ele>1304.3</ele>
        <time>2017-08-13T09:41:15Z</time>
      </trkpt>
      <trkpt lat="42.5057" lon="-0.15094">
        <ele>1304.5</ele>
        <time>2017-08-13T09:41:16Z</time>
      </trkpt>
      <trkpt lat="42.50571" lon="-0.15088">
        <ele>1306.9</ele>
        <time>2017-08-13T09:41:18Z</time>
      </trkpt>
      <trkpt lat="42.50572" lon="-0.15083">
        <ele>1307</ele>
        <time>2017-08-13T09:41:20Z</time>
      </trkpt>
      <trkpt lat="42.50572" lon="-0.15079">
        <ele>1307</ele>
        <time>2017-08-13T09:41:22Z</time>
      </trkpt>
      <trkpt lat="42.50572" lon="-0.15075">
        <ele>1306.9</ele>
        <time>2017-08-13T09:41:24Z</time>
      </trkpt>
      <trkpt lat="42.50572" lon="-0.15069">
        <ele>1306.4</ele>
        <time>2017-08-13T09:41:26Z</time>
      </trkpt>
      <trkpt lat="42.50574" lon="-0.15064">
        <ele>1308</ele>
        <time>2017-08-13T09:41:28Z</time>
      </trkpt>
      <trkpt lat="42.50576" lon="-0.15059">
        <ele>1306.7</ele>
        <time>2017-08-13T09:41:30Z</time>
      </trkpt>
      <trkpt lat="42.50578" lon="-0.15056">
        <ele>1307.4</ele>
        <time>2017-08-13T09:41:31Z</time>
      </trkpt>
      <trkpt lat="42.5058" lon="-0.15053">
        <ele>1307.5</ele>
        <time>2017-08-13T09:41:32Z</time>
      </trkpt>
      <trkpt lat="42.50583" lon="-0.15049">
        <ele>1305</ele>
        <time>2017-08-13T09:41:33Z</time>
      </trkpt>
      <trkpt lat="42.50585" lon="-0.15045">
        <ele>1304.3</ele>
        <time>2017-08-13T09:41:34Z</time>
      </trkpt>
      <trkpt lat="42.50588" lon="-0.1504">
        <ele>1303.6</ele>
        <time>2017-08-13T09:41:35Z</time>
      </trkpt>
      <trkpt lat="42.5059" lon="-0.15036">
        <ele>1303.4</ele>
        <time>2017-08-13T09:41:36Z</time>
      </trkpt>
      <trkpt lat="42.50593" lon="-0.15031">
        <ele>1300.4</ele>
        <time>2017-08-13T09:41:38Z</time>
      </trkpt>
      <trkpt lat="42.50595" lon="-0.15027">
        <ele>1300.5</ele>
        <time>2017-08-13T09:41:40Z</time>
      </trkpt>
      <trkpt lat="42.50598" lon="-0.15024">
        <ele>1300.3</ele>
        <time>2017-08-13T09:41:41Z</time>
      </trkpt>
      <trkpt lat="42.506" lon="-0.15022">
        <ele>1303</ele>
        <time>2017-08-13T09:41:42Z</time>
      </trkpt>
      <trkpt lat="42.50603" lon="-0.1502">
        <ele>1301.5</ele>
        <time>2017-08-13T09:41:43Z</time>
      </trkpt>
      <trkpt lat="42.50606" lon="-0.15017">
        <ele>1303.3</ele>
        <time>2017-08-13T09:41:44Z</time>
      </trkpt>
      <trkpt lat="42.50609" lon="-0.15015">
        <ele>1300.3</ele>
        <time>2017-08-13T09:41:46Z</time>
      </trkpt>
      <trkpt lat="42.50612" lon="-0.15013">
        <ele>1301.3</ele>
        <time>2017-08-13T09:41:48Z</time>
      </trkpt>
      <trkpt lat="42.50615" lon="-0.15011">
        <ele>1297.7</ele>
        <time>2017-08-13T09:41:56Z</time>
      </trkpt>
      <trkpt lat="42.50619" lon="-0.15008">
        <ele>1298.5</ele>
        <time>2017-08-13T09:41:58Z</time>
      </trkpt>
      <trkpt lat="42.50621" lon="-0.15006">
        <ele>1294.5</ele>
        <time>2017-08-13T09:41:59Z</time>
      </trkpt>
      <trkpt lat="42.50623" lon="-0.15003">
        <ele>1292.1</ele>
        <time>2017-08-13T09:42:00Z</time>
      </trkpt>
      <trkpt lat="42.50626" lon="-0.15">
        <ele>1293</ele>
        <time>2017-08-13T09:42:01Z</time>
      </trkpt>
      <trkpt lat="42.50629" lon="-0.14997">
        <ele>1291.3</ele>
        <time>2017-08-13T09:42:02Z</time>
      </trkpt>
      <trkpt lat="42.50631" lon="-0.14993">
        <ele>1289.7</ele>
        <time>2017-08-13T09:42:03Z</time>
      </trkpt>
      <trkpt lat="42.50634" lon="-0.14989">
        <ele>1287.9</ele>
        <time>2017-08-13T09:42:04Z</time>
      </trkpt>
      <trkpt lat="42.50637" lon="-0.14986">
        <ele>1287.9</ele>
        <time>2017-08-13T09:42:05Z</time>
      </trkpt>
      <trkpt lat="42.5064" lon="-0.14984">
        <ele>1286.1</ele>
        <time>2017-08-13T09:42:06Z</time>
      </trkpt>
      <trkpt lat="42.50644" lon="-0.14982">
        <ele>1285.4</ele>
        <time>2017-08-13T09:42:07Z</time>
      </trkpt>
      <trkpt lat="42.50648" lon="-0.1498">
        <ele>1286.6</ele>
        <time>2017-08-13T09:42:08Z</time>
      </trkpt>
      <trkpt lat="42.50652" lon="-0.14978">
        <ele>1288</ele>
        <time>2017-08-13T09:42:09Z</time>
      </trkpt>
      <trkpt lat="42.50657" lon="-0.14976">
        <ele>1288.4</ele>
        <time>2017-08-13T09:42:10Z</time>
      </trkpt>
      <trkpt lat="42.5066" lon="-0.14975">
        <ele>1289.6</ele>
        <time>2017-08-13T09:42:11Z</time>
      </trkpt>
      <trkpt lat="42.50663" lon="-0.14974">
        <ele>1290.7</ele>
        <time>2017-08-13T09:42:12Z</time>
      </trkpt>
      <trkpt lat="42.50668" lon="-0.14973">
        <ele>1291.6</ele>
        <time>2017-08-13T09:42:14Z</time>
      </trkpt>
      <trkpt lat="42.50671" lon="-0.14973">
        <ele>1290.3</ele>
        <time>2017-08-13T09:42:15Z</time>
      </trkpt>
      <trkpt lat="42.50674" lon="-0.14972">
        <ele>1291.1</ele>
        <time>2017-08-13T09:42:16Z</time>
      </trkpt>
      <trkpt lat="42.50677" lon="-0.1497">
        <ele>1291.9</ele>
        <time>2017-08-13T09:42:17Z</time>
      </trkpt>
      <trkpt lat="42.50679" lon="-0.14966">
        <ele>1290.5</ele>
        <time>2017-08-13T09:42:18Z</time>
      </trkpt>
      <trkpt lat="42.50681" lon="-0.14963">
        <ele>1288.4</ele>
        <time>2017-08-13T09:42:19Z</time>
      </trkpt>
      <trkpt lat="42.50683" lon="-0.14958">
        <ele>1286.8</ele>
        <time>2017-08-13T09:42:20Z</time>
      </trkpt>
      <trkpt lat="42.50685" lon="-0.14954">
        <ele>1285.2</ele>
        <time>2017-08-13T09:42:21Z</time>
      </trkpt>
      <trkpt lat="42.50687" lon="-0.14951">
        <ele>1283.2</ele>
        <time>2017-08-13T09:42:22Z</time>
      </trkpt>
      <trkpt lat="42.50688" lon="-0.14948">
        <ele>1283.6</ele>
        <time>2017-08-13T09:42:23Z</time>
      </trkpt>
      <trkpt lat="42.5069" lon="-0.14945">
        <ele>1282</ele>
        <time>2017-08-13T09:42:24Z</time>
      </trkpt>
      <trkpt lat="42.50692" lon="-0.14941">
        <ele>1280.7</ele>
        <time>2017-08-13T09:42:25Z</time>
      </trkpt>
      <trkpt lat="42.50693" lon="-0.14938">
        <ele>1279</ele>
        <time>2017-08-13T09:42:26Z</time>
      </trkpt>
      <trkpt lat="42.50695" lon="-0.14935">
        <ele>1277.1</ele>
        <time>2017-08-13T09:42:27Z</time>
      </trkpt>
      <trkpt lat="42.50697" lon="-0.14932">
        <ele>1277.1</ele>
        <time>2017-08-13T09:42:28Z</time>
      </trkpt>
      <trkpt lat="42.50701" lon="-0.14928">
        <ele>1275</ele>
        <time>2017-08-13T09:42:30Z</time>
      </trkpt>
      <trkpt lat="42.50705" lon="-0.14925">
        <ele>1273</ele>
        <time>2017-08-13T09:42:32Z</time>
      </trkpt>
      <trkpt lat="42.50708" lon="-0.14923">
        <ele>1273.1</ele>
        <time>2017-08-13T09:42:34Z</time>
      </trkpt>
      <trkpt lat="42.50711" lon="-0.14921">
        <ele>1271.2</ele>
        <time>2017-08-13T09:42:36Z</time>
      </trkpt>
      <trkpt lat="42.50716" lon="-0.14919">
        <ele>1271.5</ele>
        <time>2017-08-13T09:42:38Z</time>
      </trkpt>
      <trkpt lat="42.5072" lon="-0.14915">
        <ele>1270.2</ele>
        <time>2017-08-13T09:42:40Z</time>
      </trkpt>
      <trkpt lat="42.50723" lon="-0.14913">
        <ele>1268.5</ele>
        <time>2017-08-13T09:42:41Z</time>
      </trkpt>
      <trkpt lat="42.50727" lon="-0.1491">
        <ele>1269.1</ele>
        <time>2017-08-13T09:42:42Z</time>
      </trkpt>
      <trkpt lat="42.50729" lon="-0.14908">
        <ele>1267.6</ele>
        <time>2017-08-13T09:42:43Z</time>
      </trkpt>
      <trkpt lat="42.50732" lon="-0.14905">
        <ele>1268.7</ele>
        <time>2017-08-13T09:42:44Z</time>
      </trkpt>
      <trkpt lat="42.50735" lon="-0.14903">
        <ele>1267.4</ele>
        <time>2017-08-13T09:42:45Z</time>
      </trkpt>
      <trkpt lat="42.50739" lon="-0.14902">
        <ele>1268.7</ele>
        <time>2017-08-13T09:42:46Z</time>
      </trkpt>
      <trkpt lat="42.50743" lon="-0.14902">
        <ele>1270.1</ele>
        <time>2017-08-13T09:42:47Z</time>
      </trkpt>
      <trkpt lat="42.50748" lon="-0.14902">
        <ele>1271.6</ele>
        <time>2017-08-13T09:42:48Z</time>
      </trkpt>
      <trkpt lat="42.50752" lon="-0.14902">
        <ele>1274.4</ele>
        <time>2017-08-13T09:42:49Z</time>
      </trkpt>
      <trkpt lat="42.50755" lon="-0.14901">
        <ele>1275.9</ele>
        <time>2017-08-13T09:42:50Z</time>
      </trkpt>
      <trkpt lat="42.50759" lon="-0.14899">
        <ele>1274.8</ele>
        <time>2017-08-13T09:42:52Z</time>
      </trkpt>
      <trkpt lat="42.50764" lon="-0.14896">
        <ele>1278.1</ele>
        <time>2017-08-13T09:42:54Z</time>
      </trkpt>
      <trkpt lat="42.50767" lon="-0.14895">
        <ele>1277.3</ele>
        <time>2017-08-13T09:42:55Z</time>
      </trkpt>
      <trkpt lat="42.5077" lon="-0.14893">
        <ele>1277.3</ele>
        <time>2017-08-13T09:42:56Z</time>
      </trkpt>
      <trkpt lat="42.50773" lon="-0.14892">
        <ele>1276.6</ele>
        <time>2017-08-13T09:42:57Z</time>
      </trkpt>
      <trkpt lat="42.50776" lon="-0.1489">
        <ele>1278</ele>
        <time>2017-08-13T09:42:58Z</time>
      </trkpt>
      <trkpt lat="42.50779" lon="-0.14888">
        <ele>1279.3</ele>
        <time>2017-08-13T09:42:59Z</time>
      </trkpt>
      <trkpt lat="42.50783" lon="-0.14886">
        <ele>1279.8</ele>
        <time>2017-08-13T09:43:01Z</time>
      </trkpt>
      <trkpt lat="42.50788" lon="-0.14885">
        <ele>1281.2</ele>
        <time>2017-08-13T09:43:03Z</time>
      </trkpt>
      <trkpt lat="42.50794" lon="-0.14884">
        <ele>1284</ele>
        <time>2017-08-13T09:43:05Z</time>
      </trkpt>
      <trkpt lat="42.50797" lon="-0.14882">
        <ele>1283.5</ele>
        <time>2017-08-13T09:43:06Z</time>
      </trkpt>
      <trkpt lat="42.50799" lon="-0.1488">
        <ele>1284.9</ele>
        <time>2017-08-13T09:43:07Z</time>
      </trkpt>
      <trkpt lat="42.50801" lon="-0.14874">
        <ele>1280.9</ele>
        <time>2017-08-13T09:43:09Z</time>
      </trkpt>
      <trkpt lat="42.50801" lon="-0.14868">
        <ele>1279</ele>
        <time>2017-08-13T09:43:11Z</time>
      </trkpt>
      <trkpt lat="42.508" lon="-0.14865">
        <ele>1277.3</ele>
        <time>2017-08-13T09:43:15Z</time>
      </trkpt>
      <trkpt lat="42.50797" lon="-0.14866">
        <ele>1277.5</ele>
        <time>2017-08-13T09:43:38Z</time>
      </trkpt>
      <trkpt lat="42.50794" lon="-0.14864">
        <ele>1274.1</ele>
        <time>2017-08-13T09:43:44Z</time>
      </trkpt>
      <trkpt lat="42.50793" lon="-0.14859">
        <ele>1272.6</ele>
        <time>2017-08-13T09:43:46Z</time>
      </trkpt>
      <trkpt lat="42.50791" lon="-0.14853">
        <ele>1269.3</ele>
        <time>2017-08-13T09:43:48Z</time>
      </trkpt>
      <trkpt lat="42.5079" lon="-0.14846">
        <ele>1266.3</ele>
        <time>2017-08-13T09:43:50Z</time>
      </trkpt>
      <trkpt lat="42.50789" lon="-0.14842">
        <ele>1265.1</ele>
        <time>2017-08-13T09:43:51Z</time>
      </trkpt>
      <trkpt lat="42.50789" lon="-0.14838">
        <ele>1264.2</ele>
        <time>2017-08-13T09:43:57Z</time>
      </trkpt>
      <trkpt lat="42.5079" lon="-0.14835">
        <ele>1263.7</ele>
        <time>2017-08-13T09:44:10Z</time>
      </trkpt>
      <trkpt lat="42.50791" lon="-0.1483">
        <ele>1263.5</ele>
        <time>2017-08-13T09:44:15Z</time>
      </trkpt>
      <trkpt lat="42.50792" lon="-0.14825">
        <ele>1263.4</ele>
        <time>2017-08-13T09:44:17Z</time>
      </trkpt>
      <trkpt lat="42.50794" lon="-0.1482">
        <ele>1265.2</ele>
        <time>2017-08-13T09:44:19Z</time>
      </trkpt>
      <trkpt lat="42.50797" lon="-0.14815">
        <ele>1267.1</ele>
        <time>2017-08-13T09:44:21Z</time>
      </trkpt>
      <trkpt lat="42.508" lon="-0.14813">
        <ele>1268.8</ele>
        <time>2017-08-13T09:44:24Z</time>
      </trkpt>
      <trkpt lat="42.50803" lon="-0.14809">
        <ele>1270.1</ele>
        <time>2017-08-13T09:44:28Z</time>
      </trkpt>
      <trkpt lat="42.50805" lon="-0.14806">
        <ele>1270.1</ele>
        <time>2017-08-13T09:44:30Z</time>
      </trkpt>
      <trkpt lat="42.50805" lon="-0.14802">
        <ele>1271.2</ele>
        <time>2017-08-13T09:44:32Z</time>
      </trkpt>
      <trkpt lat="42.50804" lon="-0.14797">
        <ele>1270.2</ele>
        <time>2017-08-13T09:44:34Z</time>
      </trkpt>
      <trkpt lat="42.50802" lon="-0.14792">
        <ele>1270.3</ele>
        <time>2017-08-13T09:44:36Z</time>
      </trkpt>
      <trkpt lat="42.50797" lon="-0.14788">
        <ele>1267.8</ele>
        <time>2017-08-13T09:44:38Z</time>
      </trkpt>
      <trkpt lat="42.50795" lon="-0.14787">
        <ele>1266.3</ele>
        <time>2017-08-13T09:44:39Z</time>
      </trkpt>
      <trkpt lat="42.50792" lon="-0.14786">
        <ele>1264.7</ele>
        <time>2017-08-13T09:44:40Z</time>
      </trkpt>
      <trkpt lat="42.50789" lon="-0.14784">
        <ele>1265</ele>
        <time>2017-08-13T09:44:41Z</time>
      </trkpt>
      <trkpt lat="42.50786" lon="-0.14781">
        <ele>1263.5</ele>
        <time>2017-08-13T09:44:42Z</time>
      </trkpt>
      <trkpt lat="42.50783" lon="-0.14778">
        <ele>1262.5</ele>
        <time>2017-08-13T09:44:43Z</time>
      </trkpt>
      <trkpt lat="42.5078" lon="-0.14774">
        <ele>1261.8</ele>
        <time>2017-08-13T09:44:44Z</time>
      </trkpt>
      <trkpt lat="42.50777" lon="-0.1477">
        <ele>1261.3</ele>
        <time>2017-08-13T09:44:45Z</time>
      </trkpt>
      <trkpt lat="42.50775" lon="-0.14766">
        <ele>1260.9</ele>
        <time>2017-08-13T09:44:46Z</time>
      </trkpt>
      <trkpt lat="42.50772" lon="-0.14762">
        <ele>1260.3</ele>
        <time>2017-08-13T09:44:47Z</time>
      </trkpt>
      <trkpt lat="42.5077" lon="-0.14759">
        <ele>1260.3</ele>
        <time>2017-08-13T09:44:48Z</time>
      </trkpt>
      <trkpt lat="42.50769" lon="-0.14756">
        <ele>1259.7</ele>
        <time>2017-08-13T09:44:50Z</time>
      </trkpt>
      <trkpt lat="42.50767" lon="-0.14751">
        <ele>1261</ele>
        <time>2017-08-13T09:44:52Z</time>
      </trkpt>
      <trkpt lat="42.50764" lon="-0.14744">
        <ele>1261.8</ele>
        <time>2017-08-13T09:44:54Z</time>
      </trkpt>
      <trkpt lat="42.50762" lon="-0.14741">
        <ele>1261.2</ele>
        <time>2017-08-13T09:44:55Z</time>
      </trkpt>
      <trkpt lat="42.50761" lon="-0.14737">
        <ele>1261.2</ele>
        <time>2017-08-13T09:44:56Z</time>
      </trkpt>
      <trkpt lat="42.50759" lon="-0.14733">
        <ele>1260.7</ele>
        <time>2017-08-13T09:44:57Z</time>
      </trkpt>
      <trkpt lat="42.50758" lon="-0.1473">
        <ele>1262.4</ele>
        <time>2017-08-13T09:44:58Z</time>
      </trkpt>
      <trkpt lat="42.50756" lon="-0.14726">
        <ele>1261.9</ele>
        <time>2017-08-13T09:44:59Z</time>
      </trkpt>
      <trkpt lat="42.50754" lon="-0.14722">
        <ele>1263.5</ele>
        <time>2017-08-13T09:45:00Z</time>
      </trkpt>
      <trkpt lat="42.50753" lon="-0.14717">
        <ele>1263.1</ele>
        <time>2017-08-13T09:45:01Z</time>
      </trkpt>
      <trkpt lat="42.50751" lon="-0.14714">
        <ele>1264.8</ele>
        <time>2017-08-13T09:45:02Z</time>
      </trkpt>
      <trkpt lat="42.5075" lon="-0.1471">
        <ele>1264.8</ele>
        <time>2017-08-13T09:45:03Z</time>
      </trkpt>
      <trkpt lat="42.50749" lon="-0.14707">
        <ele>1266.5</ele>
        <time>2017-08-13T09:45:04Z</time>
      </trkpt>
      <trkpt lat="42.50747" lon="-0.14703">
        <ele>1264.7</ele>
        <time>2017-08-13T09:45:06Z</time>
      </trkpt>
      <trkpt lat="42.50745" lon="-0.14699">
        <ele>1266.2</ele>
        <time>2017-08-13T09:45:08Z</time>
      </trkpt>
      <trkpt lat="42.50743" lon="-0.14695">
        <ele>1265.5</ele>
        <time>2017-08-13T09:45:10Z</time>
      </trkpt>
      <trkpt lat="42.5074" lon="-0.14691">
        <ele>1264.2</ele>
        <time>2017-08-13T09:45:12Z</time>
      </trkpt>
      <trkpt lat="42.50735" lon="-0.14686">
        <ele>1262.8</ele>
        <time>2017-08-13T09:45:14Z</time>
      </trkpt>
      <trkpt lat="42.50733" lon="-0.14683">
        <ele>1261.5</ele>
        <time>2017-08-13T09:45:15Z</time>
      </trkpt>
      <trkpt lat="42.5073" lon="-0.14679">
        <ele>1260.4</ele>
        <time>2017-08-13T09:45:16Z</time>
      </trkpt>
      <trkpt lat="42.50727" lon="-0.14674">
        <ele>1259.6</ele>
        <time>2017-08-13T09:45:17Z</time>
      </trkpt>
      <trkpt lat="42.50724" lon="-0.1467">
        <ele>1258.9</ele>
        <time>2017-08-13T09:45:18Z</time>
      </trkpt>
      <trkpt lat="42.50721" lon="-0.14666">
        <ele>1258.4</ele>
        <time>2017-08-13T09:45:19Z</time>
      </trkpt>
      <trkpt lat="42.50718" lon="-0.14663">
        <ele>1257.8</ele>
        <time>2017-08-13T09:45:20Z</time>
      </trkpt>
      <trkpt lat="42.50715" lon="-0.1466">
        <ele>1257.2</ele>
        <time>2017-08-13T09:45:21Z</time>
      </trkpt>
      <trkpt lat="42.50712" lon="-0.14657">
        <ele>1255.3</ele>
        <time>2017-08-13T09:45:22Z</time>
      </trkpt>
      <trkpt lat="42.5071" lon="-0.14653">
        <ele>1254.7</ele>
        <time>2017-08-13T09:45:23Z</time>
      </trkpt>
      <trkpt lat="42.50707" lon="-0.14649">
        <ele>1254</ele>
        <time>2017-08-13T09:45:24Z</time>
      </trkpt>
      <trkpt lat="42.50703" lon="-0.14644">
        <ele>1253.3</ele>
        <time>2017-08-13T09:45:25Z</time>
      </trkpt>
      <trkpt lat="42.50699" lon="-0.14639">
        <ele>1252.6</ele>
        <time>2017-08-13T09:45:26Z</time>
      </trkpt>
      <trkpt lat="42.50696" lon="-0.14635">
        <ele>1251.9</ele>
        <time>2017-08-13T09:45:27Z</time>
      </trkpt>
      <trkpt lat="42.50692" lon="-0.14631">
        <ele>1251.5</ele>
        <time>2017-08-13T09:45:28Z</time>
      </trkpt>
      <trkpt lat="42.50689" lon="-0.14627">
        <ele>1251.1</ele>
        <time>2017-08-13T09:45:29Z</time>
      </trkpt>
      <trkpt lat="42.50687" lon="-0.14623">
        <ele>1250.5</ele>
        <time>2017-08-13T09:45:30Z</time>
      </trkpt>
      <trkpt lat="42.50684" lon="-0.14619">
        <ele>1249.9</ele>
        <time>2017-08-13T09:45:31Z</time>
      </trkpt>
      <trkpt lat="42.50681" lon="-0.14615">
        <ele>1249.1</ele>
        <time>2017-08-13T09:45:32Z</time>
      </trkpt>
      <trkpt lat="42.50678" lon="-0.14611">
        <ele>1249.8</ele>
        <time>2017-08-13T09:45:33Z</time>
      </trkpt>
      <trkpt lat="42.50676" lon="-0.14607">
        <ele>1248.9</ele>
        <time>2017-08-13T09:45:34Z</time>
      </trkpt>
      <trkpt lat="42.50674" lon="-0.14603">
        <ele>1248.1</ele>
        <time>2017-08-13T09:45:35Z</time>
      </trkpt>
      <trkpt lat="42.50673" lon="-0.14599">
        <ele>1249</ele>
        <time>2017-08-13T09:45:36Z</time>
      </trkpt>
      <trkpt lat="42.50671" lon="-0.14595">
        <ele>1248.2</ele>
        <time>2017-08-13T09:45:37Z</time>
      </trkpt>
      <trkpt lat="42.5067" lon="-0.14592">
        <ele>1248.2</ele>
        <time>2017-08-13T09:45:38Z</time>
      </trkpt>
      <trkpt lat="42.50668" lon="-0.14587">
        <ele>1247.4</ele>
        <time>2017-08-13T09:45:39Z</time>
      </trkpt>
      <trkpt lat="42.50666" lon="-0.14583">
        <ele>1248</ele>
        <time>2017-08-13T09:45:40Z</time>
      </trkpt>
      <trkpt lat="42.50663" lon="-0.14578">
        <ele>1247.6</ele>
        <time>2017-08-13T09:45:41Z</time>
      </trkpt>
      <trkpt lat="42.50661" lon="-0.14573">
        <ele>1246.7</ele>
        <time>2017-08-13T09:45:42Z</time>
      </trkpt>
      <trkpt lat="42.50658" lon="-0.14567">
        <ele>1245.9</ele>
        <time>2017-08-13T09:45:43Z</time>
      </trkpt>
      <trkpt lat="42.50656" lon="-0.14561">
        <ele>1245.1</ele>
        <time>2017-08-13T09:45:44Z</time>
      </trkpt>
      <trkpt lat="42.50653" lon="-0.14555">
        <ele>1246.8</ele>
        <time>2017-08-13T09:45:45Z</time>
      </trkpt>
      <trkpt lat="42.50651" lon="-0.14549">
        <ele>1245.8</ele>
        <time>2017-08-13T09:45:46Z</time>
      </trkpt>
      <trkpt lat="42.50649" lon="-0.14543">
        <ele>1245.3</ele>
        <time>2017-08-13T09:45:47Z</time>
      </trkpt>
      <trkpt lat="42.50647" lon="-0.14539">
        <ele>1245.9</ele>
        <time>2017-08-13T09:45:48Z</time>
      </trkpt>
      <trkpt lat="42.50646" lon="-0.14534">
        <ele>1244.5</ele>
        <time>2017-08-13T09:45:49Z</time>
      </trkpt>
      <trkpt lat="42.50645" lon="-0.14529">
        <ele>1244.8</ele>
        <time>2017-08-13T09:45:50Z</time>
      </trkpt>
      <trkpt lat="42.50643" lon="-0.14523">
        <ele>1243.4</ele>
        <time>2017-08-13T09:45:51Z</time>
      </trkpt>
      <trkpt lat="42.5064" lon="-0.14517">
        <ele>1244.3</ele>
        <time>2017-08-13T09:45:52Z</time>
      </trkpt>
      <trkpt lat="42.50638" lon="-0.14511">
        <ele>1243.4</ele>
        <time>2017-08-13T09:45:53Z</time>
      </trkpt>
      <trkpt lat="42.50636" lon="-0.14505">
        <ele>1242.6</ele>
        <time>2017-08-13T09:45:54Z</time>
      </trkpt>
      <trkpt lat="42.50634" lon="-0.145">
        <ele>1243.6</ele>
        <time>2017-08-13T09:45:55Z</time>
      </trkpt>
      <trkpt lat="42.50632" lon="-0.14495">
        <ele>1242.7</ele>
        <time>2017-08-13T09:45:56Z</time>
      </trkpt>
      <trkpt lat="42.50629" lon="-0.14491">
        <ele>1241.7</ele>
        <time>2017-08-13T09:45:57Z</time>
      </trkpt>
      <trkpt lat="42.50627" lon="-0.14486">
        <ele>1240.6</ele>
        <time>2017-08-13T09:45:58Z</time>
      </trkpt>
      <trkpt lat="42.50623" lon="-0.14482">
        <ele>1239.6</ele>
        <time>2017-08-13T09:45:59Z</time>
      </trkpt>
      <trkpt lat="42.5062" lon="-0.14477">
        <ele>1238.7</ele>
        <time>2017-08-13T09:46:00Z</time>
      </trkpt>
      <trkpt lat="42.50616" lon="-0.14472">
        <ele>1237.9</ele>
        <time>2017-08-13T09:46:01Z</time>
      </trkpt>
      <trkpt lat="42.50613" lon="-0.14468">
        <ele>1237.3</ele>
        <time>2017-08-13T09:46:02Z</time>
      </trkpt>
      <trkpt lat="42.50609" lon="-0.14464">
        <ele>1237.1</ele>
        <time>2017-08-13T09:46:03Z</time>
      </trkpt>
      <trkpt lat="42.50605" lon="-0.1446">
        <ele>1235.7</ele>
        <time>2017-08-13T09:46:04Z</time>
      </trkpt>
      <trkpt lat="42.50601" lon="-0.14457">
        <ele>1235.3</ele>
        <time>2017-08-13T09:46:05Z</time>
      </trkpt>
      <trkpt lat="42.50597" lon="-0.14455">
        <ele>1233.9</ele>
        <time>2017-08-13T09:46:06Z</time>
      </trkpt>
      <trkpt lat="42.50594" lon="-0.14454">
        <ele>1232.6</ele>
        <time>2017-08-13T09:46:07Z</time>
      </trkpt>
      <trkpt lat="42.50591" lon="-0.14453">
        <ele>1232.2</ele>
        <time>2017-08-13T09:46:08Z</time>
      </trkpt>
      <trkpt lat="42.50588" lon="-0.14451">
        <ele>1231</ele>
        <time>2017-08-13T09:46:09Z</time>
      </trkpt>
      <trkpt lat="42.50584" lon="-0.1445">
        <ele>1230.8</ele>
        <time>2017-08-13T09:46:10Z</time>
      </trkpt>
      <trkpt lat="42.50581" lon="-0.14448">
        <ele>1229.9</ele>
        <time>2017-08-13T09:46:11Z</time>
      </trkpt>
      <trkpt lat="42.50578" lon="-0.14446">
        <ele>1228.9</ele>
        <time>2017-08-13T09:46:12Z</time>
      </trkpt>
      <trkpt lat="42.50574" lon="-0.14445">
        <ele>1228.7</ele>
        <time>2017-08-13T09:46:13Z</time>
      </trkpt>
      <trkpt lat="42.50571" lon="-0.14444">
        <ele>1227.5</ele>
        <time>2017-08-13T09:46:14Z</time>
      </trkpt>
      <trkpt lat="42.50567" lon="-0.14443">
        <ele>1225.2</ele>
        <time>2017-08-13T09:46:15Z</time>
      </trkpt>
      <trkpt lat="42.50563" lon="-0.14441">
        <ele>1224.2</ele>
        <time>2017-08-13T09:46:16Z</time>
      </trkpt>
      <trkpt lat="42.50559" lon="-0.14439">
        <ele>1224.3</ele>
        <time>2017-08-13T09:46:17Z</time>
      </trkpt>
      <trkpt lat="42.50555" lon="-0.14436">
        <ele>1224.5</ele>
        <time>2017-08-13T09:46:18Z</time>
      </trkpt>
      <trkpt lat="42.50552" lon="-0.14434">
        <ele>1223.8</ele>
        <time>2017-08-13T09:46:19Z</time>
      </trkpt>
      <trkpt lat="42.5055" lon="-0.14431">
        <ele>1223.9</ele>
        <time>2017-08-13T09:46:20Z</time>
      </trkpt>
      <trkpt lat="42.50548" lon="-0.14427">
        <ele>1223.8</ele>
        <time>2017-08-13T09:46:21Z</time>
      </trkpt>
      <trkpt lat="42.50547" lon="-0.14424">
        <ele>1223.8</ele>
        <time>2017-08-13T09:46:22Z</time>
      </trkpt>
      <trkpt lat="42.50547" lon="-0.1442">
        <ele>1224.5</ele>
        <time>2017-08-13T09:46:39Z</time>
      </trkpt>
      <trkpt lat="42.50544" lon="-0.14416">
        <ele>1223.9</ele>
        <time>2017-08-13T09:46:41Z</time>
      </trkpt>
      <trkpt lat="42.50542" lon="-0.14413">
        <ele>1223.2</ele>
        <time>2017-08-13T09:46:42Z</time>
      </trkpt>
      <trkpt lat="42.5054" lon="-0.14409">
        <ele>1223.7</ele>
        <time>2017-08-13T09:46:43Z</time>
      </trkpt>
      <trkpt lat="42.50538" lon="-0.14405">
        <ele>1223</ele>
        <time>2017-08-13T09:46:44Z</time>
      </trkpt>
      <trkpt lat="42.50536" lon="-0.14401">
        <ele>1222.3</ele>
        <time>2017-08-13T09:46:45Z</time>
      </trkpt>
      <trkpt lat="42.50534" lon="-0.14396">
        <ele>1222.7</ele>
        <time>2017-08-13T09:46:46Z</time>
      </trkpt>
      <trkpt lat="42.50531" lon="-0.14392">
        <ele>1221.9</ele>
        <time>2017-08-13T09:46:47Z</time>
      </trkpt>
      <trkpt lat="42.50529" lon="-0.14388">
        <ele>1221.1</ele>
        <time>2017-08-13T09:46:48Z</time>
      </trkpt>
      <trkpt lat="42.50527" lon="-0.14385">
        <ele>1221.4</ele>
        <time>2017-08-13T09:46:49Z</time>
      </trkpt>
      <trkpt lat="42.50524" lon="-0.14381">
        <ele>1220.8</ele>
        <time>2017-08-13T09:46:51Z</time>
      </trkpt>
      <trkpt lat="42.50522" lon="-0.14378">
        <ele>1219.7</ele>
        <time>2017-08-13T09:46:53Z</time>
      </trkpt>
      <trkpt lat="42.5052" lon="-0.14375">
        <ele>1219</ele>
        <time>2017-08-13T09:47:03Z</time>
      </trkpt>
      <trkpt lat="42.50518" lon="-0.14372">
        <ele>1219.5</ele>
        <time>2017-08-13T09:47:08Z</time>
      </trkpt>
      <trkpt lat="42.50516" lon="-0.14369">
        <ele>1218.3</ele>
        <time>2017-08-13T09:47:10Z</time>
      </trkpt>
      <trkpt lat="42.50514" lon="-0.14366">
        <ele>1217.7</ele>
        <time>2017-08-13T09:47:11Z</time>
      </trkpt>
      <trkpt lat="42.50511" lon="-0.14362">
        <ele>1218.3</ele>
        <time>2017-08-13T09:47:12Z</time>
      </trkpt>
      <trkpt lat="42.50509" lon="-0.14358">
        <ele>1217.9</ele>
        <time>2017-08-13T09:47:13Z</time>
      </trkpt>
      <trkpt lat="42.50507" lon="-0.14354">
        <ele>1217.8</ele>
        <time>2017-08-13T09:47:14Z</time>
      </trkpt>
      <trkpt lat="42.50505" lon="-0.14351">
        <ele>1218.6</ele>
        <time>2017-08-13T09:47:15Z</time>
      </trkpt>
      <trkpt lat="42.50503" lon="-0.14348">
        <ele>1217.8</ele>
        <time>2017-08-13T09:47:16Z</time>
      </trkpt>
      <trkpt lat="42.50501" lon="-0.14344">
        <ele>1218</ele>
        <time>2017-08-13T09:47:18Z</time>
      </trkpt>
      <trkpt lat="42.50498" lon="-0.1434">
        <ele>1218.8</ele>
        <time>2017-08-13T09:47:20Z</time>
      </trkpt>
      <trkpt lat="42.50496" lon="-0.14337">
        <ele>1218.8</ele>
        <time>2017-08-13T09:47:22Z</time>
      </trkpt>
      <trkpt lat="42.50495" lon="-0.14333">
        <ele>1219.4</ele>
        <time>2017-08-13T09:47:24Z</time>
      </trkpt>
      <trkpt lat="42.50494" lon="-0.14328">
        <ele>1219</ele>
        <time>2017-08-13T09:47:26Z</time>
      </trkpt>
      <trkpt lat="42.50491" lon="-0.14324">
        <ele>1218.5</ele>
        <time>2017-08-13T09:47:28Z</time>
      </trkpt>
      <trkpt lat="42.50489" lon="-0.14319">
        <ele>1218.9</ele>
        <time>2017-08-13T09:47:30Z</time>
      </trkpt>
      <trkpt lat="42.50486" lon="-0.14313">
        <ele>1218.1</ele>
        <time>2017-08-13T09:47:32Z</time>
      </trkpt>
      <trkpt lat="42.50485" lon="-0.1431">
        <ele>1217.3</ele>
        <time>2017-08-13T09:47:34Z</time>
      </trkpt>
      <trkpt lat="42.50483" lon="-0.14307">
        <ele>1217.5</ele>
        <time>2017-08-13T09:47:40Z</time>
      </trkpt>
      <trkpt lat="42.5048" lon="-0.14304">
        <ele>1216.4</ele>
        <time>2017-08-13T09:47:46Z</time>
      </trkpt>
      <trkpt lat="42.50478" lon="-0.143">
        <ele>1215.8</ele>
        <time>2017-08-13T09:47:49Z</time>
      </trkpt>
      <trkpt lat="42.50475" lon="-0.14296">
        <ele>1215.4</ele>
        <time>2017-08-13T09:47:51Z</time>
      </trkpt>
      <trkpt lat="42.50472" lon="-0.14294">
        <ele>1215.3</ele>
        <time>2017-08-13T09:47:53Z</time>
      </trkpt>
      <trkpt lat="42.5047" lon="-0.14292">
        <ele>1215.3</ele>
        <time>2017-08-13T09:47:55Z</time>
      </trkpt>
      <trkpt lat="42.50467" lon="-0.1429">
        <ele>1215.3</ele>
        <time>2017-08-13T09:47:57Z</time>
      </trkpt>
      <trkpt lat="42.50464" lon="-0.14289">
        <ele>1214.4</ele>
        <time>2017-08-13T09:47:59Z</time>
      </trkpt>
      <trkpt lat="42.5046" lon="-0.14288">
        <ele>1213.4</ele>
        <time>2017-08-13T09:48:01Z</time>
      </trkpt>
      <trkpt lat="42.50457" lon="-0.14286">
        <ele>1212.1</ele>
        <time>2017-08-13T09:48:03Z</time>
      </trkpt>
      <trkpt lat="42.50453" lon="-0.14284">
        <ele>1211.1</ele>
        <time>2017-08-13T09:48:05Z</time>
      </trkpt>
      <trkpt lat="42.5045" lon="-0.14283">
        <ele>1210.1</ele>
        <time>2017-08-13T09:48:07Z</time>
      </trkpt>
      <trkpt lat="42.50446" lon="-0.14279">
        <ele>1210</ele>
        <time>2017-08-13T09:48:09Z</time>
      </trkpt>
      <trkpt lat="42.50442" lon="-0.14275">
        <ele>1209.7</ele>
        <time>2017-08-13T09:48:11Z</time>
      </trkpt>
      <trkpt lat="42.50439" lon="-0.14271">
        <ele>1209.4</ele>
        <time>2017-08-13T09:48:13Z</time>
      </trkpt>
      <trkpt lat="42.50436" lon="-0.14268">
        <ele>1209</ele>
        <time>2017-08-13T09:48:15Z</time>
      </trkpt>
      <trkpt lat="42.50433" lon="-0.14265">
        <ele>1208</ele>
        <time>2017-08-13T09:48:17Z</time>
      </trkpt>
      <trkpt lat="42.50429" lon="-0.14261">
        <ele>1207.5</ele>
        <time>2017-08-13T09:48:19Z</time>
      </trkpt>
      <trkpt lat="42.50425" lon="-0.14259">
        <ele>1206</ele>
        <time>2017-08-13T09:48:21Z</time>
      </trkpt>
      <trkpt lat="42.5042" lon="-0.14258">
        <ele>1205.2</ele>
        <time>2017-08-13T09:48:23Z</time>
      </trkpt>
      <trkpt lat="42.50415" lon="-0.14257">
        <ele>1203.6</ele>
        <time>2017-08-13T09:48:25Z</time>
      </trkpt>
      <trkpt lat="42.50411" lon="-0.14256">
        <ele>1203.1</ele>
        <time>2017-08-13T09:48:27Z</time>
      </trkpt>
      <trkpt lat="42.50408" lon="-0.14253">
        <ele>1202.2</ele>
        <time>2017-08-13T09:48:29Z</time>
      </trkpt>
      <trkpt lat="42.50406" lon="-0.1425">
        <ele>1201.4</ele>
        <time>2017-08-13T09:48:31Z</time>
      </trkpt>
      <trkpt lat="42.50404" lon="-0.14245">
        <ele>1201.8</ele>
        <time>2017-08-13T09:48:33Z</time>
      </trkpt>
      <trkpt lat="42.50403" lon="-0.14242">
        <ele>1201</ele>
        <time>2017-08-13T09:48:34Z</time>
      </trkpt>
      <trkpt lat="42.50401" lon="-0.14236">
        <ele>1201.5</ele>
        <time>2017-08-13T09:48:36Z</time>
      </trkpt>
      <trkpt lat="42.504" lon="-0.1423">
        <ele>1202.3</ele>
        <time>2017-08-13T09:48:38Z</time>
      </trkpt>
      <trkpt lat="42.50399" lon="-0.14226">
        <ele>1201.4</ele>
        <time>2017-08-13T09:48:39Z</time>
      </trkpt>
      <trkpt lat="42.50397" lon="-0.14221">
        <ele>1201.7</ele>
        <time>2017-08-13T09:48:40Z</time>
      </trkpt>
      <trkpt lat="42.50396" lon="-0.14217">
        <ele>1200.7</ele>
        <time>2017-08-13T09:48:41Z</time>
      </trkpt>
      <trkpt lat="42.50393" lon="-0.14212">
        <ele>1199.6</ele>
        <time>2017-08-13T09:48:42Z</time>
      </trkpt>
      <trkpt lat="42.50391" lon="-0.14207">
        <ele>1199.9</ele>
        <time>2017-08-13T09:48:43Z</time>
      </trkpt>
      <trkpt lat="42.50388" lon="-0.14203">
        <ele>1198.7</ele>
        <time>2017-08-13T09:48:44Z</time>
      </trkpt>
      <trkpt lat="42.50386" lon="-0.14199">
        <ele>1197.4</ele>
        <time>2017-08-13T09:48:45Z</time>
      </trkpt>
      <trkpt lat="42.50384" lon="-0.14196">
        <ele>1197.5</ele>
        <time>2017-08-13T09:48:46Z</time>
      </trkpt>
      <trkpt lat="42.50381" lon="-0.14191">
        <ele>1196</ele>
        <time>2017-08-13T09:48:48Z</time>
      </trkpt>
      <trkpt lat="42.50381" lon="-0.14186">
        <ele>1196.1</ele>
        <time>2017-08-13T09:48:55Z</time>
      </trkpt>
      <trkpt lat="42.50379" lon="-0.14182">
        <ele>1194.7</ele>
        <time>2017-08-13T09:48:58Z</time>
      </trkpt>
      <trkpt lat="42.50376" lon="-0.14176">
        <ele>1193.3</ele>
        <time>2017-08-13T09:49:00Z</time>
      </trkpt>
      <trkpt lat="42.50373" lon="-0.14173">
        <ele>1191.9</ele>
        <time>2017-08-13T09:49:01Z</time>
      </trkpt>
      <trkpt lat="42.50371" lon="-0.14171">
        <ele>1192.1</ele>
        <time>2017-08-13T09:49:02Z</time>
      </trkpt>
      <trkpt lat="42.50369" lon="-0.14166">
        <ele>1190.8</ele>
        <time>2017-08-13T09:49:04Z</time>
      </trkpt>
      <trkpt lat="42.50367" lon="-0.1416">
        <ele>1189.4</ele>
        <time>2017-08-13T09:49:06Z</time>
      </trkpt>
      <trkpt lat="42.50365" lon="-0.14154">
        <ele>1189.4</ele>
        <time>2017-08-13T09:49:08Z</time>
      </trkpt>
      <trkpt lat="42.50364" lon="-0.14148">
        <ele>1188</ele>
        <time>2017-08-13T09:49:10Z</time>
      </trkpt>
      <trkpt lat="42.50365" lon="-0.14144">
        <ele>1187.9</ele>
        <time>2017-08-13T09:49:12Z</time>
      </trkpt>
      <trkpt lat="42.50363" lon="-0.14136">
        <ele>1187.8</ele>
        <time>2017-08-13T09:49:14Z</time>
      </trkpt>
      <trkpt lat="42.50363" lon="-0.14131">
        <ele>1187.8</ele>
        <time>2017-08-13T09:49:15Z</time>
      </trkpt>
      <trkpt lat="42.50362" lon="-0.14125">
        <ele>1187.9</ele>
        <time>2017-08-13T09:49:16Z</time>
      </trkpt>
      <trkpt lat="42.50362" lon="-0.14119">
        <ele>1187.9</ele>
        <time>2017-08-13T09:49:17Z</time>
      </trkpt>
      <trkpt lat="42.50362" lon="-0.14114">
        <ele>1187.8</ele>
        <time>2017-08-13T09:49:18Z</time>
      </trkpt>
      <trkpt lat="42.50362" lon="-0.1411">
        <ele>1186.6</ele>
        <time>2017-08-13T09:49:19Z</time>
      </trkpt>
      <trkpt lat="42.50362" lon="-0.14105">
        <ele>1187.6</ele>
        <time>2017-08-13T09:49:20Z</time>
      </trkpt>
      <trkpt lat="42.50363" lon="-0.14101">
        <ele>1187.4</ele>
        <time>2017-08-13T09:49:21Z</time>
      </trkpt>
      <trkpt lat="42.50365" lon="-0.14096">
        <ele>1187.1</ele>
        <time>2017-08-13T09:49:22Z</time>
      </trkpt>
      <trkpt lat="42.50366" lon="-0.14092">
        <ele>1188.2</ele>
        <time>2017-08-13T09:49:23Z</time>
      </trkpt>
      <trkpt lat="42.50366" lon="-0.14087">
        <ele>1188.1</ele>
        <time>2017-08-13T09:49:24Z</time>
      </trkpt>
      <trkpt lat="42.50366" lon="-0.14082">
        <ele>1188</ele>
        <time>2017-08-13T09:49:26Z</time>
      </trkpt>
      <trkpt lat="42.50366" lon="-0.14077">
        <ele>1188</ele>
        <time>2017-08-13T09:49:28Z</time>
      </trkpt>
      <trkpt lat="42.50367" lon="-0.14073">
        <ele>1188.1</ele>
        <time>2017-08-13T09:49:38Z</time>
      </trkpt>
      <trkpt lat="42.50369" lon="-0.1407">
        <ele>1189.4</ele>
        <time>2017-08-13T09:49:45Z</time>
      </trkpt>
      <trkpt lat="42.50368" lon="-0.14066">
        <ele>1189.4</ele>
        <time>2017-08-13T09:49:50Z</time>
      </trkpt>
      <trkpt lat="42.50367" lon="-0.14062">
        <ele>1188.1</ele>
        <time>2017-08-13T09:49:53Z</time>
      </trkpt>
      <trkpt lat="42.50367" lon="-0.14053">
        <ele>1187.8</ele>
        <time>2017-08-13T09:50:14Z</time>
      </trkpt>
      <trkpt lat="42.50367" lon="-0.14049">
        <ele>1187.5</ele>
        <time>2017-08-13T09:50:18Z</time>
      </trkpt>
      <trkpt lat="42.50368" lon="-0.14045">
        <ele>1187.1</ele>
        <time>2017-08-13T09:50:21Z</time>
      </trkpt>
      <trkpt lat="42.50368" lon="-0.14041">
        <ele>1186.7</ele>
        <time>2017-08-13T09:50:23Z</time>
      </trkpt>
      <trkpt lat="42.50369" lon="-0.14036">
        <ele>1187.3</ele>
        <time>2017-08-13T09:50:25Z</time>
      </trkpt>
      <trkpt lat="42.5037" lon="-0.14031">
        <ele>1186.9</ele>
        <time>2017-08-13T09:50:27Z</time>
      </trkpt>
      <trkpt lat="42.50372" lon="-0.14027">
        <ele>1187.7</ele>
        <time>2017-08-13T09:50:29Z</time>
      </trkpt>
      <trkpt lat="42.50373" lon="-0.14023">
        <ele>1187.4</ele>
        <time>2017-08-13T09:50:31Z</time>
      </trkpt>
      <trkpt lat="42.50373" lon="-0.14019">
        <ele>1187.2</ele>
        <time>2017-08-13T09:50:32Z</time>
      </trkpt>
      <trkpt lat="42.50372" lon="-0.14014">
        <ele>1187</ele>
        <time>2017-08-13T09:50:33Z</time>
      </trkpt>
      <trkpt lat="42.50372" lon="-0.14008">
        <ele>1186.7</ele>
        <time>2017-08-13T09:50:34Z</time>
      </trkpt>
      <trkpt lat="42.50372" lon="-0.14002">
        <ele>1186.3</ele>
        <time>2017-08-13T09:50:35Z</time>
      </trkpt>
      <trkpt lat="42.50373" lon="-0.13995">
        <ele>1186</ele>
        <time>2017-08-13T09:50:36Z</time>
      </trkpt>
      <trkpt lat="42.50374" lon="-0.13989">
        <ele>1185.3</ele>
        <time>2017-08-13T09:50:37Z</time>
      </trkpt>
      <trkpt lat="42.50375" lon="-0.13983">
        <ele>1185.6</ele>
        <time>2017-08-13T09:50:38Z</time>
      </trkpt>
      <trkpt lat="42.50377" lon="-0.13979">
        <ele>1185.1</ele>
        <time>2017-08-13T09:50:39Z</time>
      </trkpt>
      <trkpt lat="42.5038" lon="-0.13975">
        <ele>1185.4</ele>
        <time>2017-08-13T09:50:41Z</time>
      </trkpt>
      <trkpt lat="42.50382" lon="-0.13971">
        <ele>1185.7</ele>
        <time>2017-08-13T09:50:48Z</time>
      </trkpt>
      <trkpt lat="42.50383" lon="-0.13967">
        <ele>1185.4</ele>
        <time>2017-08-13T09:50:50Z</time>
      </trkpt>
      <trkpt lat="42.50384" lon="-0.13961">
        <ele>1184.9</ele>
        <time>2017-08-13T09:50:52Z</time>
      </trkpt>
      <trkpt lat="42.50385" lon="-0.13958">
        <ele>1185</ele>
        <time>2017-08-13T09:50:54Z</time>
      </trkpt>
      <trkpt lat="42.50388" lon="-0.13955">
        <ele>1185</ele>
        <time>2017-08-13T09:50:56Z</time>
      </trkpt>
      <trkpt lat="42.5039" lon="-0.13953">
        <ele>1185.4</ele>
        <time>2017-08-13T09:51:02Z</time>
      </trkpt>
      <trkpt lat="42.50393" lon="-0.13953">
        <ele>1185.4</ele>
        <time>2017-08-13T09:51:05Z</time>
      </trkpt>
      <trkpt lat="42.50396" lon="-0.13955">
        <ele>1185.9</ele>
        <time>2017-08-13T09:51:08Z</time>
      </trkpt>
      <trkpt lat="42.50399" lon="-0.13957">
        <ele>1187.1</ele>
        <time>2017-08-13T09:51:12Z</time>
      </trkpt>
      <trkpt lat="42.50402" lon="-0.13959">
        <ele>1187.7</ele>
        <time>2017-08-13T09:51:16Z</time>
      </trkpt>
      <trkpt lat="42.50405" lon="-0.13961">
        <ele>1189</ele>
        <time>2017-08-13T09:51:21Z</time>
      </trkpt>
      <trkpt lat="42.50408" lon="-0.13963">
        <ele>1189.5</ele>
        <time>2017-08-13T09:51:25Z</time>
      </trkpt>
      <trkpt lat="42.50411" lon="-0.13963">
        <ele>1190.1</ele>
        <time>2017-08-13T09:51:29Z</time>
      </trkpt>
      <trkpt lat="42.50414" lon="-0.13964">
        <ele>1190.6</ele>
        <time>2017-08-13T09:51:36Z</time>
      </trkpt>
      <trkpt lat="42.50417" lon="-0.13965">
        <ele>1191.6</ele>
        <time>2017-08-13T09:51:42Z</time>
      </trkpt>
      <trkpt lat="42.5042" lon="-0.13967">
        <ele>1191.9</ele>
        <time>2017-08-13T09:51:48Z</time>
      </trkpt>
      <trkpt lat="42.50422" lon="-0.13969">
        <ele>1192.6</ele>
        <time>2017-08-13T09:51:54Z</time>
      </trkpt>
      <trkpt lat="42.50424" lon="-0.13972">
        <ele>1192.6</ele>
        <time>2017-08-13T09:51:57Z</time>
      </trkpt>
      <trkpt lat="42.50426" lon="-0.13975">
        <ele>1193.1</ele>
        <time>2017-08-13T09:52:00Z</time>
      </trkpt>
      <trkpt lat="42.50428" lon="-0.13977">
        <ele>1193.4</ele>
        <time>2017-08-13T09:52:04Z</time>
      </trkpt>
      <trkpt lat="42.50431" lon="-0.13979">
        <ele>1193.6</ele>
        <time>2017-08-13T09:52:10Z</time>
      </trkpt>
      <trkpt lat="42.50433" lon="-0.13983">
        <ele>1194.2</ele>
        <time>2017-08-13T09:52:15Z</time>
      </trkpt>
      <trkpt lat="42.50436" lon="-0.13984">
        <ele>1194.5</ele>
        <time>2017-08-13T09:52:24Z</time>
      </trkpt>
      <trkpt lat="42.50439" lon="-0.13983">
        <ele>1194.7</ele>
        <time>2017-08-13T09:52:30Z</time>
      </trkpt>
      <trkpt lat="42.50444" lon="-0.13983">
        <ele>1194.9</ele>
        <time>2017-08-13T09:52:32Z</time>
      </trkpt>
      <trkpt lat="42.50448" lon="-0.13982">
        <ele>1195.4</ele>
        <time>2017-08-13T09:52:34Z</time>
      </trkpt>
      <trkpt lat="42.50451" lon="-0.13982">
        <ele>1195.1</ele>
        <time>2017-08-13T09:52:35Z</time>
      </trkpt>
      <trkpt lat="42.50454" lon="-0.13981">
        <ele>1195.3</ele>
        <time>2017-08-13T09:52:36Z</time>
      </trkpt>
      <trkpt lat="42.50459" lon="-0.13981">
        <ele>1195.6</ele>
        <time>2017-08-13T09:52:38Z</time>
      </trkpt>
      <trkpt lat="42.50464" lon="-0.13983">
        <ele>1196.7</ele>
        <time>2017-08-13T09:52:40Z</time>
      </trkpt>
      <trkpt lat="42.50468" lon="-0.13986">
        <ele>1196.8</ele>
        <time>2017-08-13T09:52:42Z</time>
      </trkpt>
      <trkpt lat="42.50472" lon="-0.13989">
        <ele>1197.7</ele>
        <time>2017-08-13T09:52:44Z</time>
      </trkpt>
      <trkpt lat="42.50474" lon="-0.13991">
        <ele>1198.4</ele>
        <time>2017-08-13T09:52:45Z</time>
      </trkpt>
      <trkpt lat="42.50476" lon="-0.13993">
        <ele>1198.4</ele>
        <time>2017-08-13T09:52:46Z</time>
      </trkpt>
      <trkpt lat="42.5048" lon="-0.13998">
        <ele>1198.8</ele>
        <time>2017-08-13T09:52:48Z</time>
      </trkpt>
      <trkpt lat="42.50485" lon="-0.14">
        <ele>1199.1</ele>
        <time>2017-08-13T09:52:50Z</time>
      </trkpt>
      <trkpt lat="42.50487" lon="-0.14001">
        <ele>1199</ele>
        <time>2017-08-13T09:52:51Z</time>
      </trkpt>
      <trkpt lat="42.50491" lon="-0.14003">
        <ele>1198.9</ele>
        <time>2017-08-13T09:52:52Z</time>
      </trkpt>
      <trkpt lat="42.50494" lon="-0.14004">
        <ele>1199.3</ele>
        <time>2017-08-13T09:52:53Z</time>
      </trkpt>
      <trkpt lat="42.50496" lon="-0.14005">
        <ele>1199.1</ele>
        <time>2017-08-13T09:52:54Z</time>
      </trkpt>
      <trkpt lat="42.50499" lon="-0.14007">
        <ele>1198.9</ele>
        <time>2017-08-13T09:52:55Z</time>
      </trkpt>
      <trkpt lat="42.50502" lon="-0.14009">
        <ele>1199.6</ele>
        <time>2017-08-13T09:52:56Z</time>
      </trkpt>
      <trkpt lat="42.50504" lon="-0.14011">
        <ele>1199.3</ele>
        <time>2017-08-13T09:52:57Z</time>
      </trkpt>
      <trkpt lat="42.50507" lon="-0.14012">
        <ele>1200.5</ele>
        <time>2017-08-13T09:52:58Z</time>
      </trkpt>
      <trkpt lat="42.5051" lon="-0.14014">
        <ele>1200.2</ele>
        <time>2017-08-13T09:52:59Z</time>
      </trkpt>
      <trkpt lat="42.50515" lon="-0.14016">
        <ele>1199.4</ele>
        <time>2017-08-13T09:53:01Z</time>
      </trkpt>
      <trkpt lat="42.50519" lon="-0.14019">
        <ele>1200.2</ele>
        <time>2017-08-13T09:53:03Z</time>
      </trkpt>
      <trkpt lat="42.50523" lon="-0.14023">
        <ele>1200.8</ele>
        <time>2017-08-13T09:53:05Z</time>
      </trkpt>
      <trkpt lat="42.50526" lon="-0.14027">
        <ele>1202</ele>
        <time>2017-08-13T09:53:07Z</time>
      </trkpt>
      <trkpt lat="42.50529" lon="-0.14032">
        <ele>1203.1</ele>
        <time>2017-08-13T09:53:09Z</time>
      </trkpt>
      <trkpt lat="42.50531" lon="-0.14035">
        <ele>1204.4</ele>
        <time>2017-08-13T09:53:11Z</time>
      </trkpt>
      <trkpt lat="42.50533" lon="-0.14039">
        <ele>1205.8</ele>
        <time>2017-08-13T09:53:13Z</time>
      </trkpt>
      <trkpt lat="42.50535" lon="-0.14042">
        <ele>1207.6</ele>
        <time>2017-08-13T09:53:15Z</time>
      </trkpt>
      <trkpt lat="42.50537" lon="-0.14045">
        <ele>1207.2</ele>
        <time>2017-08-13T09:53:17Z</time>
      </trkpt>
      <trkpt lat="42.5054" lon="-0.14048">
        <ele>1208.5</ele>
        <time>2017-08-13T09:53:19Z</time>
      </trkpt>
      <trkpt lat="42.50543" lon="-0.1405">
        <ele>1208.1</ele>
        <time>2017-08-13T09:53:21Z</time>
      </trkpt>
      <trkpt lat="42.50546" lon="-0.1405">
        <ele>1207.7</ele>
        <time>2017-08-13T09:53:23Z</time>
      </trkpt>
      <trkpt lat="42.5055" lon="-0.1405">
        <ele>1207.4</ele>
        <time>2017-08-13T09:53:25Z</time>
      </trkpt>
      <trkpt lat="42.50555" lon="-0.1405">
        <ele>1207</ele>
        <time>2017-08-13T09:53:27Z</time>
      </trkpt>
      <trkpt lat="42.50558" lon="-0.14051">
        <ele>1208</ele>
        <time>2017-08-13T09:53:29Z</time>
      </trkpt>
      <trkpt lat="42.50562" lon="-0.14051">
        <ele>1207.8</ele>
        <time>2017-08-13T09:53:31Z</time>
      </trkpt>
      <trkpt lat="42.50566" lon="-0.14052">
        <ele>1207.7</ele>
        <time>2017-08-13T09:53:33Z</time>
      </trkpt>
      <trkpt lat="42.5057" lon="-0.14055">
        <ele>1207.6</ele>
        <time>2017-08-13T09:53:35Z</time>
      </trkpt>
      <trkpt lat="42.50573" lon="-0.14057">
        <ele>1208.4</ele>
        <time>2017-08-13T09:53:37Z</time>
      </trkpt>
      <trkpt lat="42.50577" lon="-0.14059">
        <ele>1208.3</ele>
        <time>2017-08-13T09:53:39Z</time>
      </trkpt>
      <trkpt lat="42.5058" lon="-0.14061">
        <ele>1209.1</ele>
        <time>2017-08-13T09:53:41Z</time>
      </trkpt>
      <trkpt lat="42.50584" lon="-0.14063">
        <ele>1209.1</ele>
        <time>2017-08-13T09:53:43Z</time>
      </trkpt>
      <trkpt lat="42.50587" lon="-0.14066">
        <ele>1210.1</ele>
        <time>2017-08-13T09:53:45Z</time>
      </trkpt>
      <trkpt lat="42.50592" lon="-0.14069">
        <ele>1211.1</ele>
        <time>2017-08-13T09:53:47Z</time>
      </trkpt>
      <trkpt lat="42.50596" lon="-0.1407">
        <ele>1211.1</ele>
        <time>2017-08-13T09:53:49Z</time>
      </trkpt>
      <trkpt lat="42.50601" lon="-0.14073">
        <ele>1212.1</ele>
        <time>2017-08-13T09:54:06Z</time>
      </trkpt>
      <trkpt lat="42.50606" lon="-0.14076">
        <ele>1212</ele>
        <time>2017-08-13T09:54:41Z</time>
      </trkpt>
      <trkpt lat="42.5061" lon="-0.14077">
        <ele>1213</ele>
        <time>2017-08-13T09:54:43Z</time>
      </trkpt>
      <trkpt lat="42.50615" lon="-0.14077">
        <ele>1212.6</ele>
        <time>2017-08-13T09:54:45Z</time>
      </trkpt>
      <trkpt lat="42.5062" lon="-0.14078">
        <ele>1212.3</ele>
        <time>2017-08-13T09:54:47Z</time>
      </trkpt>
      <trkpt lat="42.50623" lon="-0.1408">
        <ele>1211.9</ele>
        <time>2017-08-13T09:54:49Z</time>
      </trkpt>
      <trkpt lat="42.50625" lon="-0.14084">
        <ele>1212.8</ele>
        <time>2017-08-13T09:54:51Z</time>
      </trkpt>
      <trkpt lat="42.50628" lon="-0.14088">
        <ele>1213.8</ele>
        <time>2017-08-13T09:54:53Z</time>
      </trkpt>
      <trkpt lat="42.5063" lon="-0.1409">
        <ele>1215.3</ele>
        <time>2017-08-13T09:54:55Z</time>
      </trkpt>
      <trkpt lat="42.50634" lon="-0.14091">
        <ele>1215.2</ele>
        <time>2017-08-13T09:54:57Z</time>
      </trkpt>
      <trkpt lat="42.50638" lon="-0.1409">
        <ele>1215.3</ele>
        <time>2017-08-13T09:54:59Z</time>
      </trkpt>
      <trkpt lat="42.50642" lon="-0.14089">
        <ele>1215.3</ele>
        <time>2017-08-13T09:55:01Z</time>
      </trkpt>
      <trkpt lat="42.50646" lon="-0.14087">
        <ele>1213.3</ele>
        <time>2017-08-13T09:55:03Z</time>
      </trkpt>
      <trkpt lat="42.5065" lon="-0.14084">
        <ele>1211.2</ele>
        <time>2017-08-13T09:55:05Z</time>
      </trkpt>
      <trkpt lat="42.50655" lon="-0.14081">
        <ele>1211.1</ele>
        <time>2017-08-13T09:55:07Z</time>
      </trkpt>
      <trkpt lat="42.50659" lon="-0.14079">
        <ele>1209.1</ele>
        <time>2017-08-13T09:55:09Z</time>
      </trkpt>
      <trkpt lat="42.50663" lon="-0.14079">
        <ele>1209.3</ele>
        <time>2017-08-13T09:55:11Z</time>
      </trkpt>
      <trkpt lat="42.50667" lon="-0.14078">
        <ele>1209.5</ele>
        <time>2017-08-13T09:55:13Z</time>
      </trkpt>
      <trkpt lat="42.5067" lon="-0.14078">
        <ele>1209.8</ele>
        <time>2017-08-13T09:55:15Z</time>
      </trkpt>
      <trkpt lat="42.50673" lon="-0.1408">
        <ele>1210.2</ele>
        <time>2017-08-13T09:56:07Z</time>
      </trkpt>
      <trkpt lat="42.50676" lon="-0.14079">
        <ele>1210.7</ele>
        <time>2017-08-13T09:56:11Z</time>
      </trkpt>
      <trkpt lat="42.5068" lon="-0.14079">
        <ele>1211.2</ele>
        <time>2017-08-13T09:56:15Z</time>
      </trkpt>
      <trkpt lat="42.50683" lon="-0.14077">
        <ele>1211.6</ele>
        <time>2017-08-13T09:56:18Z</time>
      </trkpt>
      <trkpt lat="42.50687" lon="-0.14077">
        <ele>1212.1</ele>
        <time>2017-08-13T09:56:20Z</time>
      </trkpt>
      <trkpt lat="42.5069" lon="-0.14077">
        <ele>1212.4</ele>
        <time>2017-08-13T09:56:22Z</time>
      </trkpt>
      <trkpt lat="42.50694" lon="-0.14076">
        <ele>1212.7</ele>
        <time>2017-08-13T09:56:24Z</time>
      </trkpt>
      <trkpt lat="42.50699" lon="-0.14078">
        <ele>1212.8</ele>
        <time>2017-08-13T09:56:26Z</time>
      </trkpt>
      <trkpt lat="42.50704" lon="-0.1408">
        <ele>1212.6</ele>
        <time>2017-08-13T09:56:28Z</time>
      </trkpt>
      <trkpt lat="42.50708" lon="-0.1408">
        <ele>1212.6</ele>
        <time>2017-08-13T09:56:30Z</time>
      </trkpt>
      <trkpt lat="42.50711" lon="-0.1408">
        <ele>1212.5</ele>
        <time>2017-08-13T09:56:32Z</time>
      </trkpt>
      <trkpt lat="42.50716" lon="-0.14079">
        <ele>1212.5</ele>
        <time>2017-08-13T09:56:34Z</time>
      </trkpt>
      <trkpt lat="42.5072" lon="-0.1408">
        <ele>1212.6</ele>
        <time>2017-08-13T09:56:36Z</time>
      </trkpt>
      <trkpt lat="42.50724" lon="-0.1408">
        <ele>1212.7</ele>
        <time>2017-08-13T09:56:38Z</time>
      </trkpt>
      <trkpt lat="42.50728" lon="-0.14079">
        <ele>1213</ele>
        <time>2017-08-13T09:56:40Z</time>
      </trkpt>
      <trkpt lat="42.50732" lon="-0.14079">
        <ele>1213.5</ele>
        <time>2017-08-13T09:56:41Z</time>
      </trkpt>
      <trkpt lat="42.50734" lon="-0.14079">
        <ele>1214.2</ele>
        <time>2017-08-13T09:56:42Z</time>
      </trkpt>
      <trkpt lat="42.50739" lon="-0.14078">
        <ele>1216</ele>
        <time>2017-08-13T09:56:44Z</time>
      </trkpt>
      <trkpt lat="42.50744" lon="-0.14079">
        <ele>1217</ele>
        <time>2017-08-13T09:56:46Z</time>
      </trkpt>
      <trkpt lat="42.50749" lon="-0.1408">
        <ele>1219.1</ele>
        <time>2017-08-13T09:56:48Z</time>
      </trkpt>
      <trkpt lat="42.50755" lon="-0.1408">
        <ele>1221.3</ele>
        <time>2017-08-13T09:56:50Z</time>
      </trkpt>
      <trkpt lat="42.50758" lon="-0.1408">
        <ele>1222.5</ele>
        <time>2017-08-13T09:56:51Z</time>
      </trkpt>
      <trkpt lat="42.50762" lon="-0.1408">
        <ele>1223.8</ele>
        <time>2017-08-13T09:56:52Z</time>
      </trkpt>
      <trkpt lat="42.50765" lon="-0.1408">
        <ele>1225.2</ele>
        <time>2017-08-13T09:56:53Z</time>
      </trkpt>
      <trkpt lat="42.50769" lon="-0.14081">
        <ele>1228.8</ele>
        <time>2017-08-13T09:56:55Z</time>
      </trkpt>
      <trkpt lat="42.50773" lon="-0.14084">
        <ele>1230.1</ele>
        <time>2017-08-13T09:56:57Z</time>
      </trkpt>
      <trkpt lat="42.50775" lon="-0.14085">
        <ele>1233.4</ele>
        <time>2017-08-13T09:56:59Z</time>
      </trkpt>
      <trkpt lat="42.50779" lon="-0.14085">
        <ele>1234.7</ele>
        <time>2017-08-13T09:57:01Z</time>
      </trkpt>
      <trkpt lat="42.50783" lon="-0.14084">
        <ele>1235.3</ele>
        <time>2017-08-13T09:57:03Z</time>
      </trkpt>
      <trkpt lat="42.50788" lon="-0.14081">
        <ele>1236.6</ele>
        <time>2017-08-13T09:57:05Z</time>
      </trkpt>
      <trkpt lat="42.50791" lon="-0.14078">
        <ele>1236</ele>
        <time>2017-08-13T09:57:07Z</time>
      </trkpt>
      <trkpt lat="42.50795" lon="-0.14076">
        <ele>1234.8</ele>
        <time>2017-08-13T09:57:09Z</time>
      </trkpt>
      <trkpt lat="42.50799" lon="-0.14074">
        <ele>1237.2</ele>
        <time>2017-08-13T09:57:11Z</time>
      </trkpt>
      <trkpt lat="42.50802" lon="-0.14071">
        <ele>1235.4</ele>
        <time>2017-08-13T09:57:13Z</time>
      </trkpt>
      <trkpt lat="42.50806" lon="-0.14067">
        <ele>1233.4</ele>
        <time>2017-08-13T09:57:15Z</time>
      </trkpt>
      <trkpt lat="42.50809" lon="-0.14064">
        <ele>1234.3</ele>
        <time>2017-08-13T09:57:17Z</time>
      </trkpt>
      <trkpt lat="42.50812" lon="-0.14062">
        <ele>1232.6</ele>
        <time>2017-08-13T09:57:33Z</time>
      </trkpt>
      <trkpt lat="42.50814" lon="-0.14058">
        <ele>1230.1</ele>
        <time>2017-08-13T09:57:43Z</time>
      </trkpt>
      <trkpt lat="42.50816" lon="-0.14054">
        <ele>1228.9</ele>
        <time>2017-08-13T09:57:45Z</time>
      </trkpt>
      <trkpt lat="42.50819" lon="-0.14051">
        <ele>1230</ele>
        <time>2017-08-13T09:57:47Z</time>
      </trkpt>
      <trkpt lat="42.50822" lon="-0.14047">
        <ele>1228.4</ele>
        <time>2017-08-13T09:57:49Z</time>
      </trkpt>
      <trkpt lat="42.50826" lon="-0.14044">
        <ele>1226.5</ele>
        <time>2017-08-13T09:57:51Z</time>
      </trkpt>
      <trkpt lat="42.50831" lon="-0.14041">
        <ele>1225</ele>
        <time>2017-08-13T09:57:53Z</time>
      </trkpt>
      <trkpt lat="42.50835" lon="-0.14039">
        <ele>1225.7</ele>
        <time>2017-08-13T09:57:55Z</time>
      </trkpt>
      <trkpt lat="42.50839" lon="-0.14038">
        <ele>1226.4</ele>
        <time>2017-08-13T09:57:57Z</time>
      </trkpt>
      <trkpt lat="42.50842" lon="-0.14037">
        <ele>1224</ele>
        <time>2017-08-13T09:58:10Z</time>
      </trkpt>
      <trkpt lat="42.50844" lon="-0.14036">
        <ele>1224.6</ele>
        <time>2017-08-13T09:58:18Z</time>
      </trkpt>
      <trkpt lat="42.50848" lon="-0.14035">
        <ele>1225.2</ele>
        <time>2017-08-13T09:58:23Z</time>
      </trkpt>
      <trkpt lat="42.50851" lon="-0.14036">
        <ele>1225.7</ele>
        <time>2017-08-13T09:58:27Z</time>
      </trkpt>
      <trkpt lat="42.50854" lon="-0.14037">
        <ele>1226.1</ele>
        <time>2017-08-13T09:58:30Z</time>
      </trkpt>
      <trkpt lat="42.50857" lon="-0.14036">
        <ele>1226.4</ele>
        <time>2017-08-13T09:58:33Z</time>
      </trkpt>
      <trkpt lat="42.5086" lon="-0.14036">
        <ele>1226.5</ele>
        <time>2017-08-13T09:58:36Z</time>
      </trkpt>
      <trkpt lat="42.50863" lon="-0.14036">
        <ele>1226.5</ele>
        <time>2017-08-13T09:58:41Z</time>
      </trkpt>
      <trkpt lat="42.50865" lon="-0.14036">
        <ele>1226.5</ele>
        <time>2017-08-13T09:58:43Z</time>
      </trkpt>
      <trkpt lat="42.50869" lon="-0.14035">
        <ele>1226.4</ele>
        <time>2017-08-13T09:58:45Z</time>
      </trkpt>
      <trkpt lat="42.50874" lon="-0.14035">
        <ele>1226.2</ele>
        <time>2017-08-13T09:58:47Z</time>
      </trkpt>
      <trkpt lat="42.50878" lon="-0.14034">
        <ele>1225.6</ele>
        <time>2017-08-13T09:58:49Z</time>
      </trkpt>
      <trkpt lat="42.50882" lon="-0.14034">
        <ele>1225.1</ele>
        <time>2017-08-13T09:58:51Z</time>
      </trkpt>
      <trkpt lat="42.50887" lon="-0.14034">
        <ele>1223.9</ele>
        <time>2017-08-13T09:58:53Z</time>
      </trkpt>
      <trkpt lat="42.50891" lon="-0.14034">
        <ele>1223.2</ele>
        <time>2017-08-13T09:58:54Z</time>
      </trkpt>
      <trkpt lat="42.50895" lon="-0.14033">
        <ele>1222.4</ele>
        <time>2017-08-13T09:58:55Z</time>
      </trkpt>
      <trkpt lat="42.50898" lon="-0.14033">
        <ele>1219</ele>
        <time>2017-08-13T09:58:56Z</time>
      </trkpt>
      <trkpt lat="42.50902" lon="-0.14033">
        <ele>1218</ele>
        <time>2017-08-13T09:58:57Z</time>
      </trkpt>
      <trkpt lat="42.50905" lon="-0.14033">
        <ele>1217</ele>
        <time>2017-08-13T09:58:58Z</time>
      </trkpt>
      <trkpt lat="42.5091" lon="-0.14034">
        <ele>1218.4</ele>
        <time>2017-08-13T09:59:00Z</time>
      </trkpt>
      <trkpt lat="42.50913" lon="-0.14034">
        <ele>1218</ele>
        <time>2017-08-13T09:59:01Z</time>
      </trkpt>
      <trkpt lat="42.50916" lon="-0.14036">
        <ele>1217.8</ele>
        <time>2017-08-13T09:59:02Z</time>
      </trkpt>
      <trkpt lat="42.5092" lon="-0.14038">
        <ele>1217.7</ele>
        <time>2017-08-13T09:59:03Z</time>
      </trkpt>
      <trkpt lat="42.50923" lon="-0.14039">
        <ele>1222.3</ele>
        <time>2017-08-13T09:59:04Z</time>
      </trkpt>
      <trkpt lat="42.50926" lon="-0.14041">
        <ele>1222.5</ele>
        <time>2017-08-13T09:59:05Z</time>
      </trkpt>
      <trkpt lat="42.50929" lon="-0.14041">
        <ele>1222.7</ele>
        <time>2017-08-13T09:59:06Z</time>
      </trkpt>
      <trkpt lat="42.50932" lon="-0.14042">
        <ele>1227.8</ele>
        <time>2017-08-13T09:59:07Z</time>
      </trkpt>
      <trkpt lat="42.50935" lon="-0.14043">
        <ele>1227.7</ele>
        <time>2017-08-13T09:59:09Z</time>
      </trkpt>
      <trkpt lat="42.50939" lon="-0.14044">
        <ele>1227.4</ele>
        <time>2017-08-13T09:59:11Z</time>
      </trkpt>
      <trkpt lat="42.50945" lon="-0.14045">
        <ele>1226.2</ele>
        <time>2017-08-13T09:59:13Z</time>
      </trkpt>
      <trkpt lat="42.50948" lon="-0.14046">
        <ele>1225.1</ele>
        <time>2017-08-13T09:59:14Z</time>
      </trkpt>
      <trkpt lat="42.50951" lon="-0.14048">
        <ele>1227.9</ele>
        <time>2017-08-13T09:59:15Z</time>
      </trkpt>
      <trkpt lat="42.50953" lon="-0.1405">
        <ele>1227.9</ele>
        <time>2017-08-13T09:59:16Z</time>
      </trkpt>
      <trkpt lat="42.50958" lon="-0.14054">
        <ele>1227.3</ele>
        <time>2017-08-13T09:59:18Z</time>
      </trkpt>
      <trkpt lat="42.50963" lon="-0.14057">
        <ele>1225.3</ele>
        <time>2017-08-13T09:59:20Z</time>
      </trkpt>
      <trkpt lat="42.50967" lon="-0.14058">
        <ele>1223</ele>
        <time>2017-08-13T09:59:21Z</time>
      </trkpt>
      <trkpt lat="42.5097" lon="-0.14059">
        <ele>1220.8</ele>
        <time>2017-08-13T09:59:22Z</time>
      </trkpt>
      <trkpt lat="42.50973" lon="-0.1406">
        <ele>1221.3</ele>
        <time>2017-08-13T09:59:23Z</time>
      </trkpt>
      <trkpt lat="42.50977" lon="-0.14062">
        <ele>1219.2</ele>
        <time>2017-08-13T09:59:24Z</time>
      </trkpt>
      <trkpt lat="42.50979" lon="-0.14065">
        <ele>1219.9</ele>
        <time>2017-08-13T09:59:25Z</time>
      </trkpt>
      <trkpt lat="42.50983" lon="-0.1407">
        <ele>1220.8</ele>
        <time>2017-08-13T09:59:27Z</time>
      </trkpt>
      <trkpt lat="42.50986" lon="-0.14075">
        <ele>1221.9</ele>
        <time>2017-08-13T09:59:29Z</time>
      </trkpt>
      <trkpt lat="42.50989" lon="-0.14078">
        <ele>1223.2</ele>
        <time>2017-08-13T09:59:32Z</time>
      </trkpt>
      <trkpt lat="42.50994" lon="-0.1408">
        <ele>1221.6</ele>
        <time>2017-08-13T09:59:34Z</time>
      </trkpt>
      <trkpt lat="42.50997" lon="-0.14081">
        <ele>1223.1</ele>
        <time>2017-08-13T09:59:35Z</time>
      </trkpt>
      <trkpt lat="42.51" lon="-0.14082">
        <ele>1221.8</ele>
        <time>2017-08-13T09:59:36Z</time>
      </trkpt>
      <trkpt lat="42.51003" lon="-0.14084">
        <ele>1220.7</ele>
        <time>2017-08-13T09:59:37Z</time>
      </trkpt>
      <trkpt lat="42.51007" lon="-0.14086">
        <ele>1222.4</ele>
        <time>2017-08-13T09:59:38Z</time>
      </trkpt>
      <trkpt lat="42.51009" lon="-0.14089">
        <ele>1221.1</ele>
        <time>2017-08-13T09:59:39Z</time>
      </trkpt>
      <trkpt lat="42.51011" lon="-0.14092">
        <ele>1222.7</ele>
        <time>2017-08-13T09:59:40Z</time>
      </trkpt>
      <trkpt lat="42.51013" lon="-0.14095">
        <ele>1225.8</ele>
        <time>2017-08-13T09:59:41Z</time>
      </trkpt>
      <trkpt lat="42.51016" lon="-0.141">
        <ele>1227.1</ele>
        <time>2017-08-13T09:59:43Z</time>
      </trkpt>
      <trkpt lat="42.51021" lon="-0.14104">
        <ele>1226</ele>
        <time>2017-08-13T09:59:45Z</time>
      </trkpt>
      <trkpt lat="42.51025" lon="-0.14108">
        <ele>1226.5</ele>
        <time>2017-08-13T09:59:46Z</time>
      </trkpt>
      <trkpt lat="42.51028" lon="-0.1411">
        <ele>1224.8</ele>
        <time>2017-08-13T09:59:47Z</time>
      </trkpt>
      <trkpt lat="42.51031" lon="-0.14113">
        <ele>1225.1</ele>
        <time>2017-08-13T09:59:48Z</time>
      </trkpt>
      <trkpt lat="42.51034" lon="-0.14115">
        <ele>1225.3</ele>
        <time>2017-08-13T09:59:49Z</time>
      </trkpt>
      <trkpt lat="42.51037" lon="-0.14117">
        <ele>1223.4</ele>
        <time>2017-08-13T09:59:50Z</time>
      </trkpt>
      <trkpt lat="42.51041" lon="-0.14119">
        <ele>1221.6</ele>
        <time>2017-08-13T09:59:51Z</time>
      </trkpt>
      <trkpt lat="42.51045" lon="-0.14122">
        <ele>1221.3</ele>
        <time>2017-08-13T09:59:52Z</time>
      </trkpt>
      <trkpt lat="42.51049" lon="-0.14125">
        <ele>1219.3</ele>
        <time>2017-08-13T09:59:53Z</time>
      </trkpt>
      <trkpt lat="42.51052" lon="-0.14127">
        <ele>1217.7</ele>
        <time>2017-08-13T09:59:54Z</time>
      </trkpt>
      <trkpt lat="42.51054" lon="-0.14129">
        <ele>1219.2</ele>
        <time>2017-08-13T09:59:55Z</time>
      </trkpt>
      <trkpt lat="42.51057" lon="-0.14134">
        <ele>1219.3</ele>
        <time>2017-08-13T09:59:57Z</time>
      </trkpt>
      <trkpt lat="42.51059" lon="-0.14137">
        <ele>1219.4</ele>
        <time>2017-08-13T09:59:58Z</time>
      </trkpt>
      <trkpt lat="42.51061" lon="-0.14143">
        <ele>1219.9</ele>
        <time>2017-08-13T10:00:00Z</time>
      </trkpt>
      <trkpt lat="42.51064" lon="-0.14146">
        <ele>1221.6</ele>
        <time>2017-08-13T10:00:02Z</time>
      </trkpt>
      <trkpt lat="42.51066" lon="-0.14149">
        <ele>1222.9</ele>
        <time>2017-08-13T10:00:04Z</time>
      </trkpt>
      <trkpt lat="42.51069" lon="-0.14153">
        <ele>1222.2</ele>
        <time>2017-08-13T10:00:07Z</time>
      </trkpt>
      <trkpt lat="42.51073" lon="-0.14158">
        <ele>1224</ele>
        <time>2017-08-13T10:00:10Z</time>
      </trkpt>
      <trkpt lat="42.51075" lon="-0.14161">
        <ele>1226</ele>
        <time>2017-08-13T10:00:12Z</time>
      </trkpt>
      <trkpt lat="42.51076" lon="-0.14165">
        <ele>1228.8</ele>
        <time>2017-08-13T10:00:19Z</time>
      </trkpt>
      <trkpt lat="42.51079" lon="-0.14166">
        <ele>1228.1</ele>
        <time>2017-08-13T10:00:24Z</time>
      </trkpt>
      <trkpt lat="42.51082" lon="-0.14167">
        <ele>1230.4</ele>
        <time>2017-08-13T10:00:26Z</time>
      </trkpt>
      <trkpt lat="42.51085" lon="-0.14168">
        <ele>1229.9</ele>
        <time>2017-08-13T10:00:28Z</time>
      </trkpt>
      <trkpt lat="42.51088" lon="-0.14169">
        <ele>1229.7</ele>
        <time>2017-08-13T10:00:33Z</time>
      </trkpt>
      <trkpt lat="42.51091" lon="-0.14168">
        <ele>1229.6</ele>
        <time>2017-08-13T10:00:42Z</time>
      </trkpt>
      <trkpt lat="42.51094" lon="-0.14168">
        <ele>1229.7</ele>
        <time>2017-08-13T10:00:49Z</time>
      </trkpt>
      <trkpt lat="42.51096" lon="-0.14171">
        <ele>1229.9</ele>
        <time>2017-08-13T10:00:53Z</time>
      </trkpt>
      <trkpt lat="42.51099" lon="-0.14175">
        <ele>1232.1</ele>
        <time>2017-08-13T10:00:58Z</time>
      </trkpt>
      <trkpt lat="42.51104" lon="-0.14178">
        <ele>1234.5</ele>
        <time>2017-08-13T10:01:00Z</time>
      </trkpt>
      <trkpt lat="42.51109" lon="-0.14179">
        <ele>1235.3</ele>
        <time>2017-08-13T10:01:02Z</time>
      </trkpt>
      <trkpt lat="42.51112" lon="-0.14179">
        <ele>1235.9</ele>
        <time>2017-08-13T10:01:03Z</time>
      </trkpt>
      <trkpt lat="42.51117" lon="-0.1418">
        <ele>1238.1</ele>
        <time>2017-08-13T10:01:05Z</time>
      </trkpt>
      <trkpt lat="42.51119" lon="-0.14183">
        <ele>1238.7</ele>
        <time>2017-08-13T10:01:09Z</time>
      </trkpt>
      <trkpt lat="42.51121" lon="-0.14186">
        <ele>1241</ele>
        <time>2017-08-13T10:01:15Z</time>
      </trkpt>
      <trkpt lat="42.51124" lon="-0.14185">
        <ele>1241.8</ele>
        <time>2017-08-13T10:01:19Z</time>
      </trkpt>
      <trkpt lat="42.51127" lon="-0.14185">
        <ele>1241.8</ele>
        <time>2017-08-13T10:01:27Z</time>
      </trkpt>
      <trkpt lat="42.5113" lon="-0.14182">
        <ele>1241.1</ele>
        <time>2017-08-13T10:01:30Z</time>
      </trkpt>
      <trkpt lat="42.51133" lon="-0.14179">
        <ele>1240.3</ele>
        <time>2017-08-13T10:01:32Z</time>
      </trkpt>
      <trkpt lat="42.51136" lon="-0.14175">
        <ele>1239.4</ele>
        <time>2017-08-13T10:01:34Z</time>
      </trkpt>
      <trkpt lat="42.51139" lon="-0.14171">
        <ele>1240.1</ele>
        <time>2017-08-13T10:01:36Z</time>
      </trkpt>
      <trkpt lat="42.51142" lon="-0.14169">
        <ele>1239.2</ele>
        <time>2017-08-13T10:01:38Z</time>
      </trkpt>
      <trkpt lat="42.51145" lon="-0.14165">
        <ele>1238.3</ele>
        <time>2017-08-13T10:01:40Z</time>
      </trkpt>
      <trkpt lat="42.51149" lon="-0.1416">
        <ele>1237</ele>
        <time>2017-08-13T10:01:42Z</time>
      </trkpt>
      <trkpt lat="42.51153" lon="-0.14156">
        <ele>1236.5</ele>
        <time>2017-08-13T10:01:44Z</time>
      </trkpt>
      <trkpt lat="42.51157" lon="-0.14153">
        <ele>1235</ele>
        <time>2017-08-13T10:01:46Z</time>
      </trkpt>
      <trkpt lat="42.51161" lon="-0.14147">
        <ele>1233.5</ele>
        <time>2017-08-13T10:01:48Z</time>
      </trkpt>
      <trkpt lat="42.51163" lon="-0.14143">
        <ele>1232.1</ele>
        <time>2017-08-13T10:01:49Z</time>
      </trkpt>
      <trkpt lat="42.51165" lon="-0.14138">
        <ele>1229.8</ele>
        <time>2017-08-13T10:01:50Z</time>
      </trkpt>
      <trkpt lat="42.51168" lon="-0.14134">
        <ele>1228.5</ele>
        <time>2017-08-13T10:01:51Z</time>
      </trkpt>
      <trkpt lat="42.51171" lon="-0.1413">
        <ele>1226.8</ele>
        <time>2017-08-13T10:01:52Z</time>
      </trkpt>
      <trkpt lat="42.51174" lon="-0.14126">
        <ele>1225.1</ele>
        <time>2017-08-13T10:01:53Z</time>
      </trkpt>
      <trkpt lat="42.51177" lon="-0.14121">
        <ele>1223.4</ele>
        <time>2017-08-13T10:01:54Z</time>
      </trkpt>
      <trkpt lat="42.5118" lon="-0.14117">
        <ele>1222</ele>
        <time>2017-08-13T10:01:55Z</time>
      </trkpt>
      <trkpt lat="42.51184" lon="-0.14114">
        <ele>1220.9</ele>
        <time>2017-08-13T10:01:56Z</time>
      </trkpt>
      <trkpt lat="42.51187" lon="-0.14111">
        <ele>1222</ele>
        <time>2017-08-13T10:01:57Z</time>
      </trkpt>
      <trkpt lat="42.51191" lon="-0.14109">
        <ele>1222.1</ele>
        <time>2017-08-13T10:01:58Z</time>
      </trkpt>
      <trkpt lat="42.51194" lon="-0.14108">
        <ele>1223</ele>
        <time>2017-08-13T10:01:59Z</time>
      </trkpt>
      <trkpt lat="42.51199" lon="-0.14108">
        <ele>1223.8</ele>
        <time>2017-08-13T10:02:01Z</time>
      </trkpt>
      <trkpt lat="42.51203" lon="-0.14109">
        <ele>1224.7</ele>
        <time>2017-08-13T10:02:03Z</time>
      </trkpt>
      <trkpt lat="42.51207" lon="-0.14109">
        <ele>1226.3</ele>
        <time>2017-08-13T10:02:05Z</time>
      </trkpt>
      <trkpt lat="42.51211" lon="-0.14108">
        <ele>1227</ele>
        <time>2017-08-13T10:02:07Z</time>
      </trkpt>
      <trkpt lat="42.51213" lon="-0.14108">
        <ele>1227.6</ele>
        <time>2017-08-13T10:02:14Z</time>
      </trkpt>
      <trkpt lat="42.51216" lon="-0.14109">
        <ele>1228.1</ele>
        <time>2017-08-13T10:02:18Z</time>
      </trkpt>
      <trkpt lat="42.51219" lon="-0.1411">
        <ele>1228.5</ele>
        <time>2017-08-13T10:02:22Z</time>
      </trkpt>
      <trkpt lat="42.51223" lon="-0.14111">
        <ele>1231</ele>
        <time>2017-08-13T10:02:29Z</time>
      </trkpt>
      <trkpt lat="42.51226" lon="-0.14112">
        <ele>1231.4</ele>
        <time>2017-08-13T10:02:31Z</time>
      </trkpt>
      <trkpt lat="42.5123" lon="-0.14113">
        <ele>1231.8</ele>
        <time>2017-08-13T10:02:33Z</time>
      </trkpt>
      <trkpt lat="42.51233" lon="-0.14115">
        <ele>1232.2</ele>
        <time>2017-08-13T10:02:35Z</time>
      </trkpt>
      <trkpt lat="42.51236" lon="-0.14117">
        <ele>1235.6</ele>
        <time>2017-08-13T10:02:37Z</time>
      </trkpt>
      <trkpt lat="42.51239" lon="-0.14119">
        <ele>1239.8</ele>
        <time>2017-08-13T10:02:40Z</time>
      </trkpt>
      <trkpt lat="42.51243" lon="-0.14122">
        <ele>1240.2</ele>
        <time>2017-08-13T10:02:43Z</time>
      </trkpt>
      <trkpt lat="42.51245" lon="-0.14125">
        <ele>1244.7</ele>
        <time>2017-08-13T10:02:45Z</time>
      </trkpt>
      <trkpt lat="42.51248" lon="-0.14127">
        <ele>1244.6</ele>
        <time>2017-08-13T10:02:47Z</time>
      </trkpt>
      <trkpt lat="42.51251" lon="-0.14129">
        <ele>1248.8</ele>
        <time>2017-08-13T10:02:49Z</time>
      </trkpt>
      <trkpt lat="42.51253" lon="-0.14131">
        <ele>1248.2</ele>
        <time>2017-08-13T10:02:51Z</time>
      </trkpt>
      <trkpt lat="42.51256" lon="-0.14133">
        <ele>1250.7</ele>
        <time>2017-08-13T10:02:53Z</time>
      </trkpt>
      <trkpt lat="42.51259" lon="-0.14135">
        <ele>1249.4</ele>
        <time>2017-08-13T10:02:55Z</time>
      </trkpt>
      <trkpt lat="42.51263" lon="-0.14137">
        <ele>1250.2</ele>
        <time>2017-08-13T10:02:57Z</time>
      </trkpt>
      <trkpt lat="42.51265" lon="-0.14139">
        <ele>1248.2</ele>
        <time>2017-08-13T10:03:00Z</time>
      </trkpt>
      <trkpt lat="42.51268" lon="-0.14141">
        <ele>1248.5</ele>
        <time>2017-08-13T10:03:05Z</time>
      </trkpt>
      <trkpt lat="42.5127" lon="-0.14143">
        <ele>1246.6</ele>
        <time>2017-08-13T10:03:09Z</time>
      </trkpt>
      <trkpt lat="42.51273" lon="-0.14144">
        <ele>1244.9</ele>
        <time>2017-08-13T10:03:16Z</time>
      </trkpt>
      <trkpt lat="42.51276" lon="-0.14146">
        <ele>1247.7</ele>
        <time>2017-08-13T10:03:18Z</time>
      </trkpt>
      <trkpt lat="42.51278" lon="-0.14149">
        <ele>1246.3</ele>
        <time>2017-08-13T10:03:20Z</time>
      </trkpt>
      <trkpt lat="42.51281" lon="-0.14152">
        <ele>1248.6</ele>
        <time>2017-08-13T10:03:23Z</time>
      </trkpt>
      <trkpt lat="42.51284" lon="-0.14153">
        <ele>1247.9</ele>
        <time>2017-08-13T10:03:25Z</time>
      </trkpt>
      <trkpt lat="42.51287" lon="-0.14151">
        <ele>1247.4</ele>
        <time>2017-08-13T10:03:27Z</time>
      </trkpt>
      <trkpt lat="42.51291" lon="-0.14151">
        <ele>1247.2</ele>
        <time>2017-08-13T10:03:29Z</time>
      </trkpt>
      <trkpt lat="42.51296" lon="-0.1415">
        <ele>1247.3</ele>
        <time>2017-08-13T10:03:31Z</time>
      </trkpt>
      <trkpt lat="42.51299" lon="-0.14149">
        <ele>1244.6</ele>
        <time>2017-08-13T10:03:32Z</time>
      </trkpt>
      <trkpt lat="42.51304" lon="-0.14146">
        <ele>1245</ele>
        <time>2017-08-13T10:03:34Z</time>
      </trkpt>
      <trkpt lat="42.51308" lon="-0.14145">
        <ele>1245.7</ele>
        <time>2017-08-13T10:03:36Z</time>
      </trkpt>
      <trkpt lat="42.51312" lon="-0.14144">
        <ele>1243.5</ele>
        <time>2017-08-13T10:03:38Z</time>
      </trkpt>
      <trkpt lat="42.51316" lon="-0.14142">
        <ele>1244</ele>
        <time>2017-08-13T10:03:40Z</time>
      </trkpt>
      <trkpt lat="42.51319" lon="-0.14141">
        <ele>1242.2</ele>
        <time>2017-08-13T10:03:42Z</time>
      </trkpt>
      <trkpt lat="42.51323" lon="-0.14137">
        <ele>1243</ele>
        <time>2017-08-13T10:03:44Z</time>
      </trkpt>
      <trkpt lat="42.51326" lon="-0.14135">
        <ele>1241.6</ele>
        <time>2017-08-13T10:03:45Z</time>
      </trkpt>
      <trkpt lat="42.51331" lon="-0.14133">
        <ele>1244</ele>
        <time>2017-08-13T10:03:47Z</time>
      </trkpt>
      <trkpt lat="42.51334" lon="-0.14132">
        <ele>1243.1</ele>
        <time>2017-08-13T10:03:49Z</time>
      </trkpt>
      <trkpt lat="42.51337" lon="-0.14128">
        <ele>1244.4</ele>
        <time>2017-08-13T10:03:51Z</time>
      </trkpt>
      <trkpt lat="42.5134" lon="-0.14123">
        <ele>1241</ele>
        <time>2017-08-13T10:03:53Z</time>
      </trkpt>
      <trkpt lat="42.51344" lon="-0.14118">
        <ele>1240</ele>
        <time>2017-08-13T10:03:55Z</time>
      </trkpt>
      <trkpt lat="42.51347" lon="-0.14116">
        <ele>1241.2</ele>
        <time>2017-08-13T10:03:57Z</time>
      </trkpt>
      <trkpt lat="42.51351" lon="-0.14114">
        <ele>1240</ele>
        <time>2017-08-13T10:03:59Z</time>
      </trkpt>
      <trkpt lat="42.51356" lon="-0.14111">
        <ele>1241.7</ele>
        <time>2017-08-13T10:04:01Z</time>
      </trkpt>
      <trkpt lat="42.51359" lon="-0.14109">
        <ele>1240.4</ele>
        <time>2017-08-13T10:04:02Z</time>
      </trkpt>
      <trkpt lat="42.51362" lon="-0.14107">
        <ele>1241.1</ele>
        <time>2017-08-13T10:04:03Z</time>
      </trkpt>
      <trkpt lat="42.51365" lon="-0.14106">
        <ele>1239.7</ele>
        <time>2017-08-13T10:04:04Z</time>
      </trkpt>
      <trkpt lat="42.51367" lon="-0.14105">
        <ele>1239.7</ele>
        <time>2017-08-13T10:04:05Z</time>
      </trkpt>
      <trkpt lat="42.5137" lon="-0.14104">
        <ele>1240.6</ele>
        <time>2017-08-13T10:04:06Z</time>
      </trkpt>
      <trkpt lat="42.51373" lon="-0.14102">
        <ele>1241.6</ele>
        <time>2017-08-13T10:04:07Z</time>
      </trkpt>
      <trkpt lat="42.51376" lon="-0.14101">
        <ele>1240.6</ele>
        <time>2017-08-13T10:04:08Z</time>
      </trkpt>
      <trkpt lat="42.5138" lon="-0.14101">
        <ele>1242.8</ele>
        <time>2017-08-13T10:04:10Z</time>
      </trkpt>
      <trkpt lat="42.51383" lon="-0.141">
        <ele>1242.8</ele>
        <time>2017-08-13T10:04:12Z</time>
      </trkpt>
      <trkpt lat="42.51387" lon="-0.14098">
        <ele>1243.8</ele>
        <time>2017-08-13T10:04:15Z</time>
      </trkpt>
      <trkpt lat="42.51389" lon="-0.14096">
        <ele>1243.2</ele>
        <time>2017-08-13T10:04:17Z</time>
      </trkpt>
      <trkpt lat="42.51392" lon="-0.14095">
        <ele>1244.2</ele>
        <time>2017-08-13T10:04:19Z</time>
      </trkpt>
      <trkpt lat="42.51395" lon="-0.14093">
        <ele>1243.8</ele>
        <time>2017-08-13T10:04:21Z</time>
      </trkpt>
      <trkpt lat="42.51398" lon="-0.1409">
        <ele>1244.8</ele>
        <time>2017-08-13T10:04:23Z</time>
      </trkpt>
      <trkpt lat="42.514" lon="-0.14088">
        <ele>1244.6</ele>
        <time>2017-08-13T10:04:25Z</time>
      </trkpt>
      <trkpt lat="42.51402" lon="-0.14085">
        <ele>1243.8</ele>
        <time>2017-08-13T10:04:27Z</time>
      </trkpt>
      <trkpt lat="42.51405" lon="-0.14083">
        <ele>1244.6</ele>
        <time>2017-08-13T10:04:29Z</time>
      </trkpt>
      <trkpt lat="42.51408" lon="-0.1408">
        <ele>1244.8</ele>
        <time>2017-08-13T10:04:31Z</time>
      </trkpt>
      <trkpt lat="42.51411" lon="-0.14076">
        <ele>1244.9</ele>
        <time>2017-08-13T10:04:33Z</time>
      </trkpt>
      <trkpt lat="42.51413" lon="-0.14072">
        <ele>1245.1</ele>
        <time>2017-08-13T10:04:35Z</time>
      </trkpt>
      <trkpt lat="42.51416" lon="-0.14069">
        <ele>1245.6</ele>
        <time>2017-08-13T10:04:37Z</time>
      </trkpt>
      <trkpt lat="42.51418" lon="-0.14066">
        <ele>1245.2</ele>
        <time>2017-08-13T10:04:43Z</time>
      </trkpt>
      <trkpt lat="42.5142" lon="-0.14064">
        <ele>1245.5</ele>
        <time>2017-08-13T10:04:49Z</time>
      </trkpt>
      <trkpt lat="42.51423" lon="-0.14062">
        <ele>1245.2</ele>
        <time>2017-08-13T10:05:41Z</time>
      </trkpt>
      <trkpt lat="42.51427" lon="-0.14063">
        <ele>1245.1</ele>
        <time>2017-08-13T10:05:43Z</time>
      </trkpt>
      <trkpt lat="42.51431" lon="-0.14065">
        <ele>1245.1</ele>
        <time>2017-08-13T10:05:45Z</time>
      </trkpt>
      <trkpt lat="42.51436" lon="-0.14066">
        <ele>1244.5</ele>
        <time>2017-08-13T10:05:47Z</time>
      </trkpt>
      <trkpt lat="42.51438" lon="-0.14068">
        <ele>1244.9</ele>
        <time>2017-08-13T10:05:49Z</time>
      </trkpt>
      <trkpt lat="42.51441" lon="-0.1407">
        <ele>1244.2</ele>
        <time>2017-08-13T10:06:02Z</time>
      </trkpt>
      <trkpt lat="42.51443" lon="-0.14073">
        <ele>1245.3</ele>
        <time>2017-08-13T10:06:08Z</time>
      </trkpt>
      <trkpt lat="42.51446" lon="-0.14074">
        <ele>1244.7</ele>
        <time>2017-08-13T10:06:15Z</time>
      </trkpt>
      <trkpt lat="42.51449" lon="-0.14076">
        <ele>1244</ele>
        <time>2017-08-13T10:06:19Z</time>
      </trkpt>
      <trkpt lat="42.51452" lon="-0.14077">
        <ele>1244.5</ele>
        <time>2017-08-13T10:06:21Z</time>
      </trkpt>
      <trkpt lat="42.51454" lon="-0.14079">
        <ele>1243.7</ele>
        <time>2017-08-13T10:06:23Z</time>
      </trkpt>
      <trkpt lat="42.51457" lon="-0.1408">
        <ele>1242.8</ele>
        <time>2017-08-13T10:06:24Z</time>
      </trkpt>
      <trkpt lat="42.5146" lon="-0.1408">
        <ele>1241.9</ele>
        <time>2017-08-13T10:06:25Z</time>
      </trkpt>
      <trkpt lat="42.51463" lon="-0.14081">
        <ele>1242.1</ele>
        <time>2017-08-13T10:06:26Z</time>
      </trkpt>
      <trkpt lat="42.51466" lon="-0.14082">
        <ele>1242.1</ele>
        <time>2017-08-13T10:06:27Z</time>
      </trkpt>
      <trkpt lat="42.5147" lon="-0.14084">
        <ele>1240.3</ele>
        <time>2017-08-13T10:06:29Z</time>
      </trkpt>
      <trkpt lat="42.51473" lon="-0.14086">
        <ele>1240.5</ele>
        <time>2017-08-13T10:06:31Z</time>
      </trkpt>
      <trkpt lat="42.51478" lon="-0.14088">
        <ele>1239.6</ele>
        <time>2017-08-13T10:06:33Z</time>
      </trkpt>
      <trkpt lat="42.51482" lon="-0.14089">
        <ele>1237.7</ele>
        <time>2017-08-13T10:06:34Z</time>
      </trkpt>
      <trkpt lat="42.51487" lon="-0.1409">
        <ele>1237.7</ele>
        <time>2017-08-13T10:06:35Z</time>
      </trkpt>
      <trkpt lat="42.51491" lon="-0.14092">
        <ele>1235.7</ele>
        <time>2017-08-13T10:06:36Z</time>
      </trkpt>
      <trkpt lat="42.51497" lon="-0.14094">
        <ele>1235.7</ele>
        <time>2017-08-13T10:06:37Z</time>
      </trkpt>
      <trkpt lat="42.51502" lon="-0.14096">
        <ele>1234.2</ele>
        <time>2017-08-13T10:06:38Z</time>
      </trkpt>
      <trkpt lat="42.51507" lon="-0.14097">
        <ele>1232.7</ele>
        <time>2017-08-13T10:06:39Z</time>
      </trkpt>
      <trkpt lat="42.51511" lon="-0.14099">
        <ele>1232.5</ele>
        <time>2017-08-13T10:06:40Z</time>
      </trkpt>
      <trkpt lat="42.51514" lon="-0.141">
        <ele>1231.7</ele>
        <time>2017-08-13T10:06:41Z</time>
      </trkpt>
      <trkpt lat="42.51518" lon="-0.14102">
        <ele>1231.1</ele>
        <time>2017-08-13T10:06:43Z</time>
      </trkpt>
      <trkpt lat="42.51521" lon="-0.14101">
        <ele>1230.5</ele>
        <time>2017-08-13T10:06:45Z</time>
      </trkpt>
      <trkpt lat="42.51523" lon="-0.14099">
        <ele>1230</ele>
        <time>2017-08-13T10:06:47Z</time>
      </trkpt>
      <trkpt lat="42.51525" lon="-0.14095">
        <ele>1229.4</ele>
        <time>2017-08-13T10:06:50Z</time>
      </trkpt>
      <trkpt lat="42.5153" lon="-0.14094">
        <ele>1228.5</ele>
        <time>2017-08-13T10:06:53Z</time>
      </trkpt>
      <trkpt lat="42.51533" lon="-0.14094">
        <ele>1227.9</ele>
        <time>2017-08-13T10:06:54Z</time>
      </trkpt>
      <trkpt lat="42.51536" lon="-0.14096">
        <ele>1227.3</ele>
        <time>2017-08-13T10:06:55Z</time>
      </trkpt>
      <trkpt lat="42.5154" lon="-0.14099">
        <ele>1227.3</ele>
        <time>2017-08-13T10:06:57Z</time>
      </trkpt>
      <trkpt lat="42.51545" lon="-0.14102">
        <ele>1225.8</ele>
        <time>2017-08-13T10:06:59Z</time>
      </trkpt>
      <trkpt lat="42.51549" lon="-0.14103">
        <ele>1226.2</ele>
        <time>2017-08-13T10:07:00Z</time>
      </trkpt>
      <trkpt lat="42.51553" lon="-0.14105">
        <ele>1225.5</ele>
        <time>2017-08-13T10:07:01Z</time>
      </trkpt>
      <trkpt lat="42.51557" lon="-0.14106">
        <ele>1224.8</ele>
        <time>2017-08-13T10:07:02Z</time>
      </trkpt>
      <trkpt lat="42.5156" lon="-0.14107">
        <ele>1225.4</ele>
        <time>2017-08-13T10:07:03Z</time>
      </trkpt>
      <trkpt lat="42.51563" lon="-0.14109">
        <ele>1224.5</ele>
        <time>2017-08-13T10:07:04Z</time>
      </trkpt>
      <trkpt lat="42.51568" lon="-0.1411">
        <ele>1222.5</ele>
        <time>2017-08-13T10:07:06Z</time>
      </trkpt>
      <trkpt lat="42.51571" lon="-0.14111">
        <ele>1223.1</ele>
        <time>2017-08-13T10:07:07Z</time>
      </trkpt>
      <trkpt lat="42.51574" lon="-0.14113">
        <ele>1222.1</ele>
        <time>2017-08-13T10:07:09Z</time>
      </trkpt>
      <trkpt lat="42.51578" lon="-0.14114">
        <ele>1221.1</ele>
        <time>2017-08-13T10:07:11Z</time>
      </trkpt>
      <trkpt lat="42.51582" lon="-0.14114">
        <ele>1220.3</ele>
        <time>2017-08-13T10:07:12Z</time>
      </trkpt>
      <trkpt lat="42.51585" lon="-0.14114">
        <ele>1219.5</ele>
        <time>2017-08-13T10:07:13Z</time>
      </trkpt>
      <trkpt lat="42.51589" lon="-0.14113">
        <ele>1218.8</ele>
        <time>2017-08-13T10:07:14Z</time>
      </trkpt>
      <trkpt lat="42.51592" lon="-0.14113">
        <ele>1218.1</ele>
        <time>2017-08-13T10:07:15Z</time>
      </trkpt>
      <trkpt lat="42.51595" lon="-0.14113">
        <ele>1217.4</ele>
        <time>2017-08-13T10:07:17Z</time>
      </trkpt>
      <trkpt lat="42.51599" lon="-0.14115">
        <ele>1216.2</ele>
        <time>2017-08-13T10:07:20Z</time>
      </trkpt>
      <trkpt lat="42.51602" lon="-0.14117">
        <ele>1218.8</ele>
        <time>2017-08-13T10:07:22Z</time>
      </trkpt>
      <trkpt lat="42.51604" lon="-0.14113">
        <ele>1215.8</ele>
        <time>2017-08-13T10:07:25Z</time>
      </trkpt>
      <trkpt lat="42.51603" lon="-0.14109">
        <ele>1213.4</ele>
        <time>2017-08-13T10:07:27Z</time>
      </trkpt>
      <trkpt lat="42.51599" lon="-0.14105">
        <ele>1211.5</ele>
        <time>2017-08-13T10:07:29Z</time>
      </trkpt>
      <trkpt lat="42.51596" lon="-0.14103">
        <ele>1212.1</ele>
        <time>2017-08-13T10:07:30Z</time>
      </trkpt>
      <trkpt lat="42.51592" lon="-0.14099">
        <ele>1211.4</ele>
        <time>2017-08-13T10:07:32Z</time>
      </trkpt>
      <trkpt lat="42.51589" lon="-0.14097">
        <ele>1210.1</ele>
        <time>2017-08-13T10:07:34Z</time>
      </trkpt>
      <trkpt lat="42.51586" lon="-0.14095">
        <ele>1211.1</ele>
        <time>2017-08-13T10:07:36Z</time>
      </trkpt>
      <trkpt lat="42.51584" lon="-0.14093">
        <ele>1209.3</ele>
        <time>2017-08-13T10:07:38Z</time>
      </trkpt>
      <trkpt lat="42.51581" lon="-0.14089">
        <ele>1208.8</ele>
        <time>2017-08-13T10:07:41Z</time>
      </trkpt>
      <trkpt lat="42.51577" lon="-0.14086">
        <ele>1210</ele>
        <time>2017-08-13T10:07:43Z</time>
      </trkpt>
      <trkpt lat="42.51575" lon="-0.14084">
        <ele>1210.2</ele>
        <time>2017-08-13T10:07:44Z</time>
      </trkpt>
      <trkpt lat="42.51572" lon="-0.14082">
        <ele>1211.6</ele>
        <time>2017-08-13T10:07:45Z</time>
      </trkpt>
      <trkpt lat="42.51569" lon="-0.14079">
        <ele>1212</ele>
        <time>2017-08-13T10:07:46Z</time>
      </trkpt>
      <trkpt lat="42.51567" lon="-0.14076">
        <ele>1212.3</ele>
        <time>2017-08-13T10:07:47Z</time>
      </trkpt>
      <trkpt lat="42.51565" lon="-0.14073">
        <ele>1212.3</ele>
        <time>2017-08-13T10:07:48Z</time>
      </trkpt>
      <trkpt lat="42.51564" lon="-0.14069">
        <ele>1212.5</ele>
        <time>2017-08-13T10:07:49Z</time>
      </trkpt>
      <trkpt lat="42.51562" lon="-0.14066">
        <ele>1211.1</ele>
        <time>2017-08-13T10:07:50Z</time>
      </trkpt>
      <trkpt lat="42.51561" lon="-0.14063">
        <ele>1211.5</ele>
        <time>2017-08-13T10:07:51Z</time>
      </trkpt>
      <trkpt lat="42.51559" lon="-0.14059">
        <ele>1210.4</ele>
        <time>2017-08-13T10:07:53Z</time>
      </trkpt>
      <trkpt lat="42.51557" lon="-0.14056">
        <ele>1212.1</ele>
        <time>2017-08-13T10:07:56Z</time>
      </trkpt>
      <trkpt lat="42.51554" lon="-0.14053">
        <ele>1212.8</ele>
        <time>2017-08-13T10:07:58Z</time>
      </trkpt>
      <trkpt lat="42.51551" lon="-0.14047">
        <ele>1213.4</ele>
        <time>2017-08-13T10:08:00Z</time>
      </trkpt>
      <trkpt lat="42.51549" lon="-0.14044">
        <ele>1212</ele>
        <time>2017-08-13T10:08:01Z</time>
      </trkpt>
      <trkpt lat="42.51547" lon="-0.1404">
        <ele>1212.1</ele>
        <time>2017-08-13T10:08:02Z</time>
      </trkpt>
      <trkpt lat="42.51546" lon="-0.14037">
        <ele>1210.3</ele>
        <time>2017-08-13T10:08:03Z</time>
      </trkpt>
      <trkpt lat="42.51545" lon="-0.1403">
        <ele>1208.4</ele>
        <time>2017-08-13T10:08:05Z</time>
      </trkpt>
      <trkpt lat="42.51545" lon="-0.14026">
        <ele>1208.1</ele>
        <time>2017-08-13T10:08:06Z</time>
      </trkpt>
      <trkpt lat="42.51544" lon="-0.14019">
        <ele>1203.5</ele>
        <time>2017-08-13T10:08:08Z</time>
      </trkpt>
      <trkpt lat="42.51542" lon="-0.14013">
        <ele>1201.9</ele>
        <time>2017-08-13T10:08:10Z</time>
      </trkpt>
      <trkpt lat="42.51542" lon="-0.14006">
        <ele>1194.6</ele>
        <time>2017-08-13T10:08:12Z</time>
      </trkpt>
      <trkpt lat="42.51543" lon="-0.14002">
        <ele>1191.6</ele>
        <time>2017-08-13T10:08:13Z</time>
      </trkpt>
      <trkpt lat="42.51544" lon="-0.13999">
        <ele>1188.8</ele>
        <time>2017-08-13T10:08:14Z</time>
      </trkpt>
      <trkpt lat="42.51545" lon="-0.13995">
        <ele>1188.8</ele>
        <time>2017-08-13T10:08:21Z</time>
      </trkpt>
      <trkpt lat="42.51543" lon="-0.13992">
        <ele>1185.8</ele>
        <time>2017-08-13T10:08:28Z</time>
      </trkpt>
      <trkpt lat="42.51542" lon="-0.13988">
        <ele>1184.4</ele>
        <time>2017-08-13T10:08:32Z</time>
      </trkpt>
      <trkpt lat="42.5154" lon="-0.13985">
        <ele>1181.4</ele>
        <time>2017-08-13T10:08:40Z</time>
      </trkpt>
      <trkpt lat="42.51538" lon="-0.13982">
        <ele>1183.3</ele>
        <time>2017-08-13T10:08:47Z</time>
      </trkpt>
      <trkpt lat="42.51537" lon="-0.13978">
        <ele>1180.6</ele>
        <time>2017-08-13T10:08:52Z</time>
      </trkpt>
      <trkpt lat="42.51537" lon="-0.13973">
        <ele>1175.9</ele>
        <time>2017-08-13T10:08:57Z</time>
      </trkpt>
      <trkpt lat="42.51535" lon="-0.13967">
        <ele>1175.6</ele>
        <time>2017-08-13T10:08:59Z</time>
      </trkpt>
      <trkpt lat="42.51534" lon="-0.13963">
        <ele>1173.2</ele>
        <time>2017-08-13T10:09:00Z</time>
      </trkpt>
      <trkpt lat="42.51532" lon="-0.1396">
        <ele>1172.5</ele>
        <time>2017-08-13T10:09:01Z</time>
      </trkpt>
      <trkpt lat="42.5153" lon="-0.13955">
        <ele>1170.2</ele>
        <time>2017-08-13T10:09:03Z</time>
      </trkpt>
      <trkpt lat="42.51528" lon="-0.13949">
        <ele>1169.8</ele>
        <time>2017-08-13T10:09:06Z</time>
      </trkpt>
      <trkpt lat="42.5153" lon="-0.13943">
        <ele>1165.8</ele>
        <time>2017-08-13T10:09:08Z</time>
      </trkpt>
      <trkpt lat="42.51531" lon="-0.13939">
        <ele>1164.9</ele>
        <time>2017-08-13T10:09:09Z</time>
      </trkpt>
      <trkpt lat="42.51531" lon="-0.13935">
        <ele>1164.1</ele>
        <time>2017-08-13T10:09:10Z</time>
      </trkpt>
      <trkpt lat="42.51531" lon="-0.13931">
        <ele>1164.1</ele>
        <time>2017-08-13T10:09:11Z</time>
      </trkpt>
      <trkpt lat="42.51531" lon="-0.13926">
        <ele>1163.5</ele>
        <time>2017-08-13T10:09:12Z</time>
      </trkpt>
      <trkpt lat="42.51531" lon="-0.13922">
        <ele>1163.2</ele>
        <time>2017-08-13T10:09:13Z</time>
      </trkpt>
      <trkpt lat="42.51528" lon="-0.13915">
        <ele>1165.3</ele>
        <time>2017-08-13T10:09:15Z</time>
      </trkpt>
      <trkpt lat="42.51526" lon="-0.1391">
        <ele>1165.4</ele>
        <time>2017-08-13T10:09:16Z</time>
      </trkpt>
      <trkpt lat="42.51524" lon="-0.13906">
        <ele>1167.1</ele>
        <time>2017-08-13T10:09:17Z</time>
      </trkpt>
      <trkpt lat="42.51522" lon="-0.13902">
        <ele>1168.5</ele>
        <time>2017-08-13T10:09:18Z</time>
      </trkpt>
      <trkpt lat="42.51521" lon="-0.13898">
        <ele>1167.9</ele>
        <time>2017-08-13T10:09:19Z</time>
      </trkpt>
      <trkpt lat="42.51519" lon="-0.13894">
        <ele>1168.7</ele>
        <time>2017-08-13T10:09:20Z</time>
      </trkpt>
      <trkpt lat="42.51518" lon="-0.1389">
        <ele>1168</ele>
        <time>2017-08-13T10:09:21Z</time>
      </trkpt>
      <trkpt lat="42.51516" lon="-0.13886">
        <ele>1168.4</ele>
        <time>2017-08-13T10:09:22Z</time>
      </trkpt>
      <trkpt lat="42.51512" lon="-0.13881">
        <ele>1168.3</ele>
        <time>2017-08-13T10:09:23Z</time>
      </trkpt>
      <trkpt lat="42.51508" lon="-0.13877">
        <ele>1167.9</ele>
        <time>2017-08-13T10:09:24Z</time>
      </trkpt>
      <trkpt lat="42.51504" lon="-0.13873">
        <ele>1167.4</ele>
        <time>2017-08-13T10:09:25Z</time>
      </trkpt>
      <trkpt lat="42.515" lon="-0.1387">
        <ele>1167.2</ele>
        <time>2017-08-13T10:09:26Z</time>
      </trkpt>
      <trkpt lat="42.51497" lon="-0.13867">
        <ele>1167.7</ele>
        <time>2017-08-13T10:09:27Z</time>
      </trkpt>
      <trkpt lat="42.51495" lon="-0.13865">
        <ele>1166.4</ele>
        <time>2017-08-13T10:09:28Z</time>
      </trkpt>
      <trkpt lat="42.51493" lon="-0.13863">
        <ele>1166.7</ele>
        <time>2017-08-13T10:09:29Z</time>
      </trkpt>
      <trkpt lat="42.5149" lon="-0.1386">
        <ele>1165.6</ele>
        <time>2017-08-13T10:09:30Z</time>
      </trkpt>
      <trkpt lat="42.51487" lon="-0.13857">
        <ele>1164.1</ele>
        <time>2017-08-13T10:09:31Z</time>
      </trkpt>
      <trkpt lat="42.51484" lon="-0.13854">
        <ele>1164.1</ele>
        <time>2017-08-13T10:09:32Z</time>
      </trkpt>
      <trkpt lat="42.51481" lon="-0.13851">
        <ele>1162</ele>
        <time>2017-08-13T10:09:33Z</time>
      </trkpt>
      <trkpt lat="42.51478" lon="-0.13848">
        <ele>1159.4</ele>
        <time>2017-08-13T10:09:34Z</time>
      </trkpt>
      <trkpt lat="42.51475" lon="-0.13845">
        <ele>1159.3</ele>
        <time>2017-08-13T10:09:35Z</time>
      </trkpt>
      <trkpt lat="42.51472" lon="-0.13842">
        <ele>1156.5</ele>
        <time>2017-08-13T10:09:36Z</time>
      </trkpt>
      <trkpt lat="42.51469" lon="-0.1384">
        <ele>1153.8</ele>
        <time>2017-08-13T10:09:37Z</time>
      </trkpt>
      <trkpt lat="42.51464" lon="-0.13838">
        <ele>1153.6</ele>
        <time>2017-08-13T10:09:39Z</time>
      </trkpt>
      <trkpt lat="42.51461" lon="-0.13836">
        <ele>1153.5</ele>
        <time>2017-08-13T10:09:42Z</time>
      </trkpt>
      <trkpt lat="42.51464" lon="-0.13834">
        <ele>1150.9</ele>
        <time>2017-08-13T10:09:45Z</time>
      </trkpt>
      <trkpt lat="42.5146" lon="-0.13833">
        <ele>1150.8</ele>
        <time>2017-08-13T10:09:57Z</time>
      </trkpt>
      <trkpt lat="42.51456" lon="-0.1383">
        <ele>1147.6</ele>
        <time>2017-08-13T10:09:59Z</time>
      </trkpt>
      <trkpt lat="42.51453" lon="-0.13827">
        <ele>1144.1</ele>
        <time>2017-08-13T10:10:01Z</time>
      </trkpt>
      <trkpt lat="42.51448" lon="-0.13824">
        <ele>1144</ele>
        <time>2017-08-13T10:10:03Z</time>
      </trkpt>
      <trkpt lat="42.51445" lon="-0.13823">
        <ele>1140.1</ele>
        <time>2017-08-13T10:10:04Z</time>
      </trkpt>
      <trkpt lat="42.51442" lon="-0.13822">
        <ele>1140.1</ele>
        <time>2017-08-13T10:10:05Z</time>
      </trkpt>
      <trkpt lat="42.51438" lon="-0.13822">
        <ele>1140.1</ele>
        <time>2017-08-13T10:10:07Z</time>
      </trkpt>
      <trkpt lat="42.51433" lon="-0.13822">
        <ele>1139.8</ele>
        <time>2017-08-13T10:10:09Z</time>
      </trkpt>
      <trkpt lat="42.5143" lon="-0.13822">
        <ele>1139.7</ele>
        <time>2017-08-13T10:10:30Z</time>
      </trkpt>
      <trkpt lat="42.51428" lon="-0.1382">
        <ele>1139.7</ele>
        <time>2017-08-13T10:10:58Z</time>
      </trkpt>
      <trkpt lat="42.51425" lon="-0.13818">
        <ele>1135.8</ele>
        <time>2017-08-13T10:11:04Z</time>
      </trkpt>
      <trkpt lat="42.51421" lon="-0.13817">
        <ele>1135.7</ele>
        <time>2017-08-13T10:11:06Z</time>
      </trkpt>
      <trkpt lat="42.51418" lon="-0.13816">
        <ele>1135.6</ele>
        <time>2017-08-13T10:11:08Z</time>
      </trkpt>
      <trkpt lat="42.51413" lon="-0.13812">
        <ele>1132.4</ele>
        <time>2017-08-13T10:11:10Z</time>
      </trkpt>
      <trkpt lat="42.51411" lon="-0.1381">
        <ele>1129.3</ele>
        <time>2017-08-13T10:11:11Z</time>
      </trkpt>
      <trkpt lat="42.51407" lon="-0.13807">
        <ele>1128.9</ele>
        <time>2017-08-13T10:11:13Z</time>
      </trkpt>
      <trkpt lat="42.51403" lon="-0.13806">
        <ele>1128.4</ele>
        <time>2017-08-13T10:11:15Z</time>
      </trkpt>
      <trkpt lat="42.51399" lon="-0.13807">
        <ele>1127</ele>
        <time>2017-08-13T10:11:17Z</time>
      </trkpt>
      <trkpt lat="42.51395" lon="-0.13807">
        <ele>1126.3</ele>
        <time>2017-08-13T10:11:19Z</time>
      </trkpt>
      <trkpt lat="42.51392" lon="-0.13806">
        <ele>1125.4</ele>
        <time>2017-08-13T10:11:21Z</time>
      </trkpt>
      <trkpt lat="42.51387" lon="-0.13804">
        <ele>1122.1</ele>
        <time>2017-08-13T10:11:23Z</time>
      </trkpt>
      <trkpt lat="42.51385" lon="-0.13803">
        <ele>1121.2</ele>
        <time>2017-08-13T10:11:24Z</time>
      </trkpt>
      <trkpt lat="42.51381" lon="-0.13802">
        <ele>1120.2</ele>
        <time>2017-08-13T10:11:25Z</time>
      </trkpt>
      <trkpt lat="42.51378" lon="-0.13801">
        <ele>1116.9</ele>
        <time>2017-08-13T10:11:26Z</time>
      </trkpt>
      <trkpt lat="42.51373" lon="-0.13802">
        <ele>1114.3</ele>
        <time>2017-08-13T10:11:28Z</time>
      </trkpt>
      <trkpt lat="42.5137" lon="-0.13803">
        <ele>1114.8</ele>
        <time>2017-08-13T10:11:31Z</time>
      </trkpt>
      <trkpt lat="42.51368" lon="-0.13802">
        <ele>1111.7</ele>
        <time>2017-08-13T10:11:38Z</time>
      </trkpt>
      <trkpt lat="42.51368" lon="-0.13797">
        <ele>1111.5</ele>
        <time>2017-08-13T10:11:43Z</time>
      </trkpt>
      <trkpt lat="42.51371" lon="-0.13793">
        <ele>1112.8</ele>
        <time>2017-08-13T10:11:46Z</time>
      </trkpt>
      <trkpt lat="42.51374" lon="-0.13791">
        <ele>1111.3</ele>
        <time>2017-08-13T10:11:49Z</time>
      </trkpt>
      <trkpt lat="42.51376" lon="-0.13789">
        <ele>1112.5</ele>
        <time>2017-08-13T10:11:54Z</time>
      </trkpt>
      <trkpt lat="42.51375" lon="-0.13785">
        <ele>1111</ele>
        <time>2017-08-13T10:12:01Z</time>
      </trkpt>
      <trkpt lat="42.51372" lon="-0.13783">
        <ele>1109.1</ele>
        <time>2017-08-13T10:12:05Z</time>
      </trkpt>
      <trkpt lat="42.5137" lon="-0.13781">
        <ele>1108.3</ele>
        <time>2017-08-13T10:12:08Z</time>
      </trkpt>
      <trkpt lat="42.51367" lon="-0.13779">
        <ele>1106.9</ele>
        <time>2017-08-13T10:12:11Z</time>
      </trkpt>
      <trkpt lat="42.51366" lon="-0.13776">
        <ele>1107</ele>
        <time>2017-08-13T10:12:19Z</time>
      </trkpt>
      <trkpt lat="42.51366" lon="-0.13771">
        <ele>1105.7</ele>
        <time>2017-08-13T10:12:21Z</time>
      </trkpt>
      <trkpt lat="42.51369" lon="-0.13767">
        <ele>1106.4</ele>
        <time>2017-08-13T10:12:23Z</time>
      </trkpt>
      <trkpt lat="42.51372" lon="-0.13766">
        <ele>1105.8</ele>
        <time>2017-08-13T10:12:25Z</time>
      </trkpt>
      <trkpt lat="42.51376" lon="-0.13765">
        <ele>1106.2</ele>
        <time>2017-08-13T10:12:27Z</time>
      </trkpt>
      <trkpt lat="42.51381" lon="-0.13766">
        <ele>1106.4</ele>
        <time>2017-08-13T10:12:29Z</time>
      </trkpt>
      <trkpt lat="42.51386" lon="-0.13764">
        <ele>1106.4</ele>
        <time>2017-08-13T10:12:31Z</time>
      </trkpt>
      <trkpt lat="42.51389" lon="-0.13764">
        <ele>1106.3</ele>
        <time>2017-08-13T10:12:32Z</time>
      </trkpt>
      <trkpt lat="42.51392" lon="-0.13763">
        <ele>1104.2</ele>
        <time>2017-08-13T10:12:33Z</time>
      </trkpt>
      <trkpt lat="42.51397" lon="-0.13761">
        <ele>1103.7</ele>
        <time>2017-08-13T10:12:35Z</time>
      </trkpt>
      <trkpt lat="42.514" lon="-0.13759">
        <ele>1103.5</ele>
        <time>2017-08-13T10:12:36Z</time>
      </trkpt>
      <trkpt lat="42.51404" lon="-0.13757">
        <ele>1101</ele>
        <time>2017-08-13T10:12:37Z</time>
      </trkpt>
      <trkpt lat="42.51409" lon="-0.13755">
        <ele>1100.7</ele>
        <time>2017-08-13T10:12:38Z</time>
      </trkpt>
      <trkpt lat="42.51413" lon="-0.13753">
        <ele>1097.4</ele>
        <time>2017-08-13T10:12:39Z</time>
      </trkpt>
      <trkpt lat="42.51417" lon="-0.13752">
        <ele>1097</ele>
        <time>2017-08-13T10:12:40Z</time>
      </trkpt>
      <trkpt lat="42.51421" lon="-0.1375">
        <ele>1096.5</ele>
        <time>2017-08-13T10:12:41Z</time>
      </trkpt>
      <trkpt lat="42.51424" lon="-0.1375">
        <ele>1093.7</ele>
        <time>2017-08-13T10:12:42Z</time>
      </trkpt>
      <trkpt lat="42.51428" lon="-0.13749">
        <ele>1093.4</ele>
        <time>2017-08-13T10:12:43Z</time>
      </trkpt>
      <trkpt lat="42.51431" lon="-0.13749">
        <ele>1093.2</ele>
        <time>2017-08-13T10:12:44Z</time>
      </trkpt>
      <trkpt lat="42.51434" lon="-0.13748">
        <ele>1093.1</ele>
        <time>2017-08-13T10:12:45Z</time>
      </trkpt>
      <trkpt lat="42.51438" lon="-0.13747">
        <ele>1093.1</ele>
        <time>2017-08-13T10:12:46Z</time>
      </trkpt>
      <trkpt lat="42.5144" lon="-0.13745">
        <ele>1090.7</ele>
        <time>2017-08-13T10:12:47Z</time>
      </trkpt>
      <trkpt lat="42.51445" lon="-0.13741">
        <ele>1088.5</ele>
        <time>2017-08-13T10:12:49Z</time>
      </trkpt>
      <trkpt lat="42.51449" lon="-0.13739">
        <ele>1088.8</ele>
        <time>2017-08-13T10:12:50Z</time>
      </trkpt>
      <trkpt lat="42.51452" lon="-0.13737">
        <ele>1086.6</ele>
        <time>2017-08-13T10:12:51Z</time>
      </trkpt>
      <trkpt lat="42.51455" lon="-0.13736">
        <ele>1087</ele>
        <time>2017-08-13T10:12:52Z</time>
      </trkpt>
      <trkpt lat="42.51459" lon="-0.13734">
        <ele>1087.5</ele>
        <time>2017-08-13T10:12:53Z</time>
      </trkpt>
      <trkpt lat="42.51464" lon="-0.13732">
        <ele>1086.3</ele>
        <time>2017-08-13T10:12:54Z</time>
      </trkpt>
      <trkpt lat="42.51468" lon="-0.13731">
        <ele>1086.9</ele>
        <time>2017-08-13T10:12:55Z</time>
      </trkpt>
      <trkpt lat="42.51472" lon="-0.1373">
        <ele>1087.7</ele>
        <time>2017-08-13T10:12:56Z</time>
      </trkpt>
      <trkpt lat="42.51477" lon="-0.13729">
        <ele>1089.1</ele>
        <time>2017-08-13T10:12:57Z</time>
      </trkpt>
      <trkpt lat="42.51481" lon="-0.13729">
        <ele>1087.4</ele>
        <time>2017-08-13T10:12:58Z</time>
      </trkpt>
      <trkpt lat="42.51484" lon="-0.13728">
        <ele>1087.8</ele>
        <time>2017-08-13T10:12:59Z</time>
      </trkpt>
      <trkpt lat="42.51487" lon="-0.13727">
        <ele>1088.2</ele>
        <time>2017-08-13T10:13:01Z</time>
      </trkpt>
      <trkpt lat="42.5149" lon="-0.13724">
        <ele>1086.4</ele>
        <time>2017-08-13T10:13:03Z</time>
      </trkpt>
      <trkpt lat="42.51492" lon="-0.13721">
        <ele>1086.5</ele>
        <time>2017-08-13T10:13:04Z</time>
      </trkpt>
      <trkpt lat="42.51494" lon="-0.13718">
        <ele>1084.5</ele>
        <time>2017-08-13T10:13:05Z</time>
      </trkpt>
      <trkpt lat="42.51498" lon="-0.13715">
        <ele>1082.6</ele>
        <time>2017-08-13T10:13:07Z</time>
      </trkpt>
      <trkpt lat="42.51501" lon="-0.13713">
        <ele>1082.7</ele>
        <time>2017-08-13T10:13:10Z</time>
      </trkpt>
      <trkpt lat="42.51497" lon="-0.13709">
        <ele>1080.6</ele>
        <time>2017-08-13T10:13:13Z</time>
      </trkpt>
      <trkpt lat="42.51494" lon="-0.13707">
        <ele>1080.6</ele>
        <time>2017-08-13T10:13:15Z</time>
      </trkpt>
      <trkpt lat="42.51499" lon="-0.13708">
        <ele>1080.8</ele>
        <time>2017-08-13T10:13:21Z</time>
      </trkpt>
      <trkpt lat="42.51502" lon="-0.13708">
        <ele>1080.9</ele>
        <time>2017-08-13T10:13:22Z</time>
      </trkpt>
      <trkpt lat="42.51505" lon="-0.13706">
        <ele>1079</ele>
        <time>2017-08-13T10:13:23Z</time>
      </trkpt>
      <trkpt lat="42.51507" lon="-0.13702">
        <ele>1077.2</ele>
        <time>2017-08-13T10:13:25Z</time>
      </trkpt>
      <trkpt lat="42.51506" lon="-0.13695">
        <ele>1075.9</ele>
        <time>2017-08-13T10:13:27Z</time>
      </trkpt>
      <trkpt lat="42.51501" lon="-0.13692">
        <ele>1074.9</ele>
        <time>2017-08-13T10:13:29Z</time>
      </trkpt>
      <trkpt lat="42.51497" lon="-0.13691">
        <ele>1074.8</ele>
        <time>2017-08-13T10:13:30Z</time>
      </trkpt>
      <trkpt lat="42.51493" lon="-0.13691">
        <ele>1074.8</ele>
        <time>2017-08-13T10:13:31Z</time>
      </trkpt>
      <trkpt lat="42.5149" lon="-0.13691">
        <ele>1074.8</ele>
        <time>2017-08-13T10:13:32Z</time>
      </trkpt>
      <trkpt lat="42.51486" lon="-0.13688">
        <ele>1073.3</ele>
        <time>2017-08-13T10:13:34Z</time>
      </trkpt>
      <trkpt lat="42.51484" lon="-0.13682">
        <ele>1071.6</ele>
        <time>2017-08-13T10:13:36Z</time>
      </trkpt>
      <trkpt lat="42.51484" lon="-0.13679">
        <ele>1070</ele>
        <time>2017-08-13T10:13:37Z</time>
      </trkpt>
      <trkpt lat="42.51482" lon="-0.13674">
        <ele>1068.6</ele>
        <time>2017-08-13T10:13:38Z</time>
      </trkpt>
      <trkpt lat="42.51481" lon="-0.13669">
        <ele>1066.2</ele>
        <time>2017-08-13T10:13:39Z</time>
      </trkpt>
      <trkpt lat="42.51479" lon="-0.13663">
        <ele>1065.3</ele>
        <time>2017-08-13T10:13:40Z</time>
      </trkpt>
      <trkpt lat="42.51477" lon="-0.13657">
        <ele>1063.6</ele>
        <time>2017-08-13T10:13:41Z</time>
      </trkpt>
      <trkpt lat="42.51475" lon="-0.13651">
        <ele>1060.6</ele>
        <time>2017-08-13T10:13:43Z</time>
      </trkpt>
      <trkpt lat="42.51472" lon="-0.13647">
        <ele>1058</ele>
        <time>2017-08-13T10:13:45Z</time>
      </trkpt>
      <trkpt lat="42.51468" lon="-0.13643">
        <ele>1057.8</ele>
        <time>2017-08-13T10:13:47Z</time>
      </trkpt>
      <trkpt lat="42.51465" lon="-0.13642">
        <ele>1056.2</ele>
        <time>2017-08-13T10:13:48Z</time>
      </trkpt>
      <trkpt lat="42.51462" lon="-0.13642">
        <ele>1055.9</ele>
        <time>2017-08-13T10:13:49Z</time>
      </trkpt>
      <trkpt lat="42.51459" lon="-0.13644">
        <ele>1057</ele>
        <time>2017-08-13T10:13:50Z</time>
      </trkpt>
      <trkpt lat="42.51457" lon="-0.13645">
        <ele>1057.1</ele>
        <time>2017-08-13T10:13:51Z</time>
      </trkpt>
      <trkpt lat="42.51454" lon="-0.13649">
        <ele>1058.5</ele>
        <time>2017-08-13T10:13:53Z</time>
      </trkpt>
      <trkpt lat="42.51451" lon="-0.13652">
        <ele>1060.2</ele>
        <time>2017-08-13T10:13:54Z</time>
      </trkpt>
      <trkpt lat="42.51447" lon="-0.13655">
        <ele>1060</ele>
        <time>2017-08-13T10:13:56Z</time>
      </trkpt>
      <trkpt lat="42.51444" lon="-0.13656">
        <ele>1062</ele>
        <time>2017-08-13T10:13:57Z</time>
      </trkpt>
      <trkpt lat="42.51441" lon="-0.13658">
        <ele>1062</ele>
        <time>2017-08-13T10:13:58Z</time>
      </trkpt>
      <trkpt lat="42.51437" lon="-0.1366">
        <ele>1062</ele>
        <time>2017-08-13T10:13:59Z</time>
      </trkpt>
      <trkpt lat="42.51433" lon="-0.13661">
        <ele>1064.5</ele>
        <time>2017-08-13T10:14:00Z</time>
      </trkpt>
      <trkpt lat="42.51429" lon="-0.1366">
        <ele>1064.6</ele>
        <time>2017-08-13T10:14:02Z</time>
      </trkpt>
      <trkpt lat="42.51429" lon="-0.13656">
        <ele>1058.7</ele>
        <time>2017-08-13T10:14:04Z</time>
      </trkpt>
      <trkpt lat="42.5143" lon="-0.13652">
        <ele>1058.8</ele>
        <time>2017-08-13T10:14:05Z</time>
      </trkpt>
      <trkpt lat="42.51433" lon="-0.13649">
        <ele>1056.4</ele>
        <time>2017-08-13T10:14:06Z</time>
      </trkpt>
      <trkpt lat="42.51436" lon="-0.13646">
        <ele>1054.6</ele>
        <time>2017-08-13T10:14:07Z</time>
      </trkpt>
      <trkpt lat="42.51438" lon="-0.13643">
        <ele>1055.5</ele>
        <time>2017-08-13T10:14:08Z</time>
      </trkpt>
      <trkpt lat="42.51439" lon="-0.1364">
        <ele>1053.5</ele>
        <time>2017-08-13T10:14:09Z</time>
      </trkpt>
      <trkpt lat="42.5144" lon="-0.13635">
        <ele>1051.8</ele>
        <time>2017-08-13T10:14:11Z</time>
      </trkpt>
      <trkpt lat="42.51437" lon="-0.13632">
        <ele>1049.1</ele>
        <time>2017-08-13T10:14:13Z</time>
      </trkpt>
      <trkpt lat="42.51434" lon="-0.13633">
        <ele>1048.1</ele>
        <time>2017-08-13T10:14:14Z</time>
      </trkpt>
      <trkpt lat="42.51431" lon="-0.13635">
        <ele>1049</ele>
        <time>2017-08-13T10:14:15Z</time>
      </trkpt>
      <trkpt lat="42.51427" lon="-0.13637">
        <ele>1048</ele>
        <time>2017-08-13T10:14:16Z</time>
      </trkpt>
      <trkpt lat="42.51424" lon="-0.13639">
        <ele>1049.1</ele>
        <time>2017-08-13T10:14:17Z</time>
      </trkpt>
      <trkpt lat="42.5142" lon="-0.1364">
        <ele>1048.2</ele>
        <time>2017-08-13T10:14:18Z</time>
      </trkpt>
      <trkpt lat="42.51416" lon="-0.1364">
        <ele>1047.5</ele>
        <time>2017-08-13T10:14:19Z</time>
      </trkpt>
      <trkpt lat="42.51412" lon="-0.13639">
        <ele>1046.8</ele>
        <time>2017-08-13T10:14:20Z</time>
      </trkpt>
      <trkpt lat="42.51409" lon="-0.13638">
        <ele>1042.8</ele>
        <time>2017-08-13T10:14:21Z</time>
      </trkpt>
      <trkpt lat="42.51405" lon="-0.13636">
        <ele>1042.1</ele>
        <time>2017-08-13T10:14:22Z</time>
      </trkpt>
      <trkpt lat="42.51401" lon="-0.13633">
        <ele>1038.8</ele>
        <time>2017-08-13T10:14:23Z</time>
      </trkpt>
      <trkpt lat="42.51397" lon="-0.13631">
        <ele>1038.2</ele>
        <time>2017-08-13T10:14:24Z</time>
      </trkpt>
      <trkpt lat="42.51393" lon="-0.13629">
        <ele>1034.5</ele>
        <time>2017-08-13T10:14:25Z</time>
      </trkpt>
      <trkpt lat="42.51389" lon="-0.13627">
        <ele>1034.2</ele>
        <time>2017-08-13T10:14:26Z</time>
      </trkpt>
      <trkpt lat="42.51386" lon="-0.13626">
        <ele>1034</ele>
        <time>2017-08-13T10:14:27Z</time>
      </trkpt>
      <trkpt lat="42.51383" lon="-0.13625">
        <ele>1031.3</ele>
        <time>2017-08-13T10:14:28Z</time>
      </trkpt>
      <trkpt lat="42.51379" lon="-0.13623">
        <ele>1031.3</ele>
        <time>2017-08-13T10:14:30Z</time>
      </trkpt>
      <trkpt lat="42.51374" lon="-0.13619">
        <ele>1029.3</ele>
        <time>2017-08-13T10:14:32Z</time>
      </trkpt>
      <trkpt lat="42.51371" lon="-0.13617">
        <ele>1027.8</ele>
        <time>2017-08-13T10:14:33Z</time>
      </trkpt>
      <trkpt lat="42.51369" lon="-0.13615">
        <ele>1028.3</ele>
        <time>2017-08-13T10:14:34Z</time>
      </trkpt>
      <trkpt lat="42.51366" lon="-0.13613">
        <ele>1028.9</ele>
        <time>2017-08-13T10:14:35Z</time>
      </trkpt>
      <trkpt lat="42.51363" lon="-0.1361">
        <ele>1027.9</ele>
        <time>2017-08-13T10:14:36Z</time>
      </trkpt>
      <trkpt lat="42.51359" lon="-0.13607">
        <ele>1026.7</ele>
        <time>2017-08-13T10:14:37Z</time>
      </trkpt>
      <trkpt lat="42.51355" lon="-0.13605">
        <ele>1027.3</ele>
        <time>2017-08-13T10:14:38Z</time>
      </trkpt>
      <trkpt lat="42.51352" lon="-0.13604">
        <ele>1025.7</ele>
        <time>2017-08-13T10:14:39Z</time>
      </trkpt>
      <trkpt lat="42.5135" lon="-0.13602">
        <ele>1026.1</ele>
        <time>2017-08-13T10:14:40Z</time>
      </trkpt>
      <trkpt lat="42.51345" lon="-0.13599">
        <ele>1025</ele>
        <time>2017-08-13T10:14:42Z</time>
      </trkpt>
      <trkpt lat="42.51341" lon="-0.13598">
        <ele>1025.3</ele>
        <time>2017-08-13T10:14:44Z</time>
      </trkpt>
      <trkpt lat="42.51335" lon="-0.13598">
        <ele>1025.4</ele>
        <time>2017-08-13T10:14:46Z</time>
      </trkpt>
      <trkpt lat="42.51332" lon="-0.13598">
        <ele>1025.3</ele>
        <time>2017-08-13T10:14:47Z</time>
      </trkpt>
      <trkpt lat="42.51328" lon="-0.13598">
        <ele>1024.9</ele>
        <time>2017-08-13T10:14:48Z</time>
      </trkpt>
      <trkpt lat="42.51325" lon="-0.13599">
        <ele>1024.3</ele>
        <time>2017-08-13T10:14:49Z</time>
      </trkpt>
      <trkpt lat="42.51323" lon="-0.136">
        <ele>1024.8</ele>
        <time>2017-08-13T10:14:50Z</time>
      </trkpt>
      <trkpt lat="42.51318" lon="-0.13602">
        <ele>1023.9</ele>
        <time>2017-08-13T10:14:52Z</time>
      </trkpt>
      <trkpt lat="42.51314" lon="-0.13603">
        <ele>1022.8</ele>
        <time>2017-08-13T10:14:55Z</time>
      </trkpt>
      <trkpt lat="42.51312" lon="-0.13607">
        <ele>1023</ele>
        <time>2017-08-13T10:14:57Z</time>
      </trkpt>
      <trkpt lat="42.51308" lon="-0.13611">
        <ele>1022.8</ele>
        <time>2017-08-13T10:15:00Z</time>
      </trkpt>
      <trkpt lat="42.51306" lon="-0.13615">
        <ele>1022.3</ele>
        <time>2017-08-13T10:15:02Z</time>
      </trkpt>
      <trkpt lat="42.51303" lon="-0.13619">
        <ele>1021.6</ele>
        <time>2017-08-13T10:15:04Z</time>
      </trkpt>
      <trkpt lat="42.51301" lon="-0.13622">
        <ele>1020.8</ele>
        <time>2017-08-13T10:15:06Z</time>
      </trkpt>
      <trkpt lat="42.51299" lon="-0.13626">
        <ele>1021.5</ele>
        <time>2017-08-13T10:15:08Z</time>
      </trkpt>
      <trkpt lat="42.51297" lon="-0.1363">
        <ele>1020.9</ele>
        <time>2017-08-13T10:15:10Z</time>
      </trkpt>
      <trkpt lat="42.51296" lon="-0.13634">
        <ele>1020.9</ele>
        <time>2017-08-13T10:15:12Z</time>
      </trkpt>
      <trkpt lat="42.51294" lon="-0.13637">
        <ele>1020.4</ele>
        <time>2017-08-13T10:15:14Z</time>
      </trkpt>
      <trkpt lat="42.51291" lon="-0.13643">
        <ele>1020.9</ele>
        <time>2017-08-13T10:15:16Z</time>
      </trkpt>
      <trkpt lat="42.51289" lon="-0.13646">
        <ele>1020.9</ele>
        <time>2017-08-13T10:15:17Z</time>
      </trkpt>
      <trkpt lat="42.51287" lon="-0.13649">
        <ele>1021</ele>
        <time>2017-08-13T10:15:18Z</time>
      </trkpt>
      <trkpt lat="42.51285" lon="-0.13652">
        <ele>1021.2</ele>
        <time>2017-08-13T10:15:19Z</time>
      </trkpt>
      <trkpt lat="42.51284" lon="-0.13655">
        <ele>1021.2</ele>
        <time>2017-08-13T10:15:20Z</time>
      </trkpt>
      <trkpt lat="42.51282" lon="-0.13661">
        <ele>1022.9</ele>
        <time>2017-08-13T10:15:22Z</time>
      </trkpt>
      <trkpt lat="42.51281" lon="-0.13668">
        <ele>1024.5</ele>
        <time>2017-08-13T10:15:24Z</time>
      </trkpt>
      <trkpt lat="42.51281" lon="-0.13672">
        <ele>1026.3</ele>
        <time>2017-08-13T10:15:26Z</time>
      </trkpt>
      <trkpt lat="42.51278" lon="-0.13678">
        <ele>1029.9</ele>
        <time>2017-08-13T10:15:28Z</time>
      </trkpt>
      <trkpt lat="42.51277" lon="-0.13681">
        <ele>1029.9</ele>
        <time>2017-08-13T10:15:29Z</time>
      </trkpt>
      <trkpt lat="42.51275" lon="-0.13684">
        <ele>1031.4</ele>
        <time>2017-08-13T10:15:30Z</time>
      </trkpt>
      <trkpt lat="42.51274" lon="-0.13687">
        <ele>1034.1</ele>
        <time>2017-08-13T10:15:31Z</time>
      </trkpt>
      <trkpt lat="42.51273" lon="-0.13692">
        <ele>1035.2</ele>
        <time>2017-08-13T10:15:33Z</time>
      </trkpt>
      <trkpt lat="42.51271" lon="-0.13695">
        <ele>1037.4</ele>
        <time>2017-08-13T10:15:35Z</time>
      </trkpt>
      <trkpt lat="42.51267" lon="-0.13701">
        <ele>1038</ele>
        <time>2017-08-13T10:15:37Z</time>
      </trkpt>
      <trkpt lat="42.51264" lon="-0.13703">
        <ele>1038.8</ele>
        <time>2017-08-13T10:15:38Z</time>
      </trkpt>
      <trkpt lat="42.51262" lon="-0.13705">
        <ele>1037.4</ele>
        <time>2017-08-13T10:15:39Z</time>
      </trkpt>
      <trkpt lat="42.51259" lon="-0.13706">
        <ele>1036.1</ele>
        <time>2017-08-13T10:15:40Z</time>
      </trkpt>
      <trkpt lat="42.51256" lon="-0.13705">
        <ele>1035</ele>
        <time>2017-08-13T10:15:41Z</time>
      </trkpt>
      <trkpt lat="42.51254" lon="-0.13703">
        <ele>1031.8</ele>
        <time>2017-08-13T10:15:42Z</time>
      </trkpt>
      <trkpt lat="42.51252" lon="-0.137">
        <ele>1031.8</ele>
        <time>2017-08-13T10:15:43Z</time>
      </trkpt>
      <trkpt lat="42.51248" lon="-0.13697">
        <ele>1029.1</ele>
        <time>2017-08-13T10:15:45Z</time>
      </trkpt>
      <trkpt lat="42.51245" lon="-0.13692">
        <ele>1026.9</ele>
        <time>2017-08-13T10:15:47Z</time>
      </trkpt>
      <trkpt lat="42.51243" lon="-0.13688">
        <ele>1025</ele>
        <time>2017-08-13T10:15:48Z</time>
      </trkpt>
      <trkpt lat="42.5124" lon="-0.13683">
        <ele>1023.4</ele>
        <time>2017-08-13T10:15:49Z</time>
      </trkpt>
      <trkpt lat="42.51238" lon="-0.13678">
        <ele>1021.8</ele>
        <time>2017-08-13T10:15:50Z</time>
      </trkpt>
      <trkpt lat="42.51236" lon="-0.13674">
        <ele>1020.6</ele>
        <time>2017-08-13T10:15:51Z</time>
      </trkpt>
      <trkpt lat="42.51234" lon="-0.1367">
        <ele>1019.4</ele>
        <time>2017-08-13T10:15:52Z</time>
      </trkpt>
      <trkpt lat="42.51232" lon="-0.13665">
        <ele>1018.6</ele>
        <time>2017-08-13T10:15:53Z</time>
      </trkpt>
      <trkpt lat="42.51231" lon="-0.13661">
        <ele>1017.5</ele>
        <time>2017-08-13T10:15:54Z</time>
      </trkpt>
      <trkpt lat="42.51229" lon="-0.13656">
        <ele>1016.3</ele>
        <time>2017-08-13T10:15:55Z</time>
      </trkpt>
      <trkpt lat="42.51227" lon="-0.13651">
        <ele>1013.4</ele>
        <time>2017-08-13T10:15:56Z</time>
      </trkpt>
      <trkpt lat="42.51226" lon="-0.13646">
        <ele>1012.1</ele>
        <time>2017-08-13T10:15:57Z</time>
      </trkpt>
      <trkpt lat="42.51225" lon="-0.13642">
        <ele>1011</ele>
        <time>2017-08-13T10:15:58Z</time>
      </trkpt>
      <trkpt lat="42.51223" lon="-0.13638">
        <ele>1009.9</ele>
        <time>2017-08-13T10:15:59Z</time>
      </trkpt>
      <trkpt lat="42.51221" lon="-0.13634">
        <ele>1008.6</ele>
        <time>2017-08-13T10:16:00Z</time>
      </trkpt>
      <trkpt lat="42.51219" lon="-0.13629">
        <ele>1007</ele>
        <time>2017-08-13T10:16:01Z</time>
      </trkpt>
      <trkpt lat="42.51216" lon="-0.13625">
        <ele>1005.3</ele>
        <time>2017-08-13T10:16:02Z</time>
      </trkpt>
      <trkpt lat="42.51214" lon="-0.13621">
        <ele>1003.3</ele>
        <time>2017-08-13T10:16:03Z</time>
      </trkpt>
      <trkpt lat="42.51211" lon="-0.13617">
        <ele>1003.1</ele>
        <time>2017-08-13T10:16:04Z</time>
      </trkpt>
      <trkpt lat="42.51206" lon="-0.13614">
        <ele>1000.8</ele>
        <time>2017-08-13T10:16:05Z</time>
      </trkpt>
      <trkpt lat="42.51202" lon="-0.13612">
        <ele>998.9</ele>
        <time>2017-08-13T10:16:06Z</time>
      </trkpt>
      <trkpt lat="42.51199" lon="-0.13611">
        <ele>998.6</ele>
        <time>2017-08-13T10:16:07Z</time>
      </trkpt>
      <trkpt lat="42.51195" lon="-0.13611">
        <ele>998.3</ele>
        <time>2017-08-13T10:16:08Z</time>
      </trkpt>
      <trkpt lat="42.51192" lon="-0.13611">
        <ele>998</ele>
        <time>2017-08-13T10:16:09Z</time>
      </trkpt>
      <trkpt lat="42.51188" lon="-0.13612">
        <ele>997.7</ele>
        <time>2017-08-13T10:16:11Z</time>
      </trkpt>
      <trkpt lat="42.51189" lon="-0.13607">
        <ele>996</ele>
        <time>2017-08-13T10:16:15Z</time>
      </trkpt>
      <trkpt lat="42.51192" lon="-0.13606">
        <ele>996.4</ele>
        <time>2017-08-13T10:16:27Z</time>
      </trkpt>
      <trkpt lat="42.51192" lon="-0.13602">
        <ele>994.3</ele>
        <time>2017-08-13T10:16:34Z</time>
      </trkpt>
      <trkpt lat="42.51194" lon="-0.13599">
        <ele>992.2</ele>
        <time>2017-08-13T10:16:40Z</time>
      </trkpt>
      <trkpt lat="42.51193" lon="-0.13594">
        <ele>989.6</ele>
        <time>2017-08-13T10:16:44Z</time>
      </trkpt>
      <trkpt lat="42.51194" lon="-0.1359">
        <ele>987.4</ele>
        <time>2017-08-13T10:16:50Z</time>
      </trkpt>
      <trkpt lat="42.51197" lon="-0.13585">
        <ele>985.3</ele>
        <time>2017-08-13T10:16:52Z</time>
      </trkpt>
      <trkpt lat="42.51199" lon="-0.13582">
        <ele>983.2</ele>
        <time>2017-08-13T10:16:53Z</time>
      </trkpt>
      <trkpt lat="42.51202" lon="-0.13579">
        <ele>983.1</ele>
        <time>2017-08-13T10:16:54Z</time>
      </trkpt>
      <trkpt lat="42.51204" lon="-0.13575">
        <ele>980.7</ele>
        <time>2017-08-13T10:16:56Z</time>
      </trkpt>
      <trkpt lat="42.51209" lon="-0.13573">
        <ele>978</ele>
        <time>2017-08-13T10:16:58Z</time>
      </trkpt>
      <trkpt lat="42.51213" lon="-0.13572">
        <ele>977.8</ele>
        <time>2017-08-13T10:17:00Z</time>
      </trkpt>
      <trkpt lat="42.5121" lon="-0.13569">
        <ele>975.2</ele>
        <time>2017-08-13T10:17:03Z</time>
      </trkpt>
      <trkpt lat="42.51206" lon="-0.13565">
        <ele>973.1</ele>
        <time>2017-08-13T10:17:05Z</time>
      </trkpt>
      <trkpt lat="42.51203" lon="-0.13563">
        <ele>973.3</ele>
        <time>2017-08-13T10:17:07Z</time>
      </trkpt>
      <trkpt lat="42.51205" lon="-0.1356">
        <ele>970.9</ele>
        <time>2017-08-13T10:17:11Z</time>
      </trkpt>
      <trkpt lat="42.5121" lon="-0.13559">
        <ele>970.5</ele>
        <time>2017-08-13T10:17:13Z</time>
      </trkpt>
      <trkpt lat="42.51214" lon="-0.13557">
        <ele>970.3</ele>
        <time>2017-08-13T10:17:15Z</time>
      </trkpt>
      <trkpt lat="42.51214" lon="-0.13553">
        <ele>968.5</ele>
        <time>2017-08-13T10:17:17Z</time>
      </trkpt>
      <trkpt lat="42.51213" lon="-0.13549">
        <ele>966.6</ele>
        <time>2017-08-13T10:17:18Z</time>
      </trkpt>
      <trkpt lat="42.51211" lon="-0.13545">
        <ele>964.8</ele>
        <time>2017-08-13T10:17:19Z</time>
      </trkpt>
      <trkpt lat="42.51209" lon="-0.13542">
        <ele>962.7</ele>
        <time>2017-08-13T10:17:20Z</time>
      </trkpt>
      <trkpt lat="42.51206" lon="-0.13539">
        <ele>960.4</ele>
        <time>2017-08-13T10:17:22Z</time>
      </trkpt>
      <trkpt lat="42.51204" lon="-0.13537">
        <ele>960.4</ele>
        <time>2017-08-13T10:17:24Z</time>
      </trkpt>
      <trkpt lat="42.51205" lon="-0.13533">
        <ele>958.4</ele>
        <time>2017-08-13T10:17:28Z</time>
      </trkpt>
      <trkpt lat="42.51205" lon="-0.13529">
        <ele>956.6</ele>
        <time>2017-08-13T10:17:31Z</time>
      </trkpt>
      <trkpt lat="42.51206" lon="-0.13526">
        <ele>954.9</ele>
        <time>2017-08-13T10:17:34Z</time>
      </trkpt>
      <trkpt lat="42.51209" lon="-0.13524">
        <ele>955.3</ele>
        <time>2017-08-13T10:17:36Z</time>
      </trkpt>
      <trkpt lat="42.5121" lon="-0.13521">
        <ele>953.8</ele>
        <time>2017-08-13T10:17:39Z</time>
      </trkpt>
      <trkpt lat="42.51208" lon="-0.13518">
        <ele>951.4</ele>
        <time>2017-08-13T10:17:41Z</time>
      </trkpt>
      <trkpt lat="42.51205" lon="-0.13514">
        <ele>949.1</ele>
        <time>2017-08-13T10:17:43Z</time>
      </trkpt>
      <trkpt lat="42.51202" lon="-0.1351">
        <ele>947.1</ele>
        <time>2017-08-13T10:17:45Z</time>
      </trkpt>
      <trkpt lat="42.51199" lon="-0.13507">
        <ele>946.9</ele>
        <time>2017-08-13T10:17:47Z</time>
      </trkpt>
      <trkpt lat="42.51197" lon="-0.13504">
        <ele>945.4</ele>
        <time>2017-08-13T10:17:50Z</time>
      </trkpt>
      <trkpt lat="42.51199" lon="-0.135">
        <ele>944.3</ele>
        <time>2017-08-13T10:17:52Z</time>
      </trkpt>
      <trkpt lat="42.51202" lon="-0.13495">
        <ele>943.3</ele>
        <time>2017-08-13T10:17:54Z</time>
      </trkpt>
      <trkpt lat="42.51202" lon="-0.13491">
        <ele>942.1</ele>
        <time>2017-08-13T10:17:56Z</time>
      </trkpt>
      <trkpt lat="42.51201" lon="-0.13487">
        <ele>940.9</ele>
        <time>2017-08-13T10:17:58Z</time>
      </trkpt>
      <trkpt lat="42.51203" lon="-0.13482">
        <ele>939.8</ele>
        <time>2017-08-13T10:18:00Z</time>
      </trkpt>
      <trkpt lat="42.51205" lon="-0.13477">
        <ele>938.9</ele>
        <time>2017-08-13T10:18:02Z</time>
      </trkpt>
      <trkpt lat="42.51208" lon="-0.13473">
        <ele>938.3</ele>
        <time>2017-08-13T10:18:04Z</time>
      </trkpt>
      <trkpt lat="42.5121" lon="-0.13468">
        <ele>937.8</ele>
        <time>2017-08-13T10:18:06Z</time>
      </trkpt>
      <trkpt lat="42.51212" lon="-0.13465">
        <ele>937</ele>
        <time>2017-08-13T10:18:08Z</time>
      </trkpt>
      <trkpt lat="42.51214" lon="-0.13461">
        <ele>936.2</ele>
        <time>2017-08-13T10:18:10Z</time>
      </trkpt>
      <trkpt lat="42.51214" lon="-0.13457">
        <ele>935.2</ele>
        <time>2017-08-13T10:18:12Z</time>
      </trkpt>
      <trkpt lat="42.51211" lon="-0.13452">
        <ele>934.1</ele>
        <time>2017-08-13T10:18:14Z</time>
      </trkpt>
      <trkpt lat="42.51209" lon="-0.13445">
        <ele>931.8</ele>
        <time>2017-08-13T10:18:16Z</time>
      </trkpt>
      <trkpt lat="42.51208" lon="-0.13441">
        <ele>931.8</ele>
        <time>2017-08-13T10:18:17Z</time>
      </trkpt>
      <trkpt lat="42.51206" lon="-0.13438">
        <ele>930.6</ele>
        <time>2017-08-13T10:18:18Z</time>
      </trkpt>
      <trkpt lat="42.51205" lon="-0.13435">
        <ele>928.7</ele>
        <time>2017-08-13T10:18:19Z</time>
      </trkpt>
      <trkpt lat="42.51203" lon="-0.1343">
        <ele>926.9</ele>
        <time>2017-08-13T10:18:21Z</time>
      </trkpt>
      <trkpt lat="42.51205" lon="-0.13424">
        <ele>923.2</ele>
        <time>2017-08-13T10:18:23Z</time>
      </trkpt>
      <trkpt lat="42.51208" lon="-0.13418">
        <ele>921.7</ele>
        <time>2017-08-13T10:18:25Z</time>
      </trkpt>
      <trkpt lat="42.51211" lon="-0.13416">
        <ele>921.8</ele>
        <time>2017-08-13T10:18:26Z</time>
      </trkpt>
      <trkpt lat="42.51214" lon="-0.13413">
        <ele>920.1</ele>
        <time>2017-08-13T10:18:27Z</time>
      </trkpt>
      <trkpt lat="42.51217" lon="-0.13411">
        <ele>918</ele>
        <time>2017-08-13T10:18:28Z</time>
      </trkpt>
      <trkpt lat="42.5122" lon="-0.13409">
        <ele>917.8</ele>
        <time>2017-08-13T10:18:29Z</time>
      </trkpt>
      <trkpt lat="42.51222" lon="-0.13407">
        <ele>915.3</ele>
        <time>2017-08-13T10:18:31Z</time>
      </trkpt>
      <trkpt lat="42.5122" lon="-0.13404">
        <ele>915.6</ele>
        <time>2017-08-13T10:18:49Z</time>
      </trkpt>
      <trkpt lat="42.51222" lon="-0.13398">
        <ele>910.9</ele>
        <time>2017-08-13T10:18:51Z</time>
      </trkpt>
      <trkpt lat="42.51226" lon="-0.13394">
        <ele>910.4</ele>
        <time>2017-08-13T10:18:53Z</time>
      </trkpt>
      <trkpt lat="42.51227" lon="-0.1339">
        <ele>908.6</ele>
        <time>2017-08-13T10:18:55Z</time>
      </trkpt>
      <trkpt lat="42.51226" lon="-0.13385">
        <ele>905.9</ele>
        <time>2017-08-13T10:18:57Z</time>
      </trkpt>
      <trkpt lat="42.51225" lon="-0.13381">
        <ele>906.4</ele>
        <time>2017-08-13T10:18:59Z</time>
      </trkpt>
      <trkpt lat="42.51224" lon="-0.13376">
        <ele>904</ele>
        <time>2017-08-13T10:19:01Z</time>
      </trkpt>
      <trkpt lat="42.51223" lon="-0.13369">
        <ele>903</ele>
        <time>2017-08-13T10:19:03Z</time>
      </trkpt>
      <trkpt lat="42.51222" lon="-0.13363">
        <ele>901.5</ele>
        <time>2017-08-13T10:19:05Z</time>
      </trkpt>
      <trkpt lat="42.51224" lon="-0.13357">
        <ele>900.9</ele>
        <time>2017-08-13T10:19:07Z</time>
      </trkpt>
      <trkpt lat="42.51226" lon="-0.13355">
        <ele>900.1</ele>
        <time>2017-08-13T10:19:08Z</time>
      </trkpt>
      <trkpt lat="42.51228" lon="-0.13352">
        <ele>900.1</ele>
        <time>2017-08-13T10:19:09Z</time>
      </trkpt>
      <trkpt lat="42.5123" lon="-0.1335">
        <ele>899.3</ele>
        <time>2017-08-13T10:19:10Z</time>
      </trkpt>
      <trkpt lat="42.51233" lon="-0.13348">
        <ele>899.4</ele>
        <time>2017-08-13T10:19:11Z</time>
      </trkpt>
      <trkpt lat="42.51232" lon="-0.13344">
        <ele>898.3</ele>
        <time>2017-08-13T10:19:14Z</time>
      </trkpt>
      <trkpt lat="42.51227" lon="-0.13343">
        <ele>897.9</ele>
        <time>2017-08-13T10:19:16Z</time>
      </trkpt>
      <trkpt lat="42.51223" lon="-0.13342">
        <ele>897.7</ele>
        <time>2017-08-13T10:19:18Z</time>
      </trkpt>
      <trkpt lat="42.51227" lon="-0.13345">
        <ele>897.9</ele>
        <time>2017-08-13T10:19:36Z</time>
      </trkpt>
      <trkpt lat="42.51221" lon="-0.13344">
        <ele>897.5</ele>
        <time>2017-08-13T10:19:38Z</time>
      </trkpt>
      <trkpt lat="42.51216" lon="-0.13344">
        <ele>897.3</ele>
        <time>2017-08-13T10:19:40Z</time>
      </trkpt>
      <trkpt lat="42.51211" lon="-0.13345">
        <ele>897.2</ele>
        <time>2017-08-13T10:19:42Z</time>
      </trkpt>
      <trkpt lat="42.51206" lon="-0.13344">
        <ele>897</ele>
        <time>2017-08-13T10:19:44Z</time>
      </trkpt>
      <trkpt lat="42.51203" lon="-0.13344">
        <ele>896.9</ele>
        <time>2017-08-13T10:19:45Z</time>
      </trkpt>
      <trkpt lat="42.512" lon="-0.13344">
        <ele>896.8</ele>
        <time>2017-08-13T10:19:46Z</time>
      </trkpt>
      <trkpt lat="42.51197" lon="-0.13345">
        <ele>896.6</ele>
        <time>2017-08-13T10:19:47Z</time>
      </trkpt>
      <trkpt lat="42.51194" lon="-0.13346">
        <ele>896.6</ele>
        <time>2017-08-13T10:19:48Z</time>
      </trkpt>
      <trkpt lat="42.51191" lon="-0.13347">
        <ele>897.8</ele>
        <time>2017-08-13T10:19:49Z</time>
      </trkpt>
      <trkpt lat="42.51188" lon="-0.13347">
        <ele>897.6</ele>
        <time>2017-08-13T10:19:50Z</time>
      </trkpt>
      <trkpt lat="42.51184" lon="-0.13347">
        <ele>897.4</ele>
        <time>2017-08-13T10:19:52Z</time>
      </trkpt>
      <trkpt lat="42.51182" lon="-0.13344">
        <ele>895.7</ele>
        <time>2017-08-13T10:19:54Z</time>
      </trkpt>
      <trkpt lat="42.51182" lon="-0.1334">
        <ele>894.3</ele>
        <time>2017-08-13T10:19:56Z</time>
      </trkpt>
      <trkpt lat="42.51183" lon="-0.13335">
        <ele>893.2</ele>
        <time>2017-08-13T10:19:58Z</time>
      </trkpt>
      <trkpt lat="42.51185" lon="-0.13331">
        <ele>892.4</ele>
        <time>2017-08-13T10:20:00Z</time>
      </trkpt>
      <trkpt lat="42.51185" lon="-0.13325">
        <ele>891.3</ele>
        <time>2017-08-13T10:20:02Z</time>
      </trkpt>
      <trkpt lat="42.51184" lon="-0.13319">
        <ele>888.7</ele>
        <time>2017-08-13T10:20:04Z</time>
      </trkpt>
      <trkpt lat="42.51184" lon="-0.13314">
        <ele>887.3</ele>
        <time>2017-08-13T10:20:06Z</time>
      </trkpt>
      <trkpt lat="42.51185" lon="-0.13308">
        <ele>884.4</ele>
        <time>2017-08-13T10:20:09Z</time>
      </trkpt>
      <trkpt lat="42.51184" lon="-0.13302">
        <ele>882.7</ele>
        <time>2017-08-13T10:20:11Z</time>
      </trkpt>
      <trkpt lat="42.51183" lon="-0.13297">
        <ele>880.8</ele>
        <time>2017-08-13T10:20:13Z</time>
      </trkpt>
      <trkpt lat="42.51183" lon="-0.13293">
        <ele>878.6</ele>
        <time>2017-08-13T10:20:15Z</time>
      </trkpt>
      <trkpt lat="42.51185" lon="-0.13289">
        <ele>876.4</ele>
        <time>2017-08-13T10:20:17Z</time>
      </trkpt>
      <trkpt lat="42.51187" lon="-0.13284">
        <ele>874.4</ele>
        <time>2017-08-13T10:20:19Z</time>
      </trkpt>
      <trkpt lat="42.51187" lon="-0.1328">
        <ele>872.7</ele>
        <time>2017-08-13T10:20:21Z</time>
      </trkpt>
      <trkpt lat="42.51187" lon="-0.13276">
        <ele>871.4</ele>
        <time>2017-08-13T10:20:23Z</time>
      </trkpt>
      <trkpt lat="42.51187" lon="-0.13271">
        <ele>870.2</ele>
        <time>2017-08-13T10:20:25Z</time>
      </trkpt>
      <trkpt lat="42.51188" lon="-0.13268">
        <ele>869.2</ele>
        <time>2017-08-13T10:20:27Z</time>
      </trkpt>
      <trkpt lat="42.51191" lon="-0.13266">
        <ele>869.4</ele>
        <time>2017-08-13T10:20:29Z</time>
      </trkpt>
      <trkpt lat="42.51192" lon="-0.13262">
        <ele>868.4</ele>
        <time>2017-08-13T10:21:15Z</time>
      </trkpt>
      <trkpt lat="42.51192" lon="-0.13255">
        <ele>866.9</ele>
        <time>2017-08-13T10:21:17Z</time>
      </trkpt>
      <trkpt lat="42.51194" lon="-0.1325">
        <ele>866.5</ele>
        <time>2017-08-13T10:21:19Z</time>
      </trkpt>
      <trkpt lat="42.51197" lon="-0.13245">
        <ele>865.9</ele>
        <time>2017-08-13T10:21:21Z</time>
      </trkpt>
      <trkpt lat="42.51198" lon="-0.1324">
        <ele>865</ele>
        <time>2017-08-13T10:21:23Z</time>
      </trkpt>
      <trkpt lat="42.51198" lon="-0.13235">
        <ele>864</ele>
        <time>2017-08-13T10:21:25Z</time>
      </trkpt>
      <trkpt lat="42.51197" lon="-0.13229">
        <ele>861.8</ele>
        <time>2017-08-13T10:21:28Z</time>
      </trkpt>
      <trkpt lat="42.51195" lon="-0.13224">
        <ele>862.2</ele>
        <time>2017-08-13T10:21:30Z</time>
      </trkpt>
      <trkpt lat="42.51193" lon="-0.13217">
        <ele>862.5</ele>
        <time>2017-08-13T10:21:32Z</time>
      </trkpt>
      <trkpt lat="42.51192" lon="-0.13213">
        <ele>862.8</ele>
        <time>2017-08-13T10:21:33Z</time>
      </trkpt>
      <trkpt lat="42.5119" lon="-0.13207">
        <ele>863.1</ele>
        <time>2017-08-13T10:21:35Z</time>
      </trkpt>
      <trkpt lat="42.51187" lon="-0.13205">
        <ele>863.3</ele>
        <time>2017-08-13T10:21:38Z</time>
      </trkpt>
      <trkpt lat="42.5119" lon="-0.13205">
        <ele>863.6</ele>
        <time>2017-08-13T10:21:50Z</time>
      </trkpt>
      <trkpt lat="42.51193" lon="-0.13203">
        <ele>863.8</ele>
        <time>2017-08-13T10:21:53Z</time>
      </trkpt>
      <trkpt lat="42.51196" lon="-0.13201">
        <ele>864.1</ele>
        <time>2017-08-13T10:21:56Z</time>
      </trkpt>
      <trkpt lat="42.51192" lon="-0.13203">
        <ele>864.3</ele>
        <time>2017-08-13T10:22:38Z</time>
      </trkpt>
      <trkpt lat="42.51191" lon="-0.13207">
        <ele>864.6</ele>
        <time>2017-08-13T10:23:42Z</time>
      </trkpt>
      <trkpt lat="42.51187" lon="-0.13207">
        <ele>864.8</ele>
        <time>2017-08-13T10:23:44Z</time>
      </trkpt>
      <trkpt lat="42.51183" lon="-0.13208">
        <ele>865.2</ele>
        <time>2017-08-13T10:23:46Z</time>
      </trkpt>
      <trkpt lat="42.51179" lon="-0.13207">
        <ele>865.5</ele>
        <time>2017-08-13T10:23:48Z</time>
      </trkpt>
      <trkpt lat="42.51175" lon="-0.13206">
        <ele>865.8</ele>
        <time>2017-08-13T10:23:50Z</time>
      </trkpt>
      <trkpt lat="42.5117" lon="-0.13204">
        <ele>866.1</ele>
        <time>2017-08-13T10:23:52Z</time>
      </trkpt>
      <trkpt lat="42.51166" lon="-0.13203">
        <ele>866.4</ele>
        <time>2017-08-13T10:23:54Z</time>
      </trkpt>
      <trkpt lat="42.51163" lon="-0.13202">
        <ele>866.6</ele>
        <time>2017-08-13T10:23:56Z</time>
      </trkpt>
      <trkpt lat="42.5116" lon="-0.13201">
        <ele>866.8</ele>
        <time>2017-08-13T10:23:58Z</time>
      </trkpt>
      <trkpt lat="42.51154" lon="-0.132">
        <ele>867.1</ele>
        <time>2017-08-13T10:24:00Z</time>
      </trkpt>
      <trkpt lat="42.51151" lon="-0.13199">
        <ele>867.2</ele>
        <time>2017-08-13T10:24:01Z</time>
      </trkpt>
      <trkpt lat="42.51148" lon="-0.13198">
        <ele>867.4</ele>
        <time>2017-08-13T10:24:02Z</time>
      </trkpt>
      <trkpt lat="42.51145" lon="-0.13197">
        <ele>867.5</ele>
        <time>2017-08-13T10:24:03Z</time>
      </trkpt>
      <trkpt lat="42.51142" lon="-0.13196">
        <ele>867.7</ele>
        <time>2017-08-13T10:24:04Z</time>
      </trkpt>
      <trkpt lat="42.5114" lon="-0.13195">
        <ele>867.8</ele>
        <time>2017-08-13T10:24:05Z</time>
      </trkpt>
      <trkpt lat="42.51134" lon="-0.13192">
        <ele>868.1</ele>
        <time>2017-08-13T10:24:07Z</time>
      </trkpt>
      <trkpt lat="42.51132" lon="-0.13191">
        <ele>868.2</ele>
        <time>2017-08-13T10:24:08Z</time>
      </trkpt>
      <trkpt lat="42.51129" lon="-0.1319">
        <ele>868.3</ele>
        <time>2017-08-13T10:24:09Z</time>
      </trkpt>
      <trkpt lat="42.51126" lon="-0.13189">
        <ele>868.5</ele>
        <time>2017-08-13T10:24:10Z</time>
      </trkpt>
      <trkpt lat="42.51124" lon="-0.13188">
        <ele>868.6</ele>
        <time>2017-08-13T10:24:11Z</time>
      </trkpt>
      <trkpt lat="42.51121" lon="-0.13188">
        <ele>868.7</ele>
        <time>2017-08-13T10:24:12Z</time>
      </trkpt>
      <trkpt lat="42.51118" lon="-0.13187">
        <ele>868.8</ele>
        <time>2017-08-13T10:24:13Z</time>
      </trkpt>
      <trkpt lat="42.51114" lon="-0.13186">
        <ele>869.1</ele>
        <time>2017-08-13T10:24:15Z</time>
      </trkpt>
      <trkpt lat="42.51109" lon="-0.13185">
        <ele>869.2</ele>
        <time>2017-08-13T10:24:17Z</time>
      </trkpt>
      <trkpt lat="42.51105" lon="-0.13185">
        <ele>869.4</ele>
        <time>2017-08-13T10:24:19Z</time>
      </trkpt>
      <trkpt lat="42.51101" lon="-0.13185">
        <ele>869.6</ele>
        <time>2017-08-13T10:24:21Z</time>
      </trkpt>
      <trkpt lat="42.51097" lon="-0.13184">
        <ele>869.8</ele>
        <time>2017-08-13T10:24:23Z</time>
      </trkpt>
      <trkpt lat="42.51092" lon="-0.13184">
        <ele>870</ele>
        <time>2017-08-13T10:24:25Z</time>
      </trkpt>
      <trkpt lat="42.51088" lon="-0.13184">
        <ele>870.1</ele>
        <time>2017-08-13T10:24:27Z</time>
      </trkpt>
      <trkpt lat="42.51084" lon="-0.13185">
        <ele>870.3</ele>
        <time>2017-08-13T10:24:29Z</time>
      </trkpt>
      <trkpt lat="42.51079" lon="-0.13186">
        <ele>870.5</ele>
        <time>2017-08-13T10:24:31Z</time>
      </trkpt>
      <trkpt lat="42.51074" lon="-0.13187">
        <ele>870.7</ele>
        <time>2017-08-13T10:24:33Z</time>
      </trkpt>
      <trkpt lat="42.51069" lon="-0.13188">
        <ele>870.9</ele>
        <time>2017-08-13T10:24:35Z</time>
      </trkpt>
      <trkpt lat="42.51065" lon="-0.13188">
        <ele>871.1</ele>
        <time>2017-08-13T10:24:37Z</time>
      </trkpt>
      <trkpt lat="42.5106" lon="-0.13188">
        <ele>871.3</ele>
        <time>2017-08-13T10:24:39Z</time>
      </trkpt>
      <trkpt lat="42.51056" lon="-0.13188">
        <ele>871.4</ele>
        <time>2017-08-13T10:24:41Z</time>
      </trkpt>
      <trkpt lat="42.51051" lon="-0.13187">
        <ele>871.5</ele>
        <time>2017-08-13T10:24:43Z</time>
      </trkpt>
      <trkpt lat="42.51046" lon="-0.13186">
        <ele>871.6</ele>
        <time>2017-08-13T10:24:45Z</time>
      </trkpt>
      <trkpt lat="42.51041" lon="-0.13185">
        <ele>871.7</ele>
        <time>2017-08-13T10:24:47Z</time>
      </trkpt>
      <trkpt lat="42.51038" lon="-0.13185">
        <ele>871.7</ele>
        <time>2017-08-13T10:24:48Z</time>
      </trkpt>
      <trkpt lat="42.51035" lon="-0.13184">
        <ele>871.8</ele>
        <time>2017-08-13T10:24:49Z</time>
      </trkpt>
      <trkpt lat="42.51032" lon="-0.13184">
        <ele>871.8</ele>
        <time>2017-08-13T10:24:50Z</time>
      </trkpt>
      <trkpt lat="42.51029" lon="-0.13184">
        <ele>871.8</ele>
        <time>2017-08-13T10:24:51Z</time>
      </trkpt>
      <trkpt lat="42.51027" lon="-0.13183">
        <ele>871.9</ele>
        <time>2017-08-13T10:24:52Z</time>
      </trkpt>
      <trkpt lat="42.51024" lon="-0.13183">
        <ele>871.9</ele>
        <time>2017-08-13T10:24:53Z</time>
      </trkpt>
      <trkpt lat="42.51021" lon="-0.13182">
        <ele>871.9</ele>
        <time>2017-08-13T10:24:54Z</time>
      </trkpt>
      <trkpt lat="42.51018" lon="-0.13181">
        <ele>872</ele>
        <time>2017-08-13T10:24:55Z</time>
      </trkpt>
      <trkpt lat="42.51015" lon="-0.13181">
        <ele>872</ele>
        <time>2017-08-13T10:24:56Z</time>
      </trkpt>
      <trkpt lat="42.51012" lon="-0.1318">
        <ele>872</ele>
        <time>2017-08-13T10:24:57Z</time>
      </trkpt>
      <trkpt lat="42.51007" lon="-0.13181">
        <ele>872</ele>
        <time>2017-08-13T10:24:59Z</time>
      </trkpt>
      <trkpt lat="42.51002" lon="-0.1318">
        <ele>872</ele>
        <time>2017-08-13T10:25:01Z</time>
      </trkpt>
      <trkpt lat="42.50997" lon="-0.13179">
        <ele>872</ele>
        <time>2017-08-13T10:25:03Z</time>
      </trkpt>
      <trkpt lat="42.50994" lon="-0.13178">
        <ele>872</ele>
        <time>2017-08-13T10:25:04Z</time>
      </trkpt>
      <trkpt lat="42.50991" lon="-0.13178">
        <ele>872</ele>
        <time>2017-08-13T10:25:05Z</time>
      </trkpt>
      <trkpt lat="42.50988" lon="-0.13178">
        <ele>872</ele>
        <time>2017-08-13T10:25:06Z</time>
      </trkpt>
      <trkpt lat="42.50985" lon="-0.13178">
        <ele>872</ele>
        <time>2017-08-13T10:25:07Z</time>
      </trkpt>
      <trkpt lat="42.50982" lon="-0.13179">
        <ele>872</ele>
        <time>2017-08-13T10:25:08Z</time>
      </trkpt>
      <trkpt lat="42.50979" lon="-0.1318">
        <ele>872</ele>
        <time>2017-08-13T10:25:09Z</time>
      </trkpt>
      <trkpt lat="42.50976" lon="-0.13182">
        <ele>872</ele>
        <time>2017-08-13T10:25:10Z</time>
      </trkpt>
      <trkpt lat="42.50974" lon="-0.13184">
        <ele>872</ele>
        <time>2017-08-13T10:25:11Z</time>
      </trkpt>
      <trkpt lat="42.50971" lon="-0.13185">
        <ele>872</ele>
        <time>2017-08-13T10:25:12Z</time>
      </trkpt>
      <trkpt lat="42.50967" lon="-0.1319">
        <ele>872</ele>
        <time>2017-08-13T10:25:14Z</time>
      </trkpt>
      <trkpt lat="42.50965" lon="-0.13194">
        <ele>872</ele>
        <time>2017-08-13T10:25:16Z</time>
      </trkpt>
      <trkpt lat="42.50961" lon="-0.132">
        <ele>872</ele>
        <time>2017-08-13T10:25:18Z</time>
      </trkpt>
      <trkpt lat="42.50958" lon="-0.13205">
        <ele>872</ele>
        <time>2017-08-13T10:25:20Z</time>
      </trkpt>
      <trkpt lat="42.50955" lon="-0.13209">
        <ele>872</ele>
        <time>2017-08-13T10:25:22Z</time>
      </trkpt>
      <trkpt lat="42.50951" lon="-0.13212">
        <ele>872</ele>
        <time>2017-08-13T10:25:24Z</time>
      </trkpt>
      <trkpt lat="42.50947" lon="-0.13215">
        <ele>872</ele>
        <time>2017-08-13T10:25:26Z</time>
      </trkpt>
      <trkpt lat="42.50944" lon="-0.13217">
        <ele>872</ele>
        <time>2017-08-13T10:25:28Z</time>
      </trkpt>
      <trkpt lat="42.5094" lon="-0.13219">
        <ele>872</ele>
        <time>2017-08-13T10:25:30Z</time>
      </trkpt>
      <trkpt lat="42.50936" lon="-0.13221">
        <ele>872</ele>
        <time>2017-08-13T10:25:32Z</time>
      </trkpt>
      <trkpt lat="42.50932" lon="-0.13225">
        <ele>871.9</ele>
        <time>2017-08-13T10:25:34Z</time>
      </trkpt>
      <trkpt lat="42.50928" lon="-0.13229">
        <ele>871.8</ele>
        <time>2017-08-13T10:25:36Z</time>
      </trkpt>
      <trkpt lat="42.50925" lon="-0.13232">
        <ele>871.7</ele>
        <time>2017-08-13T10:25:37Z</time>
      </trkpt>
      <trkpt lat="42.50923" lon="-0.13235">
        <ele>871.7</ele>
        <time>2017-08-13T10:25:38Z</time>
      </trkpt>
      <trkpt lat="42.5092" lon="-0.13238">
        <ele>871.6</ele>
        <time>2017-08-13T10:25:39Z</time>
      </trkpt>
      <trkpt lat="42.50917" lon="-0.13241">
        <ele>871.5</ele>
        <time>2017-08-13T10:25:40Z</time>
      </trkpt>
      <trkpt lat="42.50915" lon="-0.13244">
        <ele>871.3</ele>
        <time>2017-08-13T10:25:41Z</time>
      </trkpt>
      <trkpt lat="42.50912" lon="-0.13247">
        <ele>871.1</ele>
        <time>2017-08-13T10:25:42Z</time>
      </trkpt>
      <trkpt lat="42.50909" lon="-0.13251">
        <ele>870.8</ele>
        <time>2017-08-13T10:25:43Z</time>
      </trkpt>
      <trkpt lat="42.50906" lon="-0.13255">
        <ele>870.5</ele>
        <time>2017-08-13T10:25:44Z</time>
      </trkpt>
      <trkpt lat="42.50904" lon="-0.13259">
        <ele>870.2</ele>
        <time>2017-08-13T10:25:45Z</time>
      </trkpt>
      <trkpt lat="42.50901" lon="-0.13263">
        <ele>870</ele>
        <time>2017-08-13T10:25:46Z</time>
      </trkpt>
      <trkpt lat="42.50897" lon="-0.13265">
        <ele>869.9</ele>
        <time>2017-08-13T10:25:47Z</time>
      </trkpt>
      <trkpt lat="42.50892" lon="-0.13266">
        <ele>869.8</ele>
        <time>2017-08-13T10:25:48Z</time>
      </trkpt>
      <trkpt lat="42.50887" lon="-0.13265">
        <ele>869.7</ele>
        <time>2017-08-13T10:25:49Z</time>
      </trkpt>
      <trkpt lat="42.50884" lon="-0.13262">
        <ele>869.6</ele>
        <time>2017-08-13T10:25:50Z</time>
      </trkpt>
      <trkpt lat="42.50881" lon="-0.13257">
        <ele>869.5</ele>
        <time>2017-08-13T10:25:51Z</time>
      </trkpt>
      <trkpt lat="42.50879" lon="-0.13252">
        <ele>869.5</ele>
        <time>2017-08-13T10:25:52Z</time>
      </trkpt>
      <trkpt lat="42.50878" lon="-0.13246">
        <ele>869.4</ele>
        <time>2017-08-13T10:25:53Z</time>
      </trkpt>
      <trkpt lat="42.50878" lon="-0.13239">
        <ele>869.4</ele>
        <time>2017-08-13T10:25:54Z</time>
      </trkpt>
      <trkpt lat="42.50878" lon="-0.13233">
        <ele>869.3</ele>
        <time>2017-08-13T10:25:55Z</time>
      </trkpt>
      <trkpt lat="42.50878" lon="-0.13226">
        <ele>869.2</ele>
        <time>2017-08-13T10:25:56Z</time>
      </trkpt>
      <trkpt lat="42.50879" lon="-0.13219">
        <ele>869.1</ele>
        <time>2017-08-13T10:25:57Z</time>
      </trkpt>
      <trkpt lat="42.50879" lon="-0.13213">
        <ele>869</ele>
        <time>2017-08-13T10:25:58Z</time>
      </trkpt>
      <trkpt lat="42.50879" lon="-0.13207">
        <ele>868.8</ele>
        <time>2017-08-13T10:25:59Z</time>
      </trkpt>
      <trkpt lat="42.50879" lon="-0.13201">
        <ele>868.5</ele>
        <time>2017-08-13T10:26:00Z</time>
      </trkpt>
      <trkpt lat="42.50879" lon="-0.13196">
        <ele>868.1</ele>
        <time>2017-08-13T10:26:01Z</time>
      </trkpt>
      <trkpt lat="42.50879" lon="-0.13191">
        <ele>867.8</ele>
        <time>2017-08-13T10:26:02Z</time>
      </trkpt>
      <trkpt lat="42.50878" lon="-0.13186">
        <ele>867.6</ele>
        <time>2017-08-13T10:26:03Z</time>
      </trkpt>
      <trkpt lat="42.50877" lon="-0.13181">
        <ele>867.4</ele>
        <time>2017-08-13T10:26:04Z</time>
      </trkpt>
      <trkpt lat="42.50876" lon="-0.13176">
        <ele>867.3</ele>
        <time>2017-08-13T10:26:05Z</time>
      </trkpt>
      <trkpt lat="42.50875" lon="-0.13171">
        <ele>867.2</ele>
        <time>2017-08-13T10:26:06Z</time>
      </trkpt>
      <trkpt lat="42.50874" lon="-0.13166">
        <ele>867</ele>
        <time>2017-08-13T10:26:07Z</time>
      </trkpt>
      <trkpt lat="42.50873" lon="-0.13161">
        <ele>866.9</ele>
        <time>2017-08-13T10:26:08Z</time>
      </trkpt>
      <trkpt lat="42.50872" lon="-0.13156">
        <ele>866.6</ele>
        <time>2017-08-13T10:26:09Z</time>
      </trkpt>
      <trkpt lat="42.50872" lon="-0.13151">
        <ele>866.2</ele>
        <time>2017-08-13T10:26:10Z</time>
      </trkpt>
      <trkpt lat="42.50872" lon="-0.13145">
        <ele>865.6</ele>
        <time>2017-08-13T10:26:11Z</time>
      </trkpt>
      <trkpt lat="42.50872" lon="-0.1314">
        <ele>865.2</ele>
        <time>2017-08-13T10:26:12Z</time>
      </trkpt>
      <trkpt lat="42.50872" lon="-0.13134">
        <ele>864.9</ele>
        <time>2017-08-13T10:26:13Z</time>
      </trkpt>
      <trkpt lat="42.50871" lon="-0.13128">
        <ele>864.7</ele>
        <time>2017-08-13T10:26:14Z</time>
      </trkpt>
      <trkpt lat="42.50871" lon="-0.13122">
        <ele>864.3</ele>
        <time>2017-08-13T10:26:15Z</time>
      </trkpt>
      <trkpt lat="42.50869" lon="-0.13116">
        <ele>863.8</ele>
        <time>2017-08-13T10:26:16Z</time>
      </trkpt>
      <trkpt lat="42.50868" lon="-0.1311">
        <ele>863.4</ele>
        <time>2017-08-13T10:26:17Z</time>
      </trkpt>
      <trkpt lat="42.50865" lon="-0.13104">
        <ele>863.1</ele>
        <time>2017-08-13T10:26:18Z</time>
      </trkpt>
      <trkpt lat="42.50862" lon="-0.13098">
        <ele>862.9</ele>
        <time>2017-08-13T10:26:19Z</time>
      </trkpt>
      <trkpt lat="42.50859" lon="-0.13092">
        <ele>862.4</ele>
        <time>2017-08-13T10:26:20Z</time>
      </trkpt>
      <trkpt lat="42.50856" lon="-0.13087">
        <ele>861.9</ele>
        <time>2017-08-13T10:26:21Z</time>
      </trkpt>
      <trkpt lat="42.50852" lon="-0.13082">
        <ele>861.4</ele>
        <time>2017-08-13T10:26:22Z</time>
      </trkpt>
      <trkpt lat="42.50849" lon="-0.13079">
        <ele>860.9</ele>
        <time>2017-08-13T10:26:23Z</time>
      </trkpt>
      <trkpt lat="42.50847" lon="-0.13076">
        <ele>860.8</ele>
        <time>2017-08-13T10:26:24Z</time>
      </trkpt>
      <trkpt lat="42.50843" lon="-0.13072">
        <ele>860.5</ele>
        <time>2017-08-13T10:26:26Z</time>
      </trkpt>
      <trkpt lat="42.50838" lon="-0.13069">
        <ele>860.2</ele>
        <time>2017-08-13T10:26:28Z</time>
      </trkpt>
      <trkpt lat="42.50835" lon="-0.13068">
        <ele>859.9</ele>
        <time>2017-08-13T10:26:29Z</time>
      </trkpt>
      <trkpt lat="42.50832" lon="-0.13066">
        <ele>859.4</ele>
        <time>2017-08-13T10:26:30Z</time>
      </trkpt>
      <trkpt lat="42.50828" lon="-0.13064">
        <ele>858.9</ele>
        <time>2017-08-13T10:26:31Z</time>
      </trkpt>
      <trkpt lat="42.50824" lon="-0.13061">
        <ele>858.5</ele>
        <time>2017-08-13T10:26:32Z</time>
      </trkpt>
      <trkpt lat="42.5082" lon="-0.13058">
        <ele>858.2</ele>
        <time>2017-08-13T10:26:33Z</time>
      </trkpt>
      <trkpt lat="42.50816" lon="-0.13053">
        <ele>857.6</ele>
        <time>2017-08-13T10:26:34Z</time>
      </trkpt>
      <trkpt lat="42.50812" lon="-0.13049">
        <ele>857</ele>
        <time>2017-08-13T10:26:35Z</time>
      </trkpt>
      <trkpt lat="42.50807" lon="-0.13043">
        <ele>856.4</ele>
        <time>2017-08-13T10:26:36Z</time>
      </trkpt>
      <trkpt lat="42.50801" lon="-0.13038">
        <ele>855.9</ele>
        <time>2017-08-13T10:26:37Z</time>
      </trkpt>
      <trkpt lat="42.50796" lon="-0.13032">
        <ele>855.6</ele>
        <time>2017-08-13T10:26:38Z</time>
      </trkpt>
      <trkpt lat="42.50791" lon="-0.13026">
        <ele>855.2</ele>
        <time>2017-08-13T10:26:39Z</time>
      </trkpt>
      <trkpt lat="42.50788" lon="-0.13019">
        <ele>854.6</ele>
        <time>2017-08-13T10:26:40Z</time>
      </trkpt>
      <trkpt lat="42.50783" lon="-0.13015">
        <ele>853.9</ele>
        <time>2017-08-13T10:26:41Z</time>
      </trkpt>
      <trkpt lat="42.50777" lon="-0.13009">
        <ele>853.5</ele>
        <time>2017-08-13T10:26:42Z</time>
      </trkpt>
      <trkpt lat="42.50771" lon="-0.13003">
        <ele>852.8</ele>
        <time>2017-08-13T10:26:43Z</time>
      </trkpt>
      <trkpt lat="42.50767" lon="-0.12997">
        <ele>852</ele>
        <time>2017-08-13T10:26:44Z</time>
      </trkpt>
      <trkpt lat="42.50761" lon="-0.12992">
        <ele>851.6</ele>
        <time>2017-08-13T10:26:45Z</time>
      </trkpt>
      <trkpt lat="42.50757" lon="-0.12988">
        <ele>851.4</ele>
        <time>2017-08-13T10:26:46Z</time>
      </trkpt>
      <trkpt lat="42.50753" lon="-0.12984">
        <ele>851.2</ele>
        <time>2017-08-13T10:26:47Z</time>
      </trkpt>
      <trkpt lat="42.50749" lon="-0.1298">
        <ele>851.1</ele>
        <time>2017-08-13T10:26:48Z</time>
      </trkpt>
      <trkpt lat="42.50744" lon="-0.12977">
        <ele>851</ele>
        <time>2017-08-13T10:26:49Z</time>
      </trkpt>
      <trkpt lat="42.50739" lon="-0.12975">
        <ele>850.8</ele>
        <time>2017-08-13T10:26:50Z</time>
      </trkpt>
      <trkpt lat="42.50733" lon="-0.12973">
        <ele>850.4</ele>
        <time>2017-08-13T10:26:51Z</time>
      </trkpt>
      <trkpt lat="42.50729" lon="-0.1297">
        <ele>850.1</ele>
        <time>2017-08-13T10:26:52Z</time>
      </trkpt>
      <trkpt lat="42.50724" lon="-0.12968">
        <ele>849.7</ele>
        <time>2017-08-13T10:26:53Z</time>
      </trkpt>
      <trkpt lat="42.5072" lon="-0.12964">
        <ele>849.4</ele>
        <time>2017-08-13T10:26:54Z</time>
      </trkpt>
      <trkpt lat="42.50717" lon="-0.1296">
        <ele>849.1</ele>
        <time>2017-08-13T10:26:55Z</time>
      </trkpt>
      <trkpt lat="42.50714" lon="-0.12955">
        <ele>849</ele>
        <time>2017-08-13T10:26:56Z</time>
      </trkpt>
      <trkpt lat="42.50711" lon="-0.12949">
        <ele>848.9</ele>
        <time>2017-08-13T10:26:57Z</time>
      </trkpt>
      <trkpt lat="42.50709" lon="-0.12943">
        <ele>848.7</ele>
        <time>2017-08-13T10:26:58Z</time>
      </trkpt>
      <trkpt lat="42.50705" lon="-0.12938">
        <ele>848.6</ele>
        <time>2017-08-13T10:26:59Z</time>
      </trkpt>
      <trkpt lat="42.50703" lon="-0.12932">
        <ele>848.4</ele>
        <time>2017-08-13T10:27:00Z</time>
      </trkpt>
      <trkpt lat="42.507" lon="-0.12926">
        <ele>848.3</ele>
        <time>2017-08-13T10:27:01Z</time>
      </trkpt>
      <trkpt lat="42.50697" lon="-0.1292">
        <ele>848</ele>
        <time>2017-08-13T10:27:02Z</time>
      </trkpt>
      <trkpt lat="42.50695" lon="-0.12916">
        <ele>847.7</ele>
        <time>2017-08-13T10:27:03Z</time>
      </trkpt>
      <trkpt lat="42.50692" lon="-0.12913">
        <ele>847.5</ele>
        <time>2017-08-13T10:27:04Z</time>
      </trkpt>
      <trkpt lat="42.50689" lon="-0.12911">
        <ele>847.3</ele>
        <time>2017-08-13T10:27:06Z</time>
      </trkpt>
      <trkpt lat="42.50693" lon="-0.12915">
        <ele>847.6</ele>
        <time>2017-08-13T10:27:13Z</time>
      </trkpt>
      <trkpt lat="42.50694" lon="-0.12919">
        <ele>847.8</ele>
        <time>2017-08-13T10:27:14Z</time>
      </trkpt>
      <trkpt lat="42.50695" lon="-0.12922">
        <ele>848</ele>
        <time>2017-08-13T10:27:15Z</time>
      </trkpt>
      <trkpt lat="42.50696" lon="-0.12926">
        <ele>848.2</ele>
        <time>2017-08-13T10:27:16Z</time>
      </trkpt>
      <trkpt lat="42.50698" lon="-0.12929">
        <ele>848.3</ele>
        <time>2017-08-13T10:27:17Z</time>
      </trkpt>
      <trkpt lat="42.507" lon="-0.12933">
        <ele>848.4</ele>
        <time>2017-08-13T10:27:18Z</time>
      </trkpt>
      <trkpt lat="42.50701" lon="-0.12936">
        <ele>848.5</ele>
        <time>2017-08-13T10:27:19Z</time>
      </trkpt>
      <trkpt lat="42.50703" lon="-0.1294">
        <ele>848.6</ele>
        <time>2017-08-13T10:27:20Z</time>
      </trkpt>
      <trkpt lat="42.50705" lon="-0.12944">
        <ele>848.7</ele>
        <time>2017-08-13T10:27:21Z</time>
      </trkpt>
      <trkpt lat="42.50706" lon="-0.12948">
        <ele>848.8</ele>
        <time>2017-08-13T10:27:22Z</time>
      </trkpt>
      <trkpt lat="42.50708" lon="-0.12952">
        <ele>848.8</ele>
        <time>2017-08-13T10:27:23Z</time>
      </trkpt>
      <trkpt lat="42.50709" lon="-0.12956">
        <ele>848.9</ele>
        <time>2017-08-13T10:27:24Z</time>
      </trkpt>
      <trkpt lat="42.50711" lon="-0.1296">
        <ele>849</ele>
        <time>2017-08-13T10:27:25Z</time>
      </trkpt>
      <trkpt lat="42.50714" lon="-0.12963">
        <ele>849.1</ele>
        <time>2017-08-13T10:27:26Z</time>
      </trkpt>
      <trkpt lat="42.50716" lon="-0.12966">
        <ele>849.3</ele>
        <time>2017-08-13T10:27:27Z</time>
      </trkpt>
      <trkpt lat="42.50719" lon="-0.12968">
        <ele>849.5</ele>
        <time>2017-08-13T10:27:28Z</time>
      </trkpt>
      <trkpt lat="42.50722" lon="-0.1297">
        <ele>849.7</ele>
        <time>2017-08-13T10:27:29Z</time>
      </trkpt>
      <trkpt lat="42.50725" lon="-0.12971">
        <ele>850</ele>
        <time>2017-08-13T10:27:30Z</time>
      </trkpt>
      <trkpt lat="42.50728" lon="-0.12973">
        <ele>850.2</ele>
        <time>2017-08-13T10:27:31Z</time>
      </trkpt>
      <trkpt lat="42.50731" lon="-0.12974">
        <ele>850.5</ele>
        <time>2017-08-13T10:27:32Z</time>
      </trkpt>
      <trkpt lat="42.50735" lon="-0.12975">
        <ele>850.7</ele>
        <time>2017-08-13T10:27:33Z</time>
      </trkpt>
      <trkpt lat="42.50738" lon="-0.12976">
        <ele>850.8</ele>
        <time>2017-08-13T10:27:34Z</time>
      </trkpt>
      <trkpt lat="42.50742" lon="-0.12977">
        <ele>850.9</ele>
        <time>2017-08-13T10:27:35Z</time>
      </trkpt>
      <trkpt lat="42.50745" lon="-0.12979">
        <ele>851</ele>
        <time>2017-08-13T10:27:36Z</time>
      </trkpt>
      <trkpt lat="42.50748" lon="-0.12981">
        <ele>851.1</ele>
        <time>2017-08-13T10:27:37Z</time>
      </trkpt>
      <trkpt lat="42.50751" lon="-0.12983">
        <ele>851.2</ele>
        <time>2017-08-13T10:27:38Z</time>
      </trkpt>
      <trkpt lat="42.50754" lon="-0.12985">
        <ele>851.3</ele>
        <time>2017-08-13T10:27:39Z</time>
      </trkpt>
      <trkpt lat="42.50756" lon="-0.12988">
        <ele>851.4</ele>
        <time>2017-08-13T10:27:40Z</time>
      </trkpt>
      <trkpt lat="42.50759" lon="-0.1299">
        <ele>851.6</ele>
        <time>2017-08-13T10:27:41Z</time>
      </trkpt>
      <trkpt lat="42.50762" lon="-0.12995">
        <ele>851.8</ele>
        <time>2017-08-13T10:27:43Z</time>
      </trkpt>
      <trkpt lat="42.50764" lon="-0.12998">
        <ele>852</ele>
        <time>2017-08-13T10:27:44Z</time>
      </trkpt>
      <trkpt lat="42.50766" lon="-0.13001">
        <ele>852.3</ele>
        <time>2017-08-13T10:27:45Z</time>
      </trkpt>
      <trkpt lat="42.50769" lon="-0.13004">
        <ele>852.7</ele>
        <time>2017-08-13T10:27:46Z</time>
      </trkpt>
      <trkpt lat="42.50771" lon="-0.13006">
        <ele>853</ele>
        <time>2017-08-13T10:27:47Z</time>
      </trkpt>
      <trkpt lat="42.50773" lon="-0.13009">
        <ele>853.3</ele>
        <time>2017-08-13T10:27:48Z</time>
      </trkpt>
      <trkpt lat="42.50777" lon="-0.13013">
        <ele>853.6</ele>
        <time>2017-08-13T10:27:50Z</time>
      </trkpt>
      <trkpt lat="42.50781" lon="-0.13017">
        <ele>854</ele>
        <time>2017-08-13T10:27:52Z</time>
      </trkpt>
      <trkpt lat="42.50783" lon="-0.1302">
        <ele>854.2</ele>
        <time>2017-08-13T10:27:53Z</time>
      </trkpt>
      <trkpt lat="42.50786" lon="-0.13022">
        <ele>854.5</ele>
        <time>2017-08-13T10:27:54Z</time>
      </trkpt>
      <trkpt lat="42.50788" lon="-0.13024">
        <ele>854.9</ele>
        <time>2017-08-13T10:27:55Z</time>
      </trkpt>
      <trkpt lat="42.5079" lon="-0.13027">
        <ele>855.2</ele>
        <time>2017-08-13T10:27:56Z</time>
      </trkpt>
      <trkpt lat="42.50792" lon="-0.13029">
        <ele>855.4</ele>
        <time>2017-08-13T10:27:57Z</time>
      </trkpt>
      <trkpt lat="42.50794" lon="-0.13032">
        <ele>855.5</ele>
        <time>2017-08-13T10:27:58Z</time>
      </trkpt>
      <trkpt lat="42.50796" lon="-0.13035">
        <ele>855.7</ele>
        <time>2017-08-13T10:27:59Z</time>
      </trkpt>
      <trkpt lat="42.50799" lon="-0.13038">
        <ele>855.8</ele>
        <time>2017-08-13T10:28:00Z</time>
      </trkpt>
      <trkpt lat="42.50801" lon="-0.1304">
        <ele>856</ele>
        <time>2017-08-13T10:28:01Z</time>
      </trkpt>
      <trkpt lat="42.50803" lon="-0.13043">
        <ele>856.2</ele>
        <time>2017-08-13T10:28:02Z</time>
      </trkpt>
      <trkpt lat="42.50805" lon="-0.13046">
        <ele>856.4</ele>
        <time>2017-08-13T10:28:03Z</time>
      </trkpt>
      <trkpt lat="42.50807" lon="-0.13048">
        <ele>856.6</ele>
        <time>2017-08-13T10:28:04Z</time>
      </trkpt>
      <trkpt lat="42.5081" lon="-0.1305">
        <ele>856.9</ele>
        <time>2017-08-13T10:28:05Z</time>
      </trkpt>
      <trkpt lat="42.50812" lon="-0.13052">
        <ele>857.2</ele>
        <time>2017-08-13T10:28:06Z</time>
      </trkpt>
      <trkpt lat="42.50817" lon="-0.13056">
        <ele>857.8</ele>
        <time>2017-08-13T10:28:08Z</time>
      </trkpt>
      <trkpt lat="42.50819" lon="-0.13058">
        <ele>858.1</ele>
        <time>2017-08-13T10:28:09Z</time>
      </trkpt>
      <trkpt lat="42.50824" lon="-0.13061">
        <ele>858.5</ele>
        <time>2017-08-13T10:28:11Z</time>
      </trkpt>
      <trkpt lat="42.50828" lon="-0.13064">
        <ele>858.9</ele>
        <time>2017-08-13T10:28:13Z</time>
      </trkpt>
      <trkpt lat="42.50833" lon="-0.13067">
        <ele>859.5</ele>
        <time>2017-08-13T10:28:15Z</time>
      </trkpt>
      <trkpt lat="42.50835" lon="-0.13069">
        <ele>859.9</ele>
        <time>2017-08-13T10:28:16Z</time>
      </trkpt>
      <trkpt lat="42.50838" lon="-0.13071">
        <ele>860.2</ele>
        <time>2017-08-13T10:28:17Z</time>
      </trkpt>
      <trkpt lat="42.5084" lon="-0.13072">
        <ele>860.4</ele>
        <time>2017-08-13T10:28:18Z</time>
      </trkpt>
      <trkpt lat="42.50845" lon="-0.13076">
        <ele>860.7</ele>
        <time>2017-08-13T10:28:20Z</time>
      </trkpt>
      <trkpt lat="42.50847" lon="-0.13079">
        <ele>860.8</ele>
        <time>2017-08-13T10:28:21Z</time>
      </trkpt>
      <trkpt lat="42.5085" lon="-0.13081">
        <ele>861</ele>
        <time>2017-08-13T10:28:22Z</time>
      </trkpt>
      <trkpt lat="42.50852" lon="-0.13083">
        <ele>861.4</ele>
        <time>2017-08-13T10:28:23Z</time>
      </trkpt>
      <trkpt lat="42.50855" lon="-0.13085">
        <ele>861.7</ele>
        <time>2017-08-13T10:28:24Z</time>
      </trkpt>
      <trkpt lat="42.50857" lon="-0.13087">
        <ele>862</ele>
        <time>2017-08-13T10:28:25Z</time>
      </trkpt>
      <trkpt lat="42.50859" lon="-0.13089">
        <ele>862.3</ele>
        <time>2017-08-13T10:28:26Z</time>
      </trkpt>
      <trkpt lat="42.50861" lon="-0.13093">
        <ele>862.6</ele>
        <time>2017-08-13T10:28:27Z</time>
      </trkpt>
      <trkpt lat="42.50863" lon="-0.13096">
        <ele>862.8</ele>
        <time>2017-08-13T10:28:28Z</time>
      </trkpt>
      <trkpt lat="42.50865" lon="-0.131">
        <ele>863</ele>
        <time>2017-08-13T10:28:29Z</time>
      </trkpt>
      <trkpt lat="42.50866" lon="-0.13103">
        <ele>863.1</ele>
        <time>2017-08-13T10:28:30Z</time>
      </trkpt>
      <trkpt lat="42.50868" lon="-0.13107">
        <ele>863.2</ele>
        <time>2017-08-13T10:28:31Z</time>
      </trkpt>
      <trkpt lat="42.50869" lon="-0.1311">
        <ele>863.4</ele>
        <time>2017-08-13T10:28:32Z</time>
      </trkpt>
      <trkpt lat="42.50869" lon="-0.13114">
        <ele>863.6</ele>
        <time>2017-08-13T10:28:33Z</time>
      </trkpt>
      <trkpt lat="42.5087" lon="-0.13118">
        <ele>863.9</ele>
        <time>2017-08-13T10:28:34Z</time>
      </trkpt>
      <trkpt lat="42.50871" lon="-0.13125">
        <ele>864.5</ele>
        <time>2017-08-13T10:28:36Z</time>
      </trkpt>
      <trkpt lat="42.50871" lon="-0.13129">
        <ele>864.7</ele>
        <time>2017-08-13T10:28:37Z</time>
      </trkpt>
      <trkpt lat="42.50871" lon="-0.13132">
        <ele>864.9</ele>
        <time>2017-08-13T10:28:38Z</time>
      </trkpt>
      <trkpt lat="42.50872" lon="-0.13136">
        <ele>865</ele>
        <time>2017-08-13T10:28:39Z</time>
      </trkpt>
      <trkpt lat="42.50872" lon="-0.13143">
        <ele>865.5</ele>
        <time>2017-08-13T10:28:41Z</time>
      </trkpt>
      <trkpt lat="42.50872" lon="-0.13147">
        <ele>865.8</ele>
        <time>2017-08-13T10:28:42Z</time>
      </trkpt>
      <trkpt lat="42.50872" lon="-0.13154">
        <ele>866.4</ele>
        <time>2017-08-13T10:28:44Z</time>
      </trkpt>
      <trkpt lat="42.50872" lon="-0.13158">
        <ele>866.7</ele>
        <time>2017-08-13T10:28:45Z</time>
      </trkpt>
      <trkpt lat="42.50873" lon="-0.13165">
        <ele>867</ele>
        <time>2017-08-13T10:28:47Z</time>
      </trkpt>
      <trkpt lat="42.50873" lon="-0.13169">
        <ele>867.1</ele>
        <time>2017-08-13T10:28:48Z</time>
      </trkpt>
      <trkpt lat="42.50874" lon="-0.13172">
        <ele>867.2</ele>
        <time>2017-08-13T10:28:49Z</time>
      </trkpt>
      <trkpt lat="42.50875" lon="-0.13176">
        <ele>867.3</ele>
        <time>2017-08-13T10:28:50Z</time>
      </trkpt>
      <trkpt lat="42.50876" lon="-0.1318">
        <ele>867.4</ele>
        <time>2017-08-13T10:28:51Z</time>
      </trkpt>
      <trkpt lat="42.50877" lon="-0.13184">
        <ele>867.5</ele>
        <time>2017-08-13T10:28:52Z</time>
      </trkpt>
      <trkpt lat="42.50877" lon="-0.13188">
        <ele>867.6</ele>
        <time>2017-08-13T10:28:53Z</time>
      </trkpt>
      <trkpt lat="42.50878" lon="-0.13192">
        <ele>867.9</ele>
        <time>2017-08-13T10:28:54Z</time>
      </trkpt>
      <trkpt lat="42.50879" lon="-0.13197">
        <ele>868.1</ele>
        <time>2017-08-13T10:28:55Z</time>
      </trkpt>
      <trkpt lat="42.5088" lon="-0.13201">
        <ele>868.4</ele>
        <time>2017-08-13T10:28:56Z</time>
      </trkpt>
      <trkpt lat="42.5088" lon="-0.13205">
        <ele>868.7</ele>
        <time>2017-08-13T10:28:57Z</time>
      </trkpt>
      <trkpt lat="42.50881" lon="-0.1321">
        <ele>868.9</ele>
        <time>2017-08-13T10:28:58Z</time>
      </trkpt>
      <trkpt lat="42.50881" lon="-0.13214">
        <ele>869</ele>
        <time>2017-08-13T10:28:59Z</time>
      </trkpt>
      <trkpt lat="42.50881" lon="-0.13219">
        <ele>869.1</ele>
        <time>2017-08-13T10:29:00Z</time>
      </trkpt>
      <trkpt lat="42.50881" lon="-0.13223">
        <ele>869.1</ele>
        <time>2017-08-13T10:29:01Z</time>
      </trkpt>
      <trkpt lat="42.50881" lon="-0.13227">
        <ele>869.2</ele>
        <time>2017-08-13T10:29:02Z</time>
      </trkpt>
      <trkpt lat="42.50881" lon="-0.13232">
        <ele>869.3</ele>
        <time>2017-08-13T10:29:03Z</time>
      </trkpt>
      <trkpt lat="42.50881" lon="-0.13236">
        <ele>869.3</ele>
        <time>2017-08-13T10:29:04Z</time>
      </trkpt>
      <trkpt lat="42.50881" lon="-0.13241">
        <ele>869.4</ele>
        <time>2017-08-13T10:29:05Z</time>
      </trkpt>
      <trkpt lat="42.50881" lon="-0.13245">
        <ele>869.4</ele>
        <time>2017-08-13T10:29:06Z</time>
      </trkpt>
      <trkpt lat="42.50882" lon="-0.13249">
        <ele>869.4</ele>
        <time>2017-08-13T10:29:07Z</time>
      </trkpt>
      <trkpt lat="42.50883" lon="-0.13253">
        <ele>869.5</ele>
        <time>2017-08-13T10:29:08Z</time>
      </trkpt>
      <trkpt lat="42.50884" lon="-0.13257">
        <ele>869.5</ele>
        <time>2017-08-13T10:29:09Z</time>
      </trkpt>
      <trkpt lat="42.50886" lon="-0.13261">
        <ele>869.6</ele>
        <time>2017-08-13T10:29:10Z</time>
      </trkpt>
      <trkpt lat="42.50888" lon="-0.13265">
        <ele>869.6</ele>
        <time>2017-08-13T10:29:11Z</time>
      </trkpt>
      <trkpt lat="42.50891" lon="-0.13268">
        <ele>869.7</ele>
        <time>2017-08-13T10:29:12Z</time>
      </trkpt>
      <trkpt lat="42.50895" lon="-0.13269">
        <ele>869.8</ele>
        <time>2017-08-13T10:29:13Z</time>
      </trkpt>
      <trkpt lat="42.50899" lon="-0.13268">
        <ele>869.9</ele>
        <time>2017-08-13T10:29:14Z</time>
      </trkpt>
      <trkpt lat="42.50903" lon="-0.13266">
        <ele>869.9</ele>
        <time>2017-08-13T10:29:15Z</time>
      </trkpt>
      <trkpt lat="42.50905" lon="-0.13263">
        <ele>870.1</ele>
        <time>2017-08-13T10:29:16Z</time>
      </trkpt>
      <trkpt lat="42.50907" lon="-0.13259">
        <ele>870.3</ele>
        <time>2017-08-13T10:29:17Z</time>
      </trkpt>
      <trkpt lat="42.50909" lon="-0.13255">
        <ele>870.5</ele>
        <time>2017-08-13T10:29:18Z</time>
      </trkpt>
      <trkpt lat="42.5091" lon="-0.13251">
        <ele>870.8</ele>
        <time>2017-08-13T10:29:19Z</time>
      </trkpt>
      <trkpt lat="42.50911" lon="-0.13247">
        <ele>871</ele>
        <time>2017-08-13T10:29:20Z</time>
      </trkpt>
      <trkpt lat="42.50913" lon="-0.13243">
        <ele>871.3</ele>
        <time>2017-08-13T10:29:21Z</time>
      </trkpt>
      <trkpt lat="42.50915" lon="-0.1324">
        <ele>871.5</ele>
        <time>2017-08-13T10:29:22Z</time>
      </trkpt>
      <trkpt lat="42.50918" lon="-0.13237">
        <ele>871.5</ele>
        <time>2017-08-13T10:29:23Z</time>
      </trkpt>
      <trkpt lat="42.5092" lon="-0.13235">
        <ele>871.6</ele>
        <time>2017-08-13T10:29:24Z</time>
      </trkpt>
      <trkpt lat="42.50923" lon="-0.13232">
        <ele>871.7</ele>
        <time>2017-08-13T10:29:25Z</time>
      </trkpt>
      <trkpt lat="42.50925" lon="-0.1323">
        <ele>871.7</ele>
        <time>2017-08-13T10:29:26Z</time>
      </trkpt>
      <trkpt lat="42.50928" lon="-0.13228">
        <ele>871.8</ele>
        <time>2017-08-13T10:29:27Z</time>
      </trkpt>
      <trkpt lat="42.50931" lon="-0.13226">
        <ele>871.9</ele>
        <time>2017-08-13T10:29:28Z</time>
      </trkpt>
      <trkpt lat="42.50934" lon="-0.13224">
        <ele>871.9</ele>
        <time>2017-08-13T10:29:29Z</time>
      </trkpt>
      <trkpt lat="42.50937" lon="-0.13222">
        <ele>872</ele>
        <time>2017-08-13T10:29:30Z</time>
      </trkpt>
      <trkpt lat="42.5094" lon="-0.13221">
        <ele>872.5</ele>
        <time>2017-08-13T10:29:31Z</time>
      </trkpt>
      <trkpt lat="42.50944" lon="-0.1322">
        <ele>872.9</ele>
        <time>2017-08-13T10:29:32Z</time>
      </trkpt>
      <trkpt lat="42.50947" lon="-0.13219">
        <ele>873.7</ele>
        <time>2017-08-13T10:29:33Z</time>
      </trkpt>
      <trkpt lat="42.50949" lon="-0.13218">
        <ele>874.4</ele>
        <time>2017-08-13T10:29:34Z</time>
      </trkpt>
      <trkpt lat="42.50952" lon="-0.13217">
        <ele>874.8</ele>
        <time>2017-08-13T10:29:35Z</time>
      </trkpt>
      <trkpt lat="42.50957" lon="-0.13215">
        <ele>875.2</ele>
        <time>2017-08-13T10:29:37Z</time>
      </trkpt>
      <trkpt lat="42.5096" lon="-0.13213">
        <ele>875.4</ele>
        <time>2017-08-13T10:29:38Z</time>
      </trkpt>
      <trkpt lat="42.50962" lon="-0.13212">
        <ele>875.5</ele>
        <time>2017-08-13T10:29:39Z</time>
      </trkpt>
      <trkpt lat="42.50967" lon="-0.13209">
        <ele>875.8</ele>
        <time>2017-08-13T10:29:41Z</time>
      </trkpt>
      <trkpt lat="42.50971" lon="-0.13205">
        <ele>875.6</ele>
        <time>2017-08-13T10:29:43Z</time>
      </trkpt>
      <trkpt lat="42.50975" lon="-0.13201">
        <ele>875.7</ele>
        <time>2017-08-13T10:29:45Z</time>
      </trkpt>
      <trkpt lat="42.50979" lon="-0.13196">
        <ele>876.3</ele>
        <time>2017-08-13T10:29:47Z</time>
      </trkpt>
      <trkpt lat="42.50983" lon="-0.13193">
        <ele>876.4</ele>
        <time>2017-08-13T10:29:49Z</time>
      </trkpt>
      <trkpt lat="42.50988" lon="-0.13191">
        <ele>876.5</ele>
        <time>2017-08-13T10:29:51Z</time>
      </trkpt>
      <trkpt lat="42.50991" lon="-0.1319">
        <ele>877.3</ele>
        <time>2017-08-13T10:29:52Z</time>
      </trkpt>
      <trkpt lat="42.50994" lon="-0.13191">
        <ele>878.1</ele>
        <time>2017-08-13T10:29:53Z</time>
      </trkpt>
      <trkpt lat="42.50997" lon="-0.13192">
        <ele>878.8</ele>
        <time>2017-08-13T10:29:54Z</time>
      </trkpt>
      <trkpt lat="42.50999" lon="-0.13193">
        <ele>879.5</ele>
        <time>2017-08-13T10:29:55Z</time>
      </trkpt>
      <trkpt lat="42.51004" lon="-0.13196">
        <ele>880.6</ele>
        <time>2017-08-13T10:29:57Z</time>
      </trkpt>
      <trkpt lat="42.51007" lon="-0.13198">
        <ele>881.2</ele>
        <time>2017-08-13T10:29:58Z</time>
      </trkpt>
      <trkpt lat="42.5101" lon="-0.13199">
        <ele>881.7</ele>
        <time>2017-08-13T10:29:59Z</time>
      </trkpt>
      <trkpt lat="42.51012" lon="-0.13201">
        <ele>882.2</ele>
        <time>2017-08-13T10:30:00Z</time>
      </trkpt>
      <trkpt lat="42.51015" lon="-0.13202">
        <ele>882.6</ele>
        <time>2017-08-13T10:30:01Z</time>
      </trkpt>
      <trkpt lat="42.51018" lon="-0.13203">
        <ele>882.5</ele>
        <time>2017-08-13T10:30:02Z</time>
      </trkpt>
      <trkpt lat="42.51021" lon="-0.13205">
        <ele>882.1</ele>
        <time>2017-08-13T10:30:03Z</time>
      </trkpt>
      <trkpt lat="42.51023" lon="-0.13207">
        <ele>881.7</ele>
        <time>2017-08-13T10:30:04Z</time>
      </trkpt>
      <trkpt lat="42.51026" lon="-0.13209">
        <ele>882</ele>
        <time>2017-08-13T10:30:05Z</time>
      </trkpt>
      <trkpt lat="42.51028" lon="-0.13211">
        <ele>882.3</ele>
        <time>2017-08-13T10:30:06Z</time>
      </trkpt>
      <trkpt lat="42.51031" lon="-0.13213">
        <ele>882.5</ele>
        <time>2017-08-13T10:30:07Z</time>
      </trkpt>
      <trkpt lat="42.51036" lon="-0.13215">
        <ele>882.4</ele>
        <time>2017-08-13T10:30:09Z</time>
      </trkpt>
      <trkpt lat="42.51041" lon="-0.13217">
        <ele>882.7</ele>
        <time>2017-08-13T10:30:11Z</time>
      </trkpt>
      <trkpt lat="42.51046" lon="-0.13218">
        <ele>882.9</ele>
        <time>2017-08-13T10:30:13Z</time>
      </trkpt>
      <trkpt lat="42.5105" lon="-0.1322">
        <ele>882.3</ele>
        <time>2017-08-13T10:30:15Z</time>
      </trkpt>
      <trkpt lat="42.51055" lon="-0.13222">
        <ele>882.6</ele>
        <time>2017-08-13T10:30:17Z</time>
      </trkpt>
      <trkpt lat="42.51059" lon="-0.13224">
        <ele>883.9</ele>
        <time>2017-08-13T10:30:19Z</time>
      </trkpt>
      <trkpt lat="42.51064" lon="-0.13226">
        <ele>884.6</ele>
        <time>2017-08-13T10:30:21Z</time>
      </trkpt>
      <trkpt lat="42.51069" lon="-0.13228">
        <ele>885.3</ele>
        <time>2017-08-13T10:30:23Z</time>
      </trkpt>
      <trkpt lat="42.51074" lon="-0.13229">
        <ele>887.5</ele>
        <time>2017-08-13T10:30:25Z</time>
      </trkpt>
      <trkpt lat="42.51079" lon="-0.13231">
        <ele>888.4</ele>
        <time>2017-08-13T10:30:27Z</time>
      </trkpt>
      <trkpt lat="42.51083" lon="-0.13232">
        <ele>888.7</ele>
        <time>2017-08-13T10:30:29Z</time>
      </trkpt>
      <trkpt lat="42.51087" lon="-0.13233">
        <ele>889.5</ele>
        <time>2017-08-13T10:30:31Z</time>
      </trkpt>
      <trkpt lat="42.51091" lon="-0.13234">
        <ele>890.4</ele>
        <time>2017-08-13T10:30:33Z</time>
      </trkpt>
      <trkpt lat="42.51095" lon="-0.13236">
        <ele>889.2</ele>
        <time>2017-08-13T10:30:35Z</time>
      </trkpt>
      <trkpt lat="42.51099" lon="-0.13237">
        <ele>887.7</ele>
        <time>2017-08-13T10:30:37Z</time>
      </trkpt>
      <trkpt lat="42.51102" lon="-0.13238">
        <ele>888.1</ele>
        <time>2017-08-13T10:30:39Z</time>
      </trkpt>
      <trkpt lat="42.51106" lon="-0.13239">
        <ele>887.5</ele>
        <time>2017-08-13T10:30:41Z</time>
      </trkpt>
      <trkpt lat="42.5111" lon="-0.13241">
        <ele>885.7</ele>
        <time>2017-08-13T10:30:43Z</time>
      </trkpt>
      <trkpt lat="42.51113" lon="-0.13243">
        <ele>886.7</ele>
        <time>2017-08-13T10:30:45Z</time>
      </trkpt>
      <trkpt lat="42.51116" lon="-0.13246">
        <ele>887.3</ele>
        <time>2017-08-13T10:30:47Z</time>
      </trkpt>
      <trkpt lat="42.51119" lon="-0.13249">
        <ele>886.3</ele>
        <time>2017-08-13T10:30:49Z</time>
      </trkpt>
      <trkpt lat="42.51121" lon="-0.13253">
        <ele>887.4</ele>
        <time>2017-08-13T10:30:51Z</time>
      </trkpt>
      <trkpt lat="42.51124" lon="-0.13257">
        <ele>890.1</ele>
        <time>2017-08-13T10:30:53Z</time>
      </trkpt>
      <trkpt lat="42.51126" lon="-0.13261">
        <ele>891.9</ele>
        <time>2017-08-13T10:30:55Z</time>
      </trkpt>
      <trkpt lat="42.51127" lon="-0.13266">
        <ele>892.7</ele>
        <time>2017-08-13T10:30:57Z</time>
      </trkpt>
      <trkpt lat="42.51128" lon="-0.1327">
        <ele>893.5</ele>
        <time>2017-08-13T10:30:59Z</time>
      </trkpt>
      <trkpt lat="42.51129" lon="-0.13275">
        <ele>894.3</ele>
        <time>2017-08-13T10:31:01Z</time>
      </trkpt>
      <trkpt lat="42.5113" lon="-0.13279">
        <ele>895</ele>
        <time>2017-08-13T10:31:03Z</time>
      </trkpt>
      <trkpt lat="42.51131" lon="-0.13283">
        <ele>895.7</ele>
        <time>2017-08-13T10:31:05Z</time>
      </trkpt>
      <trkpt lat="42.51132" lon="-0.13287">
        <ele>896.4</ele>
        <time>2017-08-13T10:31:07Z</time>
      </trkpt>
      <trkpt lat="42.51133" lon="-0.13291">
        <ele>897</ele>
        <time>2017-08-13T10:31:09Z</time>
      </trkpt>
      <trkpt lat="42.51134" lon="-0.13295">
        <ele>897.2</ele>
        <time>2017-08-13T10:31:11Z</time>
      </trkpt>
      <trkpt lat="42.51135" lon="-0.13299">
        <ele>897.3</ele>
        <time>2017-08-13T10:31:13Z</time>
      </trkpt>
      <trkpt lat="42.51136" lon="-0.13304">
        <ele>897.4</ele>
        <time>2017-08-13T10:31:16Z</time>
      </trkpt>
      <trkpt lat="42.51136" lon="-0.13308">
        <ele>897.3</ele>
        <time>2017-08-13T10:31:18Z</time>
      </trkpt>
      <trkpt lat="42.51137" lon="-0.13312">
        <ele>897.4</ele>
        <time>2017-08-13T10:31:20Z</time>
      </trkpt>
      <trkpt lat="42.51138" lon="-0.13316">
        <ele>899</ele>
        <time>2017-08-13T10:31:22Z</time>
      </trkpt>
      <trkpt lat="42.51138" lon="-0.1332">
        <ele>899.6</ele>
        <time>2017-08-13T10:31:24Z</time>
      </trkpt>
      <trkpt lat="42.51138" lon="-0.13325">
        <ele>899.7</ele>
        <time>2017-08-13T10:31:26Z</time>
      </trkpt>
      <trkpt lat="42.51138" lon="-0.1333">
        <ele>899.8</ele>
        <time>2017-08-13T10:31:28Z</time>
      </trkpt>
      <trkpt lat="42.51139" lon="-0.13334">
        <ele>900</ele>
        <time>2017-08-13T10:31:30Z</time>
      </trkpt>
      <trkpt lat="42.5114" lon="-0.13338">
        <ele>900.2</ele>
        <time>2017-08-13T10:31:32Z</time>
      </trkpt>
      <trkpt lat="42.51142" lon="-0.13342">
        <ele>900.5</ele>
        <time>2017-08-13T10:31:34Z</time>
      </trkpt>
      <trkpt lat="42.51144" lon="-0.13345">
        <ele>900.7</ele>
        <time>2017-08-13T10:31:36Z</time>
      </trkpt>
      <trkpt lat="42.51147" lon="-0.13349">
        <ele>901.5</ele>
        <time>2017-08-13T10:31:39Z</time>
      </trkpt>
      <trkpt lat="42.51149" lon="-0.13353">
        <ele>902.4</ele>
        <time>2017-08-13T10:31:41Z</time>
      </trkpt>
      <trkpt lat="42.5115" lon="-0.13358">
        <ele>903.8</ele>
        <time>2017-08-13T10:31:43Z</time>
      </trkpt>
      <trkpt lat="42.51148" lon="-0.13362">
        <ele>905</ele>
        <time>2017-08-13T10:31:45Z</time>
      </trkpt>
      <trkpt lat="42.51145" lon="-0.13363">
        <ele>905.4</ele>
        <time>2017-08-13T10:31:47Z</time>
      </trkpt>
      <trkpt lat="42.51141" lon="-0.13362">
        <ele>905.6</ele>
        <time>2017-08-13T10:31:49Z</time>
      </trkpt>
      <trkpt lat="42.51137" lon="-0.1336">
        <ele>905.7</ele>
        <time>2017-08-13T10:31:51Z</time>
      </trkpt>
      <trkpt lat="42.51133" lon="-0.13357">
        <ele>905.6</ele>
        <time>2017-08-13T10:31:53Z</time>
      </trkpt>
      <trkpt lat="42.5113" lon="-0.13355">
        <ele>905.4</ele>
        <time>2017-08-13T10:31:55Z</time>
      </trkpt>
      <trkpt lat="42.51126" lon="-0.13352">
        <ele>905.2</ele>
        <time>2017-08-13T10:31:57Z</time>
      </trkpt>
      <trkpt lat="42.51123" lon="-0.1335">
        <ele>905.1</ele>
        <time>2017-08-13T10:31:59Z</time>
      </trkpt>
      <trkpt lat="42.51121" lon="-0.13347">
        <ele>905.2</ele>
        <time>2017-08-13T10:32:01Z</time>
      </trkpt>
      <trkpt lat="42.51119" lon="-0.13344">
        <ele>905.2</ele>
        <time>2017-08-13T10:32:03Z</time>
      </trkpt>
      <trkpt lat="42.51117" lon="-0.13342">
        <ele>905.1</ele>
        <time>2017-08-13T10:32:05Z</time>
      </trkpt>
      <trkpt lat="42.51114" lon="-0.1334">
        <ele>904.9</ele>
        <time>2017-08-13T10:32:07Z</time>
      </trkpt>
      <trkpt lat="42.51112" lon="-0.13337">
        <ele>904.8</ele>
        <time>2017-08-13T10:32:09Z</time>
      </trkpt>
      <trkpt lat="42.51111" lon="-0.13332">
        <ele>904.5</ele>
        <time>2017-08-13T10:32:12Z</time>
      </trkpt>
      <trkpt lat="42.51108" lon="-0.13328">
        <ele>904.3</ele>
        <time>2017-08-13T10:32:14Z</time>
      </trkpt>
      <trkpt lat="42.51106" lon="-0.13324">
        <ele>904.1</ele>
        <time>2017-08-13T10:32:16Z</time>
      </trkpt>
      <trkpt lat="42.51105" lon="-0.13321">
        <ele>904</ele>
        <time>2017-08-13T10:32:18Z</time>
      </trkpt>
      <trkpt lat="42.51104" lon="-0.13316">
        <ele>904.1</ele>
        <time>2017-08-13T10:32:21Z</time>
      </trkpt>
      <trkpt lat="42.51103" lon="-0.13312">
        <ele>904.8</ele>
        <time>2017-08-13T10:32:23Z</time>
      </trkpt>
      <trkpt lat="42.51102" lon="-0.13308">
        <ele>905.4</ele>
        <time>2017-08-13T10:32:26Z</time>
      </trkpt>
      <trkpt lat="42.511" lon="-0.13304">
        <ele>905.7</ele>
        <time>2017-08-13T10:32:30Z</time>
      </trkpt>
      <trkpt lat="42.51098" lon="-0.13301">
        <ele>905.9</ele>
        <time>2017-08-13T10:32:33Z</time>
      </trkpt>
      <trkpt lat="42.51095" lon="-0.133">
        <ele>906.3</ele>
        <time>2017-08-13T10:32:35Z</time>
      </trkpt>
      <trkpt lat="42.51092" lon="-0.13299">
        <ele>906.7</ele>
        <time>2017-08-13T10:32:37Z</time>
      </trkpt>
      <trkpt lat="42.51087" lon="-0.13298">
        <ele>907.5</ele>
        <time>2017-08-13T10:32:40Z</time>
      </trkpt>
      <trkpt lat="42.51085" lon="-0.13299">
        <ele>908.1</ele>
        <time>2017-08-13T10:32:42Z</time>
      </trkpt>
      <trkpt lat="42.51081" lon="-0.133">
        <ele>909.2</ele>
        <time>2017-08-13T10:32:45Z</time>
      </trkpt>
      <trkpt lat="42.51078" lon="-0.133">
        <ele>910</ele>
        <time>2017-08-13T10:32:48Z</time>
      </trkpt>
      <trkpt lat="42.51075" lon="-0.13301">
        <ele>910.7</ele>
        <time>2017-08-13T10:32:52Z</time>
      </trkpt>
      <trkpt lat="42.51071" lon="-0.13302">
        <ele>911.5</ele>
        <time>2017-08-13T10:32:55Z</time>
      </trkpt>
      <trkpt lat="42.51069" lon="-0.13302">
        <ele>912.4</ele>
        <time>2017-08-13T10:32:57Z</time>
      </trkpt>
      <trkpt lat="42.51066" lon="-0.13302">
        <ele>913.2</ele>
        <time>2017-08-13T10:32:59Z</time>
      </trkpt>
      <trkpt lat="42.51062" lon="-0.13301">
        <ele>913.9</ele>
        <time>2017-08-13T10:33:02Z</time>
      </trkpt>
      <trkpt lat="42.51059" lon="-0.13301">
        <ele>914.6</ele>
        <time>2017-08-13T10:33:05Z</time>
      </trkpt>
      <trkpt lat="42.51056" lon="-0.133">
        <ele>914.6</ele>
        <time>2017-08-13T10:33:07Z</time>
      </trkpt>
      <trkpt lat="42.51052" lon="-0.133">
        <ele>914.3</ele>
        <time>2017-08-13T10:33:10Z</time>
      </trkpt>
      <trkpt lat="42.51049" lon="-0.133">
        <ele>914.2</ele>
        <time>2017-08-13T10:33:12Z</time>
      </trkpt>
      <trkpt lat="42.51047" lon="-0.133">
        <ele>914.3</ele>
        <time>2017-08-13T10:33:14Z</time>
      </trkpt>
      <trkpt lat="42.51042" lon="-0.13301">
        <ele>914.3</ele>
        <time>2017-08-13T10:33:17Z</time>
      </trkpt>
      <trkpt lat="42.51039" lon="-0.13301">
        <ele>914.2</ele>
        <time>2017-08-13T10:33:19Z</time>
      </trkpt>
      <trkpt lat="42.51035" lon="-0.13302">
        <ele>914.2</ele>
        <time>2017-08-13T10:33:21Z</time>
      </trkpt>
      <trkpt lat="42.51031" lon="-0.13303">
        <ele>914.6</ele>
        <time>2017-08-13T10:33:23Z</time>
      </trkpt>
      <trkpt lat="42.51028" lon="-0.13303">
        <ele>914.6</ele>
        <time>2017-08-13T10:33:26Z</time>
      </trkpt>
      <trkpt lat="42.51024" lon="-0.13303">
        <ele>914.6</ele>
        <time>2017-08-13T10:33:28Z</time>
      </trkpt>
      <trkpt lat="42.51021" lon="-0.13303">
        <ele>914.7</ele>
        <time>2017-08-13T10:33:30Z</time>
      </trkpt>
      <trkpt lat="42.51017" lon="-0.13302">
        <ele>914.8</ele>
        <time>2017-08-13T10:33:32Z</time>
      </trkpt>
      <trkpt lat="42.51014" lon="-0.13302">
        <ele>914.9</ele>
        <time>2017-08-13T10:33:34Z</time>
      </trkpt>
      <trkpt lat="42.5101" lon="-0.13303">
        <ele>915.1</ele>
        <time>2017-08-13T10:33:36Z</time>
      </trkpt>
      <trkpt lat="42.51007" lon="-0.13306">
        <ele>915.1</ele>
        <time>2017-08-13T10:33:38Z</time>
      </trkpt>
      <trkpt lat="42.51005" lon="-0.1331">
        <ele>915.1</ele>
        <time>2017-08-13T10:33:40Z</time>
      </trkpt>
      <trkpt lat="42.51005" lon="-0.13314">
        <ele>915.2</ele>
        <time>2017-08-13T10:33:42Z</time>
      </trkpt>
      <trkpt lat="42.51006" lon="-0.13318">
        <ele>916</ele>
        <time>2017-08-13T10:33:44Z</time>
      </trkpt>
      <trkpt lat="42.51008" lon="-0.13322">
        <ele>916.9</ele>
        <time>2017-08-13T10:33:46Z</time>
      </trkpt>
      <trkpt lat="42.5101" lon="-0.13325">
        <ele>917.8</ele>
        <time>2017-08-13T10:33:48Z</time>
      </trkpt>
      <trkpt lat="42.51013" lon="-0.13327">
        <ele>918.7</ele>
        <time>2017-08-13T10:33:50Z</time>
      </trkpt>
      <trkpt lat="42.51015" lon="-0.13329">
        <ele>920.7</ele>
        <time>2017-08-13T10:33:52Z</time>
      </trkpt>
      <trkpt lat="42.51019" lon="-0.13333">
        <ele>922.4</ele>
        <time>2017-08-13T10:33:55Z</time>
      </trkpt>
      <trkpt lat="42.51021" lon="-0.13335">
        <ele>923</ele>
        <time>2017-08-13T10:33:57Z</time>
      </trkpt>
      <trkpt lat="42.51024" lon="-0.13339">
        <ele>923.6</ele>
        <time>2017-08-13T10:34:00Z</time>
      </trkpt>
      <trkpt lat="42.51026" lon="-0.13341">
        <ele>923.9</ele>
        <time>2017-08-13T10:34:02Z</time>
      </trkpt>
      <trkpt lat="42.51029" lon="-0.13343">
        <ele>924.3</ele>
        <time>2017-08-13T10:34:04Z</time>
      </trkpt>
      <trkpt lat="42.51031" lon="-0.13346">
        <ele>925</ele>
        <time>2017-08-13T10:34:06Z</time>
      </trkpt>
      <trkpt lat="42.51034" lon="-0.13347">
        <ele>925.7</ele>
        <time>2017-08-13T10:34:08Z</time>
      </trkpt>
      <trkpt lat="42.51037" lon="-0.13349">
        <ele>926.1</ele>
        <time>2017-08-13T10:34:10Z</time>
      </trkpt>
      <trkpt lat="42.5104" lon="-0.13351">
        <ele>926.3</ele>
        <time>2017-08-13T10:34:12Z</time>
      </trkpt>
      <trkpt lat="42.51043" lon="-0.13353">
        <ele>926.7</ele>
        <time>2017-08-13T10:34:14Z</time>
      </trkpt>
      <trkpt lat="42.51046" lon="-0.13355">
        <ele>927.3</ele>
        <time>2017-08-13T10:34:16Z</time>
      </trkpt>
      <trkpt lat="42.51049" lon="-0.13358">
        <ele>928</ele>
        <time>2017-08-13T10:34:19Z</time>
      </trkpt>
      <trkpt lat="42.51052" lon="-0.13359">
        <ele>928.2</ele>
        <time>2017-08-13T10:34:21Z</time>
      </trkpt>
      <trkpt lat="42.51055" lon="-0.13362">
        <ele>928.3</ele>
        <time>2017-08-13T10:34:24Z</time>
      </trkpt>
      <trkpt lat="42.51057" lon="-0.13365">
        <ele>928.4</ele>
        <time>2017-08-13T10:34:26Z</time>
      </trkpt>
      <trkpt lat="42.51059" lon="-0.13368">
        <ele>928.5</ele>
        <time>2017-08-13T10:34:28Z</time>
      </trkpt>
      <trkpt lat="42.51062" lon="-0.13371">
        <ele>928.7</ele>
        <time>2017-08-13T10:34:31Z</time>
      </trkpt>
      <trkpt lat="42.51064" lon="-0.13375">
        <ele>929.4</ele>
        <time>2017-08-13T10:34:34Z</time>
      </trkpt>
      <trkpt lat="42.51065" lon="-0.1338">
        <ele>930.1</ele>
        <time>2017-08-13T10:34:37Z</time>
      </trkpt>
      <trkpt lat="42.51065" lon="-0.13383">
        <ele>930.6</ele>
        <time>2017-08-13T10:34:39Z</time>
      </trkpt>
      <trkpt lat="42.51066" lon="-0.13387">
        <ele>931</ele>
        <time>2017-08-13T10:34:41Z</time>
      </trkpt>
      <trkpt lat="42.51066" lon="-0.13393">
        <ele>931.9</ele>
        <time>2017-08-13T10:34:44Z</time>
      </trkpt>
      <trkpt lat="42.51067" lon="-0.13396">
        <ele>933</ele>
        <time>2017-08-13T10:34:46Z</time>
      </trkpt>
      <trkpt lat="42.51068" lon="-0.134">
        <ele>934.2</ele>
        <time>2017-08-13T10:34:48Z</time>
      </trkpt>
      <trkpt lat="42.51069" lon="-0.13404">
        <ele>935.3</ele>
        <time>2017-08-13T10:34:50Z</time>
      </trkpt>
      <trkpt lat="42.51069" lon="-0.13408">
        <ele>936.3</ele>
        <time>2017-08-13T10:34:52Z</time>
      </trkpt>
      <trkpt lat="42.5107" lon="-0.13413">
        <ele>937.4</ele>
        <time>2017-08-13T10:34:54Z</time>
      </trkpt>
      <trkpt lat="42.51071" lon="-0.13416">
        <ele>938.5</ele>
        <time>2017-08-13T10:34:56Z</time>
      </trkpt>
      <trkpt lat="42.5107" lon="-0.1342">
        <ele>939.7</ele>
        <time>2017-08-13T10:34:58Z</time>
      </trkpt>
      <trkpt lat="42.51068" lon="-0.13423">
        <ele>941.1</ele>
        <time>2017-08-13T10:35:00Z</time>
      </trkpt>
      <trkpt lat="42.51064" lon="-0.13424">
        <ele>943.8</ele>
        <time>2017-08-13T10:35:03Z</time>
      </trkpt>
      <trkpt lat="42.51061" lon="-0.13423">
        <ele>945.5</ele>
        <time>2017-08-13T10:35:05Z</time>
      </trkpt>
      <trkpt lat="42.51059" lon="-0.1342">
        <ele>945.8</ele>
        <time>2017-08-13T10:35:07Z</time>
      </trkpt>
      <trkpt lat="42.51057" lon="-0.13417">
        <ele>945.9</ele>
        <time>2017-08-13T10:35:09Z</time>
      </trkpt>
      <trkpt lat="42.51055" lon="-0.13414">
        <ele>945.8</ele>
        <time>2017-08-13T10:35:11Z</time>
      </trkpt>
      <trkpt lat="42.51053" lon="-0.13411">
        <ele>943.9</ele>
        <time>2017-08-13T10:35:13Z</time>
      </trkpt>
      <trkpt lat="42.51051" lon="-0.13408">
        <ele>942.4</ele>
        <time>2017-08-13T10:35:15Z</time>
      </trkpt>
      <trkpt lat="42.51048" lon="-0.13403">
        <ele>941.3</ele>
        <time>2017-08-13T10:35:18Z</time>
      </trkpt>
      <trkpt lat="42.51045" lon="-0.13402">
        <ele>940.5</ele>
        <time>2017-08-13T10:35:20Z</time>
      </trkpt>
      <trkpt lat="42.51042" lon="-0.13401">
        <ele>939.7</ele>
        <time>2017-08-13T10:35:22Z</time>
      </trkpt>
      <trkpt lat="42.51038" lon="-0.134">
        <ele>937.7</ele>
        <time>2017-08-13T10:35:24Z</time>
      </trkpt>
      <trkpt lat="42.51035" lon="-0.13399">
        <ele>936.9</ele>
        <time>2017-08-13T10:35:26Z</time>
      </trkpt>
      <trkpt lat="42.51031" lon="-0.13398">
        <ele>937.1</ele>
        <time>2017-08-13T10:35:28Z</time>
      </trkpt>
      <trkpt lat="42.51028" lon="-0.13397">
        <ele>936.7</ele>
        <time>2017-08-13T10:35:30Z</time>
      </trkpt>
      <trkpt lat="42.51024" lon="-0.13396">
        <ele>936.8</ele>
        <time>2017-08-13T10:35:32Z</time>
      </trkpt>
      <trkpt lat="42.51021" lon="-0.13397">
        <ele>937.2</ele>
        <time>2017-08-13T10:35:34Z</time>
      </trkpt>
      <trkpt lat="42.51018" lon="-0.13396">
        <ele>937.6</ele>
        <time>2017-08-13T10:35:36Z</time>
      </trkpt>
      <trkpt lat="42.51014" lon="-0.13396">
        <ele>938</ele>
        <time>2017-08-13T10:35:38Z</time>
      </trkpt>
      <trkpt lat="42.51011" lon="-0.13396">
        <ele>938.3</ele>
        <time>2017-08-13T10:35:40Z</time>
      </trkpt>
      <trkpt lat="42.51008" lon="-0.13395">
        <ele>938.6</ele>
        <time>2017-08-13T10:35:43Z</time>
      </trkpt>
      <trkpt lat="42.51004" lon="-0.13394">
        <ele>939.1</ele>
        <time>2017-08-13T10:35:47Z</time>
      </trkpt>
      <trkpt lat="42.51" lon="-0.13395">
        <ele>939.5</ele>
        <time>2017-08-13T10:35:50Z</time>
      </trkpt>
      <trkpt lat="42.50997" lon="-0.13397">
        <ele>939.7</ele>
        <time>2017-08-13T10:35:52Z</time>
      </trkpt>
      <trkpt lat="42.50994" lon="-0.13398">
        <ele>940</ele>
        <time>2017-08-13T10:35:54Z</time>
      </trkpt>
      <trkpt lat="42.50991" lon="-0.13398">
        <ele>940.6</ele>
        <time>2017-08-13T10:35:56Z</time>
      </trkpt>
      <trkpt lat="42.50988" lon="-0.13399">
        <ele>941.2</ele>
        <time>2017-08-13T10:35:58Z</time>
      </trkpt>
      <trkpt lat="42.50984" lon="-0.134">
        <ele>941.3</ele>
        <time>2017-08-13T10:36:01Z</time>
      </trkpt>
      <trkpt lat="42.50981" lon="-0.13399">
        <ele>941.2</ele>
        <time>2017-08-13T10:36:03Z</time>
      </trkpt>
      <trkpt lat="42.50977" lon="-0.13399">
        <ele>940.9</ele>
        <time>2017-08-13T10:36:06Z</time>
      </trkpt>
      <trkpt lat="42.50974" lon="-0.134">
        <ele>940.6</ele>
        <time>2017-08-13T10:36:08Z</time>
      </trkpt>
      <trkpt lat="42.50971" lon="-0.13401">
        <ele>940.2</ele>
        <time>2017-08-13T10:36:10Z</time>
      </trkpt>
      <trkpt lat="42.50969" lon="-0.13406">
        <ele>939.6</ele>
        <time>2017-08-13T10:36:12Z</time>
      </trkpt>
      <trkpt lat="42.5097" lon="-0.13411">
        <ele>939.4</ele>
        <time>2017-08-13T10:36:14Z</time>
      </trkpt>
      <trkpt lat="42.50973" lon="-0.13415">
        <ele>939.5</ele>
        <time>2017-08-13T10:36:16Z</time>
      </trkpt>
      <trkpt lat="42.50976" lon="-0.13416">
        <ele>939.5</ele>
        <time>2017-08-13T10:36:18Z</time>
      </trkpt>
      <trkpt lat="42.5098" lon="-0.13415">
        <ele>939.7</ele>
        <time>2017-08-13T10:36:20Z</time>
      </trkpt>
      <trkpt lat="42.50983" lon="-0.13414">
        <ele>942.4</ele>
        <time>2017-08-13T10:36:22Z</time>
      </trkpt>
      <trkpt lat="42.50987" lon="-0.13414">
        <ele>943.9</ele>
        <time>2017-08-13T10:36:24Z</time>
      </trkpt>
      <trkpt lat="42.5099" lon="-0.13415">
        <ele>945.4</ele>
        <time>2017-08-13T10:36:26Z</time>
      </trkpt>
      <trkpt lat="42.50993" lon="-0.13415">
        <ele>946.3</ele>
        <time>2017-08-13T10:36:28Z</time>
      </trkpt>
      <trkpt lat="42.50996" lon="-0.13416">
        <ele>946.8</ele>
        <time>2017-08-13T10:36:30Z</time>
      </trkpt>
      <trkpt lat="42.51" lon="-0.13416">
        <ele>947.6</ele>
        <time>2017-08-13T10:36:33Z</time>
      </trkpt>
      <trkpt lat="42.51003" lon="-0.13417">
        <ele>947.8</ele>
        <time>2017-08-13T10:36:35Z</time>
      </trkpt>
      <trkpt lat="42.51006" lon="-0.13418">
        <ele>947.9</ele>
        <time>2017-08-13T10:36:37Z</time>
      </trkpt>
      <trkpt lat="42.51009" lon="-0.1342">
        <ele>948.2</ele>
        <time>2017-08-13T10:36:39Z</time>
      </trkpt>
      <trkpt lat="42.51011" lon="-0.13422">
        <ele>948.7</ele>
        <time>2017-08-13T10:36:41Z</time>
      </trkpt>
      <trkpt lat="42.51014" lon="-0.13425">
        <ele>949.2</ele>
        <time>2017-08-13T10:36:44Z</time>
      </trkpt>
      <trkpt lat="42.51017" lon="-0.13427">
        <ele>949</ele>
        <time>2017-08-13T10:36:46Z</time>
      </trkpt>
      <trkpt lat="42.51019" lon="-0.1343">
        <ele>948.6</ele>
        <time>2017-08-13T10:36:48Z</time>
      </trkpt>
      <trkpt lat="42.51021" lon="-0.13434">
        <ele>949</ele>
        <time>2017-08-13T10:36:50Z</time>
      </trkpt>
      <trkpt lat="42.51023" lon="-0.13438">
        <ele>949.4</ele>
        <time>2017-08-13T10:36:52Z</time>
      </trkpt>
      <trkpt lat="42.51025" lon="-0.13441">
        <ele>949.7</ele>
        <time>2017-08-13T10:36:54Z</time>
      </trkpt>
      <trkpt lat="42.51027" lon="-0.13444">
        <ele>950</ele>
        <time>2017-08-13T10:36:56Z</time>
      </trkpt>
      <trkpt lat="42.51028" lon="-0.13448">
        <ele>950.9</ele>
        <time>2017-08-13T10:36:58Z</time>
      </trkpt>
      <trkpt lat="42.51029" lon="-0.13452">
        <ele>951.9</ele>
        <time>2017-08-13T10:37:00Z</time>
      </trkpt>
      <trkpt lat="42.51031" lon="-0.13455">
        <ele>952.8</ele>
        <time>2017-08-13T10:37:02Z</time>
      </trkpt>
      <trkpt lat="42.51032" lon="-0.13459">
        <ele>953.4</ele>
        <time>2017-08-13T10:37:04Z</time>
      </trkpt>
      <trkpt lat="42.51033" lon="-0.13463">
        <ele>954.1</ele>
        <time>2017-08-13T10:37:06Z</time>
      </trkpt>
      <trkpt lat="42.51034" lon="-0.13466">
        <ele>955.6</ele>
        <time>2017-08-13T10:37:08Z</time>
      </trkpt>
      <trkpt lat="42.51036" lon="-0.1347">
        <ele>957.3</ele>
        <time>2017-08-13T10:37:10Z</time>
      </trkpt>
      <trkpt lat="42.51037" lon="-0.13474">
        <ele>958.8</ele>
        <time>2017-08-13T10:37:12Z</time>
      </trkpt>
      <trkpt lat="42.51038" lon="-0.13477">
        <ele>959.8</ele>
        <time>2017-08-13T10:37:14Z</time>
      </trkpt>
      <trkpt lat="42.51039" lon="-0.13481">
        <ele>960.9</ele>
        <time>2017-08-13T10:37:16Z</time>
      </trkpt>
      <trkpt lat="42.51041" lon="-0.13485">
        <ele>962.1</ele>
        <time>2017-08-13T10:37:19Z</time>
      </trkpt>
      <trkpt lat="42.51043" lon="-0.13488">
        <ele>962.7</ele>
        <time>2017-08-13T10:37:21Z</time>
      </trkpt>
      <trkpt lat="42.51045" lon="-0.13491">
        <ele>963.2</ele>
        <time>2017-08-13T10:37:23Z</time>
      </trkpt>
      <trkpt lat="42.51048" lon="-0.13494">
        <ele>963.3</ele>
        <time>2017-08-13T10:37:25Z</time>
      </trkpt>
      <trkpt lat="42.51051" lon="-0.13496">
        <ele>963.4</ele>
        <time>2017-08-13T10:37:27Z</time>
      </trkpt>
      <trkpt lat="42.51054" lon="-0.13499">
        <ele>963.5</ele>
        <time>2017-08-13T10:37:29Z</time>
      </trkpt>
      <trkpt lat="42.51057" lon="-0.13503">
        <ele>963.6</ele>
        <time>2017-08-13T10:37:31Z</time>
      </trkpt>
      <trkpt lat="42.51059" lon="-0.13506">
        <ele>964</ele>
        <time>2017-08-13T10:37:33Z</time>
      </trkpt>
      <trkpt lat="42.51061" lon="-0.1351">
        <ele>964.4</ele>
        <time>2017-08-13T10:37:35Z</time>
      </trkpt>
      <trkpt lat="42.51062" lon="-0.13514">
        <ele>964.9</ele>
        <time>2017-08-13T10:37:37Z</time>
      </trkpt>
      <trkpt lat="42.51064" lon="-0.13519">
        <ele>965.3</ele>
        <time>2017-08-13T10:37:39Z</time>
      </trkpt>
      <trkpt lat="42.51066" lon="-0.13523">
        <ele>966</ele>
        <time>2017-08-13T10:37:41Z</time>
      </trkpt>
      <trkpt lat="42.51068" lon="-0.13527">
        <ele>966.9</ele>
        <time>2017-08-13T10:37:43Z</time>
      </trkpt>
      <trkpt lat="42.5107" lon="-0.1353">
        <ele>967.7</ele>
        <time>2017-08-13T10:37:45Z</time>
      </trkpt>
      <trkpt lat="42.51073" lon="-0.13534">
        <ele>968.4</ele>
        <time>2017-08-13T10:37:47Z</time>
      </trkpt>
      <trkpt lat="42.51075" lon="-0.13538">
        <ele>969</ele>
        <time>2017-08-13T10:37:50Z</time>
      </trkpt>
      <trkpt lat="42.51077" lon="-0.13541">
        <ele>968.8</ele>
        <time>2017-08-13T10:37:52Z</time>
      </trkpt>
      <trkpt lat="42.5108" lon="-0.13544">
        <ele>968.6</ele>
        <time>2017-08-13T10:37:54Z</time>
      </trkpt>
      <trkpt lat="42.51082" lon="-0.13547">
        <ele>968.4</ele>
        <time>2017-08-13T10:37:56Z</time>
      </trkpt>
      <trkpt lat="42.51085" lon="-0.1355">
        <ele>968.2</ele>
        <time>2017-08-13T10:37:58Z</time>
      </trkpt>
      <trkpt lat="42.51087" lon="-0.13553">
        <ele>968.1</ele>
        <time>2017-08-13T10:38:00Z</time>
      </trkpt>
      <trkpt lat="42.5109" lon="-0.13556">
        <ele>968.4</ele>
        <time>2017-08-13T10:38:02Z</time>
      </trkpt>
      <trkpt lat="42.51092" lon="-0.1356">
        <ele>968.7</ele>
        <time>2017-08-13T10:38:04Z</time>
      </trkpt>
      <trkpt lat="42.51094" lon="-0.13563">
        <ele>969.1</ele>
        <time>2017-08-13T10:38:06Z</time>
      </trkpt>
      <trkpt lat="42.51096" lon="-0.13566">
        <ele>969.5</ele>
        <time>2017-08-13T10:38:08Z</time>
      </trkpt>
      <trkpt lat="42.51098" lon="-0.1357">
        <ele>970</ele>
        <time>2017-08-13T10:38:10Z</time>
      </trkpt>
      <trkpt lat="42.51099" lon="-0.13574">
        <ele>970.6</ele>
        <time>2017-08-13T10:38:12Z</time>
      </trkpt>
      <trkpt lat="42.51101" lon="-0.13578">
        <ele>971.4</ele>
        <time>2017-08-13T10:38:14Z</time>
      </trkpt>
      <trkpt lat="42.51103" lon="-0.13582">
        <ele>971.9</ele>
        <time>2017-08-13T10:38:16Z</time>
      </trkpt>
      <trkpt lat="42.51104" lon="-0.13586">
        <ele>972.2</ele>
        <time>2017-08-13T10:38:18Z</time>
      </trkpt>
      <trkpt lat="42.51107" lon="-0.13589">
        <ele>972.5</ele>
        <time>2017-08-13T10:38:20Z</time>
      </trkpt>
      <trkpt lat="42.51109" lon="-0.13592">
        <ele>972.8</ele>
        <time>2017-08-13T10:38:22Z</time>
      </trkpt>
      <trkpt lat="42.51111" lon="-0.13595">
        <ele>973.1</ele>
        <time>2017-08-13T10:38:24Z</time>
      </trkpt>
      <trkpt lat="42.51113" lon="-0.13599">
        <ele>973.6</ele>
        <time>2017-08-13T10:38:26Z</time>
      </trkpt>
      <trkpt lat="42.51113" lon="-0.13603">
        <ele>974.6</ele>
        <time>2017-08-13T10:38:28Z</time>
      </trkpt>
      <trkpt lat="42.51112" lon="-0.13607">
        <ele>975.7</ele>
        <time>2017-08-13T10:38:30Z</time>
      </trkpt>
      <trkpt lat="42.51109" lon="-0.1361">
        <ele>976.4</ele>
        <time>2017-08-13T10:38:33Z</time>
      </trkpt>
      <trkpt lat="42.51106" lon="-0.13607">
        <ele>977.1</ele>
        <time>2017-08-13T10:38:35Z</time>
      </trkpt>
      <trkpt lat="42.51102" lon="-0.13605">
        <ele>978</ele>
        <time>2017-08-13T10:38:37Z</time>
      </trkpt>
      <trkpt lat="42.51098" lon="-0.13604">
        <ele>979.3</ele>
        <time>2017-08-13T10:38:39Z</time>
      </trkpt>
      <trkpt lat="42.51095" lon="-0.13601">
        <ele>979.6</ele>
        <time>2017-08-13T10:38:41Z</time>
      </trkpt>
      <trkpt lat="42.51092" lon="-0.13598">
        <ele>980.6</ele>
        <time>2017-08-13T10:38:43Z</time>
      </trkpt>
      <trkpt lat="42.5109" lon="-0.13595">
        <ele>980.8</ele>
        <time>2017-08-13T10:38:45Z</time>
      </trkpt>
      <trkpt lat="42.51087" lon="-0.13592">
        <ele>980.9</ele>
        <time>2017-08-13T10:38:47Z</time>
      </trkpt>
      <trkpt lat="42.51084" lon="-0.13589">
        <ele>980.9</ele>
        <time>2017-08-13T10:38:49Z</time>
      </trkpt>
      <trkpt lat="42.51082" lon="-0.13586">
        <ele>980.7</ele>
        <time>2017-08-13T10:38:51Z</time>
      </trkpt>
      <trkpt lat="42.51079" lon="-0.13583">
        <ele>981</ele>
        <time>2017-08-13T10:38:53Z</time>
      </trkpt>
      <trkpt lat="42.51077" lon="-0.1358">
        <ele>980.9</ele>
        <time>2017-08-13T10:38:55Z</time>
      </trkpt>
      <trkpt lat="42.51074" lon="-0.13576">
        <ele>979.9</ele>
        <time>2017-08-13T10:38:57Z</time>
      </trkpt>
      <trkpt lat="42.5107" lon="-0.13573">
        <ele>979.1</ele>
        <time>2017-08-13T10:38:59Z</time>
      </trkpt>
      <trkpt lat="42.51067" lon="-0.13571">
        <ele>978.5</ele>
        <time>2017-08-13T10:39:01Z</time>
      </trkpt>
      <trkpt lat="42.51063" lon="-0.13569">
        <ele>978.3</ele>
        <time>2017-08-13T10:39:03Z</time>
      </trkpt>
      <trkpt lat="42.5106" lon="-0.13568">
        <ele>978.5</ele>
        <time>2017-08-13T10:39:05Z</time>
      </trkpt>
      <trkpt lat="42.51055" lon="-0.13568">
        <ele>978.7</ele>
        <time>2017-08-13T10:39:07Z</time>
      </trkpt>
      <trkpt lat="42.51051" lon="-0.13568">
        <ele>978.4</ele>
        <time>2017-08-13T10:39:09Z</time>
      </trkpt>
      <trkpt lat="42.51047" lon="-0.13567">
        <ele>978.7</ele>
        <time>2017-08-13T10:39:11Z</time>
      </trkpt>
      <trkpt lat="42.51044" lon="-0.13567">
        <ele>979</ele>
        <time>2017-08-13T10:39:13Z</time>
      </trkpt>
      <trkpt lat="42.5104" lon="-0.13566">
        <ele>979.9</ele>
        <time>2017-08-13T10:39:15Z</time>
      </trkpt>
      <trkpt lat="42.51037" lon="-0.13563">
        <ele>980.9</ele>
        <time>2017-08-13T10:39:18Z</time>
      </trkpt>
      <trkpt lat="42.51034" lon="-0.13561">
        <ele>981.7</ele>
        <time>2017-08-13T10:39:20Z</time>
      </trkpt>
      <trkpt lat="42.51031" lon="-0.13558">
        <ele>982.4</ele>
        <time>2017-08-13T10:39:22Z</time>
      </trkpt>
      <trkpt lat="42.51028" lon="-0.13556">
        <ele>983.4</ele>
        <time>2017-08-13T10:39:24Z</time>
      </trkpt>
      <trkpt lat="42.51024" lon="-0.13554">
        <ele>984.4</ele>
        <time>2017-08-13T10:39:26Z</time>
      </trkpt>
      <trkpt lat="42.51022" lon="-0.1355">
        <ele>985.3</ele>
        <time>2017-08-13T10:39:28Z</time>
      </trkpt>
      <trkpt lat="42.5102" lon="-0.13545">
        <ele>986.3</ele>
        <time>2017-08-13T10:39:30Z</time>
      </trkpt>
      <trkpt lat="42.51017" lon="-0.13542">
        <ele>986.9</ele>
        <time>2017-08-13T10:39:32Z</time>
      </trkpt>
      <trkpt lat="42.51015" lon="-0.13538">
        <ele>987.3</ele>
        <time>2017-08-13T10:39:34Z</time>
      </trkpt>
      <trkpt lat="42.51011" lon="-0.13536">
        <ele>986.7</ele>
        <time>2017-08-13T10:39:36Z</time>
      </trkpt>
      <trkpt lat="42.51008" lon="-0.13533">
        <ele>985.6</ele>
        <time>2017-08-13T10:39:38Z</time>
      </trkpt>
      <trkpt lat="42.51006" lon="-0.13531">
        <ele>985.1</ele>
        <time>2017-08-13T10:39:40Z</time>
      </trkpt>
      <trkpt lat="42.51003" lon="-0.13529">
        <ele>984.7</ele>
        <time>2017-08-13T10:39:42Z</time>
      </trkpt>
      <trkpt lat="42.50999" lon="-0.13528">
        <ele>984.3</ele>
        <time>2017-08-13T10:39:44Z</time>
      </trkpt>
      <trkpt lat="42.50996" lon="-0.13528">
        <ele>983.8</ele>
        <time>2017-08-13T10:39:46Z</time>
      </trkpt>
      <trkpt lat="42.50993" lon="-0.13527">
        <ele>983.2</ele>
        <time>2017-08-13T10:39:48Z</time>
      </trkpt>
      <trkpt lat="42.50989" lon="-0.13525">
        <ele>981.9</ele>
        <time>2017-08-13T10:39:51Z</time>
      </trkpt>
      <trkpt lat="42.50986" lon="-0.13524">
        <ele>981.1</ele>
        <time>2017-08-13T10:39:53Z</time>
      </trkpt>
      <trkpt lat="42.50983" lon="-0.13522">
        <ele>980.3</ele>
        <time>2017-08-13T10:39:55Z</time>
      </trkpt>
      <trkpt lat="42.5098" lon="-0.13521">
        <ele>980.6</ele>
        <time>2017-08-13T10:39:57Z</time>
      </trkpt>
      <trkpt lat="42.50977" lon="-0.1352">
        <ele>980.5</ele>
        <time>2017-08-13T10:40:00Z</time>
      </trkpt>
      <trkpt lat="42.50973" lon="-0.1352">
        <ele>979.4</ele>
        <time>2017-08-13T10:40:03Z</time>
      </trkpt>
      <trkpt lat="42.50969" lon="-0.13521">
        <ele>979.4</ele>
        <time>2017-08-13T10:40:06Z</time>
      </trkpt>
      <trkpt lat="42.50966" lon="-0.13523">
        <ele>979.5</ele>
        <time>2017-08-13T10:40:08Z</time>
      </trkpt>
      <trkpt lat="42.50965" lon="-0.13526">
        <ele>979.6</ele>
        <time>2017-08-13T10:40:10Z</time>
      </trkpt>
      <trkpt lat="42.50963" lon="-0.13529">
        <ele>979.6</ele>
        <time>2017-08-13T10:40:12Z</time>
      </trkpt>
      <trkpt lat="42.50961" lon="-0.13532">
        <ele>979.3</ele>
        <time>2017-08-13T10:40:14Z</time>
      </trkpt>
      <trkpt lat="42.50959" lon="-0.13534">
        <ele>979.6</ele>
        <time>2017-08-13T10:40:16Z</time>
      </trkpt>
      <trkpt lat="42.50957" lon="-0.13537">
        <ele>980.6</ele>
        <time>2017-08-13T10:40:18Z</time>
      </trkpt>
      <trkpt lat="42.50954" lon="-0.13541">
        <ele>980.5</ele>
        <time>2017-08-13T10:40:21Z</time>
      </trkpt>
      <trkpt lat="42.50953" lon="-0.13544">
        <ele>980.3</ele>
        <time>2017-08-13T10:40:23Z</time>
      </trkpt>
      <trkpt lat="42.50951" lon="-0.13547">
        <ele>981.3</ele>
        <time>2017-08-13T10:40:25Z</time>
      </trkpt>
      <trkpt lat="42.50949" lon="-0.13551">
        <ele>982.5</ele>
        <time>2017-08-13T10:40:28Z</time>
      </trkpt>
      <trkpt lat="42.50947" lon="-0.13554">
        <ele>983.8</ele>
        <time>2017-08-13T10:40:31Z</time>
      </trkpt>
      <trkpt lat="42.50945" lon="-0.13558">
        <ele>985.1</ele>
        <time>2017-08-13T10:40:34Z</time>
      </trkpt>
      <trkpt lat="42.50943" lon="-0.13563">
        <ele>987</ele>
        <time>2017-08-13T10:40:37Z</time>
      </trkpt>
      <trkpt lat="42.5094" lon="-0.13567">
        <ele>988.8</ele>
        <time>2017-08-13T10:40:39Z</time>
      </trkpt>
      <trkpt lat="42.50938" lon="-0.1357">
        <ele>990.5</ele>
        <time>2017-08-13T10:40:41Z</time>
      </trkpt>
      <trkpt lat="42.50935" lon="-0.13573">
        <ele>992.3</ele>
        <time>2017-08-13T10:40:43Z</time>
      </trkpt>
      <trkpt lat="42.50932" lon="-0.13576">
        <ele>993.8</ele>
        <time>2017-08-13T10:40:45Z</time>
      </trkpt>
      <trkpt lat="42.50929" lon="-0.13579">
        <ele>995.2</ele>
        <time>2017-08-13T10:40:47Z</time>
      </trkpt>
      <trkpt lat="42.50926" lon="-0.13582">
        <ele>996.4</ele>
        <time>2017-08-13T10:40:49Z</time>
      </trkpt>
      <trkpt lat="42.50924" lon="-0.13584">
        <ele>997</ele>
        <time>2017-08-13T10:40:51Z</time>
      </trkpt>
      <trkpt lat="42.50921" lon="-0.13586">
        <ele>997.1</ele>
        <time>2017-08-13T10:40:53Z</time>
      </trkpt>
      <trkpt lat="42.50917" lon="-0.13587">
        <ele>997.3</ele>
        <time>2017-08-13T10:40:55Z</time>
      </trkpt>
      <trkpt lat="42.50914" lon="-0.13589">
        <ele>997.9</ele>
        <time>2017-08-13T10:40:57Z</time>
      </trkpt>
      <trkpt lat="42.50911" lon="-0.1359">
        <ele>998.4</ele>
        <time>2017-08-13T10:40:59Z</time>
      </trkpt>
      <trkpt lat="42.50908" lon="-0.13591">
        <ele>998.7</ele>
        <time>2017-08-13T10:41:01Z</time>
      </trkpt>
      <trkpt lat="42.50905" lon="-0.13594">
        <ele>997.9</ele>
        <time>2017-08-13T10:41:03Z</time>
      </trkpt>
      <trkpt lat="42.50901" lon="-0.13597">
        <ele>997</ele>
        <time>2017-08-13T10:41:05Z</time>
      </trkpt>
      <trkpt lat="42.50898" lon="-0.136">
        <ele>996.6</ele>
        <time>2017-08-13T10:41:07Z</time>
      </trkpt>
      <trkpt lat="42.50895" lon="-0.13605">
        <ele>996.2</ele>
        <time>2017-08-13T10:41:09Z</time>
      </trkpt>
      <trkpt lat="42.50893" lon="-0.1361">
        <ele>995.7</ele>
        <time>2017-08-13T10:41:11Z</time>
      </trkpt>
      <trkpt lat="42.50891" lon="-0.13615">
        <ele>995.6</ele>
        <time>2017-08-13T10:41:13Z</time>
      </trkpt>
      <trkpt lat="42.50888" lon="-0.1362">
        <ele>995.5</ele>
        <time>2017-08-13T10:41:15Z</time>
      </trkpt>
      <trkpt lat="42.50884" lon="-0.13624">
        <ele>995.8</ele>
        <time>2017-08-13T10:41:17Z</time>
      </trkpt>
      <trkpt lat="42.5088" lon="-0.13627">
        <ele>997.2</ele>
        <time>2017-08-13T10:41:19Z</time>
      </trkpt>
      <trkpt lat="42.50876" lon="-0.1363">
        <ele>999.3</ele>
        <time>2017-08-13T10:41:21Z</time>
      </trkpt>
      <trkpt lat="42.50872" lon="-0.13632">
        <ele>1001.4</ele>
        <time>2017-08-13T10:41:23Z</time>
      </trkpt>
      <trkpt lat="42.50868" lon="-0.13632">
        <ele>1002.9</ele>
        <time>2017-08-13T10:41:25Z</time>
      </trkpt>
      <trkpt lat="42.50864" lon="-0.13634">
        <ele>1003.9</ele>
        <time>2017-08-13T10:41:27Z</time>
      </trkpt>
      <trkpt lat="42.5086" lon="-0.13635">
        <ele>1005.4</ele>
        <time>2017-08-13T10:41:29Z</time>
      </trkpt>
      <trkpt lat="42.50857" lon="-0.13637">
        <ele>1007.1</ele>
        <time>2017-08-13T10:41:31Z</time>
      </trkpt>
      <trkpt lat="42.50853" lon="-0.13639">
        <ele>1007</ele>
        <time>2017-08-13T10:41:33Z</time>
      </trkpt>
      <trkpt lat="42.50849" lon="-0.1364">
        <ele>1006.1</ele>
        <time>2017-08-13T10:41:35Z</time>
      </trkpt>
      <trkpt lat="42.50845" lon="-0.13642">
        <ele>1005.6</ele>
        <time>2017-08-13T10:41:37Z</time>
      </trkpt>
      <trkpt lat="42.50842" lon="-0.13644">
        <ele>1004.5</ele>
        <time>2017-08-13T10:41:39Z</time>
      </trkpt>
      <trkpt lat="42.50838" lon="-0.13647">
        <ele>1002.9</ele>
        <time>2017-08-13T10:41:41Z</time>
      </trkpt>
      <trkpt lat="42.50835" lon="-0.13649">
        <ele>1003.7</ele>
        <time>2017-08-13T10:41:43Z</time>
      </trkpt>
      <trkpt lat="42.50831" lon="-0.13652">
        <ele>1004.5</ele>
        <time>2017-08-13T10:41:45Z</time>
      </trkpt>
      <trkpt lat="42.50827" lon="-0.13655">
        <ele>1004.8</ele>
        <time>2017-08-13T10:41:47Z</time>
      </trkpt>
      <trkpt lat="42.50823" lon="-0.13656">
        <ele>1005.5</ele>
        <time>2017-08-13T10:41:49Z</time>
      </trkpt>
      <trkpt lat="42.50818" lon="-0.13657">
        <ele>1006.7</ele>
        <time>2017-08-13T10:41:51Z</time>
      </trkpt>
      <trkpt lat="42.50815" lon="-0.13658">
        <ele>1006.6</ele>
        <time>2017-08-13T10:41:53Z</time>
      </trkpt>
      <trkpt lat="42.50811" lon="-0.1366">
        <ele>1006.2</ele>
        <time>2017-08-13T10:41:56Z</time>
      </trkpt>
      <trkpt lat="42.50807" lon="-0.1366">
        <ele>1006.2</ele>
        <time>2017-08-13T10:41:58Z</time>
      </trkpt>
      <trkpt lat="42.50803" lon="-0.1366">
        <ele>1006.3</ele>
        <time>2017-08-13T10:42:00Z</time>
      </trkpt>
      <trkpt lat="42.50799" lon="-0.1366">
        <ele>1006.3</ele>
        <time>2017-08-13T10:42:02Z</time>
      </trkpt>
      <trkpt lat="42.50796" lon="-0.13661">
        <ele>1005.9</ele>
        <time>2017-08-13T10:42:04Z</time>
      </trkpt>
      <trkpt lat="42.50791" lon="-0.13662">
        <ele>1006.5</ele>
        <time>2017-08-13T10:42:06Z</time>
      </trkpt>
      <trkpt lat="42.50787" lon="-0.13662">
        <ele>1007.2</ele>
        <time>2017-08-13T10:42:08Z</time>
      </trkpt>
      <trkpt lat="42.50782" lon="-0.13661">
        <ele>1007.3</ele>
        <time>2017-08-13T10:42:10Z</time>
      </trkpt>
      <trkpt lat="42.50777" lon="-0.13661">
        <ele>1007.7</ele>
        <time>2017-08-13T10:42:12Z</time>
      </trkpt>
      <trkpt lat="42.50772" lon="-0.1366">
        <ele>1008.5</ele>
        <time>2017-08-13T10:42:14Z</time>
      </trkpt>
      <trkpt lat="42.50769" lon="-0.13658">
        <ele>1009.4</ele>
        <time>2017-08-13T10:42:16Z</time>
      </trkpt>
      <trkpt lat="42.50766" lon="-0.13656">
        <ele>1010.3</ele>
        <time>2017-08-13T10:42:18Z</time>
      </trkpt>
      <trkpt lat="42.50762" lon="-0.13654">
        <ele>1011.2</ele>
        <time>2017-08-13T10:42:20Z</time>
      </trkpt>
      <trkpt lat="42.50759" lon="-0.13651">
        <ele>1011.6</ele>
        <time>2017-08-13T10:42:22Z</time>
      </trkpt>
      <trkpt lat="42.50756" lon="-0.13649">
        <ele>1011.4</ele>
        <time>2017-08-13T10:42:24Z</time>
      </trkpt>
      <trkpt lat="42.50752" lon="-0.13647">
        <ele>1011.6</ele>
        <time>2017-08-13T10:42:26Z</time>
      </trkpt>
      <trkpt lat="42.50749" lon="-0.13645">
        <ele>1011.9</ele>
        <time>2017-08-13T10:42:28Z</time>
      </trkpt>
      <trkpt lat="42.50746" lon="-0.13643">
        <ele>1012.5</ele>
        <time>2017-08-13T10:42:30Z</time>
      </trkpt>
      <trkpt lat="42.50744" lon="-0.13641">
        <ele>1013.8</ele>
        <time>2017-08-13T10:42:32Z</time>
      </trkpt>
      <trkpt lat="42.5074" lon="-0.1364">
        <ele>1015.1</ele>
        <time>2017-08-13T10:42:34Z</time>
      </trkpt>
      <trkpt lat="42.50738" lon="-0.13638">
        <ele>1015.8</ele>
        <time>2017-08-13T10:42:36Z</time>
      </trkpt>
      <trkpt lat="42.50735" lon="-0.13635">
        <ele>1016.6</ele>
        <time>2017-08-13T10:42:38Z</time>
      </trkpt>
      <trkpt lat="42.50732" lon="-0.13632">
        <ele>1017.3</ele>
        <time>2017-08-13T10:42:40Z</time>
      </trkpt>
      <trkpt lat="42.50729" lon="-0.13629">
        <ele>1017.9</ele>
        <time>2017-08-13T10:42:42Z</time>
      </trkpt>
      <trkpt lat="42.50726" lon="-0.13626">
        <ele>1018.8</ele>
        <time>2017-08-13T10:42:44Z</time>
      </trkpt>
      <trkpt lat="42.50723" lon="-0.13622">
        <ele>1019.9</ele>
        <time>2017-08-13T10:42:46Z</time>
      </trkpt>
      <trkpt lat="42.5072" lon="-0.13618">
        <ele>1020.4</ele>
        <time>2017-08-13T10:42:48Z</time>
      </trkpt>
      <trkpt lat="42.50717" lon="-0.13614">
        <ele>1020.4</ele>
        <time>2017-08-13T10:42:50Z</time>
      </trkpt>
      <trkpt lat="42.50714" lon="-0.1361">
        <ele>1020.4</ele>
        <time>2017-08-13T10:42:52Z</time>
      </trkpt>
      <trkpt lat="42.50711" lon="-0.13606">
        <ele>1020.7</ele>
        <time>2017-08-13T10:42:54Z</time>
      </trkpt>
      <trkpt lat="42.50709" lon="-0.13601">
        <ele>1021.1</ele>
        <time>2017-08-13T10:42:56Z</time>
      </trkpt>
      <trkpt lat="42.50708" lon="-0.13594">
        <ele>1021.5</ele>
        <time>2017-08-13T10:42:58Z</time>
      </trkpt>
      <trkpt lat="42.50707" lon="-0.13588">
        <ele>1021.8</ele>
        <time>2017-08-13T10:43:00Z</time>
      </trkpt>
      <trkpt lat="42.50706" lon="-0.13581">
        <ele>1022.4</ele>
        <time>2017-08-13T10:43:02Z</time>
      </trkpt>
      <trkpt lat="42.50706" lon="-0.13575">
        <ele>1022.7</ele>
        <time>2017-08-13T10:43:04Z</time>
      </trkpt>
      <trkpt lat="42.50705" lon="-0.13568">
        <ele>1022.9</ele>
        <time>2017-08-13T10:43:06Z</time>
      </trkpt>
      <trkpt lat="42.50704" lon="-0.13562">
        <ele>1023.3</ele>
        <time>2017-08-13T10:43:08Z</time>
      </trkpt>
      <trkpt lat="42.50703" lon="-0.13556">
        <ele>1023.3</ele>
        <time>2017-08-13T10:43:10Z</time>
      </trkpt>
      <trkpt lat="42.50701" lon="-0.1355">
        <ele>1023.2</ele>
        <time>2017-08-13T10:43:12Z</time>
      </trkpt>
      <trkpt lat="42.507" lon="-0.13544">
        <ele>1023.3</ele>
        <time>2017-08-13T10:43:14Z</time>
      </trkpt>
      <trkpt lat="42.50699" lon="-0.13539">
        <ele>1023.3</ele>
        <time>2017-08-13T10:43:16Z</time>
      </trkpt>
      <trkpt lat="42.50697" lon="-0.13534">
        <ele>1023</ele>
        <time>2017-08-13T10:43:18Z</time>
      </trkpt>
      <trkpt lat="42.50695" lon="-0.1353">
        <ele>1022.9</ele>
        <time>2017-08-13T10:43:20Z</time>
      </trkpt>
      <trkpt lat="42.50692" lon="-0.13526">
        <ele>1022.7</ele>
        <time>2017-08-13T10:43:22Z</time>
      </trkpt>
      <trkpt lat="42.50689" lon="-0.13524">
        <ele>1022.4</ele>
        <time>2017-08-13T10:43:24Z</time>
      </trkpt>
      <trkpt lat="42.50686" lon="-0.13522">
        <ele>1022.1</ele>
        <time>2017-08-13T10:43:26Z</time>
      </trkpt>
      <trkpt lat="42.50683" lon="-0.1352">
        <ele>1021.9</ele>
        <time>2017-08-13T10:43:28Z</time>
      </trkpt>
      <trkpt lat="42.5068" lon="-0.13517">
        <ele>1021.6</ele>
        <time>2017-08-13T10:43:30Z</time>
      </trkpt>
      <trkpt lat="42.50677" lon="-0.13514">
        <ele>1021.5</ele>
        <time>2017-08-13T10:43:32Z</time>
      </trkpt>
      <trkpt lat="42.50674" lon="-0.13511">
        <ele>1021.5</ele>
        <time>2017-08-13T10:43:34Z</time>
      </trkpt>
      <trkpt lat="42.5067" lon="-0.13508">
        <ele>1021.3</ele>
        <time>2017-08-13T10:43:36Z</time>
      </trkpt>
      <trkpt lat="42.50667" lon="-0.13505">
        <ele>1020.6</ele>
        <time>2017-08-13T10:43:38Z</time>
      </trkpt>
      <trkpt lat="42.50665" lon="-0.13502">
        <ele>1019.9</ele>
        <time>2017-08-13T10:43:40Z</time>
      </trkpt>
      <trkpt lat="42.50662" lon="-0.13498">
        <ele>1019.7</ele>
        <time>2017-08-13T10:43:42Z</time>
      </trkpt>
      <trkpt lat="42.50659" lon="-0.13495">
        <ele>1019.5</ele>
        <time>2017-08-13T10:43:44Z</time>
      </trkpt>
      <trkpt lat="42.50656" lon="-0.13492">
        <ele>1019.9</ele>
        <time>2017-08-13T10:43:46Z</time>
      </trkpt>
      <trkpt lat="42.50653" lon="-0.13489">
        <ele>1020.6</ele>
        <time>2017-08-13T10:43:48Z</time>
      </trkpt>
      <trkpt lat="42.50651" lon="-0.13487">
        <ele>1021.2</ele>
        <time>2017-08-13T10:43:50Z</time>
      </trkpt>
      <trkpt lat="42.50648" lon="-0.13484">
        <ele>1022.2</ele>
        <time>2017-08-13T10:43:52Z</time>
      </trkpt>
      <trkpt lat="42.50645" lon="-0.13482">
        <ele>1023.2</ele>
        <time>2017-08-13T10:43:54Z</time>
      </trkpt>
      <trkpt lat="42.50642" lon="-0.13478">
        <ele>1024.4</ele>
        <time>2017-08-13T10:43:56Z</time>
      </trkpt>
      <trkpt lat="42.50641" lon="-0.13473">
        <ele>1025.8</ele>
        <time>2017-08-13T10:43:58Z</time>
      </trkpt>
      <trkpt lat="42.5064" lon="-0.13468">
        <ele>1025.9</ele>
        <time>2017-08-13T10:44:00Z</time>
      </trkpt>
      <trkpt lat="42.5064" lon="-0.13462">
        <ele>1025.7</ele>
        <time>2017-08-13T10:44:02Z</time>
      </trkpt>
      <trkpt lat="42.50639" lon="-0.13456">
        <ele>1026.3</ele>
        <time>2017-08-13T10:44:04Z</time>
      </trkpt>
      <trkpt lat="42.50639" lon="-0.13449">
        <ele>1026.8</ele>
        <time>2017-08-13T10:44:06Z</time>
      </trkpt>
      <trkpt lat="42.50639" lon="-0.13443">
        <ele>1027.1</ele>
        <time>2017-08-13T10:44:08Z</time>
      </trkpt>
      <trkpt lat="42.50637" lon="-0.13436">
        <ele>1027.1</ele>
        <time>2017-08-13T10:44:10Z</time>
      </trkpt>
      <trkpt lat="42.50635" lon="-0.1343">
        <ele>1027.1</ele>
        <time>2017-08-13T10:44:12Z</time>
      </trkpt>
      <trkpt lat="42.50634" lon="-0.13423">
        <ele>1027.7</ele>
        <time>2017-08-13T10:44:14Z</time>
      </trkpt>
      <trkpt lat="42.50634" lon="-0.13416">
        <ele>1028.1</ele>
        <time>2017-08-13T10:44:16Z</time>
      </trkpt>
      <trkpt lat="42.50632" lon="-0.13411">
        <ele>1028.3</ele>
        <time>2017-08-13T10:44:18Z</time>
      </trkpt>
      <trkpt lat="42.50629" lon="-0.13407">
        <ele>1027.8</ele>
        <time>2017-08-13T10:44:20Z</time>
      </trkpt>
      <trkpt lat="42.50624" lon="-0.13402">
        <ele>1027.4</ele>
        <time>2017-08-13T10:44:22Z</time>
      </trkpt>
      <trkpt lat="42.50621" lon="-0.134">
        <ele>1027.3</ele>
        <time>2017-08-13T10:44:23Z</time>
      </trkpt>
      <trkpt lat="42.50619" lon="-0.13398">
        <ele>1027.2</ele>
        <time>2017-08-13T10:44:24Z</time>
      </trkpt>
      <trkpt lat="42.50616" lon="-0.13397">
        <ele>1027.1</ele>
        <time>2017-08-13T10:44:25Z</time>
      </trkpt>
      <trkpt lat="42.50614" lon="-0.13395">
        <ele>1027.1</ele>
        <time>2017-08-13T10:44:26Z</time>
      </trkpt>
      <trkpt lat="42.50611" lon="-0.13393">
        <ele>1027</ele>
        <time>2017-08-13T10:44:27Z</time>
      </trkpt>
      <trkpt lat="42.50608" lon="-0.13392">
        <ele>1026.9</ele>
        <time>2017-08-13T10:44:28Z</time>
      </trkpt>
      <trkpt lat="42.50605" lon="-0.1339">
        <ele>1026.8</ele>
        <time>2017-08-13T10:44:29Z</time>
      </trkpt>
      <trkpt lat="42.50602" lon="-0.13388">
        <ele>1026.6</ele>
        <time>2017-08-13T10:44:30Z</time>
      </trkpt>
      <trkpt lat="42.506" lon="-0.13386">
        <ele>1026.5</ele>
        <time>2017-08-13T10:44:31Z</time>
      </trkpt>
      <trkpt lat="42.50597" lon="-0.13384">
        <ele>1026.6</ele>
        <time>2017-08-13T10:44:32Z</time>
      </trkpt>
      <trkpt lat="42.50595" lon="-0.13382">
        <ele>1027.2</ele>
        <time>2017-08-13T10:44:33Z</time>
      </trkpt>
      <trkpt lat="42.50592" lon="-0.1338">
        <ele>1027.8</ele>
        <time>2017-08-13T10:44:34Z</time>
      </trkpt>
      <trkpt lat="42.50589" lon="-0.13378">
        <ele>1028.1</ele>
        <time>2017-08-13T10:44:35Z</time>
      </trkpt>
      <trkpt lat="42.50587" lon="-0.13376">
        <ele>1028.4</ele>
        <time>2017-08-13T10:44:36Z</time>
      </trkpt>
      <trkpt lat="42.50584" lon="-0.13374">
        <ele>1028.6</ele>
        <time>2017-08-13T10:44:37Z</time>
      </trkpt>
      <trkpt lat="42.50582" lon="-0.13372">
        <ele>1028.8</ele>
        <time>2017-08-13T10:44:38Z</time>
      </trkpt>
      <trkpt lat="42.50579" lon="-0.1337">
        <ele>1029.1</ele>
        <time>2017-08-13T10:44:39Z</time>
      </trkpt>
      <trkpt lat="42.50577" lon="-0.13369">
        <ele>1029.3</ele>
        <time>2017-08-13T10:44:40Z</time>
      </trkpt>
      <trkpt lat="42.50572" lon="-0.13366">
        <ele>1029.7</ele>
        <time>2017-08-13T10:44:42Z</time>
      </trkpt>
      <trkpt lat="42.50569" lon="-0.13364">
        <ele>1030.3</ele>
        <time>2017-08-13T10:44:44Z</time>
      </trkpt>
      <trkpt lat="42.50565" lon="-0.13361">
        <ele>1031.2</ele>
        <time>2017-08-13T10:44:46Z</time>
      </trkpt>
      <trkpt lat="42.5056" lon="-0.13358">
        <ele>1031.5</ele>
        <time>2017-08-13T10:44:48Z</time>
      </trkpt>
      <trkpt lat="42.50558" lon="-0.13356">
        <ele>1031.6</ele>
        <time>2017-08-13T10:44:49Z</time>
      </trkpt>
      <trkpt lat="42.50553" lon="-0.13354">
        <ele>1031.6</ele>
        <time>2017-08-13T10:44:51Z</time>
      </trkpt>
      <trkpt lat="42.50549" lon="-0.13351">
        <ele>1031.6</ele>
        <time>2017-08-13T10:44:53Z</time>
      </trkpt>
      <trkpt lat="42.50545" lon="-0.13349">
        <ele>1031.9</ele>
        <time>2017-08-13T10:44:55Z</time>
      </trkpt>
      <trkpt lat="42.50541" lon="-0.13346">
        <ele>1032</ele>
        <time>2017-08-13T10:44:57Z</time>
      </trkpt>
      <trkpt lat="42.50539" lon="-0.13344">
        <ele>1031.9</ele>
        <time>2017-08-13T10:44:58Z</time>
      </trkpt>
      <trkpt lat="42.50536" lon="-0.13342">
        <ele>1031.8</ele>
        <time>2017-08-13T10:44:59Z</time>
      </trkpt>
      <trkpt lat="42.50532" lon="-0.13339">
        <ele>1031.8</ele>
        <time>2017-08-13T10:45:01Z</time>
      </trkpt>
      <trkpt lat="42.50527" lon="-0.13337">
        <ele>1031.8</ele>
        <time>2017-08-13T10:45:03Z</time>
      </trkpt>
      <trkpt lat="42.50524" lon="-0.13336">
        <ele>1031.7</ele>
        <time>2017-08-13T10:45:04Z</time>
      </trkpt>
      <trkpt lat="42.50521" lon="-0.13334">
        <ele>1031.6</ele>
        <time>2017-08-13T10:45:05Z</time>
      </trkpt>
      <trkpt lat="42.50518" lon="-0.13333">
        <ele>1031.7</ele>
        <time>2017-08-13T10:45:06Z</time>
      </trkpt>
      <trkpt lat="42.50515" lon="-0.13332">
        <ele>1032</ele>
        <time>2017-08-13T10:45:07Z</time>
      </trkpt>
      <trkpt lat="42.50512" lon="-0.1333">
        <ele>1032.3</ele>
        <time>2017-08-13T10:45:08Z</time>
      </trkpt>
      <trkpt lat="42.50509" lon="-0.13328">
        <ele>1032.3</ele>
        <time>2017-08-13T10:45:09Z</time>
      </trkpt>
      <trkpt lat="42.50506" lon="-0.13326">
        <ele>1032.3</ele>
        <time>2017-08-13T10:45:10Z</time>
      </trkpt>
      <trkpt lat="42.50503" lon="-0.13324">
        <ele>1032.3</ele>
        <time>2017-08-13T10:45:11Z</time>
      </trkpt>
      <trkpt lat="42.505" lon="-0.13322">
        <ele>1032.3</ele>
        <time>2017-08-13T10:45:12Z</time>
      </trkpt>
      <trkpt lat="42.50498" lon="-0.1332">
        <ele>1032.3</ele>
        <time>2017-08-13T10:45:13Z</time>
      </trkpt>
      <trkpt lat="42.50495" lon="-0.13317">
        <ele>1032.5</ele>
        <time>2017-08-13T10:45:14Z</time>
      </trkpt>
      <trkpt lat="42.50492" lon="-0.13314">
        <ele>1032.7</ele>
        <time>2017-08-13T10:45:15Z</time>
      </trkpt>
      <trkpt lat="42.50488" lon="-0.13312">
        <ele>1032.4</ele>
        <time>2017-08-13T10:45:16Z</time>
      </trkpt>
      <trkpt lat="42.50485" lon="-0.1331">
        <ele>1031.7</ele>
        <time>2017-08-13T10:45:17Z</time>
      </trkpt>
      <trkpt lat="42.50482" lon="-0.13308">
        <ele>1031.3</ele>
        <time>2017-08-13T10:45:18Z</time>
      </trkpt>
      <trkpt lat="42.50479" lon="-0.13307">
        <ele>1031.8</ele>
        <time>2017-08-13T10:45:19Z</time>
      </trkpt>
      <trkpt lat="42.50476" lon="-0.13306">
        <ele>1032.3</ele>
        <time>2017-08-13T10:45:20Z</time>
      </trkpt>
      <trkpt lat="42.50473" lon="-0.13305">
        <ele>1032.2</ele>
        <time>2017-08-13T10:45:21Z</time>
      </trkpt>
      <trkpt lat="42.5047" lon="-0.13303">
        <ele>1032</ele>
        <time>2017-08-13T10:45:22Z</time>
      </trkpt>
      <trkpt lat="42.50467" lon="-0.13302">
        <ele>1032.5</ele>
        <time>2017-08-13T10:45:23Z</time>
      </trkpt>
      <trkpt lat="42.50464" lon="-0.13301">
        <ele>1033</ele>
        <time>2017-08-13T10:45:24Z</time>
      </trkpt>
      <trkpt lat="42.50461" lon="-0.13299">
        <ele>1032.9</ele>
        <time>2017-08-13T10:45:25Z</time>
      </trkpt>
      <trkpt lat="42.50459" lon="-0.13296">
        <ele>1032.4</ele>
        <time>2017-08-13T10:45:26Z</time>
      </trkpt>
      <trkpt lat="42.50456" lon="-0.13293">
        <ele>1032.1</ele>
        <time>2017-08-13T10:45:27Z</time>
      </trkpt>
      <trkpt lat="42.50454" lon="-0.13291">
        <ele>1032.2</ele>
        <time>2017-08-13T10:45:28Z</time>
      </trkpt>
      <trkpt lat="42.50451" lon="-0.13289">
        <ele>1032.2</ele>
        <time>2017-08-13T10:45:29Z</time>
      </trkpt>
      <trkpt lat="42.50448" lon="-0.13287">
        <ele>1032.3</ele>
        <time>2017-08-13T10:45:30Z</time>
      </trkpt>
      <trkpt lat="42.50446" lon="-0.13286">
        <ele>1032.4</ele>
        <time>2017-08-13T10:45:31Z</time>
      </trkpt>
      <trkpt lat="42.50443" lon="-0.13285">
        <ele>1032.5</ele>
        <time>2017-08-13T10:45:32Z</time>
      </trkpt>
      <trkpt lat="42.5044" lon="-0.13283">
        <ele>1032.6</ele>
        <time>2017-08-13T10:45:33Z</time>
      </trkpt>
      <trkpt lat="42.50437" lon="-0.13282">
        <ele>1032.6</ele>
        <time>2017-08-13T10:45:34Z</time>
      </trkpt>
      <trkpt lat="42.50433" lon="-0.13282">
        <ele>1032.7</ele>
        <time>2017-08-13T10:45:35Z</time>
      </trkpt>
      <trkpt lat="42.5043" lon="-0.13281">
        <ele>1032.9</ele>
        <time>2017-08-13T10:45:36Z</time>
      </trkpt>
      <trkpt lat="42.50426" lon="-0.1328">
        <ele>1032.9</ele>
        <time>2017-08-13T10:45:37Z</time>
      </trkpt>
      <trkpt lat="42.50423" lon="-0.13279">
        <ele>1033</ele>
        <time>2017-08-13T10:45:38Z</time>
      </trkpt>
      <trkpt lat="42.5042" lon="-0.13278">
        <ele>1033</ele>
        <time>2017-08-13T10:45:39Z</time>
      </trkpt>
      <trkpt lat="42.50417" lon="-0.13277">
        <ele>1032.6</ele>
        <time>2017-08-13T10:45:40Z</time>
      </trkpt>
      <trkpt lat="42.50413" lon="-0.13275">
        <ele>1032.3</ele>
        <time>2017-08-13T10:45:41Z</time>
      </trkpt>
      <trkpt lat="42.5041" lon="-0.13274">
        <ele>1032.7</ele>
        <time>2017-08-13T10:45:42Z</time>
      </trkpt>
      <trkpt lat="42.50407" lon="-0.13272">
        <ele>1033.1</ele>
        <time>2017-08-13T10:45:43Z</time>
      </trkpt>
      <trkpt lat="42.50404" lon="-0.1327">
        <ele>1033.3</ele>
        <time>2017-08-13T10:45:44Z</time>
      </trkpt>
      <trkpt lat="42.504" lon="-0.13268">
        <ele>1033.3</ele>
        <time>2017-08-13T10:45:45Z</time>
      </trkpt>
      <trkpt lat="42.50397" lon="-0.13266">
        <ele>1033.4</ele>
        <time>2017-08-13T10:45:46Z</time>
      </trkpt>
      <trkpt lat="42.50394" lon="-0.13264">
        <ele>1033.5</ele>
        <time>2017-08-13T10:45:47Z</time>
      </trkpt>
      <trkpt lat="42.50392" lon="-0.13262">
        <ele>1033.6</ele>
        <time>2017-08-13T10:45:48Z</time>
      </trkpt>
      <trkpt lat="42.50389" lon="-0.13259">
        <ele>1034</ele>
        <time>2017-08-13T10:45:49Z</time>
      </trkpt>
      <trkpt lat="42.50386" lon="-0.13256">
        <ele>1034.3</ele>
        <time>2017-08-13T10:45:50Z</time>
      </trkpt>
      <trkpt lat="42.50383" lon="-0.13253">
        <ele>1034.5</ele>
        <time>2017-08-13T10:45:51Z</time>
      </trkpt>
      <trkpt lat="42.50381" lon="-0.1325">
        <ele>1034.7</ele>
        <time>2017-08-13T10:45:52Z</time>
      </trkpt>
      <trkpt lat="42.50378" lon="-0.13248">
        <ele>1034.8</ele>
        <time>2017-08-13T10:45:53Z</time>
      </trkpt>
      <trkpt lat="42.50375" lon="-0.13246">
        <ele>1034.9</ele>
        <time>2017-08-13T10:45:54Z</time>
      </trkpt>
      <trkpt lat="42.50373" lon="-0.13244">
        <ele>1035</ele>
        <time>2017-08-13T10:45:55Z</time>
      </trkpt>
      <trkpt lat="42.5037" lon="-0.13242">
        <ele>1035.2</ele>
        <time>2017-08-13T10:45:56Z</time>
      </trkpt>
      <trkpt lat="42.50367" lon="-0.13241">
        <ele>1035.4</ele>
        <time>2017-08-13T10:45:57Z</time>
      </trkpt>
      <trkpt lat="42.50365" lon="-0.1324">
        <ele>1035.3</ele>
        <time>2017-08-13T10:45:58Z</time>
      </trkpt>
      <trkpt lat="42.50362" lon="-0.13239">
        <ele>1035.2</ele>
        <time>2017-08-13T10:45:59Z</time>
      </trkpt>
      <trkpt lat="42.50359" lon="-0.13238">
        <ele>1035.3</ele>
        <time>2017-08-13T10:46:00Z</time>
      </trkpt>
      <trkpt lat="42.50355" lon="-0.13237">
        <ele>1035.8</ele>
        <time>2017-08-13T10:46:01Z</time>
      </trkpt>
      <trkpt lat="42.50352" lon="-0.13236">
        <ele>1036.1</ele>
        <time>2017-08-13T10:46:02Z</time>
      </trkpt>
      <trkpt lat="42.50349" lon="-0.13234">
        <ele>1036.3</ele>
        <time>2017-08-13T10:46:03Z</time>
      </trkpt>
      <trkpt lat="42.50346" lon="-0.13232">
        <ele>1036.5</ele>
        <time>2017-08-13T10:46:04Z</time>
      </trkpt>
      <trkpt lat="42.50343" lon="-0.13231">
        <ele>1036.7</ele>
        <time>2017-08-13T10:46:05Z</time>
      </trkpt>
      <trkpt lat="42.5034" lon="-0.13228">
        <ele>1037</ele>
        <time>2017-08-13T10:46:06Z</time>
      </trkpt>
      <trkpt lat="42.50336" lon="-0.13226">
        <ele>1037.3</ele>
        <time>2017-08-13T10:46:07Z</time>
      </trkpt>
      <trkpt lat="42.50333" lon="-0.13224">
        <ele>1037.6</ele>
        <time>2017-08-13T10:46:08Z</time>
      </trkpt>
      <trkpt lat="42.5033" lon="-0.13222">
        <ele>1037.4</ele>
        <time>2017-08-13T10:46:09Z</time>
      </trkpt>
      <trkpt lat="42.50328" lon="-0.13219">
        <ele>1037.3</ele>
        <time>2017-08-13T10:46:10Z</time>
      </trkpt>
      <trkpt lat="42.50326" lon="-0.13215">
        <ele>1037.3</ele>
        <time>2017-08-13T10:46:11Z</time>
      </trkpt>
      <trkpt lat="42.50324" lon="-0.13212">
        <ele>1037.5</ele>
        <time>2017-08-13T10:46:12Z</time>
      </trkpt>
      <trkpt lat="42.50322" lon="-0.13209">
        <ele>1037.6</ele>
        <time>2017-08-13T10:46:13Z</time>
      </trkpt>
      <trkpt lat="42.5032" lon="-0.13206">
        <ele>1037.5</ele>
        <time>2017-08-13T10:46:14Z</time>
      </trkpt>
      <trkpt lat="42.50317" lon="-0.13204">
        <ele>1037.4</ele>
        <time>2017-08-13T10:46:15Z</time>
      </trkpt>
      <trkpt lat="42.50314" lon="-0.13202">
        <ele>1037.3</ele>
        <time>2017-08-13T10:46:16Z</time>
      </trkpt>
      <trkpt lat="42.50311" lon="-0.132">
        <ele>1037.2</ele>
        <time>2017-08-13T10:46:17Z</time>
      </trkpt>
      <trkpt lat="42.50308" lon="-0.13199">
        <ele>1037.3</ele>
        <time>2017-08-13T10:46:18Z</time>
      </trkpt>
      <trkpt lat="42.50305" lon="-0.13197">
        <ele>1037.4</ele>
        <time>2017-08-13T10:46:19Z</time>
      </trkpt>
      <trkpt lat="42.50302" lon="-0.13194">
        <ele>1037</ele>
        <time>2017-08-13T10:46:20Z</time>
      </trkpt>
      <trkpt lat="42.503" lon="-0.13192">
        <ele>1036.4</ele>
        <time>2017-08-13T10:46:21Z</time>
      </trkpt>
      <trkpt lat="42.50297" lon="-0.13189">
        <ele>1036</ele>
        <time>2017-08-13T10:46:22Z</time>
      </trkpt>
      <trkpt lat="42.50294" lon="-0.13187">
        <ele>1036</ele>
        <time>2017-08-13T10:46:23Z</time>
      </trkpt>
      <trkpt lat="42.50291" lon="-0.13185">
        <ele>1035.5</ele>
        <time>2017-08-13T10:46:24Z</time>
      </trkpt>
      <trkpt lat="42.50289" lon="-0.13185">
        <ele>1035</ele>
        <time>2017-08-13T10:46:25Z</time>
      </trkpt>
      <trkpt lat="42.50286" lon="-0.13185">
        <ele>1034.7</ele>
        <time>2017-08-13T10:46:26Z</time>
      </trkpt>
      <trkpt lat="42.50283" lon="-0.13186">
        <ele>1034.5</ele>
        <time>2017-08-13T10:46:27Z</time>
      </trkpt>
      <trkpt lat="42.50281" lon="-0.13188">
        <ele>1034.4</ele>
        <time>2017-08-13T10:46:28Z</time>
      </trkpt>
      <trkpt lat="42.50277" lon="-0.13194">
        <ele>1034.9</ele>
        <time>2017-08-13T10:46:30Z</time>
      </trkpt>
      <trkpt lat="42.50274" lon="-0.132">
        <ele>1034.7</ele>
        <time>2017-08-13T10:46:32Z</time>
      </trkpt>
      <trkpt lat="42.50273" lon="-0.13207">
        <ele>1035.2</ele>
        <time>2017-08-13T10:46:34Z</time>
      </trkpt>
      <trkpt lat="42.50272" lon="-0.13213">
        <ele>1036.1</ele>
        <time>2017-08-13T10:46:36Z</time>
      </trkpt>
      <trkpt lat="42.50273" lon="-0.13219">
        <ele>1037</ele>
        <time>2017-08-13T10:46:38Z</time>
      </trkpt>
      <trkpt lat="42.5027" lon="-0.13222">
        <ele>1037.9</ele>
        <time>2017-08-13T10:47:44Z</time>
      </trkpt>
      <trkpt lat="42.50266" lon="-0.13225">
        <ele>1038.5</ele>
        <time>2017-08-13T10:47:46Z</time>
      </trkpt>
      <trkpt lat="42.50263" lon="-0.13227">
        <ele>1038.6</ele>
        <time>2017-08-13T10:47:47Z</time>
      </trkpt>
      <trkpt lat="42.50261" lon="-0.1323">
        <ele>1038.6</ele>
        <time>2017-08-13T10:47:48Z</time>
      </trkpt>
      <trkpt lat="42.50258" lon="-0.13236">
        <ele>1039.2</ele>
        <time>2017-08-13T10:47:50Z</time>
      </trkpt>
      <trkpt lat="42.50257" lon="-0.13242">
        <ele>1039.9</ele>
        <time>2017-08-13T10:47:52Z</time>
      </trkpt>
      <trkpt lat="42.50255" lon="-0.13249">
        <ele>1040.5</ele>
        <time>2017-08-13T10:47:54Z</time>
      </trkpt>
      <trkpt lat="42.50253" lon="-0.13254">
        <ele>1041</ele>
        <time>2017-08-13T10:47:56Z</time>
      </trkpt>
      <trkpt lat="42.5025" lon="-0.13257">
        <ele>1041.5</ele>
        <time>2017-08-13T10:47:58Z</time>
      </trkpt>
      <trkpt lat="42.50247" lon="-0.13261">
        <ele>1042</ele>
        <time>2017-08-13T10:48:00Z</time>
      </trkpt>
      <trkpt lat="42.50245" lon="-0.13266">
        <ele>1042.5</ele>
        <time>2017-08-13T10:48:02Z</time>
      </trkpt>
      <trkpt lat="42.50242" lon="-0.13271">
        <ele>1041.4</ele>
        <time>2017-08-13T10:48:04Z</time>
      </trkpt>
      <trkpt lat="42.5024" lon="-0.13277">
        <ele>1040.3</ele>
        <time>2017-08-13T10:48:06Z</time>
      </trkpt>
      <trkpt lat="42.50238" lon="-0.13281">
        <ele>1039.2</ele>
        <time>2017-08-13T10:48:07Z</time>
      </trkpt>
      <trkpt lat="42.50236" lon="-0.13284">
        <ele>1039.9</ele>
        <time>2017-08-13T10:48:08Z</time>
      </trkpt>
      <trkpt lat="42.50234" lon="-0.13288">
        <ele>1038.7</ele>
        <time>2017-08-13T10:48:10Z</time>
      </trkpt>
      <trkpt lat="42.50233" lon="-0.13293">
        <ele>1039.4</ele>
        <time>2017-08-13T10:48:12Z</time>
      </trkpt>
      <trkpt lat="42.50233" lon="-0.13297">
        <ele>1040.1</ele>
        <time>2017-08-13T10:48:14Z</time>
      </trkpt>
      <trkpt lat="42.50231" lon="-0.13302">
        <ele>1038.7</ele>
        <time>2017-08-13T10:48:17Z</time>
      </trkpt>
      <trkpt lat="42.5023" lon="-0.13306">
        <ele>1039.2</ele>
        <time>2017-08-13T10:48:19Z</time>
      </trkpt>
      <trkpt lat="42.50228" lon="-0.13312">
        <ele>1037.8</ele>
        <time>2017-08-13T10:48:21Z</time>
      </trkpt>
      <trkpt lat="42.50225" lon="-0.13317">
        <ele>1037.3</ele>
        <time>2017-08-13T10:48:23Z</time>
      </trkpt>
      <trkpt lat="42.50224" lon="-0.1332">
        <ele>1037.3</ele>
        <time>2017-08-13T10:48:25Z</time>
      </trkpt>
      <trkpt lat="42.50222" lon="-0.13325">
        <ele>1036.3</ele>
        <time>2017-08-13T10:48:27Z</time>
      </trkpt>
      <trkpt lat="42.50221" lon="-0.13329">
        <ele>1036.9</ele>
        <time>2017-08-13T10:48:29Z</time>
      </trkpt>
      <trkpt lat="42.5022" lon="-0.13334">
        <ele>1037.9</ele>
        <time>2017-08-13T10:48:32Z</time>
      </trkpt>
      <trkpt lat="42.50216" lon="-0.13338">
        <ele>1033.9</ele>
        <time>2017-08-13T10:49:03Z</time>
      </trkpt>
      <trkpt lat="42.50214" lon="-0.13341">
        <ele>1034.3</ele>
        <time>2017-08-13T10:49:17Z</time>
      </trkpt>
      <trkpt lat="42.50213" lon="-0.13344">
        <ele>1032.6</ele>
        <time>2017-08-13T10:49:29Z</time>
      </trkpt>
      <trkpt lat="42.50206" lon="-0.1336">
        <ele>1030</ele>
        <time>2017-08-13T10:50:17Z</time>
      </trkpt>
      <trkpt lat="42.50204" lon="-0.13363">
        <ele>1030</ele>
        <time>2017-08-13T10:50:19Z</time>
      </trkpt>
      <trkpt lat="42.50202" lon="-0.13367">
        <ele>1028.4</ele>
        <time>2017-08-13T10:50:21Z</time>
      </trkpt>
      <trkpt lat="42.502" lon="-0.13372">
        <ele>1027.1</ele>
        <time>2017-08-13T10:50:23Z</time>
      </trkpt>
      <trkpt lat="42.50198" lon="-0.13376">
        <ele>1027.9</ele>
        <time>2017-08-13T10:50:25Z</time>
      </trkpt>
      <trkpt lat="42.50196" lon="-0.1338">
        <ele>1027.1</ele>
        <time>2017-08-13T10:50:27Z</time>
      </trkpt>
      <trkpt lat="42.50194" lon="-0.13383">
        <ele>1026.4</ele>
        <time>2017-08-13T10:50:29Z</time>
      </trkpt>
      <trkpt lat="42.50191" lon="-0.13385">
        <ele>1026.4</ele>
        <time>2017-08-13T10:50:34Z</time>
      </trkpt>
      <trkpt lat="42.50189" lon="-0.13388">
        <ele>1025.5</ele>
        <time>2017-08-13T10:50:40Z</time>
      </trkpt>
      <trkpt lat="42.50187" lon="-0.1339">
        <ele>1024.4</ele>
        <time>2017-08-13T10:50:46Z</time>
      </trkpt>
      <trkpt lat="42.50186" lon="-0.13394">
        <ele>1025.1</ele>
        <time>2017-08-13T10:50:50Z</time>
      </trkpt>
      <trkpt lat="42.50185" lon="-0.13398">
        <ele>1023.4</ele>
        <time>2017-08-13T10:50:54Z</time>
      </trkpt>
      <trkpt lat="42.50183" lon="-0.13402">
        <ele>1024.2</ele>
        <time>2017-08-13T10:50:59Z</time>
      </trkpt>
      <trkpt lat="42.50182" lon="-0.13405">
        <ele>1025</ele>
        <time>2017-08-13T10:51:07Z</time>
      </trkpt>
      <trkpt lat="42.50179" lon="-0.13407">
        <ele>1024.4</ele>
        <time>2017-08-13T10:51:09Z</time>
      </trkpt>
      <trkpt lat="42.50175" lon="-0.13409">
        <ele>1021.7</ele>
        <time>2017-08-13T10:51:11Z</time>
      </trkpt>
      <trkpt lat="42.50171" lon="-0.1341">
        <ele>1020.4</ele>
        <time>2017-08-13T10:51:13Z</time>
      </trkpt>
      <trkpt lat="42.50168" lon="-0.13411">
        <ele>1020.4</ele>
        <time>2017-08-13T10:51:15Z</time>
      </trkpt>
      <trkpt lat="42.50165" lon="-0.13407">
        <ele>1018</ele>
        <time>2017-08-13T10:51:18Z</time>
      </trkpt>
      <trkpt lat="42.50163" lon="-0.13402">
        <ele>1015.5</ele>
        <time>2017-08-13T10:51:20Z</time>
      </trkpt>
      <trkpt lat="42.50162" lon="-0.13397">
        <ele>1012.9</ele>
        <time>2017-08-13T10:51:22Z</time>
      </trkpt>
      <trkpt lat="42.50159" lon="-0.13392">
        <ele>1010.2</ele>
        <time>2017-08-13T10:52:29Z</time>
      </trkpt>
      <trkpt lat="42.50156" lon="-0.13393">
        <ele>1008.5</ele>
        <time>2017-08-13T10:52:43Z</time>
      </trkpt>
      <trkpt lat="42.50153" lon="-0.13393">
        <ele>1006.8</ele>
        <time>2017-08-13T10:52:45Z</time>
      </trkpt>
      <trkpt lat="42.50149" lon="-0.13394">
        <ele>1005.2</ele>
        <time>2017-08-13T10:52:47Z</time>
      </trkpt>
      <trkpt lat="42.50146" lon="-0.13392">
        <ele>1003.7</ele>
        <time>2017-08-13T10:52:49Z</time>
      </trkpt>
      <trkpt lat="42.50142" lon="-0.1339">
        <ele>1002.4</ele>
        <time>2017-08-13T10:52:51Z</time>
      </trkpt>
      <trkpt lat="42.50139" lon="-0.13389">
        <ele>1000.6</ele>
        <time>2017-08-13T10:52:53Z</time>
      </trkpt>
      <trkpt lat="42.50135" lon="-0.13391">
        <ele>1000.1</ele>
        <time>2017-08-13T10:52:55Z</time>
      </trkpt>
      <trkpt lat="42.50132" lon="-0.13393">
        <ele>999</ele>
        <time>2017-08-13T10:52:56Z</time>
      </trkpt>
      <trkpt lat="42.50129" lon="-0.13394">
        <ele>998.9</ele>
        <time>2017-08-13T10:52:57Z</time>
      </trkpt>
      <trkpt lat="42.50127" lon="-0.13396">
        <ele>997.8</ele>
        <time>2017-08-13T10:52:58Z</time>
      </trkpt>
      <trkpt lat="42.50124" lon="-0.13399">
        <ele>998</ele>
        <time>2017-08-13T10:52:59Z</time>
      </trkpt>
      <trkpt lat="42.50122" lon="-0.13401">
        <ele>997.9</ele>
        <time>2017-08-13T10:53:00Z</time>
      </trkpt>
      <trkpt lat="42.50117" lon="-0.13405">
        <ele>997.5</ele>
        <time>2017-08-13T10:53:02Z</time>
      </trkpt>
      <trkpt lat="42.50113" lon="-0.13409">
        <ele>998.1</ele>
        <time>2017-08-13T10:53:04Z</time>
      </trkpt>
      <trkpt lat="42.50109" lon="-0.13413">
        <ele>998.6</ele>
        <time>2017-08-13T10:53:06Z</time>
      </trkpt>
      <trkpt lat="42.50104" lon="-0.13415">
        <ele>996.6</ele>
        <time>2017-08-13T10:53:08Z</time>
      </trkpt>
      <trkpt lat="42.501" lon="-0.13414">
        <ele>995.4</ele>
        <time>2017-08-13T10:53:10Z</time>
      </trkpt>
      <trkpt lat="42.50097" lon="-0.13412">
        <ele>994.1</ele>
        <time>2017-08-13T10:53:12Z</time>
      </trkpt>
      <trkpt lat="42.50094" lon="-0.1341">
        <ele>991.7</ele>
        <time>2017-08-13T10:53:26Z</time>
      </trkpt>
      <trkpt lat="42.50092" lon="-0.13407">
        <ele>990.5</ele>
        <time>2017-08-13T10:53:32Z</time>
      </trkpt>
      <trkpt lat="42.50092" lon="-0.13403">
        <ele>989.2</ele>
        <time>2017-08-13T10:53:37Z</time>
      </trkpt>
      <trkpt lat="42.50096" lon="-0.134">
        <ele>989.1</ele>
        <time>2017-08-13T10:53:39Z</time>
      </trkpt>
      <trkpt lat="42.50099" lon="-0.13398">
        <ele>989</ele>
        <time>2017-08-13T10:53:41Z</time>
      </trkpt>
      <trkpt lat="42.501" lon="-0.13393">
        <ele>989</ele>
        <time>2017-08-13T10:53:43Z</time>
      </trkpt>
      <trkpt lat="42.50096" lon="-0.13389">
        <ele>986</ele>
        <time>2017-08-13T10:53:45Z</time>
      </trkpt>
      <trkpt lat="42.50093" lon="-0.13387">
        <ele>986</ele>
        <time>2017-08-13T10:53:46Z</time>
      </trkpt>
      <trkpt lat="42.50089" lon="-0.13384">
        <ele>983.3</ele>
        <time>2017-08-13T10:53:48Z</time>
      </trkpt>
      <trkpt lat="42.50084" lon="-0.13382">
        <ele>982.6</ele>
        <time>2017-08-13T10:53:50Z</time>
      </trkpt>
      <trkpt lat="42.5008" lon="-0.13379">
        <ele>981.2</ele>
        <time>2017-08-13T10:53:52Z</time>
      </trkpt>
      <trkpt lat="42.50081" lon="-0.13375">
        <ele>980.3</ele>
        <time>2017-08-13T10:53:55Z</time>
      </trkpt>
      <trkpt lat="42.50085" lon="-0.13372">
        <ele>980.1</ele>
        <time>2017-08-13T10:53:57Z</time>
      </trkpt>
      <trkpt lat="42.50088" lon="-0.13368">
        <ele>980</ele>
        <time>2017-08-13T10:53:59Z</time>
      </trkpt>
      <trkpt lat="42.50088" lon="-0.13362">
        <ele>979.3</ele>
        <time>2017-08-13T10:54:01Z</time>
      </trkpt>
      <trkpt lat="42.50083" lon="-0.1336">
        <ele>978</ele>
        <time>2017-08-13T10:54:03Z</time>
      </trkpt>
      <trkpt lat="42.50079" lon="-0.1336">
        <ele>977.4</ele>
        <time>2017-08-13T10:54:04Z</time>
      </trkpt>
      <trkpt lat="42.50076" lon="-0.1336">
        <ele>976.7</ele>
        <time>2017-08-13T10:54:05Z</time>
      </trkpt>
      <trkpt lat="42.50071" lon="-0.13359">
        <ele>975.4</ele>
        <time>2017-08-13T10:54:07Z</time>
      </trkpt>
      <trkpt lat="42.50069" lon="-0.13355">
        <ele>974.7</ele>
        <time>2017-08-13T10:54:09Z</time>
      </trkpt>
      <trkpt lat="42.50068" lon="-0.13351">
        <ele>974</ele>
        <time>2017-08-13T10:54:11Z</time>
      </trkpt>
      <trkpt lat="42.50063" lon="-0.13351">
        <ele>972.7</ele>
        <time>2017-08-13T10:54:14Z</time>
      </trkpt>
      <trkpt lat="42.5006" lon="-0.13354">
        <ele>972</ele>
        <time>2017-08-13T10:54:16Z</time>
      </trkpt>
      <trkpt lat="42.50057" lon="-0.13356">
        <ele>971.9</ele>
        <time>2017-08-13T10:54:18Z</time>
      </trkpt>
      <trkpt lat="42.50054" lon="-0.13359">
        <ele>971.2</ele>
        <time>2017-08-13T10:54:20Z</time>
      </trkpt>
      <trkpt lat="42.50051" lon="-0.13358">
        <ele>970.4</ele>
        <time>2017-08-13T10:54:23Z</time>
      </trkpt>
      <trkpt lat="42.50051" lon="-0.13352">
        <ele>969.9</ele>
        <time>2017-08-13T10:54:26Z</time>
      </trkpt>
      <trkpt lat="42.50052" lon="-0.13346">
        <ele>969.5</ele>
        <time>2017-08-13T10:54:28Z</time>
      </trkpt>
      <trkpt lat="42.50051" lon="-0.13342">
        <ele>968</ele>
        <time>2017-08-13T10:54:30Z</time>
      </trkpt>
      <trkpt lat="42.50051" lon="-0.13337">
        <ele>967.3</ele>
        <time>2017-08-13T10:54:33Z</time>
      </trkpt>
      <trkpt lat="42.50053" lon="-0.13334">
        <ele>968</ele>
        <time>2017-08-13T10:54:35Z</time>
      </trkpt>
      <trkpt lat="42.50053" lon="-0.13329">
        <ele>966.1</ele>
        <time>2017-08-13T10:54:38Z</time>
      </trkpt>
      <trkpt lat="42.50053" lon="-0.13324">
        <ele>964.9</ele>
        <time>2017-08-13T10:54:41Z</time>
      </trkpt>
      <trkpt lat="42.50055" lon="-0.13321">
        <ele>965.4</ele>
        <time>2017-08-13T10:54:43Z</time>
      </trkpt>
      <trkpt lat="42.50058" lon="-0.13318">
        <ele>964</ele>
        <time>2017-08-13T10:54:45Z</time>
      </trkpt>
      <trkpt lat="42.5006" lon="-0.13316">
        <ele>963</ele>
        <time>2017-08-13T10:54:47Z</time>
      </trkpt>
      <trkpt lat="42.50061" lon="-0.13312">
        <ele>961.6</ele>
        <time>2017-08-13T10:54:51Z</time>
      </trkpt>
      <trkpt lat="42.50057" lon="-0.13311">
        <ele>961.2</ele>
        <time>2017-08-13T10:54:53Z</time>
      </trkpt>
      <trkpt lat="42.50053" lon="-0.1331">
        <ele>960.7</ele>
        <time>2017-08-13T10:54:55Z</time>
      </trkpt>
      <trkpt lat="42.5005" lon="-0.13308">
        <ele>960.2</ele>
        <time>2017-08-13T10:54:57Z</time>
      </trkpt>
      <trkpt lat="42.50046" lon="-0.13307">
        <ele>958.4</ele>
        <time>2017-08-13T10:54:59Z</time>
      </trkpt>
      <trkpt lat="42.50042" lon="-0.13305">
        <ele>956.9</ele>
        <time>2017-08-13T10:55:01Z</time>
      </trkpt>
      <trkpt lat="42.50038" lon="-0.13304">
        <ele>956.1</ele>
        <time>2017-08-13T10:55:03Z</time>
      </trkpt>
      <trkpt lat="42.50034" lon="-0.13304">
        <ele>954.5</ele>
        <time>2017-08-13T10:55:05Z</time>
      </trkpt>
      <trkpt lat="42.50032" lon="-0.13304">
        <ele>954.5</ele>
        <time>2017-08-13T10:55:22Z</time>
      </trkpt>
      <trkpt lat="42.5003" lon="-0.13301">
        <ele>953.7</ele>
        <time>2017-08-13T10:55:30Z</time>
      </trkpt>
      <trkpt lat="42.5003" lon="-0.13296">
        <ele>952.8</ele>
        <time>2017-08-13T10:55:35Z</time>
      </trkpt>
      <trkpt lat="42.50033" lon="-0.13294">
        <ele>952.4</ele>
        <time>2017-08-13T10:55:37Z</time>
      </trkpt>
      <trkpt lat="42.50036" lon="-0.13292">
        <ele>953.1</ele>
        <time>2017-08-13T10:55:40Z</time>
      </trkpt>
      <trkpt lat="42.50039" lon="-0.1329">
        <ele>952.8</ele>
        <time>2017-08-13T10:55:42Z</time>
      </trkpt>
      <trkpt lat="42.50043" lon="-0.13287">
        <ele>953.5</ele>
        <time>2017-08-13T10:55:44Z</time>
      </trkpt>
      <trkpt lat="42.50046" lon="-0.13285">
        <ele>953.2</ele>
        <time>2017-08-13T10:55:46Z</time>
      </trkpt>
      <trkpt lat="42.50049" lon="-0.13283">
        <ele>953.8</ele>
        <time>2017-08-13T10:55:48Z</time>
      </trkpt>
      <trkpt lat="42.50052" lon="-0.13281">
        <ele>953.6</ele>
        <time>2017-08-13T10:55:50Z</time>
      </trkpt>
      <trkpt lat="42.50053" lon="-0.13278">
        <ele>952.8</ele>
        <time>2017-08-13T10:55:52Z</time>
      </trkpt>
      <trkpt lat="42.50052" lon="-0.13274">
        <ele>952</ele>
        <time>2017-08-13T10:55:54Z</time>
      </trkpt>
      <trkpt lat="42.50049" lon="-0.1327">
        <ele>951.4</ele>
        <time>2017-08-13T10:55:56Z</time>
      </trkpt>
      <trkpt lat="42.50046" lon="-0.13268">
        <ele>949.7</ele>
        <time>2017-08-13T10:55:57Z</time>
      </trkpt>
      <trkpt lat="42.50044" lon="-0.13265">
        <ele>948</ele>
        <time>2017-08-13T10:55:58Z</time>
      </trkpt>
      <trkpt lat="42.50041" lon="-0.13263">
        <ele>947.1</ele>
        <time>2017-08-13T10:55:59Z</time>
      </trkpt>
      <trkpt lat="42.50037" lon="-0.13261">
        <ele>946.2</ele>
        <time>2017-08-13T10:56:01Z</time>
      </trkpt>
      <trkpt lat="42.50032" lon="-0.13261">
        <ele>944.8</ele>
        <time>2017-08-13T10:56:03Z</time>
      </trkpt>
      <trkpt lat="42.50029" lon="-0.1326">
        <ele>943.1</ele>
        <time>2017-08-13T10:56:05Z</time>
      </trkpt>
      <trkpt lat="42.50027" lon="-0.13259">
        <ele>943.1</ele>
        <time>2017-08-13T10:56:08Z</time>
      </trkpt>
      <trkpt lat="42.50023" lon="-0.13257">
        <ele>941.9</ele>
        <time>2017-08-13T10:56:11Z</time>
      </trkpt>
      <trkpt lat="42.50019" lon="-0.13254">
        <ele>940.3</ele>
        <time>2017-08-13T10:56:13Z</time>
      </trkpt>
      <trkpt lat="42.50016" lon="-0.13252">
        <ele>938.9</ele>
        <time>2017-08-13T10:56:14Z</time>
      </trkpt>
      <trkpt lat="42.50014" lon="-0.13249">
        <ele>938.2</ele>
        <time>2017-08-13T10:56:15Z</time>
      </trkpt>
      <trkpt lat="42.5001" lon="-0.13245">
        <ele>936.9</ele>
        <time>2017-08-13T10:56:16Z</time>
      </trkpt>
      <trkpt lat="42.50007" lon="-0.13241">
        <ele>935.7</ele>
        <time>2017-08-13T10:56:17Z</time>
      </trkpt>
      <trkpt lat="42.50003" lon="-0.13237">
        <ele>934.4</ele>
        <time>2017-08-13T10:56:18Z</time>
      </trkpt>
      <trkpt lat="42.5" lon="-0.13234">
        <ele>933.2</ele>
        <time>2017-08-13T10:56:19Z</time>
      </trkpt>
      <trkpt lat="42.49996" lon="-0.13231">
        <ele>932.7</ele>
        <time>2017-08-13T10:56:20Z</time>
      </trkpt>
      <trkpt lat="42.49993" lon="-0.13229">
        <ele>931.2</ele>
        <time>2017-08-13T10:56:21Z</time>
      </trkpt>
      <trkpt lat="42.49989" lon="-0.13227">
        <ele>929.5</ele>
        <time>2017-08-13T10:56:22Z</time>
      </trkpt>
      <trkpt lat="42.49986" lon="-0.13225">
        <ele>928.6</ele>
        <time>2017-08-13T10:56:23Z</time>
      </trkpt>
      <trkpt lat="42.49984" lon="-0.13223">
        <ele>927.7</ele>
        <time>2017-08-13T10:56:24Z</time>
      </trkpt>
      <trkpt lat="42.4998" lon="-0.1322">
        <ele>925.9</ele>
        <time>2017-08-13T10:56:26Z</time>
      </trkpt>
      <trkpt lat="42.49976" lon="-0.13216">
        <ele>924.1</ele>
        <time>2017-08-13T10:56:28Z</time>
      </trkpt>
      <trkpt lat="42.49973" lon="-0.13214">
        <ele>922.4</ele>
        <time>2017-08-13T10:56:29Z</time>
      </trkpt>
      <trkpt lat="42.49971" lon="-0.13211">
        <ele>921.7</ele>
        <time>2017-08-13T10:56:30Z</time>
      </trkpt>
      <trkpt lat="42.49968" lon="-0.13209">
        <ele>920.2</ele>
        <time>2017-08-13T10:56:31Z</time>
      </trkpt>
      <trkpt lat="42.49966" lon="-0.13207">
        <ele>919.5</ele>
        <time>2017-08-13T10:56:32Z</time>
      </trkpt>
      <trkpt lat="42.49961" lon="-0.13206">
        <ele>918.7</ele>
        <time>2017-08-13T10:56:34Z</time>
      </trkpt>
      <trkpt lat="42.49956" lon="-0.13208">
        <ele>917.2</ele>
        <time>2017-08-13T10:56:36Z</time>
      </trkpt>
      <trkpt lat="42.49954" lon="-0.1321">
        <ele>917.8</ele>
        <time>2017-08-13T10:56:37Z</time>
      </trkpt>
      <trkpt lat="42.49952" lon="-0.13212">
        <ele>917</ele>
        <time>2017-08-13T10:56:38Z</time>
      </trkpt>
      <trkpt lat="42.49949" lon="-0.13215">
        <ele>916.9</ele>
        <time>2017-08-13T10:56:39Z</time>
      </trkpt>
      <trkpt lat="42.49946" lon="-0.13217">
        <ele>916.3</ele>
        <time>2017-08-13T10:56:40Z</time>
      </trkpt>
      <trkpt lat="42.49944" lon="-0.13219">
        <ele>916.3</ele>
        <time>2017-08-13T10:56:41Z</time>
      </trkpt>
      <trkpt lat="42.49941" lon="-0.13221">
        <ele>916.3</ele>
        <time>2017-08-13T10:56:42Z</time>
      </trkpt>
      <trkpt lat="42.49939" lon="-0.13223">
        <ele>916.2</ele>
        <time>2017-08-13T10:56:43Z</time>
      </trkpt>
      <trkpt lat="42.49935" lon="-0.13227">
        <ele>915.6</ele>
        <time>2017-08-13T10:56:45Z</time>
      </trkpt>
      <trkpt lat="42.49932" lon="-0.13229">
        <ele>915.6</ele>
        <time>2017-08-13T10:56:47Z</time>
      </trkpt>
      <trkpt lat="42.4993" lon="-0.13231">
        <ele>915.7</ele>
        <time>2017-08-13T10:56:49Z</time>
      </trkpt>
      <trkpt lat="42.49927" lon="-0.13233">
        <ele>915</ele>
        <time>2017-08-13T10:56:51Z</time>
      </trkpt>
      <trkpt lat="42.49925" lon="-0.13235">
        <ele>915.2</ele>
        <time>2017-08-13T10:56:53Z</time>
      </trkpt>
      <trkpt lat="42.49922" lon="-0.13239">
        <ele>914.6</ele>
        <time>2017-08-13T10:56:55Z</time>
      </trkpt>
      <trkpt lat="42.49918" lon="-0.13244">
        <ele>915.4</ele>
        <time>2017-08-13T10:56:57Z</time>
      </trkpt>
      <trkpt lat="42.49914" lon="-0.1325">
        <ele>915.4</ele>
        <time>2017-08-13T10:56:59Z</time>
      </trkpt>
      <trkpt lat="42.49911" lon="-0.13252">
        <ele>914.9</ele>
        <time>2017-08-13T10:57:00Z</time>
      </trkpt>
      <trkpt lat="42.49908" lon="-0.13253">
        <ele>914.7</ele>
        <time>2017-08-13T10:57:01Z</time>
      </trkpt>
      <trkpt lat="42.49904" lon="-0.13253">
        <ele>914.2</ele>
        <time>2017-08-13T10:57:02Z</time>
      </trkpt>
      <trkpt lat="42.49902" lon="-0.13253">
        <ele>913.6</ele>
        <time>2017-08-13T10:57:03Z</time>
      </trkpt>
      <trkpt lat="42.49897" lon="-0.13253">
        <ele>913.1</ele>
        <time>2017-08-13T10:57:05Z</time>
      </trkpt>
      <trkpt lat="42.49892" lon="-0.13254">
        <ele>912.1</ele>
        <time>2017-08-13T10:57:07Z</time>
      </trkpt>
      <trkpt lat="42.49888" lon="-0.13257">
        <ele>911.7</ele>
        <time>2017-08-13T10:57:09Z</time>
      </trkpt>
      <trkpt lat="42.49885" lon="-0.13259">
        <ele>911.3</ele>
        <time>2017-08-13T10:57:11Z</time>
      </trkpt>
      <trkpt lat="42.49883" lon="-0.13262">
        <ele>910.7</ele>
        <time>2017-08-13T10:57:13Z</time>
      </trkpt>
      <trkpt lat="42.49886" lon="-0.13261">
        <ele>911.2</ele>
        <time>2017-08-13T10:57:40Z</time>
      </trkpt>
      <trkpt lat="42.4989" lon="-0.13258">
        <ele>911.7</ele>
        <time>2017-08-13T10:57:42Z</time>
      </trkpt>
      <trkpt lat="42.49894" lon="-0.13254">
        <ele>912.5</ele>
        <time>2017-08-13T10:57:44Z</time>
      </trkpt>
      <trkpt lat="42.49899" lon="-0.13252">
        <ele>912.8</ele>
        <time>2017-08-13T10:57:46Z</time>
      </trkpt>
      <trkpt lat="42.49904" lon="-0.13251">
        <ele>913.7</ele>
        <time>2017-08-13T10:57:48Z</time>
      </trkpt>
      <trkpt lat="42.49909" lon="-0.13252">
        <ele>914.7</ele>
        <time>2017-08-13T10:57:50Z</time>
      </trkpt>
      <trkpt lat="42.49914" lon="-0.13252">
        <ele>915.1</ele>
        <time>2017-08-13T10:57:52Z</time>
      </trkpt>
      <trkpt lat="42.49919" lon="-0.13251">
        <ele>916.1</ele>
        <time>2017-08-13T10:57:54Z</time>
      </trkpt>
      <trkpt lat="42.49923" lon="-0.13249">
        <ele>916.7</ele>
        <time>2017-08-13T10:57:56Z</time>
      </trkpt>
      <trkpt lat="42.49924" lon="-0.13244">
        <ele>916.1</ele>
        <time>2017-08-13T10:57:59Z</time>
      </trkpt>
      <trkpt lat="42.49925" lon="-0.13241">
        <ele>915.5</ele>
        <time>2017-08-13T10:58:05Z</time>
      </trkpt>
      <trkpt lat="42.49925" lon="-0.13233">
        <ele>914.6</ele>
        <time>2017-08-13T10:58:50Z</time>
      </trkpt>
      <trkpt lat="42.49925" lon="-0.13226">
        <ele>913.2</ele>
        <time>2017-08-13T10:58:52Z</time>
      </trkpt>
      <trkpt lat="42.49926" lon="-0.1322">
        <ele>912.6</ele>
        <time>2017-08-13T10:58:54Z</time>
      </trkpt>
      <trkpt lat="42.49927" lon="-0.13214">
        <ele>911.9</ele>
        <time>2017-08-13T10:58:56Z</time>
      </trkpt>
      <trkpt lat="42.4993" lon="-0.13208">
        <ele>911.1</ele>
        <time>2017-08-13T10:58:58Z</time>
      </trkpt>
      <trkpt lat="42.49933" lon="-0.13204">
        <ele>911.1</ele>
        <time>2017-08-13T10:59:00Z</time>
      </trkpt>
      <trkpt lat="42.49935" lon="-0.13199">
        <ele>911.2</ele>
        <time>2017-08-13T10:59:02Z</time>
      </trkpt>
      <trkpt lat="42.49938" lon="-0.13194">
        <ele>910.5</ele>
        <time>2017-08-13T10:59:04Z</time>
      </trkpt>
      <trkpt lat="42.4994" lon="-0.13189">
        <ele>910.4</ele>
        <time>2017-08-13T10:59:06Z</time>
      </trkpt>
      <trkpt lat="42.49942" lon="-0.13186">
        <ele>910.1</ele>
        <time>2017-08-13T10:59:08Z</time>
      </trkpt>
      <trkpt lat="42.49943" lon="-0.13182">
        <ele>909.1</ele>
        <time>2017-08-13T10:59:15Z</time>
      </trkpt>
      <trkpt lat="42.49945" lon="-0.13177">
        <ele>908.6</ele>
        <time>2017-08-13T10:59:17Z</time>
      </trkpt>
      <trkpt lat="42.49947" lon="-0.13172">
        <ele>907.6</ele>
        <time>2017-08-13T10:59:19Z</time>
      </trkpt>
      <trkpt lat="42.49949" lon="-0.13166">
        <ele>906.7</ele>
        <time>2017-08-13T10:59:21Z</time>
      </trkpt>
      <trkpt lat="42.4995" lon="-0.13163">
        <ele>906.7</ele>
        <time>2017-08-13T10:59:22Z</time>
      </trkpt>
      <trkpt lat="42.49951" lon="-0.13159">
        <ele>906.8</ele>
        <time>2017-08-13T10:59:23Z</time>
      </trkpt>
      <trkpt lat="42.4995" lon="-0.13155">
        <ele>905.4</ele>
        <time>2017-08-13T10:59:24Z</time>
      </trkpt>
      <trkpt lat="42.4995" lon="-0.13151">
        <ele>904.9</ele>
        <time>2017-08-13T10:59:25Z</time>
      </trkpt>
      <trkpt lat="42.49948" lon="-0.13145">
        <ele>904.4</ele>
        <time>2017-08-13T10:59:27Z</time>
      </trkpt>
      <trkpt lat="42.49946" lon="-0.13141">
        <ele>903.5</ele>
        <time>2017-08-13T10:59:29Z</time>
      </trkpt>
      <trkpt lat="42.49947" lon="-0.13138">
        <ele>903.3</ele>
        <time>2017-08-13T10:59:38Z</time>
      </trkpt>
      <trkpt lat="42.49947" lon="-0.13133">
        <ele>903</ele>
        <time>2017-08-13T10:59:40Z</time>
      </trkpt>
      <trkpt lat="42.49948" lon="-0.13126">
        <ele>902.9</ele>
        <time>2017-08-13T10:59:42Z</time>
      </trkpt>
      <trkpt lat="42.49949" lon="-0.13122">
        <ele>902.5</ele>
        <time>2017-08-13T10:59:43Z</time>
      </trkpt>
      <trkpt lat="42.49951" lon="-0.13119">
        <ele>902.7</ele>
        <time>2017-08-13T10:59:44Z</time>
      </trkpt>
      <trkpt lat="42.49953" lon="-0.13114">
        <ele>902.4</ele>
        <time>2017-08-13T10:59:46Z</time>
      </trkpt>
      <trkpt lat="42.49957" lon="-0.13109">
        <ele>903.6</ele>
        <time>2017-08-13T10:59:48Z</time>
      </trkpt>
      <trkpt lat="42.4996" lon="-0.13105">
        <ele>904.1</ele>
        <time>2017-08-13T10:59:50Z</time>
      </trkpt>
      <trkpt lat="42.49963" lon="-0.13099">
        <ele>904.6</ele>
        <time>2017-08-13T10:59:52Z</time>
      </trkpt>
      <trkpt lat="42.49967" lon="-0.13095">
        <ele>905</ele>
        <time>2017-08-13T10:59:54Z</time>
      </trkpt>
      <trkpt lat="42.49971" lon="-0.13091">
        <ele>905.3</ele>
        <time>2017-08-13T10:59:56Z</time>
      </trkpt>
      <trkpt lat="42.49973" lon="-0.13088">
        <ele>905.7</ele>
        <time>2017-08-13T10:59:57Z</time>
      </trkpt>
      <trkpt lat="42.49975" lon="-0.13086">
        <ele>905.7</ele>
        <time>2017-08-13T10:59:58Z</time>
      </trkpt>
      <trkpt lat="42.49977" lon="-0.13083">
        <ele>906.1</ele>
        <time>2017-08-13T10:59:59Z</time>
      </trkpt>
      <trkpt lat="42.49979" lon="-0.1308">
        <ele>906.6</ele>
        <time>2017-08-13T11:00:00Z</time>
      </trkpt>
      <trkpt lat="42.49982" lon="-0.13077">
        <ele>906.6</ele>
        <time>2017-08-13T11:00:01Z</time>
      </trkpt>
      <trkpt lat="42.49985" lon="-0.13074">
        <ele>906.9</ele>
        <time>2017-08-13T11:00:02Z</time>
      </trkpt>
      <trkpt lat="42.49988" lon="-0.13072">
        <ele>907.2</ele>
        <time>2017-08-13T11:00:03Z</time>
      </trkpt>
      <trkpt lat="42.49992" lon="-0.1307">
        <ele>909.2</ele>
        <time>2017-08-13T11:00:04Z</time>
      </trkpt>
      <trkpt lat="42.49996" lon="-0.13068">
        <ele>910.2</ele>
        <time>2017-08-13T11:00:05Z</time>
      </trkpt>
      <trkpt lat="42.5" lon="-0.13067">
        <ele>910.4</ele>
        <time>2017-08-13T11:00:06Z</time>
      </trkpt>
      <trkpt lat="42.50004" lon="-0.13066">
        <ele>911.4</ele>
        <time>2017-08-13T11:00:08Z</time>
      </trkpt>
      <trkpt lat="42.50007" lon="-0.13066">
        <ele>912.4</ele>
        <time>2017-08-13T11:00:16Z</time>
      </trkpt>
      <trkpt lat="42.50009" lon="-0.13064">
        <ele>913.6</ele>
        <time>2017-08-13T11:00:24Z</time>
      </trkpt>
      <trkpt lat="42.50012" lon="-0.13063">
        <ele>914.2</ele>
        <time>2017-08-13T11:00:28Z</time>
      </trkpt>
      <trkpt lat="42.50015" lon="-0.13061">
        <ele>915.4</ele>
        <time>2017-08-13T11:00:33Z</time>
      </trkpt>
      <trkpt lat="42.50017" lon="-0.13058">
        <ele>916</ele>
        <time>2017-08-13T11:00:36Z</time>
      </trkpt>
      <trkpt lat="42.50019" lon="-0.13055">
        <ele>915.5</ele>
        <time>2017-08-13T11:00:40Z</time>
      </trkpt>
      <trkpt lat="42.5002" lon="-0.13051">
        <ele>915.5</ele>
        <time>2017-08-13T11:00:44Z</time>
      </trkpt>
      <trkpt lat="42.5002" lon="-0.13047">
        <ele>916.1</ele>
        <time>2017-08-13T11:00:48Z</time>
      </trkpt>
      <trkpt lat="42.50022" lon="-0.13044">
        <ele>915.3</ele>
        <time>2017-08-13T11:00:52Z</time>
      </trkpt>
      <trkpt lat="42.50023" lon="-0.1304">
        <ele>915.7</ele>
        <time>2017-08-13T11:00:55Z</time>
      </trkpt>
      <trkpt lat="42.50025" lon="-0.13036">
        <ele>914.9</ele>
        <time>2017-08-13T11:00:59Z</time>
      </trkpt>
      <trkpt lat="42.50024" lon="-0.13032">
        <ele>914.1</ele>
        <time>2017-08-13T11:01:04Z</time>
      </trkpt>
      <trkpt lat="42.50024" lon="-0.13027">
        <ele>913.3</ele>
        <time>2017-08-13T11:01:09Z</time>
      </trkpt>
      <trkpt lat="42.50025" lon="-0.1302">
        <ele>911.4</ele>
        <time>2017-08-13T11:01:11Z</time>
      </trkpt>
      <trkpt lat="42.50025" lon="-0.13016">
        <ele>910.4</ele>
        <time>2017-08-13T11:01:12Z</time>
      </trkpt>
      <trkpt lat="42.50024" lon="-0.13009">
        <ele>909.4</ele>
        <time>2017-08-13T11:01:14Z</time>
      </trkpt>
      <trkpt lat="42.50024" lon="-0.13003">
        <ele>907.6</ele>
        <time>2017-08-13T11:01:16Z</time>
      </trkpt>
      <trkpt lat="42.50026" lon="-0.12997">
        <ele>906.9</ele>
        <time>2017-08-13T11:01:18Z</time>
      </trkpt>
      <trkpt lat="42.50028" lon="-0.12993">
        <ele>907.3</ele>
        <time>2017-08-13T11:01:20Z</time>
      </trkpt>
      <trkpt lat="42.50031" lon="-0.12991">
        <ele>908.3</ele>
        <time>2017-08-13T11:01:22Z</time>
      </trkpt>
      <trkpt lat="42.50035" lon="-0.12989">
        <ele>908.8</ele>
        <time>2017-08-13T11:01:24Z</time>
      </trkpt>
      <trkpt lat="42.50039" lon="-0.12988">
        <ele>910.1</ele>
        <time>2017-08-13T11:01:26Z</time>
      </trkpt>
      <trkpt lat="42.50043" lon="-0.12988">
        <ele>912.6</ele>
        <time>2017-08-13T11:01:28Z</time>
      </trkpt>
      <trkpt lat="42.50047" lon="-0.12988">
        <ele>913.9</ele>
        <time>2017-08-13T11:01:30Z</time>
      </trkpt>
      <trkpt lat="42.5005" lon="-0.12987">
        <ele>915.1</ele>
        <time>2017-08-13T11:01:32Z</time>
      </trkpt>
      <trkpt lat="42.50053" lon="-0.12985">
        <ele>915.7</ele>
        <time>2017-08-13T11:01:34Z</time>
      </trkpt>
      <trkpt lat="42.50054" lon="-0.1298">
        <ele>915.2</ele>
        <time>2017-08-13T11:01:36Z</time>
      </trkpt>
      <trkpt lat="42.50054" lon="-0.12976">
        <ele>914.8</ele>
        <time>2017-08-13T11:01:38Z</time>
      </trkpt>
      <trkpt lat="42.50054" lon="-0.12971">
        <ele>914.5</ele>
        <time>2017-08-13T11:01:40Z</time>
      </trkpt>
      <trkpt lat="42.50054" lon="-0.12967">
        <ele>914.1</ele>
        <time>2017-08-13T11:01:42Z</time>
      </trkpt>
      <trkpt lat="42.50056" lon="-0.12963">
        <ele>914.6</ele>
        <time>2017-08-13T11:01:44Z</time>
      </trkpt>
      <trkpt lat="42.50058" lon="-0.12959">
        <ele>914.1</ele>
        <time>2017-08-13T11:01:46Z</time>
      </trkpt>
      <trkpt lat="42.50059" lon="-0.12956">
        <ele>914.6</ele>
        <time>2017-08-13T11:01:48Z</time>
      </trkpt>
      <trkpt lat="42.50061" lon="-0.12952">
        <ele>914.6</ele>
        <time>2017-08-13T11:01:50Z</time>
      </trkpt>
      <trkpt lat="42.50063" lon="-0.12949">
        <ele>915.4</ele>
        <time>2017-08-13T11:01:52Z</time>
      </trkpt>
      <trkpt lat="42.50065" lon="-0.12946">
        <ele>916.3</ele>
        <time>2017-08-13T11:01:54Z</time>
      </trkpt>
      <trkpt lat="42.50067" lon="-0.12943">
        <ele>915.9</ele>
        <time>2017-08-13T11:01:56Z</time>
      </trkpt>
      <trkpt lat="42.5007" lon="-0.12941">
        <ele>917.4</ele>
        <time>2017-08-13T11:01:58Z</time>
      </trkpt>
      <trkpt lat="42.50073" lon="-0.12939">
        <ele>918.5</ele>
        <time>2017-08-13T11:02:00Z</time>
      </trkpt>
      <trkpt lat="42.50076" lon="-0.12938">
        <ele>920.1</ele>
        <time>2017-08-13T11:02:02Z</time>
      </trkpt>
      <trkpt lat="42.50079" lon="-0.12936">
        <ele>921.5</ele>
        <time>2017-08-13T11:02:04Z</time>
      </trkpt>
      <trkpt lat="42.50081" lon="-0.12934">
        <ele>922.4</ele>
        <time>2017-08-13T11:02:06Z</time>
      </trkpt>
      <trkpt lat="42.50084" lon="-0.12931">
        <ele>923.7</ele>
        <time>2017-08-13T11:02:08Z</time>
      </trkpt>
      <trkpt lat="42.50086" lon="-0.12928">
        <ele>923.1</ele>
        <time>2017-08-13T11:02:10Z</time>
      </trkpt>
      <trkpt lat="42.50088" lon="-0.12925">
        <ele>923.9</ele>
        <time>2017-08-13T11:02:12Z</time>
      </trkpt>
      <trkpt lat="42.50089" lon="-0.12921">
        <ele>923.3</ele>
        <time>2017-08-13T11:02:14Z</time>
      </trkpt>
      <trkpt lat="42.50089" lon="-0.12916">
        <ele>922.8</ele>
        <time>2017-08-13T11:02:16Z</time>
      </trkpt>
      <trkpt lat="42.50091" lon="-0.12912">
        <ele>923.7</ele>
        <time>2017-08-13T11:02:18Z</time>
      </trkpt>
      <trkpt lat="42.50092" lon="-0.12908">
        <ele>923</ele>
        <time>2017-08-13T11:02:20Z</time>
      </trkpt>
      <trkpt lat="42.50094" lon="-0.12904">
        <ele>923.8</ele>
        <time>2017-08-13T11:02:22Z</time>
      </trkpt>
      <trkpt lat="42.50096" lon="-0.12902">
        <ele>925.6</ele>
        <time>2017-08-13T11:02:24Z</time>
      </trkpt>
      <trkpt lat="42.50099" lon="-0.129">
        <ele>924.9</ele>
        <time>2017-08-13T11:02:26Z</time>
      </trkpt>
      <trkpt lat="42.50102" lon="-0.12898">
        <ele>926.7</ele>
        <time>2017-08-13T11:02:28Z</time>
      </trkpt>
      <trkpt lat="42.50104" lon="-0.12896">
        <ele>927.8</ele>
        <time>2017-08-13T11:02:30Z</time>
      </trkpt>
      <trkpt lat="42.50107" lon="-0.12893">
        <ele>929.5</ele>
        <time>2017-08-13T11:02:32Z</time>
      </trkpt>
      <trkpt lat="42.50109" lon="-0.1289">
        <ele>930.4</ele>
        <time>2017-08-13T11:02:34Z</time>
      </trkpt>
      <trkpt lat="42.50111" lon="-0.12887">
        <ele>929.9</ele>
        <time>2017-08-13T11:02:36Z</time>
      </trkpt>
      <trkpt lat="42.50113" lon="-0.12883">
        <ele>930.7</ele>
        <time>2017-08-13T11:02:38Z</time>
      </trkpt>
      <trkpt lat="42.50115" lon="-0.12878">
        <ele>931.6</ele>
        <time>2017-08-13T11:02:40Z</time>
      </trkpt>
      <trkpt lat="42.50117" lon="-0.12874">
        <ele>930.8</ele>
        <time>2017-08-13T11:02:42Z</time>
      </trkpt>
      <trkpt lat="42.5012" lon="-0.12869">
        <ele>931.8</ele>
        <time>2017-08-13T11:02:44Z</time>
      </trkpt>
      <trkpt lat="42.50123" lon="-0.12864">
        <ele>933.1</ele>
        <time>2017-08-13T11:02:46Z</time>
      </trkpt>
      <trkpt lat="42.50125" lon="-0.12859">
        <ele>934.4</ele>
        <time>2017-08-13T11:02:48Z</time>
      </trkpt>
      <trkpt lat="42.50127" lon="-0.12855">
        <ele>933.6</ele>
        <time>2017-08-13T11:02:50Z</time>
      </trkpt>
      <trkpt lat="42.50128" lon="-0.12851">
        <ele>934.7</ele>
        <time>2017-08-13T11:02:52Z</time>
      </trkpt>
      <trkpt lat="42.5013" lon="-0.12846">
        <ele>933.6</ele>
        <time>2017-08-13T11:02:54Z</time>
      </trkpt>
      <trkpt lat="42.50132" lon="-0.12841">
        <ele>934.5</ele>
        <time>2017-08-13T11:02:56Z</time>
      </trkpt>
      <trkpt lat="42.50133" lon="-0.12836">
        <ele>933.5</ele>
        <time>2017-08-13T11:02:58Z</time>
      </trkpt>
      <trkpt lat="42.50134" lon="-0.12831">
        <ele>934</ele>
        <time>2017-08-13T11:03:00Z</time>
      </trkpt>
      <trkpt lat="42.50136" lon="-0.12824">
        <ele>933.3</ele>
        <time>2017-08-13T11:03:02Z</time>
      </trkpt>
      <trkpt lat="42.50137" lon="-0.1282">
        <ele>932.6</ele>
        <time>2017-08-13T11:03:03Z</time>
      </trkpt>
      <trkpt lat="42.50137" lon="-0.12816">
        <ele>934</ele>
        <time>2017-08-13T11:03:04Z</time>
      </trkpt>
      <trkpt lat="42.50138" lon="-0.12813">
        <ele>933.3</ele>
        <time>2017-08-13T11:03:05Z</time>
      </trkpt>
      <trkpt lat="42.50138" lon="-0.12809">
        <ele>932.7</ele>
        <time>2017-08-13T11:03:06Z</time>
      </trkpt>
      <trkpt lat="42.50138" lon="-0.12805">
        <ele>932</ele>
        <time>2017-08-13T11:03:07Z</time>
      </trkpt>
      <trkpt lat="42.50137" lon="-0.128">
        <ele>931.3</ele>
        <time>2017-08-13T11:03:08Z</time>
      </trkpt>
      <trkpt lat="42.50137" lon="-0.12795">
        <ele>930.4</ele>
        <time>2017-08-13T11:03:09Z</time>
      </trkpt>
      <trkpt lat="42.50137" lon="-0.12788">
        <ele>928.3</ele>
        <time>2017-08-13T11:03:10Z</time>
      </trkpt>
      <trkpt lat="42.50137" lon="-0.12782">
        <ele>925.4</ele>
        <time>2017-08-13T11:03:11Z</time>
      </trkpt>
      <trkpt lat="42.50137" lon="-0.12776">
        <ele>923.7</ele>
        <time>2017-08-13T11:03:12Z</time>
      </trkpt>
      <trkpt lat="42.50136" lon="-0.12769">
        <ele>922.8</ele>
        <time>2017-08-13T11:03:13Z</time>
      </trkpt>
      <trkpt lat="42.50136" lon="-0.12763">
        <ele>921.8</ele>
        <time>2017-08-13T11:03:14Z</time>
      </trkpt>
      <trkpt lat="42.50136" lon="-0.12758">
        <ele>920.1</ele>
        <time>2017-08-13T11:03:15Z</time>
      </trkpt>
      <trkpt lat="42.50137" lon="-0.12754">
        <ele>919.4</ele>
        <time>2017-08-13T11:03:16Z</time>
      </trkpt>
      <trkpt lat="42.50138" lon="-0.12749">
        <ele>919.9</ele>
        <time>2017-08-13T11:03:18Z</time>
      </trkpt>
      <trkpt lat="42.50139" lon="-0.12744">
        <ele>919.3</ele>
        <time>2017-08-13T11:03:20Z</time>
      </trkpt>
      <trkpt lat="42.50139" lon="-0.1274">
        <ele>918.7</ele>
        <time>2017-08-13T11:03:22Z</time>
      </trkpt>
      <trkpt lat="42.50138" lon="-0.12733">
        <ele>917.7</ele>
        <time>2017-08-13T11:03:24Z</time>
      </trkpt>
      <trkpt lat="42.50139" lon="-0.12725">
        <ele>917.4</ele>
        <time>2017-08-13T11:03:26Z</time>
      </trkpt>
      <trkpt lat="42.50141" lon="-0.12718">
        <ele>918</ele>
        <time>2017-08-13T11:03:28Z</time>
      </trkpt>
      <trkpt lat="42.50144" lon="-0.12712">
        <ele>918.9</ele>
        <time>2017-08-13T11:03:30Z</time>
      </trkpt>
      <trkpt lat="42.50145" lon="-0.12708">
        <ele>918.6</ele>
        <time>2017-08-13T11:03:31Z</time>
      </trkpt>
      <trkpt lat="42.50145" lon="-0.12701">
        <ele>918.1</ele>
        <time>2017-08-13T11:03:33Z</time>
      </trkpt>
      <trkpt lat="42.50145" lon="-0.12694">
        <ele>917.8</ele>
        <time>2017-08-13T11:03:35Z</time>
      </trkpt>
      <trkpt lat="42.50147" lon="-0.12689">
        <ele>918.3</ele>
        <time>2017-08-13T11:03:37Z</time>
      </trkpt>
      <trkpt lat="42.50149" lon="-0.12685">
        <ele>917.8</ele>
        <time>2017-08-13T11:03:40Z</time>
      </trkpt>
      <trkpt lat="42.50152" lon="-0.12681">
        <ele>918.5</ele>
        <time>2017-08-13T11:03:43Z</time>
      </trkpt>
      <trkpt lat="42.50155" lon="-0.12678">
        <ele>919.6</ele>
        <time>2017-08-13T11:03:45Z</time>
      </trkpt>
      <trkpt lat="42.50158" lon="-0.12674">
        <ele>920</ele>
        <time>2017-08-13T11:03:47Z</time>
      </trkpt>
      <trkpt lat="42.5016" lon="-0.12673">
        <ele>920.3</ele>
        <time>2017-08-13T11:03:51Z</time>
      </trkpt>
      <trkpt lat="42.50169" lon="-0.12676">
        <ele>922.2</ele>
        <time>2017-08-13T11:04:32Z</time>
      </trkpt>
      <trkpt lat="42.50173" lon="-0.12677">
        <ele>923.2</ele>
        <time>2017-08-13T11:04:35Z</time>
      </trkpt>
      <trkpt lat="42.50176" lon="-0.12678">
        <ele>924.2</ele>
        <time>2017-08-13T11:04:37Z</time>
      </trkpt>
      <trkpt lat="42.50179" lon="-0.1268">
        <ele>924.5</ele>
        <time>2017-08-13T11:04:39Z</time>
      </trkpt>
      <trkpt lat="42.50182" lon="-0.1268">
        <ele>924.6</ele>
        <time>2017-08-13T11:04:41Z</time>
      </trkpt>
      <trkpt lat="42.50186" lon="-0.1268">
        <ele>924.7</ele>
        <time>2017-08-13T11:04:43Z</time>
      </trkpt>
      <trkpt lat="42.5019" lon="-0.12677">
        <ele>924.6</ele>
        <time>2017-08-13T11:04:45Z</time>
      </trkpt>
      <trkpt lat="42.50194" lon="-0.12675">
        <ele>923.7</ele>
        <time>2017-08-13T11:04:47Z</time>
      </trkpt>
      <trkpt lat="42.50198" lon="-0.12673">
        <ele>923.1</ele>
        <time>2017-08-13T11:04:49Z</time>
      </trkpt>
      <trkpt lat="42.502" lon="-0.12671">
        <ele>922.2</ele>
        <time>2017-08-13T11:04:51Z</time>
      </trkpt>
      <trkpt lat="42.50203" lon="-0.12669">
        <ele>921.7</ele>
        <time>2017-08-13T11:04:53Z</time>
      </trkpt>
      <trkpt lat="42.50206" lon="-0.12669">
        <ele>920.1</ele>
        <time>2017-08-13T11:05:03Z</time>
      </trkpt>
      <trkpt lat="42.50208" lon="-0.1267">
        <ele>920.5</ele>
        <time>2017-08-13T11:05:09Z</time>
      </trkpt>
      <trkpt lat="42.50211" lon="-0.1267">
        <ele>919.7</ele>
        <time>2017-08-13T11:05:20Z</time>
      </trkpt>
      <trkpt lat="42.50215" lon="-0.12669">
        <ele>918.9</ele>
        <time>2017-08-13T11:05:26Z</time>
      </trkpt>
      <trkpt lat="42.50219" lon="-0.12669">
        <ele>916.9</ele>
        <time>2017-08-13T11:05:29Z</time>
      </trkpt>
      <trkpt lat="42.50223" lon="-0.1267">
        <ele>916.5</ele>
        <time>2017-08-13T11:05:34Z</time>
      </trkpt>
      <trkpt lat="42.50225" lon="-0.12671">
        <ele>916.5</ele>
        <time>2017-08-13T11:05:37Z</time>
      </trkpt>
      <trkpt lat="42.50229" lon="-0.12672">
        <ele>914.8</ele>
        <time>2017-08-13T11:05:40Z</time>
      </trkpt>
      <trkpt lat="42.50233" lon="-0.12674">
        <ele>915.4</ele>
        <time>2017-08-13T11:05:42Z</time>
      </trkpt>
      <trkpt lat="42.50236" lon="-0.12675">
        <ele>914.3</ele>
        <time>2017-08-13T11:05:44Z</time>
      </trkpt>
      <trkpt lat="42.5024" lon="-0.12676">
        <ele>913.2</ele>
        <time>2017-08-13T11:05:46Z</time>
      </trkpt>
      <trkpt lat="42.50243" lon="-0.12677">
        <ele>912</ele>
        <time>2017-08-13T11:05:48Z</time>
      </trkpt>
      <trkpt lat="42.50248" lon="-0.12679">
        <ele>912.7</ele>
        <time>2017-08-13T11:05:50Z</time>
      </trkpt>
      <trkpt lat="42.50251" lon="-0.1268">
        <ele>911.5</ele>
        <time>2017-08-13T11:05:51Z</time>
      </trkpt>
      <trkpt lat="42.50254" lon="-0.12682">
        <ele>912.3</ele>
        <time>2017-08-13T11:05:52Z</time>
      </trkpt>
      <trkpt lat="42.50258" lon="-0.12683">
        <ele>909.3</ele>
        <time>2017-08-13T11:05:53Z</time>
      </trkpt>
      <trkpt lat="42.50263" lon="-0.12685">
        <ele>907.7</ele>
        <time>2017-08-13T11:05:54Z</time>
      </trkpt>
      <trkpt lat="42.50268" lon="-0.12688">
        <ele>906.1</ele>
        <time>2017-08-13T11:05:55Z</time>
      </trkpt>
      <trkpt lat="42.50275" lon="-0.12694">
        <ele>904.3</ele>
        <time>2017-08-13T11:05:56Z</time>
      </trkpt>
      <trkpt lat="42.50281" lon="-0.12699">
        <ele>904</ele>
        <time>2017-08-13T11:05:57Z</time>
      </trkpt>
      <trkpt lat="42.50285" lon="-0.12701">
        <ele>902.4</ele>
        <time>2017-08-13T11:05:58Z</time>
      </trkpt>
      <trkpt lat="42.50288" lon="-0.12704">
        <ele>902.2</ele>
        <time>2017-08-13T11:05:59Z</time>
      </trkpt>
      <trkpt lat="42.50292" lon="-0.12707">
        <ele>900.6</ele>
        <time>2017-08-13T11:06:00Z</time>
      </trkpt>
      <trkpt lat="42.50295" lon="-0.1271">
        <ele>900.5</ele>
        <time>2017-08-13T11:06:01Z</time>
      </trkpt>
      <trkpt lat="42.50298" lon="-0.12712">
        <ele>900.3</ele>
        <time>2017-08-13T11:06:02Z</time>
      </trkpt>
      <trkpt lat="42.50301" lon="-0.12714">
        <ele>899</ele>
        <time>2017-08-13T11:06:03Z</time>
      </trkpt>
      <trkpt lat="42.50304" lon="-0.12716">
        <ele>899.1</ele>
        <time>2017-08-13T11:06:04Z</time>
      </trkpt>
      <trkpt lat="42.50306" lon="-0.12719">
        <ele>898.1</ele>
        <time>2017-08-13T11:06:05Z</time>
      </trkpt>
      <trkpt lat="42.50309" lon="-0.12721">
        <ele>898.3</ele>
        <time>2017-08-13T11:06:06Z</time>
      </trkpt>
      <trkpt lat="42.50313" lon="-0.12722">
        <ele>897.4</ele>
        <time>2017-08-13T11:06:09Z</time>
      </trkpt>
      <trkpt lat="42.50316" lon="-0.12721">
        <ele>896.6</ele>
        <time>2017-08-13T11:06:10Z</time>
      </trkpt>
      <trkpt lat="42.50319" lon="-0.1272">
        <ele>894.6</ele>
        <time>2017-08-13T11:06:11Z</time>
      </trkpt>
      <trkpt lat="42.50324" lon="-0.12719">
        <ele>893.9</ele>
        <time>2017-08-13T11:06:12Z</time>
      </trkpt>
      <trkpt lat="42.50328" lon="-0.12719">
        <ele>892.6</ele>
        <time>2017-08-13T11:06:13Z</time>
      </trkpt>
      <trkpt lat="42.50331" lon="-0.12719">
        <ele>892.2</ele>
        <time>2017-08-13T11:06:14Z</time>
      </trkpt>
      <trkpt lat="42.50334" lon="-0.12719">
        <ele>891.7</ele>
        <time>2017-08-13T11:06:15Z</time>
      </trkpt>
      <trkpt lat="42.50337" lon="-0.1272">
        <ele>892.7</ele>
        <time>2017-08-13T11:06:16Z</time>
      </trkpt>
      <trkpt lat="42.50341" lon="-0.12722">
        <ele>892.1</ele>
        <time>2017-08-13T11:06:17Z</time>
      </trkpt>
      <trkpt lat="42.50344" lon="-0.12722">
        <ele>891.4</ele>
        <time>2017-08-13T11:06:18Z</time>
      </trkpt>
      <trkpt lat="42.50348" lon="-0.12723">
        <ele>890.6</ele>
        <time>2017-08-13T11:06:19Z</time>
      </trkpt>
      <trkpt lat="42.50351" lon="-0.12722">
        <ele>889.8</ele>
        <time>2017-08-13T11:06:20Z</time>
      </trkpt>
      <trkpt lat="42.50355" lon="-0.12722">
        <ele>888.9</ele>
        <time>2017-08-13T11:06:21Z</time>
      </trkpt>
      <trkpt lat="42.50359" lon="-0.12723">
        <ele>887.4</ele>
        <time>2017-08-13T11:06:22Z</time>
      </trkpt>
      <trkpt lat="42.50363" lon="-0.12725">
        <ele>888.3</ele>
        <time>2017-08-13T11:06:23Z</time>
      </trkpt>
      <trkpt lat="42.50366" lon="-0.12728">
        <ele>887.4</ele>
        <time>2017-08-13T11:06:24Z</time>
      </trkpt>
      <trkpt lat="42.5037" lon="-0.1273">
        <ele>888.2</ele>
        <time>2017-08-13T11:06:25Z</time>
      </trkpt>
      <trkpt lat="42.50373" lon="-0.12732">
        <ele>887.1</ele>
        <time>2017-08-13T11:06:26Z</time>
      </trkpt>
      <trkpt lat="42.50378" lon="-0.12734">
        <ele>887.9</ele>
        <time>2017-08-13T11:06:27Z</time>
      </trkpt>
      <trkpt lat="42.50382" lon="-0.12737">
        <ele>885.5</ele>
        <time>2017-08-13T11:06:28Z</time>
      </trkpt>
      <trkpt lat="42.50386" lon="-0.12738">
        <ele>886.3</ele>
        <time>2017-08-13T11:06:29Z</time>
      </trkpt>
      <trkpt lat="42.50389" lon="-0.12739">
        <ele>885.1</ele>
        <time>2017-08-13T11:06:30Z</time>
      </trkpt>
      <trkpt lat="42.50392" lon="-0.12741">
        <ele>883.9</ele>
        <time>2017-08-13T11:06:31Z</time>
      </trkpt>
      <trkpt lat="42.50396" lon="-0.12743">
        <ele>884.3</ele>
        <time>2017-08-13T11:06:32Z</time>
      </trkpt>
      <trkpt lat="42.50399" lon="-0.12744">
        <ele>882.7</ele>
        <time>2017-08-13T11:06:33Z</time>
      </trkpt>
      <trkpt lat="42.50403" lon="-0.12746">
        <ele>879.6</ele>
        <time>2017-08-13T11:06:34Z</time>
      </trkpt>
      <trkpt lat="42.50408" lon="-0.12747">
        <ele>879.1</ele>
        <time>2017-08-13T11:06:35Z</time>
      </trkpt>
      <trkpt lat="42.5041" lon="-0.12748">
        <ele>877.7</ele>
        <time>2017-08-13T11:06:36Z</time>
      </trkpt>
      <trkpt lat="42.50413" lon="-0.1275">
        <ele>876.4</ele>
        <time>2017-08-13T11:06:37Z</time>
      </trkpt>
      <trkpt lat="42.50416" lon="-0.12753">
        <ele>876.2</ele>
        <time>2017-08-13T11:06:39Z</time>
      </trkpt>
      <trkpt lat="42.50421" lon="-0.12758">
        <ele>876.2</ele>
        <time>2017-08-13T11:06:41Z</time>
      </trkpt>
      <trkpt lat="42.50424" lon="-0.12761">
        <ele>876.4</ele>
        <time>2017-08-13T11:06:42Z</time>
      </trkpt>
      <trkpt lat="42.50427" lon="-0.12764">
        <ele>876.8</ele>
        <time>2017-08-13T11:06:43Z</time>
      </trkpt>
      <trkpt lat="42.5043" lon="-0.12767">
        <ele>876</ele>
        <time>2017-08-13T11:06:44Z</time>
      </trkpt>
      <trkpt lat="42.50433" lon="-0.12771">
        <ele>876.4</ele>
        <time>2017-08-13T11:06:45Z</time>
      </trkpt>
      <trkpt lat="42.50436" lon="-0.12774">
        <ele>876.7</ele>
        <time>2017-08-13T11:06:46Z</time>
      </trkpt>
      <trkpt lat="42.50438" lon="-0.12777">
        <ele>876.8</ele>
        <time>2017-08-13T11:06:47Z</time>
      </trkpt>
      <trkpt lat="42.50442" lon="-0.12782">
        <ele>877.1</ele>
        <time>2017-08-13T11:06:49Z</time>
      </trkpt>
      <trkpt lat="42.50446" lon="-0.12786">
        <ele>877.5</ele>
        <time>2017-08-13T11:06:51Z</time>
      </trkpt>
      <trkpt lat="42.50449" lon="-0.1279">
        <ele>878.1</ele>
        <time>2017-08-13T11:06:53Z</time>
      </trkpt>
      <trkpt lat="42.50452" lon="-0.12794">
        <ele>878.5</ele>
        <time>2017-08-13T11:06:55Z</time>
      </trkpt>
      <trkpt lat="42.50456" lon="-0.12798">
        <ele>878.8</ele>
        <time>2017-08-13T11:06:57Z</time>
      </trkpt>
      <trkpt lat="42.50458" lon="-0.12801">
        <ele>877.8</ele>
        <time>2017-08-13T11:06:58Z</time>
      </trkpt>
      <trkpt lat="42.50462" lon="-0.12804">
        <ele>877.8</ele>
        <time>2017-08-13T11:07:00Z</time>
      </trkpt>
      <trkpt lat="42.50467" lon="-0.12808">
        <ele>876.5</ele>
        <time>2017-08-13T11:07:02Z</time>
      </trkpt>
      <trkpt lat="42.5047" lon="-0.1281">
        <ele>875.5</ele>
        <time>2017-08-13T11:07:03Z</time>
      </trkpt>
      <trkpt lat="42.50472" lon="-0.12811">
        <ele>876.5</ele>
        <time>2017-08-13T11:07:04Z</time>
      </trkpt>
      <trkpt lat="42.50475" lon="-0.12813">
        <ele>875.5</ele>
        <time>2017-08-13T11:07:05Z</time>
      </trkpt>
      <trkpt lat="42.50479" lon="-0.12815">
        <ele>875.5</ele>
        <time>2017-08-13T11:07:06Z</time>
      </trkpt>
      <trkpt lat="42.50482" lon="-0.12818">
        <ele>874.3</ele>
        <time>2017-08-13T11:07:07Z</time>
      </trkpt>
      <trkpt lat="42.50485" lon="-0.1282">
        <ele>874.3</ele>
        <time>2017-08-13T11:07:08Z</time>
      </trkpt>
      <trkpt lat="42.50488" lon="-0.12822">
        <ele>873.1</ele>
        <time>2017-08-13T11:07:09Z</time>
      </trkpt>
      <trkpt lat="42.50491" lon="-0.12823">
        <ele>871.9</ele>
        <time>2017-08-13T11:07:10Z</time>
      </trkpt>
      <trkpt lat="42.50495" lon="-0.12824">
        <ele>871.4</ele>
        <time>2017-08-13T11:07:12Z</time>
      </trkpt>
      <trkpt lat="42.50499" lon="-0.12822">
        <ele>869.1</ele>
        <time>2017-08-13T11:07:14Z</time>
      </trkpt>
      <trkpt lat="42.50502" lon="-0.1282">
        <ele>868.4</ele>
        <time>2017-08-13T11:07:15Z</time>
      </trkpt>
      <trkpt lat="42.50505" lon="-0.12818">
        <ele>866.2</ele>
        <time>2017-08-13T11:07:16Z</time>
      </trkpt>
      <trkpt lat="42.50508" lon="-0.12816">
        <ele>865.4</ele>
        <time>2017-08-13T11:07:17Z</time>
      </trkpt>
      <trkpt lat="42.50512" lon="-0.12815">
        <ele>864.7</ele>
        <time>2017-08-13T11:07:18Z</time>
      </trkpt>
      <trkpt lat="42.50515" lon="-0.12814">
        <ele>862.6</ele>
        <time>2017-08-13T11:07:19Z</time>
      </trkpt>
      <trkpt lat="42.50518" lon="-0.12815">
        <ele>863.4</ele>
        <time>2017-08-13T11:07:20Z</time>
      </trkpt>
      <trkpt lat="42.5052" lon="-0.12815">
        <ele>862.8</ele>
        <time>2017-08-13T11:07:21Z</time>
      </trkpt>
      <trkpt lat="42.50524" lon="-0.12815">
        <ele>862.3</ele>
        <time>2017-08-13T11:07:22Z</time>
      </trkpt>
      <trkpt lat="42.50527" lon="-0.12815">
        <ele>861.9</ele>
        <time>2017-08-13T11:07:23Z</time>
      </trkpt>
      <trkpt lat="42.50531" lon="-0.12814">
        <ele>859.9</ele>
        <time>2017-08-13T11:07:24Z</time>
      </trkpt>
      <trkpt lat="42.50534" lon="-0.12815">
        <ele>860.9</ele>
        <time>2017-08-13T11:07:25Z</time>
      </trkpt>
      <trkpt lat="42.50537" lon="-0.12818">
        <ele>860.2</ele>
        <time>2017-08-13T11:07:27Z</time>
      </trkpt>
      <trkpt lat="42.50541" lon="-0.12821">
        <ele>861.3</ele>
        <time>2017-08-13T11:07:29Z</time>
      </trkpt>
      <trkpt lat="42.50545" lon="-0.12822">
        <ele>859.9</ele>
        <time>2017-08-13T11:07:31Z</time>
      </trkpt>
      <trkpt lat="42.50549" lon="-0.12823">
        <ele>859.2</ele>
        <time>2017-08-13T11:07:32Z</time>
      </trkpt>
      <trkpt lat="42.50552" lon="-0.12823">
        <ele>858.5</ele>
        <time>2017-08-13T11:07:33Z</time>
      </trkpt>
      <trkpt lat="42.50556" lon="-0.12822">
        <ele>857.9</ele>
        <time>2017-08-13T11:07:34Z</time>
      </trkpt>
      <trkpt lat="42.5056" lon="-0.12822">
        <ele>857.2</ele>
        <time>2017-08-13T11:07:35Z</time>
      </trkpt>
      <trkpt lat="42.50564" lon="-0.12823">
        <ele>855.6</ele>
        <time>2017-08-13T11:07:36Z</time>
      </trkpt>
      <trkpt lat="42.50568" lon="-0.12823">
        <ele>856.4</ele>
        <time>2017-08-13T11:07:37Z</time>
      </trkpt>
      <trkpt lat="42.50572" lon="-0.12827">
        <ele>855.4</ele>
        <time>2017-08-13T11:07:39Z</time>
      </trkpt>
      <trkpt lat="42.50575" lon="-0.12828">
        <ele>855.8</ele>
        <time>2017-08-13T11:07:41Z</time>
      </trkpt>
      <trkpt lat="42.50579" lon="-0.1283">
        <ele>854.7</ele>
        <time>2017-08-13T11:07:43Z</time>
      </trkpt>
      <trkpt lat="42.50582" lon="-0.12833">
        <ele>854.8</ele>
        <time>2017-08-13T11:07:45Z</time>
      </trkpt>
      <trkpt lat="42.50585" lon="-0.12835">
        <ele>853.7</ele>
        <time>2017-08-13T11:07:47Z</time>
      </trkpt>
      <trkpt lat="42.5059" lon="-0.12838">
        <ele>852.5</ele>
        <time>2017-08-13T11:07:49Z</time>
      </trkpt>
      <trkpt lat="42.50593" lon="-0.12841">
        <ele>853.8</ele>
        <time>2017-08-13T11:07:50Z</time>
      </trkpt>
      <trkpt lat="42.50595" lon="-0.12844">
        <ele>852.4</ele>
        <time>2017-08-13T11:07:51Z</time>
      </trkpt>
      <trkpt lat="42.50597" lon="-0.12847">
        <ele>852.5</ele>
        <time>2017-08-13T11:07:52Z</time>
      </trkpt>
      <trkpt lat="42.50599" lon="-0.12853">
        <ele>852.5</ele>
        <time>2017-08-13T11:07:54Z</time>
      </trkpt>
      <trkpt lat="42.50601" lon="-0.12856">
        <ele>853.8</ele>
        <time>2017-08-13T11:07:56Z</time>
      </trkpt>
      <trkpt lat="42.50602" lon="-0.1286">
        <ele>854.9</ele>
        <time>2017-08-13T11:07:58Z</time>
      </trkpt>
      <trkpt lat="42.50605" lon="-0.12865">
        <ele>854.4</ele>
        <time>2017-08-13T11:08:00Z</time>
      </trkpt>
      <trkpt lat="42.5061" lon="-0.12865">
        <ele>851.8</ele>
        <time>2017-08-13T11:08:02Z</time>
      </trkpt>
      <trkpt lat="42.50613" lon="-0.12862">
        <ele>849.8</ele>
        <time>2017-08-13T11:08:04Z</time>
      </trkpt>
      <trkpt lat="42.50618" lon="-0.1286">
        <ele>848.7</ele>
        <time>2017-08-13T11:08:06Z</time>
      </trkpt>
      <trkpt lat="42.50621" lon="-0.12861">
        <ele>846.2</ele>
        <time>2017-08-13T11:08:08Z</time>
      </trkpt>
      <trkpt lat="42.50624" lon="-0.12865">
        <ele>845.7</ele>
        <time>2017-08-13T11:08:10Z</time>
      </trkpt>
      <trkpt lat="42.50628" lon="-0.12868">
        <ele>845.5</ele>
        <time>2017-08-13T11:08:12Z</time>
      </trkpt>
      <trkpt lat="42.50631" lon="-0.1287">
        <ele>845.7</ele>
        <time>2017-08-13T11:08:13Z</time>
      </trkpt>
      <trkpt lat="42.50634" lon="-0.12871">
        <ele>845.9</ele>
        <time>2017-08-13T11:08:14Z</time>
      </trkpt>
      <trkpt lat="42.50639" lon="-0.12874">
        <ele>846</ele>
        <time>2017-08-13T11:08:16Z</time>
      </trkpt>
      <trkpt lat="42.50642" lon="-0.12875">
        <ele>846.1</ele>
        <time>2017-08-13T11:08:17Z</time>
      </trkpt>
      <trkpt lat="42.50646" lon="-0.12879">
        <ele>846.2</ele>
        <time>2017-08-13T11:08:19Z</time>
      </trkpt>
      <trkpt lat="42.50649" lon="-0.12881">
        <ele>846.3</ele>
        <time>2017-08-13T11:08:21Z</time>
      </trkpt>
      <trkpt lat="42.50652" lon="-0.12883">
        <ele>846.4</ele>
        <time>2017-08-13T11:08:23Z</time>
      </trkpt>
      <trkpt lat="42.50657" lon="-0.12883">
        <ele>846.5</ele>
        <time>2017-08-13T11:08:25Z</time>
      </trkpt>
      <trkpt lat="42.5066" lon="-0.12883">
        <ele>846.6</ele>
        <time>2017-08-13T11:08:27Z</time>
      </trkpt>
      <trkpt lat="42.50665" lon="-0.12884">
        <ele>846.7</ele>
        <time>2017-08-13T11:08:29Z</time>
      </trkpt>
      <trkpt lat="42.50667" lon="-0.12886">
        <ele>846.7</ele>
        <time>2017-08-13T11:08:30Z</time>
      </trkpt>
      <trkpt lat="42.5067" lon="-0.12888">
        <ele>846.8</ele>
        <time>2017-08-13T11:08:31Z</time>
      </trkpt>
      <trkpt lat="42.50672" lon="-0.1289">
        <ele>846.9</ele>
        <time>2017-08-13T11:08:32Z</time>
      </trkpt>
      <trkpt lat="42.50674" lon="-0.12892">
        <ele>846.9</ele>
        <time>2017-08-13T11:08:33Z</time>
      </trkpt>
      <trkpt lat="42.50679" lon="-0.12895">
        <ele>847.1</ele>
        <time>2017-08-13T11:08:35Z</time>
      </trkpt>
      <trkpt lat="42.50684" lon="-0.12897">
        <ele>847.2</ele>
        <time>2017-08-13T11:08:37Z</time>
      </trkpt>
      <trkpt lat="42.50687" lon="-0.12899">
        <ele>847.4</ele>
        <time>2017-08-13T11:08:38Z</time>
      </trkpt>
      <trkpt lat="42.50691" lon="-0.12903">
        <ele>847.8</ele>
        <time>2017-08-13T11:08:40Z</time>
      </trkpt>
      <trkpt lat="42.50693" lon="-0.12907">
        <ele>848</ele>
        <time>2017-08-13T11:08:41Z</time>
      </trkpt>
      <trkpt lat="42.50695" lon="-0.12911">
        <ele>848.2</ele>
        <time>2017-08-13T11:08:42Z</time>
      </trkpt>
      <trkpt lat="42.50697" lon="-0.12915">
        <ele>848.3</ele>
        <time>2017-08-13T11:08:43Z</time>
      </trkpt>
      <trkpt lat="42.50699" lon="-0.12918">
        <ele>848.4</ele>
        <time>2017-08-13T11:08:44Z</time>
      </trkpt>
      <trkpt lat="42.50701" lon="-0.12922">
        <ele>848.5</ele>
        <time>2017-08-13T11:08:45Z</time>
      </trkpt>
      <trkpt lat="42.50703" lon="-0.12927">
        <ele>848.6</ele>
        <time>2017-08-13T11:08:46Z</time>
      </trkpt>
      <trkpt lat="42.50705" lon="-0.12931">
        <ele>848.7</ele>
        <time>2017-08-13T11:08:47Z</time>
      </trkpt>
      <trkpt lat="42.50707" lon="-0.12935">
        <ele>848.8</ele>
        <time>2017-08-13T11:08:48Z</time>
      </trkpt>
      <trkpt lat="42.50709" lon="-0.12939">
        <ele>848.9</ele>
        <time>2017-08-13T11:08:49Z</time>
      </trkpt>
      <trkpt lat="42.50711" lon="-0.12943">
        <ele>849</ele>
        <time>2017-08-13T11:08:50Z</time>
      </trkpt>
      <trkpt lat="42.50713" lon="-0.12947">
        <ele>849.1</ele>
        <time>2017-08-13T11:08:51Z</time>
      </trkpt>
      <trkpt lat="42.50716" lon="-0.12952">
        <ele>849.3</ele>
        <time>2017-08-13T11:08:52Z</time>
      </trkpt>
      <trkpt lat="42.50719" lon="-0.12954">
        <ele>849.6</ele>
        <time>2017-08-13T11:08:53Z</time>
      </trkpt>
      <trkpt lat="42.50722" lon="-0.12957">
        <ele>849.8</ele>
        <time>2017-08-13T11:08:54Z</time>
      </trkpt>
      <trkpt lat="42.50725" lon="-0.12959">
        <ele>850.1</ele>
        <time>2017-08-13T11:08:55Z</time>
      </trkpt>
      <trkpt lat="42.5073" lon="-0.12961">
        <ele>850.5</ele>
        <time>2017-08-13T11:08:57Z</time>
      </trkpt>
      <trkpt lat="42.50733" lon="-0.12963">
        <ele>850.7</ele>
        <time>2017-08-13T11:08:58Z</time>
      </trkpt>
      <trkpt lat="42.50736" lon="-0.12964">
        <ele>850.8</ele>
        <time>2017-08-13T11:08:59Z</time>
      </trkpt>
      <trkpt lat="42.50739" lon="-0.12966">
        <ele>850.9</ele>
        <time>2017-08-13T11:09:00Z</time>
      </trkpt>
      <trkpt lat="42.50744" lon="-0.12969">
        <ele>851.1</ele>
        <time>2017-08-13T11:09:02Z</time>
      </trkpt>
      <trkpt lat="42.50747" lon="-0.12971">
        <ele>851.2</ele>
        <time>2017-08-13T11:09:03Z</time>
      </trkpt>
      <trkpt lat="42.5075" lon="-0.12973">
        <ele>851.3</ele>
        <time>2017-08-13T11:09:04Z</time>
      </trkpt>
      <trkpt lat="42.50752" lon="-0.12975">
        <ele>851.3</ele>
        <time>2017-08-13T11:09:05Z</time>
      </trkpt>
      <trkpt lat="42.50755" lon="-0.12978">
        <ele>851.5</ele>
        <time>2017-08-13T11:09:06Z</time>
      </trkpt>
      <trkpt lat="42.50757" lon="-0.1298">
        <ele>851.6</ele>
        <time>2017-08-13T11:09:07Z</time>
      </trkpt>
      <trkpt lat="42.50759" lon="-0.12983">
        <ele>851.7</ele>
        <time>2017-08-13T11:09:08Z</time>
      </trkpt>
      <trkpt lat="42.50762" lon="-0.12985">
        <ele>851.9</ele>
        <time>2017-08-13T11:09:09Z</time>
      </trkpt>
      <trkpt lat="42.50764" lon="-0.12988">
        <ele>852.2</ele>
        <time>2017-08-13T11:09:10Z</time>
      </trkpt>
      <trkpt lat="42.50767" lon="-0.12991">
        <ele>852.5</ele>
        <time>2017-08-13T11:09:11Z</time>
      </trkpt>
      <trkpt lat="42.50769" lon="-0.12994">
        <ele>852.9</ele>
        <time>2017-08-13T11:09:12Z</time>
      </trkpt>
      <trkpt lat="42.50772" lon="-0.12997">
        <ele>853.2</ele>
        <time>2017-08-13T11:09:13Z</time>
      </trkpt>
      <trkpt lat="42.50774" lon="-0.13">
        <ele>853.5</ele>
        <time>2017-08-13T11:09:14Z</time>
      </trkpt>
      <trkpt lat="42.50776" lon="-0.13003">
        <ele>853.7</ele>
        <time>2017-08-13T11:09:15Z</time>
      </trkpt>
      <trkpt lat="42.50778" lon="-0.13006">
        <ele>853.9</ele>
        <time>2017-08-13T11:09:16Z</time>
      </trkpt>
      <trkpt lat="42.50781" lon="-0.13008">
        <ele>854.1</ele>
        <time>2017-08-13T11:09:17Z</time>
      </trkpt>
      <trkpt lat="42.50783" lon="-0.13011">
        <ele>854.4</ele>
        <time>2017-08-13T11:09:18Z</time>
      </trkpt>
      <trkpt lat="42.50785" lon="-0.13013">
        <ele>854.7</ele>
        <time>2017-08-13T11:09:19Z</time>
      </trkpt>
      <trkpt lat="42.5079" lon="-0.13017">
        <ele>855.2</ele>
        <time>2017-08-13T11:09:21Z</time>
      </trkpt>
      <trkpt lat="42.50792" lon="-0.13019">
        <ele>855.5</ele>
        <time>2017-08-13T11:09:22Z</time>
      </trkpt>
      <trkpt lat="42.50795" lon="-0.13022">
        <ele>855.6</ele>
        <time>2017-08-13T11:09:23Z</time>
      </trkpt>
      <trkpt lat="42.50797" lon="-0.13025">
        <ele>855.8</ele>
        <time>2017-08-13T11:09:24Z</time>
      </trkpt>
      <trkpt lat="42.508" lon="-0.13029">
        <ele>855.9</ele>
        <time>2017-08-13T11:09:25Z</time>
      </trkpt>
      <trkpt lat="42.50802" lon="-0.13032">
        <ele>856.1</ele>
        <time>2017-08-13T11:09:26Z</time>
      </trkpt>
      <trkpt lat="42.50804" lon="-0.13035">
        <ele>856.3</ele>
        <time>2017-08-13T11:09:27Z</time>
      </trkpt>
      <trkpt lat="42.50806" lon="-0.13038">
        <ele>856.6</ele>
        <time>2017-08-13T11:09:28Z</time>
      </trkpt>
      <trkpt lat="42.50809" lon="-0.13041">
        <ele>857</ele>
        <time>2017-08-13T11:09:29Z</time>
      </trkpt>
      <trkpt lat="42.50811" lon="-0.13043">
        <ele>857.3</ele>
        <time>2017-08-13T11:09:30Z</time>
      </trkpt>
      <trkpt lat="42.50814" lon="-0.13046">
        <ele>857.6</ele>
        <time>2017-08-13T11:09:31Z</time>
      </trkpt>
      <trkpt lat="42.50816" lon="-0.13049">
        <ele>857.9</ele>
        <time>2017-08-13T11:09:32Z</time>
      </trkpt>
      <trkpt lat="42.50819" lon="-0.13051">
        <ele>858.2</ele>
        <time>2017-08-13T11:09:33Z</time>
      </trkpt>
      <trkpt lat="42.50821" lon="-0.13054">
        <ele>858.4</ele>
        <time>2017-08-13T11:09:34Z</time>
      </trkpt>
      <trkpt lat="42.50823" lon="-0.13056">
        <ele>858.6</ele>
        <time>2017-08-13T11:09:35Z</time>
      </trkpt>
      <trkpt lat="42.50825" lon="-0.13058">
        <ele>858.9</ele>
        <time>2017-08-13T11:09:36Z</time>
      </trkpt>
      <trkpt lat="42.5083" lon="-0.13061">
        <ele>859.6</ele>
        <time>2017-08-13T11:09:38Z</time>
      </trkpt>
      <trkpt lat="42.50833" lon="-0.13063">
        <ele>859.9</ele>
        <time>2017-08-13T11:09:39Z</time>
      </trkpt>
      <trkpt lat="42.50836" lon="-0.13065">
        <ele>860.2</ele>
        <time>2017-08-13T11:09:40Z</time>
      </trkpt>
      <trkpt lat="42.50838" lon="-0.13066">
        <ele>860.4</ele>
        <time>2017-08-13T11:09:41Z</time>
      </trkpt>
      <trkpt lat="42.5084" lon="-0.13069">
        <ele>860.5</ele>
        <time>2017-08-13T11:09:42Z</time>
      </trkpt>
      <trkpt lat="42.50843" lon="-0.13071">
        <ele>860.7</ele>
        <time>2017-08-13T11:09:43Z</time>
      </trkpt>
      <trkpt lat="42.50845" lon="-0.13073">
        <ele>860.8</ele>
        <time>2017-08-13T11:09:44Z</time>
      </trkpt>
      <trkpt lat="42.50847" lon="-0.13076">
        <ele>861</ele>
        <time>2017-08-13T11:09:45Z</time>
      </trkpt>
      <trkpt lat="42.50849" lon="-0.13078">
        <ele>861.4</ele>
        <time>2017-08-13T11:09:46Z</time>
      </trkpt>
      <trkpt lat="42.50851" lon="-0.13081">
        <ele>861.7</ele>
        <time>2017-08-13T11:09:47Z</time>
      </trkpt>
      <trkpt lat="42.50854" lon="-0.13084">
        <ele>862</ele>
        <time>2017-08-13T11:09:48Z</time>
      </trkpt>
      <trkpt lat="42.50856" lon="-0.13087">
        <ele>862.3</ele>
        <time>2017-08-13T11:09:49Z</time>
      </trkpt>
      <trkpt lat="42.50858" lon="-0.13089">
        <ele>862.6</ele>
        <time>2017-08-13T11:09:50Z</time>
      </trkpt>
      <trkpt lat="42.50859" lon="-0.13093">
        <ele>862.8</ele>
        <time>2017-08-13T11:09:51Z</time>
      </trkpt>
      <trkpt lat="42.50861" lon="-0.13096">
        <ele>862.9</ele>
        <time>2017-08-13T11:09:52Z</time>
      </trkpt>
      <trkpt lat="42.50862" lon="-0.13099">
        <ele>863.1</ele>
        <time>2017-08-13T11:09:53Z</time>
      </trkpt>
      <trkpt lat="42.50863" lon="-0.13103">
        <ele>863.2</ele>
        <time>2017-08-13T11:09:54Z</time>
      </trkpt>
      <trkpt lat="42.50865" lon="-0.13107">
        <ele>863.3</ele>
        <time>2017-08-13T11:09:55Z</time>
      </trkpt>
      <trkpt lat="42.50866" lon="-0.13112">
        <ele>863.6</ele>
        <time>2017-08-13T11:09:56Z</time>
      </trkpt>
      <trkpt lat="42.50867" lon="-0.13116">
        <ele>864</ele>
        <time>2017-08-13T11:09:57Z</time>
      </trkpt>
      <trkpt lat="42.50868" lon="-0.1312">
        <ele>864.3</ele>
        <time>2017-08-13T11:09:58Z</time>
      </trkpt>
      <trkpt lat="42.50868" lon="-0.13124">
        <ele>864.6</ele>
        <time>2017-08-13T11:09:59Z</time>
      </trkpt>
      <trkpt lat="42.50869" lon="-0.13128">
        <ele>864.8</ele>
        <time>2017-08-13T11:10:00Z</time>
      </trkpt>
      <trkpt lat="42.50869" lon="-0.13132">
        <ele>864.9</ele>
        <time>2017-08-13T11:10:01Z</time>
      </trkpt>
      <trkpt lat="42.5087" lon="-0.13135">
        <ele>865.1</ele>
        <time>2017-08-13T11:10:02Z</time>
      </trkpt>
      <trkpt lat="42.50871" lon="-0.13139">
        <ele>865.4</ele>
        <time>2017-08-13T11:10:03Z</time>
      </trkpt>
      <trkpt lat="42.50871" lon="-0.13143">
        <ele>865.6</ele>
        <time>2017-08-13T11:10:04Z</time>
      </trkpt>
      <trkpt lat="42.50871" lon="-0.13147">
        <ele>866</ele>
        <time>2017-08-13T11:10:05Z</time>
      </trkpt>
      <trkpt lat="42.50871" lon="-0.13151">
        <ele>866.4</ele>
        <time>2017-08-13T11:10:06Z</time>
      </trkpt>
      <trkpt lat="42.50871" lon="-0.13155">
        <ele>866.7</ele>
        <time>2017-08-13T11:10:07Z</time>
      </trkpt>
      <trkpt lat="42.50871" lon="-0.13158">
        <ele>866.9</ele>
        <time>2017-08-13T11:10:08Z</time>
      </trkpt>
      <trkpt lat="42.50871" lon="-0.13166">
        <ele>867.1</ele>
        <time>2017-08-13T11:10:10Z</time>
      </trkpt>
      <trkpt lat="42.50871" lon="-0.13169">
        <ele>867.1</ele>
        <time>2017-08-13T11:10:11Z</time>
      </trkpt>
      <trkpt lat="42.50872" lon="-0.13173">
        <ele>867.2</ele>
        <time>2017-08-13T11:10:12Z</time>
      </trkpt>
      <trkpt lat="42.50872" lon="-0.13177">
        <ele>867.3</ele>
        <time>2017-08-13T11:10:13Z</time>
      </trkpt>
      <trkpt lat="42.50872" lon="-0.13181">
        <ele>867.4</ele>
        <time>2017-08-13T11:10:14Z</time>
      </trkpt>
      <trkpt lat="42.50873" lon="-0.13185">
        <ele>867.6</ele>
        <time>2017-08-13T11:10:15Z</time>
      </trkpt>
      <trkpt lat="42.50874" lon="-0.13189">
        <ele>867.8</ele>
        <time>2017-08-13T11:10:16Z</time>
      </trkpt>
      <trkpt lat="42.50875" lon="-0.13193">
        <ele>868</ele>
        <time>2017-08-13T11:10:17Z</time>
      </trkpt>
      <trkpt lat="42.50876" lon="-0.13198">
        <ele>868.3</ele>
        <time>2017-08-13T11:10:18Z</time>
      </trkpt>
      <trkpt lat="42.50877" lon="-0.13202">
        <ele>868.6</ele>
        <time>2017-08-13T11:10:19Z</time>
      </trkpt>
      <trkpt lat="42.50878" lon="-0.13207">
        <ele>868.9</ele>
        <time>2017-08-13T11:10:20Z</time>
      </trkpt>
      <trkpt lat="42.50879" lon="-0.13211">
        <ele>869</ele>
        <time>2017-08-13T11:10:21Z</time>
      </trkpt>
      <trkpt lat="42.50879" lon="-0.13216">
        <ele>869.1</ele>
        <time>2017-08-13T11:10:22Z</time>
      </trkpt>
      <trkpt lat="42.50879" lon="-0.1322">
        <ele>869.1</ele>
        <time>2017-08-13T11:10:23Z</time>
      </trkpt>
      <trkpt lat="42.50878" lon="-0.13224">
        <ele>869.2</ele>
        <time>2017-08-13T11:10:24Z</time>
      </trkpt>
      <trkpt lat="42.50879" lon="-0.13229">
        <ele>869.2</ele>
        <time>2017-08-13T11:10:25Z</time>
      </trkpt>
      <trkpt lat="42.50879" lon="-0.13233">
        <ele>869.3</ele>
        <time>2017-08-13T11:10:26Z</time>
      </trkpt>
      <trkpt lat="42.5088" lon="-0.13238">
        <ele>869.3</ele>
        <time>2017-08-13T11:10:27Z</time>
      </trkpt>
      <trkpt lat="42.5088" lon="-0.13242">
        <ele>869.4</ele>
        <time>2017-08-13T11:10:28Z</time>
      </trkpt>
      <trkpt lat="42.50881" lon="-0.13246">
        <ele>869.4</ele>
        <time>2017-08-13T11:10:29Z</time>
      </trkpt>
      <trkpt lat="42.50882" lon="-0.1325">
        <ele>869.4</ele>
        <time>2017-08-13T11:10:30Z</time>
      </trkpt>
      <trkpt lat="42.50883" lon="-0.13253">
        <ele>869.5</ele>
        <time>2017-08-13T11:10:31Z</time>
      </trkpt>
      <trkpt lat="42.50884" lon="-0.13257">
        <ele>869.5</ele>
        <time>2017-08-13T11:10:32Z</time>
      </trkpt>
      <trkpt lat="42.50885" lon="-0.13261">
        <ele>869.6</ele>
        <time>2017-08-13T11:10:33Z</time>
      </trkpt>
      <trkpt lat="42.50886" lon="-0.13264">
        <ele>869.6</ele>
        <time>2017-08-13T11:10:34Z</time>
      </trkpt>
      <trkpt lat="42.50889" lon="-0.13267">
        <ele>869.7</ele>
        <time>2017-08-13T11:10:35Z</time>
      </trkpt>
      <trkpt lat="42.50892" lon="-0.13269">
        <ele>869.8</ele>
        <time>2017-08-13T11:10:36Z</time>
      </trkpt>
      <trkpt lat="42.50896" lon="-0.13269">
        <ele>869.8</ele>
        <time>2017-08-13T11:10:37Z</time>
      </trkpt>
      <trkpt lat="42.509" lon="-0.13268">
        <ele>869.9</ele>
        <time>2017-08-13T11:10:38Z</time>
      </trkpt>
      <trkpt lat="42.50903" lon="-0.13265">
        <ele>870</ele>
        <time>2017-08-13T11:10:39Z</time>
      </trkpt>
      <trkpt lat="42.50905" lon="-0.13261">
        <ele>870.2</ele>
        <time>2017-08-13T11:10:40Z</time>
      </trkpt>
      <trkpt lat="42.50907" lon="-0.13257">
        <ele>870.5</ele>
        <time>2017-08-13T11:10:41Z</time>
      </trkpt>
      <trkpt lat="42.50909" lon="-0.13253">
        <ele>870.7</ele>
        <time>2017-08-13T11:10:42Z</time>
      </trkpt>
      <trkpt lat="42.50911" lon="-0.13249">
        <ele>871</ele>
        <time>2017-08-13T11:10:43Z</time>
      </trkpt>
      <trkpt lat="42.50913" lon="-0.13245">
        <ele>871.2</ele>
        <time>2017-08-13T11:10:44Z</time>
      </trkpt>
      <trkpt lat="42.50915" lon="-0.13242">
        <ele>871.4</ele>
        <time>2017-08-13T11:10:45Z</time>
      </trkpt>
      <trkpt lat="42.50917" lon="-0.13238">
        <ele>871.5</ele>
        <time>2017-08-13T11:10:46Z</time>
      </trkpt>
      <trkpt lat="42.50919" lon="-0.13235">
        <ele>871.6</ele>
        <time>2017-08-13T11:10:47Z</time>
      </trkpt>
      <trkpt lat="42.50922" lon="-0.13232">
        <ele>871.7</ele>
        <time>2017-08-13T11:10:48Z</time>
      </trkpt>
      <trkpt lat="42.50924" lon="-0.13229">
        <ele>871.7</ele>
        <time>2017-08-13T11:10:49Z</time>
      </trkpt>
      <trkpt lat="42.50927" lon="-0.13226">
        <ele>871.8</ele>
        <time>2017-08-13T11:10:50Z</time>
      </trkpt>
      <trkpt lat="42.50929" lon="-0.13223">
        <ele>871.9</ele>
        <time>2017-08-13T11:10:51Z</time>
      </trkpt>
      <trkpt lat="42.50932" lon="-0.1322">
        <ele>871.9</ele>
        <time>2017-08-13T11:10:52Z</time>
      </trkpt>
      <trkpt lat="42.50935" lon="-0.13218">
        <ele>872</ele>
        <time>2017-08-13T11:10:53Z</time>
      </trkpt>
      <trkpt lat="42.50938" lon="-0.13215">
        <ele>872</ele>
        <time>2017-08-13T11:10:54Z</time>
      </trkpt>
      <trkpt lat="42.50941" lon="-0.13212">
        <ele>872</ele>
        <time>2017-08-13T11:10:55Z</time>
      </trkpt>
      <trkpt lat="42.50945" lon="-0.13209">
        <ele>872</ele>
        <time>2017-08-13T11:10:56Z</time>
      </trkpt>
      <trkpt lat="42.50949" lon="-0.13206">
        <ele>872</ele>
        <time>2017-08-13T11:10:57Z</time>
      </trkpt>
      <trkpt lat="42.50952" lon="-0.13203">
        <ele>872</ele>
        <time>2017-08-13T11:10:58Z</time>
      </trkpt>
      <trkpt lat="42.50956" lon="-0.13199">
        <ele>872</ele>
        <time>2017-08-13T11:10:59Z</time>
      </trkpt>
      <trkpt lat="42.5096" lon="-0.13196">
        <ele>872</ele>
        <time>2017-08-13T11:11:00Z</time>
      </trkpt>
      <trkpt lat="42.50963" lon="-0.13191">
        <ele>872</ele>
        <time>2017-08-13T11:11:01Z</time>
      </trkpt>
      <trkpt lat="42.50967" lon="-0.13187">
        <ele>872</ele>
        <time>2017-08-13T11:11:02Z</time>
      </trkpt>
      <trkpt lat="42.50971" lon="-0.13182">
        <ele>872</ele>
        <time>2017-08-13T11:11:03Z</time>
      </trkpt>
      <trkpt lat="42.50975" lon="-0.13177">
        <ele>872</ele>
        <time>2017-08-13T11:11:04Z</time>
      </trkpt>
      <trkpt lat="42.5098" lon="-0.13173">
        <ele>872</ele>
        <time>2017-08-13T11:11:05Z</time>
      </trkpt>
      <trkpt lat="42.50986" lon="-0.1317">
        <ele>872</ele>
        <time>2017-08-13T11:11:06Z</time>
      </trkpt>
      <trkpt lat="42.50992" lon="-0.13169">
        <ele>872</ele>
        <time>2017-08-13T11:11:07Z</time>
      </trkpt>
      <trkpt lat="42.50999" lon="-0.13169">
        <ele>872</ele>
        <time>2017-08-13T11:11:08Z</time>
      </trkpt>
      <trkpt lat="42.51006" lon="-0.13171">
        <ele>872</ele>
        <time>2017-08-13T11:11:09Z</time>
      </trkpt>
      <trkpt lat="42.51013" lon="-0.13173">
        <ele>871.9</ele>
        <time>2017-08-13T11:11:10Z</time>
      </trkpt>
      <trkpt lat="42.51021" lon="-0.1318">
        <ele>871.8</ele>
        <time>2017-08-13T11:11:11Z</time>
      </trkpt>
      <trkpt lat="42.51028" lon="-0.13181">
        <ele>871.7</ele>
        <time>2017-08-13T11:11:12Z</time>
      </trkpt>
      <trkpt lat="42.51036" lon="-0.13183">
        <ele>871.6</ele>
        <time>2017-08-13T11:11:13Z</time>
      </trkpt>
      <trkpt lat="42.51043" lon="-0.13185">
        <ele>871.4</ele>
        <time>2017-08-13T11:11:14Z</time>
      </trkpt>
      <trkpt lat="42.51051" lon="-0.13186">
        <ele>871.1</ele>
        <time>2017-08-13T11:11:15Z</time>
      </trkpt>
      <trkpt lat="42.51059" lon="-0.13187">
        <ele>870.8</ele>
        <time>2017-08-13T11:11:16Z</time>
      </trkpt>
      <trkpt lat="42.51067" lon="-0.13186">
        <ele>870.4</ele>
        <time>2017-08-13T11:11:17Z</time>
      </trkpt>
      <trkpt lat="42.51075" lon="-0.13186">
        <ele>870.1</ele>
        <time>2017-08-13T11:11:18Z</time>
      </trkpt>
      <trkpt lat="42.51082" lon="-0.13185">
        <ele>869.7</ele>
        <time>2017-08-13T11:11:19Z</time>
      </trkpt>
      <trkpt lat="42.51091" lon="-0.13184">
        <ele>869.4</ele>
        <time>2017-08-13T11:11:20Z</time>
      </trkpt>
      <trkpt lat="42.51099" lon="-0.13183">
        <ele>868.9</ele>
        <time>2017-08-13T11:11:21Z</time>
      </trkpt>
      <trkpt lat="42.51108" lon="-0.13182">
        <ele>868.5</ele>
        <time>2017-08-13T11:11:22Z</time>
      </trkpt>
      <trkpt lat="42.51117" lon="-0.13182">
        <ele>868.1</ele>
        <time>2017-08-13T11:11:23Z</time>
      </trkpt>
      <trkpt lat="42.51126" lon="-0.13184">
        <ele>867.6</ele>
        <time>2017-08-13T11:11:24Z</time>
      </trkpt>
      <trkpt lat="42.51135" lon="-0.13187">
        <ele>867.1</ele>
        <time>2017-08-13T11:11:25Z</time>
      </trkpt>
      <trkpt lat="42.51144" lon="-0.13191">
        <ele>866.5</ele>
        <time>2017-08-13T11:11:26Z</time>
      </trkpt>
      <trkpt lat="42.51153" lon="-0.13195">
        <ele>866</ele>
        <time>2017-08-13T11:11:27Z</time>
      </trkpt>
      <trkpt lat="42.5116" lon="-0.13198">
        <ele>865.4</ele>
        <time>2017-08-13T11:11:28Z</time>
      </trkpt>
      <trkpt lat="42.51167" lon="-0.13201">
        <ele>864.8</ele>
        <time>2017-08-13T11:11:29Z</time>
      </trkpt>
      <trkpt lat="42.51175" lon="-0.13204">
        <ele>864.1</ele>
        <time>2017-08-13T11:11:30Z</time>
      </trkpt>
      <trkpt lat="42.51181" lon="-0.13205">
        <ele>863.6</ele>
        <time>2017-08-13T11:11:31Z</time>
      </trkpt>
      <trkpt lat="42.51187" lon="-0.13206">
        <ele>863.1</ele>
        <time>2017-08-13T11:11:32Z</time>
      </trkpt>
      <trkpt lat="42.51193" lon="-0.13206">
        <ele>862.6</ele>
        <time>2017-08-13T11:11:33Z</time>
      </trkpt>
      <trkpt lat="42.51199" lon="-0.13206">
        <ele>862.1</ele>
        <time>2017-08-13T11:11:34Z</time>
      </trkpt>
      <trkpt lat="42.51203" lon="-0.13205">
        <ele>861.8</ele>
        <time>2017-08-13T11:11:35Z</time>
      </trkpt>
      <trkpt lat="42.51207" lon="-0.13204">
        <ele>861.6</ele>
        <time>2017-08-13T11:11:36Z</time>
      </trkpt>
      <trkpt lat="42.51211" lon="-0.132">
        <ele>861.2</ele>
        <time>2017-08-13T11:11:38Z</time>
      </trkpt>
      <trkpt lat="42.51212" lon="-0.13197">
        <ele>861</ele>
        <time>2017-08-13T11:11:40Z</time>
      </trkpt>
      <trkpt lat="42.51212" lon="-0.13193">
        <ele>860.1</ele>
        <time>2017-08-13T11:11:59Z</time>
      </trkpt>
      <trkpt lat="42.51213" lon="-0.13189">
        <ele>858.5</ele>
        <time>2017-08-13T11:12:18Z</time>
      </trkpt>
      <trkpt lat="42.51216" lon="-0.13185">
        <ele>857</ele>
        <time>2017-08-13T11:12:23Z</time>
      </trkpt>
      <trkpt lat="42.51217" lon="-0.13182">
        <ele>856</ele>
        <time>2017-08-13T11:12:29Z</time>
      </trkpt>
      <trkpt lat="42.51214" lon="-0.13178">
        <ele>855.7</ele>
        <time>2017-08-13T11:12:32Z</time>
      </trkpt>
      <trkpt lat="42.51211" lon="-0.13176">
        <ele>856.2</ele>
        <time>2017-08-13T11:12:34Z</time>
      </trkpt>
      <trkpt lat="42.51208" lon="-0.13173">
        <ele>855.8</ele>
        <time>2017-08-13T11:12:36Z</time>
      </trkpt>
      <trkpt lat="42.51205" lon="-0.13173">
        <ele>856.2</ele>
        <time>2017-08-13T11:12:38Z</time>
      </trkpt>
      <trkpt lat="42.51199" lon="-0.13175">
        <ele>857.9</ele>
        <time>2017-08-13T11:12:40Z</time>
      </trkpt>
      <trkpt lat="42.51195" lon="-0.13177">
        <ele>858.1</ele>
        <time>2017-08-13T11:12:41Z</time>
      </trkpt>
      <trkpt lat="42.51192" lon="-0.13177">
        <ele>858.3</ele>
        <time>2017-08-13T11:12:42Z</time>
      </trkpt>
      <trkpt lat="42.51189" lon="-0.13177">
        <ele>858.5</ele>
        <time>2017-08-13T11:12:43Z</time>
      </trkpt>
      <trkpt lat="42.51186" lon="-0.13174">
        <ele>857.5</ele>
        <time>2017-08-13T11:12:45Z</time>
      </trkpt>
      <trkpt lat="42.51181" lon="-0.13171">
        <ele>857.7</ele>
        <time>2017-08-13T11:12:47Z</time>
      </trkpt>
      <trkpt lat="42.51178" lon="-0.13169">
        <ele>856.7</ele>
        <time>2017-08-13T11:12:48Z</time>
      </trkpt>
      <trkpt lat="42.51175" lon="-0.13168">
        <ele>856.9</ele>
        <time>2017-08-13T11:12:49Z</time>
      </trkpt>
      <trkpt lat="42.51172" lon="-0.13166">
        <ele>855.8</ele>
        <time>2017-08-13T11:12:50Z</time>
      </trkpt>
      <trkpt lat="42.51169" lon="-0.13165">
        <ele>855.8</ele>
        <time>2017-08-13T11:12:51Z</time>
      </trkpt>
      <trkpt lat="42.51165" lon="-0.13164">
        <ele>855.8</ele>
        <time>2017-08-13T11:12:52Z</time>
      </trkpt>
      <trkpt lat="42.51161" lon="-0.13163">
        <ele>855.6</ele>
        <time>2017-08-13T11:12:53Z</time>
      </trkpt>
      <trkpt lat="42.51157" lon="-0.13162">
        <ele>854.2</ele>
        <time>2017-08-13T11:12:54Z</time>
      </trkpt>
      <trkpt lat="42.51153" lon="-0.13162">
        <ele>854.1</ele>
        <time>2017-08-13T11:12:55Z</time>
      </trkpt>
      <trkpt lat="42.51149" lon="-0.13162">
        <ele>854</ele>
        <time>2017-08-13T11:12:56Z</time>
      </trkpt>
      <trkpt lat="42.51145" lon="-0.13162">
        <ele>855.4</ele>
        <time>2017-08-13T11:12:57Z</time>
      </trkpt>
      <trkpt lat="42.51142" lon="-0.13162">
        <ele>855.4</ele>
        <time>2017-08-13T11:12:58Z</time>
      </trkpt>
      <trkpt lat="42.51138" lon="-0.13162">
        <ele>853.7</ele>
        <time>2017-08-13T11:12:59Z</time>
      </trkpt>
      <trkpt lat="42.51135" lon="-0.1316">
        <ele>853.7</ele>
        <time>2017-08-13T11:13:00Z</time>
      </trkpt>
      <trkpt lat="42.51131" lon="-0.13158">
        <ele>853.6</ele>
        <time>2017-08-13T11:13:01Z</time>
      </trkpt>
      <trkpt lat="42.51128" lon="-0.13156">
        <ele>851.7</ele>
        <time>2017-08-13T11:13:02Z</time>
      </trkpt>
      <trkpt lat="42.51125" lon="-0.13155">
        <ele>851.6</ele>
        <time>2017-08-13T11:13:03Z</time>
      </trkpt>
      <trkpt lat="42.51122" lon="-0.13153">
        <ele>849.5</ele>
        <time>2017-08-13T11:13:04Z</time>
      </trkpt>
      <trkpt lat="42.51119" lon="-0.13152">
        <ele>849.6</ele>
        <time>2017-08-13T11:13:05Z</time>
      </trkpt>
      <trkpt lat="42.51116" lon="-0.1315">
        <ele>849.7</ele>
        <time>2017-08-13T11:13:06Z</time>
      </trkpt>
      <trkpt lat="42.51113" lon="-0.13149">
        <ele>847.8</ele>
        <time>2017-08-13T11:13:07Z</time>
      </trkpt>
      <trkpt lat="42.5111" lon="-0.13147">
        <ele>848</ele>
        <time>2017-08-13T11:13:08Z</time>
      </trkpt>
      <trkpt lat="42.51107" lon="-0.13145">
        <ele>848.4</ele>
        <time>2017-08-13T11:13:09Z</time>
      </trkpt>
      <trkpt lat="42.51104" lon="-0.13143">
        <ele>847.1</ele>
        <time>2017-08-13T11:13:10Z</time>
      </trkpt>
      <trkpt lat="42.51101" lon="-0.13142">
        <ele>847.7</ele>
        <time>2017-08-13T11:13:11Z</time>
      </trkpt>
      <trkpt lat="42.51097" lon="-0.1314">
        <ele>846.9</ele>
        <time>2017-08-13T11:13:12Z</time>
      </trkpt>
      <trkpt lat="42.51094" lon="-0.1314">
        <ele>847.6</ele>
        <time>2017-08-13T11:13:13Z</time>
      </trkpt>
      <trkpt lat="42.5109" lon="-0.13139">
        <ele>848.3</ele>
        <time>2017-08-13T11:13:14Z</time>
      </trkpt>
      <trkpt lat="42.51087" lon="-0.13139">
        <ele>848.9</ele>
        <time>2017-08-13T11:13:15Z</time>
      </trkpt>
      <trkpt lat="42.51084" lon="-0.1314">
        <ele>849.5</ele>
        <time>2017-08-13T11:13:16Z</time>
      </trkpt>
      <trkpt lat="42.51081" lon="-0.1314">
        <ele>850.1</ele>
        <time>2017-08-13T11:13:17Z</time>
      </trkpt>
      <trkpt lat="42.51078" lon="-0.1314">
        <ele>850.6</ele>
        <time>2017-08-13T11:13:18Z</time>
      </trkpt>
      <trkpt lat="42.51075" lon="-0.1314">
        <ele>851.1</ele>
        <time>2017-08-13T11:13:19Z</time>
      </trkpt>
      <trkpt lat="42.51072" lon="-0.13139">
        <ele>851.5</ele>
        <time>2017-08-13T11:13:20Z</time>
      </trkpt>
      <trkpt lat="42.51069" lon="-0.13139">
        <ele>851.9</ele>
        <time>2017-08-13T11:13:21Z</time>
      </trkpt>
      <trkpt lat="42.51065" lon="-0.13139">
        <ele>852.3</ele>
        <time>2017-08-13T11:13:22Z</time>
      </trkpt>
      <trkpt lat="42.51062" lon="-0.13138">
        <ele>852.7</ele>
        <time>2017-08-13T11:13:23Z</time>
      </trkpt>
      <trkpt lat="42.51059" lon="-0.13136">
        <ele>851.9</ele>
        <time>2017-08-13T11:13:24Z</time>
      </trkpt>
      <trkpt lat="42.51056" lon="-0.13135">
        <ele>852.3</ele>
        <time>2017-08-13T11:13:25Z</time>
      </trkpt>
      <trkpt lat="42.51053" lon="-0.13134">
        <ele>852.7</ele>
        <time>2017-08-13T11:13:26Z</time>
      </trkpt>
      <trkpt lat="42.51048" lon="-0.13133">
        <ele>853.2</ele>
        <time>2017-08-13T11:13:28Z</time>
      </trkpt>
      <trkpt lat="42.51045" lon="-0.13131">
        <ele>852.6</ele>
        <time>2017-08-13T11:13:30Z</time>
      </trkpt>
      <trkpt lat="42.5104" lon="-0.13129">
        <ele>853</ele>
        <time>2017-08-13T11:13:32Z</time>
      </trkpt>
      <trkpt lat="42.51037" lon="-0.13128">
        <ele>851.5</ele>
        <time>2017-08-13T11:13:33Z</time>
      </trkpt>
      <trkpt lat="42.51034" lon="-0.13127">
        <ele>851.8</ele>
        <time>2017-08-13T11:13:34Z</time>
      </trkpt>
      <trkpt lat="42.51031" lon="-0.13126">
        <ele>852.1</ele>
        <time>2017-08-13T11:13:35Z</time>
      </trkpt>
      <trkpt lat="42.51028" lon="-0.13125">
        <ele>852.4</ele>
        <time>2017-08-13T11:13:36Z</time>
      </trkpt>
      <trkpt lat="42.51024" lon="-0.13123">
        <ele>850.6</ele>
        <time>2017-08-13T11:13:38Z</time>
      </trkpt>
      <trkpt lat="42.51019" lon="-0.1312">
        <ele>851.4</ele>
        <time>2017-08-13T11:13:40Z</time>
      </trkpt>
      <trkpt lat="42.51015" lon="-0.13117">
        <ele>849.9</ele>
        <time>2017-08-13T11:13:42Z</time>
      </trkpt>
      <trkpt lat="42.51012" lon="-0.13114">
        <ele>848.7</ele>
        <time>2017-08-13T11:13:43Z</time>
      </trkpt>
      <trkpt lat="42.5101" lon="-0.13112">
        <ele>849.2</ele>
        <time>2017-08-13T11:13:44Z</time>
      </trkpt>
      <trkpt lat="42.51008" lon="-0.1311">
        <ele>847.5</ele>
        <time>2017-08-13T11:13:45Z</time>
      </trkpt>
      <trkpt lat="42.51005" lon="-0.13107">
        <ele>847.9</ele>
        <time>2017-08-13T11:13:46Z</time>
      </trkpt>
      <trkpt lat="42.51003" lon="-0.13105">
        <ele>846.3</ele>
        <time>2017-08-13T11:13:47Z</time>
      </trkpt>
      <trkpt lat="42.51" lon="-0.13102">
        <ele>846.5</ele>
        <time>2017-08-13T11:13:48Z</time>
      </trkpt>
      <trkpt lat="42.50996" lon="-0.131">
        <ele>844.4</ele>
        <time>2017-08-13T11:13:49Z</time>
      </trkpt>
      <trkpt lat="42.50994" lon="-0.13097">
        <ele>842.3</ele>
        <time>2017-08-13T11:13:50Z</time>
      </trkpt>
      <trkpt lat="42.50991" lon="-0.13094">
        <ele>842.5</ele>
        <time>2017-08-13T11:13:51Z</time>
      </trkpt>
      <trkpt lat="42.50988" lon="-0.13092">
        <ele>840.8</ele>
        <time>2017-08-13T11:13:52Z</time>
      </trkpt>
      <trkpt lat="42.50985" lon="-0.13089">
        <ele>838.9</ele>
        <time>2017-08-13T11:13:53Z</time>
      </trkpt>
      <trkpt lat="42.50983" lon="-0.13085">
        <ele>839.3</ele>
        <time>2017-08-13T11:13:54Z</time>
      </trkpt>
      <trkpt lat="42.50981" lon="-0.13082">
        <ele>838.2</ele>
        <time>2017-08-13T11:13:55Z</time>
      </trkpt>
      <trkpt lat="42.50978" lon="-0.13079">
        <ele>837.2</ele>
        <time>2017-08-13T11:13:56Z</time>
      </trkpt>
      <trkpt lat="42.50977" lon="-0.13076">
        <ele>835.6</ele>
        <time>2017-08-13T11:13:57Z</time>
      </trkpt>
      <trkpt lat="42.50974" lon="-0.1307">
        <ele>834.3</ele>
        <time>2017-08-13T11:13:59Z</time>
      </trkpt>
      <trkpt lat="42.50973" lon="-0.13066">
        <ele>832.6</ele>
        <time>2017-08-13T11:14:00Z</time>
      </trkpt>
      <trkpt lat="42.50973" lon="-0.13063">
        <ele>830.9</ele>
        <time>2017-08-13T11:14:01Z</time>
      </trkpt>
      <trkpt lat="42.50971" lon="-0.13056">
        <ele>829.7</ele>
        <time>2017-08-13T11:14:03Z</time>
      </trkpt>
      <trkpt lat="42.5097" lon="-0.1305">
        <ele>826.6</ele>
        <time>2017-08-13T11:14:05Z</time>
      </trkpt>
      <trkpt lat="42.50968" lon="-0.13044">
        <ele>825.4</ele>
        <time>2017-08-13T11:14:07Z</time>
      </trkpt>
      <trkpt lat="42.50966" lon="-0.1304">
        <ele>823.6</ele>
        <time>2017-08-13T11:14:09Z</time>
      </trkpt>
      <trkpt lat="42.50963" lon="-0.13037">
        <ele>822.7</ele>
        <time>2017-08-13T11:14:11Z</time>
      </trkpt>
      <trkpt lat="42.5096" lon="-0.13034">
        <ele>823.4</ele>
        <time>2017-08-13T11:14:14Z</time>
      </trkpt>
      <trkpt lat="42.50958" lon="-0.13031">
        <ele>822.8</ele>
        <time>2017-08-13T11:14:17Z</time>
      </trkpt>
      <trkpt lat="42.50955" lon="-0.13029">
        <ele>822.4</ele>
        <time>2017-08-13T11:14:24Z</time>
      </trkpt>
      <trkpt lat="42.50952" lon="-0.13028">
        <ele>823.2</ele>
        <time>2017-08-13T11:14:37Z</time>
      </trkpt>
      <trkpt lat="42.50948" lon="-0.13032">
        <ele>824.9</ele>
        <time>2017-08-13T11:14:39Z</time>
      </trkpt>
      <trkpt lat="42.50946" lon="-0.13035">
        <ele>826.7</ele>
        <time>2017-08-13T11:14:40Z</time>
      </trkpt>
      <trkpt lat="42.50944" lon="-0.13038">
        <ele>828</ele>
        <time>2017-08-13T11:14:41Z</time>
      </trkpt>
      <trkpt lat="42.50941" lon="-0.13041">
        <ele>828.5</ele>
        <time>2017-08-13T11:14:42Z</time>
      </trkpt>
      <trkpt lat="42.50938" lon="-0.13042">
        <ele>828.9</ele>
        <time>2017-08-13T11:14:43Z</time>
      </trkpt>
      <trkpt lat="42.50935" lon="-0.13041">
        <ele>829.3</ele>
        <time>2017-08-13T11:14:44Z</time>
      </trkpt>
      <trkpt lat="42.50932" lon="-0.13038">
        <ele>829.8</ele>
        <time>2017-08-13T11:14:46Z</time>
      </trkpt>
      <trkpt lat="42.50932" lon="-0.13031">
        <ele>827.6</ele>
        <time>2017-08-13T11:14:48Z</time>
      </trkpt>
      <trkpt lat="42.50932" lon="-0.13027">
        <ele>826.7</ele>
        <time>2017-08-13T11:14:49Z</time>
      </trkpt>
      <trkpt lat="42.50932" lon="-0.13021">
        <ele>825.7</ele>
        <time>2017-08-13T11:14:50Z</time>
      </trkpt>
      <trkpt lat="42.50932" lon="-0.13016">
        <ele>823.6</ele>
        <time>2017-08-13T11:14:51Z</time>
      </trkpt>
      <trkpt lat="42.50932" lon="-0.1301">
        <ele>822.6</ele>
        <time>2017-08-13T11:14:52Z</time>
      </trkpt>
      <trkpt lat="42.5093" lon="-0.13005">
        <ele>822.3</ele>
        <time>2017-08-13T11:14:53Z</time>
      </trkpt>
      <trkpt lat="42.50928" lon="-0.13">
        <ele>822.1</ele>
        <time>2017-08-13T11:14:54Z</time>
      </trkpt>
      <trkpt lat="42.50925" lon="-0.12997">
        <ele>821.3</ele>
        <time>2017-08-13T11:14:55Z</time>
      </trkpt>
      <trkpt lat="42.50922" lon="-0.12995">
        <ele>821.2</ele>
        <time>2017-08-13T11:14:56Z</time>
      </trkpt>
      <trkpt lat="42.50917" lon="-0.12994">
        <ele>821.6</ele>
        <time>2017-08-13T11:14:57Z</time>
      </trkpt>
      <trkpt lat="42.50913" lon="-0.12994">
        <ele>822</ele>
        <time>2017-08-13T11:14:58Z</time>
      </trkpt>
      <trkpt lat="42.5091" lon="-0.12994">
        <ele>822.4</ele>
        <time>2017-08-13T11:14:59Z</time>
      </trkpt>
      <trkpt lat="42.50906" lon="-0.12994">
        <ele>822.9</ele>
        <time>2017-08-13T11:15:00Z</time>
      </trkpt>
      <trkpt lat="42.50903" lon="-0.12993">
        <ele>823.4</ele>
        <time>2017-08-13T11:15:01Z</time>
      </trkpt>
      <trkpt lat="42.50901" lon="-0.1299">
        <ele>822.3</ele>
        <time>2017-08-13T11:15:02Z</time>
      </trkpt>
      <trkpt lat="42.50901" lon="-0.12986">
        <ele>820.5</ele>
        <time>2017-08-13T11:15:03Z</time>
      </trkpt>
      <trkpt lat="42.50901" lon="-0.12981">
        <ele>818.7</ele>
        <time>2017-08-13T11:15:04Z</time>
      </trkpt>
      <trkpt lat="42.50902" lon="-0.12976">
        <ele>817.1</ele>
        <time>2017-08-13T11:15:05Z</time>
      </trkpt>
      <trkpt lat="42.50905" lon="-0.12971">
        <ele>815.4</ele>
        <time>2017-08-13T11:15:06Z</time>
      </trkpt>
      <trkpt lat="42.50908" lon="-0.12967">
        <ele>814</ele>
        <time>2017-08-13T11:15:07Z</time>
      </trkpt>
      <trkpt lat="42.50912" lon="-0.12963">
        <ele>812.7</ele>
        <time>2017-08-13T11:15:08Z</time>
      </trkpt>
      <trkpt lat="42.50914" lon="-0.1296">
        <ele>811.5</ele>
        <time>2017-08-13T11:15:09Z</time>
      </trkpt>
      <trkpt lat="42.50918" lon="-0.12957">
        <ele>811.7</ele>
        <time>2017-08-13T11:15:11Z</time>
      </trkpt>
      <trkpt lat="42.50919" lon="-0.12952">
        <ele>810.7</ele>
        <time>2017-08-13T11:15:14Z</time>
      </trkpt>
      <trkpt lat="42.50915" lon="-0.12948">
        <ele>809.2</ele>
        <time>2017-08-13T11:15:16Z</time>
      </trkpt>
      <trkpt lat="42.50911" lon="-0.12947">
        <ele>807.9</ele>
        <time>2017-08-13T11:15:17Z</time>
      </trkpt>
      <trkpt lat="42.50907" lon="-0.12945">
        <ele>807.6</ele>
        <time>2017-08-13T11:15:18Z</time>
      </trkpt>
      <trkpt lat="42.50904" lon="-0.12944">
        <ele>807.3</ele>
        <time>2017-08-13T11:15:19Z</time>
      </trkpt>
      <trkpt lat="42.50901" lon="-0.12942">
        <ele>806</ele>
        <time>2017-08-13T11:15:20Z</time>
      </trkpt>
      <trkpt lat="42.50899" lon="-0.1294">
        <ele>805.8</ele>
        <time>2017-08-13T11:15:21Z</time>
      </trkpt>
      <trkpt lat="42.50896" lon="-0.12937">
        <ele>804.4</ele>
        <time>2017-08-13T11:15:22Z</time>
      </trkpt>
      <trkpt lat="42.50894" lon="-0.12935">
        <ele>804.4</ele>
        <time>2017-08-13T11:15:23Z</time>
      </trkpt>
      <trkpt lat="42.5089" lon="-0.12932">
        <ele>803.1</ele>
        <time>2017-08-13T11:15:25Z</time>
      </trkpt>
      <trkpt lat="42.50887" lon="-0.1293">
        <ele>802</ele>
        <time>2017-08-13T11:15:26Z</time>
      </trkpt>
      <trkpt lat="42.50883" lon="-0.12928">
        <ele>802</ele>
        <time>2017-08-13T11:15:27Z</time>
      </trkpt>
      <trkpt lat="42.5088" lon="-0.12926">
        <ele>801.1</ele>
        <time>2017-08-13T11:15:28Z</time>
      </trkpt>
      <trkpt lat="42.50876" lon="-0.12923">
        <ele>801.2</ele>
        <time>2017-08-13T11:15:29Z</time>
      </trkpt>
      <trkpt lat="42.50872" lon="-0.12921">
        <ele>800.5</ele>
        <time>2017-08-13T11:15:30Z</time>
      </trkpt>
      <trkpt lat="42.50869" lon="-0.12919">
        <ele>800.7</ele>
        <time>2017-08-13T11:15:31Z</time>
      </trkpt>
      <trkpt lat="42.50866" lon="-0.12917">
        <ele>800.1</ele>
        <time>2017-08-13T11:15:32Z</time>
      </trkpt>
      <trkpt lat="42.50863" lon="-0.12915">
        <ele>800.4</ele>
        <time>2017-08-13T11:15:33Z</time>
      </trkpt>
      <trkpt lat="42.50859" lon="-0.12912">
        <ele>799.8</ele>
        <time>2017-08-13T11:15:34Z</time>
      </trkpt>
      <trkpt lat="42.50856" lon="-0.12909">
        <ele>799.4</ele>
        <time>2017-08-13T11:15:35Z</time>
      </trkpt>
      <trkpt lat="42.50853" lon="-0.12906">
        <ele>799.9</ele>
        <time>2017-08-13T11:15:36Z</time>
      </trkpt>
      <trkpt lat="42.5085" lon="-0.12905">
        <ele>800.5</ele>
        <time>2017-08-13T11:15:37Z</time>
      </trkpt>
      <trkpt lat="42.50847" lon="-0.12905">
        <ele>801.1</ele>
        <time>2017-08-13T11:15:38Z</time>
      </trkpt>
      <trkpt lat="42.50843" lon="-0.12906">
        <ele>802.6</ele>
        <time>2017-08-13T11:15:39Z</time>
      </trkpt>
      <trkpt lat="42.50838" lon="-0.12907">
        <ele>803.4</ele>
        <time>2017-08-13T11:15:40Z</time>
      </trkpt>
      <trkpt lat="42.50834" lon="-0.12908">
        <ele>804.1</ele>
        <time>2017-08-13T11:15:41Z</time>
      </trkpt>
      <trkpt lat="42.5083" lon="-0.12908">
        <ele>805.5</ele>
        <time>2017-08-13T11:15:42Z</time>
      </trkpt>
      <trkpt lat="42.50826" lon="-0.12907">
        <ele>806.2</ele>
        <time>2017-08-13T11:15:43Z</time>
      </trkpt>
      <trkpt lat="42.50823" lon="-0.12904">
        <ele>805.7</ele>
        <time>2017-08-13T11:15:44Z</time>
      </trkpt>
      <trkpt lat="42.5082" lon="-0.12901">
        <ele>806.5</ele>
        <time>2017-08-13T11:15:45Z</time>
      </trkpt>
      <trkpt lat="42.50818" lon="-0.12898">
        <ele>805.2</ele>
        <time>2017-08-13T11:15:46Z</time>
      </trkpt>
      <trkpt lat="42.50815" lon="-0.12895">
        <ele>804.6</ele>
        <time>2017-08-13T11:15:47Z</time>
      </trkpt>
      <trkpt lat="42.50813" lon="-0.12892">
        <ele>804</ele>
        <time>2017-08-13T11:15:48Z</time>
      </trkpt>
      <trkpt lat="42.5081" lon="-0.12889">
        <ele>804.3</ele>
        <time>2017-08-13T11:15:49Z</time>
      </trkpt>
      <trkpt lat="42.50808" lon="-0.12887">
        <ele>803.5</ele>
        <time>2017-08-13T11:15:50Z</time>
      </trkpt>
      <trkpt lat="42.50804" lon="-0.12886">
        <ele>803.6</ele>
        <time>2017-08-13T11:15:51Z</time>
      </trkpt>
      <trkpt lat="42.508" lon="-0.12884">
        <ele>803.9</ele>
        <time>2017-08-13T11:15:52Z</time>
      </trkpt>
      <trkpt lat="42.50797" lon="-0.12883">
        <ele>802.9</ele>
        <time>2017-08-13T11:15:53Z</time>
      </trkpt>
      <trkpt lat="42.50793" lon="-0.12881">
        <ele>803.3</ele>
        <time>2017-08-13T11:15:54Z</time>
      </trkpt>
      <trkpt lat="42.5079" lon="-0.1288">
        <ele>803.8</ele>
        <time>2017-08-13T11:15:55Z</time>
      </trkpt>
      <trkpt lat="42.50788" lon="-0.12879">
        <ele>802.9</ele>
        <time>2017-08-13T11:15:56Z</time>
      </trkpt>
      <trkpt lat="42.50785" lon="-0.12877">
        <ele>803.5</ele>
        <time>2017-08-13T11:15:57Z</time>
      </trkpt>
      <trkpt lat="42.50782" lon="-0.12874">
        <ele>802.6</ele>
        <time>2017-08-13T11:15:58Z</time>
      </trkpt>
      <trkpt lat="42.50779" lon="-0.12871">
        <ele>803.1</ele>
        <time>2017-08-13T11:15:59Z</time>
      </trkpt>
      <trkpt lat="42.50775" lon="-0.12868">
        <ele>802.1</ele>
        <time>2017-08-13T11:16:00Z</time>
      </trkpt>
      <trkpt lat="42.50771" lon="-0.12866">
        <ele>802.8</ele>
        <time>2017-08-13T11:16:01Z</time>
      </trkpt>
      <trkpt lat="42.50768" lon="-0.12865">
        <ele>801.8</ele>
        <time>2017-08-13T11:16:02Z</time>
      </trkpt>
      <trkpt lat="42.50763" lon="-0.12864">
        <ele>803.6</ele>
        <time>2017-08-13T11:16:04Z</time>
      </trkpt>
      <trkpt lat="42.50759" lon="-0.1286">
        <ele>802.4</ele>
        <time>2017-08-13T11:16:06Z</time>
      </trkpt>
      <trkpt lat="42.50756" lon="-0.12858">
        <ele>803.3</ele>
        <time>2017-08-13T11:16:07Z</time>
      </trkpt>
      <trkpt lat="42.50753" lon="-0.12856">
        <ele>801.6</ele>
        <time>2017-08-13T11:16:08Z</time>
      </trkpt>
      <trkpt lat="42.5075" lon="-0.12854">
        <ele>802.5</ele>
        <time>2017-08-13T11:16:09Z</time>
      </trkpt>
      <trkpt lat="42.50748" lon="-0.12852">
        <ele>800.3</ele>
        <time>2017-08-13T11:16:10Z</time>
      </trkpt>
      <trkpt lat="42.50743" lon="-0.12851">
        <ele>801.5</ele>
        <time>2017-08-13T11:16:12Z</time>
      </trkpt>
      <trkpt lat="42.50738" lon="-0.12849">
        <ele>804.7</ele>
        <time>2017-08-13T11:16:14Z</time>
      </trkpt>
      <trkpt lat="42.50735" lon="-0.12847">
        <ele>801.3</ele>
        <time>2017-08-13T11:16:15Z</time>
      </trkpt>
      <trkpt lat="42.50733" lon="-0.12843">
        <ele>800.2</ele>
        <time>2017-08-13T11:16:16Z</time>
      </trkpt>
      <trkpt lat="42.50731" lon="-0.12837">
        <ele>799.9</ele>
        <time>2017-08-13T11:16:17Z</time>
      </trkpt>
      <trkpt lat="42.5073" lon="-0.12832">
        <ele>798.2</ele>
        <time>2017-08-13T11:16:18Z</time>
      </trkpt>
      <trkpt lat="42.50728" lon="-0.12828">
        <ele>799.4</ele>
        <time>2017-08-13T11:16:19Z</time>
      </trkpt>
      <trkpt lat="42.50727" lon="-0.12825">
        <ele>798.7</ele>
        <time>2017-08-13T11:16:20Z</time>
      </trkpt>
      <trkpt lat="42.50724" lon="-0.12821">
        <ele>800.5</ele>
        <time>2017-08-13T11:16:22Z</time>
      </trkpt>
      <trkpt lat="42.50722" lon="-0.12817">
        <ele>802.2</ele>
        <time>2017-08-13T11:16:24Z</time>
      </trkpt>
      <trkpt lat="42.5072" lon="-0.12813">
        <ele>801.7</ele>
        <time>2017-08-13T11:16:26Z</time>
      </trkpt>
      <trkpt lat="42.50718" lon="-0.1281">
        <ele>802.9</ele>
        <time>2017-08-13T11:16:28Z</time>
      </trkpt>
      <trkpt lat="42.50714" lon="-0.12806">
        <ele>803.8</ele>
        <time>2017-08-13T11:16:30Z</time>
      </trkpt>
      <trkpt lat="42.50712" lon="-0.12803">
        <ele>805.7</ele>
        <time>2017-08-13T11:16:31Z</time>
      </trkpt>
      <trkpt lat="42.5071" lon="-0.128">
        <ele>804.1</ele>
        <time>2017-08-13T11:16:32Z</time>
      </trkpt>
      <trkpt lat="42.50709" lon="-0.12797">
        <ele>804.1</ele>
        <time>2017-08-13T11:16:33Z</time>
      </trkpt>
      <trkpt lat="42.50707" lon="-0.12793">
        <ele>804.1</ele>
        <time>2017-08-13T11:16:34Z</time>
      </trkpt>
      <trkpt lat="42.50705" lon="-0.1279">
        <ele>804</ele>
        <time>2017-08-13T11:16:35Z</time>
      </trkpt>
      <trkpt lat="42.50703" lon="-0.12787">
        <ele>803.9</ele>
        <time>2017-08-13T11:16:36Z</time>
      </trkpt>
      <trkpt lat="42.507" lon="-0.12784">
        <ele>801.5</ele>
        <time>2017-08-13T11:16:37Z</time>
      </trkpt>
      <trkpt lat="42.50698" lon="-0.12782">
        <ele>803.7</ele>
        <time>2017-08-13T11:16:38Z</time>
      </trkpt>
      <trkpt lat="42.50694" lon="-0.12778">
        <ele>803.1</ele>
        <time>2017-08-13T11:16:40Z</time>
      </trkpt>
      <trkpt lat="42.50691" lon="-0.12776">
        <ele>802</ele>
        <time>2017-08-13T11:16:41Z</time>
      </trkpt>
      <trkpt lat="42.50687" lon="-0.12773">
        <ele>805.4</ele>
        <time>2017-08-13T11:16:42Z</time>
      </trkpt>
      <trkpt lat="42.50683" lon="-0.1277">
        <ele>803.5</ele>
        <time>2017-08-13T11:16:43Z</time>
      </trkpt>
      <trkpt lat="42.50679" lon="-0.12767">
        <ele>801.3</ele>
        <time>2017-08-13T11:16:44Z</time>
      </trkpt>
      <trkpt lat="42.50676" lon="-0.12764">
        <ele>803.1</ele>
        <time>2017-08-13T11:16:45Z</time>
      </trkpt>
      <trkpt lat="42.50673" lon="-0.1276">
        <ele>800.9</ele>
        <time>2017-08-13T11:16:46Z</time>
      </trkpt>
      <trkpt lat="42.5067" lon="-0.12756">
        <ele>799.1</ele>
        <time>2017-08-13T11:16:47Z</time>
      </trkpt>
      <trkpt lat="42.50667" lon="-0.12753">
        <ele>797.7</ele>
        <time>2017-08-13T11:16:48Z</time>
      </trkpt>
      <trkpt lat="42.50664" lon="-0.1275">
        <ele>799.2</ele>
        <time>2017-08-13T11:16:49Z</time>
      </trkpt>
      <trkpt lat="42.50662" lon="-0.12748">
        <ele>797.9</ele>
        <time>2017-08-13T11:16:50Z</time>
      </trkpt>
      <trkpt lat="42.50659" lon="-0.12745">
        <ele>796.6</ele>
        <time>2017-08-13T11:16:51Z</time>
      </trkpt>
      <trkpt lat="42.50656" lon="-0.12742">
        <ele>798.1</ele>
        <time>2017-08-13T11:16:52Z</time>
      </trkpt>
      <trkpt lat="42.50653" lon="-0.12739">
        <ele>795.2</ele>
        <time>2017-08-13T11:16:53Z</time>
      </trkpt>
      <trkpt lat="42.5065" lon="-0.12737">
        <ele>793.9</ele>
        <time>2017-08-13T11:16:54Z</time>
      </trkpt>
      <trkpt lat="42.50648" lon="-0.12735">
        <ele>795.2</ele>
        <time>2017-08-13T11:16:55Z</time>
      </trkpt>
      <trkpt lat="42.50643" lon="-0.12732">
        <ele>794.2</ele>
        <time>2017-08-13T11:16:57Z</time>
      </trkpt>
      <trkpt lat="42.50639" lon="-0.12729">
        <ele>797.1</ele>
        <time>2017-08-13T11:16:59Z</time>
      </trkpt>
      <trkpt lat="42.50636" lon="-0.12726">
        <ele>797</ele>
        <time>2017-08-13T11:17:01Z</time>
      </trkpt>
      <trkpt lat="42.50633" lon="-0.12722">
        <ele>797.9</ele>
        <time>2017-08-13T11:17:03Z</time>
      </trkpt>
      <trkpt lat="42.5063" lon="-0.12718">
        <ele>799.5</ele>
        <time>2017-08-13T11:17:05Z</time>
      </trkpt>
      <trkpt lat="42.50627" lon="-0.12716">
        <ele>801.2</ele>
        <time>2017-08-13T11:17:07Z</time>
      </trkpt>
      <trkpt lat="42.50624" lon="-0.12714">
        <ele>803.5</ele>
        <time>2017-08-13T11:17:09Z</time>
      </trkpt>
      <trkpt lat="42.5062" lon="-0.12712">
        <ele>805.8</ele>
        <time>2017-08-13T11:17:11Z</time>
      </trkpt>
      <trkpt lat="42.50616" lon="-0.12711">
        <ele>807</ele>
        <time>2017-08-13T11:17:13Z</time>
      </trkpt>
      <trkpt lat="42.50612" lon="-0.12711">
        <ele>808.7</ele>
        <time>2017-08-13T11:17:15Z</time>
      </trkpt>
      <trkpt lat="42.5061" lon="-0.1271">
        <ele>810.3</ele>
        <time>2017-08-13T11:17:30Z</time>
      </trkpt>
      <trkpt lat="42.50607" lon="-0.12709">
        <ele>811.7</ele>
        <time>2017-08-13T11:17:47Z</time>
      </trkpt>
      <trkpt lat="42.50603" lon="-0.12708">
        <ele>813.1</ele>
        <time>2017-08-13T11:17:59Z</time>
      </trkpt>
      <trkpt lat="42.506" lon="-0.12707">
        <ele>814.4</ele>
        <time>2017-08-13T11:18:04Z</time>
      </trkpt>
      <trkpt lat="42.50597" lon="-0.12706">
        <ele>814.3</ele>
        <time>2017-08-13T11:18:09Z</time>
      </trkpt>
      <trkpt lat="42.50595" lon="-0.12704">
        <ele>815.4</ele>
        <time>2017-08-13T11:18:14Z</time>
      </trkpt>
      <trkpt lat="42.5059" lon="-0.12701">
        <ele>815</ele>
        <time>2017-08-13T11:18:16Z</time>
      </trkpt>
      <trkpt lat="42.50588" lon="-0.12698">
        <ele>814.4</ele>
        <time>2017-08-13T11:18:17Z</time>
      </trkpt>
      <trkpt lat="42.50585" lon="-0.12695">
        <ele>815.2</ele>
        <time>2017-08-13T11:18:18Z</time>
      </trkpt>
      <trkpt lat="42.50582" lon="-0.12692">
        <ele>814.3</ele>
        <time>2017-08-13T11:18:19Z</time>
      </trkpt>
      <trkpt lat="42.5058" lon="-0.12688">
        <ele>812.9</ele>
        <time>2017-08-13T11:18:20Z</time>
      </trkpt>
      <trkpt lat="42.50577" lon="-0.12685">
        <ele>810.2</ele>
        <time>2017-08-13T11:18:21Z</time>
      </trkpt>
      <trkpt lat="42.50574" lon="-0.12682">
        <ele>811.2</ele>
        <time>2017-08-13T11:18:22Z</time>
      </trkpt>
      <trkpt lat="42.50571" lon="-0.12679">
        <ele>809.3</ele>
        <time>2017-08-13T11:18:23Z</time>
      </trkpt>
      <trkpt lat="42.50568" lon="-0.12677">
        <ele>807.4</ele>
        <time>2017-08-13T11:18:24Z</time>
      </trkpt>
      <trkpt lat="42.50565" lon="-0.12674">
        <ele>808.6</ele>
        <time>2017-08-13T11:18:25Z</time>
      </trkpt>
      <trkpt lat="42.50561" lon="-0.12669">
        <ele>808.4</ele>
        <time>2017-08-13T11:18:26Z</time>
      </trkpt>
      <trkpt lat="42.50557" lon="-0.12665">
        <ele>807.2</ele>
        <time>2017-08-13T11:18:27Z</time>
      </trkpt>
      <trkpt lat="42.50553" lon="-0.12661">
        <ele>806</ele>
        <time>2017-08-13T11:18:28Z</time>
      </trkpt>
      <trkpt lat="42.50549" lon="-0.12657">
        <ele>804.9</ele>
        <time>2017-08-13T11:18:29Z</time>
      </trkpt>
      <trkpt lat="42.50547" lon="-0.12653">
        <ele>803.8</ele>
        <time>2017-08-13T11:18:30Z</time>
      </trkpt>
      <trkpt lat="42.50545" lon="-0.12648">
        <ele>802.9</ele>
        <time>2017-08-13T11:18:31Z</time>
      </trkpt>
      <trkpt lat="42.50544" lon="-0.12644">
        <ele>800</ele>
        <time>2017-08-13T11:18:32Z</time>
      </trkpt>
      <trkpt lat="42.5054" lon="-0.12639">
        <ele>799.5</ele>
        <time>2017-08-13T11:18:34Z</time>
      </trkpt>
      <trkpt lat="42.50535" lon="-0.12637">
        <ele>801.5</ele>
        <time>2017-08-13T11:18:36Z</time>
      </trkpt>
      <trkpt lat="42.50532" lon="-0.12635">
        <ele>803.8</ele>
        <time>2017-08-13T11:18:37Z</time>
      </trkpt>
      <trkpt lat="42.50529" lon="-0.12631">
        <ele>803.6</ele>
        <time>2017-08-13T11:18:38Z</time>
      </trkpt>
      <trkpt lat="42.50526" lon="-0.12626">
        <ele>803.5</ele>
        <time>2017-08-13T11:18:39Z</time>
      </trkpt>
      <trkpt lat="42.50524" lon="-0.1262">
        <ele>798.7</ele>
        <time>2017-08-13T11:18:40Z</time>
      </trkpt>
      <trkpt lat="42.50521" lon="-0.12614">
        <ele>799.1</ele>
        <time>2017-08-13T11:18:41Z</time>
      </trkpt>
      <trkpt lat="42.50519" lon="-0.12608">
        <ele>797.5</ele>
        <time>2017-08-13T11:18:42Z</time>
      </trkpt>
      <trkpt lat="42.50517" lon="-0.12602">
        <ele>795</ele>
        <time>2017-08-13T11:18:43Z</time>
      </trkpt>
      <trkpt lat="42.50516" lon="-0.12596">
        <ele>795.2</ele>
        <time>2017-08-13T11:18:44Z</time>
      </trkpt>
      <trkpt lat="42.50514" lon="-0.1259">
        <ele>790.3</ele>
        <time>2017-08-13T11:18:45Z</time>
      </trkpt>
      <trkpt lat="42.50512" lon="-0.12583">
        <ele>790.6</ele>
        <time>2017-08-13T11:18:46Z</time>
      </trkpt>
      <trkpt lat="42.50509" lon="-0.12577">
        <ele>788.8</ele>
        <time>2017-08-13T11:18:47Z</time>
      </trkpt>
      <trkpt lat="42.50505" lon="-0.12572">
        <ele>788.7</ele>
        <time>2017-08-13T11:18:48Z</time>
      </trkpt>
      <trkpt lat="42.505" lon="-0.12567">
        <ele>790.5</ele>
        <time>2017-08-13T11:18:49Z</time>
      </trkpt>
      <trkpt lat="42.50495" lon="-0.12563">
        <ele>790.3</ele>
        <time>2017-08-13T11:18:50Z</time>
      </trkpt>
      <trkpt lat="42.5049" lon="-0.1256">
        <ele>792.8</ele>
        <time>2017-08-13T11:18:51Z</time>
      </trkpt>
      <trkpt lat="42.50486" lon="-0.12557">
        <ele>793.3</ele>
        <time>2017-08-13T11:18:52Z</time>
      </trkpt>
      <trkpt lat="42.50482" lon="-0.12552">
        <ele>796</ele>
        <time>2017-08-13T11:18:53Z</time>
      </trkpt>
      <trkpt lat="42.50478" lon="-0.12547">
        <ele>796.1</ele>
        <time>2017-08-13T11:18:54Z</time>
      </trkpt>
      <trkpt lat="42.50474" lon="-0.12541">
        <ele>796.1</ele>
        <time>2017-08-13T11:18:55Z</time>
      </trkpt>
      <trkpt lat="42.50471" lon="-0.12535">
        <ele>794.4</ele>
        <time>2017-08-13T11:18:56Z</time>
      </trkpt>
      <trkpt lat="42.50467" lon="-0.1253">
        <ele>794.8</ele>
        <time>2017-08-13T11:18:57Z</time>
      </trkpt>
      <trkpt lat="42.50464" lon="-0.12525">
        <ele>795.6</ele>
        <time>2017-08-13T11:18:58Z</time>
      </trkpt>
      <trkpt lat="42.50461" lon="-0.12522">
        <ele>796.3</ele>
        <time>2017-08-13T11:18:59Z</time>
      </trkpt>
      <trkpt lat="42.50457" lon="-0.12519">
        <ele>798.3</ele>
        <time>2017-08-13T11:19:00Z</time>
      </trkpt>
      <trkpt lat="42.50454" lon="-0.12515">
        <ele>798.9</ele>
        <time>2017-08-13T11:19:01Z</time>
      </trkpt>
      <trkpt lat="42.50452" lon="-0.12511">
        <ele>799.4</ele>
        <time>2017-08-13T11:19:02Z</time>
      </trkpt>
      <trkpt lat="42.5045" lon="-0.12505">
        <ele>798.5</ele>
        <time>2017-08-13T11:19:03Z</time>
      </trkpt>
      <trkpt lat="42.50449" lon="-0.12498">
        <ele>797.4</ele>
        <time>2017-08-13T11:19:04Z</time>
      </trkpt>
      <trkpt lat="42.50448" lon="-0.1249">
        <ele>795.1</ele>
        <time>2017-08-13T11:19:05Z</time>
      </trkpt>
      <trkpt lat="42.50447" lon="-0.12483">
        <ele>792.4</ele>
        <time>2017-08-13T11:19:06Z</time>
      </trkpt>
      <trkpt lat="42.50446" lon="-0.12476">
        <ele>792.7</ele>
        <time>2017-08-13T11:19:07Z</time>
      </trkpt>
      <trkpt lat="42.50446" lon="-0.12469">
        <ele>790.4</ele>
        <time>2017-08-13T11:19:08Z</time>
      </trkpt>
      <trkpt lat="42.50445" lon="-0.12462">
        <ele>787.9</ele>
        <time>2017-08-13T11:19:09Z</time>
      </trkpt>
      <trkpt lat="42.50444" lon="-0.12454">
        <ele>786.5</ele>
        <time>2017-08-13T11:19:10Z</time>
      </trkpt>
      <trkpt lat="42.50443" lon="-0.12447">
        <ele>785.2</ele>
        <time>2017-08-13T11:19:11Z</time>
      </trkpt>
      <trkpt lat="42.5044" lon="-0.12439">
        <ele>784.3</ele>
        <time>2017-08-13T11:19:12Z</time>
      </trkpt>
      <trkpt lat="42.50437" lon="-0.12432">
        <ele>783.4</ele>
        <time>2017-08-13T11:19:13Z</time>
      </trkpt>
      <trkpt lat="42.50433" lon="-0.12424">
        <ele>783.8</ele>
        <time>2017-08-13T11:19:14Z</time>
      </trkpt>
      <trkpt lat="42.5043" lon="-0.12416">
        <ele>783.6</ele>
        <time>2017-08-13T11:19:15Z</time>
      </trkpt>
      <trkpt lat="42.50426" lon="-0.12408">
        <ele>783.6</ele>
        <time>2017-08-13T11:19:16Z</time>
      </trkpt>
      <trkpt lat="42.50424" lon="-0.12399">
        <ele>782.8</ele>
        <time>2017-08-13T11:19:17Z</time>
      </trkpt>
      <trkpt lat="42.50423" lon="-0.12386">
        <ele>779.7</ele>
        <time>2017-08-13T11:19:18Z</time>
      </trkpt>
      <trkpt lat="42.50421" lon="-0.12377">
        <ele>778.8</ele>
        <time>2017-08-13T11:19:19Z</time>
      </trkpt>
      <trkpt lat="42.50419" lon="-0.12368">
        <ele>776.1</ele>
        <time>2017-08-13T11:19:20Z</time>
      </trkpt>
      <trkpt lat="42.50417" lon="-0.12359">
        <ele>775.9</ele>
        <time>2017-08-13T11:19:21Z</time>
      </trkpt>
      <trkpt lat="42.50416" lon="-0.12348">
        <ele>775</ele>
        <time>2017-08-13T11:19:22Z</time>
      </trkpt>
      <trkpt lat="42.50415" lon="-0.12339">
        <ele>775.5</ele>
        <time>2017-08-13T11:19:23Z</time>
      </trkpt>
      <trkpt lat="42.50413" lon="-0.12329">
        <ele>775.2</ele>
        <time>2017-08-13T11:19:24Z</time>
      </trkpt>
      <trkpt lat="42.5041" lon="-0.12321">
        <ele>776</ele>
        <time>2017-08-13T11:19:25Z</time>
      </trkpt>
      <trkpt lat="42.50406" lon="-0.12314">
        <ele>777.1</ele>
        <time>2017-08-13T11:19:26Z</time>
      </trkpt>
      <trkpt lat="42.50402" lon="-0.12306">
        <ele>776.8</ele>
        <time>2017-08-13T11:19:27Z</time>
      </trkpt>
      <trkpt lat="42.50399" lon="-0.12298">
        <ele>776.4</ele>
        <time>2017-08-13T11:19:28Z</time>
      </trkpt>
      <trkpt lat="42.50396" lon="-0.12291">
        <ele>776.5</ele>
        <time>2017-08-13T11:19:29Z</time>
      </trkpt>
      <trkpt lat="42.50393" lon="-0.12284">
        <ele>776.2</ele>
        <time>2017-08-13T11:19:30Z</time>
      </trkpt>
      <trkpt lat="42.50389" lon="-0.12279">
        <ele>776.4</ele>
        <time>2017-08-13T11:19:31Z</time>
      </trkpt>
      <trkpt lat="42.50385" lon="-0.12274">
        <ele>776.5</ele>
        <time>2017-08-13T11:19:32Z</time>
      </trkpt>
      <trkpt lat="42.50381" lon="-0.12268">
        <ele>776.6</ele>
        <time>2017-08-13T11:19:33Z</time>
      </trkpt>
      <trkpt lat="42.50377" lon="-0.12262">
        <ele>777.2</ele>
        <time>2017-08-13T11:19:34Z</time>
      </trkpt>
      <trkpt lat="42.50374" lon="-0.12257">
        <ele>776.8</ele>
        <time>2017-08-13T11:19:35Z</time>
      </trkpt>
      <trkpt lat="42.50371" lon="-0.12252">
        <ele>776.9</ele>
        <time>2017-08-13T11:19:36Z</time>
      </trkpt>
      <trkpt lat="42.50369" lon="-0.12246">
        <ele>776.3</ele>
        <time>2017-08-13T11:19:37Z</time>
      </trkpt>
      <trkpt lat="42.50367" lon="-0.12241">
        <ele>776.1</ele>
        <time>2017-08-13T11:19:38Z</time>
      </trkpt>
      <trkpt lat="42.50363" lon="-0.12237">
        <ele>775.6</ele>
        <time>2017-08-13T11:19:39Z</time>
      </trkpt>
      <trkpt lat="42.50361" lon="-0.12233">
        <ele>775</ele>
        <time>2017-08-13T11:19:40Z</time>
      </trkpt>
      <trkpt lat="42.50359" lon="-0.12229">
        <ele>773.9</ele>
        <time>2017-08-13T11:19:41Z</time>
      </trkpt>
      <trkpt lat="42.50357" lon="-0.12226">
        <ele>773.2</ele>
        <time>2017-08-13T11:19:42Z</time>
      </trkpt>
      <trkpt lat="42.50354" lon="-0.12222">
        <ele>772.7</ele>
        <time>2017-08-13T11:19:43Z</time>
      </trkpt>
      <trkpt lat="42.5035" lon="-0.12219">
        <ele>773.4</ele>
        <time>2017-08-13T11:19:44Z</time>
      </trkpt>
      <trkpt lat="42.50348" lon="-0.12216">
        <ele>773.2</ele>
        <time>2017-08-13T11:19:45Z</time>
      </trkpt>
      <trkpt lat="42.50344" lon="-0.12214">
        <ele>773.1</ele>
        <time>2017-08-13T11:19:47Z</time>
      </trkpt>
      <trkpt lat="42.5034" lon="-0.1221">
        <ele>774.1</ele>
        <time>2017-08-13T11:19:49Z</time>
      </trkpt>
      <trkpt lat="42.50337" lon="-0.12207">
        <ele>774.2</ele>
        <time>2017-08-13T11:19:50Z</time>
      </trkpt>
      <trkpt lat="42.50334" lon="-0.12204">
        <ele>774.5</ele>
        <time>2017-08-13T11:19:51Z</time>
      </trkpt>
      <trkpt lat="42.50331" lon="-0.122">
        <ele>774.9</ele>
        <time>2017-08-13T11:19:52Z</time>
      </trkpt>
      <trkpt lat="42.50328" lon="-0.12196">
        <ele>775.3</ele>
        <time>2017-08-13T11:19:53Z</time>
      </trkpt>
      <trkpt lat="42.50325" lon="-0.1219">
        <ele>775.8</ele>
        <time>2017-08-13T11:19:54Z</time>
      </trkpt>
      <trkpt lat="42.50322" lon="-0.12186">
        <ele>776.2</ele>
        <time>2017-08-13T11:19:55Z</time>
      </trkpt>
      <trkpt lat="42.50318" lon="-0.12182">
        <ele>776.5</ele>
        <time>2017-08-13T11:19:56Z</time>
      </trkpt>
      <trkpt lat="42.50315" lon="-0.12177">
        <ele>776.8</ele>
        <time>2017-08-13T11:19:57Z</time>
      </trkpt>
      <trkpt lat="42.50311" lon="-0.12172">
        <ele>777</ele>
        <time>2017-08-13T11:19:58Z</time>
      </trkpt>
      <trkpt lat="42.50308" lon="-0.12168">
        <ele>777.9</ele>
        <time>2017-08-13T11:19:59Z</time>
      </trkpt>
      <trkpt lat="42.50304" lon="-0.12163">
        <ele>777.7</ele>
        <time>2017-08-13T11:20:00Z</time>
      </trkpt>
      <trkpt lat="42.50301" lon="-0.12159">
        <ele>777.3</ele>
        <time>2017-08-13T11:20:01Z</time>
      </trkpt>
      <trkpt lat="42.50298" lon="-0.12154">
        <ele>776.6</ele>
        <time>2017-08-13T11:20:02Z</time>
      </trkpt>
      <trkpt lat="42.50295" lon="-0.12151">
        <ele>775.8</ele>
        <time>2017-08-13T11:20:03Z</time>
      </trkpt>
      <trkpt lat="42.50291" lon="-0.12148">
        <ele>775</ele>
        <time>2017-08-13T11:20:04Z</time>
      </trkpt>
      <trkpt lat="42.50289" lon="-0.12144">
        <ele>773.5</ele>
        <time>2017-08-13T11:20:05Z</time>
      </trkpt>
      <trkpt lat="42.50287" lon="-0.12141">
        <ele>774.3</ele>
        <time>2017-08-13T11:20:06Z</time>
      </trkpt>
      <trkpt lat="42.50284" lon="-0.12137">
        <ele>773.7</ele>
        <time>2017-08-13T11:20:07Z</time>
      </trkpt>
      <trkpt lat="42.5028" lon="-0.12134">
        <ele>773.1</ele>
        <time>2017-08-13T11:20:08Z</time>
      </trkpt>
      <trkpt lat="42.50277" lon="-0.12129">
        <ele>772.5</ele>
        <time>2017-08-13T11:20:09Z</time>
      </trkpt>
      <trkpt lat="42.50274" lon="-0.12124">
        <ele>771.9</ele>
        <time>2017-08-13T11:20:10Z</time>
      </trkpt>
      <trkpt lat="42.50271" lon="-0.1212">
        <ele>771.5</ele>
        <time>2017-08-13T11:20:11Z</time>
      </trkpt>
      <trkpt lat="42.50267" lon="-0.12115">
        <ele>771.4</ele>
        <time>2017-08-13T11:20:12Z</time>
      </trkpt>
      <trkpt lat="42.50263" lon="-0.1211">
        <ele>772</ele>
        <time>2017-08-13T11:20:13Z</time>
      </trkpt>
      <trkpt lat="42.5026" lon="-0.12105">
        <ele>772.5</ele>
        <time>2017-08-13T11:20:14Z</time>
      </trkpt>
      <trkpt lat="42.50256" lon="-0.121">
        <ele>772.8</ele>
        <time>2017-08-13T11:20:15Z</time>
      </trkpt>
      <trkpt lat="42.50252" lon="-0.12096">
        <ele>772.9</ele>
        <time>2017-08-13T11:20:16Z</time>
      </trkpt>
      <trkpt lat="42.50249" lon="-0.12091">
        <ele>772.8</ele>
        <time>2017-08-13T11:20:17Z</time>
      </trkpt>
      <trkpt lat="42.50246" lon="-0.12086">
        <ele>772.5</ele>
        <time>2017-08-13T11:20:18Z</time>
      </trkpt>
      <trkpt lat="42.50242" lon="-0.12081">
        <ele>772.2</ele>
        <time>2017-08-13T11:20:19Z</time>
      </trkpt>
      <trkpt lat="42.50238" lon="-0.12078">
        <ele>772.1</ele>
        <time>2017-08-13T11:20:20Z</time>
      </trkpt>
      <trkpt lat="42.50233" lon="-0.12076">
        <ele>771.6</ele>
        <time>2017-08-13T11:20:21Z</time>
      </trkpt>
      <trkpt lat="42.5023" lon="-0.12073">
        <ele>771.8</ele>
        <time>2017-08-13T11:20:22Z</time>
      </trkpt>
      <trkpt lat="42.50227" lon="-0.12069">
        <ele>771.3</ele>
        <time>2017-08-13T11:20:23Z</time>
      </trkpt>
      <trkpt lat="42.50223" lon="-0.12066">
        <ele>770.7</ele>
        <time>2017-08-13T11:20:24Z</time>
      </trkpt>
      <trkpt lat="42.5022" lon="-0.12063">
        <ele>770.2</ele>
        <time>2017-08-13T11:20:25Z</time>
      </trkpt>
      <trkpt lat="42.50217" lon="-0.12061">
        <ele>770.4</ele>
        <time>2017-08-13T11:20:26Z</time>
      </trkpt>
      <trkpt lat="42.50215" lon="-0.12058">
        <ele>769.8</ele>
        <time>2017-08-13T11:20:27Z</time>
      </trkpt>
      <trkpt lat="42.50211" lon="-0.12055">
        <ele>769.2</ele>
        <time>2017-08-13T11:20:29Z</time>
      </trkpt>
      <trkpt lat="42.50208" lon="-0.12053">
        <ele>769.5</ele>
        <time>2017-08-13T11:20:30Z</time>
      </trkpt>
      <trkpt lat="42.50205" lon="-0.12051">
        <ele>769.8</ele>
        <time>2017-08-13T11:20:31Z</time>
      </trkpt>
      <trkpt lat="42.50202" lon="-0.12049">
        <ele>769.2</ele>
        <time>2017-08-13T11:20:32Z</time>
      </trkpt>
      <trkpt lat="42.50199" lon="-0.12047">
        <ele>769.7</ele>
        <time>2017-08-13T11:20:33Z</time>
      </trkpt>
      <trkpt lat="42.50195" lon="-0.12045">
        <ele>769.1</ele>
        <time>2017-08-13T11:20:34Z</time>
      </trkpt>
      <trkpt lat="42.50192" lon="-0.12043">
        <ele>769.6</ele>
        <time>2017-08-13T11:20:35Z</time>
      </trkpt>
      <trkpt lat="42.50189" lon="-0.1204">
        <ele>769.1</ele>
        <time>2017-08-13T11:20:36Z</time>
      </trkpt>
      <trkpt lat="42.50186" lon="-0.12038">
        <ele>768.5</ele>
        <time>2017-08-13T11:20:37Z</time>
      </trkpt>
      <trkpt lat="42.50182" lon="-0.12032">
        <ele>767.9</ele>
        <time>2017-08-13T11:20:38Z</time>
      </trkpt>
      <trkpt lat="42.5018" lon="-0.12027">
        <ele>767.3</ele>
        <time>2017-08-13T11:20:39Z</time>
      </trkpt>
      <trkpt lat="42.50176" lon="-0.12023">
        <ele>766.7</ele>
        <time>2017-08-13T11:20:40Z</time>
      </trkpt>
      <trkpt lat="42.50173" lon="-0.12019">
        <ele>766</ele>
        <time>2017-08-13T11:20:41Z</time>
      </trkpt>
      <trkpt lat="42.50169" lon="-0.12015">
        <ele>765.5</ele>
        <time>2017-08-13T11:20:42Z</time>
      </trkpt>
      <trkpt lat="42.50165" lon="-0.12011">
        <ele>765.5</ele>
        <time>2017-08-13T11:20:43Z</time>
      </trkpt>
      <trkpt lat="42.5016" lon="-0.12007">
        <ele>765</ele>
        <time>2017-08-13T11:20:44Z</time>
      </trkpt>
      <trkpt lat="42.50156" lon="-0.12003">
        <ele>764.5</ele>
        <time>2017-08-13T11:20:45Z</time>
      </trkpt>
      <trkpt lat="42.50152" lon="-0.11999">
        <ele>764.4</ele>
        <time>2017-08-13T11:20:46Z</time>
      </trkpt>
      <trkpt lat="42.50148" lon="-0.11995">
        <ele>764.8</ele>
        <time>2017-08-13T11:20:47Z</time>
      </trkpt>
      <trkpt lat="42.50144" lon="-0.11991">
        <ele>764.4</ele>
        <time>2017-08-13T11:20:48Z</time>
      </trkpt>
      <trkpt lat="42.50142" lon="-0.11985">
        <ele>763.5</ele>
        <time>2017-08-13T11:20:49Z</time>
      </trkpt>
      <trkpt lat="42.50139" lon="-0.1198">
        <ele>763.3</ele>
        <time>2017-08-13T11:20:50Z</time>
      </trkpt>
      <trkpt lat="42.50137" lon="-0.11975">
        <ele>763.2</ele>
        <time>2017-08-13T11:20:51Z</time>
      </trkpt>
      <trkpt lat="42.50135" lon="-0.11969">
        <ele>762.4</ele>
        <time>2017-08-13T11:20:52Z</time>
      </trkpt>
      <trkpt lat="42.50132" lon="-0.11965">
        <ele>762.2</ele>
        <time>2017-08-13T11:20:53Z</time>
      </trkpt>
      <trkpt lat="42.50129" lon="-0.1196">
        <ele>761.9</ele>
        <time>2017-08-13T11:20:54Z</time>
      </trkpt>
      <trkpt lat="42.50124" lon="-0.1196">
        <ele>762.2</ele>
        <time>2017-08-13T11:20:55Z</time>
      </trkpt>
      <trkpt lat="42.50119" lon="-0.11961">
        <ele>762.3</ele>
        <time>2017-08-13T11:20:57Z</time>
      </trkpt>
      <trkpt lat="42.50115" lon="-0.11959">
        <ele>762.4</ele>
        <time>2017-08-13T11:20:59Z</time>
      </trkpt>
      <trkpt lat="42.50111" lon="-0.11957">
        <ele>762.5</ele>
        <time>2017-08-13T11:21:01Z</time>
      </trkpt>
      <trkpt lat="42.50105" lon="-0.11955">
        <ele>762.3</ele>
        <time>2017-08-13T11:21:03Z</time>
      </trkpt>
      <trkpt lat="42.50101" lon="-0.11953">
        <ele>762.4</ele>
        <time>2017-08-13T11:21:05Z</time>
      </trkpt>
      <trkpt lat="42.50099" lon="-0.1195">
        <ele>762</ele>
        <time>2017-08-13T11:21:07Z</time>
      </trkpt>
      <trkpt lat="42.50097" lon="-0.11945">
        <ele>761.8</ele>
        <time>2017-08-13T11:21:09Z</time>
      </trkpt>
      <trkpt lat="42.50095" lon="-0.11942">
        <ele>761.6</ele>
        <time>2017-08-13T11:21:10Z</time>
      </trkpt>
      <trkpt lat="42.50092" lon="-0.11939">
        <ele>761.5</ele>
        <time>2017-08-13T11:21:11Z</time>
      </trkpt>
      <trkpt lat="42.50089" lon="-0.11936">
        <ele>761.7</ele>
        <time>2017-08-13T11:21:12Z</time>
      </trkpt>
      <trkpt lat="42.50086" lon="-0.11934">
        <ele>761.7</ele>
        <time>2017-08-13T11:21:13Z</time>
      </trkpt>
      <trkpt lat="42.50083" lon="-0.11932">
        <ele>761.8</ele>
        <time>2017-08-13T11:21:14Z</time>
      </trkpt>
      <trkpt lat="42.5008" lon="-0.11931">
        <ele>761.8</ele>
        <time>2017-08-13T11:21:15Z</time>
      </trkpt>
      <trkpt lat="42.50075" lon="-0.11928">
        <ele>761.9</ele>
        <time>2017-08-13T11:21:17Z</time>
      </trkpt>
      <trkpt lat="42.50072" lon="-0.11926">
        <ele>761.7</ele>
        <time>2017-08-13T11:21:19Z</time>
      </trkpt>
      <trkpt lat="42.5007" lon="-0.11923">
        <ele>761.7</ele>
        <time>2017-08-13T11:21:31Z</time>
      </trkpt>
      <trkpt lat="42.50065" lon="-0.1192">
        <ele>761.4</ele>
        <time>2017-08-13T11:26:36Z</time>
      </trkpt>
      <trkpt lat="42.50063" lon="-0.11919">
        <ele>761.3</ele>
        <time>2017-08-13T11:26:39Z</time>
      </trkpt>
      <trkpt lat="42.5006" lon="-0.11917">
        <ele>761</ele>
        <time>2017-08-13T11:26:42Z</time>
      </trkpt>
      <trkpt lat="42.50057" lon="-0.11916">
        <ele>760.9</ele>
        <time>2017-08-13T11:26:44Z</time>
      </trkpt>
      <trkpt lat="42.50054" lon="-0.11913">
        <ele>760.6</ele>
        <time>2017-08-13T11:26:46Z</time>
      </trkpt>
      <trkpt lat="42.5005" lon="-0.11909">
        <ele>760.5</ele>
        <time>2017-08-13T11:26:48Z</time>
      </trkpt>
      <trkpt lat="42.50047" lon="-0.11906">
        <ele>760.5</ele>
        <time>2017-08-13T11:26:49Z</time>
      </trkpt>
      <trkpt lat="42.50044" lon="-0.11904">
        <ele>760.5</ele>
        <time>2017-08-13T11:26:50Z</time>
      </trkpt>
      <trkpt lat="42.50041" lon="-0.11902">
        <ele>760.6</ele>
        <time>2017-08-13T11:26:51Z</time>
      </trkpt>
      <trkpt lat="42.50039" lon="-0.11901">
        <ele>760.7</ele>
        <time>2017-08-13T11:26:52Z</time>
      </trkpt>
      <trkpt lat="42.50036" lon="-0.119">
        <ele>760.6</ele>
        <time>2017-08-13T11:26:53Z</time>
      </trkpt>
      <trkpt lat="42.50033" lon="-0.11899">
        <ele>760.7</ele>
        <time>2017-08-13T11:26:54Z</time>
      </trkpt>
      <trkpt lat="42.5003" lon="-0.11898">
        <ele>760.8</ele>
        <time>2017-08-13T11:26:55Z</time>
      </trkpt>
      <trkpt lat="42.50027" lon="-0.11898">
        <ele>761</ele>
        <time>2017-08-13T11:26:56Z</time>
      </trkpt>
      <trkpt lat="42.50023" lon="-0.11898">
        <ele>761.1</ele>
        <time>2017-08-13T11:26:57Z</time>
      </trkpt>
      <trkpt lat="42.5002" lon="-0.11898">
        <ele>761.3</ele>
        <time>2017-08-13T11:26:58Z</time>
      </trkpt>
      <trkpt lat="42.50017" lon="-0.11899">
        <ele>761.8</ele>
        <time>2017-08-13T11:26:59Z</time>
      </trkpt>
      <trkpt lat="42.50013" lon="-0.11901">
        <ele>762.1</ele>
        <time>2017-08-13T11:27:00Z</time>
      </trkpt>
      <trkpt lat="42.50009" lon="-0.11903">
        <ele>762.3</ele>
        <time>2017-08-13T11:27:01Z</time>
      </trkpt>
      <trkpt lat="42.50006" lon="-0.11904">
        <ele>762.4</ele>
        <time>2017-08-13T11:27:02Z</time>
      </trkpt>
      <trkpt lat="42.50002" lon="-0.11906">
        <ele>762.6</ele>
        <time>2017-08-13T11:27:03Z</time>
      </trkpt>
      <trkpt lat="42.49999" lon="-0.11907">
        <ele>762.7</ele>
        <time>2017-08-13T11:27:04Z</time>
      </trkpt>
      <trkpt lat="42.49995" lon="-0.11908">
        <ele>762.8</ele>
        <time>2017-08-13T11:27:05Z</time>
      </trkpt>
      <trkpt lat="42.49992" lon="-0.11909">
        <ele>762.8</ele>
        <time>2017-08-13T11:27:06Z</time>
      </trkpt>
      <trkpt lat="42.49989" lon="-0.1191">
        <ele>762.9</ele>
        <time>2017-08-13T11:27:07Z</time>
      </trkpt>
      <trkpt lat="42.49985" lon="-0.11911">
        <ele>762.9</ele>
        <time>2017-08-13T11:27:08Z</time>
      </trkpt>
      <trkpt lat="42.49982" lon="-0.11912">
        <ele>763</ele>
        <time>2017-08-13T11:27:09Z</time>
      </trkpt>
      <trkpt lat="42.49979" lon="-0.11913">
        <ele>763.1</ele>
        <time>2017-08-13T11:27:10Z</time>
      </trkpt>
      <trkpt lat="42.49976" lon="-0.11914">
        <ele>763.2</ele>
        <time>2017-08-13T11:27:11Z</time>
      </trkpt>
      <trkpt lat="42.49973" lon="-0.11914">
        <ele>763.3</ele>
        <time>2017-08-13T11:27:12Z</time>
      </trkpt>
      <trkpt lat="42.49969" lon="-0.11915">
        <ele>763.6</ele>
        <time>2017-08-13T11:27:13Z</time>
      </trkpt>
      <trkpt lat="42.49966" lon="-0.11915">
        <ele>763.7</ele>
        <time>2017-08-13T11:27:14Z</time>
      </trkpt>
      <trkpt lat="42.49963" lon="-0.11915">
        <ele>763.7</ele>
        <time>2017-08-13T11:27:15Z</time>
      </trkpt>
      <trkpt lat="42.4996" lon="-0.11914">
        <ele>763.8</ele>
        <time>2017-08-13T11:27:16Z</time>
      </trkpt>
      <trkpt lat="42.49958" lon="-0.11913">
        <ele>764</ele>
        <time>2017-08-13T11:27:17Z</time>
      </trkpt>
      <trkpt lat="42.49953" lon="-0.11911">
        <ele>764.3</ele>
        <time>2017-08-13T11:27:19Z</time>
      </trkpt>
      <trkpt lat="42.49948" lon="-0.11909">
        <ele>764.3</ele>
        <time>2017-08-13T11:27:21Z</time>
      </trkpt>
      <trkpt lat="42.49943" lon="-0.11905">
        <ele>764.6</ele>
        <time>2017-08-13T11:27:23Z</time>
      </trkpt>
      <trkpt lat="42.4994" lon="-0.119">
        <ele>764.5</ele>
        <time>2017-08-13T11:27:25Z</time>
      </trkpt>
      <trkpt lat="42.49937" lon="-0.11896">
        <ele>764.3</ele>
        <time>2017-08-13T11:27:27Z</time>
      </trkpt>
      <trkpt lat="42.49934" lon="-0.11893">
        <ele>764.2</ele>
        <time>2017-08-13T11:27:29Z</time>
      </trkpt>
      <trkpt lat="42.49931" lon="-0.11889">
        <ele>764.1</ele>
        <time>2017-08-13T11:27:31Z</time>
      </trkpt>
      <trkpt lat="42.49929" lon="-0.11884">
        <ele>764</ele>
        <time>2017-08-13T11:27:33Z</time>
      </trkpt>
      <trkpt lat="42.49927" lon="-0.11878">
        <ele>763.9</ele>
        <time>2017-08-13T11:27:35Z</time>
      </trkpt>
      <trkpt lat="42.49926" lon="-0.11871">
        <ele>763.7</ele>
        <time>2017-08-13T11:27:37Z</time>
      </trkpt>
      <trkpt lat="42.49925" lon="-0.11868">
        <ele>763.7</ele>
        <time>2017-08-13T11:27:38Z</time>
      </trkpt>
      <trkpt lat="42.49923" lon="-0.11861">
        <ele>763.5</ele>
        <time>2017-08-13T11:27:40Z</time>
      </trkpt>
    </trkseg>
  </trk>
</gpx>